<?xml version='1.0' encoding='UTF-8'?><gpx version="1.1" creator="JPX - https://github.com/jenetics/jpx" xmlns="http://www.topografix.com/GPX/1/1"><trk><trkseg><trkpt lat="38.006199880040796" lon="15.424007871447571"><ele>21.0</ele><time>2026-04-12T05:58:48Z</time></trkpt><trkpt lat="38.006117431068915" lon="15.423995742833018"><ele>21.0</ele><time>2026-04-12T06:01:34.994Z</time></trkpt><trkpt lat="38.00605825098527" lon="15.423965835278965"><ele>21.0</ele><time>2026-04-12T06:01:37.994Z</time></trkpt><trkpt lat="38.006020778072575" lon="15.423876384254461"><ele>21.0</ele><time>2026-04-12T06:01:41.994Z</time></trkpt><trkpt lat="38.005971348820836" lon="15.423808177840675"><ele>21.0</ele><time>2026-04-12T06:01:43.994Z</time></trkpt><trkpt lat="38.00593026189643" lon="15.423716478128947"><ele>21.0</ele><time>2026-04-12T06:01:45.994Z</time></trkpt><trkpt lat="38.00590459039028" lon="15.423602689798189"><ele>22.166666666666668</ele><time>2026-04-12T06:01:47.994Z</time></trkpt><trkpt lat="38.00592770252356" lon="15.423483517829842"><ele>23.333333333333336</ele><time>2026-04-12T06:01:49.994Z</time></trkpt><trkpt lat="38.00597113357049" lon="15.423372598552325"><ele>24.5</ele><time>2026-04-12T06:01:51.994Z</time></trkpt><trkpt lat="38.006013408728464" lon="15.423270984936167"><ele>25.666666666666668</ele><time>2026-04-12T06:01:53.994Z</time></trkpt><trkpt lat="38.00604133127612" lon="15.423181325927583"><ele>26.833333333333336</ele><time>2026-04-12T06:01:55.994Z</time></trkpt><trkpt lat="38.006041342056264" lon="15.423076242990598"><ele>28.0</ele><time>2026-04-12T06:01:57.994Z</time></trkpt><trkpt lat="38.006018355788896" lon="15.422975581557798"><ele>28.333333333333336</ele><time>2026-04-12T06:01:59.994Z</time></trkpt><trkpt lat="38.005946108544514" lon="15.422905176826292"><ele>28.666666666666668</ele><time>2026-04-12T06:02:01.994Z</time></trkpt><trkpt lat="38.005859819619914" lon="15.422850162555314"><ele>29.0</ele><time>2026-04-12T06:02:03.994Z</time></trkpt><trkpt lat="38.00581297534324" lon="15.422759714887365"><ele>29.333333333333336</ele><time>2026-04-12T06:02:05.994Z</time></trkpt><trkpt lat="38.005772452871064" lon="15.422673918372316"><ele>29.666666666666668</ele><time>2026-04-12T06:02:07.994Z</time></trkpt><trkpt lat="38.00570681917941" lon="15.422653531814815"><ele>30.0</ele><time>2026-04-12T06:02:10.993Z</time></trkpt><trkpt lat="38.005638171628576" lon="15.422667562988398"><ele>28.166666666666668</ele><time>2026-04-12T06:02:13.993Z</time></trkpt><trkpt lat="38.00557210481379" lon="15.422701925596217"><ele>26.333333333333332</ele><time>2026-04-12T06:02:15.993Z</time></trkpt><trkpt lat="38.005511168158385" lon="15.42276305306526"><ele>24.5</ele><time>2026-04-12T06:02:17.993Z</time></trkpt><trkpt lat="38.00544916670762" lon="15.422837290101342"><ele>22.666666666666664</ele><time>2026-04-12T06:02:19.993Z</time></trkpt><trkpt lat="38.00537929610683" lon="15.422924527323381"><ele>20.833333333333332</ele><time>2026-04-12T06:02:21.993Z</time></trkpt><trkpt lat="38.00531582427144" lon="15.423008401323989"><ele>19.0</ele><time>2026-04-12T06:02:23.993Z</time></trkpt><trkpt lat="38.0052440471938" lon="15.423067364319715"><ele>18.833333333333332</ele><time>2026-04-12T06:02:25.993Z</time></trkpt><trkpt lat="38.00519912898779" lon="15.423135219627023"><ele>18.666666666666664</ele><time>2026-04-12T06:02:28.993Z</time></trkpt><trkpt lat="38.00511483271797" lon="15.423203451428"><ele>18.5</ele><time>2026-04-12T06:02:31.993Z</time></trkpt><trkpt lat="38.00506399993586" lon="15.423299256257557"><ele>18.333333333333332</ele><time>2026-04-12T06:02:33.993Z</time></trkpt><trkpt lat="38.00500443588417" lon="15.4233867780503"><ele>18.166666666666668</ele><time>2026-04-12T06:02:35.993Z</time></trkpt><trkpt lat="38.00495717362329" lon="15.423464294456249"><ele>18.0</ele><time>2026-04-12T06:02:37.993Z</time></trkpt><trkpt lat="38.004902572122084" lon="15.423562521247451"><ele>17.2</ele><time>2026-04-12T06:02:39.993Z</time></trkpt><trkpt lat="38.004842001629385" lon="15.423641158133654"><ele>16.4</ele><time>2026-04-12T06:02:41.993Z</time></trkpt><trkpt lat="38.004778590354" lon="15.423678134811343"><ele>15.599999999999998</ele><time>2026-04-12T06:02:45.993Z</time></trkpt><trkpt lat="38.00463926922887" lon="15.423596574270082"><ele>14.799999999999999</ele><time>2026-04-12T06:02:57.992Z</time></trkpt><trkpt lat="38.0045538348798" lon="15.423513021861243"><ele>14.0</ele><time>2026-04-12T06:02:59.992Z</time></trkpt><trkpt lat="38.00456375900624" lon="15.423404073257924"><ele>14.000000000000002</ele><time>2026-04-12T06:03:00.992Z</time></trkpt><trkpt lat="38.00446815441377" lon="15.423298864965613"><ele>14.0</ele><time>2026-04-12T06:03:02.992Z</time></trkpt><trkpt lat="38.00442039369628" lon="15.423246306496981"><ele>14.0</ele><time>2026-04-12T06:03:03.992Z</time></trkpt><trkpt lat="38.00435703052475" lon="15.423201041325951"><ele>14.0</ele><time>2026-04-12T06:03:04.992Z</time></trkpt><trkpt lat="38.00430027447775" lon="15.423136529966689"><ele>14.000000000000002</ele><time>2026-04-12T06:03:05.992Z</time></trkpt><trkpt lat="38.00424384063613" lon="15.423072685431539"><ele>14.0</ele><time>2026-04-12T06:03:06.992Z</time></trkpt><trkpt lat="38.00418768112113" lon="15.423008864217653"><ele>14.166666666666668</ele><time>2026-04-12T06:03:07.992Z</time></trkpt><trkpt lat="38.00413158465743" lon="15.422944564251642"><ele>14.333333333333334</ele><time>2026-04-12T06:03:08.992Z</time></trkpt><trkpt lat="38.00407556426196" lon="15.422887331934508"><ele>14.5</ele><time>2026-04-12T06:03:09.992Z</time></trkpt><trkpt lat="38.004022285743005" lon="15.42283051267057"><ele>14.666666666666668</ele><time>2026-04-12T06:03:10.992Z</time></trkpt><trkpt lat="38.00400926937258" lon="15.422727961450342"><ele>14.833333333333334</ele><time>2026-04-12T06:03:11.992Z</time></trkpt><trkpt lat="38.003956761690816" lon="15.422661299222117"><ele>15.0</ele><time>2026-04-12T06:03:12.992Z</time></trkpt><trkpt lat="38.003865806719844" lon="15.422567715461348"><ele>15.0</ele><time>2026-04-12T06:03:14.992Z</time></trkpt><trkpt lat="38.00376467629367" lon="15.422484073949336"><ele>15.0</ele><time>2026-04-12T06:03:16.992Z</time></trkpt><trkpt lat="38.003706194501426" lon="15.422432022969886"><ele>15.0</ele><time>2026-04-12T06:03:17.992Z</time></trkpt><trkpt lat="38.00363658774917" lon="15.422386935064367"><ele>15.0</ele><time>2026-04-12T06:03:18.992Z</time></trkpt><trkpt lat="38.003582897399674" lon="15.42230936491676"><ele>15.0</ele><time>2026-04-12T06:03:19.992Z</time></trkpt><trkpt lat="38.00352237778148" lon="15.422244244876707"><ele>15.0</ele><time>2026-04-12T06:03:20.992Z</time></trkpt><trkpt lat="38.00346430706244" lon="15.422184690942602"><ele>15.0</ele><time>2026-04-12T06:03:21.991Z</time></trkpt><trkpt lat="38.003408839963065" lon="15.42212944255955"><ele>15.0</ele><time>2026-04-12T06:03:22.991Z</time></trkpt><trkpt lat="38.00335564608414" lon="15.422076458218092"><ele>15.0</ele><time>2026-04-12T06:03:23.991Z</time></trkpt><trkpt lat="38.00329687403117" lon="15.422021002930073"><ele>15.0</ele><time>2026-04-12T06:03:24.991Z</time></trkpt><trkpt lat="38.00323993372424" lon="15.421968711856408"><ele>15.0</ele><time>2026-04-12T06:03:25.991Z</time></trkpt><trkpt lat="38.0031703902154" lon="15.421929037546958"><ele>15.0</ele><time>2026-04-12T06:03:26.991Z</time></trkpt><trkpt lat="38.00310696541396" lon="15.421878098808785"><ele>15.0</ele><time>2026-04-12T06:03:27.991Z</time></trkpt><trkpt lat="38.00307086124269" lon="15.42178602788384"><ele>15.0</ele><time>2026-04-12T06:03:28.991Z</time></trkpt><trkpt lat="38.00300724240355" lon="15.421733571041422"><ele>15.0</ele><time>2026-04-12T06:03:29.991Z</time></trkpt><trkpt lat="38.00294564064128" lon="15.421687718120069"><ele>15.0</ele><time>2026-04-12T06:03:30.991Z</time></trkpt><trkpt lat="38.00287817266881" lon="15.42163879697789"><ele>15.0</ele><time>2026-04-12T06:03:31.991Z</time></trkpt><trkpt lat="38.00280206842569" lon="15.421584984366037"><ele>15.0</ele><time>2026-04-12T06:03:32.991Z</time></trkpt><trkpt lat="38.00270835488214" lon="15.421527306025483"><ele>15.0</ele><time>2026-04-12T06:03:33.991Z</time></trkpt><trkpt lat="38.00263013171911" lon="15.421471409449772"><ele>15.0</ele><time>2026-04-12T06:03:34.991Z</time></trkpt><trkpt lat="38.00253474131192" lon="15.421402760524419"><ele>15.0</ele><time>2026-04-12T06:03:35.991Z</time></trkpt><trkpt lat="38.00244555470498" lon="15.421353436063377"><ele>15.0</ele><time>2026-04-12T06:03:36.991Z</time></trkpt><trkpt lat="38.00236428539629" lon="15.421291619274639"><ele>15.0</ele><time>2026-04-12T06:03:37.991Z</time></trkpt><trkpt lat="38.00228150130565" lon="15.421219861976843"><ele>15.0</ele><time>2026-04-12T06:03:38.991Z</time></trkpt><trkpt lat="38.00219744284189" lon="15.421162463067404"><ele>15.2</ele><time>2026-04-12T06:03:39.991Z</time></trkpt><trkpt lat="38.00211820860194" lon="15.421108541125967"><ele>15.4</ele><time>2026-04-12T06:03:40.991Z</time></trkpt><trkpt lat="38.00207119032389" lon="15.421000272408465"><ele>15.600000000000001</ele><time>2026-04-12T06:03:41.991Z</time></trkpt><trkpt lat="38.00198715968624" lon="15.420920378157513"><ele>15.8</ele><time>2026-04-12T06:03:42.991Z</time></trkpt><trkpt lat="38.00189836686323" lon="15.420833425090382"><ele>16.0</ele><time>2026-04-12T06:03:43.991Z</time></trkpt><trkpt lat="38.001807760970486" lon="15.420749071838681"><ele>16.0</ele><time>2026-04-12T06:03:44.991Z</time></trkpt><trkpt lat="38.00172290843794" lon="15.420668521788356"><ele>16.0</ele><time>2026-04-12T06:03:45.991Z</time></trkpt><trkpt lat="38.001643727423186" lon="15.420595747918362"><ele>16.0</ele><time>2026-04-12T06:03:46.991Z</time></trkpt><trkpt lat="38.0015668173567" lon="15.420527006122207"><ele>16.0</ele><time>2026-04-12T06:03:47.991Z</time></trkpt><trkpt lat="38.00148228125936" lon="15.42046167277758"><ele>16.0</ele><time>2026-04-12T06:03:48.991Z</time></trkpt><trkpt lat="38.00140349235862" lon="15.420396718923664"><ele>16.0</ele><time>2026-04-12T06:03:49.991Z</time></trkpt><trkpt lat="38.001325440156734" lon="15.420323118398743"><ele>16.0</ele><time>2026-04-12T06:03:50.991Z</time></trkpt><trkpt lat="38.00125247898427" lon="15.420251474591675"><ele>16.0</ele><time>2026-04-12T06:03:51.991Z</time></trkpt><trkpt lat="38.00117640611459" lon="15.420183356926827"><ele>16.0</ele><time>2026-04-12T06:03:52.991Z</time></trkpt><trkpt lat="38.00109726213269" lon="15.420125499480042"><ele>16.0</ele><time>2026-04-12T06:03:53.991Z</time></trkpt><trkpt lat="38.00102322976551" lon="15.420060129027954"><ele>15.999999999999998</ele><time>2026-04-12T06:03:54.991Z</time></trkpt><trkpt lat="38.00096283549677" lon="15.419962300345906"><ele>16.0</ele><time>2026-04-12T06:03:55.991Z</time></trkpt><trkpt lat="38.000890342676485" lon="15.419889011659308"><ele>16.0</ele><time>2026-04-12T06:03:56.991Z</time></trkpt><trkpt lat="38.000826652470266" lon="15.419824073255953"><ele>16.0</ele><time>2026-04-12T06:03:57.99Z</time></trkpt><trkpt lat="38.00076628180982" lon="15.419762519428854"><ele>15.999999999999998</ele><time>2026-04-12T06:03:58.99Z</time></trkpt><trkpt lat="38.00071140484287" lon="15.419707376647889"><ele>16.0</ele><time>2026-04-12T06:03:59.99Z</time></trkpt><trkpt lat="38.00065194461685" lon="15.419649255775528"><ele>15.8</ele><time>2026-04-12T06:04:00.99Z</time></trkpt><trkpt lat="38.00056868274102" lon="15.41958826409518"><ele>15.600000000000001</ele><time>2026-04-12T06:04:01.99Z</time></trkpt><trkpt lat="38.00051561748059" lon="15.41946951543573"><ele>15.4</ele><time>2026-04-12T06:04:02.99Z</time></trkpt><trkpt lat="38.00042889948635" lon="15.419371552881865"><ele>15.2</ele><time>2026-04-12T06:04:03.99Z</time></trkpt><trkpt lat="38.00033137934294" lon="15.419266979811992"><ele>15.0</ele><time>2026-04-12T06:04:04.99Z</time></trkpt><trkpt lat="38.00023430073835" lon="15.419140058922306"><ele>15.0</ele><time>2026-04-12T06:04:05.99Z</time></trkpt><trkpt lat="38.00011920160136" lon="15.41901698714011"><ele>15.0</ele><time>2026-04-12T06:04:06.99Z</time></trkpt><trkpt lat="37.99998273434994" lon="15.418884950884724"><ele>15.0</ele><time>2026-04-12T06:04:07.99Z</time></trkpt><trkpt lat="37.99985136076693" lon="15.418745669194752"><ele>14.666666666666668</ele><time>2026-04-12T06:04:08.99Z</time></trkpt><trkpt lat="37.99972632664256" lon="15.418592597612053"><ele>14.333333333333334</ele><time>2026-04-12T06:04:09.99Z</time></trkpt><trkpt lat="37.99959874999711" lon="15.41844372191776"><ele>14.0</ele><time>2026-04-12T06:04:10.99Z</time></trkpt><trkpt lat="37.99947409591345" lon="15.418292784478718"><ele>14.0</ele><time>2026-04-12T06:04:11.99Z</time></trkpt><trkpt lat="37.99935221645854" lon="15.418162979526574"><ele>14.0</ele><time>2026-04-12T06:04:12.99Z</time></trkpt><trkpt lat="37.99924110143369" lon="15.41804146658048"><ele>14.0</ele><time>2026-04-12T06:04:13.99Z</time></trkpt><trkpt lat="37.99913598552932" lon="15.417924937465381"><ele>14.0</ele><time>2026-04-12T06:04:14.99Z</time></trkpt><trkpt lat="37.99903866369827" lon="15.417808525868743"><ele>13.666666666666668</ele><time>2026-04-12T06:04:15.99Z</time></trkpt><trkpt lat="37.99898252541332" lon="15.41765457975736"><ele>13.333333333333332</ele><time>2026-04-12T06:04:16.99Z</time></trkpt><trkpt lat="37.99890541627913" lon="15.417566874238819"><ele>13.0</ele><time>2026-04-12T06:04:17.99Z</time></trkpt><trkpt lat="37.999012384581945" lon="15.417268520558245"><ele>13.0</ele><time>2026-04-12T06:04:18.99Z</time></trkpt><trkpt lat="37.999105203624076" lon="15.417080825427673"><ele>13.0</ele><time>2026-04-12T06:04:19.99Z</time></trkpt><trkpt lat="37.99919640532612" lon="15.416895681060794"><ele>13.0</ele><time>2026-04-12T06:04:20.99Z</time></trkpt><trkpt lat="37.999296768069" lon="15.416716723552533"><ele>15.0</ele><time>2026-04-12T06:04:21.99Z</time></trkpt><trkpt lat="37.99936989480522" lon="15.416511803871245"><ele>17.0</ele><time>2026-04-12T06:04:22.99Z</time></trkpt><trkpt lat="37.99943109280519" lon="15.416295995061112"><ele>19.0</ele><time>2026-04-12T06:04:23.99Z</time></trkpt><trkpt lat="37.99950014178717" lon="15.416084272240438"><ele>19.0</ele><time>2026-04-12T06:04:24.99Z</time></trkpt><trkpt lat="37.9995635641252" lon="15.415880950748122"><ele>19.0</ele><time>2026-04-12T06:04:25.99Z</time></trkpt><trkpt lat="37.99960503074495" lon="15.415673744765066"><ele>19.0</ele><time>2026-04-12T06:04:26.99Z</time></trkpt><trkpt lat="37.99963337698095" lon="15.415470193619017"><ele>20.0</ele><time>2026-04-12T06:04:27.99Z</time></trkpt><trkpt lat="37.99964903060607" lon="15.41528343228295"><ele>21.0</ele><time>2026-04-12T06:04:28.99Z</time></trkpt><trkpt lat="37.999633521720085" lon="15.41510039346537"><ele>22.0</ele><time>2026-04-12T06:04:29.99Z</time></trkpt><trkpt lat="37.99952946274532" lon="15.414950336228568"><ele>22.0</ele><time>2026-04-12T06:04:30.99Z</time></trkpt><trkpt lat="37.999413815991275" lon="15.414790892206069"><ele>22.0</ele><time>2026-04-12T06:04:31.99Z</time></trkpt><trkpt lat="37.99930112922526" lon="15.414627300035821"><ele>22.0</ele><time>2026-04-12T06:04:32.99Z</time></trkpt><trkpt lat="37.99915802538124" lon="15.41449772994726"><ele>21.333333333333332</ele><time>2026-04-12T06:04:33.989Z</time></trkpt><trkpt lat="37.99903859746056" lon="15.41435493979672"><ele>20.666666666666668</ele><time>2026-04-12T06:04:34.989Z</time></trkpt><trkpt lat="37.99891582027946" lon="15.414217388420221"><ele>20.0</ele><time>2026-04-12T06:04:35.989Z</time></trkpt><trkpt lat="37.99878993805301" lon="15.414081419000008"><ele>20.0</ele><time>2026-04-12T06:04:36.989Z</time></trkpt><trkpt lat="37.99865307073243" lon="15.413959154261445"><ele>20.0</ele><time>2026-04-12T06:04:37.989Z</time></trkpt><trkpt lat="37.99851852633775" lon="15.41384393579414"><ele>20.0</ele><time>2026-04-12T06:04:38.989Z</time></trkpt><trkpt lat="37.998384362252686" lon="15.413729959157351"><ele>20.0</ele><time>2026-04-12T06:04:39.989Z</time></trkpt><trkpt lat="37.99824580982249" lon="15.413615623984795"><ele>20.0</ele><time>2026-04-12T06:04:40.989Z</time></trkpt><trkpt lat="37.99811636336111" lon="15.413476328405359"><ele>20.0</ele><time>2026-04-12T06:04:41.989Z</time></trkpt><trkpt lat="37.997977442109104" lon="15.41334993172027"><ele>20.0</ele><time>2026-04-12T06:04:42.989Z</time></trkpt><trkpt lat="37.9978325033216" lon="15.413218971839456"><ele>20.0</ele><time>2026-04-12T06:04:43.989Z</time></trkpt><trkpt lat="37.997685738841085" lon="15.413086924191331"><ele>20.0</ele><time>2026-04-12T06:04:44.989Z</time></trkpt><trkpt lat="37.99752304811354" lon="15.412965494245604"><ele>20.333333333333336</ele><time>2026-04-12T06:04:45.989Z</time></trkpt><trkpt lat="37.99737678278426" lon="15.412827371853886"><ele>20.666666666666668</ele><time>2026-04-12T06:04:46.989Z</time></trkpt><trkpt lat="37.99723366664699" lon="15.41269163268025"><ele>21.0</ele><time>2026-04-12T06:04:47.989Z</time></trkpt><trkpt lat="37.99709475818624" lon="15.412566830118664"><ele>21.0</ele><time>2026-04-12T06:04:48.989Z</time></trkpt><trkpt lat="37.99695688358156" lon="15.412449907664408"><ele>21.0</ele><time>2026-04-12T06:04:49.989Z</time></trkpt><trkpt lat="37.99682241522808" lon="15.412366250354541"><ele>21.0</ele><time>2026-04-12T06:04:50.989Z</time></trkpt><trkpt lat="37.99667928539732" lon="15.412312141628576"><ele>21.0</ele><time>2026-04-12T06:04:51.989Z</time></trkpt><trkpt lat="37.99654948885095" lon="15.412235790283885"><ele>21.0</ele><time>2026-04-12T06:04:52.989Z</time></trkpt><trkpt lat="37.99641930231243" lon="15.412175175315019"><ele>21.0</ele><time>2026-04-12T06:04:53.989Z</time></trkpt><trkpt lat="37.996283809228885" lon="15.412136916224808"><ele>21.0</ele><time>2026-04-12T06:04:54.989Z</time></trkpt><trkpt lat="37.9961548475788" lon="15.412078063383127"><ele>21.0</ele><time>2026-04-12T06:04:55.989Z</time></trkpt><trkpt lat="37.9960329067142" lon="15.412018464695278"><ele>21.0</ele><time>2026-04-12T06:04:56.989Z</time></trkpt><trkpt lat="37.99591526007391" lon="15.411961503652295"><ele>21.0</ele><time>2026-04-12T06:04:57.989Z</time></trkpt><trkpt lat="37.99580557638909" lon="15.411884199282428"><ele>21.0</ele><time>2026-04-12T06:04:58.989Z</time></trkpt><trkpt lat="37.995687624110296" lon="15.411884843727762"><ele>21.25</ele><time>2026-04-12T06:04:59.989Z</time></trkpt><trkpt lat="37.99558339823765" lon="15.411960961194184"><ele>21.5</ele><time>2026-04-12T06:05:00.989Z</time></trkpt><trkpt lat="37.99547421527074" lon="15.41201458721733"><ele>21.75</ele><time>2026-04-12T06:05:01.989Z</time></trkpt><trkpt lat="37.99536627518962" lon="15.412057995283618"><ele>22.0</ele><time>2026-04-12T06:05:02.989Z</time></trkpt><trkpt lat="37.995257771371186" lon="15.412106100792975"><ele>21.75</ele><time>2026-04-12T06:05:03.989Z</time></trkpt><trkpt lat="37.99515529363241" lon="15.41217286256815"><ele>21.5</ele><time>2026-04-12T06:05:04.989Z</time></trkpt><trkpt lat="37.995034785705826" lon="15.412203402466345"><ele>21.25</ele><time>2026-04-12T06:05:05.989Z</time></trkpt><trkpt lat="37.99492080723906" lon="15.412254579836297"><ele>21.0</ele><time>2026-04-12T06:05:06.989Z</time></trkpt><trkpt lat="37.99480674902461" lon="15.412308968058435"><ele>20.2</ele><time>2026-04-12T06:05:07.989Z</time></trkpt><trkpt lat="37.994697933574244" lon="15.412364940619415"><ele>19.400000000000002</ele><time>2026-04-12T06:05:08.989Z</time></trkpt><trkpt lat="37.994593570153526" lon="15.412414942159085"><ele>18.6</ele><time>2026-04-12T06:05:09.988Z</time></trkpt><trkpt lat="37.99449109806036" lon="15.412464281463405"><ele>17.8</ele><time>2026-04-12T06:05:10.988Z</time></trkpt><trkpt lat="37.994390177072425" lon="15.412514945668258"><ele>17.0</ele><time>2026-04-12T06:05:11.988Z</time></trkpt><trkpt lat="37.994294270244794" lon="15.412560570742368"><ele>17.0</ele><time>2026-04-12T06:05:12.988Z</time></trkpt><trkpt lat="37.994196628105634" lon="15.412589299359809"><ele>17.0</ele><time>2026-04-12T06:05:13.988Z</time></trkpt><trkpt lat="37.9940933548583" lon="15.412625041522853"><ele>17.0</ele><time>2026-04-12T06:05:14.988Z</time></trkpt><trkpt lat="37.99399621389423" lon="15.412662345628686"><ele>17.0</ele><time>2026-04-12T06:05:15.988Z</time></trkpt><trkpt lat="37.99390324536722" lon="15.412692446199104"><ele>17.0</ele><time>2026-04-12T06:05:16.988Z</time></trkpt><trkpt lat="37.99382053755292" lon="15.412754323213099"><ele>17.0</ele><time>2026-04-12T06:05:17.988Z</time></trkpt><trkpt lat="37.99373890474163" lon="15.41279548062286"><ele>17.0</ele><time>2026-04-12T06:05:18.988Z</time></trkpt><trkpt lat="37.993597593747864" lon="15.412717752120196"><ele>17.0</ele><time>2026-04-12T06:05:19.988Z</time></trkpt><trkpt lat="37.99348883229396" lon="15.412618453746674"><ele>17.0</ele><time>2026-04-12T06:05:20.988Z</time></trkpt><trkpt lat="37.99337124878441" lon="15.412512432801629"><ele>16.5</ele><time>2026-04-12T06:05:21.988Z</time></trkpt><trkpt lat="37.993265087283355" lon="15.412417961536182"><ele>16.0</ele><time>2026-04-12T06:05:22.988Z</time></trkpt><trkpt lat="37.993303426162704" lon="15.412516478396817"><ele>15.5</ele><time>2026-04-12T06:05:23.988Z</time></trkpt><trkpt lat="37.99320254707158" lon="15.41242670792239"><ele>15.0</ele><time>2026-04-12T06:05:24.988Z</time></trkpt><trkpt lat="37.99310129476379" lon="15.412336605289557"><ele>15.0</ele><time>2026-04-12T06:05:25.988Z</time></trkpt><trkpt lat="37.993001562603325" lon="15.412247855396851"><ele>15.0</ele><time>2026-04-12T06:05:26.988Z</time></trkpt><trkpt lat="37.99290029569441" lon="15.412157739203142"><ele>15.0</ele><time>2026-04-12T06:05:27.988Z</time></trkpt><trkpt lat="37.99279884694086" lon="15.41206700684776"><ele>15.0</ele><time>2026-04-12T06:05:28.988Z</time></trkpt><trkpt lat="37.992697495334305" lon="15.411974101195439"><ele>15.25</ele><time>2026-04-12T06:05:29.988Z</time></trkpt><trkpt lat="37.99259368749369" lon="15.411878302615827"><ele>15.5</ele><time>2026-04-12T06:05:30.988Z</time></trkpt><trkpt lat="37.9924880146118" lon="15.411782684624242"><ele>15.75</ele><time>2026-04-12T06:05:31.988Z</time></trkpt><trkpt lat="37.992384430878296" lon="15.411691436112239"><ele>16.0</ele><time>2026-04-12T06:05:32.988Z</time></trkpt><trkpt lat="37.992282952438494" lon="15.411604061146562"><ele>16.0</ele><time>2026-04-12T06:05:33.988Z</time></trkpt><trkpt lat="37.99218683800277" lon="15.411521303596075"><ele>16.0</ele><time>2026-04-12T06:05:34.988Z</time></trkpt><trkpt lat="37.992080709029956" lon="15.411459304648176"><ele>16.0</ele><time>2026-04-12T06:05:35.988Z</time></trkpt><trkpt lat="37.99199046651882" lon="15.41136791317205"><ele>16.0</ele><time>2026-04-12T06:05:36.988Z</time></trkpt><trkpt lat="37.99189966503128" lon="15.411270466081385"><ele>16.0</ele><time>2026-04-12T06:05:37.988Z</time></trkpt><trkpt lat="37.99180348459143" lon="15.411172303082465"><ele>16.0</ele><time>2026-04-12T06:05:38.988Z</time></trkpt><trkpt lat="37.991704225199314" lon="15.411074559023008"><ele>16.0</ele><time>2026-04-12T06:05:39.988Z</time></trkpt><trkpt lat="37.99159628577211" lon="15.410973355178925"><ele>16.0</ele><time>2026-04-12T06:05:40.988Z</time></trkpt><trkpt lat="37.9914708183455" lon="15.410860532434569"><ele>16.0</ele><time>2026-04-12T06:05:41.988Z</time></trkpt><trkpt lat="37.99136694869834" lon="15.410726180100385"><ele>16.0</ele><time>2026-04-12T06:05:42.988Z</time></trkpt><trkpt lat="37.99125962337349" lon="15.410621776873532"><ele>16.0</ele><time>2026-04-12T06:05:43.988Z</time></trkpt><trkpt lat="37.991156509900044" lon="15.410520918933043"><ele>16.0</ele><time>2026-04-12T06:05:44.988Z</time></trkpt><trkpt lat="37.99106214380404" lon="15.410419098110225"><ele>15.75</ele><time>2026-04-12T06:05:45.987Z</time></trkpt><trkpt lat="37.990968042706974" lon="15.41033223524739"><ele>15.5</ele><time>2026-04-12T06:05:46.987Z</time></trkpt><trkpt lat="37.9908783881607" lon="15.410223900676062"><ele>15.25</ele><time>2026-04-12T06:05:47.987Z</time></trkpt><trkpt lat="37.990781518821855" lon="15.410106328668084"><ele>15.0</ele><time>2026-04-12T06:05:48.987Z</time></trkpt><trkpt lat="37.99067905404707" lon="15.409989113966285"><ele>15.0</ele><time>2026-04-12T06:05:49.987Z</time></trkpt><trkpt lat="37.99057484721346" lon="15.409869388176295"><ele>15.0</ele><time>2026-04-12T06:05:50.987Z</time></trkpt><trkpt lat="37.99045576442571" lon="15.409731001532684"><ele>15.0</ele><time>2026-04-12T06:05:51.987Z</time></trkpt><trkpt lat="37.99033170739058" lon="15.409575348369073"><ele>15.25</ele><time>2026-04-12T06:05:52.987Z</time></trkpt><trkpt lat="37.9902291906705" lon="15.409449559603202"><ele>15.5</ele><time>2026-04-12T06:05:53.987Z</time></trkpt><trkpt lat="37.99013335209568" lon="15.409347995319031"><ele>15.75</ele><time>2026-04-12T06:05:54.987Z</time></trkpt><trkpt lat="37.99005894405207" lon="15.40923637512604"><ele>16.0</ele><time>2026-04-12T06:05:55.987Z</time></trkpt><trkpt lat="37.989981446725935" lon="15.409141497198425"><ele>16.0</ele><time>2026-04-12T06:05:56.987Z</time></trkpt><trkpt lat="37.98990402325647" lon="15.409046709840345"><ele>16.0</ele><time>2026-04-12T06:05:57.987Z</time></trkpt><trkpt lat="37.989817548293004" lon="15.408968108430066"><ele>16.0</ele><time>2026-04-12T06:05:58.987Z</time></trkpt><trkpt lat="37.98976223609833" lon="15.408848361474236"><ele>16.0</ele><time>2026-04-12T06:05:59.987Z</time></trkpt><trkpt lat="37.989692842100375" lon="15.408753484377808"><ele>16.0</ele><time>2026-04-12T06:06:00.987Z</time></trkpt><trkpt lat="37.98962694555083" lon="15.408678345522539"><ele>16.6</ele><time>2026-04-12T06:06:01.987Z</time></trkpt><trkpt lat="37.989561351005484" lon="15.408599574090342"><ele>17.200000000000003</ele><time>2026-04-12T06:06:02.987Z</time></trkpt><trkpt lat="37.98949716521809" lon="15.408513793798368"><ele>17.799999999999997</ele><time>2026-04-12T06:06:03.987Z</time></trkpt><trkpt lat="37.98942623914242" lon="15.408427494678673"><ele>18.4</ele><time>2026-04-12T06:06:04.987Z</time></trkpt><trkpt lat="37.98934959348656" lon="15.408337688477761"><ele>19.0</ele><time>2026-04-12T06:06:05.987Z</time></trkpt><trkpt lat="37.98926782768773" lon="15.408238868350933"><ele>19.0</ele><time>2026-04-12T06:06:06.987Z</time></trkpt><trkpt lat="37.989176656821755" lon="15.408136603904428"><ele>19.0</ele><time>2026-04-12T06:06:07.987Z</time></trkpt><trkpt lat="37.98908449021307" lon="15.4080300028"><ele>19.0</ele><time>2026-04-12T06:06:08.987Z</time></trkpt><trkpt lat="37.9889887896328" lon="15.407921038923009"><ele>19.0</ele><time>2026-04-12T06:06:09.987Z</time></trkpt><trkpt lat="37.98889013261441" lon="15.407805943110132"><ele>20.25</ele><time>2026-04-12T06:06:10.987Z</time></trkpt><trkpt lat="37.98879440121555" lon="15.407689480661322"><ele>21.5</ele><time>2026-04-12T06:06:11.987Z</time></trkpt><trkpt lat="37.9886945010575" lon="15.407575035664593"><ele>22.75</ele><time>2026-04-12T06:06:12.987Z</time></trkpt><trkpt lat="37.98859367213942" lon="15.407452007821314"><ele>24.0</ele><time>2026-04-12T06:06:13.987Z</time></trkpt><trkpt lat="37.9884859850941" lon="15.407334130516867"><ele>24.0</ele><time>2026-04-12T06:06:14.987Z</time></trkpt><trkpt lat="37.98839975757398" lon="15.407193671310127"><ele>24.0</ele><time>2026-04-12T06:06:15.987Z</time></trkpt><trkpt lat="37.98829009846797" lon="15.407088948379094"><ele>24.0</ele><time>2026-04-12T06:06:16.987Z</time></trkpt><trkpt lat="37.98819482996213" lon="15.406972236853987"><ele>24.0</ele><time>2026-04-12T06:06:17.987Z</time></trkpt><trkpt lat="37.98811485333503" lon="15.406848169148814"><ele>24.25</ele><time>2026-04-12T06:06:18.987Z</time></trkpt><trkpt lat="37.98802911752997" lon="15.406741665979101"><ele>24.5</ele><time>2026-04-12T06:06:19.987Z</time></trkpt><trkpt lat="37.98793507617276" lon="15.406652930541698"><ele>24.75</ele><time>2026-04-12T06:06:20.987Z</time></trkpt><trkpt lat="37.98787547315388" lon="15.40652873186464"><ele>25.0</ele><time>2026-04-12T06:06:21.986Z</time></trkpt><trkpt lat="37.98780037291626" lon="15.406425657548747"><ele>25.0</ele><time>2026-04-12T06:06:22.986Z</time></trkpt><trkpt lat="37.98772486084414" lon="15.40633356639356"><ele>25.0</ele><time>2026-04-12T06:06:23.986Z</time></trkpt><trkpt lat="37.987650063990195" lon="15.406240352483218"><ele>25.0</ele><time>2026-04-12T06:06:24.986Z</time></trkpt><trkpt lat="37.98756599199154" lon="15.406157962462506"><ele>25.0</ele><time>2026-04-12T06:06:25.986Z</time></trkpt><trkpt lat="37.98747721501507" lon="15.406081146688761"><ele>25.0</ele><time>2026-04-12T06:06:26.986Z</time></trkpt><trkpt lat="37.98738235382686" lon="15.406008976041871"><ele>24.6</ele><time>2026-04-12T06:06:27.986Z</time></trkpt><trkpt lat="37.9872962627014" lon="15.405927405470266"><ele>24.2</ele><time>2026-04-12T06:06:28.986Z</time></trkpt><trkpt lat="37.987210697092316" lon="15.405844354661872"><ele>23.799999999999997</ele><time>2026-04-12T06:06:29.986Z</time></trkpt><trkpt lat="37.9871251453495" lon="15.405761516936378"><ele>23.4</ele><time>2026-04-12T06:06:30.986Z</time></trkpt><trkpt lat="37.987047680825974" lon="15.405673818963422"><ele>23.0</ele><time>2026-04-12T06:06:31.986Z</time></trkpt><trkpt lat="37.98695406813924" lon="15.40558724490707"><ele>23.0</ele><time>2026-04-12T06:06:32.986Z</time></trkpt><trkpt lat="37.98685855102311" lon="15.405500139891616"><ele>23.0</ele><time>2026-04-12T06:06:33.986Z</time></trkpt><trkpt lat="37.98676568168464" lon="15.40540948035947"><ele>23.0</ele><time>2026-04-12T06:06:34.986Z</time></trkpt><trkpt lat="37.986677009124506" lon="15.40532147584025"><ele>23.0</ele><time>2026-04-12T06:06:35.986Z</time></trkpt><trkpt lat="37.98658683812816" lon="15.405234987296504"><ele>22.75</ele><time>2026-04-12T06:06:36.986Z</time></trkpt><trkpt lat="37.986493011673915" lon="15.405152579998171"><ele>22.5</ele><time>2026-04-12T06:06:37.986Z</time></trkpt><trkpt lat="37.986405749077164" lon="15.405059189765128"><ele>22.25</ele><time>2026-04-12T06:06:38.986Z</time></trkpt><trkpt lat="37.98632094287873" lon="15.404965692237518"><ele>22.0</ele><time>2026-04-12T06:06:39.986Z</time></trkpt><trkpt lat="37.98623570725448" lon="15.404865188944695"><ele>22.0</ele><time>2026-04-12T06:06:40.986Z</time></trkpt><trkpt lat="37.98614543384416" lon="15.404767674297217"><ele>22.0</ele><time>2026-04-12T06:06:41.986Z</time></trkpt><trkpt lat="37.986040448493384" lon="15.40466512383056"><ele>22.0</ele><time>2026-04-12T06:06:42.986Z</time></trkpt><trkpt lat="37.98591453032212" lon="15.404548277105372"><ele>22.0</ele><time>2026-04-12T06:06:43.986Z</time></trkpt><trkpt lat="37.985773797092996" lon="15.404428241579984"><ele>21.5</ele><time>2026-04-12T06:06:44.986Z</time></trkpt><trkpt lat="37.985651749886024" lon="15.40430603158813"><ele>21.0</ele><time>2026-04-12T06:06:45.986Z</time></trkpt><trkpt lat="37.98552972292494" lon="15.40419983455142"><ele>20.5</ele><time>2026-04-12T06:06:46.986Z</time></trkpt><trkpt lat="37.9854180324192" lon="15.404087302089785"><ele>20.0</ele><time>2026-04-12T06:06:47.986Z</time></trkpt><trkpt lat="37.9853099537038" lon="15.403983873051228"><ele>20.0</ele><time>2026-04-12T06:06:48.986Z</time></trkpt><trkpt lat="37.9852015684051" lon="15.403853518005958"><ele>20.0</ele><time>2026-04-12T06:06:49.986Z</time></trkpt><trkpt lat="37.98507708665397" lon="15.403756289168902"><ele>20.0</ele><time>2026-04-12T06:06:50.986Z</time></trkpt><trkpt lat="37.98496156437531" lon="15.403641098972896"><ele>20.0</ele><time>2026-04-12T06:06:51.986Z</time></trkpt><trkpt lat="37.98484860206962" lon="15.403532962525732"><ele>20.25</ele><time>2026-04-12T06:06:52.986Z</time></trkpt><trkpt lat="37.984748023614834" lon="15.403414007161524"><ele>20.5</ele><time>2026-04-12T06:06:53.986Z</time></trkpt><trkpt lat="37.9846418064263" lon="15.403307917537868"><ele>20.75</ele><time>2026-04-12T06:06:54.986Z</time></trkpt><trkpt lat="37.98452118170972" lon="15.40318743761587"><ele>21.0</ele><time>2026-04-12T06:06:55.986Z</time></trkpt><trkpt lat="37.98438367770426" lon="15.403040597971016"><ele>21.333333333333332</ele><time>2026-04-12T06:06:56.986Z</time></trkpt><trkpt lat="37.98424402486158" lon="15.402861877065037"><ele>21.666666666666664</ele><time>2026-04-12T06:06:57.985Z</time></trkpt><trkpt lat="37.984078198111135" lon="15.402654672541969"><ele>22.0</ele><time>2026-04-12T06:06:58.985Z</time></trkpt><trkpt lat="37.98391217928507" lon="15.402448145358816"><ele>22.0</ele><time>2026-04-12T06:06:59.985Z</time></trkpt><trkpt lat="37.9837623160949" lon="15.402263073512131"><ele>22.0</ele><time>2026-04-12T06:07:00.985Z</time></trkpt><trkpt lat="37.98361691342166" lon="15.40208479609437"><ele>22.0</ele><time>2026-04-12T06:07:01.985Z</time></trkpt><trkpt lat="37.98347850569498" lon="15.401915106626298"><ele>21.333333333333332</ele><time>2026-04-12T06:07:02.985Z</time></trkpt><trkpt lat="37.983344004810526" lon="15.40174661198321"><ele>20.666666666666668</ele><time>2026-04-12T06:07:03.985Z</time></trkpt><trkpt lat="37.98319947065295" lon="15.401594803699131"><ele>20.0</ele><time>2026-04-12T06:07:04.985Z</time></trkpt><trkpt lat="37.98308933014773" lon="15.4014217174703"><ele>21.0</ele><time>2026-04-12T06:07:05.985Z</time></trkpt><trkpt lat="37.982963818788576" lon="15.401276439046821"><ele>22.0</ele><time>2026-04-12T06:07:06.985Z</time></trkpt><trkpt lat="37.98283982271283" lon="15.40114233274505"><ele>23.0</ele><time>2026-04-12T06:07:07.985Z</time></trkpt><trkpt lat="37.98271270612938" lon="15.401017079024484"><ele>23.0</ele><time>2026-04-12T06:07:08.985Z</time></trkpt><trkpt lat="37.98259069517069" lon="15.400891945290912"><ele>23.0</ele><time>2026-04-12T06:07:09.985Z</time></trkpt><trkpt lat="37.98245301354667" lon="15.400752380365564"><ele>23.0</ele><time>2026-04-12T06:07:10.985Z</time></trkpt><trkpt lat="37.982296845900976" lon="15.400596626595407"><ele>22.666666666666668</ele><time>2026-04-12T06:07:11.985Z</time></trkpt><trkpt lat="37.982127339465876" lon="15.400433991438822"><ele>22.333333333333332</ele><time>2026-04-12T06:07:12.985Z</time></trkpt><trkpt lat="37.981960008726816" lon="15.400266108609532"><ele>22.0</ele><time>2026-04-12T06:07:13.985Z</time></trkpt><trkpt lat="37.981803377716425" lon="15.400119944797641"><ele>20.666666666666664</ele><time>2026-04-12T06:07:14.985Z</time></trkpt><trkpt lat="37.98164930243246" lon="15.399990407701424"><ele>19.333333333333332</ele><time>2026-04-12T06:07:15.985Z</time></trkpt><trkpt lat="37.981502740657334" lon="15.39985640859962"><ele>18.0</ele><time>2026-04-12T06:07:16.985Z</time></trkpt><trkpt lat="37.98135892952794" lon="15.399720803152771"><ele>18.666666666666668</ele><time>2026-04-12T06:07:17.985Z</time></trkpt><trkpt lat="37.98121716407396" lon="15.399590169090716"><ele>19.333333333333336</ele><time>2026-04-12T06:07:18.985Z</time></trkpt><trkpt lat="37.98107060286876" lon="15.399468785137516"><ele>20.0</ele><time>2026-04-12T06:07:19.985Z</time></trkpt><trkpt lat="37.98093378177107" lon="15.39934649209998"><ele>19.333333333333336</ele><time>2026-04-12T06:07:20.985Z</time></trkpt><trkpt lat="37.98080548095081" lon="15.399215466590864"><ele>18.666666666666668</ele><time>2026-04-12T06:07:21.985Z</time></trkpt><trkpt lat="37.980682433133204" lon="15.399099456306965"><ele>18.0</ele><time>2026-04-12T06:07:22.985Z</time></trkpt><trkpt lat="37.9805608205494" lon="15.398981793086596"><ele>18.0</ele><time>2026-04-12T06:07:23.985Z</time></trkpt><trkpt lat="37.98043674737275" lon="15.398856866377242"><ele>18.0</ele><time>2026-04-12T06:07:24.985Z</time></trkpt><trkpt lat="37.98031676988678" lon="15.398714015497246"><ele>18.0</ele><time>2026-04-12T06:07:25.985Z</time></trkpt><trkpt lat="37.980180156605904" lon="15.398582835224696"><ele>17.666666666666668</ele><time>2026-04-12T06:07:26.985Z</time></trkpt><trkpt lat="37.98002819520457" lon="15.398465643325892"><ele>17.333333333333336</ele><time>2026-04-12T06:07:27.985Z</time></trkpt><trkpt lat="37.97988781850486" lon="15.398308237402048"><ele>17.0</ele><time>2026-04-12T06:07:28.985Z</time></trkpt><trkpt lat="37.979734094827094" lon="15.398168745820294"><ele>17.0</ele><time>2026-04-12T06:07:29.985Z</time></trkpt><trkpt lat="37.97958743263872" lon="15.39803936112818"><ele>17.0</ele><time>2026-04-12T06:07:30.985Z</time></trkpt><trkpt lat="37.979445385820576" lon="15.397920785348452"><ele>17.0</ele><time>2026-04-12T06:07:31.985Z</time></trkpt><trkpt lat="37.97930256133049" lon="15.397800912373315"><ele>17.666666666666668</ele><time>2026-04-12T06:07:32.984Z</time></trkpt><trkpt lat="37.97913902541504" lon="15.39772168107137"><ele>18.333333333333332</ele><time>2026-04-12T06:07:33.984Z</time></trkpt><trkpt lat="37.97896752030674" lon="15.39762798143438"><ele>19.0</ele><time>2026-04-12T06:07:34.984Z</time></trkpt><trkpt lat="37.97878997728227" lon="15.397538134973848"><ele>19.0</ele><time>2026-04-12T06:07:35.984Z</time></trkpt><trkpt lat="37.97862229914306" lon="15.39747173612018"><ele>19.0</ele><time>2026-04-12T06:07:36.984Z</time></trkpt><trkpt lat="37.97846347335676" lon="15.397380904223704"><ele>19.0</ele><time>2026-04-12T06:07:37.984Z</time></trkpt><trkpt lat="37.97835698033371" lon="15.397310759300545"><ele>19.25</ele><time>2026-04-12T06:07:38.984Z</time></trkpt><trkpt lat="37.97823911593545" lon="15.397244241032016"><ele>19.5</ele><time>2026-04-12T06:07:39.984Z</time></trkpt><trkpt lat="37.97813357506868" lon="15.397154986914318"><ele>19.75</ele><time>2026-04-12T06:07:40.984Z</time></trkpt><trkpt lat="37.978036545464334" lon="15.39706888562888"><ele>20.0</ele><time>2026-04-12T06:07:41.984Z</time></trkpt><trkpt lat="37.97794046379105" lon="15.396999376043214"><ele>20.0</ele><time>2026-04-12T06:07:42.984Z</time></trkpt><trkpt lat="37.977854669510776" lon="15.396932227429986"><ele>20.0</ele><time>2026-04-12T06:07:43.984Z</time></trkpt><trkpt lat="37.97780431899954" lon="15.396860968674009"><ele>20.0</ele><time>2026-04-12T06:07:44.984Z</time></trkpt><trkpt lat="37.977738388912314" lon="15.396812776105133"><ele>20.0</ele><time>2026-04-12T06:07:45.984Z</time></trkpt><trkpt lat="37.97767145948636" lon="15.396767129095116"><ele>20.0</ele><time>2026-04-12T06:07:46.984Z</time></trkpt><trkpt lat="37.97760264421769" lon="15.39671053734069"><ele>20.0</ele><time>2026-04-12T06:07:47.984Z</time></trkpt><trkpt lat="37.97752248060468" lon="15.396650591435375"><ele>20.166666666666668</ele><time>2026-04-12T06:07:48.984Z</time></trkpt><trkpt lat="37.97746159339782" lon="15.396581215146517"><ele>20.333333333333336</ele><time>2026-04-12T06:07:49.984Z</time></trkpt><trkpt lat="37.977404990627015" lon="15.39653349123543"><ele>20.5</ele><time>2026-04-12T06:07:50.984Z</time></trkpt><trkpt lat="37.977352135918345" lon="15.396488926401902"><ele>20.666666666666668</ele><time>2026-04-12T06:07:51.984Z</time></trkpt><trkpt lat="37.97726023821768" lon="15.396410944721914"><ele>20.833333333333332</ele><time>2026-04-12T06:07:53.984Z</time></trkpt><trkpt lat="37.97718361154127" lon="15.39634605577975"><ele>21.0</ele><time>2026-04-12T06:07:55.984Z</time></trkpt><trkpt lat="37.977106591666484" lon="15.39628083390551"><ele>21.0</ele><time>2026-04-12T06:07:57.984Z</time></trkpt><trkpt lat="37.97701925770457" lon="15.396206877876873"><ele>21.0</ele><time>2026-04-12T06:07:59.984Z</time></trkpt><trkpt lat="37.9769080399442" lon="15.396113110400174"><ele>21.0</ele><time>2026-04-12T06:08:01.984Z</time></trkpt><trkpt lat="37.976839043630974" lon="15.39605508109235"><ele>21.0</ele><time>2026-04-12T06:08:02.984Z</time></trkpt><trkpt lat="37.976759794250924" lon="15.395988429050572"><ele>21.0</ele><time>2026-04-12T06:08:03.984Z</time></trkpt><trkpt lat="37.976662743758375" lon="15.395906805506858"><ele>20.5</ele><time>2026-04-12T06:08:04.984Z</time></trkpt><trkpt lat="37.976570239202736" lon="15.395829005251006"><ele>20.0</ele><time>2026-04-12T06:08:05.984Z</time></trkpt><trkpt lat="37.976468448685736" lon="15.395743396327255"><ele>19.5</ele><time>2026-04-12T06:08:06.984Z</time></trkpt><trkpt lat="37.976365881004966" lon="15.395654677272875"><ele>19.0</ele><time>2026-04-12T06:08:07.984Z</time></trkpt><trkpt lat="37.976268289121116" lon="15.395570807671586"><ele>19.5</ele><time>2026-04-12T06:08:08.983Z</time></trkpt><trkpt lat="37.97616376438309" lon="15.395480980198482"><ele>20.0</ele><time>2026-04-12T06:08:09.983Z</time></trkpt><trkpt lat="37.97605813191003" lon="15.395390200717944"><ele>20.5</ele><time>2026-04-12T06:08:10.983Z</time></trkpt><trkpt lat="37.975948920054094" lon="15.395296346166704"><ele>21.0</ele><time>2026-04-12T06:08:11.983Z</time></trkpt><trkpt lat="37.975831803565335" lon="15.395198290398215"><ele>21.0</ele><time>2026-04-12T06:08:12.983Z</time></trkpt><trkpt lat="37.9757162976656" lon="15.39510309682169"><ele>21.0</ele><time>2026-04-12T06:08:13.983Z</time></trkpt><trkpt lat="37.975598142396734" lon="15.395004589950823"><ele>21.0</ele><time>2026-04-12T06:08:14.983Z</time></trkpt><trkpt lat="37.975470583282686" lon="15.39489776281401"><ele>21.0</ele><time>2026-04-12T06:08:15.983Z</time></trkpt><trkpt lat="37.97533493638399" lon="15.394783615664888"><ele>21.0</ele><time>2026-04-12T06:08:16.983Z</time></trkpt><trkpt lat="37.97519458893562" lon="15.394664700544846"><ele>21.0</ele><time>2026-04-12T06:08:17.983Z</time></trkpt><trkpt lat="37.975049959819145" lon="15.394542239127214"><ele>21.0</ele><time>2026-04-12T06:08:18.983Z</time></trkpt><trkpt lat="37.974900163910505" lon="15.394421566330308"><ele>21.0</ele><time>2026-04-12T06:08:19.983Z</time></trkpt><trkpt lat="37.97475146512492" lon="15.39427851564928"><ele>21.0</ele><time>2026-04-12T06:08:20.983Z</time></trkpt><trkpt lat="37.974594395258116" lon="15.394122036693453"><ele>21.0</ele><time>2026-04-12T06:08:21.983Z</time></trkpt><trkpt lat="37.974439028261564" lon="15.393967254473683"><ele>21.0</ele><time>2026-04-12T06:08:22.983Z</time></trkpt><trkpt lat="37.97428568468462" lon="15.393812011626371"><ele>21.0</ele><time>2026-04-12T06:08:23.983Z</time></trkpt><trkpt lat="37.97413796141273" lon="15.393653653481648"><ele>21.0</ele><time>2026-04-12T06:08:24.983Z</time></trkpt><trkpt lat="37.97398996861078" lon="15.39349232135231"><ele>21.0</ele><time>2026-04-12T06:08:25.983Z</time></trkpt><trkpt lat="37.97383113997933" lon="15.39333987253794"><ele>21.0</ele><time>2026-04-12T06:08:26.983Z</time></trkpt><trkpt lat="37.97368053405048" lon="15.393183517694341"><ele>21.0</ele><time>2026-04-12T06:08:27.983Z</time></trkpt><trkpt lat="37.97352955059989" lon="15.393029821824255"><ele>22.0</ele><time>2026-04-12T06:08:28.983Z</time></trkpt><trkpt lat="37.97336509670942" lon="15.392885539028352"><ele>23.0</ele><time>2026-04-12T06:08:29.983Z</time></trkpt><trkpt lat="37.97319829989863" lon="15.392724185025054"><ele>24.0</ele><time>2026-04-12T06:08:30.983Z</time></trkpt><trkpt lat="37.973015682328466" lon="15.392539353020265"><ele>24.0</ele><time>2026-04-12T06:08:31.983Z</time></trkpt><trkpt lat="37.972849921793284" lon="15.392299890079618"><ele>24.0</ele><time>2026-04-12T06:08:32.983Z</time></trkpt><trkpt lat="37.97267949278072" lon="15.392046893310935"><ele>24.0</ele><time>2026-04-12T06:08:33.983Z</time></trkpt><trkpt lat="37.972524398653086" lon="15.391835090579665"><ele>24.0</ele><time>2026-04-12T06:08:34.983Z</time></trkpt><trkpt lat="37.972375710861634" lon="15.39167883837918"><ele>24.0</ele><time>2026-04-12T06:08:35.983Z</time></trkpt><trkpt lat="37.97223715958506" lon="15.391556129681998"><ele>24.666666666666664</ele><time>2026-04-12T06:08:36.983Z</time></trkpt><trkpt lat="37.972106328661305" lon="15.391447681404593"><ele>25.333333333333332</ele><time>2026-04-12T06:08:37.983Z</time></trkpt><trkpt lat="37.971961171665725" lon="15.391325398560374"><ele>26.0</ele><time>2026-04-12T06:08:38.983Z</time></trkpt><trkpt lat="37.97180102286536" lon="15.39117564867341"><ele>23.0</ele><time>2026-04-12T06:08:39.983Z</time></trkpt><trkpt lat="37.97162404484413" lon="15.391015150506693"><ele>20.0</ele><time>2026-04-12T06:08:40.983Z</time></trkpt><trkpt lat="37.971436529906775" lon="15.390833509108527"><ele>20.0</ele><time>2026-04-12T06:08:41.983Z</time></trkpt><trkpt lat="37.97123473826359" lon="15.39064956770667"><ele>20.0</ele><time>2026-04-12T06:08:42.983Z</time></trkpt><trkpt lat="37.97103477420993" lon="15.390459505360978"><ele>20.0</ele><time>2026-04-12T06:08:43.983Z</time></trkpt><trkpt lat="37.97083335296079" lon="15.39028233037199"><ele>20.0</ele><time>2026-04-12T06:08:44.982Z</time></trkpt><trkpt lat="37.97065135069699" lon="15.390107340042475"><ele>20.0</ele><time>2026-04-12T06:08:45.982Z</time></trkpt><trkpt lat="37.970484669414525" lon="15.389934646262796"><ele>20.0</ele><time>2026-04-12T06:08:46.982Z</time></trkpt><trkpt lat="37.97032387175591" lon="15.389773275036417"><ele>20.0</ele><time>2026-04-12T06:08:47.982Z</time></trkpt><trkpt lat="37.97017291199081" lon="15.389617377857316"><ele>19.666666666666668</ele><time>2026-04-12T06:08:48.982Z</time></trkpt><trkpt lat="37.970027660875886" lon="15.38948120208157"><ele>19.333333333333332</ele><time>2026-04-12T06:08:49.982Z</time></trkpt><trkpt lat="37.969887076775485" lon="15.389356626427386"><ele>19.0</ele><time>2026-04-12T06:08:50.982Z</time></trkpt><trkpt lat="37.96975084074449" lon="15.389235824521013"><ele>19.0</ele><time>2026-04-12T06:08:51.982Z</time></trkpt><trkpt lat="37.96964166956705" lon="15.38910534500291"><ele>19.0</ele><time>2026-04-12T06:08:52.982Z</time></trkpt><trkpt lat="37.969531906362995" lon="15.389004664781291"><ele>19.0</ele><time>2026-04-12T06:08:53.982Z</time></trkpt><trkpt lat="37.96943720936995" lon="15.38891649560552"><ele>19.0</ele><time>2026-04-12T06:08:54.982Z</time></trkpt><trkpt lat="37.969353896981815" lon="15.388827836011977"><ele>19.0</ele><time>2026-04-12T06:08:55.982Z</time></trkpt><trkpt lat="37.969253010243655" lon="15.388741119606635"><ele>19.0</ele><time>2026-04-12T06:08:56.982Z</time></trkpt><trkpt lat="37.969154307658926" lon="15.388652914735552"><ele>19.0</ele><time>2026-04-12T06:08:57.982Z</time></trkpt><trkpt lat="37.96905626726657" lon="15.38856829288103"><ele>19.0</ele><time>2026-04-12T06:08:58.982Z</time></trkpt><trkpt lat="37.96895564319769" lon="15.388493254798064"><ele>19.0</ele><time>2026-04-12T06:08:59.982Z</time></trkpt><trkpt lat="37.968860283503325" lon="15.388426486385228"><ele>19.0</ele><time>2026-04-12T06:09:00.982Z</time></trkpt><trkpt lat="37.968765780142526" lon="15.388351084408601"><ele>19.0</ele><time>2026-04-12T06:09:01.982Z</time></trkpt><trkpt lat="37.968667048587875" lon="15.388271619991649"><ele>19.0</ele><time>2026-04-12T06:09:02.982Z</time></trkpt><trkpt lat="37.968561251760825" lon="15.388195761164202"><ele>19.0</ele><time>2026-04-12T06:09:03.982Z</time></trkpt><trkpt lat="37.96845793115807" lon="15.388117772742872"><ele>19.0</ele><time>2026-04-12T06:09:04.982Z</time></trkpt><trkpt lat="37.9683402030229" lon="15.38803436517169"><ele>19.0</ele><time>2026-04-12T06:09:05.982Z</time></trkpt><trkpt lat="37.96820921825358" lon="15.387942043916128"><ele>19.0</ele><time>2026-04-12T06:09:06.982Z</time></trkpt><trkpt lat="37.96809267380862" lon="15.387853447033013"><ele>19.0</ele><time>2026-04-12T06:09:07.982Z</time></trkpt><trkpt lat="37.967986640829366" lon="15.387771554067564"><ele>19.0</ele><time>2026-04-12T06:09:08.982Z</time></trkpt><trkpt lat="37.96789541955964" lon="15.387689191117536"><ele>19.0</ele><time>2026-04-12T06:09:09.982Z</time></trkpt><trkpt lat="37.967797715932164" lon="15.387617631229306"><ele>19.0</ele><time>2026-04-12T06:09:10.982Z</time></trkpt><trkpt lat="37.96769478389981" lon="15.387539747219977"><ele>19.0</ele><time>2026-04-12T06:09:11.982Z</time></trkpt><trkpt lat="37.96759703458403" lon="15.387453800013992"><ele>19.0</ele><time>2026-04-12T06:09:12.982Z</time></trkpt><trkpt lat="37.967497880264716" lon="15.387378654856182"><ele>19.0</ele><time>2026-04-12T06:09:13.982Z</time></trkpt><trkpt lat="37.967399767192745" lon="15.387311233949752"><ele>19.0</ele><time>2026-04-12T06:09:14.982Z</time></trkpt><trkpt lat="37.9673037542424" lon="15.38723614994996"><ele>18.599999999999998</ele><time>2026-04-12T06:09:15.982Z</time></trkpt><trkpt lat="37.96722939641243" lon="15.387141925410274"><ele>18.2</ele><time>2026-04-12T06:09:16.982Z</time></trkpt><trkpt lat="37.96714450122365" lon="15.387074854845183"><ele>17.799999999999997</ele><time>2026-04-12T06:09:17.982Z</time></trkpt><trkpt lat="37.96706828891834" lon="15.38701170294414"><ele>17.4</ele><time>2026-04-12T06:09:18.982Z</time></trkpt><trkpt lat="37.96699527535571" lon="15.386954884901005"><ele>17.0</ele><time>2026-04-12T06:09:19.982Z</time></trkpt><trkpt lat="37.966933660606685" lon="15.386918540820028"><ele>17.0</ele><time>2026-04-12T06:09:20.981Z</time></trkpt><trkpt lat="37.96684369116326" lon="15.386882073833679"><ele>17.0</ele><time>2026-04-12T06:09:22.981Z</time></trkpt><trkpt lat="37.96676924648209" lon="15.386924360738226"><ele>17.0</ele><time>2026-04-12T06:09:25.981Z</time></trkpt><trkpt lat="37.96671357569886" lon="15.386870075792828"><ele>17.0</ele><time>2026-04-12T06:11:55.977Z</time></trkpt><trkpt lat="37.96670022948559" lon="15.386764618524865"><ele>17.0</ele><time>2026-04-12T06:11:59.977Z</time></trkpt><trkpt lat="37.966672216215514" lon="15.386686945639738"><ele>17.0</ele><time>2026-04-12T06:12:01.977Z</time></trkpt><trkpt lat="37.96657364527872" lon="15.386607858060655"><ele>17.0</ele><time>2026-04-12T06:12:03.977Z</time></trkpt><trkpt lat="37.966467815726084" lon="15.386533048297448"><ele>17.0</ele><time>2026-04-12T06:12:04.977Z</time></trkpt><trkpt lat="37.96637010579895" lon="15.38644426075179"><ele>17.0</ele><time>2026-04-12T06:12:05.977Z</time></trkpt><trkpt lat="37.96629969514865" lon="15.386389143062685"><ele>17.0</ele><time>2026-04-12T06:12:06.977Z</time></trkpt><trkpt lat="37.966194769069574" lon="15.386388686083174"><ele>17.0</ele><time>2026-04-12T06:12:08.977Z</time></trkpt><trkpt lat="37.96619409774916" lon="15.38626657011533"><ele>17.0</ele><time>2026-04-12T06:12:17.977Z</time></trkpt><trkpt lat="37.96613424835913" lon="15.38618452887947"><ele>17.0</ele><time>2026-04-12T06:12:19.976Z</time></trkpt><trkpt lat="37.96605612433724" lon="15.38616182932829"><ele>17.0</ele><time>2026-04-12T06:12:22.976Z</time></trkpt><trkpt lat="37.965981596315004" lon="15.38615717327912"><ele>17.0</ele><time>2026-04-12T06:12:26.976Z</time></trkpt><trkpt lat="37.96603292424602" lon="15.386079473308467"><ele>17.0</ele><time>2026-04-12T06:15:36.133Z</time></trkpt><trkpt lat="37.96606804792124" lon="15.386005916199839"><ele>17.0</ele><time>2026-04-12T06:15:49.134Z</time></trkpt><trkpt lat="37.96612298672215" lon="15.385899116522406"><ele>17.0</ele><time>2026-04-12T06:16:44.969Z</time></trkpt><trkpt lat="37.966106570728904" lon="15.385989585915796"><ele>17.0</ele><time>2026-04-12T06:18:27.133Z</time></trkpt><trkpt lat="37.96607397479316" lon="15.386090642290656"><ele>17.0</ele><time>2026-04-12T06:18:32.966Z</time></trkpt><trkpt lat="37.96601758745399" lon="15.386142725024273"><ele>17.0</ele><time>2026-04-12T06:18:37.966Z</time></trkpt><trkpt lat="37.9659575148149" lon="15.386089869503493"><ele>17.0</ele><time>2026-04-12T06:18:51.989Z</time></trkpt><trkpt lat="37.96601826424541" lon="15.386056103995804"><ele>17.0</ele><time>2026-04-12T06:20:32.987Z</time></trkpt><trkpt lat="37.96595848137317" lon="15.386092968288175"><ele>17.0</ele><time>2026-04-12T06:21:44.988Z</time></trkpt></trkseg><trkseg><trkpt lat="37.80171088532283" lon="15.19700613741509"><ele>131.0</ele><time>2026-04-12T07:06:10.998Z</time></trkpt><trkpt lat="37.80179881161945" lon="15.197081065431192"><ele>131.0</ele><time>2026-04-12T07:06:11.998Z</time></trkpt><trkpt lat="37.80189312618811" lon="15.19715593556597"><ele>131.0</ele><time>2026-04-12T07:06:12.997Z</time></trkpt><trkpt lat="37.80200381428042" lon="15.197268290141343"><ele>131.0</ele><time>2026-04-12T07:06:13.997Z</time></trkpt><trkpt lat="37.802111168872365" lon="15.197384774166412"><ele>129.33333333333331</ele><time>2026-04-12T07:06:14.997Z</time></trkpt><trkpt lat="37.80222962892844" lon="15.197524035911801"><ele>127.66666666666666</ele><time>2026-04-12T07:06:15.997Z</time></trkpt><trkpt lat="37.80234828780032" lon="15.197647088597323"><ele>126.0</ele><time>2026-04-12T07:06:16.997Z</time></trkpt><trkpt lat="37.802496104861795" lon="15.197711714082043"><ele>126.0</ele><time>2026-04-12T07:06:17.997Z</time></trkpt><trkpt lat="37.80263362601486" lon="15.19775318854069"><ele>126.0</ele><time>2026-04-12T07:06:18.997Z</time></trkpt><trkpt lat="37.802755516302135" lon="15.197761302966782"><ele>126.0</ele><time>2026-04-12T07:06:19.997Z</time></trkpt><trkpt lat="37.80288345838203" lon="15.197771298622389"><ele>126.0</ele><time>2026-04-12T07:06:20.997Z</time></trkpt><trkpt lat="37.80298786640576" lon="15.197748644811558"><ele>125.75</ele><time>2026-04-12T07:06:21.997Z</time></trkpt><trkpt lat="37.803098981712075" lon="15.197707181509712"><ele>125.5</ele><time>2026-04-12T07:06:22.997Z</time></trkpt><trkpt lat="37.80323067075461" lon="15.197681721854822"><ele>125.25</ele><time>2026-04-12T07:06:23.997Z</time></trkpt><trkpt lat="37.803346419776396" lon="15.197714826471021"><ele>125.0</ele><time>2026-04-12T07:06:24.999Z</time></trkpt><trkpt lat="37.803443002345816" lon="15.19775320208617"><ele>123.49999999999999</ele><time>2026-04-12T07:06:25.999Z</time></trkpt><trkpt lat="37.80352916232389" lon="15.197798577669765"><ele>122.0</ele><time>2026-04-12T07:06:26.999Z</time></trkpt><trkpt lat="37.80359274443207" lon="15.197797841267208"><ele>120.5</ele><time>2026-04-12T07:06:27.999Z</time></trkpt><trkpt lat="37.803651279884036" lon="15.197726911582155"><ele>119.0</ele><time>2026-04-12T07:06:28.999Z</time></trkpt><trkpt lat="37.80368235742528" lon="15.197627916150855"><ele>117.49999999999999</ele><time>2026-04-12T07:06:29.999Z</time></trkpt><trkpt lat="37.803680446453804" lon="15.19750919436663"><ele>116.0</ele><time>2026-04-12T07:06:30.999Z</time></trkpt><trkpt lat="37.80363997688648" lon="15.197399315143109"><ele>116.5</ele><time>2026-04-12T07:06:31.999Z</time></trkpt><trkpt lat="37.8035694258948" lon="15.197313007863057"><ele>117.0</ele><time>2026-04-12T07:06:32.999Z</time></trkpt><trkpt lat="37.80346311774499" lon="15.197233568768308"><ele>117.5</ele><time>2026-04-12T07:06:33.999Z</time></trkpt><trkpt lat="37.80338978060057" lon="15.197135410730715"><ele>118.0</ele><time>2026-04-12T07:06:34.999Z</time></trkpt><trkpt lat="37.80339819436786" lon="15.196980579343588"><ele>121.66666666666667</ele><time>2026-04-12T07:06:35.999Z</time></trkpt><trkpt lat="37.80337599803454" lon="15.196777839517772"><ele>125.33333333333334</ele><time>2026-04-12T07:06:36.999Z</time></trkpt><trkpt lat="37.80335297259766" lon="15.196571847804528"><ele>129.0</ele><time>2026-04-12T07:06:37.999Z</time></trkpt><trkpt lat="37.803313382373794" lon="15.19636211002635"><ele>131.33333333333334</ele><time>2026-04-12T07:06:38.999Z</time></trkpt><trkpt lat="37.803302659399456" lon="15.196131629363174"><ele>133.66666666666669</ele><time>2026-04-12T07:06:39.999Z</time></trkpt><trkpt lat="37.803285271846484" lon="15.19591689555879"><ele>136.0</ele><time>2026-04-12T07:06:40.999Z</time></trkpt><trkpt lat="37.80325527432914" lon="15.195687071041588"><ele>136.66666666666669</ele><time>2026-04-12T07:06:41.999Z</time></trkpt><trkpt lat="37.803209765356364" lon="15.195454555396223"><ele>137.33333333333334</ele><time>2026-04-12T07:06:42.999Z</time></trkpt><trkpt lat="37.80314536780299" lon="15.195239932170734"><ele>138.0</ele><time>2026-04-12T07:06:43.999Z</time></trkpt><trkpt lat="37.803056409508876" lon="15.195027541577081"><ele>139.0</ele><time>2026-04-12T07:06:44.999Z</time></trkpt><trkpt lat="37.80296890915097" lon="15.194821601823591"><ele>140.0</ele><time>2026-04-12T07:06:45.999Z</time></trkpt><trkpt lat="37.802874203476854" lon="15.19461540472587"><ele>141.0</ele><time>2026-04-12T07:06:46.999Z</time></trkpt><trkpt lat="37.80278120838819" lon="15.194381690359146"><ele>141.0</ele><time>2026-04-12T07:06:47.999Z</time></trkpt><trkpt lat="37.80267827154894" lon="15.194150752101358"><ele>141.0</ele><time>2026-04-12T07:06:48.999Z</time></trkpt><trkpt lat="37.802558331818055" lon="15.193935523213872"><ele>141.0</ele><time>2026-04-12T07:06:49.999Z</time></trkpt><trkpt lat="37.80243001592157" lon="15.193721146461565"><ele>143.0</ele><time>2026-04-12T07:06:50.999Z</time></trkpt><trkpt lat="37.80230052222076" lon="15.193517412757394"><ele>145.0</ele><time>2026-04-12T07:06:51.999Z</time></trkpt><trkpt lat="37.80218915034665" lon="15.193311651247008"><ele>147.0</ele><time>2026-04-12T07:06:52.999Z</time></trkpt><trkpt lat="37.802100695036636" lon="15.193117026645398"><ele>149.5</ele><time>2026-04-12T07:06:53.999Z</time></trkpt><trkpt lat="37.801994458515345" lon="15.19294767586279"><ele>152.0</ele><time>2026-04-12T07:06:54.999Z</time></trkpt><trkpt lat="37.80191045025637" lon="15.192799949620701"><ele>154.5</ele><time>2026-04-12T07:06:55.999Z</time></trkpt><trkpt lat="37.80186393142495" lon="15.192665002755756"><ele>157.0</ele><time>2026-04-12T07:06:56.999Z</time></trkpt><trkpt lat="37.801828524591166" lon="15.192550266765153"><ele>157.5</ele><time>2026-04-12T07:06:57.999Z</time></trkpt><trkpt lat="37.80183519135895" lon="15.192451623032076"><ele>158.0</ele><time>2026-04-12T07:06:58.999Z</time></trkpt><trkpt lat="37.80190400369998" lon="15.192376761396567"><ele>158.5</ele><time>2026-04-12T07:06:59.999Z</time></trkpt><trkpt lat="37.80197157574883" lon="15.192333094305129"><ele>159.0</ele><time>2026-04-12T07:07:00.999Z</time></trkpt><trkpt lat="37.80204431597002" lon="15.192323015823314"><ele>159.5</ele><time>2026-04-12T07:07:01.999Z</time></trkpt><trkpt lat="37.80214545161663" lon="15.19233622638262"><ele>160.0</ele><time>2026-04-12T07:07:02.999Z</time></trkpt><trkpt lat="37.802271136946956" lon="15.192380271827789"><ele>160.0</ele><time>2026-04-12T07:07:03.999Z</time></trkpt><trkpt lat="37.802412080510464" lon="15.192408051258813"><ele>160.0</ele><time>2026-04-12T07:07:04.999Z</time></trkpt><trkpt lat="37.80257515627116" lon="15.1924857421282"><ele>160.0</ele><time>2026-04-12T07:07:05.999Z</time></trkpt><trkpt lat="37.802755998356645" lon="15.192547188937796"><ele>162.66666666666669</ele><time>2026-04-12T07:07:06.999Z</time></trkpt><trkpt lat="37.8029518260398" lon="15.192598617291289"><ele>165.33333333333334</ele><time>2026-04-12T07:07:07.999Z</time></trkpt><trkpt lat="37.80316497481243" lon="15.192641040634072"><ele>168.0</ele><time>2026-04-12T07:07:08.999Z</time></trkpt><trkpt lat="37.803383593550635" lon="15.192662539843248"><ele>167.25</ele><time>2026-04-12T07:07:09.999Z</time></trkpt><trkpt lat="37.80356962211437" lon="15.192704920370414"><ele>166.5</ele><time>2026-04-12T07:07:10.999Z</time></trkpt><trkpt lat="37.803691352934685" lon="15.192732532555658"><ele>165.75</ele><time>2026-04-12T07:07:11.999Z</time></trkpt><trkpt lat="37.80379297557167" lon="15.192761272412525"><ele>165.0</ele><time>2026-04-12T07:07:12.999Z</time></trkpt><trkpt lat="37.80386978288118" lon="15.192768595257325"><ele>165.0</ele><time>2026-04-12T07:07:13.999Z</time></trkpt><trkpt lat="37.803924383912424" lon="15.19265218810251"><ele>165.0</ele><time>2026-04-12T07:07:15.999Z</time></trkpt><trkpt lat="37.80389626828759" lon="15.192481503878334"><ele>165.0</ele><time>2026-04-12T07:07:17.999Z</time></trkpt><trkpt lat="37.80384763680436" lon="15.19239863116995"><ele>165.0</ele><time>2026-04-12T07:07:18.999Z</time></trkpt><trkpt lat="37.80372560319711" lon="15.19233207034762"><ele>169.66666666666666</ele><time>2026-04-12T07:07:19.999Z</time></trkpt><trkpt lat="37.80356760501218" lon="15.192264417612112"><ele>174.33333333333331</ele><time>2026-04-12T07:07:20.999Z</time></trkpt><trkpt lat="37.803417547612604" lon="15.192146922370304"><ele>179.0</ele><time>2026-04-12T07:07:21.998Z</time></trkpt><trkpt lat="37.803241392945225" lon="15.192048437501755"><ele>182.66666666666666</ele><time>2026-04-12T07:07:22.998Z</time></trkpt><trkpt lat="37.803069198046934" lon="15.191949431258152"><ele>186.33333333333334</ele><time>2026-04-12T07:07:23.998Z</time></trkpt><trkpt lat="37.80289911135235" lon="15.191830739817508"><ele>190.0</ele><time>2026-04-12T07:07:24.998Z</time></trkpt><trkpt lat="37.802748838757275" lon="15.19171445934804"><ele>187.0</ele><time>2026-04-12T07:07:25.998Z</time></trkpt><trkpt lat="37.80261638867313" lon="15.19159715894131"><ele>184.0</ele><time>2026-04-12T07:07:26.998Z</time></trkpt><trkpt lat="37.80249625044769" lon="15.191496762012394"><ele>181.0</ele><time>2026-04-12T07:07:27.998Z</time></trkpt><trkpt lat="37.802361073780546" lon="15.191431142271583"><ele>186.25</ele><time>2026-04-12T07:07:28.998Z</time></trkpt><trkpt lat="37.802211485359415" lon="15.191424483908564"><ele>191.5</ele><time>2026-04-12T07:07:29.998Z</time></trkpt><trkpt lat="37.802087484314974" lon="15.19140369597475"><ele>196.75</ele><time>2026-04-12T07:07:30.998Z</time></trkpt><trkpt lat="37.801988410814424" lon="15.191391697011085"><ele>202.0</ele><time>2026-04-12T07:07:31.998Z</time></trkpt><trkpt lat="37.80189214484931" lon="15.191373101529255"><ele>201.39999999999998</ele><time>2026-04-12T07:07:32.998Z</time></trkpt><trkpt lat="37.801812354944204" lon="15.191300979567403"><ele>200.79999999999998</ele><time>2026-04-12T07:07:33.998Z</time></trkpt><trkpt lat="37.8017345356458" lon="15.1912504509701"><ele>200.2</ele><time>2026-04-12T07:07:34.998Z</time></trkpt><trkpt lat="37.801640286857456" lon="15.191212293512772"><ele>199.6</ele><time>2026-04-12T07:07:35.998Z</time></trkpt><trkpt lat="37.80152393769237" lon="15.191169652148474"><ele>199.0</ele><time>2026-04-12T07:07:36.998Z</time></trkpt><trkpt lat="37.80137888397241" lon="15.191205882094971"><ele>199.0</ele><time>2026-04-12T07:07:37.998Z</time></trkpt><trkpt lat="37.801245220971474" lon="15.191271461679102"><ele>199.0</ele><time>2026-04-12T07:07:38.998Z</time></trkpt><trkpt lat="37.80111872832801" lon="15.191326246159225"><ele>199.0</ele><time>2026-04-12T07:07:39.998Z</time></trkpt><trkpt lat="37.80099766354621" lon="15.191359868613642"><ele>199.0</ele><time>2026-04-12T07:07:40.998Z</time></trkpt><trkpt lat="37.80089831135072" lon="15.191389955225516"><ele>198.83333333333331</ele><time>2026-04-12T07:07:41.998Z</time></trkpt><trkpt lat="37.800812672956766" lon="15.19140666145952"><ele>198.66666666666666</ele><time>2026-04-12T07:07:42.998Z</time></trkpt><trkpt lat="37.80073945192324" lon="15.191415789936094"><ele>198.5</ele><time>2026-04-12T07:07:43.998Z</time></trkpt><trkpt lat="37.80066499756976" lon="15.191406280028206"><ele>198.33333333333331</ele><time>2026-04-12T07:07:44.998Z</time></trkpt><trkpt lat="37.80060430012415" lon="15.191342147404841"><ele>198.16666666666666</ele><time>2026-04-12T07:07:45.998Z</time></trkpt><trkpt lat="37.800553589367645" lon="15.19126351186556"><ele>198.0</ele><time>2026-04-12T07:07:46.998Z</time></trkpt><trkpt lat="37.80053498821369" lon="15.19116710859792"><ele>198.0</ele><time>2026-04-12T07:07:47.998Z</time></trkpt><trkpt lat="37.800546467249475" lon="15.19103629611358"><ele>198.0</ele><time>2026-04-12T07:07:48.998Z</time></trkpt><trkpt lat="37.800558688307625" lon="15.190887734936755"><ele>198.0</ele><time>2026-04-12T07:07:49.998Z</time></trkpt><trkpt lat="37.800595975699935" lon="15.190758201238353"><ele>198.0</ele><time>2026-04-12T07:07:50.998Z</time></trkpt><trkpt lat="37.8006346454823" lon="15.190650489202172"><ele>198.0</ele><time>2026-04-12T07:07:51.998Z</time></trkpt><trkpt lat="37.80066087235024" lon="15.190545496970048"><ele>199.4</ele><time>2026-04-12T07:07:52.998Z</time></trkpt><trkpt lat="37.80066493745647" lon="15.190445039572763"><ele>200.8</ele><time>2026-04-12T07:07:53.998Z</time></trkpt><trkpt lat="37.80062119138906" lon="15.190353840170252"><ele>202.2</ele><time>2026-04-12T07:07:54.998Z</time></trkpt><trkpt lat="37.800539146126695" lon="15.190265359617806"><ele>203.6</ele><time>2026-04-12T07:07:55.998Z</time></trkpt><trkpt lat="37.80042693012894" lon="15.190126636737512"><ele>205.0</ele><time>2026-04-12T07:07:56.998Z</time></trkpt><trkpt lat="37.80029652544298" lon="15.189951573583786"><ele>205.0</ele><time>2026-04-12T07:07:57.998Z</time></trkpt><trkpt lat="37.800162511012424" lon="15.189771664471788"><ele>205.0</ele><time>2026-04-12T07:07:58.997Z</time></trkpt><trkpt lat="37.79999879977036" lon="15.18957711414843"><ele>205.0</ele><time>2026-04-12T07:07:59.997Z</time></trkpt><trkpt lat="37.79985300372231" lon="15.189359437741125"><ele>205.0</ele><time>2026-04-12T07:08:00.997Z</time></trkpt><trkpt lat="37.7997145820272" lon="15.189198952148445"><ele>205.0</ele><time>2026-04-12T07:08:01.997Z</time></trkpt><trkpt lat="37.799597580771206" lon="15.189013267841156"><ele>205.0</ele><time>2026-04-12T07:08:02.997Z</time></trkpt><trkpt lat="37.79945620303915" lon="15.188841420154505"><ele>205.0</ele><time>2026-04-12T07:08:03.997Z</time></trkpt><trkpt lat="37.79933795126577" lon="15.188672183899927"><ele>205.0</ele><time>2026-04-12T07:08:04.997Z</time></trkpt><trkpt lat="37.79922721935675" lon="15.188525684494925"><ele>205.0</ele><time>2026-04-12T07:08:05.997Z</time></trkpt><trkpt lat="37.79912591496766" lon="15.188401759091667"><ele>205.0</ele><time>2026-04-12T07:08:06.997Z</time></trkpt><trkpt lat="37.79904187048564" lon="15.188292467519718"><ele>205.0</ele><time>2026-04-12T07:08:07.997Z</time></trkpt><trkpt lat="37.79896734011008" lon="15.188186852175926"><ele>205.0</ele><time>2026-04-12T07:08:08.997Z</time></trkpt><trkpt lat="37.798900389827914" lon="15.188087697331607"><ele>205.0</ele><time>2026-04-12T07:08:09.997Z</time></trkpt><trkpt lat="37.798839021907476" lon="15.188012169580615"><ele>205.0</ele><time>2026-04-12T07:08:10.997Z</time></trkpt><trkpt lat="37.7987927503496" lon="15.187955039322743"><ele>207.0</ele><time>2026-04-12T07:08:11.997Z</time></trkpt><trkpt lat="37.79873374669764" lon="15.187880523848374"><ele>209.0</ele><time>2026-04-12T07:08:13.997Z</time></trkpt><trkpt lat="37.79869461879867" lon="15.187794673268495"><ele>211.0</ele><time>2026-04-12T07:08:15.997Z</time></trkpt><trkpt lat="37.79875700221647" lon="15.187646120264862"><ele>213.0</ele><time>2026-04-12T07:08:17.997Z</time></trkpt><trkpt lat="37.79886295145989" lon="15.187626789185966"><ele>215.0</ele><time>2026-04-12T07:08:18.997Z</time></trkpt><trkpt lat="37.79898194393312" lon="15.18757330166794"><ele>215.0</ele><time>2026-04-12T07:08:19.997Z</time></trkpt><trkpt lat="37.79912167692767" lon="15.187510789557466"><ele>215.0</ele><time>2026-04-12T07:08:20.997Z</time></trkpt><trkpt lat="37.799265541587445" lon="15.187438974584614"><ele>215.0</ele><time>2026-04-12T07:08:21.997Z</time></trkpt><trkpt lat="37.799394917910575" lon="15.18740047387892"><ele>215.0</ele><time>2026-04-12T07:08:22.997Z</time></trkpt><trkpt lat="37.79950649358664" lon="15.187368422953014"><ele>217.2</ele><time>2026-04-12T07:08:23.997Z</time></trkpt><trkpt lat="37.799618246613974" lon="15.187331459336098"><ele>219.4</ele><time>2026-04-12T07:08:24.997Z</time></trkpt><trkpt lat="37.799720851111545" lon="15.18729797206708"><ele>221.60000000000002</ele><time>2026-04-12T07:08:25.997Z</time></trkpt><trkpt lat="37.79981284840751" lon="15.187231706579846"><ele>223.8</ele><time>2026-04-12T07:08:26.997Z</time></trkpt><trkpt lat="37.79988926844945" lon="15.187165500309376"><ele>226.0</ele><time>2026-04-12T07:08:27.997Z</time></trkpt><trkpt lat="37.79998510287015" lon="15.187124366566788"><ele>226.0</ele><time>2026-04-12T07:08:28.997Z</time></trkpt><trkpt lat="37.8000854357628" lon="15.18709132420438"><ele>226.00000000000003</ele><time>2026-04-12T07:08:29.997Z</time></trkpt><trkpt lat="37.80018650395467" lon="15.18710178173353"><ele>226.00000000000003</ele><time>2026-04-12T07:08:30.997Z</time></trkpt><trkpt lat="37.800261544456724" lon="15.187160064069763"><ele>226.0</ele><time>2026-04-12T07:08:31.997Z</time></trkpt><trkpt lat="37.80032663830061" lon="15.187259304734047"><ele>226.0</ele><time>2026-04-12T07:08:32.997Z</time></trkpt><trkpt lat="37.80039881485993" lon="15.187360093405465"><ele>226.4</ele><time>2026-04-12T07:08:33.997Z</time></trkpt><trkpt lat="37.80046637744484" lon="15.187454719829779"><ele>226.8</ele><time>2026-04-12T07:08:34.997Z</time></trkpt><trkpt lat="37.800521543096444" lon="15.187532734508826"><ele>227.20000000000002</ele><time>2026-04-12T07:08:35.996Z</time></trkpt><trkpt lat="37.8005790866581" lon="15.18761411199634"><ele>227.60000000000002</ele><time>2026-04-12T07:08:36.996Z</time></trkpt><trkpt lat="37.80064214135625" lon="15.187703283287076"><ele>228.0</ele><time>2026-04-12T07:08:37.996Z</time></trkpt><trkpt lat="37.80070657650768" lon="15.187793058408994"><ele>228.0</ele><time>2026-04-12T07:08:38.996Z</time></trkpt><trkpt lat="37.800763353679564" lon="15.187857037422331"><ele>228.0</ele><time>2026-04-12T07:08:39.996Z</time></trkpt><trkpt lat="37.80081745377575" lon="15.187917524727103"><ele>228.0</ele><time>2026-04-12T07:08:40.996Z</time></trkpt><trkpt lat="37.80091729840216" lon="15.187957373734196"><ele>228.0</ele><time>2026-04-12T07:08:42.996Z</time></trkpt><trkpt lat="37.80101259929043" lon="15.187820339933761"><ele>228.0</ele><time>2026-04-12T07:08:44.996Z</time></trkpt><trkpt lat="37.80103456314417" lon="15.187717724776006"><ele>232.66666666666669</ele><time>2026-04-12T07:08:45.996Z</time></trkpt><trkpt lat="37.80105033505404" lon="15.18756668640332"><ele>237.33333333333334</ele><time>2026-04-12T07:08:46.996Z</time></trkpt><trkpt lat="37.801060267486186" lon="15.18736149848699"><ele>242.0</ele><time>2026-04-12T07:08:47.996Z</time></trkpt><trkpt lat="37.80107488515037" lon="15.1871407655844"><ele>244.66666666666669</ele><time>2026-04-12T07:08:48.996Z</time></trkpt><trkpt lat="37.801075237104826" lon="15.18692009441815"><ele>247.33333333333331</ele><time>2026-04-12T07:08:49.996Z</time></trkpt><trkpt lat="37.80113309959116" lon="15.186708478562998"><ele>250.0</ele><time>2026-04-12T07:08:50.996Z</time></trkpt><trkpt lat="37.80126235992725" lon="15.186502570025207"><ele>250.0</ele><time>2026-04-12T07:08:51.996Z</time></trkpt><trkpt lat="37.80146017121535" lon="15.186477990367578"><ele>250.0</ele><time>2026-04-12T07:08:52.996Z</time></trkpt><trkpt lat="37.80117344398696" lon="15.186534988706342"><ele>250.0</ele><time>2026-04-12T07:08:53.996Z</time></trkpt><trkpt lat="37.801260237407625" lon="15.186519350248924"><ele>250.0</ele><time>2026-04-12T07:08:54.996Z</time></trkpt><trkpt lat="37.80135920335738" lon="15.186609706020247"><ele>250.0</ele><time>2026-04-12T07:08:55.996Z</time></trkpt><trkpt lat="37.80140731343719" lon="15.186796617554375"><ele>250.0</ele><time>2026-04-12T07:08:56.996Z</time></trkpt><trkpt lat="37.80150099126475" lon="15.186981542928658"><ele>250.0</ele><time>2026-04-12T07:08:57.996Z</time></trkpt><trkpt lat="37.80160127288991" lon="15.187181172619432"><ele>250.0</ele><time>2026-04-12T07:08:58.996Z</time></trkpt><trkpt lat="37.80173706119189" lon="15.187353552621902"><ele>250.0</ele><time>2026-04-12T07:08:59.996Z</time></trkpt><trkpt lat="37.8018824168323" lon="15.187530000895501"><ele>250.0</ele><time>2026-04-12T07:09:00.996Z</time></trkpt><trkpt lat="37.80200874355251" lon="15.187658952889842"><ele>250.0</ele><time>2026-04-12T07:09:01.996Z</time></trkpt><trkpt lat="37.80211140531469" lon="15.187735913530993"><ele>250.0</ele><time>2026-04-12T07:09:02.996Z</time></trkpt><trkpt lat="37.802207805613705" lon="15.187780152850312"><ele>250.0</ele><time>2026-04-12T07:09:03.996Z</time></trkpt><trkpt lat="37.802342888363086" lon="15.187666111966527"><ele>250.0</ele><time>2026-04-12T07:09:04.996Z</time></trkpt><trkpt lat="37.802479207829144" lon="15.187542731248252"><ele>250.0</ele><time>2026-04-12T07:09:05.996Z</time></trkpt><trkpt lat="37.80259929655665" lon="15.187414850623005"><ele>250.0</ele><time>2026-04-12T07:09:06.996Z</time></trkpt><trkpt lat="37.802704488339074" lon="15.187328819564053"><ele>251.25</ele><time>2026-04-12T07:09:07.996Z</time></trkpt><trkpt lat="37.80279273930329" lon="15.187256760472621"><ele>252.5</ele><time>2026-04-12T07:09:08.996Z</time></trkpt><trkpt lat="37.802880123884165" lon="15.18717407815963"><ele>253.75</ele><time>2026-04-12T07:09:09.996Z</time></trkpt><trkpt lat="37.80295343317259" lon="15.187078854191897"><ele>255.0</ele><time>2026-04-12T07:09:10.996Z</time></trkpt><trkpt lat="37.80298943875523" lon="15.18692008330038"><ele>255.0</ele><time>2026-04-12T07:09:11.996Z</time></trkpt><trkpt lat="37.80299737912332" lon="15.18674535309217"><ele>255.0</ele><time>2026-04-12T07:09:12.995Z</time></trkpt><trkpt lat="37.80300488828979" lon="15.186609607992581"><ele>255.0</ele><time>2026-04-12T07:09:13.995Z</time></trkpt><trkpt lat="37.80296848898871" lon="15.186496035067911"><ele>255.0</ele><time>2026-04-12T07:09:14.995Z</time></trkpt><trkpt lat="37.802880572137575" lon="15.186400072825982"><ele>257.3333333333333</ele><time>2026-04-12T07:09:15.995Z</time></trkpt><trkpt lat="37.802752056974875" lon="15.186287380442147"><ele>259.66666666666663</ele><time>2026-04-12T07:09:16.995Z</time></trkpt><trkpt lat="37.80261628943405" lon="15.18616098868874"><ele>262.0</ele><time>2026-04-12T07:09:17.995Z</time></trkpt><trkpt lat="37.80247399409633" lon="15.186030836968726"><ele>262.75</ele><time>2026-04-12T07:09:18.995Z</time></trkpt><trkpt lat="37.80234273215199" lon="15.18590516124864"><ele>263.5</ele><time>2026-04-12T07:09:19.995Z</time></trkpt><trkpt lat="37.80223966257817" lon="15.185782835807167"><ele>264.25</ele><time>2026-04-12T07:09:20.995Z</time></trkpt><trkpt lat="37.802171129195095" lon="15.185637995755842"><ele>265.0</ele><time>2026-04-12T07:09:21.995Z</time></trkpt><trkpt lat="37.80210676393365" lon="15.185479177255097"><ele>267.5</ele><time>2026-04-12T07:09:22.995Z</time></trkpt><trkpt lat="37.80203459535867" lon="15.185308785496034"><ele>270.0</ele><time>2026-04-12T07:09:23.995Z</time></trkpt><trkpt lat="37.801983193710974" lon="15.185160059312805"><ele>272.5</ele><time>2026-04-12T07:09:24.995Z</time></trkpt><trkpt lat="37.80194747004763" lon="15.185053504694103"><ele>275.0</ele><time>2026-04-12T07:09:25.995Z</time></trkpt><trkpt lat="37.80201859566273" lon="15.184957847805222"><ele>275.0</ele><time>2026-04-12T07:09:27.995Z</time></trkpt><trkpt lat="37.802093776431356" lon="15.184948803474988"><ele>275.0</ele><time>2026-04-12T07:09:28.995Z</time></trkpt><trkpt lat="37.80216658363609" lon="15.18503799983941"><ele>275.0</ele><time>2026-04-12T07:09:29.995Z</time></trkpt><trkpt lat="37.80227064752506" lon="15.185074741714839"><ele>275.0</ele><time>2026-04-12T07:09:30.995Z</time></trkpt><trkpt lat="37.802394662927384" lon="15.185155403563824"><ele>275.0</ele><time>2026-04-12T07:09:31.995Z</time></trkpt><trkpt lat="37.80251366486368" lon="15.185163858933638"><ele>275.0</ele><time>2026-04-12T07:09:32.995Z</time></trkpt><trkpt lat="37.80259491469316" lon="15.185161829952253"><ele>275.0</ele><time>2026-04-12T07:09:33.995Z</time></trkpt><trkpt lat="37.802581646097615" lon="15.185008733512266"><ele>275.0</ele><time>2026-04-12T07:09:34.995Z</time></trkpt><trkpt lat="37.80270455397232" lon="15.184498233978802"><ele>277.0</ele><time>2026-04-12T07:09:36.995Z</time></trkpt><trkpt lat="37.80279769797723" lon="15.184354024088474"><ele>279.0</ele><time>2026-04-12T07:09:37.995Z</time></trkpt><trkpt lat="37.80288244741209" lon="15.184186778009192"><ele>281.0</ele><time>2026-04-12T07:09:38.995Z</time></trkpt><trkpt lat="37.80293076606608" lon="15.183981947835905"><ele>283.33333333333337</ele><time>2026-04-12T07:09:39.995Z</time></trkpt><trkpt lat="37.8029657963893" lon="15.183783014690151"><ele>285.6666666666667</ele><time>2026-04-12T07:09:40.995Z</time></trkpt><trkpt lat="37.803000232440375" lon="15.183588022345555"><ele>288.0</ele><time>2026-04-12T07:09:41.995Z</time></trkpt><trkpt lat="37.80303751135386" lon="15.18340836912459"><ele>288.0</ele><time>2026-04-12T07:09:42.995Z</time></trkpt><trkpt lat="37.80306797576012" lon="15.183249042914364"><ele>288.0</ele><time>2026-04-12T07:09:43.995Z</time></trkpt><trkpt lat="37.803095292613804" lon="15.183109544829307"><ele>288.0</ele><time>2026-04-12T07:09:44.995Z</time></trkpt><trkpt lat="37.803110030339596" lon="15.18296369718322"><ele>288.0</ele><time>2026-04-12T07:09:45.995Z</time></trkpt><trkpt lat="37.80313010809554" lon="15.182804616564436"><ele>290.5</ele><time>2026-04-12T07:09:46.995Z</time></trkpt><trkpt lat="37.80312878022449" lon="15.182641664157822"><ele>293.0</ele><time>2026-04-12T07:09:47.995Z</time></trkpt><trkpt lat="37.803129528521886" lon="15.182474849388875"><ele>295.5</ele><time>2026-04-12T07:09:48.995Z</time></trkpt><trkpt lat="37.80314869088305" lon="15.18230947079081"><ele>298.0</ele><time>2026-04-12T07:09:49.994Z</time></trkpt><trkpt lat="37.80314736019181" lon="15.182151713063815"><ele>299.75</ele><time>2026-04-12T07:09:50.994Z</time></trkpt><trkpt lat="37.803148240062995" lon="15.181991773091985"><ele>301.5</ele><time>2026-04-12T07:09:51.994Z</time></trkpt><trkpt lat="37.80315175761095" lon="15.181817690974006"><ele>303.25</ele><time>2026-04-12T07:09:52.994Z</time></trkpt><trkpt lat="37.803158634609126" lon="15.181609065505945"><ele>305.0</ele><time>2026-04-12T07:09:53.994Z</time></trkpt><trkpt lat="37.80316057477294" lon="15.181419594590093"><ele>306.0</ele><time>2026-04-12T07:09:54.994Z</time></trkpt><trkpt lat="37.80315978018023" lon="15.181245961825399"><ele>307.0</ele><time>2026-04-12T07:09:55.994Z</time></trkpt><trkpt lat="37.80316530522977" lon="15.181103747880158"><ele>308.0</ele><time>2026-04-12T07:09:56.994Z</time></trkpt><trkpt lat="37.80317038543763" lon="15.180973532421818"><ele>309.0</ele><time>2026-04-12T07:09:57.994Z</time></trkpt><trkpt lat="37.803175192158676" lon="15.180846746176728"><ele>309.0</ele><time>2026-04-12T07:09:58.994Z</time></trkpt><trkpt lat="37.80317534496088" lon="15.180740980201941"><ele>309.0</ele><time>2026-04-12T07:09:59.994Z</time></trkpt><trkpt lat="37.80318763557085" lon="15.180634012585223"><ele>309.0</ele><time>2026-04-12T07:10:00.994Z</time></trkpt><trkpt lat="37.80319270214139" lon="15.180511969985037"><ele>309.0</ele><time>2026-04-12T07:10:01.994Z</time></trkpt><trkpt lat="37.803197562951" lon="15.180380448559898"><ele>309.0</ele><time>2026-04-12T07:10:02.994Z</time></trkpt><trkpt lat="37.80320283942454" lon="15.180239193517005"><ele>310.4</ele><time>2026-04-12T07:10:03.994Z</time></trkpt><trkpt lat="37.803207478858894" lon="15.180092925085832"><ele>311.79999999999995</ele><time>2026-04-12T07:10:04.994Z</time></trkpt><trkpt lat="37.80322851663206" lon="15.179948229411268"><ele>313.20000000000005</ele><time>2026-04-12T07:10:05.994Z</time></trkpt><trkpt lat="37.803236577475346" lon="15.179808141365552"><ele>314.6</ele><time>2026-04-12T07:10:06.994Z</time></trkpt><trkpt lat="37.80323487053185" lon="15.179674007649819"><ele>316.0</ele><time>2026-04-12T07:10:07.994Z</time></trkpt><trkpt lat="37.80325852482857" lon="15.179550721672246"><ele>317.6</ele><time>2026-04-12T07:10:08.994Z</time></trkpt><trkpt lat="37.8033307358016" lon="15.17945550360246"><ele>319.20000000000005</ele><time>2026-04-12T07:10:09.994Z</time></trkpt><trkpt lat="37.803390033688295" lon="15.179368769599572"><ele>320.79999999999995</ele><time>2026-04-12T07:10:10.994Z</time></trkpt><trkpt lat="37.803453189396095" lon="15.179271537661029"><ele>322.4</ele><time>2026-04-12T07:10:11.994Z</time></trkpt><trkpt lat="37.803509651258395" lon="15.179177572000887"><ele>324.0</ele><time>2026-04-12T07:10:12.994Z</time></trkpt><trkpt lat="37.80356638275522" lon="15.179089083926879"><ele>325.0</ele><time>2026-04-12T07:10:13.994Z</time></trkpt><trkpt lat="37.803604659949094" lon="15.179010813236749"><ele>326.0</ele><time>2026-04-12T07:10:14.994Z</time></trkpt><trkpt lat="37.80366568912159" lon="15.178946182779187"><ele>327.0</ele><time>2026-04-12T07:10:16.994Z</time></trkpt><trkpt lat="37.80369360444578" lon="15.17886136015143"><ele>328.0</ele><time>2026-04-12T07:10:19.994Z</time></trkpt><trkpt lat="37.80376300360584" lon="15.17878627430107"><ele>329.0</ele><time>2026-04-12T07:10:21.994Z</time></trkpt><trkpt lat="37.80387513576038" lon="15.178711072748804"><ele>330.0</ele><time>2026-04-12T07:10:23.994Z</time></trkpt><trkpt lat="37.80393744348306" lon="15.178728715777345"><ele>330.0</ele><time>2026-04-12T07:10:24.994Z</time></trkpt><trkpt lat="37.80403676230488" lon="15.178798768352546"><ele>330.0</ele><time>2026-04-12T07:10:25.994Z</time></trkpt><trkpt lat="37.8041504149287" lon="15.17889662263349"><ele>330.0</ele><time>2026-04-12T07:10:26.993Z</time></trkpt><trkpt lat="37.80427571216584" lon="15.17900922207851"><ele>330.0</ele><time>2026-04-12T07:10:27.993Z</time></trkpt><trkpt lat="37.804400069027814" lon="15.179149733712384"><ele>332.6666666666667</ele><time>2026-04-12T07:10:28.993Z</time></trkpt><trkpt lat="37.804536423814994" lon="15.179329884933127"><ele>335.33333333333337</ele><time>2026-04-12T07:10:29.993Z</time></trkpt><trkpt lat="37.804645189046774" lon="15.179521317028271"><ele>338.0</ele><time>2026-04-12T07:10:30.993Z</time></trkpt><trkpt lat="37.80469814646398" lon="15.179670289317079"><ele>338.0</ele><time>2026-04-12T07:10:31.993Z</time></trkpt><trkpt lat="37.80475742160735" lon="15.179794632669477"><ele>338.0</ele><time>2026-04-12T07:10:32.993Z</time></trkpt><trkpt lat="37.80480674075662" lon="15.179888581914264"><ele>338.0</ele><time>2026-04-12T07:10:33.993Z</time></trkpt><trkpt lat="37.804854300342186" lon="15.17995409588614"><ele>338.0</ele><time>2026-04-12T07:10:34.993Z</time></trkpt><trkpt lat="37.80496908118756" lon="15.180035792261329"><ele>338.0</ele><time>2026-04-12T07:10:36.993Z</time></trkpt><trkpt lat="37.80503622718123" lon="15.180048024371409"><ele>337.83333333333337</ele><time>2026-04-12T07:10:37.993Z</time></trkpt><trkpt lat="37.80510488371084" lon="15.180084430427922"><ele>337.6666666666667</ele><time>2026-04-12T07:10:38.993Z</time></trkpt><trkpt lat="37.805179504456106" lon="15.1801347022177"><ele>337.5</ele><time>2026-04-12T07:10:39.993Z</time></trkpt><trkpt lat="37.8052622113904" lon="15.180175676010593"><ele>337.3333333333333</ele><time>2026-04-12T07:10:40.993Z</time></trkpt><trkpt lat="37.805335129856154" lon="15.18017108108522"><ele>337.16666666666663</ele><time>2026-04-12T07:10:41.993Z</time></trkpt><trkpt lat="37.80540026626841" lon="15.180171908027054"><ele>337.0</ele><time>2026-04-12T07:10:42.993Z</time></trkpt><trkpt lat="37.80551907215275" lon="15.180166665650756"><ele>337.8</ele><time>2026-04-12T07:10:44.993Z</time></trkpt><trkpt lat="37.805609813049465" lon="15.180207304615298"><ele>338.6</ele><time>2026-04-12T07:10:46.993Z</time></trkpt><trkpt lat="37.80567262810946" lon="15.180161248525305"><ele>339.40000000000003</ele><time>2026-04-12T07:10:48.993Z</time></trkpt><trkpt lat="37.805704244678054" lon="15.180011823211457"><ele>340.20000000000005</ele><time>2026-04-12T07:10:51.993Z</time></trkpt><trkpt lat="37.80571577462724" lon="15.179908051173523"><ele>341.0</ele><time>2026-04-12T07:10:53.993Z</time></trkpt><trkpt lat="37.805709754864054" lon="15.179806540245277"><ele>342.4</ele><time>2026-04-12T07:10:55.993Z</time></trkpt><trkpt lat="37.80571103280357" lon="15.179656061768473"><ele>343.8</ele><time>2026-04-12T07:10:57.993Z</time></trkpt><trkpt lat="37.80569311398926" lon="15.179551791386507"><ele>345.2</ele><time>2026-04-12T07:10:58.993Z</time></trkpt><trkpt lat="37.8057106421805" lon="15.179439771565956"><ele>346.59999999999997</ele><time>2026-04-12T07:10:59.993Z</time></trkpt><trkpt lat="37.805714798294" lon="15.17935120836378"><ele>348.0</ele><time>2026-04-12T07:11:00.993Z</time></trkpt><trkpt lat="37.80573119866843" lon="15.179242176985852"><ele>348.0</ele><time>2026-04-12T07:11:02.993Z</time></trkpt><trkpt lat="37.80574777518295" lon="15.179148149560568"><ele>348.0</ele><time>2026-04-12T07:11:04.992Z</time></trkpt><trkpt lat="37.805902028070705" lon="15.17921130650538"><ele>348.0</ele><time>2026-04-12T07:11:06.992Z</time></trkpt><trkpt lat="37.80602591969826" lon="15.179212066293418"><ele>348.0</ele><time>2026-04-12T07:11:07.992Z</time></trkpt><trkpt lat="37.806144887122464" lon="15.179201771866952"><ele>348.5</ele><time>2026-04-12T07:11:08.992Z</time></trkpt><trkpt lat="37.80629054349168" lon="15.179212195957225"><ele>349.0</ele><time>2026-04-12T07:11:09.992Z</time></trkpt><trkpt lat="37.80642157393914" lon="15.179208173986472"><ele>349.5</ele><time>2026-04-12T07:11:10.992Z</time></trkpt><trkpt lat="37.80651492289701" lon="15.179215334140773"><ele>350.0</ele><time>2026-04-12T07:11:11.992Z</time></trkpt><trkpt lat="37.80660131467018" lon="15.179191384504996"><ele>350.0</ele><time>2026-04-12T07:11:12.992Z</time></trkpt><trkpt lat="37.80667603763188" lon="15.179089531179121"><ele>350.0</ele><time>2026-04-12T07:11:13.992Z</time></trkpt><trkpt lat="37.806791537682244" lon="15.178979667343809"><ele>350.0</ele><time>2026-04-12T07:11:14.992Z</time></trkpt><trkpt lat="37.80689800358507" lon="15.178868738443645"><ele>350.0</ele><time>2026-04-12T07:11:15.992Z</time></trkpt><trkpt lat="37.80698336128978" lon="15.178779518738251"><ele>351.25</ele><time>2026-04-12T07:11:16.992Z</time></trkpt><trkpt lat="37.8070708380391" lon="15.17868803319357"><ele>352.5</ele><time>2026-04-12T07:11:17.992Z</time></trkpt><trkpt lat="37.8071584697886" lon="15.178593232486158"><ele>353.75</ele><time>2026-04-12T07:11:18.992Z</time></trkpt><trkpt lat="37.80724788611765" lon="15.178500793583622"><ele>355.0</ele><time>2026-04-12T07:11:19.992Z</time></trkpt><trkpt lat="37.80733165589332" lon="15.1784133871381"><ele>355.0</ele><time>2026-04-12T07:11:20.992Z</time></trkpt><trkpt lat="37.80741146282876" lon="15.17833011555898"><ele>355.0</ele><time>2026-04-12T07:11:21.992Z</time></trkpt><trkpt lat="37.807492634509295" lon="15.178245419996642"><ele>355.0</ele><time>2026-04-12T07:11:22.992Z</time></trkpt><trkpt lat="37.807569627349345" lon="15.17816456363423"><ele>355.0</ele><time>2026-04-12T07:11:23.992Z</time></trkpt><trkpt lat="37.807634940977756" lon="15.178070084629987"><ele>355.0</ele><time>2026-04-12T07:11:24.992Z</time></trkpt><trkpt lat="37.807717987426926" lon="15.178007783696264"><ele>354.8</ele><time>2026-04-12T07:11:25.992Z</time></trkpt><trkpt lat="37.80779729327984" lon="15.177923977000207"><ele>354.6</ele><time>2026-04-12T07:11:26.992Z</time></trkpt><trkpt lat="37.80787049959782" lon="15.177854325159114"><ele>354.4</ele><time>2026-04-12T07:11:27.992Z</time></trkpt><trkpt lat="37.80794403931189" lon="15.177761236380633"><ele>354.2</ele><time>2026-04-12T07:11:28.992Z</time></trkpt><trkpt lat="37.808013306311416" lon="15.177673230843823"><ele>354.0</ele><time>2026-04-12T07:11:29.992Z</time></trkpt><trkpt lat="37.80810593722089" lon="15.17760099519484"><ele>354.0</ele><time>2026-04-12T07:11:30.992Z</time></trkpt><trkpt lat="37.80817402598356" lon="15.17752231693997"><ele>354.0</ele><time>2026-04-12T07:11:31.992Z</time></trkpt><trkpt lat="37.80823718432018" lon="15.177449763261302"><ele>354.0</ele><time>2026-04-12T07:11:32.992Z</time></trkpt><trkpt lat="37.80831634455816" lon="15.177383638219924"><ele>354.0</ele><time>2026-04-12T07:11:33.992Z</time></trkpt><trkpt lat="37.80837960525785" lon="15.177318412134133"><ele>354.0</ele><time>2026-04-12T07:11:34.992Z</time></trkpt><trkpt lat="37.80844699972453" lon="15.177248675143636"><ele>354.0</ele><time>2026-04-12T07:11:35.992Z</time></trkpt><trkpt lat="37.808506589458055" lon="15.177186450170764"><ele>354.5</ele><time>2026-04-12T07:11:36.992Z</time></trkpt><trkpt lat="37.80857830139543" lon="15.177111566921605"><ele>355.0</ele><time>2026-04-12T07:11:37.992Z</time></trkpt><trkpt lat="37.80863785357545" lon="15.177023198260459"><ele>355.5</ele><time>2026-04-12T07:11:38.992Z</time></trkpt><trkpt lat="37.80870859055616" lon="15.176981138722487"><ele>356.0</ele><time>2026-04-12T07:11:39.992Z</time></trkpt><trkpt lat="37.80876695278135" lon="15.176907197480984"><ele>356.5</ele><time>2026-04-12T07:11:40.991Z</time></trkpt><trkpt lat="37.808833991701384" lon="15.176828499517176"><ele>357.0</ele><time>2026-04-12T07:11:41.991Z</time></trkpt><trkpt lat="37.80890714816621" lon="15.1767521358908"><ele>357.0</ele><time>2026-04-12T07:11:42.991Z</time></trkpt><trkpt lat="37.80898532022071" lon="15.176673504666928"><ele>357.0</ele><time>2026-04-12T07:11:43.991Z</time></trkpt><trkpt lat="37.80905660965379" lon="15.17658589263013"><ele>357.0</ele><time>2026-04-12T07:11:44.991Z</time></trkpt><trkpt lat="37.80914070487755" lon="15.176524071357331"><ele>357.0</ele><time>2026-04-12T07:11:45.991Z</time></trkpt><trkpt lat="37.80921287001562" lon="15.17644867412936"><ele>357.0</ele><time>2026-04-12T07:11:46.991Z</time></trkpt><trkpt lat="37.809291154182056" lon="15.176366883832033"><ele>357.6</ele><time>2026-04-12T07:11:47.991Z</time></trkpt><trkpt lat="37.80935747082675" lon="15.176297597044604"><ele>358.20000000000005</ele><time>2026-04-12T07:11:48.991Z</time></trkpt><trkpt lat="37.809424374316905" lon="15.176227697143869"><ele>358.8</ele><time>2026-04-12T07:11:49.991Z</time></trkpt><trkpt lat="37.809497927066104" lon="15.176157837646048"><ele>359.4</ele><time>2026-04-12T07:11:50.991Z</time></trkpt><trkpt lat="37.809569980269934" lon="15.17607264331291"><ele>360.0</ele><time>2026-04-12T07:11:51.991Z</time></trkpt><trkpt lat="37.80964715066267" lon="15.1759822323439"><ele>360.0</ele><time>2026-04-12T07:11:52.991Z</time></trkpt><trkpt lat="37.80972513356638" lon="15.175891704221213"><ele>360.0</ele><time>2026-04-12T07:11:53.991Z</time></trkpt><trkpt lat="37.80982064213197" lon="15.175834374972805"><ele>360.0</ele><time>2026-04-12T07:11:54.991Z</time></trkpt><trkpt lat="37.80988791822567" lon="15.175756710411264"><ele>360.0</ele><time>2026-04-12T07:11:55.991Z</time></trkpt><trkpt lat="37.8099564479594" lon="15.175661598985895"><ele>360.0</ele><time>2026-04-12T07:11:56.991Z</time></trkpt><trkpt lat="37.81003289933984" lon="15.175584733102452"><ele>360.5</ele><time>2026-04-12T07:11:57.991Z</time></trkpt><trkpt lat="37.810105712529655" lon="15.175472636777428"><ele>361.0</ele><time>2026-04-12T07:11:58.991Z</time></trkpt><trkpt lat="37.81017859013764" lon="15.175354610969999"><ele>361.5</ele><time>2026-04-12T07:11:59.991Z</time></trkpt><trkpt lat="37.81024742322451" lon="15.175214859239583"><ele>362.0</ele><time>2026-04-12T07:12:00.991Z</time></trkpt><trkpt lat="37.81033500545747" lon="15.175054925039715"><ele>362.0</ele><time>2026-04-12T07:12:01.991Z</time></trkpt><trkpt lat="37.81041768751554" lon="15.174881889194413"><ele>362.0</ele><time>2026-04-12T07:12:02.991Z</time></trkpt><trkpt lat="37.810503852698766" lon="15.174719292601536"><ele>362.0</ele><time>2026-04-12T07:12:03.991Z</time></trkpt><trkpt lat="37.8105885827059" lon="15.174543544732357"><ele>363.33333333333337</ele><time>2026-04-12T07:12:04.991Z</time></trkpt><trkpt lat="37.81068284949384" lon="15.17436045451993"><ele>364.6666666666667</ele><time>2026-04-12T07:12:05.991Z</time></trkpt><trkpt lat="37.8107843158719" lon="15.17418142563204"><ele>366.0</ele><time>2026-04-12T07:12:06.991Z</time></trkpt><trkpt lat="37.8108779157994" lon="15.173993788477308"><ele>367.6666666666667</ele><time>2026-04-12T07:12:07.991Z</time></trkpt><trkpt lat="37.810980950757184" lon="15.173792778086819"><ele>369.33333333333337</ele><time>2026-04-12T07:12:08.991Z</time></trkpt><trkpt lat="37.811075647615624" lon="15.173604083343724"><ele>371.0</ele><time>2026-04-12T07:12:09.991Z</time></trkpt><trkpt lat="37.81117618947071" lon="15.17342177620903"><ele>371.0</ele><time>2026-04-12T07:12:10.991Z</time></trkpt><trkpt lat="37.81127448854201" lon="15.17324796874549"><ele>371.0</ele><time>2026-04-12T07:12:11.991Z</time></trkpt><trkpt lat="37.811371526800826" lon="15.173068058611374"><ele>371.0</ele><time>2026-04-12T07:12:12.991Z</time></trkpt><trkpt lat="37.811464213374514" lon="15.172887919208478"><ele>372.6666666666667</ele><time>2026-04-12T07:12:13.991Z</time></trkpt><trkpt lat="37.81157167864485" lon="15.172729143616667"><ele>374.3333333333333</ele><time>2026-04-12T07:12:14.991Z</time></trkpt><trkpt lat="37.81165094323888" lon="15.17255661529467"><ele>376.0</ele><time>2026-04-12T07:12:15.991Z</time></trkpt><trkpt lat="37.811735371541126" lon="15.172389542450698"><ele>377.0</ele><time>2026-04-12T07:12:16.991Z</time></trkpt><trkpt lat="37.81180669385177" lon="15.172221843816356"><ele>378.0</ele><time>2026-04-12T07:12:17.99Z</time></trkpt><trkpt lat="37.81187184047913" lon="15.172058905470196"><ele>379.0</ele><time>2026-04-12T07:12:18.99Z</time></trkpt><trkpt lat="37.81192029387937" lon="15.171911103731984"><ele>380.0</ele><time>2026-04-12T07:12:19.99Z</time></trkpt><trkpt lat="37.81196969216142" lon="15.171782263525118"><ele>380.2</ele><time>2026-04-12T07:12:20.99Z</time></trkpt><trkpt lat="37.81202841937914" lon="15.171677735199381"><ele>380.4</ele><time>2026-04-12T07:12:21.99Z</time></trkpt><trkpt lat="37.812103955833" lon="15.171632266785672"><ele>380.6</ele><time>2026-04-12T07:12:22.99Z</time></trkpt><trkpt lat="37.81218208025632" lon="15.17164771645238"><ele>380.8</ele><time>2026-04-12T07:12:23.99Z</time></trkpt><trkpt lat="37.81230916046634" lon="15.17165898749964"><ele>381.0</ele><time>2026-04-12T07:12:24.99Z</time></trkpt><trkpt lat="37.81242816256314" lon="15.171618281468119"><ele>381.5</ele><time>2026-04-12T07:12:25.99Z</time></trkpt><trkpt lat="37.81250899179595" lon="15.171516203568524"><ele>382.0</ele><time>2026-04-12T07:12:26.99Z</time></trkpt><trkpt lat="37.81254407523808" lon="15.17132636196369"><ele>382.5</ele><time>2026-04-12T07:12:27.99Z</time></trkpt><trkpt lat="37.81260385850068" lon="15.171133154886368"><ele>383.0</ele><time>2026-04-12T07:12:28.99Z</time></trkpt><trkpt lat="37.812664679525916" lon="15.170894064801338"><ele>385.6666666666667</ele><time>2026-04-12T07:12:29.99Z</time></trkpt><trkpt lat="37.81275396701248" lon="15.17065784191723"><ele>388.33333333333337</ele><time>2026-04-12T07:12:30.99Z</time></trkpt><trkpt lat="37.812872817441544" lon="15.17043128189185"><ele>391.0</ele><time>2026-04-12T07:12:31.99Z</time></trkpt><trkpt lat="37.81300021028656" lon="15.170211097349775"><ele>391.0</ele><time>2026-04-12T07:12:32.99Z</time></trkpt><trkpt lat="37.813122317327945" lon="15.169996970754811"><ele>391.0</ele><time>2026-04-12T07:12:33.99Z</time></trkpt><trkpt lat="37.81323746682747" lon="15.169813343482492"><ele>391.0</ele><time>2026-04-12T07:12:34.99Z</time></trkpt><trkpt lat="37.81330292321454" lon="15.16963463169898"><ele>392.33333333333337</ele><time>2026-04-12T07:12:35.99Z</time></trkpt><trkpt lat="37.81336069930299" lon="15.169440189595823"><ele>393.66666666666663</ele><time>2026-04-12T07:12:36.99Z</time></trkpt><trkpt lat="37.813395478436675" lon="15.169216069095357"><ele>395.0</ele><time>2026-04-12T07:12:37.99Z</time></trkpt><trkpt lat="37.813381973148225" lon="15.168986431361807"><ele>395.0</ele><time>2026-04-12T07:12:38.99Z</time></trkpt><trkpt lat="37.813378146034225" lon="15.168807851630367"><ele>395.0</ele><time>2026-04-12T07:12:39.99Z</time></trkpt><trkpt lat="37.813380934037454" lon="15.168658611545563"><ele>395.0</ele><time>2026-04-12T07:12:40.99Z</time></trkpt><trkpt lat="37.813379269232" lon="15.168518381835446"><ele>395.0</ele><time>2026-04-12T07:12:41.99Z</time></trkpt><trkpt lat="37.81338584264974" lon="15.168387467112662"><ele>395.0</ele><time>2026-04-12T07:12:42.99Z</time></trkpt><trkpt lat="37.81338156026701" lon="15.16823738230341"><ele>395.0</ele><time>2026-04-12T07:12:43.99Z</time></trkpt><trkpt lat="37.81339158653419" lon="15.168059561900398"><ele>395.0</ele><time>2026-04-12T07:12:44.99Z</time></trkpt><trkpt lat="37.81342148200894" lon="15.167847658082634"><ele>395.0</ele><time>2026-04-12T07:12:45.99Z</time></trkpt><trkpt lat="37.81343570580501" lon="15.16763073165452"><ele>396.3333333333333</ele><time>2026-04-12T07:12:46.99Z</time></trkpt><trkpt lat="37.813429831369774" lon="15.167387766995631"><ele>397.66666666666663</ele><time>2026-04-12T07:12:47.99Z</time></trkpt><trkpt lat="37.81345552301499" lon="15.167113420666038"><ele>399.0</ele><time>2026-04-12T07:12:48.99Z</time></trkpt><trkpt lat="37.81347649484186" lon="15.166819191459188"><ele>405.5</ele><time>2026-04-12T07:12:49.99Z</time></trkpt><trkpt lat="37.81349027579153" lon="15.166511655990014"><ele>412.0</ele><time>2026-04-12T07:12:50.99Z</time></trkpt><trkpt lat="37.81352132465123" lon="15.166225534246257"><ele>412.0</ele><time>2026-04-12T07:12:51.99Z</time></trkpt><trkpt lat="37.81353788544256" lon="15.165941854036769"><ele>412.0</ele><time>2026-04-12T07:12:52.99Z</time></trkpt><trkpt lat="37.81355549551797" lon="15.165647886707026"><ele>412.5</ele><time>2026-04-12T07:12:53.99Z</time></trkpt><trkpt lat="37.81357333528841" lon="15.165350080861833"><ele>413.0</ele><time>2026-04-12T07:12:54.989Z</time></trkpt><trkpt lat="37.81359237636319" lon="15.16503315010134"><ele>415.5</ele><time>2026-04-12T07:12:55.989Z</time></trkpt><trkpt lat="37.81361054593775" lon="15.164730725090156"><ele>418.0</ele><time>2026-04-12T07:12:56.989Z</time></trkpt><trkpt lat="37.81362087577091" lon="15.164448224206794"><ele>418.0</ele><time>2026-04-12T07:12:57.989Z</time></trkpt><trkpt lat="37.8136381513724" lon="15.164223598243918"><ele>418.0</ele><time>2026-04-12T07:12:58.989Z</time></trkpt><trkpt lat="37.81365849889326" lon="15.164037987562363"><ele>418.0</ele><time>2026-04-12T07:12:59.989Z</time></trkpt><trkpt lat="37.81372226204915" lon="15.163879713602332"><ele>418.33333333333337</ele><time>2026-04-12T07:13:00.989Z</time></trkpt><trkpt lat="37.8138033948025" lon="15.163682624342508"><ele>418.66666666666663</ele><time>2026-04-12T07:13:01.989Z</time></trkpt><trkpt lat="37.81389270176691" lon="15.163458278037437"><ele>419.0</ele><time>2026-04-12T07:13:02.989Z</time></trkpt><trkpt lat="37.81395529598862" lon="15.163248346013566"><ele>419.66666666666663</ele><time>2026-04-12T07:13:03.989Z</time></trkpt><trkpt lat="37.81401153423395" lon="15.163059800080411"><ele>420.33333333333337</ele><time>2026-04-12T07:13:04.989Z</time></trkpt><trkpt lat="37.814047765010834" lon="15.162856290190438"><ele>421.0</ele><time>2026-04-12T07:13:05.989Z</time></trkpt><trkpt lat="37.81410942934171" lon="15.162640925235937"><ele>421.0</ele><time>2026-04-12T07:13:06.989Z</time></trkpt><trkpt lat="37.81415917520258" lon="15.162436144467721"><ele>421.0</ele><time>2026-04-12T07:13:07.989Z</time></trkpt><trkpt lat="37.81422414007469" lon="15.162283037892713"><ele>421.0</ele><time>2026-04-12T07:13:08.989Z</time></trkpt><trkpt lat="37.814313022195364" lon="15.162114048303655"><ele>425.6666666666667</ele><time>2026-04-12T07:13:09.989Z</time></trkpt><trkpt lat="37.81449111817827" lon="15.16203527457487"><ele>430.33333333333337</ele><time>2026-04-12T07:13:10.989Z</time></trkpt><trkpt lat="37.81465845877399" lon="15.16188987456724"><ele>435.0</ele><time>2026-04-12T07:13:11.989Z</time></trkpt><trkpt lat="37.814831238069154" lon="15.161770313064569"><ele>435.0</ele><time>2026-04-12T07:13:12.989Z</time></trkpt><trkpt lat="37.81501721255582" lon="15.161698279653475"><ele>435.0</ele><time>2026-04-12T07:13:13.989Z</time></trkpt><trkpt lat="37.81518458856341" lon="15.161640092862259"><ele>435.0</ele><time>2026-04-12T07:13:14.989Z</time></trkpt><trkpt lat="37.81531782729774" lon="15.161596430519333"><ele>436.5</ele><time>2026-04-12T07:13:15.989Z</time></trkpt><trkpt lat="37.8154408695468" lon="15.161568910031768"><ele>438.0</ele><time>2026-04-12T07:13:16.989Z</time></trkpt><trkpt lat="37.815551288747315" lon="15.161586139118313"><ele>439.5</ele><time>2026-04-12T07:13:17.989Z</time></trkpt><trkpt lat="37.81566819980729" lon="15.16164905645175"><ele>441.0</ele><time>2026-04-12T07:13:18.989Z</time></trkpt><trkpt lat="37.81579476913155" lon="15.161690994172432"><ele>441.0</ele><time>2026-04-12T07:13:19.989Z</time></trkpt><trkpt lat="37.81589473167649" lon="15.161742515889738"><ele>441.0</ele><time>2026-04-12T07:13:20.989Z</time></trkpt><trkpt lat="37.81598577894274" lon="15.16178419565484"><ele>441.0</ele><time>2026-04-12T07:13:21.989Z</time></trkpt><trkpt lat="37.81607982377547" lon="15.16182797595316"><ele>441.0</ele><time>2026-04-12T07:13:22.989Z</time></trkpt><trkpt lat="37.81622004758446" lon="15.161837908996784"><ele>441.0</ele><time>2026-04-12T07:13:23.989Z</time></trkpt><trkpt lat="37.816390809635585" lon="15.161798501968049"><ele>442.0</ele><time>2026-04-12T07:13:24.989Z</time></trkpt><trkpt lat="37.816565156448775" lon="15.161753317946285"><ele>443.0</ele><time>2026-04-12T07:13:25.989Z</time></trkpt><trkpt lat="37.81674004507165" lon="15.161707993516607"><ele>444.0</ele><time>2026-04-12T07:13:26.989Z</time></trkpt><trkpt lat="37.81688208194626" lon="15.161643139099269"><ele>444.0</ele><time>2026-04-12T07:13:27.989Z</time></trkpt><trkpt lat="37.81701365181347" lon="15.161543088869783"><ele>444.0</ele><time>2026-04-12T07:13:28.989Z</time></trkpt><trkpt lat="37.8171183968481" lon="15.16138723396733"><ele>444.0</ele><time>2026-04-12T07:13:29.989Z</time></trkpt><trkpt lat="37.81721377127255" lon="15.161188752214732"><ele>446.5</ele><time>2026-04-12T07:13:30.989Z</time></trkpt><trkpt lat="37.81729749583763" lon="15.160934389141827"><ele>449.0</ele><time>2026-04-12T07:13:31.988Z</time></trkpt><trkpt lat="37.81740663827387" lon="15.160650115675407"><ele>452.0</ele><time>2026-04-12T07:13:32.988Z</time></trkpt><trkpt lat="37.817557724290666" lon="15.160392543418883"><ele>455.0</ele><time>2026-04-12T07:13:33.988Z</time></trkpt><trkpt lat="37.81771073401037" lon="15.160103838087004"><ele>457.5</ele><time>2026-04-12T07:13:34.988Z</time></trkpt><trkpt lat="37.81789029258384" lon="15.15983785506388"><ele>460.0</ele><time>2026-04-12T07:13:35.988Z</time></trkpt><trkpt lat="37.81804947910705" lon="15.159563711247594"><ele>460.0</ele><time>2026-04-12T07:13:36.988Z</time></trkpt><trkpt lat="37.818194360186496" lon="15.159359859146804"><ele>460.0</ele><time>2026-04-12T07:13:37.988Z</time></trkpt><trkpt lat="37.8183444949029" lon="15.159242601518844"><ele>460.0</ele><time>2026-04-12T07:13:38.988Z</time></trkpt><trkpt lat="37.818511755095685" lon="15.159179594968869"><ele>460.5</ele><time>2026-04-12T07:13:39.988Z</time></trkpt><trkpt lat="37.81872368686698" lon="15.159124263040116"><ele>461.0</ele><time>2026-04-12T07:13:40.988Z</time></trkpt><trkpt lat="37.818969551116474" lon="15.159074822201372"><ele>461.0</ele><time>2026-04-12T07:13:41.988Z</time></trkpt><trkpt lat="37.819213540836756" lon="15.158980384272125"><ele>461.0</ele><time>2026-04-12T07:13:42.988Z</time></trkpt><trkpt lat="37.8194645809487" lon="15.158887122227743"><ele>465.0</ele><time>2026-04-12T07:13:43.988Z</time></trkpt><trkpt lat="37.81972017841713" lon="15.15881374620659"><ele>469.0</ele><time>2026-04-12T07:13:44.988Z</time></trkpt><trkpt lat="37.81997112478328" lon="15.158723416900402"><ele>470.5</ele><time>2026-04-12T07:13:45.988Z</time></trkpt><trkpt lat="37.82020599654551" lon="15.158574962758472"><ele>472.0</ele><time>2026-04-12T07:13:46.988Z</time></trkpt><trkpt lat="37.82044239382015" lon="15.15841519616947"><ele>472.0</ele><time>2026-04-12T07:13:47.988Z</time></trkpt><trkpt lat="37.82067347918894" lon="15.158219127003356"><ele>472.0</ele><time>2026-04-12T07:13:48.988Z</time></trkpt><trkpt lat="37.820934310245704" lon="15.15804500184114"><ele>475.0</ele><time>2026-04-12T07:13:49.988Z</time></trkpt><trkpt lat="37.821196155967385" lon="15.15785119645049"><ele>478.0</ele><time>2026-04-12T07:13:50.988Z</time></trkpt><trkpt lat="37.82147230941807" lon="15.157658565284791"><ele>478.0</ele><time>2026-04-12T07:13:51.988Z</time></trkpt><trkpt lat="37.821733232854534" lon="15.157484660668478"><ele>478.0</ele><time>2026-04-12T07:13:52.988Z</time></trkpt><trkpt lat="37.82194308046074" lon="15.157334933664893"><ele>480.33333333333337</ele><time>2026-04-12T07:13:53.988Z</time></trkpt><trkpt lat="37.822126267307105" lon="15.157236338790046"><ele>482.66666666666663</ele><time>2026-04-12T07:13:54.988Z</time></trkpt><trkpt lat="37.822282065244096" lon="15.157108427676222"><ele>485.0</ele><time>2026-04-12T07:13:55.988Z</time></trkpt><trkpt lat="37.8223908407277" lon="15.156893313975722"><ele>485.0</ele><time>2026-04-12T07:13:56.988Z</time></trkpt><trkpt lat="37.82250822442056" lon="15.156618847194151"><ele>485.0</ele><time>2026-04-12T07:13:57.988Z</time></trkpt><trkpt lat="37.82264442332739" lon="15.156347739028636"><ele>489.0</ele><time>2026-04-12T07:13:58.988Z</time></trkpt><trkpt lat="37.82302278591412" lon="15.155219526855566"><ele>491.0</ele><time>2026-04-12T07:14:02.988Z</time></trkpt><trkpt lat="37.82302913362742" lon="15.154868252539996"><ele>493.0</ele><time>2026-04-12T07:14:03.988Z</time></trkpt><trkpt lat="37.82303493796569" lon="15.15451918248174"><ele>493.0</ele><time>2026-04-12T07:14:04.988Z</time></trkpt><trkpt lat="37.82306681491787" lon="15.154172972837209"><ele>493.0</ele><time>2026-04-12T07:14:05.988Z</time></trkpt><trkpt lat="37.82310369446269" lon="15.153824201975441"><ele>493.33333333333337</ele><time>2026-04-12T07:14:06.988Z</time></trkpt><trkpt lat="37.82313928500068" lon="15.153528006683347"><ele>493.66666666666663</ele><time>2026-04-12T07:14:07.988Z</time></trkpt><trkpt lat="37.82319963008334" lon="15.15327948760693"><ele>494.0</ele><time>2026-04-12T07:14:08.987Z</time></trkpt><trkpt lat="37.823221954885724" lon="15.153057031398811"><ele>494.0</ele><time>2026-04-12T07:14:09.987Z</time></trkpt><trkpt lat="37.82326068114" lon="15.15284159275022"><ele>494.0</ele><time>2026-04-12T07:14:10.987Z</time></trkpt><trkpt lat="37.823352920020746" lon="15.15266816161281"><ele>494.0</ele><time>2026-04-12T07:14:11.987Z</time></trkpt><trkpt lat="37.82343796126356" lon="15.152468213656391"><ele>493.75</ele><time>2026-04-12T07:14:12.987Z</time></trkpt><trkpt lat="37.82354399451816" lon="15.152306311790985"><ele>493.5</ele><time>2026-04-12T07:14:13.987Z</time></trkpt><trkpt lat="37.82360974158024" lon="15.152154272768108"><ele>493.25</ele><time>2026-04-12T07:14:14.987Z</time></trkpt><trkpt lat="37.82367375002492" lon="15.15200748759578"><ele>493.0</ele><time>2026-04-12T07:14:15.987Z</time></trkpt><trkpt lat="37.82374605931758" lon="15.151859311672514"><ele>493.0</ele><time>2026-04-12T07:14:16.987Z</time></trkpt><trkpt lat="37.82382500004394" lon="15.151689594063155"><ele>493.0</ele><time>2026-04-12T07:14:17.987Z</time></trkpt><trkpt lat="37.82390821042921" lon="15.151514404953174"><ele>493.0</ele><time>2026-04-12T07:14:18.987Z</time></trkpt><trkpt lat="37.82399498907104" lon="15.151346499690957"><ele>494.0</ele><time>2026-04-12T07:14:19.987Z</time></trkpt><trkpt lat="37.82407815709776" lon="15.151175045819116"><ele>495.0</ele><time>2026-04-12T07:14:20.987Z</time></trkpt><trkpt lat="37.824173751019146" lon="15.151024321213214"><ele>496.0</ele><time>2026-04-12T07:14:21.987Z</time></trkpt><trkpt lat="37.82424911102989" lon="15.1508704978188"><ele>495.75</ele><time>2026-04-12T07:14:22.987Z</time></trkpt><trkpt lat="37.82432538020745" lon="15.150708317177772"><ele>495.5</ele><time>2026-04-12T07:14:23.987Z</time></trkpt><trkpt lat="37.824397621219184" lon="15.150549411466928"><ele>495.25</ele><time>2026-04-12T07:14:24.987Z</time></trkpt><trkpt lat="37.82447172279272" lon="15.15039461574873"><ele>495.0</ele><time>2026-04-12T07:14:25.987Z</time></trkpt><trkpt lat="37.82454149149965" lon="15.150237923206463"><ele>495.5</ele><time>2026-04-12T07:14:26.987Z</time></trkpt><trkpt lat="37.82460840300915" lon="15.150091480571001"><ele>496.0</ele><time>2026-04-12T07:14:27.987Z</time></trkpt><trkpt lat="37.824686024521625" lon="15.149945687454517"><ele>496.5</ele><time>2026-04-12T07:14:28.987Z</time></trkpt><trkpt lat="37.824772386388666" lon="15.149781357161817"><ele>497.0</ele><time>2026-04-12T07:14:29.987Z</time></trkpt><trkpt lat="37.82485052072531" lon="15.149616491261282"><ele>497.3333333333333</ele><time>2026-04-12T07:14:30.987Z</time></trkpt><trkpt lat="37.824952728793264" lon="15.14945645561814"><ele>497.66666666666663</ele><time>2026-04-12T07:14:31.987Z</time></trkpt><trkpt lat="37.82507915816254" lon="15.149297332878236"><ele>498.0</ele><time>2026-04-12T07:14:32.987Z</time></trkpt><trkpt lat="37.82522835391867" lon="15.149139944712932"><ele>498.33333333333337</ele><time>2026-04-12T07:14:33.987Z</time></trkpt><trkpt lat="37.82538136373381" lon="15.148989428898211"><ele>498.6666666666667</ele><time>2026-04-12T07:14:34.987Z</time></trkpt><trkpt lat="37.82553280654461" lon="15.148849032004764"><ele>499.0</ele><time>2026-04-12T07:14:35.987Z</time></trkpt><trkpt lat="37.82567473359352" lon="15.14871590803836"><ele>499.0</ele><time>2026-04-12T07:14:36.987Z</time></trkpt><trkpt lat="37.82581186082692" lon="15.148583483233795"><ele>499.0</ele><time>2026-04-12T07:14:37.987Z</time></trkpt><trkpt lat="37.825936549379904" lon="15.14845375029522"><ele>499.0</ele><time>2026-04-12T07:14:38.987Z</time></trkpt><trkpt lat="37.82606119558981" lon="15.14833665174882"><ele>498.75</ele><time>2026-04-12T07:14:39.987Z</time></trkpt><trkpt lat="37.826174923681165" lon="15.148214703350831"><ele>498.5</ele><time>2026-04-12T07:14:40.987Z</time></trkpt><trkpt lat="37.826280917362844" lon="15.148101183093203"><ele>498.25</ele><time>2026-04-12T07:14:41.987Z</time></trkpt><trkpt lat="37.82639474778022" lon="15.147986953351912"><ele>498.0</ele><time>2026-04-12T07:14:42.987Z</time></trkpt><trkpt lat="37.82651011951466" lon="15.147871009655887"><ele>498.0</ele><time>2026-04-12T07:14:43.987Z</time></trkpt><trkpt lat="37.826620900700505" lon="15.147751830465994"><ele>498.0</ele><time>2026-04-12T07:14:44.987Z</time></trkpt><trkpt lat="37.82673287941022" lon="15.147633746016089"><ele>498.0</ele><time>2026-04-12T07:14:45.986Z</time></trkpt><trkpt lat="37.82683689379263" lon="15.147519933682558"><ele>498.0</ele><time>2026-04-12T07:14:46.986Z</time></trkpt><trkpt lat="37.826931584545505" lon="15.147398594020217"><ele>498.5</ele><time>2026-04-12T07:14:47.986Z</time></trkpt><trkpt lat="37.8270266859883" lon="15.147267022679861"><ele>499.0</ele><time>2026-04-12T07:14:48.986Z</time></trkpt><trkpt lat="37.8271240434354" lon="15.147134058989922"><ele>499.5</ele><time>2026-04-12T07:14:49.986Z</time></trkpt><trkpt lat="37.8272359528427" lon="15.147000230653173"><ele>500.0</ele><time>2026-04-12T07:14:50.986Z</time></trkpt><trkpt lat="37.827362445250785" lon="15.146875512894555"><ele>500.0</ele><time>2026-04-12T07:14:51.986Z</time></trkpt><trkpt lat="37.82750541104002" lon="15.146759452581273"><ele>500.0</ele><time>2026-04-12T07:14:52.986Z</time></trkpt><trkpt lat="37.82766374161251" lon="15.146664947728073"><ele>500.0</ele><time>2026-04-12T07:14:53.986Z</time></trkpt><trkpt lat="37.82783074611146" lon="15.146596611966915"><ele>501.66666666666663</ele><time>2026-04-12T07:14:54.986Z</time></trkpt><trkpt lat="37.82797786572199" lon="15.146474081058615"><ele>503.33333333333337</ele><time>2026-04-12T07:14:55.986Z</time></trkpt><trkpt lat="37.82812354912888" lon="15.146358207683294"><ele>505.0</ele><time>2026-04-12T07:14:56.986Z</time></trkpt><trkpt lat="37.82827681126632" lon="15.146243873362632"><ele>505.0</ele><time>2026-04-12T07:14:57.986Z</time></trkpt><trkpt lat="37.82841489379006" lon="15.146122819987994"><ele>505.0</ele><time>2026-04-12T07:14:58.986Z</time></trkpt><trkpt lat="37.82855542224246" lon="15.146008647870252"><ele>505.0</ele><time>2026-04-12T07:14:59.986Z</time></trkpt><trkpt lat="37.8286982332062" lon="15.145905834510293"><ele>504.75</ele><time>2026-04-12T07:15:00.986Z</time></trkpt><trkpt lat="37.82883023872715" lon="15.14582401757547"><ele>504.5</ele><time>2026-04-12T07:15:01.986Z</time></trkpt><trkpt lat="37.82894990241489" lon="15.145783004745649"><ele>504.25</ele><time>2026-04-12T07:15:02.986Z</time></trkpt><trkpt lat="37.82903414677451" lon="15.145738203697475"><ele>504.0</ele><time>2026-04-12T07:15:03.986Z</time></trkpt><trkpt lat="37.82912199669528" lon="15.145680673161502"><ele>505.75</ele><time>2026-04-12T07:15:04.986Z</time></trkpt><trkpt lat="37.82923946200321" lon="15.145626871641598"><ele>507.5</ele><time>2026-04-12T07:15:05.986Z</time></trkpt><trkpt lat="37.829379085571276" lon="15.145556799906402"><ele>509.25</ele><time>2026-04-12T07:15:06.986Z</time></trkpt><trkpt lat="37.82953459876222" lon="15.145478494898727"><ele>511.0</ele><time>2026-04-12T07:15:07.986Z</time></trkpt><trkpt lat="37.82970998038308" lon="15.145373797608748"><ele>511.0</ele><time>2026-04-12T07:15:08.986Z</time></trkpt><trkpt lat="37.82988549461784" lon="15.145259621178788"><ele>511.0</ele><time>2026-04-12T07:15:09.986Z</time></trkpt><trkpt lat="37.830084328003224" lon="15.145143698504109"><ele>511.0</ele><time>2026-04-12T07:15:10.986Z</time></trkpt><trkpt lat="37.830318393402074" lon="15.145057693763809"><ele>513.5</ele><time>2026-04-12T07:15:11.986Z</time></trkpt><trkpt lat="37.830566140823166" lon="15.144997263745136"><ele>516.0</ele><time>2026-04-12T07:15:12.986Z</time></trkpt><trkpt lat="37.830811004951926" lon="15.144940326067742"><ele>515.3333333333334</ele><time>2026-04-12T07:15:13.986Z</time></trkpt><trkpt lat="37.83102107686063" lon="15.144887553168424"><ele>514.6666666666667</ele><time>2026-04-12T07:15:14.986Z</time></trkpt><trkpt lat="37.83121267795297" lon="15.144838235715877"><ele>514.0</ele><time>2026-04-12T07:15:15.986Z</time></trkpt><trkpt lat="37.83139256411854" lon="15.144779164441948"><ele>514.0</ele><time>2026-04-12T07:15:16.986Z</time></trkpt><trkpt lat="37.83157559969461" lon="15.144717077513482"><ele>514.0</ele><time>2026-04-12T07:15:17.986Z</time></trkpt><trkpt lat="37.8317612237405" lon="15.144673607299822"><ele>514.0</ele><time>2026-04-12T07:15:18.986Z</time></trkpt><trkpt lat="37.831940530639145" lon="15.144607572395309"><ele>514.0</ele><time>2026-04-12T07:15:19.986Z</time></trkpt><trkpt lat="37.83210848619679" lon="15.14454745773733"><ele>514.0</ele><time>2026-04-12T07:15:20.986Z</time></trkpt><trkpt lat="37.83227020660769" lon="15.144492615393405"><ele>514.0</ele><time>2026-04-12T07:15:21.986Z</time></trkpt><trkpt lat="37.832422973667" lon="15.144445267241469"><ele>514.0</ele><time>2026-04-12T07:15:22.985Z</time></trkpt><trkpt lat="37.83257316913313" lon="15.144406464803398"><ele>514.0</ele><time>2026-04-12T07:15:23.985Z</time></trkpt><trkpt lat="37.83271769752338" lon="15.144390612922132"><ele>514.0</ele><time>2026-04-12T07:15:24.985Z</time></trkpt><trkpt lat="37.83285458666314" lon="15.144426460835854"><ele>514.0</ele><time>2026-04-12T07:15:25.985Z</time></trkpt><trkpt lat="37.832990910361815" lon="15.144470927506704"><ele>513.75</ele><time>2026-04-12T07:15:26.985Z</time></trkpt><trkpt lat="37.833142808803075" lon="15.144493912924078"><ele>513.5</ele><time>2026-04-12T07:15:27.985Z</time></trkpt><trkpt lat="37.83328154340555" lon="15.144453499731746"><ele>513.25</ele><time>2026-04-12T07:15:28.985Z</time></trkpt><trkpt lat="37.83341179086933" lon="15.144392225406945"><ele>513.0</ele><time>2026-04-12T07:15:29.985Z</time></trkpt><trkpt lat="37.833562293647454" lon="15.144348917553902"><ele>514.6666666666666</ele><time>2026-04-12T07:15:30.985Z</time></trkpt><trkpt lat="37.8337209800502" lon="15.144297536688264"><ele>516.3333333333333</ele><time>2026-04-12T07:15:31.985Z</time></trkpt><trkpt lat="37.83387891464148" lon="15.144254378344653"><ele>518.0</ele><time>2026-04-12T07:15:32.985Z</time></trkpt><trkpt lat="37.83404210072481" lon="15.144209393930257"><ele>518.0</ele><time>2026-04-12T07:15:33.985Z</time></trkpt><trkpt lat="37.83420198231516" lon="15.14415661552581"><ele>518.0</ele><time>2026-04-12T07:15:34.985Z</time></trkpt><trkpt lat="37.83435797977266" lon="15.144097772078707"><ele>518.0</ele><time>2026-04-12T07:15:35.985Z</time></trkpt><trkpt lat="37.83450048843019" lon="15.144014141682984"><ele>519.0</ele><time>2026-04-12T07:15:36.985Z</time></trkpt><trkpt lat="37.83464755466943" lon="15.14394911839217"><ele>520.0</ele><time>2026-04-12T07:15:37.985Z</time></trkpt><trkpt lat="37.834781660473915" lon="15.143838082399853"><ele>521.0</ele><time>2026-04-12T07:15:38.985Z</time></trkpt><trkpt lat="37.83493107116821" lon="15.143773250387035"><ele>521.0</ele><time>2026-04-12T07:15:39.985Z</time></trkpt><trkpt lat="37.835065555980535" lon="15.143729421526782"><ele>521.0</ele><time>2026-04-12T07:15:40.985Z</time></trkpt><trkpt lat="37.83521273316816" lon="15.1437016711013"><ele>521.0</ele><time>2026-04-12T07:15:41.985Z</time></trkpt><trkpt lat="37.83534722614297" lon="15.1436418202438"><ele>521.0</ele><time>2026-04-12T07:15:42.985Z</time></trkpt><trkpt lat="37.835474658847005" lon="15.143661549697429"><ele>522.0</ele><time>2026-04-12T07:15:43.985Z</time></trkpt><trkpt lat="37.8355975227338" lon="15.143700914310193"><ele>523.0</ele><time>2026-04-12T07:15:44.985Z</time></trkpt><trkpt lat="37.83572681366423" lon="15.143745623405236"><ele>524.0</ele><time>2026-04-12T07:15:45.985Z</time></trkpt><trkpt lat="37.83585579326248" lon="15.143799959069066"><ele>525.0</ele><time>2026-04-12T07:15:46.985Z</time></trkpt><trkpt lat="37.83596517882269" lon="15.143828939550598"><ele>525.75</ele><time>2026-04-12T07:15:47.985Z</time></trkpt><trkpt lat="37.83607174167754" lon="15.143867435689627"><ele>526.5</ele><time>2026-04-12T07:15:48.985Z</time></trkpt><trkpt lat="37.83618068846446" lon="15.143925095665505"><ele>527.25</ele><time>2026-04-12T07:15:49.985Z</time></trkpt><trkpt lat="37.836291046517346" lon="15.144011142543425"><ele>528.0</ele><time>2026-04-12T07:15:50.985Z</time></trkpt><trkpt lat="37.836408714622536" lon="15.144092412650101"><ele>528.0</ele><time>2026-04-12T07:15:51.985Z</time></trkpt><trkpt lat="37.836507801133834" lon="15.144191433631265"><ele>528.0</ele><time>2026-04-12T07:15:52.985Z</time></trkpt><trkpt lat="37.83661363708929" lon="15.144272826145745"><ele>528.0</ele><time>2026-04-12T07:15:53.985Z</time></trkpt><trkpt lat="37.83671725887822" lon="15.144359173998051"><ele>528.0</ele><time>2026-04-12T07:15:54.985Z</time></trkpt><trkpt lat="37.836810444210975" lon="15.144448767643622"><ele>529.25</ele><time>2026-04-12T07:15:55.985Z</time></trkpt><trkpt lat="37.83691199179534" lon="15.144533402223832"><ele>530.5</ele><time>2026-04-12T07:15:56.985Z</time></trkpt><trkpt lat="37.83701799349361" lon="15.144602561763772"><ele>531.75</ele><time>2026-04-12T07:15:57.985Z</time></trkpt><trkpt lat="37.83712609259498" lon="15.14468146900033"><ele>533.0</ele><time>2026-04-12T07:15:58.984Z</time></trkpt><trkpt lat="37.83724378703922" lon="15.144740675469462"><ele>533.0</ele><time>2026-04-12T07:15:59.984Z</time></trkpt><trkpt lat="37.837377015048126" lon="15.144763777606636"><ele>533.0</ele><time>2026-04-12T07:16:00.984Z</time></trkpt><trkpt lat="37.83750205599788" lon="15.144772378469243"><ele>533.0</ele><time>2026-04-12T07:16:01.984Z</time></trkpt><trkpt lat="37.83763021620843" lon="15.144776378161097"><ele>533.0</ele><time>2026-04-12T07:16:02.984Z</time></trkpt><trkpt lat="37.83775542084008" lon="15.144772857398275"><ele>533.4</ele><time>2026-04-12T07:16:03.984Z</time></trkpt><trkpt lat="37.83787773461997" lon="15.144823218547005"><ele>533.8</ele><time>2026-04-12T07:16:04.984Z</time></trkpt><trkpt lat="37.83799969843751" lon="15.144829626418293"><ele>534.2</ele><time>2026-04-12T07:16:05.984Z</time></trkpt><trkpt lat="37.83810057533497" lon="15.144827998509191"><ele>534.6</ele><time>2026-04-12T07:16:06.984Z</time></trkpt><trkpt lat="37.83818766366464" lon="15.14481578453951"><ele>535.0</ele><time>2026-04-12T07:16:07.984Z</time></trkpt><trkpt lat="37.83827228129322" lon="15.144808517856069"><ele>535.0</ele><time>2026-04-12T07:16:08.984Z</time></trkpt><trkpt lat="37.83841363896916" lon="15.144808436717987"><ele>535.0</ele><time>2026-04-12T07:16:10.984Z</time></trkpt><trkpt lat="37.83849788006834" lon="15.144793338730926"><ele>535.0</ele><time>2026-04-12T07:16:11.984Z</time></trkpt><trkpt lat="37.83860385341461" lon="15.144815619976226"><ele>535.0</ele><time>2026-04-12T07:16:12.984Z</time></trkpt><trkpt lat="37.8387118011333" lon="15.144789695502523"><ele>535.0</ele><time>2026-04-12T07:16:13.984Z</time></trkpt><trkpt lat="37.83883354318974" lon="15.144772365266773"><ele>535.0</ele><time>2026-04-12T07:16:14.984Z</time></trkpt><trkpt lat="37.83894516581062" lon="15.14475874995544"><ele>535.0</ele><time>2026-04-12T07:16:15.984Z</time></trkpt><trkpt lat="37.839064435973675" lon="15.144733020495417"><ele>535.0</ele><time>2026-04-12T07:16:16.984Z</time></trkpt><trkpt lat="37.83918745939691" lon="15.14470686778437"><ele>535.0</ele><time>2026-04-12T07:16:17.984Z</time></trkpt><trkpt lat="37.83931364797482" lon="15.14468264088396"><ele>535.5</ele><time>2026-04-12T07:16:18.984Z</time></trkpt><trkpt lat="37.8394355331268" lon="15.144660450325349"><ele>536.0</ele><time>2026-04-12T07:16:19.984Z</time></trkpt><trkpt lat="37.83956481044879" lon="15.144661552984648"><ele>536.5</ele><time>2026-04-12T07:16:20.984Z</time></trkpt><trkpt lat="37.83968335978399" lon="15.144644636123449"><ele>537.0</ele><time>2026-04-12T07:16:21.984Z</time></trkpt><trkpt lat="37.83980995104195" lon="15.144626509902302"><ele>537.0</ele><time>2026-04-12T07:16:22.984Z</time></trkpt><trkpt lat="37.839924903452186" lon="15.144610051512846"><ele>537.0</ele><time>2026-04-12T07:16:23.984Z</time></trkpt><trkpt lat="37.84004216082069" lon="15.144592830336048"><ele>537.0</ele><time>2026-04-12T07:16:24.984Z</time></trkpt><trkpt lat="37.840155259280024" lon="15.14457615514093"><ele>537.0</ele><time>2026-04-12T07:16:25.984Z</time></trkpt><trkpt lat="37.84026518769095" lon="15.144557677112617"><ele>537.2</ele><time>2026-04-12T07:16:26.984Z</time></trkpt><trkpt lat="37.840359920865254" lon="15.144541748068205"><ele>537.4000000000001</ele><time>2026-04-12T07:16:27.984Z</time></trkpt><trkpt lat="37.84045344426177" lon="15.144510682537168"><ele>537.5999999999999</ele><time>2026-04-12T07:16:28.984Z</time></trkpt><trkpt lat="37.840541208005604" lon="15.1444615263377"><ele>537.8</ele><time>2026-04-12T07:16:29.984Z</time></trkpt><trkpt lat="37.84062722053191" lon="15.14439503947507"><ele>538.0</ele><time>2026-04-12T07:16:30.984Z</time></trkpt><trkpt lat="37.84071220777441" lon="15.144301043483901"><ele>538.0</ele><time>2026-04-12T07:16:31.984Z</time></trkpt><trkpt lat="37.84078165464604" lon="15.144203262929302"><ele>538.0</ele><time>2026-04-12T07:16:32.984Z</time></trkpt><trkpt lat="37.840863376492266" lon="15.144108452800513"><ele>538.0</ele><time>2026-04-12T07:16:33.984Z</time></trkpt><trkpt lat="37.84092893037229" lon="15.14400770557339"><ele>538.0</ele><time>2026-04-12T07:16:34.984Z</time></trkpt><trkpt lat="37.841000897134016" lon="15.1439159029591"><ele>538.0</ele><time>2026-04-12T07:16:35.983Z</time></trkpt><trkpt lat="37.84106868452559" lon="15.14379705751108"><ele>538.5</ele><time>2026-04-12T07:16:36.983Z</time></trkpt><trkpt lat="37.84115934510295" lon="15.143662674128734"><ele>539.0</ele><time>2026-04-12T07:16:37.983Z</time></trkpt><trkpt lat="37.84126040516389" lon="15.143524597586993"><ele>539.5</ele><time>2026-04-12T07:16:38.983Z</time></trkpt><trkpt lat="37.84136354749813" lon="15.143389194234166"><ele>540.0</ele><time>2026-04-12T07:16:39.983Z</time></trkpt><trkpt lat="37.84145970094672" lon="15.14324845090765"><ele>540.75</ele><time>2026-04-12T07:16:40.983Z</time></trkpt><trkpt lat="37.84155427423825" lon="15.143113106217921"><ele>541.5</ele><time>2026-04-12T07:16:41.983Z</time></trkpt><trkpt lat="37.841647071898684" lon="15.142990714060138"><ele>542.25</ele><time>2026-04-12T07:16:42.983Z</time></trkpt><trkpt lat="37.84174075312773" lon="15.142902471311665"><ele>543.0</ele><time>2026-04-12T07:16:43.983Z</time></trkpt><trkpt lat="37.84181624598079" lon="15.142816856223137"><ele>543.0</ele><time>2026-04-12T07:16:44.983Z</time></trkpt><trkpt lat="37.841876874171525" lon="15.142740158240995"><ele>543.0</ele><time>2026-04-12T07:16:45.983Z</time></trkpt><trkpt lat="37.84194263404592" lon="15.142681750809759"><ele>543.0</ele><time>2026-04-12T07:16:46.983Z</time></trkpt><trkpt lat="37.84199687948593" lon="15.142625936347713"><ele>543.0</ele><time>2026-04-12T07:16:47.983Z</time></trkpt><trkpt lat="37.84204870189321" lon="15.142547865798017"><ele>543.0</ele><time>2026-04-12T07:16:49.983Z</time></trkpt><trkpt lat="37.84208419548552" lon="15.142477454644006"><ele>543.0</ele><time>2026-04-12T07:16:52.983Z</time></trkpt><trkpt lat="37.84216926763305" lon="15.142451347619899"><ele>543.25</ele><time>2026-04-12T07:16:55.983Z</time></trkpt><trkpt lat="37.842197311806366" lon="15.1423012052055"><ele>543.5</ele><time>2026-04-12T07:16:59.983Z</time></trkpt><trkpt lat="37.842245429753476" lon="15.142233678992326"><ele>543.75</ele><time>2026-04-12T07:17:01.983Z</time></trkpt><trkpt lat="37.84233424350486" lon="15.1422910116538"><ele>544.0</ele><time>2026-04-12T07:17:03.983Z</time></trkpt><trkpt lat="37.842477211267905" lon="15.142150920755126"><ele>544.0</ele><time>2026-04-12T07:17:07.983Z</time></trkpt><trkpt lat="37.84252798828714" lon="15.142100786389737"><ele>544.0</ele><time>2026-04-12T07:17:09.983Z</time></trkpt><trkpt lat="37.84258027766297" lon="15.142047928105956"><ele>544.0</ele><time>2026-04-12T07:17:38.982Z</time></trkpt><trkpt lat="37.84263546387044" lon="15.141994281276546"><ele>544.0</ele><time>2026-04-12T07:17:40.982Z</time></trkpt><trkpt lat="37.84265827528542" lon="15.141751497042097"><ele>544.0</ele><time>2026-04-12T07:17:43.982Z</time></trkpt><trkpt lat="37.842609892127406" lon="15.141573114010667"><ele>545.6666666666667</ele><time>2026-04-12T07:17:45.982Z</time></trkpt><trkpt lat="37.842564291136995" lon="15.14140904422305"><ele>547.3333333333334</ele><time>2026-04-12T07:17:46.982Z</time></trkpt><trkpt lat="37.84250534400446" lon="15.141195240690559"><ele>549.0</ele><time>2026-04-12T07:17:47.982Z</time></trkpt><trkpt lat="37.842449829109775" lon="15.140991529606271"><ele>549.0</ele><time>2026-04-12T07:17:48.982Z</time></trkpt><trkpt lat="37.84239690723521" lon="15.140830171216404"><ele>549.0</ele><time>2026-04-12T07:17:49.981Z</time></trkpt><trkpt lat="37.842397129706065" lon="15.14068907794063"><ele>549.0</ele><time>2026-04-12T07:17:50.981Z</time></trkpt><trkpt lat="37.84236927211484" lon="15.140553898714417"><ele>549.0</ele><time>2026-04-12T07:17:51.981Z</time></trkpt><trkpt lat="37.84233719654243" lon="15.140425910850132"><ele>549.75</ele><time>2026-04-12T07:17:52.981Z</time></trkpt><trkpt lat="37.84228837391304" lon="15.140297089253744"><ele>550.5</ele><time>2026-04-12T07:17:53.981Z</time></trkpt><trkpt lat="37.84223408247296" lon="15.140158863641668"><ele>551.25</ele><time>2026-04-12T07:17:54.981Z</time></trkpt><trkpt lat="37.842198674905795" lon="15.140003839853735"><ele>552.0</ele><time>2026-04-12T07:17:55.981Z</time></trkpt><trkpt lat="37.84215928590204" lon="15.139882131989776"><ele>552.25</ele><time>2026-04-12T07:17:56.981Z</time></trkpt><trkpt lat="37.84211999121194" lon="15.139763821659294"><ele>552.5</ele><time>2026-04-12T07:17:57.981Z</time></trkpt><trkpt lat="37.84206652994442" lon="15.139629040080026"><ele>552.75</ele><time>2026-04-12T07:17:58.981Z</time></trkpt><trkpt lat="37.84203378461023" lon="15.13946383913362"><ele>553.0</ele><time>2026-04-12T07:17:59.981Z</time></trkpt><trkpt lat="37.84198470922327" lon="15.139288772850502"><ele>553.0</ele><time>2026-04-12T07:18:00.981Z</time></trkpt><trkpt lat="37.8419297791884" lon="15.139091985536776"><ele>553.0</ele><time>2026-04-12T07:18:01.981Z</time></trkpt><trkpt lat="37.84187349646615" lon="15.138888547527989"><ele>553.0</ele><time>2026-04-12T07:18:02.981Z</time></trkpt><trkpt lat="37.841818084612825" lon="15.138688257321164"><ele>554.6666666666667</ele><time>2026-04-12T07:18:03.981Z</time></trkpt><trkpt lat="37.84176367053446" lon="15.138491573659403"><ele>556.3333333333334</ele><time>2026-04-12T07:18:04.981Z</time></trkpt><trkpt lat="37.841713138484664" lon="15.138308923473561"><ele>558.0</ele><time>2026-04-12T07:18:05.981Z</time></trkpt><trkpt lat="37.8416571834992" lon="15.138107441731863"><ele>558.25</ele><time>2026-04-12T07:18:06.981Z</time></trkpt><trkpt lat="37.841606036543425" lon="15.137923124558553"><ele>558.5</ele><time>2026-04-12T07:18:07.981Z</time></trkpt><trkpt lat="37.8415470090363" lon="15.137767115209277"><ele>558.75</ele><time>2026-04-12T07:18:08.981Z</time></trkpt><trkpt lat="37.841505421695274" lon="15.137607502177628"><ele>559.0</ele><time>2026-04-12T07:18:09.981Z</time></trkpt><trkpt lat="37.84147110728156" lon="15.137455964518612"><ele>558.75</ele><time>2026-04-12T07:18:10.981Z</time></trkpt><trkpt lat="37.84141485823738" lon="15.137318780406938"><ele>558.5</ele><time>2026-04-12T07:18:11.981Z</time></trkpt><trkpt lat="37.841377322288366" lon="15.137170442307822"><ele>558.25</ele><time>2026-04-12T07:18:12.981Z</time></trkpt><trkpt lat="37.84133750467889" lon="15.136987418155456"><ele>558.0</ele><time>2026-04-12T07:18:13.981Z</time></trkpt><trkpt lat="37.84128260226882" lon="15.136792380452745"><ele>558.0</ele><time>2026-04-12T07:18:14.981Z</time></trkpt><trkpt lat="37.84122271981949" lon="15.136577882314409"><ele>558.0</ele><time>2026-04-12T07:18:15.981Z</time></trkpt><trkpt lat="37.84116302627489" lon="15.136364060749369"><ele>558.0</ele><time>2026-04-12T07:18:16.981Z</time></trkpt><trkpt lat="37.84109926129949" lon="15.136134980420259"><ele>558.0</ele><time>2026-04-12T07:18:17.981Z</time></trkpt><trkpt lat="37.8410368338879" lon="15.135909032192112"><ele>558.0</ele><time>2026-04-12T07:18:18.981Z</time></trkpt><trkpt lat="37.840977398145974" lon="15.135693775962979"><ele>558.0</ele><time>2026-04-12T07:18:19.981Z</time></trkpt><trkpt lat="37.84091957345901" lon="15.13548435431669"><ele>561.0</ele><time>2026-04-12T07:18:20.981Z</time></trkpt><trkpt lat="37.84086606383212" lon="15.135290560550699"><ele>564.0</ele><time>2026-04-12T07:18:21.981Z</time></trkpt><trkpt lat="37.84081236266577" lon="15.135096072902712"><ele>567.0</ele><time>2026-04-12T07:18:22.981Z</time></trkpt><trkpt lat="37.840755288200576" lon="15.134889368577221"><ele>568.6666666666666</ele><time>2026-04-12T07:18:23.981Z</time></trkpt><trkpt lat="37.84069518698616" lon="15.134671702169266"><ele>570.3333333333333</ele><time>2026-04-12T07:18:24.981Z</time></trkpt><trkpt lat="37.84062936261636" lon="15.13443299609551"><ele>572.0</ele><time>2026-04-12T07:18:25.981Z</time></trkpt><trkpt lat="37.840566421955494" lon="15.13420315214706"><ele>572.6666666666666</ele><time>2026-04-12T07:18:26.98Z</time></trkpt><trkpt lat="37.84050415522212" lon="15.133975769236764"><ele>573.3333333333334</ele><time>2026-04-12T07:18:27.98Z</time></trkpt><trkpt lat="37.84044080595071" lon="15.133744433252852"><ele>574.0</ele><time>2026-04-12T07:18:28.98Z</time></trkpt><trkpt lat="37.84037400630125" lon="15.133500497370132"><ele>574.0</ele><time>2026-04-12T07:18:29.98Z</time></trkpt><trkpt lat="37.840307823489354" lon="15.133258813883613"><ele>574.0</ele><time>2026-04-12T07:18:30.98Z</time></trkpt><trkpt lat="37.84023147930491" lon="15.133025034389139"><ele>574.0</ele><time>2026-04-12T07:18:31.98Z</time></trkpt><trkpt lat="37.840177971166746" lon="15.132795314256766"><ele>575.0</ele><time>2026-04-12T07:18:32.98Z</time></trkpt><trkpt lat="37.84011260108558" lon="15.132574228101497"><ele>576.0</ele><time>2026-04-12T07:18:33.98Z</time></trkpt><trkpt lat="37.840052765624044" lon="15.132375172672484"><ele>577.0</ele><time>2026-04-12T07:18:34.98Z</time></trkpt><trkpt lat="37.83999561843331" lon="15.132171883908216"><ele>577.6666666666667</ele><time>2026-04-12T07:18:35.98Z</time></trkpt><trkpt lat="37.839956115332654" lon="15.131971706235717"><ele>578.3333333333334</ele><time>2026-04-12T07:18:36.98Z</time></trkpt><trkpt lat="37.83990139807708" lon="15.131771301457125"><ele>579.0</ele><time>2026-04-12T07:18:37.98Z</time></trkpt><trkpt lat="37.83984307155934" lon="15.131572222861879"><ele>579.6666666666666</ele><time>2026-04-12T07:18:38.98Z</time></trkpt><trkpt lat="37.83978788791547" lon="15.131374698545468"><ele>580.3333333333333</ele><time>2026-04-12T07:18:39.98Z</time></trkpt><trkpt lat="37.83972864372334" lon="15.131172198775957"><ele>581.0</ele><time>2026-04-12T07:18:40.98Z</time></trkpt><trkpt lat="37.839668004737426" lon="15.130962656141122"><ele>581.0</ele><time>2026-04-12T07:18:41.98Z</time></trkpt><trkpt lat="37.839608067212" lon="15.13074787745214"><ele>581.0</ele><time>2026-04-12T07:18:42.98Z</time></trkpt><trkpt lat="37.83954697727476" lon="15.130524675597488"><ele>581.0</ele><time>2026-04-12T07:18:43.98Z</time></trkpt><trkpt lat="37.83948741351619" lon="15.130289177757714"><ele>582.3333333333333</ele><time>2026-04-12T07:18:44.98Z</time></trkpt><trkpt lat="37.83942630921111" lon="15.130053835786612"><ele>583.6666666666666</ele><time>2026-04-12T07:18:45.98Z</time></trkpt><trkpt lat="37.83936350504739" lon="15.129813185941517"><ele>585.0</ele><time>2026-04-12T07:18:46.98Z</time></trkpt><trkpt lat="37.83930692156315" lon="15.129568232165187"><ele>585.3333333333334</ele><time>2026-04-12T07:18:47.98Z</time></trkpt><trkpt lat="37.83924264580113" lon="15.129322648781748"><ele>585.6666666666667</ele><time>2026-04-12T07:18:48.98Z</time></trkpt><trkpt lat="37.83917252511545" lon="15.129069208825353"><ele>586.0</ele><time>2026-04-12T07:18:49.98Z</time></trkpt><trkpt lat="37.8391060922084" lon="15.128818620800276"><ele>586.6666666666667</ele><time>2026-04-12T07:18:50.98Z</time></trkpt><trkpt lat="37.83903805328975" lon="15.12857805583099"><ele>587.3333333333334</ele><time>2026-04-12T07:18:51.98Z</time></trkpt><trkpt lat="37.83896779912548" lon="15.128337796542684"><ele>588.0</ele><time>2026-04-12T07:18:52.98Z</time></trkpt><trkpt lat="37.83889998378764" lon="15.128099577445006"><ele>588.6666666666666</ele><time>2026-04-12T07:18:53.98Z</time></trkpt><trkpt lat="37.8388346542602" lon="15.12785988418783"><ele>589.3333333333333</ele><time>2026-04-12T07:18:54.98Z</time></trkpt><trkpt lat="37.838763639669544" lon="15.127623168490345"><ele>590.0</ele><time>2026-04-12T07:18:55.98Z</time></trkpt><trkpt lat="37.83869091117037" lon="15.127381888001763"><ele>591.0</ele><time>2026-04-12T07:18:56.98Z</time></trkpt><trkpt lat="37.83862376186767" lon="15.127144035639157"><ele>592.0</ele><time>2026-04-12T07:18:57.98Z</time></trkpt><trkpt lat="37.83857149855382" lon="15.12689609836106"><ele>593.0</ele><time>2026-04-12T07:18:58.98Z</time></trkpt><trkpt lat="37.838504622172785" lon="15.126650687203774"><ele>592.3333333333333</ele><time>2026-04-12T07:18:59.98Z</time></trkpt><trkpt lat="37.838425712889" lon="15.126403574732828"><ele>591.6666666666666</ele><time>2026-04-12T07:19:00.98Z</time></trkpt><trkpt lat="37.83835407550436" lon="15.12613681168444"><ele>591.0</ele><time>2026-04-12T07:19:01.98Z</time></trkpt><trkpt lat="37.83827544901414" lon="15.125858089747396"><ele>592.5</ele><time>2026-04-12T07:19:02.98Z</time></trkpt><trkpt lat="37.83819464918286" lon="15.125580236580412"><ele>594.0</ele><time>2026-04-12T07:19:03.979Z</time></trkpt><trkpt lat="37.83811905253402" lon="15.125308823581618"><ele>594.0</ele><time>2026-04-12T07:19:04.979Z</time></trkpt><trkpt lat="37.83806326103358" lon="15.12504075561722"><ele>594.0</ele><time>2026-04-12T07:19:05.979Z</time></trkpt><trkpt lat="37.83799337737283" lon="15.124784282263636"><ele>594.0</ele><time>2026-04-12T07:19:06.979Z</time></trkpt><trkpt lat="37.837921869518446" lon="15.124529232191193"><ele>596.5</ele><time>2026-04-12T07:19:07.979Z</time></trkpt><trkpt lat="37.83784421723614" lon="15.124261203813052"><ele>599.0</ele><time>2026-04-12T07:19:08.979Z</time></trkpt><trkpt lat="37.83776799367921" lon="15.123985368562824"><ele>603.5</ele><time>2026-04-12T07:19:09.979Z</time></trkpt><trkpt lat="37.83769326582951" lon="15.123707513538395"><ele>608.0</ele><time>2026-04-12T07:19:10.979Z</time></trkpt><trkpt lat="37.837621253040126" lon="15.123435495619983"><ele>609.0</ele><time>2026-04-12T07:19:11.979Z</time></trkpt><trkpt lat="37.8375380796664" lon="15.123182442019019"><ele>610.0</ele><time>2026-04-12T07:19:12.979Z</time></trkpt><trkpt lat="37.83742053403479" lon="15.122948650044403"><ele>611.0</ele><time>2026-04-12T07:19:13.979Z</time></trkpt><trkpt lat="37.8372535746009" lon="15.122732081904639"><ele>611.0</ele><time>2026-04-12T07:19:14.979Z</time></trkpt><trkpt lat="37.8370757515559" lon="15.122497083899185"><ele>611.0</ele><time>2026-04-12T07:19:15.979Z</time></trkpt><trkpt lat="37.83694348299764" lon="15.122253826170796"><ele>612.0</ele><time>2026-04-12T07:19:16.979Z</time></trkpt><trkpt lat="37.83682952934445" lon="15.122044532157554"><ele>613.0</ele><time>2026-04-12T07:19:17.979Z</time></trkpt><trkpt lat="37.83676590077488" lon="15.121801637899127"><ele>614.0</ele><time>2026-04-12T07:19:18.979Z</time></trkpt><trkpt lat="37.836725344379964" lon="15.121522448793526"><ele>617.3333333333333</ele><time>2026-04-12T07:19:19.979Z</time></trkpt><trkpt lat="37.8366457511055" lon="15.121264555540504"><ele>620.6666666666666</ele><time>2026-04-12T07:19:21.979Z</time></trkpt><trkpt lat="37.836607991134734" lon="15.121006346107448"><ele>624.0</ele><time>2026-04-12T07:19:22.979Z</time></trkpt><trkpt lat="37.83656725439004" lon="15.120730592761456"><ele>626.0</ele><time>2026-04-12T07:19:23.979Z</time></trkpt><trkpt lat="37.836526769719825" lon="15.120456545560966"><ele>628.0</ele><time>2026-04-12T07:19:24.979Z</time></trkpt><trkpt lat="37.836513167832976" lon="15.12022230662557"><ele>630.0</ele><time>2026-04-12T07:19:25.979Z</time></trkpt><trkpt lat="37.83654277650476" lon="15.1200421284809"><ele>630.0</ele><time>2026-04-12T07:19:26.979Z</time></trkpt><trkpt lat="37.83661447512748" lon="15.119905367426464"><ele>630.0</ele><time>2026-04-12T07:19:27.979Z</time></trkpt><trkpt lat="37.83670265684314" lon="15.11981871096754"><ele>630.0</ele><time>2026-04-12T07:19:28.979Z</time></trkpt><trkpt lat="37.836828175413295" lon="15.11972946112657"><ele>630.0</ele><time>2026-04-12T07:19:29.979Z</time></trkpt><trkpt lat="37.8369879086444" lon="15.119682884354336"><ele>633.0</ele><time>2026-04-12T07:19:30.979Z</time></trkpt><trkpt lat="37.837185777765654" lon="15.119635906404525"><ele>636.0</ele><time>2026-04-12T07:19:31.979Z</time></trkpt><trkpt lat="37.83735933061902" lon="15.119605698137477"><ele>639.0</ele><time>2026-04-12T07:19:32.979Z</time></trkpt><trkpt lat="37.83752909762488" lon="15.119638601608825"><ele>641.0</ele><time>2026-04-12T07:19:33.979Z</time></trkpt><trkpt lat="37.83773052443851" lon="15.119695807030025"><ele>643.0</ele><time>2026-04-12T07:19:34.979Z</time></trkpt><trkpt lat="37.83793307149506" lon="15.119723682385741"><ele>645.0</ele><time>2026-04-12T07:19:35.979Z</time></trkpt><trkpt lat="37.83809564015162" lon="15.119747755017753"><ele>645.0</ele><time>2026-04-12T07:19:36.979Z</time></trkpt><trkpt lat="37.83822404012267" lon="15.119662975008316"><ele>645.0</ele><time>2026-04-12T07:19:37.979Z</time></trkpt><trkpt lat="37.83834219029147" lon="15.119540746269898"><ele>645.0</ele><time>2026-04-12T07:19:38.979Z</time></trkpt><trkpt lat="37.83849811476744" lon="15.119366905100105"><ele>644.6666666666666</ele><time>2026-04-12T07:19:39.979Z</time></trkpt><trkpt lat="37.83862056163327" lon="15.119204014369958"><ele>644.3333333333333</ele><time>2026-04-12T07:19:40.978Z</time></trkpt><trkpt lat="37.83868702347072" lon="15.119015812608307"><ele>644.0</ele><time>2026-04-12T07:19:41.978Z</time></trkpt><trkpt lat="37.83871634504455" lon="15.118788996266307"><ele>644.0</ele><time>2026-04-12T07:19:42.978Z</time></trkpt><trkpt lat="37.83869126890313" lon="15.118507631336593"><ele>644.0</ele><time>2026-04-12T07:19:43.978Z</time></trkpt><trkpt lat="37.838670830315195" lon="15.118228241694569"><ele>644.0</ele><time>2026-04-12T07:19:44.978Z</time></trkpt><trkpt lat="37.8386733699394" lon="15.117948004537768"><ele>648.0</ele><time>2026-04-12T07:19:45.978Z</time></trkpt><trkpt lat="37.83867504601899" lon="15.117659334756727"><ele>652.0</ele><time>2026-04-12T07:19:46.978Z</time></trkpt><trkpt lat="37.8386785786816" lon="15.117374298592692"><ele>653.3333333333334</ele><time>2026-04-12T07:19:47.978Z</time></trkpt><trkpt lat="37.8386813351956" lon="15.117108610130495"><ele>654.6666666666666</ele><time>2026-04-12T07:19:48.978Z</time></trkpt><trkpt lat="37.838662154818635" lon="15.116887979122689"><ele>656.0</ele><time>2026-04-12T07:19:49.978Z</time></trkpt><trkpt lat="37.83858388758804" lon="15.11668581677032"><ele>658.6666666666666</ele><time>2026-04-12T07:19:50.978Z</time></trkpt><trkpt lat="37.838450520482134" lon="15.116514773894476"><ele>661.3333333333334</ele><time>2026-04-12T07:19:51.978Z</time></trkpt><trkpt lat="37.838266670110734" lon="15.116376047374098"><ele>664.0</ele><time>2026-04-12T07:19:52.978Z</time></trkpt><trkpt lat="37.838085050960196" lon="15.116243342301411"><ele>664.0</ele><time>2026-04-12T07:19:53.978Z</time></trkpt><trkpt lat="37.83792638588895" lon="15.1160457779576"><ele>664.0</ele><time>2026-04-12T07:19:54.978Z</time></trkpt><trkpt lat="37.837782147870726" lon="15.115806199884878"><ele>669.0</ele><time>2026-04-12T07:19:55.978Z</time></trkpt><trkpt lat="37.83762926976663" lon="15.115549958301829"><ele>674.0</ele><time>2026-04-12T07:19:56.978Z</time></trkpt><trkpt lat="37.83745760759724" lon="15.115298207244052"><ele>674.0</ele><time>2026-04-12T07:19:57.978Z</time></trkpt><trkpt lat="37.83730644983776" lon="15.115020404445367"><ele>674.0</ele><time>2026-04-12T07:19:58.978Z</time></trkpt><trkpt lat="37.83715536800424" lon="15.114737360157338"><ele>675.0</ele><time>2026-04-12T07:19:59.978Z</time></trkpt><trkpt lat="37.837019659991384" lon="15.114422834496398"><ele>676.0</ele><time>2026-04-12T07:20:00.978Z</time></trkpt><trkpt lat="37.83687607106572" lon="15.11408780833952"><ele>680.0</ele><time>2026-04-12T07:20:01.978Z</time></trkpt><trkpt lat="37.836729046385635" lon="15.113749433606609"><ele>684.0</ele><time>2026-04-12T07:20:02.978Z</time></trkpt><trkpt lat="37.83658406458461" lon="15.113414924082957"><ele>686.0</ele><time>2026-04-12T07:20:03.978Z</time></trkpt><trkpt lat="37.83644305624184" lon="15.11312763815227"><ele>688.0</ele><time>2026-04-12T07:20:04.978Z</time></trkpt><trkpt lat="37.836332407286214" lon="15.112855823143091"><ele>688.0</ele><time>2026-04-12T07:20:05.978Z</time></trkpt><trkpt lat="37.83623219435657" lon="15.112611685321024"><ele>688.0</ele><time>2026-04-12T07:20:06.978Z</time></trkpt><trkpt lat="37.83613222768391" lon="15.112375965532603"><ele>688.0</ele><time>2026-04-12T07:20:07.978Z</time></trkpt><trkpt lat="37.83602362603914" lon="15.112139436853347"><ele>690.5</ele><time>2026-04-12T07:20:08.978Z</time></trkpt><trkpt lat="37.83589444444024" lon="15.111906725965683"><ele>693.0</ele><time>2026-04-12T07:20:09.978Z</time></trkpt><trkpt lat="37.83573991441175" lon="15.111674770560688"><ele>694.5</ele><time>2026-04-12T07:20:10.978Z</time></trkpt><trkpt lat="37.835572010548916" lon="15.111432628224655"><ele>696.0</ele><time>2026-04-12T07:20:11.978Z</time></trkpt><trkpt lat="37.83542392092671" lon="15.111215404205318"><ele>696.0</ele><time>2026-04-12T07:20:12.978Z</time></trkpt><trkpt lat="37.835310311302926" lon="15.111013014166021"><ele>696.0</ele><time>2026-04-12T07:20:13.978Z</time></trkpt><trkpt lat="37.83519541502362" lon="15.11084988669159"><ele>696.0</ele><time>2026-04-12T07:20:14.978Z</time></trkpt><trkpt lat="37.83503442898243" lon="15.110760693283794"><ele>699.3333333333334</ele><time>2026-04-12T07:20:15.978Z</time></trkpt><trkpt lat="37.834848546538524" lon="15.110658059011648"><ele>702.6666666666667</ele><time>2026-04-12T07:20:16.978Z</time></trkpt><trkpt lat="37.834635361633836" lon="15.110598347216664"><ele>706.0</ele><time>2026-04-12T07:20:17.977Z</time></trkpt><trkpt lat="37.83443884914624" lon="15.110477882170027"><ele>706.6666666666667</ele><time>2026-04-12T07:20:18.977Z</time></trkpt><trkpt lat="37.83424769099515" lon="15.110344638075514"><ele>707.3333333333334</ele><time>2026-04-12T07:20:19.977Z</time></trkpt><trkpt lat="37.83410317422726" lon="15.110193197225568"><ele>708.0</ele><time>2026-04-12T07:20:20.977Z</time></trkpt><trkpt lat="37.83399297514791" lon="15.110054366345961"><ele>708.0</ele><time>2026-04-12T07:20:21.977Z</time></trkpt><trkpt lat="37.83390722941599" lon="15.10991080235083"><ele>708.0</ele><time>2026-04-12T07:20:22.977Z</time></trkpt><trkpt lat="37.83383749098562" lon="15.10977315752535"><ele>708.0</ele><time>2026-04-12T07:20:23.977Z</time></trkpt><trkpt lat="37.833777328064556" lon="15.109625397481837"><ele>708.0</ele><time>2026-04-12T07:20:24.977Z</time></trkpt><trkpt lat="37.83371313161335" lon="15.109461029769367"><ele>709.0</ele><time>2026-04-12T07:20:25.977Z</time></trkpt><trkpt lat="37.83364606481162" lon="15.109305907405217"><ele>710.0</ele><time>2026-04-12T07:20:26.977Z</time></trkpt><trkpt lat="37.83356799069439" lon="15.10917353308849"><ele>711.0</ele><time>2026-04-12T07:20:27.977Z</time></trkpt><trkpt lat="37.83351860890544" lon="15.109052854795756"><ele>712.0</ele><time>2026-04-12T07:20:28.977Z</time></trkpt><trkpt lat="37.83348342222756" lon="15.108971368344125"><ele>712.6666666666667</ele><time>2026-04-12T07:20:29.977Z</time></trkpt><trkpt lat="37.83345180652216" lon="15.108900447314172"><ele>713.3333333333334</ele><time>2026-04-12T07:20:30.977Z</time></trkpt><trkpt lat="37.83343928985008" lon="15.108806836638717"><ele>714.0</ele><time>2026-04-12T07:20:32.977Z</time></trkpt><trkpt lat="37.83350605279103" lon="15.108788345414768"><ele>714.6666666666666</ele><time>2026-04-12T07:20:40.977Z</time></trkpt><trkpt lat="37.833516266981796" lon="15.108703938605888"><ele>715.3333333333333</ele><time>2026-04-12T07:20:47.977Z</time></trkpt><trkpt lat="37.833610881448244" lon="15.108573286643734"><ele>716.0</ele><time>2026-04-12T07:20:49.977Z</time></trkpt><trkpt lat="37.83367792623519" lon="15.108465178727101"><ele>716.0</ele><time>2026-04-12T07:20:50.977Z</time></trkpt><trkpt lat="37.83374900528705" lon="15.108345191297007"><ele>716.0</ele><time>2026-04-12T07:20:51.977Z</time></trkpt><trkpt lat="37.833814424105164" lon="15.108214955966508"><ele>716.0</ele><time>2026-04-12T07:20:52.977Z</time></trkpt><trkpt lat="37.83388283995262" lon="15.108080730545122"><ele>716.0</ele><time>2026-04-12T07:20:53.977Z</time></trkpt><trkpt lat="37.83394974983881" lon="15.107947225582212"><ele>718.25</ele><time>2026-04-12T07:20:54.976Z</time></trkpt><trkpt lat="37.83401415011954" lon="15.107818213229827"><ele>720.5</ele><time>2026-04-12T07:20:55.976Z</time></trkpt><trkpt lat="37.83408217481956" lon="15.107687794466948"><ele>722.75</ele><time>2026-04-12T07:20:56.976Z</time></trkpt><trkpt lat="37.8341582737475" lon="15.107541582347125"><ele>725.0</ele><time>2026-04-12T07:20:57.976Z</time></trkpt><trkpt lat="37.8342429495471" lon="15.107368918733684"><ele>726.6666666666666</ele><time>2026-04-12T07:20:58.976Z</time></trkpt><trkpt lat="37.834324329837344" lon="15.107199904066967"><ele>728.3333333333334</ele><time>2026-04-12T07:20:59.976Z</time></trkpt><trkpt lat="37.83440206832995" lon="15.107023880342764"><ele>730.0</ele><time>2026-04-12T07:21:00.976Z</time></trkpt><trkpt lat="37.83448430094742" lon="15.106848376933643"><ele>730.0</ele><time>2026-04-12T07:21:01.976Z</time></trkpt><trkpt lat="37.83455935871509" lon="15.10667191981497"><ele>730.0</ele><time>2026-04-12T07:21:02.976Z</time></trkpt><trkpt lat="37.83463937767549" lon="15.10649508187533"><ele>730.0</ele><time>2026-04-12T07:21:03.976Z</time></trkpt><trkpt lat="37.83472270177108" lon="15.106309247204685"><ele>732.6666666666667</ele><time>2026-04-12T07:21:04.976Z</time></trkpt><trkpt lat="37.834801271465075" lon="15.1061097994141"><ele>735.3333333333334</ele><time>2026-04-12T07:21:05.976Z</time></trkpt><trkpt lat="37.83488645209857" lon="15.105887417544285"><ele>738.0</ele><time>2026-04-12T07:21:06.976Z</time></trkpt><trkpt lat="37.834962466639055" lon="15.105653476979505"><ele>737.6666666666666</ele><time>2026-04-12T07:21:07.976Z</time></trkpt><trkpt lat="37.835039069272725" lon="15.105422423878306"><ele>737.3333333333333</ele><time>2026-04-12T07:21:08.976Z</time></trkpt><trkpt lat="37.83510846275995" lon="15.105189243927647"><ele>737.0</ele><time>2026-04-12T07:21:09.976Z</time></trkpt><trkpt lat="37.835182548129985" lon="15.104959007552807"><ele>740.6666666666666</ele><time>2026-04-12T07:21:10.976Z</time></trkpt><trkpt lat="37.83526597006939" lon="15.104730395789337"><ele>744.3333333333334</ele><time>2026-04-12T07:21:11.976Z</time></trkpt><trkpt lat="37.835355207632" lon="15.104504393558642"><ele>748.0</ele><time>2026-04-12T07:21:12.976Z</time></trkpt><trkpt lat="37.83545493772049" lon="15.104286084787793"><ele>748.0</ele><time>2026-04-12T07:21:13.976Z</time></trkpt><trkpt lat="37.83555008773789" lon="15.104098929689203"><ele>748.0</ele><time>2026-04-12T07:21:14.976Z</time></trkpt><trkpt lat="37.8356331181105" lon="15.10391754787187"><ele>748.0</ele><time>2026-04-12T07:21:15.976Z</time></trkpt><trkpt lat="37.835693945335315" lon="15.103727162916949"><ele>750.3333333333334</ele><time>2026-04-12T07:21:16.976Z</time></trkpt><trkpt lat="37.83573654519376" lon="15.103526588559665"><ele>752.6666666666666</ele><time>2026-04-12T07:21:17.976Z</time></trkpt><trkpt lat="37.83571917894215" lon="15.103296472074417"><ele>755.0</ele><time>2026-04-12T07:21:18.976Z</time></trkpt><trkpt lat="37.835663801053244" lon="15.103047104441199"><ele>756.6666666666666</ele><time>2026-04-12T07:21:19.976Z</time></trkpt><trkpt lat="37.835610401526644" lon="15.10278514556333"><ele>758.3333333333334</ele><time>2026-04-12T07:21:20.976Z</time></trkpt><trkpt lat="37.83557958207275" lon="15.102520889749954"><ele>760.0</ele><time>2026-04-12T07:21:21.976Z</time></trkpt><trkpt lat="37.83554712584749" lon="15.102252220988293"><ele>763.0</ele><time>2026-04-12T07:21:22.976Z</time></trkpt><trkpt lat="37.83551933007443" lon="15.101977975745381"><ele>766.0</ele><time>2026-04-12T07:21:23.976Z</time></trkpt><trkpt lat="37.835491329803894" lon="15.101704291626273"><ele>769.0</ele><time>2026-04-12T07:21:24.976Z</time></trkpt><trkpt lat="37.83546049902599" lon="15.101440249211464"><ele>771.0</ele><time>2026-04-12T07:21:25.976Z</time></trkpt><trkpt lat="37.83543428252899" lon="15.101178497626142"><ele>773.0</ele><time>2026-04-12T07:21:26.976Z</time></trkpt><trkpt lat="37.83543356936496" lon="15.100917552213758"><ele>775.0</ele><time>2026-04-12T07:21:27.976Z</time></trkpt><trkpt lat="37.83545450031095" lon="15.100635349999699"><ele>780.0</ele><time>2026-04-12T07:21:28.976Z</time></trkpt><trkpt lat="37.835466679328185" lon="15.100350083699443"><ele>785.0</ele><time>2026-04-12T07:21:29.976Z</time></trkpt><trkpt lat="37.83548337163028" lon="15.1000631700408"><ele>790.0</ele><time>2026-04-12T07:21:30.976Z</time></trkpt><trkpt lat="37.835508850923304" lon="15.099785093974399"><ele>795.0</ele><time>2026-04-12T07:21:31.975Z</time></trkpt><trkpt lat="37.835557025363876" lon="15.099490373206754"><ele>795.0</ele><time>2026-04-12T07:21:32.975Z</time></trkpt><trkpt lat="37.83561699567337" lon="15.099196003114383"><ele>795.0</ele><time>2026-04-12T07:21:33.975Z</time></trkpt><trkpt lat="37.83565716599622" lon="15.098917695457702"><ele>797.3333333333333</ele><time>2026-04-12T07:21:34.975Z</time></trkpt><trkpt lat="37.83571094386672" lon="15.098667784800865"><ele>799.6666666666666</ele><time>2026-04-12T07:21:35.975Z</time></trkpt><trkpt lat="37.8357678014529" lon="15.098428870803161"><ele>802.0</ele><time>2026-04-12T07:21:36.975Z</time></trkpt><trkpt lat="37.83583474301758" lon="15.09818395269009"><ele>801.0</ele><time>2026-04-12T07:21:37.975Z</time></trkpt><trkpt lat="37.83592423269732" lon="15.097937457819976"><ele>800.0</ele><time>2026-04-12T07:21:38.975Z</time></trkpt><trkpt lat="37.83599799895493" lon="15.09765800304715"><ele>799.0</ele><time>2026-04-12T07:21:39.975Z</time></trkpt><trkpt lat="37.836091564383906" lon="15.097374469888006"><ele>799.0</ele><time>2026-04-12T07:21:40.975Z</time></trkpt><trkpt lat="37.83617835107232" lon="15.097090240330743"><ele>799.0</ele><time>2026-04-12T07:21:41.975Z</time></trkpt><trkpt lat="37.8362694027944" lon="15.096799796101536"><ele>803.0</ele><time>2026-04-12T07:21:42.975Z</time></trkpt><trkpt lat="37.83635209442728" lon="15.096508096154874"><ele>807.0</ele><time>2026-04-12T07:21:43.975Z</time></trkpt><trkpt lat="37.83643982594653" lon="15.09621527850595"><ele>807.0</ele><time>2026-04-12T07:21:44.975Z</time></trkpt><trkpt lat="37.836530759965136" lon="15.095922928294405"><ele>807.0</ele><time>2026-04-12T07:21:45.975Z</time></trkpt><trkpt lat="37.83661251313252" lon="15.095646726282771"><ele>809.3333333333333</ele><time>2026-04-12T07:21:46.975Z</time></trkpt><trkpt lat="37.83669316611164" lon="15.095381401724358"><ele>811.6666666666666</ele><time>2026-04-12T07:21:47.975Z</time></trkpt><trkpt lat="37.83677636274152" lon="15.095118861043096"><ele>814.0</ele><time>2026-04-12T07:21:48.975Z</time></trkpt><trkpt lat="37.836882926517355" lon="15.094868199699226"><ele>814.0</ele><time>2026-04-12T07:21:49.975Z</time></trkpt><trkpt lat="37.836980518996434" lon="15.094618120080748"><ele>814.0</ele><time>2026-04-12T07:21:50.975Z</time></trkpt><trkpt lat="37.837091891720306" lon="15.094380823673863"><ele>814.0</ele><time>2026-04-12T07:21:51.975Z</time></trkpt><trkpt lat="37.83721887933492" lon="15.094156163402337"><ele>818.5</ele><time>2026-04-12T07:21:52.975Z</time></trkpt><trkpt lat="37.83738765111306" lon="15.093965154687039"><ele>823.0</ele><time>2026-04-12T07:21:53.975Z</time></trkpt><trkpt lat="37.83756032722297" lon="15.093751627249155"><ele>818.5</ele><time>2026-04-12T07:21:54.975Z</time></trkpt><trkpt lat="37.837764826045756" lon="15.093560739667874"><ele>814.0</ele><time>2026-04-12T07:21:55.975Z</time></trkpt><trkpt lat="37.83796003955048" lon="15.093362036486065"><ele>821.5</ele><time>2026-04-12T07:21:56.975Z</time></trkpt><trkpt lat="37.838148814342716" lon="15.093151752170687"><ele>829.0</ele><time>2026-04-12T07:21:57.975Z</time></trkpt><trkpt lat="37.83833176143428" lon="15.092953664721396"><ele>823.6666666666666</ele><time>2026-04-12T07:21:58.975Z</time></trkpt><trkpt lat="37.83849815541879" lon="15.092784035315095"><ele>818.3333333333333</ele><time>2026-04-12T07:21:59.975Z</time></trkpt><trkpt lat="37.83864431177332" lon="15.092620991320471"><ele>813.0</ele><time>2026-04-12T07:22:00.975Z</time></trkpt><trkpt lat="37.8387673489017" lon="15.092430337870352"><ele>813.6666666666667</ele><time>2026-04-12T07:22:01.975Z</time></trkpt><trkpt lat="37.83884154288322" lon="15.092184021489176"><ele>814.3333333333334</ele><time>2026-04-12T07:22:02.975Z</time></trkpt><trkpt lat="37.83889869254225" lon="15.091899031184688"><ele>815.0</ele><time>2026-04-12T07:22:03.975Z</time></trkpt><trkpt lat="37.83893894536187" lon="15.091567546650959"><ele>818.5</ele><time>2026-04-12T07:22:04.975Z</time></trkpt><trkpt lat="37.83897286488902" lon="15.091235016347536"><ele>822.0</ele><time>2026-04-12T07:22:05.975Z</time></trkpt><trkpt lat="37.83902800341869" lon="15.090899446601266"><ele>828.0</ele><time>2026-04-12T07:22:06.975Z</time></trkpt><trkpt lat="37.83908036378733" lon="15.090579060678186"><ele>834.0</ele><time>2026-04-12T07:22:07.975Z</time></trkpt><trkpt lat="37.83912782924752" lon="15.090284902118023"><ele>834.0</ele><time>2026-04-12T07:22:08.974Z</time></trkpt><trkpt lat="37.8391755692019" lon="15.090010984496912"><ele>834.0</ele><time>2026-04-12T07:22:09.974Z</time></trkpt><trkpt lat="37.83923758255818" lon="15.089759343262758"><ele>834.0</ele><time>2026-04-12T07:22:10.974Z</time></trkpt><trkpt lat="37.83935997188116" lon="15.089578226329573"><ele>834.3333333333333</ele><time>2026-04-12T07:22:11.974Z</time></trkpt><trkpt lat="37.83950455706401" lon="15.08942099173341"><ele>834.6666666666666</ele><time>2026-04-12T07:22:12.974Z</time></trkpt><trkpt lat="37.83967910313949" lon="15.089244447650186"><ele>835.0</ele><time>2026-04-12T07:22:13.974Z</time></trkpt><trkpt lat="37.839866333487436" lon="15.089055901247027"><ele>838.5</ele><time>2026-04-12T07:22:14.974Z</time></trkpt><trkpt lat="37.84004937931995" lon="15.088853009973196"><ele>842.0</ele><time>2026-04-12T07:22:15.974Z</time></trkpt><trkpt lat="37.84023560536214" lon="15.088663174514"><ele>842.0</ele><time>2026-04-12T07:22:16.974Z</time></trkpt><trkpt lat="37.840418379652576" lon="15.088475119321046"><ele>842.0</ele><time>2026-04-12T07:22:17.974Z</time></trkpt><trkpt lat="37.840600367483276" lon="15.088315246253094"><ele>840.0</ele><time>2026-04-12T07:22:18.974Z</time></trkpt><trkpt lat="37.84075666901419" lon="15.088133165483038"><ele>838.0</ele><time>2026-04-12T07:22:19.974Z</time></trkpt><trkpt lat="37.840898933744874" lon="15.08795919567001"><ele>836.0</ele><time>2026-04-12T07:22:20.974Z</time></trkpt><trkpt lat="37.84101295828046" lon="15.087744914622926"><ele>836.0</ele><time>2026-04-12T07:22:21.974Z</time></trkpt><trkpt lat="37.84110743915357" lon="15.08746949108668"><ele>836.0</ele><time>2026-04-12T07:22:22.974Z</time></trkpt><trkpt lat="37.84117433686771" lon="15.087181886017312"><ele>840.0</ele><time>2026-04-12T07:22:23.974Z</time></trkpt><trkpt lat="37.841307150607605" lon="15.086900712765246"><ele>844.0</ele><time>2026-04-12T07:22:24.974Z</time></trkpt><trkpt lat="37.841422289564896" lon="15.08660354084129"><ele>848.0</ele><time>2026-04-12T07:22:25.974Z</time></trkpt><trkpt lat="37.84153617884177" lon="15.086294046702195"><ele>852.0</ele><time>2026-04-12T07:22:26.974Z</time></trkpt><trkpt lat="37.84164583568034" lon="15.086006013577023"><ele>852.0</ele><time>2026-04-12T07:22:27.974Z</time></trkpt><trkpt lat="37.84175266384288" lon="15.085730282063677"><ele>852.0</ele><time>2026-04-12T07:22:28.974Z</time></trkpt><trkpt lat="37.841872286741314" lon="15.085474361300543"><ele>852.0</ele><time>2026-04-12T07:22:29.974Z</time></trkpt><trkpt lat="37.84201008875951" lon="15.08522934022442"><ele>852.0</ele><time>2026-04-12T07:22:30.974Z</time></trkpt><trkpt lat="37.84217559916824" lon="15.084975736506127"><ele>857.5</ele><time>2026-04-12T07:22:31.974Z</time></trkpt><trkpt lat="37.84235562684511" lon="15.084734128289728"><ele>863.0</ele><time>2026-04-12T07:22:32.974Z</time></trkpt><trkpt lat="37.842528261337854" lon="15.084493563743218"><ele>862.5</ele><time>2026-04-12T07:22:33.974Z</time></trkpt><trkpt lat="37.84268641792043" lon="15.084255130697754"><ele>862.0</ele><time>2026-04-12T07:22:34.974Z</time></trkpt><trkpt lat="37.84284485240831" lon="15.084026888115686"><ele>865.0</ele><time>2026-04-12T07:22:35.974Z</time></trkpt><trkpt lat="37.84299714234513" lon="15.083798269608415"><ele>868.0</ele><time>2026-04-12T07:22:36.974Z</time></trkpt><trkpt lat="37.843133743870325" lon="15.083553767488862"><ele>868.0</ele><time>2026-04-12T07:22:37.974Z</time></trkpt><trkpt lat="37.84325672781424" lon="15.08329118123522"><ele>868.0</ele><time>2026-04-12T07:22:38.974Z</time></trkpt><trkpt lat="37.843377669806955" lon="15.083020983183522"><ele>864.0</ele><time>2026-04-12T07:22:39.974Z</time></trkpt><trkpt lat="37.84349849213817" lon="15.082753910845302"><ele>860.0</ele><time>2026-04-12T07:22:40.974Z</time></trkpt><trkpt lat="37.843618045177216" lon="15.08250372878047"><ele>862.6666666666667</ele><time>2026-04-12T07:22:41.974Z</time></trkpt><trkpt lat="37.84373309695645" lon="15.082282477114747"><ele>865.3333333333333</ele><time>2026-04-12T07:22:42.974Z</time></trkpt><trkpt lat="37.84384565925153" lon="15.08207683301476"><ele>868.0</ele><time>2026-04-12T07:22:43.974Z</time></trkpt><trkpt lat="37.843994207117774" lon="15.081931628610498"><ele>868.0</ele><time>2026-04-12T07:22:44.974Z</time></trkpt><trkpt lat="37.84416830050416" lon="15.081822412610853"><ele>868.0</ele><time>2026-04-12T07:22:45.973Z</time></trkpt><trkpt lat="37.844383565829816" lon="15.08170273499404"><ele>868.0</ele><time>2026-04-12T07:22:46.973Z</time></trkpt><trkpt lat="37.84459747992531" lon="15.081584198008692"><ele>867.0</ele><time>2026-04-12T07:22:47.973Z</time></trkpt><trkpt lat="37.84479503053876" lon="15.081440149492018"><ele>866.0</ele><time>2026-04-12T07:22:48.973Z</time></trkpt><trkpt lat="37.84498830498983" lon="15.08126222104959"><ele>860.0</ele><time>2026-04-12T07:22:49.973Z</time></trkpt><trkpt lat="37.8451642899294" lon="15.081032770329237"><ele>854.0</ele><time>2026-04-12T07:22:50.973Z</time></trkpt><trkpt lat="37.84533393557777" lon="15.080814604448085"><ele>855.3333333333334</ele><time>2026-04-12T07:22:51.973Z</time></trkpt><trkpt lat="37.84547202813671" lon="15.080603413972423"><ele>856.6666666666667</ele><time>2026-04-12T07:22:52.973Z</time></trkpt><trkpt lat="37.84557762400313" lon="15.080348192520933"><ele>858.0</ele><time>2026-04-12T07:22:53.973Z</time></trkpt><trkpt lat="37.84562732461907" lon="15.080023974159191"><ele>859.0</ele><time>2026-04-12T07:22:54.973Z</time></trkpt><trkpt lat="37.84568140311302" lon="15.079678567689841"><ele>860.0</ele><time>2026-04-12T07:22:55.973Z</time></trkpt><trkpt lat="37.84576197129203" lon="15.079322750506078"><ele>862.0</ele><time>2026-04-12T07:22:56.973Z</time></trkpt><trkpt lat="37.84586803806273" lon="15.07895381859522"><ele>864.0</ele><time>2026-04-12T07:22:57.973Z</time></trkpt><trkpt lat="37.84596363513462" lon="15.078564672280923"><ele>861.0</ele><time>2026-04-12T07:22:58.973Z</time></trkpt><trkpt lat="37.846060116069026" lon="15.078170091204825"><ele>858.0</ele><time>2026-04-12T07:22:59.973Z</time></trkpt><trkpt lat="37.846160619953764" lon="15.077762713670934"><ele>862.0</ele><time>2026-04-12T07:23:00.973Z</time></trkpt><trkpt lat="37.84626021065387" lon="15.077359160706186"><ele>866.0</ele><time>2026-04-12T07:23:01.973Z</time></trkpt><trkpt lat="37.84634846828518" lon="15.076999548262284"><ele>866.0</ele><time>2026-04-12T07:23:02.973Z</time></trkpt><trkpt lat="37.846430832274066" lon="15.076663214380307"><ele>866.0</ele><time>2026-04-12T07:23:03.973Z</time></trkpt><trkpt lat="37.84651020672178" lon="15.07634284197325"><ele>868.0</ele><time>2026-04-12T07:23:04.973Z</time></trkpt><trkpt lat="37.84658995457405" lon="15.076026515499374"><ele>870.0</ele><time>2026-04-12T07:23:05.973Z</time></trkpt><trkpt lat="37.84665126216962" lon="15.075720806634894"><ele>872.5</ele><time>2026-04-12T07:23:06.973Z</time></trkpt><trkpt lat="37.84672408522539" lon="15.075420887638279"><ele>875.0</ele><time>2026-04-12T07:23:07.973Z</time></trkpt><trkpt lat="37.8467997729844" lon="15.075116870472915"><ele>873.0</ele><time>2026-04-12T07:23:08.973Z</time></trkpt><trkpt lat="37.846887979480115" lon="15.07481995935039"><ele>871.0</ele><time>2026-04-12T07:23:09.973Z</time></trkpt><trkpt lat="37.846945637723536" lon="15.07451829405725"><ele>871.0</ele><time>2026-04-12T07:23:10.973Z</time></trkpt><trkpt lat="37.84702671407098" lon="15.074233403688927"><ele>871.0</ele><time>2026-04-12T07:23:11.973Z</time></trkpt><trkpt lat="37.84707711850855" lon="15.073936057153281"><ele>874.5</ele><time>2026-04-12T07:23:12.973Z</time></trkpt><trkpt lat="37.84715115894859" lon="15.073641410962189"><ele>878.0</ele><time>2026-04-12T07:23:13.973Z</time></trkpt><trkpt lat="37.847183316236894" lon="15.073363881081093"><ele>879.0</ele><time>2026-04-12T07:23:14.973Z</time></trkpt><trkpt lat="37.84721114692713" lon="15.073109618332325"><ele>880.0</ele><time>2026-04-12T07:23:15.973Z</time></trkpt><trkpt lat="37.84724370477874" lon="15.072875767121957"><ele>881.0</ele><time>2026-04-12T07:23:16.973Z</time></trkpt><trkpt lat="37.84729545130752" lon="15.0726555894573"><ele>881.0</ele><time>2026-04-12T07:23:17.973Z</time></trkpt><trkpt lat="37.847379950070405" lon="15.072473809371616"><ele>881.0</ele><time>2026-04-12T07:23:18.973Z</time></trkpt><trkpt lat="37.847490968358585" lon="15.072301126254654"><ele>881.0</ele><time>2026-04-12T07:23:19.973Z</time></trkpt><trkpt lat="37.84764317498454" lon="15.072128977991232"><ele>882.0</ele><time>2026-04-12T07:23:20.973Z</time></trkpt><trkpt lat="37.847801112371286" lon="15.071943124105879"><ele>883.0</ele><time>2026-04-12T07:23:21.973Z</time></trkpt><trkpt lat="37.847975764866874" lon="15.071768047976423"><ele>884.0</ele><time>2026-04-12T07:23:22.972Z</time></trkpt><trkpt lat="37.84814440114972" lon="15.071589681677292"><ele>883.0</ele><time>2026-04-12T07:23:23.972Z</time></trkpt><trkpt lat="37.84830592873461" lon="15.071401346817899"><ele>882.0</ele><time>2026-04-12T07:23:24.972Z</time></trkpt><trkpt lat="37.848467505218956" lon="15.07121743466238"><ele>881.0</ele><time>2026-04-12T07:23:25.972Z</time></trkpt><trkpt lat="37.848624945812006" lon="15.071027602407504"><ele>881.0</ele><time>2026-04-12T07:23:26.972Z</time></trkpt><trkpt lat="37.84877810360954" lon="15.070853215748755"><ele>881.0</ele><time>2026-04-12T07:23:27.972Z</time></trkpt><trkpt lat="37.84891538898432" lon="15.070696547086223"><ele>881.0</ele><time>2026-04-12T07:23:28.972Z</time></trkpt><trkpt lat="37.8490596253509" lon="15.070581440085242"><ele>881.0</ele><time>2026-04-12T07:23:29.972Z</time></trkpt><trkpt lat="37.84923230042471" lon="15.070549138742338"><ele>881.0</ele><time>2026-04-12T07:23:30.972Z</time></trkpt><trkpt lat="37.84942113770154" lon="15.07050257756215"><ele>881.0</ele><time>2026-04-12T07:23:31.972Z</time></trkpt><trkpt lat="37.84962324907536" lon="15.070446897225505"><ele>881.0</ele><time>2026-04-12T07:23:32.972Z</time></trkpt><trkpt lat="37.84984468401435" lon="15.07039363732457"><ele>881.0</ele><time>2026-04-12T07:23:33.972Z</time></trkpt><trkpt lat="37.85006394237426" lon="15.070335440483108"><ele>881.0</ele><time>2026-04-12T07:23:34.972Z</time></trkpt><trkpt lat="37.850282787706135" lon="15.070289492946328"><ele>878.3333333333334</ele><time>2026-04-12T07:23:35.972Z</time></trkpt><trkpt lat="37.85047681304796" lon="15.070250625617565"><ele>875.6666666666667</ele><time>2026-04-12T07:23:36.972Z</time></trkpt><trkpt lat="37.850638676443914" lon="15.07019511276849"><ele>873.0</ele><time>2026-04-12T07:23:37.972Z</time></trkpt><trkpt lat="37.85077869134177" lon="15.0700835191902"><ele>872.3333333333333</ele><time>2026-04-12T07:23:38.972Z</time></trkpt><trkpt lat="37.85091709020508" lon="15.069893994208739"><ele>871.6666666666666</ele><time>2026-04-12T07:23:39.972Z</time></trkpt><trkpt lat="37.851057113796166" lon="15.069682168810242"><ele>871.0</ele><time>2026-04-12T07:23:40.972Z</time></trkpt><trkpt lat="37.851212095829716" lon="15.069439677232904"><ele>868.5</ele><time>2026-04-12T07:23:41.972Z</time></trkpt><trkpt lat="37.85139374784894" lon="15.06918948573681"><ele>866.0</ele><time>2026-04-12T07:23:42.972Z</time></trkpt><trkpt lat="37.8515893474569" lon="15.068929656787763"><ele>866.0</ele><time>2026-04-12T07:23:43.972Z</time></trkpt><trkpt lat="37.85176685063351" lon="15.068682497476953"><ele>866.0</ele><time>2026-04-12T07:23:44.972Z</time></trkpt><trkpt lat="37.851931275334024" lon="15.068463578678157"><ele>861.0</ele><time>2026-04-12T07:23:45.972Z</time></trkpt><trkpt lat="37.8520767651798" lon="15.06823903015044"><ele>856.0</ele><time>2026-04-12T07:23:46.972Z</time></trkpt><trkpt lat="37.85218358357632" lon="15.067990333592135"><ele>856.0</ele><time>2026-04-12T07:23:47.972Z</time></trkpt><trkpt lat="37.85226572979929" lon="15.067685123762944"><ele>856.0</ele><time>2026-04-12T07:23:48.972Z</time></trkpt><trkpt lat="37.85233343170857" lon="15.067365942905093"><ele>855.6666666666666</ele><time>2026-04-12T07:23:49.972Z</time></trkpt><trkpt lat="37.85241355552002" lon="15.067107377950782"><ele>855.3333333333333</ele><time>2026-04-12T07:23:50.972Z</time></trkpt><trkpt lat="37.8525218993028" lon="15.066867689622233"><ele>855.0</ele><time>2026-04-12T07:23:51.972Z</time></trkpt><trkpt lat="37.85268884094696" lon="15.066663888566985"><ele>852.5</ele><time>2026-04-12T07:23:52.972Z</time></trkpt><trkpt lat="37.85288606216807" lon="15.066400890421423"><ele>850.0</ele><time>2026-04-12T07:23:53.972Z</time></trkpt><trkpt lat="37.853091425938686" lon="15.06612703590993"><ele>850.0</ele><time>2026-04-12T07:23:54.972Z</time></trkpt><trkpt lat="37.85327920368894" lon="15.065858809880389"><ele>850.0</ele><time>2026-04-12T07:23:55.972Z</time></trkpt><trkpt lat="37.8534627518805" lon="15.06561788042014"><ele>848.0</ele><time>2026-04-12T07:23:56.972Z</time></trkpt><trkpt lat="37.85362969350727" lon="15.065406949596271"><ele>846.0</ele><time>2026-04-12T07:23:57.972Z</time></trkpt><trkpt lat="37.853764638335505" lon="15.065185758464125"><ele>846.0</ele><time>2026-04-12T07:23:58.972Z</time></trkpt><trkpt lat="37.85385858176277" lon="15.06493480574273"><ele>846.0</ele><time>2026-04-12T07:23:59.971Z</time></trkpt><trkpt lat="37.85391367317524" lon="15.064617397564383"><ele>846.0</ele><time>2026-04-12T07:24:00.971Z</time></trkpt><trkpt lat="37.853969060136734" lon="15.064262987618614"><ele>846.0</ele><time>2026-04-12T07:24:01.971Z</time></trkpt><trkpt lat="37.85404373511675" lon="15.063911811993892"><ele>844.5</ele><time>2026-04-12T07:24:02.971Z</time></trkpt><trkpt lat="37.854104857459824" lon="15.06361468878834"><ele>843.0</ele><time>2026-04-12T07:24:03.971Z</time></trkpt><trkpt lat="37.85413384317936" lon="15.063343094023903"><ele>843.5</ele><time>2026-04-12T07:24:04.971Z</time></trkpt><trkpt lat="37.85412047918494" lon="15.06303542554668"><ele>844.0</ele><time>2026-04-12T07:24:05.971Z</time></trkpt><trkpt lat="37.854055873840636" lon="15.062699193220736"><ele>843.0</ele><time>2026-04-12T07:24:06.971Z</time></trkpt><trkpt lat="37.854006571181436" lon="15.062394364134214"><ele>842.0</ele><time>2026-04-12T07:24:07.971Z</time></trkpt><trkpt lat="37.854013697418246" lon="15.062109749468359"><ele>842.0</ele><time>2026-04-12T07:24:08.971Z</time></trkpt><trkpt lat="37.85403708529606" lon="15.061798399421448"><ele>842.0</ele><time>2026-04-12T07:24:09.971Z</time></trkpt><trkpt lat="37.854063393179175" lon="15.06146778234103"><ele>841.5</ele><time>2026-04-12T07:24:10.971Z</time></trkpt><trkpt lat="37.854085490582825" lon="15.061165551188928"><ele>841.0</ele><time>2026-04-12T07:24:11.971Z</time></trkpt><trkpt lat="37.85408765417303" lon="15.060887042730984"><ele>842.0</ele><time>2026-04-12T07:24:12.971Z</time></trkpt><trkpt lat="37.85404997621812" lon="15.060630785900829"><ele>843.0</ele><time>2026-04-12T07:24:13.971Z</time></trkpt><trkpt lat="37.85396668409778" lon="15.060369430510887"><ele>844.0</ele><time>2026-04-12T07:24:14.971Z</time></trkpt><trkpt lat="37.853874094112975" lon="15.060123205457867"><ele>843.6666666666666</ele><time>2026-04-12T07:24:15.971Z</time></trkpt><trkpt lat="37.853791833403356" lon="15.059900603040871"><ele>843.3333333333333</ele><time>2026-04-12T07:24:16.971Z</time></trkpt><trkpt lat="37.85370813091084" lon="15.059697003294255"><ele>843.0</ele><time>2026-04-12T07:24:17.971Z</time></trkpt><trkpt lat="37.853630402851294" lon="15.059504409258052"><ele>843.0</ele><time>2026-04-12T07:24:18.971Z</time></trkpt><trkpt lat="37.85355358265744" lon="15.059308820904379"><ele>843.0</ele><time>2026-04-12T07:24:19.971Z</time></trkpt><trkpt lat="37.853490799937475" lon="15.059120707718844"><ele>843.0</ele><time>2026-04-12T07:24:20.971Z</time></trkpt><trkpt lat="37.853438338833435" lon="15.058917647836083"><ele>844.6666666666667</ele><time>2026-04-12T07:24:21.971Z</time></trkpt><trkpt lat="37.85340946013313" lon="15.05869751621895"><ele>846.3333333333334</ele><time>2026-04-12T07:24:22.971Z</time></trkpt><trkpt lat="37.853378435029555" lon="15.05847034835025"><ele>848.0</ele><time>2026-04-12T07:24:23.971Z</time></trkpt><trkpt lat="37.85334696255325" lon="15.058236279276283"><ele>848.0</ele><time>2026-04-12T07:24:24.971Z</time></trkpt><trkpt lat="37.85330258642961" lon="15.05800024024795"><ele>848.0</ele><time>2026-04-12T07:24:25.971Z</time></trkpt><trkpt lat="37.85327778855556" lon="15.057753997359129"><ele>848.0</ele><time>2026-04-12T07:24:26.971Z</time></trkpt><trkpt lat="37.853243298782154" lon="15.057507727294068"><ele>847.3333333333334</ele><time>2026-04-12T07:24:27.971Z</time></trkpt><trkpt lat="37.85320700721251" lon="15.057256600466502"><ele>846.6666666666667</ele><time>2026-04-12T07:24:28.971Z</time></trkpt><trkpt lat="37.85318376686311" lon="15.056995313262274"><ele>846.0</ele><time>2026-04-12T07:24:29.971Z</time></trkpt><trkpt lat="37.85314817037283" lon="15.056724572118526"><ele>846.0</ele><time>2026-04-12T07:24:30.971Z</time></trkpt><trkpt lat="37.85311315699327" lon="15.056459919114452"><ele>846.0</ele><time>2026-04-12T07:24:31.971Z</time></trkpt><trkpt lat="37.85307752896523" lon="15.056193339837447"><ele>846.0</ele><time>2026-04-12T07:24:32.971Z</time></trkpt><trkpt lat="37.85304094808956" lon="15.055919631028209"><ele>846.0</ele><time>2026-04-12T07:24:33.971Z</time></trkpt><trkpt lat="37.85300446037059" lon="15.055646619347742"><ele>846.0</ele><time>2026-04-12T07:24:34.971Z</time></trkpt><trkpt lat="37.852956098662055" lon="15.055377859770633"><ele>846.0</ele><time>2026-04-12T07:24:35.971Z</time></trkpt><trkpt lat="37.85291633596779" lon="15.05510819556004"><ele>844.3333333333333</ele><time>2026-04-12T07:24:36.97Z</time></trkpt><trkpt lat="37.85289505888021" lon="15.054830000324083"><ele>842.6666666666666</ele><time>2026-04-12T07:24:37.97Z</time></trkpt><trkpt lat="37.85285808443853" lon="15.054554511078264"><ele>841.0</ele><time>2026-04-12T07:24:38.97Z</time></trkpt><trkpt lat="37.85282138415344" lon="15.054281064590992"><ele>840.0</ele><time>2026-04-12T07:24:39.97Z</time></trkpt><trkpt lat="37.85278374818695" lon="15.054000646530415"><ele>839.0</ele><time>2026-04-12T07:24:40.97Z</time></trkpt><trkpt lat="37.852746328081544" lon="15.053711110727214"><ele>839.0</ele><time>2026-04-12T07:24:41.97Z</time></trkpt><trkpt lat="37.85270947194255" lon="15.053432913231953"><ele>839.0</ele><time>2026-04-12T07:24:42.97Z</time></trkpt><trkpt lat="37.85267403861394" lon="15.053165455371161"><ele>839.0</ele><time>2026-04-12T07:24:43.97Z</time></trkpt><trkpt lat="37.85263965670659" lon="15.052901627122372"><ele>845.6666666666667</ele><time>2026-04-12T07:24:44.97Z</time></trkpt><trkpt lat="37.85261509112535" lon="15.052636051852367"><ele>852.3333333333333</ele><time>2026-04-12T07:24:45.97Z</time></trkpt><trkpt lat="37.852597117762066" lon="15.052376748986543"><ele>859.0</ele><time>2026-04-12T07:24:46.97Z</time></trkpt><trkpt lat="37.85258018414003" lon="15.052119173082161"><ele>859.0</ele><time>2026-04-12T07:24:47.97Z</time></trkpt><trkpt lat="37.85256414546191" lon="15.051869075700202"><ele>859.0</ele><time>2026-04-12T07:24:48.97Z</time></trkpt><trkpt lat="37.852555965378706" lon="15.051639963871363"><ele>859.0</ele><time>2026-04-12T07:24:49.97Z</time></trkpt><trkpt lat="37.852576251986356" lon="15.051428291561114"><ele>855.3333333333333</ele><time>2026-04-12T07:24:50.97Z</time></trkpt><trkpt lat="37.8526293735183" lon="15.051192901280508"><ele>851.6666666666667</ele><time>2026-04-12T07:24:51.97Z</time></trkpt><trkpt lat="37.85269557958851" lon="15.050935377375747"><ele>848.0</ele><time>2026-04-12T07:24:52.97Z</time></trkpt><trkpt lat="37.85276418494523" lon="15.050669655779283"><ele>848.0</ele><time>2026-04-12T07:24:53.97Z</time></trkpt><trkpt lat="37.85283419799784" lon="15.0503975809138"><ele>848.0</ele><time>2026-04-12T07:24:54.97Z</time></trkpt><trkpt lat="37.852903905256696" lon="15.050122848434519"><ele>849.0</ele><time>2026-04-12T07:24:55.97Z</time></trkpt><trkpt lat="37.8529756011746" lon="15.049843276455466"><ele>850.0</ele><time>2026-04-12T07:24:56.97Z</time></trkpt><trkpt lat="37.853048120055945" lon="15.049561739657628"><ele>850.0</ele><time>2026-04-12T07:24:57.97Z</time></trkpt><trkpt lat="37.85312151122892" lon="15.04927681630196"><ele>850.0</ele><time>2026-04-12T07:24:58.97Z</time></trkpt><trkpt lat="37.853195531229545" lon="15.048997609712284"><ele>853.0</ele><time>2026-04-12T07:24:59.97Z</time></trkpt><trkpt lat="37.85327974049802" lon="15.04871798114309"><ele>856.0</ele><time>2026-04-12T07:25:00.97Z</time></trkpt><trkpt lat="37.85336644682317" lon="15.048439608189726"><ele>859.5</ele><time>2026-04-12T07:25:01.97Z</time></trkpt><trkpt lat="37.85345295798189" lon="15.048162223116364"><ele>863.0</ele><time>2026-04-12T07:25:02.97Z</time></trkpt><trkpt lat="37.85352537956143" lon="15.047881915108533"><ele>859.5</ele><time>2026-04-12T07:25:03.97Z</time></trkpt><trkpt lat="37.85361271172114" lon="15.047609565637762"><ele>856.0</ele><time>2026-04-12T07:25:04.97Z</time></trkpt><trkpt lat="37.85369762313261" lon="15.047332072847443"><ele>856.0</ele><time>2026-04-12T07:25:05.97Z</time></trkpt><trkpt lat="37.85379771017037" lon="15.047061498794818"><ele>856.0</ele><time>2026-04-12T07:25:06.97Z</time></trkpt><trkpt lat="37.853885034558" lon="15.046783471659875"><ele>859.5</ele><time>2026-04-12T07:25:07.97Z</time></trkpt><trkpt lat="37.85397316105108" lon="15.046502615474806"><ele>863.0</ele><time>2026-04-12T07:25:08.97Z</time></trkpt><trkpt lat="37.85405970483958" lon="15.046226017735291"><ele>863.0</ele><time>2026-04-12T07:25:09.97Z</time></trkpt><trkpt lat="37.854143563768716" lon="15.045958000920104"><ele>863.0</ele><time>2026-04-12T07:25:10.97Z</time></trkpt><trkpt lat="37.85422919627205" lon="15.04568504030309"><ele>859.5</ele><time>2026-04-12T07:25:11.97Z</time></trkpt><trkpt lat="37.85431476508393" lon="15.04541266182893"><ele>856.0</ele><time>2026-04-12T07:25:12.97Z</time></trkpt><trkpt lat="37.854398853002124" lon="15.04514499726611"><ele>857.6666666666666</ele><time>2026-04-12T07:25:13.969Z</time></trkpt><trkpt lat="37.85448184478935" lon="15.044880821726258"><ele>859.3333333333333</ele><time>2026-04-12T07:25:14.969Z</time></trkpt><trkpt lat="37.85456500232067" lon="15.044616118881036"><ele>861.0</ele><time>2026-04-12T07:25:15.969Z</time></trkpt><trkpt lat="37.854647877877944" lon="15.04435355425431"><ele>864.0</ele><time>2026-04-12T07:25:16.969Z</time></trkpt><trkpt lat="37.85472846346956" lon="15.044095749770763"><ele>867.0</ele><time>2026-04-12T07:25:17.969Z</time></trkpt><trkpt lat="37.85479096248722" lon="15.043842567401624"><ele>870.0</ele><time>2026-04-12T07:25:18.969Z</time></trkpt><trkpt lat="37.85486491693335" lon="15.043612028369482"><ele>870.0</ele><time>2026-04-12T07:25:19.969Z</time></trkpt><trkpt lat="37.8549384656575" lon="15.043402196234508"><ele>870.0</ele><time>2026-04-12T07:25:20.969Z</time></trkpt><trkpt lat="37.85495545838199" lon="15.043185205532836"><ele>870.0</ele><time>2026-04-12T07:25:21.969Z</time></trkpt><trkpt lat="37.85493880212634" lon="15.042972143885994"><ele>867.6666666666667</ele><time>2026-04-12T07:25:22.969Z</time></trkpt><trkpt lat="37.85485192277993" lon="15.042763844304533"><ele>865.3333333333334</ele><time>2026-04-12T07:25:23.969Z</time></trkpt><trkpt lat="37.85471262619626" lon="15.042580848806018"><ele>863.0</ele><time>2026-04-12T07:25:24.969Z</time></trkpt><trkpt lat="37.85453255710856" lon="15.042400837541779"><ele>860.6666666666667</ele><time>2026-04-12T07:25:25.969Z</time></trkpt><trkpt lat="37.8543553734628" lon="15.042226485904436"><ele>858.3333333333333</ele><time>2026-04-12T07:25:26.969Z</time></trkpt><trkpt lat="37.85424260930241" lon="15.042045784034437"><ele>856.0</ele><time>2026-04-12T07:25:27.969Z</time></trkpt><trkpt lat="37.85416822676704" lon="15.041867635524536"><ele>861.6666666666666</ele><time>2026-04-12T07:25:28.969Z</time></trkpt><trkpt lat="37.85412983255101" lon="15.04166732730083"><ele>867.3333333333333</ele><time>2026-04-12T07:25:29.969Z</time></trkpt><trkpt lat="37.85413382415009" lon="15.041445032047104"><ele>873.0</ele><time>2026-04-12T07:25:30.969Z</time></trkpt><trkpt lat="37.854135986553" lon="15.041166723284078"><ele>873.3333333333333</ele><time>2026-04-12T07:25:31.969Z</time></trkpt><trkpt lat="37.854138059775146" lon="15.040904266043992"><ele>873.6666666666666</ele><time>2026-04-12T07:25:32.969Z</time></trkpt><trkpt lat="37.85414020618197" lon="15.040632544243287"><ele>874.0</ele><time>2026-04-12T07:25:33.969Z</time></trkpt><trkpt lat="37.85414277880379" lon="15.040349536924417"><ele>874.6666666666666</ele><time>2026-04-12T07:25:34.969Z</time></trkpt><trkpt lat="37.854144595210364" lon="15.04006914684872"><ele>875.3333333333333</ele><time>2026-04-12T07:25:35.969Z</time></trkpt><trkpt lat="37.85414693092464" lon="15.039790677855352"><ele>876.0</ele><time>2026-04-12T07:25:36.969Z</time></trkpt><trkpt lat="37.85414925484306" lon="15.039513615586205"><ele>876.0</ele><time>2026-04-12T07:25:37.969Z</time></trkpt><trkpt lat="37.85415250635373" lon="15.039241204246105"><ele>876.0</ele><time>2026-04-12T07:25:38.969Z</time></trkpt><trkpt lat="37.85415968528508" lon="15.038971016400945"><ele>876.0</ele><time>2026-04-12T07:25:39.969Z</time></trkpt><trkpt lat="37.85417068521023" lon="15.03869727112005"><ele>876.3333333333333</ele><time>2026-04-12T07:25:40.969Z</time></trkpt><trkpt lat="37.854183083656054" lon="15.038421050569298"><ele>876.6666666666666</ele><time>2026-04-12T07:25:41.969Z</time></trkpt><trkpt lat="37.85419553875912" lon="15.03814356796792"><ele>877.0</ele><time>2026-04-12T07:25:42.969Z</time></trkpt><trkpt lat="37.854207745809" lon="15.037871611556909"><ele>877.0</ele><time>2026-04-12T07:25:43.969Z</time></trkpt><trkpt lat="37.854219353294916" lon="15.037613012649015"><ele>877.0</ele><time>2026-04-12T07:25:44.969Z</time></trkpt><trkpt lat="37.854230729923806" lon="15.037359556824414"><ele>877.0</ele><time>2026-04-12T07:25:45.969Z</time></trkpt><trkpt lat="37.854236878847125" lon="15.037113462729764"><ele>876.0</ele><time>2026-04-12T07:25:46.969Z</time></trkpt><trkpt lat="37.85421672211754" lon="15.036871169174939"><ele>875.0</ele><time>2026-04-12T07:25:47.969Z</time></trkpt><trkpt lat="37.85414849639478" lon="15.036637061535098"><ele>874.0</ele><time>2026-04-12T07:25:48.969Z</time></trkpt><trkpt lat="37.854062742434515" lon="15.03641787748702"><ele>873.6666666666666</ele><time>2026-04-12T07:25:49.969Z</time></trkpt><trkpt lat="37.853925242389614" lon="15.03622070750631"><ele>873.3333333333333</ele><time>2026-04-12T07:25:50.968Z</time></trkpt><trkpt lat="37.853764850191176" lon="15.036029774093011"><ele>873.0</ele><time>2026-04-12T07:25:51.968Z</time></trkpt><trkpt lat="37.85360631917727" lon="15.035851843734193"><ele>874.6666666666667</ele><time>2026-04-12T07:25:52.968Z</time></trkpt><trkpt lat="37.85346432292521" lon="15.035690850892397"><ele>876.3333333333334</ele><time>2026-04-12T07:25:53.968Z</time></trkpt><trkpt lat="37.853332901371395" lon="15.035541636842794"><ele>878.0</ele><time>2026-04-12T07:25:54.968Z</time></trkpt><trkpt lat="37.853263526131514" lon="15.035361730404121"><ele>882.3333333333334</ele><time>2026-04-12T07:25:55.968Z</time></trkpt><trkpt lat="37.85324108576779" lon="15.035176321745954"><ele>886.6666666666667</ele><time>2026-04-12T07:25:56.968Z</time></trkpt><trkpt lat="37.85323040436305" lon="15.034976543836835"><ele>891.0</ele><time>2026-04-12T07:25:57.968Z</time></trkpt><trkpt lat="37.85327161065781" lon="15.034785269814725"><ele>888.6666666666667</ele><time>2026-04-12T07:25:58.968Z</time></trkpt><trkpt lat="37.853334850491756" lon="15.034595090430756"><ele>886.3333333333334</ele><time>2026-04-12T07:25:59.968Z</time></trkpt><trkpt lat="37.853441214211514" lon="15.034355106074331"><ele>884.0</ele><time>2026-04-12T07:26:00.968Z</time></trkpt><trkpt lat="37.85348871013054" lon="15.03412216737242"><ele>884.0</ele><time>2026-04-12T07:26:01.968Z</time></trkpt><trkpt lat="37.853482785493114" lon="15.033901687680274"><ele>884.0</ele><time>2026-04-12T07:26:02.968Z</time></trkpt><trkpt lat="37.853463194448054" lon="15.033637280394036"><ele>884.0</ele><time>2026-04-12T07:26:03.968Z</time></trkpt><trkpt lat="37.85344661633322" lon="15.033383550078788"><ele>885.0</ele><time>2026-04-12T07:26:04.968Z</time></trkpt><trkpt lat="37.85344885658367" lon="15.033125555172576"><ele>886.0</ele><time>2026-04-12T07:26:05.968Z</time></trkpt><trkpt lat="37.85347933116473" lon="15.032869318909114"><ele>887.0</ele><time>2026-04-12T07:26:06.968Z</time></trkpt><trkpt lat="37.8535205558798" lon="15.032592996631054"><ele>885.3333333333334</ele><time>2026-04-12T07:26:07.968Z</time></trkpt><trkpt lat="37.85355898220869" lon="15.032344133414991"><ele>883.6666666666667</ele><time>2026-04-12T07:26:08.968Z</time></trkpt><trkpt lat="37.85353421532289" lon="15.032114689841611"><ele>882.0</ele><time>2026-04-12T07:26:09.968Z</time></trkpt><trkpt lat="37.85353020309541" lon="15.031904488926118"><ele>882.0</ele><time>2026-04-12T07:26:10.968Z</time></trkpt><trkpt lat="37.85346776146103" lon="15.031705045735249"><ele>882.0</ele><time>2026-04-12T07:26:11.968Z</time></trkpt><trkpt lat="37.85342980341899" lon="15.031502030939679"><ele>882.0</ele><time>2026-04-12T07:26:12.968Z</time></trkpt><trkpt lat="37.853477266861276" lon="15.031329315280747"><ele>885.3333333333333</ele><time>2026-04-12T07:26:13.968Z</time></trkpt><trkpt lat="37.85355710330102" lon="15.031160911277894"><ele>888.6666666666666</ele><time>2026-04-12T07:26:14.968Z</time></trkpt><trkpt lat="37.853660346268065" lon="15.030941935752011"><ele>892.0</ele><time>2026-04-12T07:26:15.968Z</time></trkpt><trkpt lat="37.8537649903362" lon="15.030728636915708"><ele>896.0</ele><time>2026-04-12T07:26:16.968Z</time></trkpt><trkpt lat="37.85386200646344" lon="15.030531961497008"><ele>900.0</ele><time>2026-04-12T07:26:17.968Z</time></trkpt><trkpt lat="37.853910742826045" lon="15.030324318689193"><ele>904.0</ele><time>2026-04-12T07:26:18.968Z</time></trkpt><trkpt lat="37.85395176392633" lon="15.030135231671323"><ele>902.3333333333333</ele><time>2026-04-12T07:26:19.968Z</time></trkpt><trkpt lat="37.85387428157942" lon="15.029951831520235"><ele>900.6666666666667</ele><time>2026-04-12T07:26:20.968Z</time></trkpt><trkpt lat="37.85380936858236" lon="15.029706265973886"><ele>899.0</ele><time>2026-04-12T07:26:21.968Z</time></trkpt><trkpt lat="37.85374247129074" lon="15.02945831175778"><ele>899.0</ele><time>2026-04-12T07:26:22.968Z</time></trkpt><trkpt lat="37.8536624090564" lon="15.029148446962376"><ele>899.0</ele><time>2026-04-12T07:26:23.968Z</time></trkpt><trkpt lat="37.853599330096884" lon="15.028829751196723"><ele>901.0</ele><time>2026-04-12T07:26:24.968Z</time></trkpt><trkpt lat="37.853574282310305" lon="15.02853909358067"><ele>903.0</ele><time>2026-04-12T07:26:25.968Z</time></trkpt><trkpt lat="37.85360521452163" lon="15.02826314926946"><ele>907.0</ele><time>2026-04-12T07:26:26.968Z</time></trkpt><trkpt lat="37.85371752334571" lon="15.028011019339814"><ele>911.0</ele><time>2026-04-12T07:26:27.967Z</time></trkpt><trkpt lat="37.853827426989895" lon="15.027729774662514"><ele>912.6666666666667</ele><time>2026-04-12T07:26:28.967Z</time></trkpt><trkpt lat="37.853929694232264" lon="15.027473837572153"><ele>914.3333333333333</ele><time>2026-04-12T07:26:29.967Z</time></trkpt><trkpt lat="37.85400682989086" lon="15.027237932118059"><ele>916.0</ele><time>2026-04-12T07:26:30.967Z</time></trkpt><trkpt lat="37.85406813670109" lon="15.026982027893938"><ele>916.0</ele><time>2026-04-12T07:26:31.967Z</time></trkpt><trkpt lat="37.854082475673195" lon="15.026701566728475"><ele>916.0</ele><time>2026-04-12T07:26:32.967Z</time></trkpt><trkpt lat="37.85408416939478" lon="15.026433904167428"><ele>916.0</ele><time>2026-04-12T07:26:33.967Z</time></trkpt><trkpt lat="37.8541187718558" lon="15.0261925689092"><ele>914.6666666666666</ele><time>2026-04-12T07:26:34.967Z</time></trkpt><trkpt lat="37.854223477888944" lon="15.025988544003182"><ele>913.3333333333333</ele><time>2026-04-12T07:26:35.967Z</time></trkpt><trkpt lat="37.85433142387548" lon="15.025752581803841"><ele>912.0</ele><time>2026-04-12T07:26:36.967Z</time></trkpt><trkpt lat="37.85443371515766" lon="15.02549994476663"><ele>912.0</ele><time>2026-04-12T07:26:37.994Z</time></trkpt><trkpt lat="37.854545036447426" lon="15.025268178329341"><ele>912.0</ele><time>2026-04-12T07:26:38.994Z</time></trkpt><trkpt lat="37.854655077354145" lon="15.025031189998213"><ele>912.0</ele><time>2026-04-12T07:26:39.994Z</time></trkpt><trkpt lat="37.854768563148625" lon="15.024804351868847"><ele>912.6666666666667</ele><time>2026-04-12T07:26:40.994Z</time></trkpt><trkpt lat="37.85486619476875" lon="15.024586625455829"><ele>913.3333333333334</ele><time>2026-04-12T07:26:41.994Z</time></trkpt><trkpt lat="37.85493959335479" lon="15.024365657756057"><ele>914.0</ele><time>2026-04-12T07:26:42.994Z</time></trkpt><trkpt lat="37.854979843617855" lon="15.024121188072154"><ele>912.3333333333334</ele><time>2026-04-12T07:26:43.994Z</time></trkpt><trkpt lat="37.8549946948911" lon="15.023856505944217"><ele>910.6666666666667</ele><time>2026-04-12T07:26:44.994Z</time></trkpt><trkpt lat="37.8550099466727" lon="15.023600034097425"><ele>909.0</ele><time>2026-04-12T07:26:45.994Z</time></trkpt><trkpt lat="37.85501973046356" lon="15.023344407056426"><ele>908.6666666666667</ele><time>2026-04-12T07:26:46.994Z</time></trkpt><trkpt lat="37.85500693449697" lon="15.023082774451165"><ele>908.3333333333334</ele><time>2026-04-12T07:26:47.994Z</time></trkpt><trkpt lat="37.85496238692392" lon="15.022813397276929"><ele>908.0</ele><time>2026-04-12T07:26:48.994Z</time></trkpt><trkpt lat="37.85489431492311" lon="15.02254319546635"><ele>907.3333333333334</ele><time>2026-04-12T07:26:49.994Z</time></trkpt><trkpt lat="37.85481434109594" lon="15.02227874025293"><ele>906.6666666666667</ele><time>2026-04-12T07:26:50.994Z</time></trkpt><trkpt lat="37.854736832061356" lon="15.022020858929919"><ele>906.0</ele><time>2026-04-12T07:26:51.994Z</time></trkpt><trkpt lat="37.85466869664283" lon="15.021782113863065"><ele>905.3333333333333</ele><time>2026-04-12T07:26:52.994Z</time></trkpt><trkpt lat="37.85458918845499" lon="15.021558391522243"><ele>904.6666666666666</ele><time>2026-04-12T07:26:53.994Z</time></trkpt><trkpt lat="37.854470230120775" lon="15.021354923298588"><ele>904.0</ele><time>2026-04-12T07:26:54.994Z</time></trkpt><trkpt lat="37.854311760022135" lon="15.021164914264261"><ele>907.3333333333333</ele><time>2026-04-12T07:26:55.994Z</time></trkpt><trkpt lat="37.85413801362264" lon="15.020980967037325"><ele>910.6666666666667</ele><time>2026-04-12T07:26:56.994Z</time></trkpt><trkpt lat="37.853976849973925" lon="15.020786496699312"><ele>914.0</ele><time>2026-04-12T07:26:57.993Z</time></trkpt><trkpt lat="37.853819806629915" lon="15.020585394953102"><ele>914.0</ele><time>2026-04-12T07:26:58.993Z</time></trkpt><trkpt lat="37.853665788467545" lon="15.02037897364262"><ele>914.0</ele><time>2026-04-12T07:26:59.993Z</time></trkpt><trkpt lat="37.85350954675918" lon="15.02018522032695"><ele>914.0</ele><time>2026-04-12T07:27:00.993Z</time></trkpt><trkpt lat="37.85335870189404" lon="15.019995380282639"><ele>917.0</ele><time>2026-04-12T07:27:01.993Z</time></trkpt><trkpt lat="37.8532097130325" lon="15.019816818763747"><ele>920.0</ele><time>2026-04-12T07:27:02.993Z</time></trkpt><trkpt lat="37.85309216240301" lon="15.019628154396987"><ele>923.0</ele><time>2026-04-12T07:27:03.993Z</time></trkpt><trkpt lat="37.853000683022664" lon="15.019446547428664"><ele>923.0</ele><time>2026-04-12T07:27:04.993Z</time></trkpt><trkpt lat="37.85296070545973" lon="15.019272485351328"><ele>923.0</ele><time>2026-04-12T07:27:05.993Z</time></trkpt><trkpt lat="37.85296366047565" lon="15.019073085410936"><ele>923.0</ele><time>2026-04-12T07:27:06.993Z</time></trkpt><trkpt lat="37.85301011268284" lon="15.018839907598514"><ele>924.0</ele><time>2026-04-12T07:27:07.993Z</time></trkpt><trkpt lat="37.853068841855084" lon="15.01855211868827"><ele>925.0</ele><time>2026-04-12T07:27:08.993Z</time></trkpt><trkpt lat="37.853118993389415" lon="15.018298799837401"><ele>926.0</ele><time>2026-04-12T07:27:09.993Z</time></trkpt><trkpt lat="37.85317885560114" lon="15.018084831610471"><ele>928.3333333333334</ele><time>2026-04-12T07:27:10.993Z</time></trkpt><trkpt lat="37.85327177656511" lon="15.017930336028511"><ele>930.6666666666667</ele><time>2026-04-12T07:27:11.993Z</time></trkpt><trkpt lat="37.85341648314303" lon="15.017823754182135"><ele>933.0</ele><time>2026-04-12T07:27:12.993Z</time></trkpt><trkpt lat="37.85360287159995" lon="15.01769902024878"><ele>933.0</ele><time>2026-04-12T07:27:13.993Z</time></trkpt><trkpt lat="37.85378502727462" lon="15.017563869139353"><ele>933.0</ele><time>2026-04-12T07:27:14.993Z</time></trkpt><trkpt lat="37.85396699473443" lon="15.017425450356134"><ele>933.0</ele><time>2026-04-12T07:27:15.993Z</time></trkpt><trkpt lat="37.854126325745646" lon="15.017280806131083"><ele>934.3333333333333</ele><time>2026-04-12T07:27:16.993Z</time></trkpt><trkpt lat="37.85426214454923" lon="15.017129105319196"><ele>935.6666666666666</ele><time>2026-04-12T07:27:17.993Z</time></trkpt><trkpt lat="37.854368880592894" lon="15.016958439977422"><ele>937.0</ele><time>2026-04-12T07:27:18.993Z</time></trkpt><trkpt lat="37.854413922281864" lon="15.01671061288992"><ele>938.5</ele><time>2026-04-12T07:27:19.993Z</time></trkpt><trkpt lat="37.854433995430774" lon="15.016422889549439"><ele>940.0</ele><time>2026-04-12T07:27:20.993Z</time></trkpt><trkpt lat="37.854434234240095" lon="15.016123750662237"><ele>940.5</ele><time>2026-04-12T07:27:21.993Z</time></trkpt><trkpt lat="37.854445883014506" lon="15.015807510473596"><ele>941.0</ele><time>2026-04-12T07:27:22.993Z</time></trkpt><trkpt lat="37.85447335732058" lon="15.015488281108889"><ele>941.0</ele><time>2026-04-12T07:27:23.995Z</time></trkpt><trkpt lat="37.85449795803399" lon="15.015196689165089"><ele>941.0</ele><time>2026-04-12T07:27:24.996Z</time></trkpt><trkpt lat="37.85451012313978" lon="15.014940266996156"><ele>941.0</ele><time>2026-04-12T07:27:25.996Z</time></trkpt><trkpt lat="37.8544803582601" lon="15.014706762076187"><ele>940.3333333333334</ele><time>2026-04-12T07:27:26.996Z</time></trkpt><trkpt lat="37.854383205566016" lon="15.014483538107438"><ele>939.6666666666667</ele><time>2026-04-12T07:27:27.995Z</time></trkpt><trkpt lat="37.85424460339943" lon="15.014266366124753"><ele>939.0</ele><time>2026-04-12T07:27:28.995Z</time></trkpt><trkpt lat="37.854160311641444" lon="15.014001656625307"><ele>945.5</ele><time>2026-04-12T07:27:29.996Z</time></trkpt><trkpt lat="37.85412570443443" lon="15.013696077565077"><ele>952.0</ele><time>2026-04-12T07:27:30.996Z</time></trkpt><trkpt lat="37.854090825037964" lon="15.01336717552236"><ele>953.5</ele><time>2026-04-12T07:27:31.996Z</time></trkpt><trkpt lat="37.85405482976525" lon="15.013027751047332"><ele>955.0</ele><time>2026-04-12T07:27:32.996Z</time></trkpt><trkpt lat="37.85401871732061" lon="15.012685881069432"><ele>955.0</ele><time>2026-04-12T07:27:33.995Z</time></trkpt><trkpt lat="37.85398313627012" lon="15.012348462495858"><ele>955.0</ele><time>2026-04-12T07:27:34.995Z</time></trkpt><trkpt lat="37.85394867215303" lon="15.012038988222665"><ele>955.0</ele><time>2026-04-12T07:27:35.995Z</time></trkpt><trkpt lat="37.853902954810415" lon="15.01176410610245"><ele>955.0</ele><time>2026-04-12T07:27:36.995Z</time></trkpt><trkpt lat="37.85390093673808" lon="15.011491529023317"><ele>955.0</ele><time>2026-04-12T07:27:37.995Z</time></trkpt><trkpt lat="37.853907919417594" lon="15.011223581278758"><ele>954.6666666666666</ele><time>2026-04-12T07:27:38.995Z</time></trkpt><trkpt lat="37.85395799865423" lon="15.010965378696943"><ele>954.3333333333333</ele><time>2026-04-12T07:27:39.995Z</time></trkpt><trkpt lat="37.85402180086285" lon="15.010687184075243"><ele>954.0</ele><time>2026-04-12T07:27:40.995Z</time></trkpt><trkpt lat="37.854100084195956" lon="15.010390281286773"><ele>954.0</ele><time>2026-04-12T07:27:41.995Z</time></trkpt><trkpt lat="37.854192309238975" lon="15.010106937792807"><ele>954.0</ele><time>2026-04-12T07:27:42.995Z</time></trkpt><trkpt lat="37.854256924015935" lon="15.009829157177897"><ele>951.0</ele><time>2026-04-12T07:27:43.995Z</time></trkpt><trkpt lat="37.85432737428012" lon="15.009557920872446"><ele>948.0</ele><time>2026-04-12T07:27:44.995Z</time></trkpt><trkpt lat="37.85435126311816" lon="15.009258359863399"><ele>948.5</ele><time>2026-04-12T07:27:45.995Z</time></trkpt><trkpt lat="37.854332972337126" lon="15.008952668953482"><ele>949.0</ele><time>2026-04-12T07:27:46.995Z</time></trkpt><trkpt lat="37.85431632718847" lon="15.008644379115104"><ele>949.0</ele><time>2026-04-12T07:27:47.995Z</time></trkpt><trkpt lat="37.85430233085267" lon="15.008341628667033"><ele>949.0</ele><time>2026-04-12T07:27:48.995Z</time></trkpt><trkpt lat="37.854313778861886" lon="15.00804366281873"><ele>948.0</ele><time>2026-04-12T07:27:49.995Z</time></trkpt><trkpt lat="37.85429393456747" lon="15.007745831551183"><ele>947.0</ele><time>2026-04-12T07:27:50.995Z</time></trkpt><trkpt lat="37.85429063792525" lon="15.007450171544324"><ele>946.5</ele><time>2026-04-12T07:27:51.995Z</time></trkpt><trkpt lat="37.854281935434" lon="15.007154702318442"><ele>946.0</ele><time>2026-04-12T07:27:52.995Z</time></trkpt><trkpt lat="37.8542938972955" lon="15.006853924686805"><ele>950.5</ele><time>2026-04-12T07:27:53.995Z</time></trkpt><trkpt lat="37.85428506602299" lon="15.006560615789978"><ele>955.0</ele><time>2026-04-12T07:27:54.995Z</time></trkpt><trkpt lat="37.85427965868934" lon="15.006270110759688"><ele>955.0</ele><time>2026-04-12T07:27:55.995Z</time></trkpt><trkpt lat="37.85426957773529" lon="15.005989148715466"><ele>955.0</ele><time>2026-04-12T07:27:56.995Z</time></trkpt><trkpt lat="37.85425348707957" lon="15.005709064425732"><ele>955.0</ele><time>2026-04-12T07:27:57.995Z</time></trkpt><trkpt lat="37.85424138057974" lon="15.00543079485197"><ele>954.3333333333333</ele><time>2026-04-12T07:27:58.995Z</time></trkpt><trkpt lat="37.85423133400034" lon="15.005153336896656"><ele>953.6666666666667</ele><time>2026-04-12T07:27:59.995Z</time></trkpt><trkpt lat="37.854220696316524" lon="15.004881252998786"><ele>953.0</ele><time>2026-04-12T07:28:00.995Z</time></trkpt><trkpt lat="37.8542094910684" lon="15.004612554169734"><ele>953.0</ele><time>2026-04-12T07:28:01.995Z</time></trkpt><trkpt lat="37.85421666269525" lon="15.004350338188445"><ele>953.0</ele><time>2026-04-12T07:28:02.995Z</time></trkpt><trkpt lat="37.854305506867405" lon="15.004111981492136"><ele>953.0</ele><time>2026-04-12T07:28:03.994Z</time></trkpt><trkpt lat="37.85444020187209" lon="15.003867387043233"><ele>948.5</ele><time>2026-04-12T07:28:04.994Z</time></trkpt><trkpt lat="37.85462315788055" lon="15.003660471805533"><ele>944.0</ele><time>2026-04-12T07:28:05.994Z</time></trkpt><trkpt lat="37.85480382807353" lon="15.003451979039887"><ele>946.3333333333334</ele><time>2026-04-12T07:28:06.994Z</time></trkpt><trkpt lat="37.85497989322264" lon="15.003279638016213"><ele>948.6666666666667</ele><time>2026-04-12T07:28:07.994Z</time></trkpt><trkpt lat="37.85510931732229" lon="15.003049795625735"><ele>951.0</ele><time>2026-04-12T07:28:08.994Z</time></trkpt><trkpt lat="37.85521510284912" lon="15.002768509681504"><ele>947.5</ele><time>2026-04-12T07:28:09.994Z</time></trkpt><trkpt lat="37.855317818833164" lon="15.002469161727685"><ele>944.0</ele><time>2026-04-12T07:28:10.994Z</time></trkpt><trkpt lat="37.8554125365431" lon="15.002164768906177"><ele>944.0</ele><time>2026-04-12T07:28:11.994Z</time></trkpt><trkpt lat="37.85551202407833" lon="15.001872302629842"><ele>944.0</ele><time>2026-04-12T07:28:12.994Z</time></trkpt><trkpt lat="37.85561482172456" lon="15.00158552123045"><ele>946.0</ele><time>2026-04-12T07:28:13.994Z</time></trkpt><trkpt lat="37.85571980021765" lon="15.001316691795301"><ele>948.0</ele><time>2026-04-12T07:28:14.994Z</time></trkpt><trkpt lat="37.855817250402126" lon="15.00105819459398"><ele>946.6666666666667</ele><time>2026-04-12T07:28:15.994Z</time></trkpt><trkpt lat="37.85590844644784" lon="15.000804350898019"><ele>945.3333333333334</ele><time>2026-04-12T07:28:16.994Z</time></trkpt><trkpt lat="37.85597427101686" lon="15.000553833371024"><ele>944.0</ele><time>2026-04-12T07:28:17.994Z</time></trkpt><trkpt lat="37.85599225116994" lon="15.000272178564774"><ele>944.0</ele><time>2026-04-12T07:28:18.994Z</time></trkpt><trkpt lat="37.855975853122146" lon="14.999967264948342"><ele>944.0</ele><time>2026-04-12T07:28:19.994Z</time></trkpt><trkpt lat="37.85594199087804" lon="14.999646597666468"><ele>944.0</ele><time>2026-04-12T07:28:20.994Z</time></trkpt><trkpt lat="37.85590246279461" lon="14.999315469190032"><ele>944.0</ele><time>2026-04-12T07:28:21.994Z</time></trkpt><trkpt lat="37.85588248084031" lon="14.998991476953796"><ele>941.5</ele><time>2026-04-12T07:28:22.994Z</time></trkpt><trkpt lat="37.85586098529731" lon="14.998675656965984"><ele>939.0</ele><time>2026-04-12T07:28:23.994Z</time></trkpt><trkpt lat="37.855843066082336" lon="14.998366043206431"><ele>940.0</ele><time>2026-04-12T07:28:24.994Z</time></trkpt><trkpt lat="37.855827907600286" lon="14.998066325620536"><ele>941.0</ele><time>2026-04-12T07:28:25.994Z</time></trkpt><trkpt lat="37.85581246916229" lon="14.99777252716758"><ele>941.0</ele><time>2026-04-12T07:28:26.994Z</time></trkpt><trkpt lat="37.85579166456543" lon="14.99750886716851"><ele>941.0</ele><time>2026-04-12T07:28:27.994Z</time></trkpt><trkpt lat="37.85579890567349" lon="14.997255310737527"><ele>941.0</ele><time>2026-04-12T07:28:28.994Z</time></trkpt><trkpt lat="37.85586491409445" lon="14.997007029796867"><ele>940.5</ele><time>2026-04-12T07:28:29.994Z</time></trkpt><trkpt lat="37.85594998983226" lon="14.996752003321564"><ele>940.0</ele><time>2026-04-12T07:28:30.994Z</time></trkpt><trkpt lat="37.85602963666531" lon="14.9964696329395"><ele>933.0</ele><time>2026-04-12T07:28:31.994Z</time></trkpt><trkpt lat="37.856125718058884" lon="14.996186392288994"><ele>926.0</ele><time>2026-04-12T07:28:32.994Z</time></trkpt><trkpt lat="37.85623109936477" lon="14.995917693987902"><ele>925.0</ele><time>2026-04-12T07:28:33.994Z</time></trkpt><trkpt lat="37.85632345987706" lon="14.995644208130438"><ele>924.0</ele><time>2026-04-12T07:28:34.994Z</time></trkpt><trkpt lat="37.856414634479876" lon="14.995374409069205"><ele>924.0</ele><time>2026-04-12T07:28:35.994Z</time></trkpt><trkpt lat="37.85650228417066" lon="14.995114641223841"><ele>924.0</ele><time>2026-04-12T07:28:36.994Z</time></trkpt><trkpt lat="37.85658503754942" lon="14.994866819375153"><ele>924.0</ele><time>2026-04-12T07:28:37.994Z</time></trkpt><trkpt lat="37.856657152584475" lon="14.994607044058101"><ele>925.5</ele><time>2026-04-12T07:28:38.994Z</time></trkpt><trkpt lat="37.85667905336049" lon="14.99433523610359"><ele>927.0</ele><time>2026-04-12T07:28:39.994Z</time></trkpt><trkpt lat="37.85664066057849" lon="14.994028561601981"><ele>927.0</ele><time>2026-04-12T07:28:40.993Z</time></trkpt><trkpt lat="37.856617489694976" lon="14.993711237527966"><ele>927.0</ele><time>2026-04-12T07:28:41.993Z</time></trkpt><trkpt lat="37.85659254381786" lon="14.993395432305011"><ele>926.5</ele><time>2026-04-12T07:28:42.993Z</time></trkpt><trkpt lat="37.85657052139158" lon="14.993076751991557"><ele>926.0</ele><time>2026-04-12T07:28:43.993Z</time></trkpt><trkpt lat="37.85658478093932" lon="14.99274512400192"><ele>923.5</ele><time>2026-04-12T07:28:44.993Z</time></trkpt><trkpt lat="37.85656419329013" lon="14.99241482782608"><ele>921.0</ele><time>2026-04-12T07:28:45.993Z</time></trkpt><trkpt lat="37.8565437640282" lon="14.99208707280207"><ele>921.0</ele><time>2026-04-12T07:28:46.993Z</time></trkpt><trkpt lat="37.856523485524974" lon="14.991759454190124"><ele>921.0</ele><time>2026-04-12T07:28:47.993Z</time></trkpt><trkpt lat="37.856503814497195" lon="14.991430699449957"><ele>921.0</ele><time>2026-04-12T07:28:48.993Z</time></trkpt><trkpt lat="37.856484527922" lon="14.991109018916216"><ele>921.0</ele><time>2026-04-12T07:28:49.993Z</time></trkpt><trkpt lat="37.856465817157066" lon="14.99080125401794"><ele>921.0</ele><time>2026-04-12T07:28:50.993Z</time></trkpt><trkpt lat="37.856447898034595" lon="14.99050605921679"><ele>921.0</ele><time>2026-04-12T07:28:51.993Z</time></trkpt><trkpt lat="37.85643112087203" lon="14.990232474096448"><ele>923.0</ele><time>2026-04-12T07:28:52.993Z</time></trkpt><trkpt lat="37.85641560100606" lon="14.98997417837906"><ele>925.0</ele><time>2026-04-12T07:28:53.993Z</time></trkpt><trkpt lat="37.85640206394443" lon="14.989741085320922"><ele>927.0</ele><time>2026-04-12T07:28:54.993Z</time></trkpt><trkpt lat="37.856369952110235" lon="14.98952344052749"><ele>927.0</ele><time>2026-04-12T07:28:55.993Z</time></trkpt><trkpt lat="37.8562669685515" lon="14.98933396995434"><ele>927.0</ele><time>2026-04-12T07:28:56.993Z</time></trkpt><trkpt lat="37.856147134172275" lon="14.989149866354696"><ele>927.0</ele><time>2026-04-12T07:28:57.993Z</time></trkpt><trkpt lat="37.856013959381436" lon="14.988939356306393"><ele>928.5</ele><time>2026-04-12T07:28:58.993Z</time></trkpt><trkpt lat="37.8558596573601" lon="14.988717391537946"><ele>930.0</ele><time>2026-04-12T07:28:59.993Z</time></trkpt><trkpt lat="37.855702664351966" lon="14.988491838578947"><ele>929.0</ele><time>2026-04-12T07:29:00.993Z</time></trkpt><trkpt lat="37.85556814694489" lon="14.988293852358447"><ele>928.0</ele><time>2026-04-12T07:29:01.993Z</time></trkpt><trkpt lat="37.85548367574279" lon="14.988117954584038"><ele>927.0</ele><time>2026-04-12T07:29:02.993Z</time></trkpt><trkpt lat="37.85543558966539" lon="14.987935824540687"><ele>927.0</ele><time>2026-04-12T07:29:03.993Z</time></trkpt><trkpt lat="37.85543209264905" lon="14.987736881379158"><ele>927.0</ele><time>2026-04-12T07:29:04.993Z</time></trkpt><trkpt lat="37.85545595984194" lon="14.987533116736184"><ele>927.0</ele><time>2026-04-12T07:29:05.993Z</time></trkpt><trkpt lat="37.855534588501556" lon="14.987349326601569"><ele>925.6666666666667</ele><time>2026-04-12T07:29:06.993Z</time></trkpt><trkpt lat="37.85562443502635" lon="14.987099554888271"><ele>924.3333333333334</ele><time>2026-04-12T07:29:07.993Z</time></trkpt><trkpt lat="37.855717393086" lon="14.986839213038401"><ele>923.0</ele><time>2026-04-12T07:29:08.993Z</time></trkpt><trkpt lat="37.8558151720624" lon="14.986563386964457"><ele>922.0</ele><time>2026-04-12T07:29:09.993Z</time></trkpt><trkpt lat="37.85591312057459" lon="14.986290128347104"><ele>921.0</ele><time>2026-04-12T07:29:10.993Z</time></trkpt><trkpt lat="37.85600639225385" lon="14.986029185356761"><ele>916.3333333333333</ele><time>2026-04-12T07:29:11.993Z</time></trkpt><trkpt lat="37.8560844535954" lon="14.985771650425466"><ele>911.6666666666666</ele><time>2026-04-12T07:29:12.993Z</time></trkpt><trkpt lat="37.85611843839913" lon="14.985501337803134"><ele>907.0</ele><time>2026-04-12T07:29:13.993Z</time></trkpt><trkpt lat="37.85613508077523" lon="14.985238221213399"><ele>906.0</ele><time>2026-04-12T07:29:14.993Z</time></trkpt><trkpt lat="37.85609358438209" lon="14.984989442321035"><ele>905.0</ele><time>2026-04-12T07:29:15.993Z</time></trkpt><trkpt lat="37.856014405349605" lon="14.984745860454831"><ele>904.0</ele><time>2026-04-12T07:29:16.993Z</time></trkpt><trkpt lat="37.85590249761758" lon="14.984447379185628"><ele>908.5</ele><time>2026-04-12T07:29:17.992Z</time></trkpt><trkpt lat="37.8557953165858" lon="14.984135756407936"><ele>913.0</ele><time>2026-04-12T07:29:18.992Z</time></trkpt><trkpt lat="37.85569227878549" lon="14.9838153481085"><ele>913.0</ele><time>2026-04-12T07:29:19.992Z</time></trkpt><trkpt lat="37.85559985321113" lon="14.983512862407183"><ele>913.0</ele><time>2026-04-12T07:29:20.992Z</time></trkpt><trkpt lat="37.85551171837944" lon="14.983239336131614"><ele>910.6666666666666</ele><time>2026-04-12T07:29:21.992Z</time></trkpt><trkpt lat="37.85538493619595" lon="14.983009504813387"><ele>908.3333333333333</ele><time>2026-04-12T07:29:22.992Z</time></trkpt><trkpt lat="37.85526768202382" lon="14.982766075806428"><ele>906.0</ele><time>2026-04-12T07:29:23.992Z</time></trkpt><trkpt lat="37.855162590494565" lon="14.98251806924656"><ele>909.0</ele><time>2026-04-12T07:29:24.992Z</time></trkpt><trkpt lat="37.8550610659405" lon="14.982278841256576"><ele>912.0</ele><time>2026-04-12T07:29:25.992Z</time></trkpt><trkpt lat="37.854972633151576" lon="14.98202169697914"><ele>915.0</ele><time>2026-04-12T07:29:26.992Z</time></trkpt><trkpt lat="37.85489287357256" lon="14.981738614499996"><ele>913.0</ele><time>2026-04-12T07:29:27.992Z</time></trkpt><trkpt lat="37.85482357873265" lon="14.981453192216074"><ele>911.0</ele><time>2026-04-12T07:29:28.992Z</time></trkpt><trkpt lat="37.854750709147034" lon="14.981160209728714"><ele>911.0</ele><time>2026-04-12T07:29:29.995Z</time></trkpt><trkpt lat="37.854676982859125" lon="14.980866220493514"><ele>911.0</ele><time>2026-04-12T07:29:30.996Z</time></trkpt><trkpt lat="37.854604503421676" lon="14.980577203070508"><ele>909.0</ele><time>2026-04-12T07:29:31.995Z</time></trkpt><trkpt lat="37.854534887659035" lon="14.98029723006238"><ele>907.0</ele><time>2026-04-12T07:29:32.996Z</time></trkpt><trkpt lat="37.85446702309057" lon="14.980020903161583"><ele>907.0</ele><time>2026-04-12T07:29:33.995Z</time></trkpt><trkpt lat="37.85440309453092" lon="14.979751704670909"><ele>907.0</ele><time>2026-04-12T07:29:34.995Z</time></trkpt><trkpt lat="37.85434451828354" lon="14.97948202325372"><ele>907.0</ele><time>2026-04-12T07:29:35.995Z</time></trkpt><trkpt lat="37.85432838690023" lon="14.979211049694715"><ele>908.3333333333333</ele><time>2026-04-12T07:29:36.995Z</time></trkpt><trkpt lat="37.85435310599807" lon="14.978940963985721"><ele>909.6666666666667</ele><time>2026-04-12T07:29:37.995Z</time></trkpt><trkpt lat="37.85439760057632" lon="14.978654884542946"><ele>911.0</ele><time>2026-04-12T07:29:38.996Z</time></trkpt><trkpt lat="37.854442361816396" lon="14.978364633222753"><ele>911.3333333333334</ele><time>2026-04-12T07:29:39.995Z</time></trkpt><trkpt lat="37.85446772014969" lon="14.978088004743267"><ele>911.6666666666667</ele><time>2026-04-12T07:29:40.995Z</time></trkpt><trkpt lat="37.85451106922664" lon="14.977816034248196"><ele>912.0</ele><time>2026-04-12T07:29:41.996Z</time></trkpt><trkpt lat="37.85455860710207" lon="14.977539813529463"><ele>912.5</ele><time>2026-04-12T07:29:42.996Z</time></trkpt><trkpt lat="37.85460380208339" lon="14.977260535028904"><ele>913.0</ele><time>2026-04-12T07:29:43.996Z</time></trkpt><trkpt lat="37.854647810607815" lon="14.976980448788876"><ele>913.0</ele><time>2026-04-12T07:29:44.996Z</time></trkpt><trkpt lat="37.854682864234114" lon="14.976697712815444"><ele>913.0</ele><time>2026-04-12T07:29:45.996Z</time></trkpt><trkpt lat="37.85471941319712" lon="14.976424404412342"><ele>913.0</ele><time>2026-04-12T07:29:46.996Z</time></trkpt><trkpt lat="37.85476210397855" lon="14.97615339610203"><ele>912.0</ele><time>2026-04-12T07:29:47.996Z</time></trkpt><trkpt lat="37.854801809355976" lon="14.97588393649127"><ele>911.0</ele><time>2026-04-12T07:29:48.996Z</time></trkpt><trkpt lat="37.85484354139051" lon="14.975612917045504"><ele>910.0</ele><time>2026-04-12T07:29:49.996Z</time></trkpt><trkpt lat="37.85488703588337" lon="14.975348694830817"><ele>910.0</ele><time>2026-04-12T07:29:50.996Z</time></trkpt><trkpt lat="37.854961620004055" lon="14.975102086603977"><ele>910.0</ele><time>2026-04-12T07:29:51.995Z</time></trkpt><trkpt lat="37.85503066985452" lon="14.97486858726974"><ele>910.0</ele><time>2026-04-12T07:29:52.995Z</time></trkpt><trkpt lat="37.85508823723375" lon="14.974636912969267"><ele>907.0</ele><time>2026-04-12T07:29:53.995Z</time></trkpt><trkpt lat="37.855161329895004" lon="14.97442394700764"><ele>904.0</ele><time>2026-04-12T07:29:54.995Z</time></trkpt><trkpt lat="37.85521616609614" lon="14.974203018470329"><ele>901.0</ele><time>2026-04-12T07:29:55.995Z</time></trkpt><trkpt lat="37.85524119190881" lon="14.973971692568858"><ele>900.0</ele><time>2026-04-12T07:29:56.995Z</time></trkpt><trkpt lat="37.85524586805101" lon="14.973746073604447"><ele>899.0</ele><time>2026-04-12T07:29:57.995Z</time></trkpt><trkpt lat="37.85523554782043" lon="14.97353603949406"><ele>898.0</ele><time>2026-04-12T07:29:58.995Z</time></trkpt><trkpt lat="37.85523175722148" lon="14.973337052180383"><ele>897.75</ele><time>2026-04-12T07:29:59.995Z</time></trkpt><trkpt lat="37.85521799129303" lon="14.973146493269828"><ele>897.5</ele><time>2026-04-12T07:30:00.995Z</time></trkpt><trkpt lat="37.85520883818357" lon="14.972965499996743"><ele>897.25</ele><time>2026-04-12T07:30:01.995Z</time></trkpt><trkpt lat="37.85520470073224" lon="14.972790024907505"><ele>897.0</ele><time>2026-04-12T07:30:02.995Z</time></trkpt><trkpt lat="37.85520099204056" lon="14.972614197970952"><ele>896.0</ele><time>2026-04-12T07:30:03.995Z</time></trkpt><trkpt lat="37.85519557897051" lon="14.972442790449687"><ele>895.0</ele><time>2026-04-12T07:30:04.995Z</time></trkpt><trkpt lat="37.855190536294174" lon="14.972271125798821"><ele>894.0</ele><time>2026-04-12T07:30:05.995Z</time></trkpt><trkpt lat="37.85518388869272" lon="14.97210500326517"><ele>893.0</ele><time>2026-04-12T07:30:06.995Z</time></trkpt><trkpt lat="37.85521147236857" lon="14.971956242926689"><ele>893.0</ele><time>2026-04-12T07:30:07.995Z</time></trkpt><trkpt lat="37.85523524611904" lon="14.97181439472033"><ele>893.0</ele><time>2026-04-12T07:30:08.995Z</time></trkpt><trkpt lat="37.855268400678824" lon="14.971685191781448"><ele>893.0</ele><time>2026-04-12T07:30:09.995Z</time></trkpt><trkpt lat="37.8552926710261" lon="14.971561510868714"><ele>893.0</ele><time>2026-04-12T07:30:10.995Z</time></trkpt><trkpt lat="37.855343168716765" lon="14.971469597501414"><ele>893.0</ele><time>2026-04-12T07:30:11.995Z</time></trkpt><trkpt lat="37.85539327501539" lon="14.97137575343599"><ele>894.1666666666667</ele><time>2026-04-12T07:30:12.995Z</time></trkpt><trkpt lat="37.85544467061009" lon="14.971275249693365"><ele>895.3333333333334</ele><time>2026-04-12T07:30:13.995Z</time></trkpt><trkpt lat="37.8554916987969" lon="14.971188951093465"><ele>896.5</ele><time>2026-04-12T07:30:14.995Z</time></trkpt><trkpt lat="37.855542142064266" lon="14.971109171042226"><ele>897.6666666666667</ele><time>2026-04-12T07:30:15.995Z</time></trkpt><trkpt lat="37.855586614596206" lon="14.971029776055879"><ele>898.8333333333334</ele><time>2026-04-12T07:30:16.995Z</time></trkpt><trkpt lat="37.855633625430265" lon="14.970964223309084"><ele>900.0</ele><time>2026-04-12T07:30:17.995Z</time></trkpt><trkpt lat="37.85567668806487" lon="14.97087843928459"><ele>901.0</ele><time>2026-04-12T07:30:18.995Z</time></trkpt><trkpt lat="37.85571976853632" lon="14.970791023274579"><ele>902.0</ele><time>2026-04-12T07:30:19.995Z</time></trkpt><trkpt lat="37.85576826248728" lon="14.970703152198775"><ele>903.0</ele><time>2026-04-12T07:30:20.995Z</time></trkpt><trkpt lat="37.85581249980049" lon="14.970619051087898"><ele>904.0</ele><time>2026-04-12T07:30:21.995Z</time></trkpt><trkpt lat="37.85585671331763" lon="14.970540230544703"><ele>905.0</ele><time>2026-04-12T07:30:22.995Z</time></trkpt><trkpt lat="37.85589010525457" lon="14.97045346564494"><ele>906.0</ele><time>2026-04-12T07:30:23.995Z</time></trkpt><trkpt lat="37.85591589117201" lon="14.970363904654183"><ele>906.0</ele><time>2026-04-12T07:30:24.995Z</time></trkpt><trkpt lat="37.855925305239076" lon="14.970264181426709"><ele>906.0</ele><time>2026-04-12T07:30:25.995Z</time></trkpt><trkpt lat="37.85593162966423" lon="14.97016314262394"><ele>906.0</ele><time>2026-04-12T07:30:26.995Z</time></trkpt><trkpt lat="37.85593346544172" lon="14.970063650358856"><ele>906.0</ele><time>2026-04-12T07:30:27.995Z</time></trkpt><trkpt lat="37.85593529668424" lon="14.969963551992393"><ele>906.0</ele><time>2026-04-12T07:30:28.995Z</time></trkpt><trkpt lat="37.8559320026824" lon="14.96985906859757"><ele>906.0</ele><time>2026-04-12T07:30:29.994Z</time></trkpt><trkpt lat="37.85595119677371" lon="14.969741769820606"><ele>906.1666666666666</ele><time>2026-04-12T07:30:30.994Z</time></trkpt><trkpt lat="37.855949691596955" lon="14.969627020121253"><ele>906.3333333333333</ele><time>2026-04-12T07:30:31.994Z</time></trkpt><trkpt lat="37.85594928000126" lon="14.969522347137305"><ele>906.5</ele><time>2026-04-12T07:30:32.994Z</time></trkpt><trkpt lat="37.85594487569262" lon="14.969419346861939"><ele>906.6666666666666</ele><time>2026-04-12T07:30:33.994Z</time></trkpt><trkpt lat="37.85593901048562" lon="14.969319496667532"><ele>906.8333333333333</ele><time>2026-04-12T07:30:34.994Z</time></trkpt><trkpt lat="37.85593610567488" lon="14.969228302510754"><ele>907.0</ele><time>2026-04-12T07:30:35.994Z</time></trkpt><trkpt lat="37.85593564979346" lon="14.969143691886272"><ele>906.4000000000001</ele><time>2026-04-12T07:30:36.994Z</time></trkpt><trkpt lat="37.855935351411105" lon="14.968991399915232"><ele>905.8000000000001</ele><time>2026-04-12T07:30:38.994Z</time></trkpt><trkpt lat="37.8559313212418" lon="14.968848277146646"><ele>905.2</ele><time>2026-04-12T07:30:40.994Z</time></trkpt><trkpt lat="37.8559338054083" lon="14.96873118057672"><ele>904.6</ele><time>2026-04-12T07:30:42.994Z</time></trkpt><trkpt lat="37.85593096679951" lon="14.968624876508619"><ele>904.0</ele><time>2026-04-12T07:30:45.994Z</time></trkpt><trkpt lat="37.8559251845424" lon="14.968504381903282"><ele>904.8000000000001</ele><time>2026-04-12T07:30:48.994Z</time></trkpt><trkpt lat="37.855913751472414" lon="14.9683564761243"><ele>905.6000000000001</ele><time>2026-04-12T07:30:50.994Z</time></trkpt><trkpt lat="37.85591048231225" lon="14.96825278682027"><ele>906.4</ele><time>2026-04-12T07:30:51.994Z</time></trkpt><trkpt lat="37.85591343535714" lon="14.96815432718986"><ele>907.2</ele><time>2026-04-12T07:30:52.994Z</time></trkpt><trkpt lat="37.855910242965926" lon="14.968046702702337"><ele>908.0</ele><time>2026-04-12T07:30:53.994Z</time></trkpt><trkpt lat="37.85591113889364" lon="14.96792723719607"><ele>908.0</ele><time>2026-04-12T07:30:54.994Z</time></trkpt><trkpt lat="37.85591180031918" lon="14.967801148985439"><ele>908.0</ele><time>2026-04-12T07:30:55.994Z</time></trkpt><trkpt lat="37.8559158429744" lon="14.967662943936656"><ele>908.0</ele><time>2026-04-12T07:30:56.994Z</time></trkpt><trkpt lat="37.8559211524627" lon="14.967513717778294"><ele>908.0</ele><time>2026-04-12T07:30:57.994Z</time></trkpt><trkpt lat="37.85592562678455" lon="14.96736839954774"><ele>908.0</ele><time>2026-04-12T07:30:58.994Z</time></trkpt><trkpt lat="37.855922723651155" lon="14.967219911926223"><ele>909.0</ele><time>2026-04-12T07:30:59.994Z</time></trkpt><trkpt lat="37.85592284915856" lon="14.967065310389916"><ele>910.0</ele><time>2026-04-12T07:31:00.994Z</time></trkpt><trkpt lat="37.85595925300149" lon="14.966902391236234"><ele>911.0</ele><time>2026-04-12T07:31:01.994Z</time></trkpt><trkpt lat="37.855976041000304" lon="14.96673439682916"><ele>912.0</ele><time>2026-04-12T07:31:02.994Z</time></trkpt><trkpt lat="37.85598838177245" lon="14.96656614987301"><ele>908.3333333333333</ele><time>2026-04-12T07:31:03.994Z</time></trkpt><trkpt lat="37.85599631152195" lon="14.966385735768993"><ele>904.6666666666666</ele><time>2026-04-12T07:31:04.994Z</time></trkpt><trkpt lat="37.856005331982395" lon="14.96619608878575"><ele>901.0</ele><time>2026-04-12T07:31:05.994Z</time></trkpt><trkpt lat="37.85601024894762" lon="14.965996169299181"><ele>900.3333333333333</ele><time>2026-04-12T07:31:06.993Z</time></trkpt><trkpt lat="37.856017396229625" lon="14.965795946371532"><ele>899.6666666666667</ele><time>2026-04-12T07:31:07.993Z</time></trkpt><trkpt lat="37.85602059026931" lon="14.9655933906087"><ele>899.0</ele><time>2026-04-12T07:31:08.993Z</time></trkpt><trkpt lat="37.856020283922554" lon="14.965394848645563"><ele>899.0</ele><time>2026-04-12T07:31:09.993Z</time></trkpt><trkpt lat="37.85600288763876" lon="14.965205966494894"><ele>899.0</ele><time>2026-04-12T07:31:10.993Z</time></trkpt><trkpt lat="37.855938172054486" lon="14.965016767613925"><ele>899.0</ele><time>2026-04-12T07:31:11.993Z</time></trkpt><trkpt lat="37.85584323413419" lon="14.964815302963082"><ele>901.3333333333334</ele><time>2026-04-12T07:31:12.993Z</time></trkpt><trkpt lat="37.85574162884388" lon="14.964618568552156"><ele>903.6666666666667</ele><time>2026-04-12T07:31:13.993Z</time></trkpt><trkpt lat="37.855643061411975" lon="14.964418728789125"><ele>906.0</ele><time>2026-04-12T07:31:14.993Z</time></trkpt><trkpt lat="37.85555131283745" lon="14.964218229081446"><ele>904.6666666666667</ele><time>2026-04-12T07:31:15.993Z</time></trkpt><trkpt lat="37.855461885973796" lon="14.96401314105834"><ele>903.3333333333334</ele><time>2026-04-12T07:31:16.993Z</time></trkpt><trkpt lat="37.855365165517995" lon="14.963799369137991"><ele>902.0</ele><time>2026-04-12T07:31:17.993Z</time></trkpt><trkpt lat="37.85528017368059" lon="14.963601878391964"><ele>902.0</ele><time>2026-04-12T07:31:18.993Z</time></trkpt><trkpt lat="37.8552089885882" lon="14.963394337444406"><ele>902.0</ele><time>2026-04-12T07:31:19.993Z</time></trkpt><trkpt lat="37.85517675302466" lon="14.963163721649146"><ele>902.0</ele><time>2026-04-12T07:31:20.993Z</time></trkpt><trkpt lat="37.85518568902241" lon="14.96292302608803"><ele>900.6666666666667</ele><time>2026-04-12T07:31:21.993Z</time></trkpt><trkpt lat="37.85525049082815" lon="14.962694592356453"><ele>899.3333333333333</ele><time>2026-04-12T07:31:22.993Z</time></trkpt><trkpt lat="37.85529922835121" lon="14.962462296374547"><ele>898.0</ele><time>2026-04-12T07:31:23.993Z</time></trkpt><trkpt lat="37.855362335637274" lon="14.962236888052635"><ele>898.6666666666666</ele><time>2026-04-12T07:31:24.993Z</time></trkpt><trkpt lat="37.8554177142861" lon="14.962010556690645"><ele>899.3333333333333</ele><time>2026-04-12T07:31:25.993Z</time></trkpt><trkpt lat="37.85544809308073" lon="14.96177512389048"><ele>900.0</ele><time>2026-04-12T07:31:26.993Z</time></trkpt><trkpt lat="37.85545992666263" lon="14.961533611241306"><ele>900.0</ele><time>2026-04-12T07:31:27.993Z</time></trkpt><trkpt lat="37.85545314997761" lon="14.96128149591792"><ele>900.0</ele><time>2026-04-12T07:31:28.993Z</time></trkpt><trkpt lat="37.855448736778555" lon="14.961025038478544"><ele>900.0</ele><time>2026-04-12T07:31:29.993Z</time></trkpt><trkpt lat="37.85544863936108" lon="14.960763496341652"><ele>900.0</ele><time>2026-04-12T07:31:30.993Z</time></trkpt><trkpt lat="37.8554447528076" lon="14.960495836578033"><ele>900.0</ele><time>2026-04-12T07:31:31.993Z</time></trkpt><trkpt lat="37.85544112523126" lon="14.960227708680755"><ele>900.0</ele><time>2026-04-12T07:31:32.993Z</time></trkpt><trkpt lat="37.855434874437826" lon="14.959961158759782"><ele>900.0</ele><time>2026-04-12T07:31:33.993Z</time></trkpt><trkpt lat="37.855412892413355" lon="14.95969683777146"><ele>900.0</ele><time>2026-04-12T07:31:34.993Z</time></trkpt><trkpt lat="37.85536459635211" lon="14.959435240366743"><ele>900.0</ele><time>2026-04-12T07:31:35.995Z</time></trkpt><trkpt lat="37.855306771197796" lon="14.959170022136494"><ele>898.0</ele><time>2026-04-12T07:31:36.995Z</time></trkpt><trkpt lat="37.85524816305366" lon="14.958898674185141"><ele>896.0</ele><time>2026-04-12T07:31:37.995Z</time></trkpt><trkpt lat="37.85519508459305" lon="14.958625382866389"><ele>894.0</ele><time>2026-04-12T07:31:38.996Z</time></trkpt><trkpt lat="37.855142224453374" lon="14.958353497068014"><ele>897.0</ele><time>2026-04-12T07:31:39.995Z</time></trkpt><trkpt lat="37.855091796428724" lon="14.958084992783318"><ele>900.0</ele><time>2026-04-12T07:31:40.995Z</time></trkpt><trkpt lat="37.85507329643116" lon="14.957824066763978"><ele>903.0</ele><time>2026-04-12T07:31:41.995Z</time></trkpt><trkpt lat="37.85503826087416" lon="14.95758587489779"><ele>901.3333333333333</ele><time>2026-04-12T07:31:42.996Z</time></trkpt><trkpt lat="37.855021839976835" lon="14.95735322812877"><ele>899.6666666666666</ele><time>2026-04-12T07:31:43.996Z</time></trkpt><trkpt lat="37.85502318423079" lon="14.95709840408249"><ele>898.0</ele><time>2026-04-12T07:31:44.995Z</time></trkpt><trkpt lat="37.85504161350385" lon="14.956839477239281"><ele>897.0</ele><time>2026-04-12T07:31:45.996Z</time></trkpt><trkpt lat="37.85506675358698" lon="14.956579759647157"><ele>896.0</ele><time>2026-04-12T07:31:46.996Z</time></trkpt><trkpt lat="37.85509275212885" lon="14.956316718079599"><ele>895.0</ele><time>2026-04-12T07:31:47.996Z</time></trkpt><trkpt lat="37.85511919537938" lon="14.956039916462393"><ele>891.6666666666666</ele><time>2026-04-12T07:31:48.996Z</time></trkpt><trkpt lat="37.855139380633" lon="14.955757332914068"><ele>888.3333333333333</ele><time>2026-04-12T07:31:49.996Z</time></trkpt><trkpt lat="37.85516013896834" lon="14.955474866114548"><ele>885.0</ele><time>2026-04-12T07:31:50.996Z</time></trkpt><trkpt lat="37.855185309013926" lon="14.955193433537278"><ele>884.3333333333333</ele><time>2026-04-12T07:31:51.996Z</time></trkpt><trkpt lat="37.855207263848875" lon="14.954918926988736"><ele>883.6666666666666</ele><time>2026-04-12T07:31:52.996Z</time></trkpt><trkpt lat="37.85523155838035" lon="14.954646979181243"><ele>883.0</ele><time>2026-04-12T07:31:53.996Z</time></trkpt><trkpt lat="37.855258589988956" lon="14.954380855844635"><ele>883.3333333333333</ele><time>2026-04-12T07:31:54.996Z</time></trkpt><trkpt lat="37.855284150773436" lon="14.954118163613543"><ele>883.6666666666667</ele><time>2026-04-12T07:31:55.996Z</time></trkpt><trkpt lat="37.85530595371408" lon="14.953861553805291"><ele>884.0</ele><time>2026-04-12T07:31:56.996Z</time></trkpt><trkpt lat="37.85532048801084" lon="14.95361216419832"><ele>884.0</ele><time>2026-04-12T07:31:57.996Z</time></trkpt><trkpt lat="37.855334015856336" lon="14.953362058249866"><ele>884.0</ele><time>2026-04-12T07:31:58.995Z</time></trkpt><trkpt lat="37.8553208358237" lon="14.953107760489063"><ele>884.0</ele><time>2026-04-12T07:31:59.995Z</time></trkpt><trkpt lat="37.85526714495052" lon="14.952853888619998"><ele>884.0</ele><time>2026-04-12T07:32:00.995Z</time></trkpt><trkpt lat="37.85514874630002" lon="14.952620181436446"><ele>884.0</ele><time>2026-04-12T07:32:01.995Z</time></trkpt><trkpt lat="37.855008237440906" lon="14.952385352309042"><ele>885.5</ele><time>2026-04-12T07:32:02.995Z</time></trkpt><trkpt lat="37.854842458600714" lon="14.952142134102912"><ele>887.0</ele><time>2026-04-12T07:32:03.995Z</time></trkpt><trkpt lat="37.8547037118829" lon="14.95191653601489"><ele>885.5</ele><time>2026-04-12T07:32:04.995Z</time></trkpt><trkpt lat="37.854593283440465" lon="14.951658346234467"><ele>884.0</ele><time>2026-04-12T07:32:05.995Z</time></trkpt><trkpt lat="37.85446276483058" lon="14.951423631535608"><ele>884.0</ele><time>2026-04-12T07:32:06.995Z</time></trkpt><trkpt lat="37.85434300366139" lon="14.951188374763618"><ele>884.0</ele><time>2026-04-12T07:32:07.995Z</time></trkpt><trkpt lat="37.85422091999643" lon="14.950950905229053"><ele>884.0</ele><time>2026-04-12T07:32:08.995Z</time></trkpt><trkpt lat="37.85410736027444" lon="14.95071827033698"><ele>884.3333333333334</ele><time>2026-04-12T07:32:09.995Z</time></trkpt><trkpt lat="37.8540096252997" lon="14.950470795870096"><ele>884.6666666666667</ele><time>2026-04-12T07:32:10.995Z</time></trkpt><trkpt lat="37.85389715017681" lon="14.950233625891366"><ele>885.0</ele><time>2026-04-12T07:32:11.995Z</time></trkpt><trkpt lat="37.85380014921914" lon="14.949985525165413"><ele>885.0</ele><time>2026-04-12T07:32:12.995Z</time></trkpt><trkpt lat="37.853701937900325" lon="14.949734044611022"><ele>885.0</ele><time>2026-04-12T07:32:13.995Z</time></trkpt><trkpt lat="37.85360319144262" lon="14.949488808783011"><ele>885.0</ele><time>2026-04-12T07:32:14.995Z</time></trkpt><trkpt lat="37.853511857239624" lon="14.949246144141375"><ele>886.6666666666667</ele><time>2026-04-12T07:32:15.995Z</time></trkpt><trkpt lat="37.85345312051573" lon="14.948987473840589"><ele>888.3333333333334</ele><time>2026-04-12T07:32:16.995Z</time></trkpt><trkpt lat="37.8534116052338" lon="14.94872625303785"><ele>890.0</ele><time>2026-04-12T07:32:17.995Z</time></trkpt><trkpt lat="37.85337711599742" lon="14.948452845507493"><ele>889.3333333333334</ele><time>2026-04-12T07:32:18.995Z</time></trkpt><trkpt lat="37.85334521786547" lon="14.948185037938364"><ele>888.6666666666667</ele><time>2026-04-12T07:32:19.995Z</time></trkpt><trkpt lat="37.85332093249608" lon="14.94791966982095"><ele>888.0</ele><time>2026-04-12T07:32:20.995Z</time></trkpt><trkpt lat="37.853318460110486" lon="14.947660541644565"><ele>889.3333333333333</ele><time>2026-04-12T07:32:21.995Z</time></trkpt><trkpt lat="37.853335745066666" lon="14.947398165921516"><ele>890.6666666666666</ele><time>2026-04-12T07:32:22.995Z</time></trkpt><trkpt lat="37.85336351663662" lon="14.9471450819605"><ele>892.0</ele><time>2026-04-12T07:32:23.995Z</time></trkpt><trkpt lat="37.85340706133822" lon="14.946909461756976"><ele>887.3333333333333</ele><time>2026-04-12T07:32:24.995Z</time></trkpt><trkpt lat="37.853488540249394" lon="14.946683428528472"><ele>882.6666666666667</ele><time>2026-04-12T07:32:25.995Z</time></trkpt><trkpt lat="37.85361353554248" lon="14.94646059377432"><ele>878.0</ele><time>2026-04-12T07:32:26.995Z</time></trkpt><trkpt lat="37.8537549492608" lon="14.946227249863721"><ele>878.0</ele><time>2026-04-12T07:32:27.995Z</time></trkpt><trkpt lat="37.8538984727523" lon="14.945992753756807"><ele>878.0</ele><time>2026-04-12T07:32:28.995Z</time></trkpt><trkpt lat="37.854039264039805" lon="14.945762721563462"><ele>879.5</ele><time>2026-04-12T07:32:29.995Z</time></trkpt><trkpt lat="37.85416818734839" lon="14.945519886733667"><ele>881.0</ele><time>2026-04-12T07:32:30.995Z</time></trkpt><trkpt lat="37.85431916943195" lon="14.945305924887045"><ele>881.0</ele><time>2026-04-12T07:32:31.995Z</time></trkpt><trkpt lat="37.85444922940485" lon="14.945091932958409"><ele>881.0</ele><time>2026-04-12T07:32:32.995Z</time></trkpt><trkpt lat="37.85457206904035" lon="14.944880400470776"><ele>881.0</ele><time>2026-04-12T07:32:33.995Z</time></trkpt><trkpt lat="37.854668974285964" lon="14.944647472594259"><ele>881.6666666666667</ele><time>2026-04-12T07:32:34.995Z</time></trkpt><trkpt lat="37.8547623604487" lon="14.94440968159825"><ele>882.3333333333333</ele><time>2026-04-12T07:32:35.995Z</time></trkpt><trkpt lat="37.8548415298143" lon="14.94414227490118"><ele>883.0</ele><time>2026-04-12T07:32:36.994Z</time></trkpt><trkpt lat="37.85491497481951" lon="14.94386383690559"><ele>883.0</ele><time>2026-04-12T07:32:37.994Z</time></trkpt><trkpt lat="37.85498649688385" lon="14.943580749696729"><ele>883.0</ele><time>2026-04-12T07:32:38.994Z</time></trkpt><trkpt lat="37.85506496496666" lon="14.943305931872775"><ele>878.5</ele><time>2026-04-12T07:32:39.994Z</time></trkpt><trkpt lat="37.85514156826914" lon="14.943030725099286"><ele>874.0</ele><time>2026-04-12T07:32:40.994Z</time></trkpt><trkpt lat="37.85522214445431" lon="14.942747496948115"><ele>870.0</ele><time>2026-04-12T07:32:41.994Z</time></trkpt><trkpt lat="37.855304324161644" lon="14.94245842982326"><ele>866.0</ele><time>2026-04-12T07:32:42.994Z</time></trkpt><trkpt lat="37.85538791126692" lon="14.942165204453168"><ele>866.0</ele><time>2026-04-12T07:32:43.994Z</time></trkpt><trkpt lat="37.85546916556216" lon="14.9418700681554"><ele>866.0</ele><time>2026-04-12T07:32:44.994Z</time></trkpt><trkpt lat="37.85554944629874" lon="14.941580343720752"><ele>865.5</ele><time>2026-04-12T07:32:45.994Z</time></trkpt><trkpt lat="37.855629423376655" lon="14.941300760889288"><ele>865.0</ele><time>2026-04-12T07:32:46.994Z</time></trkpt><trkpt lat="37.85570609889444" lon="14.941027231776197"><ele>866.6666666666666</ele><time>2026-04-12T07:32:47.994Z</time></trkpt><trkpt lat="37.85578095157265" lon="14.940759874217795"><ele>868.3333333333333</ele><time>2026-04-12T07:32:48.994Z</time></trkpt><trkpt lat="37.855854897623985" lon="14.94049053612784"><ele>870.0</ele><time>2026-04-12T07:32:49.994Z</time></trkpt><trkpt lat="37.85592211677084" lon="14.940225357654581"><ele>869.3333333333333</ele><time>2026-04-12T07:32:50.994Z</time></trkpt><trkpt lat="37.85597793004005" lon="14.93995749935249"><ele>868.6666666666666</ele><time>2026-04-12T07:32:51.994Z</time></trkpt><trkpt lat="37.8560239158308" lon="14.93968333690826"><ele>868.0</ele><time>2026-04-12T07:32:52.994Z</time></trkpt><trkpt lat="37.85606193145786" lon="14.939409139569552"><ele>867.3333333333333</ele><time>2026-04-12T07:32:53.994Z</time></trkpt><trkpt lat="37.85609172629032" lon="14.939132678155756"><ele>866.6666666666667</ele><time>2026-04-12T07:32:54.994Z</time></trkpt><trkpt lat="37.8561177145799" lon="14.93885198271982"><ele>866.0</ele><time>2026-04-12T07:32:55.994Z</time></trkpt><trkpt lat="37.85613647872837" lon="14.938573309484175"><ele>866.0</ele><time>2026-04-12T07:32:56.994Z</time></trkpt><trkpt lat="37.85615175061204" lon="14.938294554302166"><ele>866.0</ele><time>2026-04-12T07:32:57.994Z</time></trkpt><trkpt lat="37.856169208242136" lon="14.938012801854867"><ele>866.0</ele><time>2026-04-12T07:32:58.994Z</time></trkpt><trkpt lat="37.85618780445927" lon="14.937725090711984"><ele>865.0</ele><time>2026-04-12T07:32:59.994Z</time></trkpt><trkpt lat="37.85619940029897" lon="14.937435933588862"><ele>864.0</ele><time>2026-04-12T07:33:00.994Z</time></trkpt><trkpt lat="37.85620858722059" lon="14.937153771116447"><ele>864.0</ele><time>2026-04-12T07:33:01.994Z</time></trkpt><trkpt lat="37.85621145780459" lon="14.936868409500082"><ele>864.0</ele><time>2026-04-12T07:33:02.994Z</time></trkpt><trkpt lat="37.85621200558161" lon="14.93659255074597"><ele>864.0</ele><time>2026-04-12T07:33:03.994Z</time></trkpt><trkpt lat="37.85621382033308" lon="14.936319678408795"><ele>865.6666666666667</ele><time>2026-04-12T07:33:04.994Z</time></trkpt><trkpt lat="37.85621688157651" lon="14.936052255582064"><ele>867.3333333333334</ele><time>2026-04-12T07:33:05.994Z</time></trkpt><trkpt lat="37.85621898644313" lon="14.935784194265636"><ele>869.0</ele><time>2026-04-12T07:33:06.994Z</time></trkpt><trkpt lat="37.85624179275546" lon="14.93551275278735"><ele>871.3333333333334</ele><time>2026-04-12T07:33:07.994Z</time></trkpt><trkpt lat="37.85625773670559" lon="14.935245674483589"><ele>873.6666666666667</ele><time>2026-04-12T07:33:08.994Z</time></trkpt><trkpt lat="37.8562746583491" lon="14.934980294359782"><ele>876.0</ele><time>2026-04-12T07:33:09.994Z</time></trkpt><trkpt lat="37.856271071918464" lon="14.934717254339661"><ele>878.0</ele><time>2026-04-12T07:33:10.994Z</time></trkpt><trkpt lat="37.85627579775993" lon="14.934435172314966"><ele>880.0</ele><time>2026-04-12T07:33:11.994Z</time></trkpt><trkpt lat="37.85626437272485" lon="14.934127505502234"><ele>881.0</ele><time>2026-04-12T07:33:12.994Z</time></trkpt><trkpt lat="37.8562404547667" lon="14.933818121803437"><ele>882.0</ele><time>2026-04-12T07:33:13.993Z</time></trkpt><trkpt lat="37.85622037765608" lon="14.933489563355511"><ele>883.5</ele><time>2026-04-12T07:33:14.993Z</time></trkpt><trkpt lat="37.856198511604525" lon="14.933164275658575"><ele>885.0</ele><time>2026-04-12T07:33:15.993Z</time></trkpt><trkpt lat="37.85617777504026" lon="14.932850465636976"><ele>884.0</ele><time>2026-04-12T07:33:16.993Z</time></trkpt><trkpt lat="37.85615655573494" lon="14.932547288520768"><ele>883.0</ele><time>2026-04-12T07:33:17.993Z</time></trkpt><trkpt lat="37.85613589038709" lon="14.932256986887595"><ele>883.0</ele><time>2026-04-12T07:33:18.993Z</time></trkpt><trkpt lat="37.85610340378786" lon="14.931962684915504"><ele>883.0</ele><time>2026-04-12T07:33:19.993Z</time></trkpt><trkpt lat="37.85608681536123" lon="14.931665026425762"><ele>881.5</ele><time>2026-04-12T07:33:20.993Z</time></trkpt><trkpt lat="37.85607241527226" lon="14.931357457470254"><ele>880.0</ele><time>2026-04-12T07:33:21.993Z</time></trkpt><trkpt lat="37.856046001912745" lon="14.931051223035734"><ele>879.5</ele><time>2026-04-12T07:33:22.993Z</time></trkpt><trkpt lat="37.85602241066155" lon="14.93074660428982"><ele>879.0</ele><time>2026-04-12T07:33:23.993Z</time></trkpt><trkpt lat="37.85599735053303" lon="14.93044315197445"><ele>879.0</ele><time>2026-04-12T07:33:24.993Z</time></trkpt><trkpt lat="37.85597682800051" lon="14.930145472785034"><ele>879.0</ele><time>2026-04-12T07:33:25.993Z</time></trkpt><trkpt lat="37.855956799820696" lon="14.92984732272929"><ele>883.5</ele><time>2026-04-12T07:33:26.993Z</time></trkpt><trkpt lat="37.8559489867857" lon="14.929554448377502"><ele>888.0</ele><time>2026-04-12T07:33:27.993Z</time></trkpt><trkpt lat="37.85591658463781" lon="14.929274334355593"><ele>887.3333333333333</ele><time>2026-04-12T07:33:28.993Z</time></trkpt><trkpt lat="37.855917924133045" lon="14.929001545160244"><ele>886.6666666666666</ele><time>2026-04-12T07:33:29.993Z</time></trkpt><trkpt lat="37.85589858388033" lon="14.928745978604994"><ele>886.0</ele><time>2026-04-12T07:33:30.993Z</time></trkpt><trkpt lat="37.85587970890569" lon="14.928495910358519"><ele>886.3333333333333</ele><time>2026-04-12T07:33:31.993Z</time></trkpt><trkpt lat="37.855899648954924" lon="14.928260858440643"><ele>886.6666666666667</ele><time>2026-04-12T07:33:32.993Z</time></trkpt><trkpt lat="37.855989964502776" lon="14.928055718808851"><ele>887.0</ele><time>2026-04-12T07:33:33.993Z</time></trkpt><trkpt lat="37.8561264850946" lon="14.92786087847789"><ele>886.3333333333334</ele><time>2026-04-12T07:33:34.993Z</time></trkpt><trkpt lat="37.856291727107816" lon="14.927695050091591"><ele>885.6666666666667</ele><time>2026-04-12T07:33:35.993Z</time></trkpt><trkpt lat="37.856501474882776" lon="14.927592363998253"><ele>885.0</ele><time>2026-04-12T07:33:36.993Z</time></trkpt><trkpt lat="37.856704699721654" lon="14.927501593568932"><ele>883.0</ele><time>2026-04-12T07:33:37.993Z</time></trkpt><trkpt lat="37.856902415400626" lon="14.927409188978297"><ele>881.0</ele><time>2026-04-12T07:33:38.993Z</time></trkpt><trkpt lat="37.85705253682087" lon="14.92728281867294"><ele>879.0</ele><time>2026-04-12T07:33:39.993Z</time></trkpt><trkpt lat="37.857188114105064" lon="14.927149239997137"><ele>879.0</ele><time>2026-04-12T07:33:40.993Z</time></trkpt><trkpt lat="37.857277017217875" lon="14.926960370109065"><ele>879.0</ele><time>2026-04-12T07:33:41.995Z</time></trkpt><trkpt lat="37.85732015143201" lon="14.926718548692103"><ele>879.0</ele><time>2026-04-12T07:33:42.995Z</time></trkpt><trkpt lat="37.857306205370314" lon="14.926436234250312"><ele>881.5</ele><time>2026-04-12T07:33:43.995Z</time></trkpt><trkpt lat="37.857310900219154" lon="14.926143697209895"><ele>884.0</ele><time>2026-04-12T07:33:44.996Z</time></trkpt><trkpt lat="37.85730956602582" lon="14.925854381245372"><ele>885.0</ele><time>2026-04-12T07:33:45.996Z</time></trkpt><trkpt lat="37.85730492277564" lon="14.925562190553334"><ele>886.0</ele><time>2026-04-12T07:33:46.996Z</time></trkpt><trkpt lat="37.85732000258397" lon="14.925263770651828"><ele>884.5</ele><time>2026-04-12T07:33:47.996Z</time></trkpt><trkpt lat="37.857320465298606" lon="14.924981417058525"><ele>883.0</ele><time>2026-04-12T07:33:48.996Z</time></trkpt><trkpt lat="37.85732046530004" lon="14.924690715836551"><ele>883.0</ele><time>2026-04-12T07:33:49.996Z</time></trkpt><trkpt lat="37.85731863374759" lon="14.924403543271858"><ele>883.0</ele><time>2026-04-12T07:33:50.996Z</time></trkpt><trkpt lat="37.8573167276381" lon="14.924127792567715"><ele>883.0</ele><time>2026-04-12T07:33:51.996Z</time></trkpt><trkpt lat="37.85731407412903" lon="14.923869804564532"><ele>882.0</ele><time>2026-04-12T07:33:52.996Z</time></trkpt><trkpt lat="37.857311186810094" lon="14.923618066056898"><ele>881.0</ele><time>2026-04-12T07:33:53.995Z</time></trkpt><trkpt lat="37.85730822206597" lon="14.923369537868608"><ele>880.0</ele><time>2026-04-12T07:33:54.996Z</time></trkpt><trkpt lat="37.8573052635921" lon="14.923143127428412"><ele>879.5</ele><time>2026-04-12T07:33:55.996Z</time></trkpt><trkpt lat="37.85728420129712" lon="14.92293625282266"><ele>879.0</ele><time>2026-04-12T07:33:56.996Z</time></trkpt><trkpt lat="37.85728891152974" lon="14.92275018894012"><ele>878.5</ele><time>2026-04-12T07:33:57.996Z</time></trkpt><trkpt lat="37.85731186273273" lon="14.922580443922694"><ele>878.0</ele><time>2026-04-12T07:33:58.996Z</time></trkpt><trkpt lat="37.857319588002966" lon="14.922429958096348"><ele>877.3333333333334</ele><time>2026-04-12T07:33:59.996Z</time></trkpt><trkpt lat="37.85734356649155" lon="14.922315925000209"><ele>876.6666666666667</ele><time>2026-04-12T07:34:00.996Z</time></trkpt><trkpt lat="37.85736355202019" lon="14.922222599418063"><ele>876.0</ele><time>2026-04-12T07:34:01.996Z</time></trkpt><trkpt lat="37.85748297425678" lon="14.922186157664898"><ele>875.3333333333333</ele><time>2026-04-12T07:34:03.996Z</time></trkpt><trkpt lat="37.85755415889341" lon="14.922148488097312"><ele>874.6666666666666</ele><time>2026-04-12T07:34:06.996Z</time></trkpt><trkpt lat="37.85761945291" lon="14.922168889923453"><ele>874.0</ele><time>2026-04-12T07:34:07.996Z</time></trkpt><trkpt lat="37.85769292793361" lon="14.922180616741318"><ele>873.6</ele><time>2026-04-12T07:34:08.996Z</time></trkpt><trkpt lat="37.85779330103392" lon="14.922210029990136"><ele>873.2</ele><time>2026-04-12T07:34:09.996Z</time></trkpt><trkpt lat="37.857893038756615" lon="14.922228156216725"><ele>872.8000000000001</ele><time>2026-04-12T07:34:10.996Z</time></trkpt><trkpt lat="37.8579910606176" lon="14.922250820530252"><ele>872.4000000000001</ele><time>2026-04-12T07:34:11.996Z</time></trkpt><trkpt lat="37.858094690701385" lon="14.922275578975803"><ele>872.0</ele><time>2026-04-12T07:34:12.996Z</time></trkpt><trkpt lat="37.85821047579579" lon="14.922301229201265"><ele>872.0</ele><time>2026-04-12T07:34:13.995Z</time></trkpt><trkpt lat="37.85834199515965" lon="14.922335927927461"><ele>872.0</ele><time>2026-04-12T07:34:14.995Z</time></trkpt><trkpt lat="37.85847387939782" lon="14.922365706924124"><ele>872.0</ele><time>2026-04-12T07:34:15.995Z</time></trkpt><trkpt lat="37.85861219935947" lon="14.922392547979642"><ele>872.0</ele><time>2026-04-12T07:34:16.995Z</time></trkpt><trkpt lat="37.858763761575126" lon="14.922427711562644"><ele>870.6666666666667</ele><time>2026-04-12T07:34:17.995Z</time></trkpt><trkpt lat="37.85891707284497" lon="14.922461354600946"><ele>869.3333333333333</ele><time>2026-04-12T07:34:18.995Z</time></trkpt><trkpt lat="37.85908200155452" lon="14.922501131271655"><ele>868.0</ele><time>2026-04-12T07:34:19.995Z</time></trkpt><trkpt lat="37.859251821300276" lon="14.922540750138598"><ele>867.0</ele><time>2026-04-12T07:34:20.995Z</time></trkpt><trkpt lat="37.85942264242186" lon="14.922575525814937"><ele>866.0</ele><time>2026-04-12T07:34:21.995Z</time></trkpt><trkpt lat="37.85958923450152" lon="14.922624764789354"><ele>865.0</ele><time>2026-04-12T07:34:22.995Z</time></trkpt><trkpt lat="37.85975739454411" lon="14.922689176240175"><ele>865.0</ele><time>2026-04-12T07:34:23.995Z</time></trkpt><trkpt lat="37.859925105611104" lon="14.922821689121319"><ele>865.0</ele><time>2026-04-12T07:34:24.995Z</time></trkpt><trkpt lat="37.860065914564736" lon="14.923013324112393"><ele>865.0</ele><time>2026-04-12T07:34:25.995Z</time></trkpt><trkpt lat="37.86018318296421" lon="14.923221400474452"><ele>862.6666666666666</ele><time>2026-04-12T07:34:26.995Z</time></trkpt><trkpt lat="37.860284075962646" lon="14.923415898104125"><ele>860.3333333333333</ele><time>2026-04-12T07:34:27.995Z</time></trkpt><trkpt lat="37.8603836732605" lon="14.92360066311337"><ele>858.0</ele><time>2026-04-12T07:34:28.995Z</time></trkpt><trkpt lat="37.86048165845628" lon="14.923784358708874"><ele>858.0</ele><time>2026-04-12T07:34:29.995Z</time></trkpt><trkpt lat="37.86058275899499" lon="14.923977870027745"><ele>858.0</ele><time>2026-04-12T07:34:30.995Z</time></trkpt><trkpt lat="37.86068805796371" lon="14.924178110891678"><ele>858.0</ele><time>2026-04-12T07:34:31.995Z</time></trkpt><trkpt lat="37.86079060124274" lon="14.924374348443768"><ele>856.6666666666667</ele><time>2026-04-12T07:34:32.995Z</time></trkpt><trkpt lat="37.86087659486245" lon="14.924585733132258"><ele>855.3333333333334</ele><time>2026-04-12T07:34:33.995Z</time></trkpt><trkpt lat="37.86097766558057" lon="14.924790419144221"><ele>854.0</ele><time>2026-04-12T07:34:34.995Z</time></trkpt><trkpt lat="37.86107741295747" lon="14.924984156605865"><ele>851.6666666666667</ele><time>2026-04-12T07:34:35.995Z</time></trkpt><trkpt lat="37.8611836692144" lon="14.925169753958519"><ele>849.3333333333333</ele><time>2026-04-12T07:34:36.995Z</time></trkpt><trkpt lat="37.86132662390895" lon="14.925368711403234"><ele>847.0</ele><time>2026-04-12T07:34:37.995Z</time></trkpt><trkpt lat="37.86151844961939" lon="14.92557158038737"><ele>847.0</ele><time>2026-04-12T07:34:38.995Z</time></trkpt><trkpt lat="37.8617365579214" lon="14.92576830232315"><ele>847.0</ele><time>2026-04-12T07:34:39.995Z</time></trkpt><trkpt lat="37.86195791945713" lon="14.92598331212008"><ele>846.0</ele><time>2026-04-12T07:34:40.995Z</time></trkpt><trkpt lat="37.862151424246655" lon="14.926194410046586"><ele>845.0</ele><time>2026-04-12T07:34:41.995Z</time></trkpt><trkpt lat="37.8623540670393" lon="14.926368388954067"><ele>845.0</ele><time>2026-04-12T07:34:42.995Z</time></trkpt><trkpt lat="37.86256469380689" lon="14.92649682918743"><ele>845.0</ele><time>2026-04-12T07:34:43.995Z</time></trkpt><trkpt lat="37.86276924925105" lon="14.92664017208111"><ele>842.0</ele><time>2026-04-12T07:34:44.995Z</time></trkpt><trkpt lat="37.86297345658464" lon="14.926776541885621"><ele>839.0</ele><time>2026-04-12T07:34:45.995Z</time></trkpt><trkpt lat="37.86317485833276" lon="14.926909181400848"><ele>839.0</ele><time>2026-04-12T07:34:46.995Z</time></trkpt><trkpt lat="37.86337189055624" lon="14.927042907067063"><ele>839.0</ele><time>2026-04-12T07:34:47.995Z</time></trkpt><trkpt lat="37.863566189987075" lon="14.927160151234432"><ele>839.0</ele><time>2026-04-12T07:34:48.995Z</time></trkpt><trkpt lat="37.863781129639186" lon="14.927222017951106"><ele>837.0</ele><time>2026-04-12T07:34:49.995Z</time></trkpt><trkpt lat="37.86402907504194" lon="14.92725153768414"><ele>835.0</ele><time>2026-04-12T07:34:50.994Z</time></trkpt><trkpt lat="37.86429860924124" lon="14.927240737699274"><ele>834.0</ele><time>2026-04-12T07:34:51.994Z</time></trkpt><trkpt lat="37.864552083650274" lon="14.927209177218106"><ele>833.0</ele><time>2026-04-12T07:34:52.994Z</time></trkpt><trkpt lat="37.86478723392244" lon="14.927188883325337"><ele>833.0</ele><time>2026-04-12T07:34:53.994Z</time></trkpt><trkpt lat="37.865016601443614" lon="14.927170884030074"><ele>833.0</ele><time>2026-04-12T07:34:54.994Z</time></trkpt><trkpt lat="37.86523777635411" lon="14.927174555820882"><ele>832.3333333333334</ele><time>2026-04-12T07:34:55.994Z</time></trkpt><trkpt lat="37.86545121815434" lon="14.927167028689547"><ele>831.6666666666667</ele><time>2026-04-12T07:34:56.994Z</time></trkpt><trkpt lat="37.86565428665538" lon="14.927158593495788"><ele>831.0</ele><time>2026-04-12T07:34:57.994Z</time></trkpt><trkpt lat="37.865849015191515" lon="14.927149712052223"><ele>829.0</ele><time>2026-04-12T07:34:58.994Z</time></trkpt><trkpt lat="37.866031210732416" lon="14.927141402225404"><ele>827.0</ele><time>2026-04-12T07:34:59.994Z</time></trkpt><trkpt lat="37.866205226928756" lon="14.927133705927584"><ele>825.0</ele><time>2026-04-12T07:35:00.994Z</time></trkpt><trkpt lat="37.866372943930784" lon="14.927126656075611"><ele>825.0</ele><time>2026-04-12T07:35:01.994Z</time></trkpt><trkpt lat="37.86654173990786" lon="14.927118836712124"><ele>825.0</ele><time>2026-04-12T07:35:02.994Z</time></trkpt><trkpt lat="37.86670638331915" lon="14.927111204911366"><ele>825.0</ele><time>2026-04-12T07:35:03.994Z</time></trkpt><trkpt lat="37.86686524221888" lon="14.927103841239973"><ele>824.4</ele><time>2026-04-12T07:35:04.994Z</time></trkpt><trkpt lat="37.86701509922317" lon="14.927096894834342"><ele>823.8</ele><time>2026-04-12T07:35:05.994Z</time></trkpt><trkpt lat="37.867132651744406" lon="14.927091445868534"><ele>823.2</ele><time>2026-04-12T07:35:06.994Z</time></trkpt><trkpt lat="37.86722306163587" lon="14.927089913882872"><ele>822.6</ele><time>2026-04-12T07:35:07.994Z</time></trkpt><trkpt lat="37.867304395309695" lon="14.92709552403596"><ele>822.0</ele><time>2026-04-12T07:35:08.994Z</time></trkpt><trkpt lat="37.86739195585229" lon="14.92709880554601"><ele>822.0</ele><time>2026-04-12T07:35:10.994Z</time></trkpt><trkpt lat="37.86750754159044" lon="14.92713941401757"><ele>822.0</ele><time>2026-04-12T07:35:12.994Z</time></trkpt><trkpt lat="37.86760630955314" lon="14.927173559286494"><ele>822.0</ele><time>2026-04-12T07:35:13.994Z</time></trkpt><trkpt lat="37.867733136642755" lon="14.927218732269903"><ele>822.0</ele><time>2026-04-12T07:35:14.994Z</time></trkpt><trkpt lat="37.867874308741605" lon="14.927274756434624"><ele>822.0</ele><time>2026-04-12T07:35:15.994Z</time></trkpt><trkpt lat="37.86802505207513" lon="14.927338019981413"><ele>822.0</ele><time>2026-04-12T07:35:16.994Z</time></trkpt><trkpt lat="37.86818986202166" lon="14.927409004539424"><ele>822.0</ele><time>2026-04-12T07:35:17.994Z</time></trkpt><trkpt lat="37.868358400521245" lon="14.927482674090424"><ele>821.0</ele><time>2026-04-12T07:35:18.994Z</time></trkpt><trkpt lat="37.86853064812505" lon="14.927559567992768"><ele>820.0</ele><time>2026-04-12T07:35:19.994Z</time></trkpt><trkpt lat="37.86870508970159" lon="14.927641916459429"><ele>819.0</ele><time>2026-04-12T07:35:20.994Z</time></trkpt><trkpt lat="37.86887938470694" lon="14.927731886021578"><ele>819.0</ele><time>2026-04-12T07:35:21.994Z</time></trkpt><trkpt lat="37.86904274034946" lon="14.927853869166418"><ele>819.0</ele><time>2026-04-12T07:35:22.994Z</time></trkpt><trkpt lat="37.86919753565575" lon="14.927998660117908"><ele>819.0</ele><time>2026-04-12T07:35:23.994Z</time></trkpt><trkpt lat="37.86933658452607" lon="14.928164558348252"><ele>819.0</ele><time>2026-04-12T07:35:24.994Z</time></trkpt><trkpt lat="37.869451993032534" lon="14.928368291078723"><ele>819.0</ele><time>2026-04-12T07:35:25.994Z</time></trkpt><trkpt lat="37.86953036267095" lon="14.928589556964559"><ele>819.0</ele><time>2026-04-12T07:35:26.994Z</time></trkpt><trkpt lat="37.86961221379103" lon="14.928794588044862"><ele>818.3333333333333</ele><time>2026-04-12T07:35:27.993Z</time></trkpt><trkpt lat="37.869691380561726" lon="14.928994093235852"><ele>817.6666666666666</ele><time>2026-04-12T07:35:28.993Z</time></trkpt><trkpt lat="37.86977189768155" lon="14.929164603416599"><ele>817.0</ele><time>2026-04-12T07:35:29.993Z</time></trkpt><trkpt lat="37.86982200109497" lon="14.92931647064553"><ele>816.3333333333333</ele><time>2026-04-12T07:35:30.993Z</time></trkpt><trkpt lat="37.86987094548174" lon="14.929440502313248"><ele>815.6666666666666</ele><time>2026-04-12T07:35:31.993Z</time></trkpt><trkpt lat="37.869915101401936" lon="14.92953071199427"><ele>815.0</ele><time>2026-04-12T07:35:32.993Z</time></trkpt><trkpt lat="37.8699551848408" lon="14.929598058187187"><ele>814.3333333333333</ele><time>2026-04-12T07:35:33.993Z</time></trkpt><trkpt lat="37.87002319315704" lon="14.929647824720915"><ele>813.6666666666666</ele><time>2026-04-12T07:35:35.993Z</time></trkpt><trkpt lat="37.870086527375896" lon="14.929644457038842"><ele>813.0</ele><time>2026-04-12T07:35:37.993Z</time></trkpt><trkpt lat="37.87011151295723" lon="14.929480067479801"><ele>813.0</ele><time>2026-04-12T07:35:38.993Z</time></trkpt><trkpt lat="37.8700871599759" lon="14.929348675497092"><ele>813.0</ele><time>2026-04-12T07:35:39.993Z</time></trkpt><trkpt lat="37.87008788837355" lon="14.929144549066526"><ele>813.0</ele><time>2026-04-12T07:35:40.993Z</time></trkpt><trkpt lat="37.870084487378406" lon="14.928909923208217"><ele>815.0</ele><time>2026-04-12T07:35:41.993Z</time></trkpt><trkpt lat="37.87007691772718" lon="14.928635286812817"><ele>817.0</ele><time>2026-04-12T07:35:42.993Z</time></trkpt><trkpt lat="37.870072930000234" lon="14.92831989088128"><ele>818.0</ele><time>2026-04-12T07:35:43.993Z</time></trkpt><trkpt lat="37.87005903143244" lon="14.927952460836961"><ele>819.0</ele><time>2026-04-12T07:35:44.993Z</time></trkpt><trkpt lat="37.87004766197599" lon="14.927593786887309"><ele>819.0</ele><time>2026-04-12T07:35:45.993Z</time></trkpt><trkpt lat="37.87003239088431" lon="14.92723452466158"><ele>819.0</ele><time>2026-04-12T07:35:46.993Z</time></trkpt><trkpt lat="37.86999082909864" lon="14.926912600076319"><ele>820.0</ele><time>2026-04-12T07:35:47.995Z</time></trkpt><trkpt lat="37.86991174769837" lon="14.92660437943661"><ele>821.0</ele><time>2026-04-12T07:35:48.996Z</time></trkpt><trkpt lat="37.8698198616114" lon="14.926347544255762"><ele>821.0</ele><time>2026-04-12T07:35:49.996Z</time></trkpt><trkpt lat="37.86973866245178" lon="14.926124789863916"><ele>821.0</ele><time>2026-04-12T07:35:50.995Z</time></trkpt><trkpt lat="37.86967290365277" lon="14.925942674784919"><ele>821.0</ele><time>2026-04-12T07:35:51.996Z</time></trkpt><trkpt lat="37.86960842382324" lon="14.925765214218604"><ele>822.6666666666667</ele><time>2026-04-12T07:35:52.996Z</time></trkpt><trkpt lat="37.86953536925136" lon="14.925564961571375"><ele>824.3333333333333</ele><time>2026-04-12T07:35:53.995Z</time></trkpt><trkpt lat="37.86944987322146" lon="14.925330605368613"><ele>826.0</ele><time>2026-04-12T07:35:54.996Z</time></trkpt><trkpt lat="37.869356570686435" lon="14.925074850316006"><ele>827.0</ele><time>2026-04-12T07:35:55.996Z</time></trkpt><trkpt lat="37.86923989924337" lon="14.92479831124795"><ele>828.0</ele><time>2026-04-12T07:35:56.996Z</time></trkpt><trkpt lat="37.86914651653045" lon="14.924511990544849"><ele>828.0</ele><time>2026-04-12T07:35:57.996Z</time></trkpt><trkpt lat="37.86904920752868" lon="14.924262112935844"><ele>828.0</ele><time>2026-04-12T07:35:58.996Z</time></trkpt><trkpt lat="37.86896233469397" lon="14.924029847483485"><ele>828.0</ele><time>2026-04-12T07:35:59.995Z</time></trkpt><trkpt lat="37.86887589991733" lon="14.923798047418279"><ele>828.0</ele><time>2026-04-12T07:36:00.996Z</time></trkpt><trkpt lat="37.86880216535499" lon="14.923552817865849"><ele>828.0</ele><time>2026-04-12T07:36:01.996Z</time></trkpt><trkpt lat="37.86870587675955" lon="14.923337741826657"><ele>828.0</ele><time>2026-04-12T07:36:02.996Z</time></trkpt><trkpt lat="37.86863875194157" lon="14.923100554138252"><ele>828.0</ele><time>2026-04-12T07:36:03.996Z</time></trkpt><trkpt lat="37.868551098169604" lon="14.922859956678531"><ele>828.0</ele><time>2026-04-12T07:36:04.996Z</time></trkpt><trkpt lat="37.868455008257534" lon="14.92259706979802"><ele>828.0</ele><time>2026-04-12T07:36:05.996Z</time></trkpt><trkpt lat="37.86833507179728" lon="14.92233751249784"><ele>829.0</ele><time>2026-04-12T07:36:06.996Z</time></trkpt><trkpt lat="37.86825142868026" lon="14.92205971811666"><ele>830.0</ele><time>2026-04-12T07:36:07.996Z</time></trkpt><trkpt lat="37.86815414263892" lon="14.921809185628174"><ele>830.0</ele><time>2026-04-12T07:36:08.996Z</time></trkpt><trkpt lat="37.86806677169144" lon="14.921577283596491"><ele>830.0</ele><time>2026-04-12T07:36:09.996Z</time></trkpt><trkpt lat="37.86799732396746" lon="14.921335550824983"><ele>830.0</ele><time>2026-04-12T07:36:10.996Z</time></trkpt><trkpt lat="37.867897229378265" lon="14.921108098905469"><ele>830.3333333333334</ele><time>2026-04-12T07:36:11.996Z</time></trkpt><trkpt lat="37.86784123712383" lon="14.920851373156928"><ele>830.6666666666667</ele><time>2026-04-12T07:36:12.996Z</time></trkpt><trkpt lat="37.86775816982611" lon="14.920618521139541"><ele>831.0</ele><time>2026-04-12T07:36:13.996Z</time></trkpt><trkpt lat="37.867672168064196" lon="14.920389008927625"><ele>831.6666666666667</ele><time>2026-04-12T07:36:14.996Z</time></trkpt><trkpt lat="37.86759022975754" lon="14.920160450424923"><ele>832.3333333333334</ele><time>2026-04-12T07:36:15.996Z</time></trkpt><trkpt lat="37.8675034493193" lon="14.919934949432378"><ele>833.0</ele><time>2026-04-12T07:36:16.996Z</time></trkpt><trkpt lat="37.8674178002514" lon="14.919705577408553"><ele>833.6666666666667</ele><time>2026-04-12T07:36:17.996Z</time></trkpt><trkpt lat="37.86732702983758" lon="14.919470013440291"><ele>834.3333333333333</ele><time>2026-04-12T07:36:18.996Z</time></trkpt><trkpt lat="37.86723732612306" lon="14.919232913334644"><ele>835.0</ele><time>2026-04-12T07:36:19.996Z</time></trkpt><trkpt lat="37.86714571067007" lon="14.918993484846855"><ele>835.0</ele><time>2026-04-12T07:36:20.996Z</time></trkpt><trkpt lat="37.867052227069536" lon="14.918750381327579"><ele>835.0</ele><time>2026-04-12T07:36:21.996Z</time></trkpt><trkpt lat="37.86696145490547" lon="14.918505628444711"><ele>835.0</ele><time>2026-04-12T07:36:22.995Z</time></trkpt><trkpt lat="37.86687090214265" lon="14.918262959637978"><ele>835.3333333333333</ele><time>2026-04-12T07:36:23.995Z</time></trkpt><trkpt lat="37.866793147287915" lon="14.918011526142973"><ele>835.6666666666667</ele><time>2026-04-12T07:36:24.995Z</time></trkpt><trkpt lat="37.866705644936914" lon="14.917770970506451"><ele>836.0</ele><time>2026-04-12T07:36:25.995Z</time></trkpt><trkpt lat="37.866617106061256" lon="14.91753053247337"><ele>837.3333333333334</ele><time>2026-04-12T07:36:26.995Z</time></trkpt><trkpt lat="37.866528628570165" lon="14.917290548272424"><ele>838.6666666666667</ele><time>2026-04-12T07:36:27.995Z</time></trkpt><trkpt lat="37.86644222829549" lon="14.91705415811162"><ele>840.0</ele><time>2026-04-12T07:36:28.995Z</time></trkpt><trkpt lat="37.866344078028405" lon="14.916824865562695"><ele>840.3333333333333</ele><time>2026-04-12T07:36:29.995Z</time></trkpt><trkpt lat="37.866290031842766" lon="14.916577777299224"><ele>840.6666666666666</ele><time>2026-04-12T07:36:30.995Z</time></trkpt><trkpt lat="37.86623680898467" lon="14.916332452450627"><ele>841.0</ele><time>2026-04-12T07:36:31.995Z</time></trkpt><trkpt lat="37.866194277518304" lon="14.91607884400315"><ele>842.0</ele><time>2026-04-12T07:36:32.995Z</time></trkpt><trkpt lat="37.8661548931578" lon="14.915818625799456"><ele>843.0</ele><time>2026-04-12T07:36:33.995Z</time></trkpt><trkpt lat="37.86609705022856" lon="14.915557179780203"><ele>844.0</ele><time>2026-04-12T07:36:34.995Z</time></trkpt><trkpt lat="37.86608569927852" lon="14.915277957859775"><ele>845.0</ele><time>2026-04-12T07:36:35.995Z</time></trkpt><trkpt lat="37.86603230989041" lon="14.914997892226488"><ele>846.0</ele><time>2026-04-12T07:36:36.995Z</time></trkpt><trkpt lat="37.86598642699296" lon="14.91473152371622"><ele>847.0</ele><time>2026-04-12T07:36:37.995Z</time></trkpt><trkpt lat="37.865942724658915" lon="14.914458624440039"><ele>848.6666666666666</ele><time>2026-04-12T07:36:38.995Z</time></trkpt><trkpt lat="37.86589555907656" lon="14.914187766162044"><ele>850.3333333333333</ele><time>2026-04-12T07:36:39.995Z</time></trkpt><trkpt lat="37.865846134025" lon="14.91391849056802"><ele>852.0</ele><time>2026-04-12T07:36:40.995Z</time></trkpt><trkpt lat="37.86579932367467" lon="14.91365248059991"><ele>853.0</ele><time>2026-04-12T07:36:41.995Z</time></trkpt><trkpt lat="37.86576328675228" lon="14.913383860726377"><ele>854.0</ele><time>2026-04-12T07:36:42.995Z</time></trkpt><trkpt lat="37.86573377503931" lon="14.913119015067231"><ele>855.0</ele><time>2026-04-12T07:36:43.995Z</time></trkpt><trkpt lat="37.865764156030444" lon="14.912858516278403"><ele>855.0</ele><time>2026-04-12T07:36:44.995Z</time></trkpt><trkpt lat="37.86578499112998" lon="14.91258878062632"><ele>855.0</ele><time>2026-04-12T07:36:45.995Z</time></trkpt><trkpt lat="37.86585635290433" lon="14.912327490187367"><ele>855.0</ele><time>2026-04-12T07:36:46.995Z</time></trkpt><trkpt lat="37.8659491318956" lon="14.912071706430952"><ele>855.0</ele><time>2026-04-12T07:36:47.995Z</time></trkpt><trkpt lat="37.86604835894708" lon="14.911814356518146"><ele>855.0</ele><time>2026-04-12T07:36:48.995Z</time></trkpt><trkpt lat="37.8661352115239" lon="14.911557526519095"><ele>855.0</ele><time>2026-04-12T07:36:49.995Z</time></trkpt><trkpt lat="37.86622070386604" lon="14.911305038930093"><ele>854.6666666666667</ele><time>2026-04-12T07:36:50.995Z</time></trkpt><trkpt lat="37.866299176841" lon="14.911064039494194"><ele>854.3333333333334</ele><time>2026-04-12T07:36:51.995Z</time></trkpt><trkpt lat="37.86637889370552" lon="14.910823636544645"><ele>854.0</ele><time>2026-04-12T07:36:52.995Z</time></trkpt><trkpt lat="37.866456319303644" lon="14.91059142304661"><ele>855.0</ele><time>2026-04-12T07:36:53.995Z</time></trkpt><trkpt lat="37.866538128535915" lon="14.910362029834946"><ele>856.0</ele><time>2026-04-12T07:36:54.995Z</time></trkpt><trkpt lat="37.8666157911973" lon="14.910141022138609"><ele>857.0</ele><time>2026-04-12T07:36:55.995Z</time></trkpt><trkpt lat="37.866696441851154" lon="14.90991650850053"><ele>857.0</ele><time>2026-04-12T07:36:56.995Z</time></trkpt><trkpt lat="37.866773714397674" lon="14.909697749007453"><ele>857.0</ele><time>2026-04-12T07:36:57.995Z</time></trkpt><trkpt lat="37.866844614617385" lon="14.909490000132331"><ele>857.0</ele><time>2026-04-12T07:36:58.995Z</time></trkpt><trkpt lat="37.86691176409608" lon="14.909302334216184"><ele>857.3333333333334</ele><time>2026-04-12T07:36:59.994Z</time></trkpt><trkpt lat="37.866969542487006" lon="14.909122132209239"><ele>857.6666666666667</ele><time>2026-04-12T07:37:00.994Z</time></trkpt><trkpt lat="37.86702838564375" lon="14.908948814751314"><ele>858.0</ele><time>2026-04-12T07:37:01.994Z</time></trkpt><trkpt lat="37.8670886542346" lon="14.908768010851372"><ele>858.0</ele><time>2026-04-12T07:37:02.994Z</time></trkpt><trkpt lat="37.86714807265956" lon="14.908588268200155"><ele>858.0</ele><time>2026-04-12T07:37:03.994Z</time></trkpt><trkpt lat="37.867206595865404" lon="14.908404016554258"><ele>858.0</ele><time>2026-04-12T07:37:04.994Z</time></trkpt><trkpt lat="37.86727289511358" lon="14.90821158563996"><ele>859.0</ele><time>2026-04-12T07:37:05.994Z</time></trkpt><trkpt lat="37.867345270954196" lon="14.908013805882856"><ele>860.0</ele><time>2026-04-12T07:37:06.994Z</time></trkpt><trkpt lat="37.867423223644245" lon="14.907784479447054"><ele>861.0</ele><time>2026-04-12T07:37:07.994Z</time></trkpt><trkpt lat="37.86750029383345" lon="14.907537287690822"><ele>861.0</ele><time>2026-04-12T07:37:08.994Z</time></trkpt><trkpt lat="37.86758770247645" lon="14.90727727116525"><ele>861.0</ele><time>2026-04-12T07:37:09.994Z</time></trkpt><trkpt lat="37.86764826933771" lon="14.90701320151449"><ele>861.0</ele><time>2026-04-12T07:37:10.994Z</time></trkpt><trkpt lat="37.867700547888084" lon="14.906739297643865"><ele>861.5</ele><time>2026-04-12T07:37:11.994Z</time></trkpt><trkpt lat="37.8677335326589" lon="14.906468657898815"><ele>862.0</ele><time>2026-04-12T07:37:12.994Z</time></trkpt><trkpt lat="37.8677488011235" lon="14.906170031154835"><ele>861.5</ele><time>2026-04-12T07:37:13.994Z</time></trkpt><trkpt lat="37.86776329724119" lon="14.905869728502884"><ele>861.0</ele><time>2026-04-12T07:37:14.994Z</time></trkpt><trkpt lat="37.867775261932465" lon="14.905564687014698"><ele>861.0</ele><time>2026-04-12T07:37:15.994Z</time></trkpt><trkpt lat="37.86778827007826" lon="14.905255662606974"><ele>861.0</ele><time>2026-04-12T07:37:16.994Z</time></trkpt><trkpt lat="37.86779990137294" lon="14.904939813021656"><ele>861.0</ele><time>2026-04-12T07:37:17.994Z</time></trkpt><trkpt lat="37.867812128908305" lon="14.904617115369279"><ele>861.0</ele><time>2026-04-12T07:37:18.994Z</time></trkpt><trkpt lat="37.867825494711475" lon="14.904291655377955"><ele>860.0</ele><time>2026-04-12T07:37:19.994Z</time></trkpt><trkpt lat="37.8678467981057" lon="14.903971196284845"><ele>859.0</ele><time>2026-04-12T07:37:20.994Z</time></trkpt><trkpt lat="37.86787166432675" lon="14.903646176115759"><ele>859.5</ele><time>2026-04-12T07:37:21.994Z</time></trkpt><trkpt lat="37.867894622797806" lon="14.903316793171742"><ele>860.0</ele><time>2026-04-12T07:37:22.994Z</time></trkpt><trkpt lat="37.86791208849148" lon="14.902966292250925"><ele>860.0</ele><time>2026-04-12T07:37:23.994Z</time></trkpt><trkpt lat="37.867919942935444" lon="14.902602004760872"><ele>860.0</ele><time>2026-04-12T07:37:24.994Z</time></trkpt><trkpt lat="37.86794438682199" lon="14.902221002237496"><ele>860.5</ele><time>2026-04-12T07:37:25.994Z</time></trkpt><trkpt lat="37.86797637794604" lon="14.901820698151292"><ele>861.0</ele><time>2026-04-12T07:37:26.994Z</time></trkpt><trkpt lat="37.868007178642316" lon="14.901446021737048"><ele>862.5</ele><time>2026-04-12T07:37:27.994Z</time></trkpt><trkpt lat="37.868044292392" lon="14.90107775055304"><ele>864.0</ele><time>2026-04-12T07:37:28.994Z</time></trkpt><trkpt lat="37.868046666052834" lon="14.900727289275292"><ele>863.5</ele><time>2026-04-12T07:37:29.994Z</time></trkpt><trkpt lat="37.868041817861425" lon="14.900389229964578"><ele>863.0</ele><time>2026-04-12T07:37:30.994Z</time></trkpt><trkpt lat="37.868047150416984" lon="14.900052753777732"><ele>863.0</ele><time>2026-04-12T07:37:31.994Z</time></trkpt><trkpt lat="37.86805779963616" lon="14.899716305697234"><ele>863.0</ele><time>2026-04-12T07:37:32.994Z</time></trkpt><trkpt lat="37.86807272172507" lon="14.899382832000864"><ele>862.5</ele><time>2026-04-12T07:37:33.994Z</time></trkpt><trkpt lat="37.86809070753122" lon="14.899047492369055"><ele>862.0</ele><time>2026-04-12T07:37:34.994Z</time></trkpt><trkpt lat="37.868117568000535" lon="14.89872018697433"><ele>862.0</ele><time>2026-04-12T07:37:35.994Z</time></trkpt><trkpt lat="37.86813493063441" lon="14.898382338246147"><ele>862.0</ele><time>2026-04-12T07:37:36.993Z</time></trkpt><trkpt lat="37.86815180902672" lon="14.89803900354984"><ele>862.0</ele><time>2026-04-12T07:37:37.993Z</time></trkpt><trkpt lat="37.86816919338582" lon="14.897692842105524"><ele>862.0</ele><time>2026-04-12T07:37:38.993Z</time></trkpt><trkpt lat="37.8681894742681" lon="14.897330693360477"><ele>863.0</ele><time>2026-04-12T07:37:39.993Z</time></trkpt><trkpt lat="37.86820106154994" lon="14.896959082236199"><ele>864.0</ele><time>2026-04-12T07:37:40.993Z</time></trkpt><trkpt lat="37.86823466946177" lon="14.896592384847338"><ele>865.5</ele><time>2026-04-12T07:37:41.993Z</time></trkpt><trkpt lat="37.86826305381857" lon="14.89623065268779"><ele>867.0</ele><time>2026-04-12T07:37:42.993Z</time></trkpt><trkpt lat="37.868283512762666" lon="14.89588390508003"><ele>869.0</ele><time>2026-04-12T07:37:43.993Z</time></trkpt><trkpt lat="37.86830764866144" lon="14.895541386238012"><ele>871.0</ele><time>2026-04-12T07:37:44.993Z</time></trkpt><trkpt lat="37.868334502187224" lon="14.895216675502276"><ele>871.5</ele><time>2026-04-12T07:37:45.993Z</time></trkpt><trkpt lat="37.868388816922725" lon="14.894901537014901"><ele>872.0</ele><time>2026-04-12T07:37:46.993Z</time></trkpt><trkpt lat="37.86847245760791" lon="14.894595739749693"><ele>873.5</ele><time>2026-04-12T07:37:47.993Z</time></trkpt><trkpt lat="37.868580179873895" lon="14.894302492789889"><ele>875.0</ele><time>2026-04-12T07:37:48.993Z</time></trkpt><trkpt lat="37.86872491223804" lon="14.894036825697839"><ele>875.0</ele><time>2026-04-12T07:37:49.993Z</time></trkpt><trkpt lat="37.86887937026362" lon="14.893742513662596"><ele>875.0</ele><time>2026-04-12T07:37:50.993Z</time></trkpt><trkpt lat="37.86903257577491" lon="14.893450344982673"><ele>875.5</ele><time>2026-04-12T07:37:51.993Z</time></trkpt><trkpt lat="37.86918253116732" lon="14.893163126590435"><ele>876.0</ele><time>2026-04-12T07:37:52.993Z</time></trkpt><trkpt lat="37.869332546525044" lon="14.892878343693832"><ele>876.0</ele><time>2026-04-12T07:37:53.995Z</time></trkpt><trkpt lat="37.86948007319282" lon="14.892600609502024"><ele>876.0</ele><time>2026-04-12T07:37:54.996Z</time></trkpt><trkpt lat="37.86962186123567" lon="14.892323182517604"><ele>877.0</ele><time>2026-04-12T07:37:55.996Z</time></trkpt><trkpt lat="37.86975565714966" lon="14.892037390068163"><ele>878.0</ele><time>2026-04-12T07:37:56.996Z</time></trkpt><trkpt lat="37.86987116894484" lon="14.89175883751831"><ele>878.5</ele><time>2026-04-12T07:37:57.995Z</time></trkpt><trkpt lat="37.869982250293475" lon="14.891484433850628"><ele>879.0</ele><time>2026-04-12T07:37:58.995Z</time></trkpt><trkpt lat="37.87009091493838" lon="14.891216000438707"><ele>883.0</ele><time>2026-04-12T07:37:59.996Z</time></trkpt><trkpt lat="37.870195034415545" lon="14.890950080618964"><ele>887.0</ele><time>2026-04-12T07:38:00.996Z</time></trkpt><trkpt lat="37.87027280998976" lon="14.89067285139976"><ele>887.0</ele><time>2026-04-12T07:38:01.996Z</time></trkpt><trkpt lat="37.870314311387425" lon="14.89038843547259"><ele>887.0</ele><time>2026-04-12T07:38:02.996Z</time></trkpt><trkpt lat="37.870327613215814" lon="14.890085423352184"><ele>883.0</ele><time>2026-04-12T07:38:03.995Z</time></trkpt><trkpt lat="37.87030668056593" lon="14.889775959885068"><ele>879.0</ele><time>2026-04-12T07:38:04.995Z</time></trkpt><trkpt lat="37.870230267060776" lon="14.889488822126015"><ele>879.0</ele><time>2026-04-12T07:38:05.995Z</time></trkpt><trkpt lat="37.87015343088981" lon="14.889193626243433"><ele>879.0</ele><time>2026-04-12T07:38:06.995Z</time></trkpt><trkpt lat="37.87003769586354" lon="14.888923085369528"><ele>874.5</ele><time>2026-04-12T07:38:07.995Z</time></trkpt><trkpt lat="37.869885824488605" lon="14.88867586192045"><ele>870.0</ele><time>2026-04-12T07:38:08.995Z</time></trkpt><trkpt lat="37.869725516214714" lon="14.888440510560027"><ele>868.5</ele><time>2026-04-12T07:38:09.995Z</time></trkpt><trkpt lat="37.86958516953003" lon="14.888201524395177"><ele>867.0</ele><time>2026-04-12T07:38:10.995Z</time></trkpt><trkpt lat="37.869450282836475" lon="14.887968781607162"><ele>867.0</ele><time>2026-04-12T07:38:11.995Z</time></trkpt><trkpt lat="37.869316137104676" lon="14.887736802605065"><ele>867.0</ele><time>2026-04-12T07:38:12.995Z</time></trkpt><trkpt lat="37.86918376244858" lon="14.88750736130505"><ele>869.0</ele><time>2026-04-12T07:38:13.995Z</time></trkpt><trkpt lat="37.86905299854535" lon="14.88727804951655"><ele>871.0</ele><time>2026-04-12T07:38:14.995Z</time></trkpt><trkpt lat="37.86891951895947" lon="14.887045396684544"><ele>871.0</ele><time>2026-04-12T07:38:15.995Z</time></trkpt><trkpt lat="37.868776544287016" lon="14.88682518383024"><ele>871.0</ele><time>2026-04-12T07:38:16.995Z</time></trkpt><trkpt lat="37.86864669172609" lon="14.886596221304687"><ele>871.0</ele><time>2026-04-12T07:38:17.995Z</time></trkpt><trkpt lat="37.868533378556855" lon="14.886356861015337"><ele>871.0</ele><time>2026-04-12T07:38:18.995Z</time></trkpt><trkpt lat="37.86839717315159" lon="14.886124955374605"><ele>871.0</ele><time>2026-04-12T07:38:19.995Z</time></trkpt><trkpt lat="37.86827910788075" lon="14.885875793495346"><ele>871.0</ele><time>2026-04-12T07:38:20.995Z</time></trkpt><trkpt lat="37.86817708730049" lon="14.88561108538273"><ele>871.0</ele><time>2026-04-12T07:38:21.995Z</time></trkpt><trkpt lat="37.86804932203292" lon="14.885364639306536"><ele>871.0</ele><time>2026-04-12T07:38:22.995Z</time></trkpt><trkpt lat="37.86794757205625" lon="14.885101228933515"><ele>871.0</ele><time>2026-04-12T07:38:23.995Z</time></trkpt><trkpt lat="37.867816936045124" lon="14.884853057602244"><ele>871.0</ele><time>2026-04-12T07:38:24.995Z</time></trkpt><trkpt lat="37.86770611263615" lon="14.884604676736096"><ele>871.0</ele><time>2026-04-12T07:38:25.995Z</time></trkpt><trkpt lat="37.86759096968717" lon="14.884353879121457"><ele>872.5</ele><time>2026-04-12T07:38:26.995Z</time></trkpt><trkpt lat="37.86748062567501" lon="14.884108253476185"><ele>874.0</ele><time>2026-04-12T07:38:27.995Z</time></trkpt><trkpt lat="37.86739288640099" lon="14.883843769995515"><ele>874.0</ele><time>2026-04-12T07:38:28.995Z</time></trkpt><trkpt lat="37.86728029198525" lon="14.88360081995274"><ele>874.0</ele><time>2026-04-12T07:38:29.995Z</time></trkpt><trkpt lat="37.86716728731177" lon="14.88335241210177"><ele>874.0</ele><time>2026-04-12T07:38:30.995Z</time></trkpt><trkpt lat="37.867049942891065" lon="14.883099567090705"><ele>874.0</ele><time>2026-04-12T07:38:31.995Z</time></trkpt><trkpt lat="37.86692568006095" lon="14.882844003659986"><ele>874.0</ele><time>2026-04-12T07:38:32.995Z</time></trkpt><trkpt lat="37.86679548174683" lon="14.882584177768015"><ele>875.0</ele><time>2026-04-12T07:38:33.995Z</time></trkpt><trkpt lat="37.86667170022283" lon="14.882309098227127"><ele>876.0</ele><time>2026-04-12T07:38:34.995Z</time></trkpt><trkpt lat="37.866549823350454" lon="14.88202724688973"><ele>876.0</ele><time>2026-04-12T07:38:35.994Z</time></trkpt><trkpt lat="37.86642702755098" lon="14.881746573378848"><ele>876.0</ele><time>2026-04-12T07:38:36.994Z</time></trkpt><trkpt lat="37.86630216628047" lon="14.881472260892961"><ele>876.0</ele><time>2026-04-12T07:38:37.994Z</time></trkpt><trkpt lat="37.86617599619772" lon="14.881203241371972"><ele>876.0</ele><time>2026-04-12T07:38:38.994Z</time></trkpt><trkpt lat="37.866055203235796" lon="14.880939276175198"><ele>875.3333333333333</ele><time>2026-04-12T07:38:39.994Z</time></trkpt><trkpt lat="37.8659401669426" lon="14.88068988744515"><ele>874.6666666666666</ele><time>2026-04-12T07:38:40.994Z</time></trkpt><trkpt lat="37.86582742471696" lon="14.880450449684394"><ele>874.0</ele><time>2026-04-12T07:38:41.994Z</time></trkpt><trkpt lat="37.86572236154342" lon="14.880215046966638"><ele>875.0</ele><time>2026-04-12T07:38:42.994Z</time></trkpt><trkpt lat="37.86561674460333" lon="14.87998451118998"><ele>876.0</ele><time>2026-04-12T07:38:43.994Z</time></trkpt><trkpt lat="37.86550920559994" lon="14.879757304160108"><ele>877.0</ele><time>2026-04-12T07:38:44.994Z</time></trkpt><trkpt lat="37.86540386371902" lon="14.879534355819587"><ele>877.0</ele><time>2026-04-12T07:38:45.994Z</time></trkpt><trkpt lat="37.86529674981296" lon="14.879316256109448"><ele>877.0</ele><time>2026-04-12T07:38:46.994Z</time></trkpt><trkpt lat="37.865189378269434" lon="14.879093573346157"><ele>877.0</ele><time>2026-04-12T07:38:47.994Z</time></trkpt><trkpt lat="37.86509760418281" lon="14.878854241412093"><ele>877.6666666666666</ele><time>2026-04-12T07:38:48.994Z</time></trkpt><trkpt lat="37.864990439636536" lon="14.878619495108769"><ele>878.3333333333333</ele><time>2026-04-12T07:38:49.994Z</time></trkpt><trkpt lat="37.86488138993418" lon="14.87837939282021"><ele>879.0</ele><time>2026-04-12T07:38:50.994Z</time></trkpt><trkpt lat="37.86477234655189" lon="14.87813930525247"><ele>880.3333333333333</ele><time>2026-04-12T07:38:51.994Z</time></trkpt><trkpt lat="37.864665893849754" lon="14.877892371808393"><ele>881.6666666666666</ele><time>2026-04-12T07:38:52.994Z</time></trkpt><trkpt lat="37.86456245016312" lon="14.877640857207385"><ele>883.0</ele><time>2026-04-12T07:38:53.994Z</time></trkpt><trkpt lat="37.86448612678083" lon="14.877358642500374"><ele>884.5</ele><time>2026-04-12T07:38:54.994Z</time></trkpt><trkpt lat="37.86439688099782" lon="14.87707665925693"><ele>886.0</ele><time>2026-04-12T07:38:55.994Z</time></trkpt><trkpt lat="37.86429060206543" lon="14.876795118991462"><ele>883.0</ele><time>2026-04-12T07:38:56.994Z</time></trkpt><trkpt lat="37.86419921477286" lon="14.876490680653223"><ele>880.0</ele><time>2026-04-12T07:38:57.994Z</time></trkpt><trkpt lat="37.864103810286544" lon="14.876181637760844"><ele>880.0</ele><time>2026-04-12T07:38:58.994Z</time></trkpt><trkpt lat="37.8640048102225" lon="14.87586933779779"><ele>880.0</ele><time>2026-04-12T07:38:59.994Z</time></trkpt><trkpt lat="37.86390356111813" lon="14.875555852549404"><ele>880.0</ele><time>2026-04-12T07:39:00.994Z</time></trkpt><trkpt lat="37.86380361486878" lon="14.87524675745097"><ele>880.0</ele><time>2026-04-12T07:39:01.994Z</time></trkpt><trkpt lat="37.8637052556412" lon="14.874944025259143"><ele>880.0</ele><time>2026-04-12T07:39:02.994Z</time></trkpt><trkpt lat="37.86360375347969" lon="14.874644944681114"><ele>880.0</ele><time>2026-04-12T07:39:03.994Z</time></trkpt><trkpt lat="37.863508885168805" lon="14.87434485991813"><ele>880.0</ele><time>2026-04-12T07:39:04.994Z</time></trkpt><trkpt lat="37.863426501865376" lon="14.87404582646479"><ele>880.0</ele><time>2026-04-12T07:39:05.994Z</time></trkpt><trkpt lat="37.86331692203903" lon="14.873757652484068"><ele>880.0</ele><time>2026-04-12T07:39:06.994Z</time></trkpt><trkpt lat="37.86322846707964" lon="14.87346564032642"><ele>880.0</ele><time>2026-04-12T07:39:07.994Z</time></trkpt><trkpt lat="37.86313641336582" lon="14.873177095078203"><ele>880.5</ele><time>2026-04-12T07:39:08.994Z</time></trkpt><trkpt lat="37.86304185382213" lon="14.872891155611352"><ele>881.0</ele><time>2026-04-12T07:39:09.994Z</time></trkpt><trkpt lat="37.862953548244164" lon="14.87260457489392"><ele>881.0</ele><time>2026-04-12T07:39:10.994Z</time></trkpt><trkpt lat="37.86286316332188" lon="14.872318156445813"><ele>881.0</ele><time>2026-04-12T07:39:11.994Z</time></trkpt><trkpt lat="37.86277120023103" lon="14.87203486384052"><ele>881.0</ele><time>2026-04-12T07:39:12.993Z</time></trkpt><trkpt lat="37.86268150574187" lon="14.871748768269104"><ele>881.0</ele><time>2026-04-12T07:39:13.993Z</time></trkpt><trkpt lat="37.862589645275406" lon="14.871450970535161"><ele>881.0</ele><time>2026-04-12T07:39:14.993Z</time></trkpt><trkpt lat="37.862495045844824" lon="14.871159537334115"><ele>881.0</ele><time>2026-04-12T07:39:15.993Z</time></trkpt><trkpt lat="37.86239368394159" lon="14.870873980790591"><ele>881.0</ele><time>2026-04-12T07:39:16.993Z</time></trkpt><trkpt lat="37.862301605309604" lon="14.870581629723096"><ele>881.0</ele><time>2026-04-12T07:39:17.993Z</time></trkpt><trkpt lat="37.862236139267694" lon="14.870286210356454"><ele>882.5</ele><time>2026-04-12T07:39:18.993Z</time></trkpt><trkpt lat="37.86214437182413" lon="14.870007337228854"><ele>884.0</ele><time>2026-04-12T07:39:19.993Z</time></trkpt><trkpt lat="37.862053111704085" lon="14.869728118403142"><ele>884.0</ele><time>2026-04-12T07:39:20.993Z</time></trkpt><trkpt lat="37.86196514085658" lon="14.869445706865019"><ele>884.0</ele><time>2026-04-12T07:39:21.993Z</time></trkpt><trkpt lat="37.86187750566765" lon="14.869162741064287"><ele>882.5</ele><time>2026-04-12T07:39:22.993Z</time></trkpt><trkpt lat="37.861801457091744" lon="14.868877359809526"><ele>881.0</ele><time>2026-04-12T07:39:23.993Z</time></trkpt><trkpt lat="37.861726645746046" lon="14.868591571977547"><ele>883.0</ele><time>2026-04-12T07:39:24.993Z</time></trkpt><trkpt lat="37.8616619685333" lon="14.868307804539997"><ele>885.0</ele><time>2026-04-12T07:39:25.993Z</time></trkpt><trkpt lat="37.861602665321946" lon="14.86802498692361"><ele>885.0</ele><time>2026-04-12T07:39:26.993Z</time></trkpt><trkpt lat="37.861543762820354" lon="14.867764733890581"><ele>885.0</ele><time>2026-04-12T07:39:27.993Z</time></trkpt><trkpt lat="37.86148853499339" lon="14.867509608972938"><ele>885.0</ele><time>2026-04-12T07:39:28.993Z</time></trkpt><trkpt lat="37.86144053966275" lon="14.867252618163493"><ele>885.0</ele><time>2026-04-12T07:39:29.993Z</time></trkpt><trkpt lat="37.86140760163546" lon="14.866986787842203"><ele>885.0</ele><time>2026-04-12T07:39:30.993Z</time></trkpt><trkpt lat="37.86140428863605" lon="14.866692551936115"><ele>885.0</ele><time>2026-04-12T07:39:31.993Z</time></trkpt><trkpt lat="37.86140322944796" lon="14.866386023743617"><ele>884.0</ele><time>2026-04-12T07:39:32.993Z</time></trkpt><trkpt lat="37.861398565144796" lon="14.86608077996653"><ele>883.0</ele><time>2026-04-12T07:39:33.993Z</time></trkpt><trkpt lat="37.86138593568712" lon="14.865769109065893"><ele>882.0</ele><time>2026-04-12T07:39:34.993Z</time></trkpt><trkpt lat="37.861370007133544" lon="14.865448957936861"><ele>881.0</ele><time>2026-04-12T07:39:35.993Z</time></trkpt><trkpt lat="37.861358639796315" lon="14.865127441363503"><ele>880.5</ele><time>2026-04-12T07:39:36.993Z</time></trkpt><trkpt lat="37.86134706206409" lon="14.864806029354485"><ele>880.0</ele><time>2026-04-12T07:39:37.993Z</time></trkpt><trkpt lat="37.861335897234746" lon="14.864483528252"><ele>879.0</ele><time>2026-04-12T07:39:38.993Z</time></trkpt><trkpt lat="37.8613217586009" lon="14.864160636601994"><ele>878.0</ele><time>2026-04-12T07:39:39.993Z</time></trkpt><trkpt lat="37.86130688922811" lon="14.863837896980307"><ele>878.0</ele><time>2026-04-12T07:39:40.993Z</time></trkpt><trkpt lat="37.86129345008635" lon="14.863517508532933"><ele>878.0</ele><time>2026-04-12T07:39:41.993Z</time></trkpt><trkpt lat="37.861285937437096" lon="14.86319885069782"><ele>876.5</ele><time>2026-04-12T07:39:42.993Z</time></trkpt><trkpt lat="37.86127624734828" lon="14.862888473455333"><ele>875.0</ele><time>2026-04-12T07:39:43.993Z</time></trkpt><trkpt lat="37.861264065065185" lon="14.862585893475929"><ele>874.0</ele><time>2026-04-12T07:39:44.993Z</time></trkpt><trkpt lat="37.86125610706551" lon="14.8622878010763"><ele>873.0</ele><time>2026-04-12T07:39:45.993Z</time></trkpt><trkpt lat="37.861244262695884" lon="14.861987660075302"><ele>873.5</ele><time>2026-04-12T07:39:46.993Z</time></trkpt><trkpt lat="37.86123364096392" lon="14.861696743224941"><ele>874.0</ele><time>2026-04-12T07:39:47.993Z</time></trkpt><trkpt lat="37.8612242202049" lon="14.861411641333158"><ele>874.0</ele><time>2026-04-12T07:39:48.993Z</time></trkpt><trkpt lat="37.86121252797356" lon="14.861125920894587"><ele>874.0</ele><time>2026-04-12T07:39:49.992Z</time></trkpt><trkpt lat="37.86118832002302" lon="14.860843634831314"><ele>872.5</ele><time>2026-04-12T07:39:50.992Z</time></trkpt><trkpt lat="37.86114614676264" lon="14.86056033850511"><ele>871.0</ele><time>2026-04-12T07:39:51.992Z</time></trkpt><trkpt lat="37.861079257283606" lon="14.860280901018253"><ele>870.0</ele><time>2026-04-12T07:39:52.992Z</time></trkpt><trkpt lat="37.86099496295489" lon="14.860008474022944"><ele>869.0</ele><time>2026-04-12T07:39:53.992Z</time></trkpt><trkpt lat="37.86089207079367" lon="14.859748068661"><ele>869.0</ele><time>2026-04-12T07:39:54.992Z</time></trkpt><trkpt lat="37.86077869033974" lon="14.859489390838677"><ele>869.0</ele><time>2026-04-12T07:39:55.992Z</time></trkpt><trkpt lat="37.86065184780389" lon="14.859244220949638"><ele>868.0</ele><time>2026-04-12T07:39:56.992Z</time></trkpt><trkpt lat="37.860515516593786" lon="14.859005845319892"><ele>867.0</ele><time>2026-04-12T07:39:57.992Z</time></trkpt><trkpt lat="37.86037561197153" lon="14.858764121351147"><ele>867.0</ele><time>2026-04-12T07:39:58.992Z</time></trkpt><trkpt lat="37.86024097063686" lon="14.858516376914357"><ele>867.0</ele><time>2026-04-12T07:39:59.995Z</time></trkpt><trkpt lat="37.86010703087891" lon="14.858265640252748"><ele>867.0</ele><time>2026-04-12T07:40:00.996Z</time></trkpt><trkpt lat="37.859972126226786" lon="14.858016102518217"><ele>867.0</ele><time>2026-04-12T07:40:01.996Z</time></trkpt><trkpt lat="37.85983815744301" lon="14.857769748787808"><ele>867.0</ele><time>2026-04-12T07:40:02.995Z</time></trkpt><trkpt lat="37.85970228034013" lon="14.857519475488218"><ele>867.0</ele><time>2026-04-12T07:40:03.996Z</time></trkpt><trkpt lat="37.859564245200836" lon="14.857272767090993"><ele>867.0</ele><time>2026-04-12T07:40:04.996Z</time></trkpt><trkpt lat="37.85942991508843" lon="14.857024657387909"><ele>867.0</ele><time>2026-04-12T07:40:05.996Z</time></trkpt><trkpt lat="37.8592952673068" lon="14.856775180153898"><ele>866.0</ele><time>2026-04-12T07:40:06.996Z</time></trkpt><trkpt lat="37.8591563172698" lon="14.856521813047447"><ele>865.0</ele><time>2026-04-12T07:40:07.996Z</time></trkpt><trkpt lat="37.85901538242401" lon="14.856268950521386"><ele>865.0</ele><time>2026-04-12T07:40:08.996Z</time></trkpt><trkpt lat="37.85887062910004" lon="14.855999029848745"><ele>865.0</ele><time>2026-04-12T07:40:09.996Z</time></trkpt><trkpt lat="37.85872496887374" lon="14.855735166050653"><ele>863.5</ele><time>2026-04-12T07:40:10.996Z</time></trkpt><trkpt lat="37.85857626868598" lon="14.855469921164058"><ele>862.0</ele><time>2026-04-12T07:40:11.996Z</time></trkpt><trkpt lat="37.85842857802453" lon="14.855201720668674"><ele>861.0</ele><time>2026-04-12T07:40:12.995Z</time></trkpt><trkpt lat="37.858284874672684" lon="14.854931120462258"><ele>860.0</ele><time>2026-04-12T07:40:13.995Z</time></trkpt><trkpt lat="37.85814147832695" lon="14.854661291493224"><ele>860.0</ele><time>2026-04-12T07:40:14.995Z</time></trkpt><trkpt lat="37.85799697903168" lon="14.854392513945633"><ele>860.0</ele><time>2026-04-12T07:40:15.995Z</time></trkpt><trkpt lat="37.857853233703125" lon="14.854120482773245"><ele>859.0</ele><time>2026-04-12T07:40:16.995Z</time></trkpt><trkpt lat="37.85770869660038" lon="14.853849202474004"><ele>858.0</ele><time>2026-04-12T07:40:17.995Z</time></trkpt><trkpt lat="37.8575630379101" lon="14.853577817460787"><ele>857.0</ele><time>2026-04-12T07:40:18.995Z</time></trkpt><trkpt lat="37.85741706951343" lon="14.853306698845042"><ele>856.0</ele><time>2026-04-12T07:40:19.995Z</time></trkpt><trkpt lat="37.85727080348015" lon="14.853034400194497"><ele>856.0</ele><time>2026-04-12T07:40:20.995Z</time></trkpt><trkpt lat="37.85712393596547" lon="14.85276197743247"><ele>856.0</ele><time>2026-04-12T07:40:21.995Z</time></trkpt><trkpt lat="37.85697583143601" lon="14.852490325172958"><ele>854.0</ele><time>2026-04-12T07:40:22.995Z</time></trkpt><trkpt lat="37.856826823988094" lon="14.85221539595488"><ele>852.0</ele><time>2026-04-12T07:40:23.995Z</time></trkpt><trkpt lat="37.8566767181559" lon="14.851944054704747"><ele>851.5</ele><time>2026-04-12T07:40:24.995Z</time></trkpt><trkpt lat="37.85654251259641" lon="14.851657882462186"><ele>851.0</ele><time>2026-04-12T07:40:25.995Z</time></trkpt><trkpt lat="37.85639394140795" lon="14.851382135287668"><ele>851.0</ele><time>2026-04-12T07:40:26.995Z</time></trkpt><trkpt lat="37.856242836344734" lon="14.851101636507982"><ele>851.0</ele><time>2026-04-12T07:40:27.995Z</time></trkpt><trkpt lat="37.85609333431402" lon="14.850824079616325"><ele>851.0</ele><time>2026-04-12T07:40:28.995Z</time></trkpt><trkpt lat="37.85593118970209" lon="14.850558428421797"><ele>851.0</ele><time>2026-04-12T07:40:29.995Z</time></trkpt><trkpt lat="37.85578058345015" lon="14.850279113712954"><ele>850.0</ele><time>2026-04-12T07:40:30.995Z</time></trkpt><trkpt lat="37.85563088523805" lon="14.849997653902182"><ele>849.0</ele><time>2026-04-12T07:40:31.995Z</time></trkpt><trkpt lat="37.85548492430964" lon="14.849721656319874"><ele>849.0</ele><time>2026-04-12T07:40:32.995Z</time></trkpt><trkpt lat="37.85533849377993" lon="14.84944635798757"><ele>849.0</ele><time>2026-04-12T07:40:33.995Z</time></trkpt><trkpt lat="37.85519232381676" lon="14.849178504806273"><ele>847.0</ele><time>2026-04-12T07:40:34.995Z</time></trkpt><trkpt lat="37.85505111496164" lon="14.848915862716522"><ele>845.0</ele><time>2026-04-12T07:40:35.995Z</time></trkpt><trkpt lat="37.8549184781157" lon="14.84866485286644"><ele>844.0</ele><time>2026-04-12T07:40:36.995Z</time></trkpt><trkpt lat="37.85478769438776" lon="14.848419276062003"><ele>843.0</ele><time>2026-04-12T07:40:37.995Z</time></trkpt><trkpt lat="37.8546765870369" lon="14.848165433419519"><ele>843.0</ele><time>2026-04-12T07:40:38.995Z</time></trkpt><trkpt lat="37.85454807038734" lon="14.847934975552995"><ele>843.0</ele><time>2026-04-12T07:40:39.995Z</time></trkpt><trkpt lat="37.85442160417809" lon="14.847701060953623"><ele>843.0</ele><time>2026-04-12T07:40:40.995Z</time></trkpt><trkpt lat="37.85429864903711" lon="14.847473092465588"><ele>843.0</ele><time>2026-04-12T07:40:41.994Z</time></trkpt><trkpt lat="37.85418058706451" lon="14.847256933450442"><ele>843.0</ele><time>2026-04-12T07:40:42.994Z</time></trkpt><trkpt lat="37.85406502760086" lon="14.847041874122256"><ele>843.0</ele><time>2026-04-12T07:40:43.994Z</time></trkpt><trkpt lat="37.853948497713716" lon="14.846829814092631"><ele>842.3333333333333</ele><time>2026-04-12T07:40:44.994Z</time></trkpt><trkpt lat="37.853830290677884" lon="14.846610139895642"><ele>841.6666666666666</ele><time>2026-04-12T07:40:45.994Z</time></trkpt><trkpt lat="37.85371202675718" lon="14.846390841026377"><ele>841.0</ele><time>2026-04-12T07:40:46.994Z</time></trkpt><trkpt lat="37.85359561459472" lon="14.846177783396984"><ele>841.0</ele><time>2026-04-12T07:40:47.994Z</time></trkpt><trkpt lat="37.85347538896488" lon="14.845956142311703"><ele>841.0</ele><time>2026-04-12T07:40:48.994Z</time></trkpt><trkpt lat="37.85335237161981" lon="14.845727690443399"><ele>841.0</ele><time>2026-04-12T07:40:49.994Z</time></trkpt><trkpt lat="37.85322707954542" lon="14.845494747980677"><ele>841.5</ele><time>2026-04-12T07:40:50.994Z</time></trkpt><trkpt lat="37.853102356176954" lon="14.845253848657906"><ele>842.0</ele><time>2026-04-12T07:40:51.994Z</time></trkpt><trkpt lat="37.85297340372841" lon="14.845016897257965"><ele>841.0</ele><time>2026-04-12T07:40:52.994Z</time></trkpt><trkpt lat="37.8528425854138" lon="14.844777309760453"><ele>840.0</ele><time>2026-04-12T07:40:53.994Z</time></trkpt><trkpt lat="37.85271030985693" lon="14.844535261318645"><ele>837.5</ele><time>2026-04-12T07:40:54.994Z</time></trkpt><trkpt lat="37.85257488711851" lon="14.844293552117007"><ele>835.0</ele><time>2026-04-12T07:40:55.994Z</time></trkpt><trkpt lat="37.852436583246536" lon="14.844049247316336"><ele>835.0</ele><time>2026-04-12T07:40:56.994Z</time></trkpt><trkpt lat="37.85229811176479" lon="14.8437951557562"><ele>835.0</ele><time>2026-04-12T07:40:57.994Z</time></trkpt><trkpt lat="37.85215482335906" lon="14.843534669634282"><ele>834.5</ele><time>2026-04-12T07:40:58.994Z</time></trkpt><trkpt lat="37.85201086794054" lon="14.843262163833998"><ele>834.0</ele><time>2026-04-12T07:40:59.994Z</time></trkpt><trkpt lat="37.851866600799795" lon="14.842988246819273"><ele>832.5</ele><time>2026-04-12T07:41:00.994Z</time></trkpt><trkpt lat="37.85171961029827" lon="14.842716439775067"><ele>831.0</ele><time>2026-04-12T07:41:01.994Z</time></trkpt><trkpt lat="37.85157271864451" lon="14.842448898054153"><ele>830.5</ele><time>2026-04-12T07:41:02.994Z</time></trkpt><trkpt lat="37.85142759796218" lon="14.842179714825246"><ele>830.0</ele><time>2026-04-12T07:41:03.994Z</time></trkpt><trkpt lat="37.851282301674836" lon="14.841908029358043"><ele>829.0</ele><time>2026-04-12T07:41:04.994Z</time></trkpt><trkpt lat="37.85113512693933" lon="14.841639170888087"><ele>828.0</ele><time>2026-04-12T07:41:05.994Z</time></trkpt><trkpt lat="37.8510024909833" lon="14.841362366354318"><ele>828.0</ele><time>2026-04-12T07:41:06.994Z</time></trkpt><trkpt lat="37.850863940613436" lon="14.841105578400395"><ele>828.0</ele><time>2026-04-12T07:41:07.994Z</time></trkpt><trkpt lat="37.85073059048395" lon="14.84085621288951"><ele>827.0</ele><time>2026-04-12T07:41:08.994Z</time></trkpt><trkpt lat="37.850608771117905" lon="14.8406064752741"><ele>826.0</ele><time>2026-04-12T07:41:09.994Z</time></trkpt><trkpt lat="37.850510505196" lon="14.840333753885224"><ele>825.5</ele><time>2026-04-12T07:41:10.994Z</time></trkpt><trkpt lat="37.85043198046341" lon="14.840048176201085"><ele>825.0</ele><time>2026-04-12T07:41:11.994Z</time></trkpt><trkpt lat="37.8503607675429" lon="14.83975240433562"><ele>825.0</ele><time>2026-04-12T07:41:12.994Z</time></trkpt><trkpt lat="37.85028753687603" lon="14.839449438820822"><ele>825.0</ele><time>2026-04-12T07:41:13.994Z</time></trkpt><trkpt lat="37.85020200029381" lon="14.839144861499522"><ele>824.5</ele><time>2026-04-12T07:41:14.994Z</time></trkpt><trkpt lat="37.850128887215966" lon="14.838829674310968"><ele>824.0</ele><time>2026-04-12T07:41:15.994Z</time></trkpt><trkpt lat="37.85005286580205" lon="14.838509481029392"><ele>823.0</ele><time>2026-04-12T07:41:16.994Z</time></trkpt><trkpt lat="37.849975851197854" lon="14.838188673151963"><ele>822.0</ele><time>2026-04-12T07:41:17.994Z</time></trkpt><trkpt lat="37.84990305902878" lon="14.837874721969408"><ele>822.0</ele><time>2026-04-12T07:41:18.993Z</time></trkpt><trkpt lat="37.84982647440008" lon="14.837569976392622"><ele>822.0</ele><time>2026-04-12T07:41:19.993Z</time></trkpt><trkpt lat="37.84974978200486" lon="14.837268297984837"><ele>822.0</ele><time>2026-04-12T07:41:20.993Z</time></trkpt><trkpt lat="37.84969343742703" lon="14.836960520582542"><ele>822.0</ele><time>2026-04-12T07:41:21.993Z</time></trkpt><trkpt lat="37.84962170181784" lon="14.83665855582864"><ele>821.5</ele><time>2026-04-12T07:41:22.993Z</time></trkpt><trkpt lat="37.84953672612859" lon="14.836363693050451"><ele>821.0</ele><time>2026-04-12T07:41:23.993Z</time></trkpt><trkpt lat="37.849466256542264" lon="14.836059986021239"><ele>821.0</ele><time>2026-04-12T07:41:24.993Z</time></trkpt><trkpt lat="37.84939914223671" lon="14.835756955294496"><ele>821.0</ele><time>2026-04-12T07:41:25.993Z</time></trkpt><trkpt lat="37.84932689068781" lon="14.835457313798722"><ele>818.5</ele><time>2026-04-12T07:41:26.993Z</time></trkpt><trkpt lat="37.849259439863154" lon="14.83515203207199"><ele>816.0</ele><time>2026-04-12T07:41:27.993Z</time></trkpt><trkpt lat="37.849190739910405" lon="14.834846119170162"><ele>816.0</ele><time>2026-04-12T07:41:28.993Z</time></trkpt><trkpt lat="37.84911770626347" lon="14.834539700210543"><ele>816.0</ele><time>2026-04-12T07:41:29.993Z</time></trkpt><trkpt lat="37.8490416028175" lon="14.834235324329255"><ele>816.0</ele><time>2026-04-12T07:41:30.993Z</time></trkpt><trkpt lat="37.8489691875112" lon="14.83394311304752"><ele>816.0</ele><time>2026-04-12T07:41:31.993Z</time></trkpt><trkpt lat="37.848900852567425" lon="14.83366572833667"><ele>816.6666666666667</ele><time>2026-04-12T07:41:32.993Z</time></trkpt><trkpt lat="37.8488371488865" lon="14.833397021856833"><ele>817.3333333333334</ele><time>2026-04-12T07:41:33.993Z</time></trkpt><trkpt lat="37.84878359583065" lon="14.833126173808271"><ele>818.0</ele><time>2026-04-12T07:41:34.993Z</time></trkpt><trkpt lat="37.848696432755474" lon="14.832865407947637"><ele>818.0</ele><time>2026-04-12T07:41:35.993Z</time></trkpt><trkpt lat="37.84860580487486" lon="14.832611855469267"><ele>818.0</ele><time>2026-04-12T07:41:36.993Z</time></trkpt><trkpt lat="37.84851111642854" lon="14.832354129765537"><ele>818.0</ele><time>2026-04-12T07:41:37.993Z</time></trkpt><trkpt lat="37.84841847423961" lon="14.832106170244632"><ele>816.3333333333334</ele><time>2026-04-12T07:41:38.993Z</time></trkpt><trkpt lat="37.848333171188834" lon="14.831859953118622"><ele>814.6666666666667</ele><time>2026-04-12T07:41:39.993Z</time></trkpt><trkpt lat="37.848245933100394" lon="14.83161360115555"><ele>813.0</ele><time>2026-04-12T07:41:40.993Z</time></trkpt><trkpt lat="37.84816330093636" lon="14.831371395120959"><ele>811.6666666666667</ele><time>2026-04-12T07:41:41.993Z</time></trkpt><trkpt lat="37.84808437888838" lon="14.831134148802715"><ele>810.3333333333334</ele><time>2026-04-12T07:41:42.993Z</time></trkpt><trkpt lat="37.84801380281029" lon="14.830900685465464"><ele>809.0</ele><time>2026-04-12T07:41:43.993Z</time></trkpt><trkpt lat="37.84795541122769" lon="14.830677914559098"><ele>808.3333333333334</ele><time>2026-04-12T07:41:44.993Z</time></trkpt><trkpt lat="37.84791014185746" lon="14.830444245364886"><ele>807.6666666666667</ele><time>2026-04-12T07:41:45.993Z</time></trkpt><trkpt lat="37.84787913079463" lon="14.830199370505827"><ele>807.0</ele><time>2026-04-12T07:41:46.993Z</time></trkpt><trkpt lat="37.847885794597715" lon="14.829942364617589"><ele>807.0</ele><time>2026-04-12T07:41:47.993Z</time></trkpt><trkpt lat="37.84790614194784" lon="14.829672318397138"><ele>807.0</ele><time>2026-04-12T07:41:48.993Z</time></trkpt><trkpt lat="37.8479344061308" lon="14.829384338636247"><ele>807.0</ele><time>2026-04-12T07:41:49.993Z</time></trkpt><trkpt lat="37.84796109148687" lon="14.829085254204584"><ele>804.5</ele><time>2026-04-12T07:41:50.993Z</time></trkpt><trkpt lat="37.84798152864347" lon="14.82877561875623"><ele>802.0</ele><time>2026-04-12T07:41:51.993Z</time></trkpt><trkpt lat="37.848010016894555" lon="14.82846623698378"><ele>798.5</ele><time>2026-04-12T07:41:52.993Z</time></trkpt><trkpt lat="37.84803522462626" lon="14.828151168306936"><ele>795.0</ele><time>2026-04-12T07:41:53.993Z</time></trkpt><trkpt lat="37.8480670234687" lon="14.827834462216725"><ele>792.5</ele><time>2026-04-12T07:41:54.993Z</time></trkpt><trkpt lat="37.848099036555354" lon="14.82751817853706"><ele>790.0</ele><time>2026-04-12T07:41:55.992Z</time></trkpt><trkpt lat="37.848132408996285" lon="14.827207826184477"><ele>790.0</ele><time>2026-04-12T07:41:56.992Z</time></trkpt><trkpt lat="37.84816100677904" lon="14.826891155793488"><ele>790.0</ele><time>2026-04-12T07:41:57.992Z</time></trkpt><trkpt lat="37.848185987420635" lon="14.826571052004464"><ele>788.0</ele><time>2026-04-12T07:41:58.992Z</time></trkpt><trkpt lat="37.84821701039707" lon="14.826250782282553"><ele>786.0</ele><time>2026-04-12T07:41:59.992Z</time></trkpt><trkpt lat="37.84824765548169" lon="14.825926240094558"><ele>782.5</ele><time>2026-04-12T07:42:00.992Z</time></trkpt><trkpt lat="37.84828004467929" lon="14.82560788852575"><ele>779.0</ele><time>2026-04-12T07:42:01.992Z</time></trkpt><trkpt lat="37.84831469366395" lon="14.825289485151405"><ele>775.5</ele><time>2026-04-12T07:42:02.992Z</time></trkpt><trkpt lat="37.84834958994931" lon="14.824968585427637"><ele>772.0</ele><time>2026-04-12T07:42:03.992Z</time></trkpt><trkpt lat="37.848377222742975" lon="14.82464574853522"><ele>772.0</ele><time>2026-04-12T07:42:04.992Z</time></trkpt><trkpt lat="37.84840368847736" lon="14.824323962664456"><ele>772.0</ele><time>2026-04-12T07:42:05.996Z</time></trkpt><trkpt lat="37.84843050732555" lon="14.824012280422854"><ele>769.0</ele><time>2026-04-12T07:42:06.996Z</time></trkpt><trkpt lat="37.84848523384974" lon="14.82370610218123"><ele>766.0</ele><time>2026-04-12T07:42:07.996Z</time></trkpt><trkpt lat="37.8485103236612" lon="14.823408509074639"><ele>765.0</ele><time>2026-04-12T07:42:08.996Z</time></trkpt><trkpt lat="37.84852986062325" lon="14.823091350565985"><ele>764.0</ele><time>2026-04-12T07:42:09.996Z</time></trkpt><trkpt lat="37.84855091448449" lon="14.822754358796205"><ele>763.5</ele><time>2026-04-12T07:42:10.996Z</time></trkpt><trkpt lat="37.848588425242745" lon="14.82239952808885"><ele>763.0</ele><time>2026-04-12T07:42:11.996Z</time></trkpt><trkpt lat="37.848638509303235" lon="14.82203771547919"><ele>761.5</ele><time>2026-04-12T07:42:12.996Z</time></trkpt><trkpt lat="37.84867684529747" lon="14.82170104658499"><ele>760.0</ele><time>2026-04-12T07:42:13.996Z</time></trkpt><trkpt lat="37.848698733433764" lon="14.821387415711236"><ele>760.0</ele><time>2026-04-12T07:42:14.996Z</time></trkpt><trkpt lat="37.848700787323295" lon="14.821091267638188"><ele>760.0</ele><time>2026-04-12T07:42:15.996Z</time></trkpt><trkpt lat="37.84867671403085" lon="14.820804281597692"><ele>755.5</ele><time>2026-04-12T07:42:16.996Z</time></trkpt><trkpt lat="37.84860533795516" lon="14.82053134996411"><ele>751.0</ele><time>2026-04-12T07:42:17.996Z</time></trkpt><trkpt lat="37.84850311765575" lon="14.820259326322331"><ele>753.0</ele><time>2026-04-12T07:42:18.996Z</time></trkpt><trkpt lat="37.84837552798864" lon="14.819987867862677"><ele>755.0</ele><time>2026-04-12T07:42:19.996Z</time></trkpt><trkpt lat="37.84823698097072" lon="14.81971360759273"><ele>755.0</ele><time>2026-04-12T07:42:20.996Z</time></trkpt><trkpt lat="37.84810038820906" lon="14.819437723060584"><ele>755.0</ele><time>2026-04-12T07:42:21.995Z</time></trkpt><trkpt lat="37.84797313618447" lon="14.819164876716107"><ele>752.5</ele><time>2026-04-12T07:42:22.995Z</time></trkpt><trkpt lat="37.84785113942928" lon="14.81889260078205"><ele>750.0</ele><time>2026-04-12T07:42:23.995Z</time></trkpt><trkpt lat="37.847731961977146" lon="14.818626745650572"><ele>748.5</ele><time>2026-04-12T07:42:24.995Z</time></trkpt><trkpt lat="37.84760907737354" lon="14.818367005710416"><ele>747.0</ele><time>2026-04-12T07:42:25.995Z</time></trkpt><trkpt lat="37.84748479778203" lon="14.81812493019368"><ele>747.0</ele><time>2026-04-12T07:42:26.995Z</time></trkpt><trkpt lat="37.84736782001944" lon="14.817884431304526"><ele>747.0</ele><time>2026-04-12T07:42:27.995Z</time></trkpt><trkpt lat="37.84727988174547" lon="14.817657040054955"><ele>747.0</ele><time>2026-04-12T07:42:28.995Z</time></trkpt><trkpt lat="37.84726044379957" lon="14.81742372307415"><ele>744.6666666666666</ele><time>2026-04-12T07:42:29.995Z</time></trkpt><trkpt lat="37.84728077742946" lon="14.817194382304626"><ele>742.3333333333333</ele><time>2026-04-12T07:42:30.995Z</time></trkpt><trkpt lat="37.847354415914104" lon="14.816988205516381"><ele>740.0</ele><time>2026-04-12T07:42:31.995Z</time></trkpt><trkpt lat="37.847472655419004" lon="14.816787347436577"><ele>740.0</ele><time>2026-04-12T07:42:32.995Z</time></trkpt><trkpt lat="37.8476162300144" lon="14.816557183209717"><ele>740.0</ele><time>2026-04-12T07:42:33.995Z</time></trkpt><trkpt lat="37.84775585031662" lon="14.81631622197998"><ele>735.6666666666666</ele><time>2026-04-12T07:42:34.995Z</time></trkpt><trkpt lat="37.84789612221007" lon="14.816086300191738"><ele>731.3333333333334</ele><time>2026-04-12T07:42:35.995Z</time></trkpt><trkpt lat="37.84801726069103" lon="14.815866818732944"><ele>727.0</ele><time>2026-04-12T07:42:36.995Z</time></trkpt><trkpt lat="37.84812257620768" lon="14.815647204396326"><ele>727.0</ele><time>2026-04-12T07:42:37.995Z</time></trkpt><trkpt lat="37.84821608191618" lon="14.81542118675363"><ele>727.0</ele><time>2026-04-12T07:42:38.995Z</time></trkpt><trkpt lat="37.848304902436524" lon="14.815171238169857"><ele>727.0</ele><time>2026-04-12T07:42:39.995Z</time></trkpt><trkpt lat="37.84838859108568" lon="14.814913567053987"><ele>723.0</ele><time>2026-04-12T07:42:40.995Z</time></trkpt><trkpt lat="37.84846754582155" lon="14.814645852027779"><ele>719.0</ele><time>2026-04-12T07:42:41.995Z</time></trkpt><trkpt lat="37.84853430509229" lon="14.81437725504126"><ele>715.0</ele><time>2026-04-12T07:42:42.995Z</time></trkpt><trkpt lat="37.84860908321715" lon="14.81412124785848"><ele>715.0</ele><time>2026-04-12T07:42:43.995Z</time></trkpt><trkpt lat="37.84868157749299" lon="14.813881045054803"><ele>715.0</ele><time>2026-04-12T07:42:44.995Z</time></trkpt><trkpt lat="37.84874433371559" lon="14.813644099092585"><ele>715.0</ele><time>2026-04-12T07:42:45.995Z</time></trkpt><trkpt lat="37.84877523466243" lon="14.813396246660995"><ele>714.6666666666667</ele><time>2026-04-12T07:42:46.995Z</time></trkpt><trkpt lat="37.84874716460332" lon="14.813130204811172"><ele>714.3333333333334</ele><time>2026-04-12T07:42:47.995Z</time></trkpt><trkpt lat="37.84866872454305" lon="14.812872991140534"><ele>714.0</ele><time>2026-04-12T07:42:48.995Z</time></trkpt><trkpt lat="37.848540425845165" lon="14.812643738036329"><ele>717.0</ele><time>2026-04-12T07:42:49.995Z</time></trkpt><trkpt lat="37.848366807183474" lon="14.812452330375079"><ele>720.0</ele><time>2026-04-12T07:42:50.995Z</time></trkpt><trkpt lat="37.84816612469943" lon="14.81229420679051"><ele>720.0</ele><time>2026-04-12T07:42:51.995Z</time></trkpt><trkpt lat="37.84796694439233" lon="14.812178229595979"><ele>720.0</ele><time>2026-04-12T07:42:52.995Z</time></trkpt><trkpt lat="37.84779311116716" lon="14.812060567242968"><ele>720.0</ele><time>2026-04-12T07:42:53.995Z</time></trkpt><trkpt lat="37.8476610899462" lon="14.811906508920188"><ele>720.0</ele><time>2026-04-12T07:42:54.995Z</time></trkpt><trkpt lat="37.847564412096006" lon="14.811695085294346"><ele>720.0</ele><time>2026-04-12T07:42:55.995Z</time></trkpt><trkpt lat="37.8475176876422" lon="14.811460514286935"><ele>720.0</ele><time>2026-04-12T07:42:56.995Z</time></trkpt><trkpt lat="37.84751062625902" lon="14.811212073798764"><ele>719.0</ele><time>2026-04-12T07:42:57.995Z</time></trkpt><trkpt lat="37.84755498409366" lon="14.810965123878855"><ele>718.0</ele><time>2026-04-12T07:42:58.994Z</time></trkpt><trkpt lat="37.847649426609735" lon="14.810735108190094"><ele>717.0</ele><time>2026-04-12T07:42:59.994Z</time></trkpt><trkpt lat="37.84777702074505" lon="14.81052830462514"><ele>712.6666666666666</ele><time>2026-04-12T07:43:00.994Z</time></trkpt><trkpt lat="37.847908979036845" lon="14.810306893459556"><ele>708.3333333333333</ele><time>2026-04-12T07:43:01.994Z</time></trkpt><trkpt lat="37.84804047846714" lon="14.810086517903933"><ele>704.0</ele><time>2026-04-12T07:43:02.994Z</time></trkpt><trkpt lat="37.84817265362285" lon="14.809849127498156"><ele>704.0</ele><time>2026-04-12T07:43:03.994Z</time></trkpt><trkpt lat="37.848310765311" lon="14.809635921879336"><ele>704.0</ele><time>2026-04-12T07:43:04.994Z</time></trkpt><trkpt lat="37.84843928208346" lon="14.80942403409424"><ele>704.0</ele><time>2026-04-12T07:43:05.994Z</time></trkpt><trkpt lat="37.848555342021015" lon="14.809230928720291"><ele>700.0</ele><time>2026-04-12T07:43:06.994Z</time></trkpt><trkpt lat="37.84866192581274" lon="14.809036542686423"><ele>696.0</ele><time>2026-04-12T07:43:07.994Z</time></trkpt><trkpt lat="37.84874881339919" lon="14.808839861055421"><ele>692.0</ele><time>2026-04-12T07:43:08.994Z</time></trkpt><trkpt lat="37.84880038980442" lon="14.808595481332798"><ele>690.3333333333333</ele><time>2026-04-12T07:43:09.994Z</time></trkpt><trkpt lat="37.848782083160984" lon="14.808324849784682"><ele>688.6666666666666</ele><time>2026-04-12T07:43:10.994Z</time></trkpt><trkpt lat="37.84871349429822" lon="14.808083603182219"><ele>687.0</ele><time>2026-04-12T07:43:11.994Z</time></trkpt><trkpt lat="37.848597600617126" lon="14.807873800667998"><ele>689.3333333333334</ele><time>2026-04-12T07:43:12.994Z</time></trkpt><trkpt lat="37.84844016793312" lon="14.807704129795294"><ele>691.6666666666667</ele><time>2026-04-12T07:43:13.994Z</time></trkpt><trkpt lat="37.84826084746936" lon="14.807579704809624"><ele>694.0</ele><time>2026-04-12T07:43:14.994Z</time></trkpt><trkpt lat="37.8480665165398" lon="14.807531776425225"><ele>694.0</ele><time>2026-04-12T07:43:15.994Z</time></trkpt><trkpt lat="37.84785796235784" lon="14.807544186948933"><ele>694.0</ele><time>2026-04-12T07:43:16.994Z</time></trkpt><trkpt lat="37.84765433665888" lon="14.807622136054947"><ele>694.0</ele><time>2026-04-12T07:43:17.994Z</time></trkpt><trkpt lat="37.8474643993658" lon="14.807716642204355"><ele>697.0</ele><time>2026-04-12T07:43:18.994Z</time></trkpt><trkpt lat="37.847295745168005" lon="14.807807878691015"><ele>700.0</ele><time>2026-04-12T07:43:19.994Z</time></trkpt><trkpt lat="37.84713434025456" lon="14.807846204025273"><ele>703.0</ele><time>2026-04-12T07:43:20.994Z</time></trkpt><trkpt lat="37.846981314028504" lon="14.80778658411632"><ele>699.6666666666667</ele><time>2026-04-12T07:43:21.994Z</time></trkpt><trkpt lat="37.84685486515186" lon="14.807655091882932"><ele>696.3333333333334</ele><time>2026-04-12T07:43:22.994Z</time></trkpt><trkpt lat="37.846768300199116" lon="14.80748647972214"><ele>693.0</ele><time>2026-04-12T07:43:23.994Z</time></trkpt><trkpt lat="37.8467190142717" lon="14.807293779721116"><ele>693.0</ele><time>2026-04-12T07:43:24.994Z</time></trkpt><trkpt lat="37.84673049391714" lon="14.80709420766539"><ele>693.0</ele><time>2026-04-12T07:43:25.994Z</time></trkpt><trkpt lat="37.84673373251865" lon="14.806855854311278"><ele>693.0</ele><time>2026-04-12T07:43:26.994Z</time></trkpt><trkpt lat="37.84672069565699" lon="14.806633628235481"><ele>692.0</ele><time>2026-04-12T07:43:27.994Z</time></trkpt><trkpt lat="37.84673741184665" lon="14.806431333190899"><ele>691.0</ele><time>2026-04-12T07:43:28.994Z</time></trkpt><trkpt lat="37.84673498608238" lon="14.806241359459552"><ele>690.0</ele><time>2026-04-12T07:43:29.994Z</time></trkpt><trkpt lat="37.84672406285626" lon="14.806055140737449"><ele>688.75</ele><time>2026-04-12T07:43:30.994Z</time></trkpt><trkpt lat="37.846692658767175" lon="14.805870799488076"><ele>687.5</ele><time>2026-04-12T07:43:31.994Z</time></trkpt><trkpt lat="37.846647363717764" lon="14.805698615827264"><ele>686.25</ele><time>2026-04-12T07:43:32.994Z</time></trkpt><trkpt lat="37.846593878851564" lon="14.805554562940676"><ele>685.0</ele><time>2026-04-12T07:43:33.994Z</time></trkpt><trkpt lat="37.84654070189558" lon="14.805431864444389"><ele>685.0</ele><time>2026-04-12T07:43:34.994Z</time></trkpt><trkpt lat="37.84649064274674" lon="14.805319527725372"><ele>685.0</ele><time>2026-04-12T07:43:35.993Z</time></trkpt><trkpt lat="37.84643105046931" lon="14.805207408489318"><ele>685.0</ele><time>2026-04-12T07:43:36.993Z</time></trkpt><trkpt lat="37.84637666292298" lon="14.80509682116749"><ele>685.0</ele><time>2026-04-12T07:43:37.993Z</time></trkpt><trkpt lat="37.84633124785632" lon="14.804987177739234"><ele>685.0</ele><time>2026-04-12T07:43:38.993Z</time></trkpt><trkpt lat="37.846286728108794" lon="14.804886237237334"><ele>683.8333333333334</ele><time>2026-04-12T07:43:39.993Z</time></trkpt><trkpt lat="37.84624550612216" lon="14.804792455903128"><ele>682.6666666666667</ele><time>2026-04-12T07:43:40.993Z</time></trkpt><trkpt lat="37.84620270322137" lon="14.804704743545708"><ele>681.5</ele><time>2026-04-12T07:43:41.993Z</time></trkpt><trkpt lat="37.84616114737719" lon="14.804620219565432"><ele>680.3333333333334</ele><time>2026-04-12T07:43:42.993Z</time></trkpt><trkpt lat="37.84611933782172" lon="14.804538610213795"><ele>679.1666666666666</ele><time>2026-04-12T07:43:43.993Z</time></trkpt><trkpt lat="37.84608355529879" lon="14.804463484257347"><ele>678.0</ele><time>2026-04-12T07:43:44.993Z</time></trkpt><trkpt lat="37.8460463240931" lon="14.80439568109024"><ele>678.2</ele><time>2026-04-12T07:43:45.993Z</time></trkpt><trkpt lat="37.84597329115102" lon="14.804270315289"><ele>678.4</ele><time>2026-04-12T07:43:47.993Z</time></trkpt><trkpt lat="37.845895650712066" lon="14.804131646067415"><ele>678.6</ele><time>2026-04-12T07:43:49.993Z</time></trkpt><trkpt lat="37.84585061323772" lon="14.804054473166428"><ele>678.8000000000001</ele><time>2026-04-12T07:43:50.993Z</time></trkpt><trkpt lat="37.84580541329057" lon="14.803968754105878"><ele>679.0</ele><time>2026-04-12T07:43:51.993Z</time></trkpt><trkpt lat="37.84577523787044" lon="14.803873180958321"><ele>679.0</ele><time>2026-04-12T07:43:52.993Z</time></trkpt><trkpt lat="37.845729367647564" lon="14.803793197809739"><ele>679.0</ele><time>2026-04-12T07:43:53.993Z</time></trkpt><trkpt lat="37.845682004089525" lon="14.80370377388854"><ele>679.0</ele><time>2026-04-12T07:43:54.993Z</time></trkpt><trkpt lat="37.84562802497314" lon="14.803614325235937"><ele>679.0</ele><time>2026-04-12T07:43:55.993Z</time></trkpt><trkpt lat="37.845564378182786" lon="14.803524573206545"><ele>679.0</ele><time>2026-04-12T07:43:56.993Z</time></trkpt><trkpt lat="37.84550140941568" lon="14.803443674871442"><ele>679.0</ele><time>2026-04-12T07:43:57.993Z</time></trkpt><trkpt lat="37.84543719364214" lon="14.80337069469606"><ele>679.6</ele><time>2026-04-12T07:43:58.993Z</time></trkpt><trkpt lat="37.84537328490536" lon="14.803305529834347"><ele>680.2</ele><time>2026-04-12T07:43:59.993Z</time></trkpt><trkpt lat="37.845311373861605" lon="14.803222428718158"><ele>680.8000000000001</ele><time>2026-04-12T07:44:00.993Z</time></trkpt><trkpt lat="37.845228416620586" lon="14.803157405522684"><ele>681.4000000000001</ele><time>2026-04-12T07:44:01.993Z</time></trkpt><trkpt lat="37.8451304415756" lon="14.803081948921555"><ele>682.0</ele><time>2026-04-12T07:44:02.993Z</time></trkpt><trkpt lat="37.84503717093043" lon="14.802994916815695"><ele>682.0</ele><time>2026-04-12T07:44:03.993Z</time></trkpt><trkpt lat="37.844947458865825" lon="14.802907509590028"><ele>682.0</ele><time>2026-04-12T07:44:04.993Z</time></trkpt><trkpt lat="37.84485868193039" lon="14.802821318963893"><ele>682.0</ele><time>2026-04-12T07:44:05.993Z</time></trkpt><trkpt lat="37.8447620328833" lon="14.80273330934325"><ele>682.0</ele><time>2026-04-12T07:44:06.993Z</time></trkpt><trkpt lat="37.84466452610356" lon="14.802647390215379"><ele>680.0</ele><time>2026-04-12T07:44:07.993Z</time></trkpt><trkpt lat="37.844564008732306" lon="14.80256350674045"><ele>678.0</ele><time>2026-04-12T07:44:08.993Z</time></trkpt><trkpt lat="37.844460484110726" lon="14.802477253718804"><ele>676.0</ele><time>2026-04-12T07:44:09.993Z</time></trkpt><trkpt lat="37.84435436305751" lon="14.802384461998386"><ele>674.0</ele><time>2026-04-12T07:44:10.993Z</time></trkpt><trkpt lat="37.84424901895555" lon="14.802292268490413"><ele>674.0</ele><time>2026-04-12T07:44:11.996Z</time></trkpt><trkpt lat="37.84414336007641" lon="14.802200330080527"><ele>674.0</ele><time>2026-04-12T07:44:12.996Z</time></trkpt><trkpt lat="37.84403691657498" lon="14.802101715303403"><ele>674.0</ele><time>2026-04-12T07:44:13.996Z</time></trkpt><trkpt lat="37.84392881883462" lon="14.8020001764011"><ele>674.0</ele><time>2026-04-12T07:44:14.996Z</time></trkpt><trkpt lat="37.84381816189507" lon="14.80189368919223"><ele>673.25</ele><time>2026-04-12T07:44:15.996Z</time></trkpt><trkpt lat="37.843704352937976" lon="14.801785869469168"><ele>672.5</ele><time>2026-04-12T07:44:16.996Z</time></trkpt><trkpt lat="37.84359459118847" lon="14.801666629747855"><ele>671.75</ele><time>2026-04-12T07:44:17.996Z</time></trkpt><trkpt lat="37.84350445018782" lon="14.801524484770763"><ele>671.0</ele><time>2026-04-12T07:44:18.996Z</time></trkpt><trkpt lat="37.843397159559856" lon="14.801383207512984"><ele>671.0</ele><time>2026-04-12T07:44:19.996Z</time></trkpt><trkpt lat="37.84328328577281" lon="14.801240145238824"><ele>671.0</ele><time>2026-04-12T07:44:20.996Z</time></trkpt><trkpt lat="37.84316572498486" lon="14.80110635417958"><ele>671.0</ele><time>2026-04-12T07:44:21.996Z</time></trkpt><trkpt lat="37.84302690246521" lon="14.801002503958143"><ele>667.3333333333333</ele><time>2026-04-12T07:44:22.996Z</time></trkpt><trkpt lat="37.84287643925299" lon="14.800913525814881"><ele>663.6666666666666</ele><time>2026-04-12T07:44:23.996Z</time></trkpt><trkpt lat="37.842714855503665" lon="14.80084741020467"><ele>660.0</ele><time>2026-04-12T07:44:24.996Z</time></trkpt><trkpt lat="37.84254218985207" lon="14.800803709614916"><ele>660.0</ele><time>2026-04-12T07:44:25.996Z</time></trkpt><trkpt lat="37.8423714734483" lon="14.800757264743773"><ele>660.0</ele><time>2026-04-12T07:44:26.996Z</time></trkpt><trkpt lat="37.84220343236339" lon="14.80068423722695"><ele>660.0</ele><time>2026-04-12T07:44:27.996Z</time></trkpt><trkpt lat="37.84202966846765" lon="14.800630084765576"><ele>660.0</ele><time>2026-04-12T07:44:28.996Z</time></trkpt><trkpt lat="37.841861462789865" lon="14.800596604901878"><ele>660.0</ele><time>2026-04-12T07:44:29.996Z</time></trkpt><trkpt lat="37.84170516901778" lon="14.80054343372129"><ele>660.0</ele><time>2026-04-12T07:44:30.996Z</time></trkpt><trkpt lat="37.84154816943146" lon="14.800486847677213"><ele>660.6666666666666</ele><time>2026-04-12T07:44:31.996Z</time></trkpt><trkpt lat="37.84138873889917" lon="14.800440518684871"><ele>661.3333333333333</ele><time>2026-04-12T07:44:32.996Z</time></trkpt><trkpt lat="37.841226890618465" lon="14.800397801648089"><ele>662.0</ele><time>2026-04-12T07:44:33.996Z</time></trkpt><trkpt lat="37.84106487518787" lon="14.800363602560571"><ele>661.3333333333333</ele><time>2026-04-12T07:44:34.996Z</time></trkpt><trkpt lat="37.84091019159461" lon="14.800339957361354"><ele>660.6666666666666</ele><time>2026-04-12T07:44:35.996Z</time></trkpt><trkpt lat="37.8407490946062" lon="14.800317814470064"><ele>660.0</ele><time>2026-04-12T07:44:36.996Z</time></trkpt><trkpt lat="37.84058530846684" lon="14.800304598253925"><ele>660.0</ele><time>2026-04-12T07:44:37.996Z</time></trkpt><trkpt lat="37.840418373272534" lon="14.800298763488703"><ele>660.0</ele><time>2026-04-12T07:44:38.996Z</time></trkpt><trkpt lat="37.84025261483066" lon="14.80031105195869"><ele>660.0</ele><time>2026-04-12T07:44:39.996Z</time></trkpt><trkpt lat="37.84009629333367" lon="14.800325321148225"><ele>658.75</ele><time>2026-04-12T07:44:40.996Z</time></trkpt><trkpt lat="37.83994217354056" lon="14.800348522688163"><ele>657.5</ele><time>2026-04-12T07:44:41.996Z</time></trkpt><trkpt lat="37.839794163952426" lon="14.800370042232208"><ele>656.25</ele><time>2026-04-12T07:44:42.995Z</time></trkpt><trkpt lat="37.83965142170672" lon="14.800390264827653"><ele>655.0</ele><time>2026-04-12T07:44:43.995Z</time></trkpt><trkpt lat="37.839505059213025" lon="14.80040748490031"><ele>655.0</ele><time>2026-04-12T07:44:44.995Z</time></trkpt><trkpt lat="37.83935665124636" lon="14.80042382210496"><ele>655.0</ele><time>2026-04-12T07:44:45.995Z</time></trkpt><trkpt lat="37.83920598957529" lon="14.800439357410937"><ele>655.0</ele><time>2026-04-12T07:44:46.995Z</time></trkpt><trkpt lat="37.839053325222956" lon="14.800457442407305"><ele>653.6666666666667</ele><time>2026-04-12T07:44:47.995Z</time></trkpt><trkpt lat="37.83889468837648" lon="14.800479908393303"><ele>652.3333333333334</ele><time>2026-04-12T07:44:48.995Z</time></trkpt><trkpt lat="37.838735952895306" lon="14.80049917700733"><ele>651.0</ele><time>2026-04-12T07:44:49.995Z</time></trkpt><trkpt lat="37.83857874853872" lon="14.80051694147912"><ele>649.6666666666666</ele><time>2026-04-12T07:44:50.995Z</time></trkpt><trkpt lat="37.83842235510673" lon="14.800529890598522"><ele>648.3333333333333</ele><time>2026-04-12T07:44:51.995Z</time></trkpt><trkpt lat="37.83826681469469" lon="14.800526914922498"><ele>647.0</ele><time>2026-04-12T07:44:52.995Z</time></trkpt><trkpt lat="37.838112984377524" lon="14.800489495221834"><ele>647.0</ele><time>2026-04-12T07:44:53.995Z</time></trkpt><trkpt lat="37.83796597365966" lon="14.800415147756864"><ele>647.0</ele><time>2026-04-12T07:44:54.995Z</time></trkpt><trkpt lat="37.83782969518447" lon="14.80030680529025"><ele>647.0</ele><time>2026-04-12T07:44:55.995Z</time></trkpt><trkpt lat="37.83770536934074" lon="14.800170026186585"><ele>646.0</ele><time>2026-04-12T07:44:56.995Z</time></trkpt><trkpt lat="37.8375946283336" lon="14.800009763585278"><ele>645.0</ele><time>2026-04-12T07:44:57.995Z</time></trkpt><trkpt lat="37.837493538883784" lon="14.799837968949788"><ele>644.0</ele><time>2026-04-12T07:44:58.995Z</time></trkpt><trkpt lat="37.83738390861275" lon="14.799668782799428"><ele>644.0</ele><time>2026-04-12T07:44:59.995Z</time></trkpt><trkpt lat="37.83728162280145" lon="14.79948081144186"><ele>644.0</ele><time>2026-04-12T07:45:00.995Z</time></trkpt><trkpt lat="37.83717816496724" lon="14.799312411148756"><ele>644.0</ele><time>2026-04-12T07:45:01.995Z</time></trkpt><trkpt lat="37.83707443972531" lon="14.799143575345802"><ele>644.3333333333333</ele><time>2026-04-12T07:45:02.995Z</time></trkpt><trkpt lat="37.83697212284619" lon="14.798977032087405"><ele>644.6666666666666</ele><time>2026-04-12T07:45:03.995Z</time></trkpt><trkpt lat="37.836869001382205" lon="14.798809179223731"><ele>645.0</ele><time>2026-04-12T07:45:04.995Z</time></trkpt><trkpt lat="37.83676665984331" lon="14.79864259572642"><ele>642.6666666666666</ele><time>2026-04-12T07:45:05.995Z</time></trkpt><trkpt lat="37.83666247492048" lon="14.798473931195801"><ele>640.3333333333333</ele><time>2026-04-12T07:45:06.995Z</time></trkpt><trkpt lat="37.83656036280381" lon="14.798307680590815"><ele>638.0</ele><time>2026-04-12T07:45:07.995Z</time></trkpt><trkpt lat="37.83646079623803" lon="14.798145574311729"><ele>638.0</ele><time>2026-04-12T07:45:08.995Z</time></trkpt><trkpt lat="37.83635881714649" lon="14.797980839239349"><ele>638.0</ele><time>2026-04-12T07:45:09.995Z</time></trkpt><trkpt lat="37.83625997326256" lon="14.797821833789468"><ele>638.0</ele><time>2026-04-12T07:45:10.995Z</time></trkpt><trkpt lat="37.836167915498464" lon="14.797673083635166"><ele>638.5</ele><time>2026-04-12T07:45:11.995Z</time></trkpt><trkpt lat="37.836082920809936" lon="14.797535253832264"><ele>639.0</ele><time>2026-04-12T07:45:12.995Z</time></trkpt><trkpt lat="37.83600452937927" lon="14.797407432412406"><ele>639.5</ele><time>2026-04-12T07:45:13.995Z</time></trkpt><trkpt lat="37.835931511517934" lon="14.79728837272815"><ele>640.0</ele><time>2026-04-12T07:45:14.995Z</time></trkpt><trkpt lat="37.83585644287136" lon="14.797186086805201"><ele>640.0</ele><time>2026-04-12T07:45:15.995Z</time></trkpt><trkpt lat="37.835801988760906" lon="14.797058796567576"><ele>640.0</ele><time>2026-04-12T07:45:16.995Z</time></trkpt><trkpt lat="37.835739158228705" lon="14.796944017352633"><ele>640.0</ele><time>2026-04-12T07:45:17.995Z</time></trkpt><trkpt lat="37.8356467692397" lon="14.796833643856568"><ele>640.0</ele><time>2026-04-12T07:45:18.995Z</time></trkpt><trkpt lat="37.8355210835928" lon="14.796728090669303"><ele>637.75</ele><time>2026-04-12T07:45:19.994Z</time></trkpt><trkpt lat="37.83539079856067" lon="14.796633474472516"><ele>635.5</ele><time>2026-04-12T07:45:20.994Z</time></trkpt><trkpt lat="37.835251643694754" lon="14.796559892752688"><ele>633.25</ele><time>2026-04-12T07:45:21.994Z</time></trkpt><trkpt lat="37.835106868294105" lon="14.7965224240965"><ele>631.0</ele><time>2026-04-12T07:45:22.994Z</time></trkpt><trkpt lat="37.83499738374562" lon="14.796434777673966"><ele>631.0</ele><time>2026-04-12T07:45:23.994Z</time></trkpt><trkpt lat="37.83488106835204" lon="14.796387057097327"><ele>631.0</ele><time>2026-04-12T07:45:24.994Z</time></trkpt><trkpt lat="37.83475015547851" lon="14.796341443105119"><ele>631.0</ele><time>2026-04-12T07:45:25.994Z</time></trkpt><trkpt lat="37.83460965044113" lon="14.79630117232586"><ele>631.0</ele><time>2026-04-12T07:45:26.994Z</time></trkpt><trkpt lat="37.834477960067005" lon="14.796267622931015"><ele>631.0</ele><time>2026-04-12T07:45:27.994Z</time></trkpt><trkpt lat="37.83435886080225" lon="14.796243529479021"><ele>631.0</ele><time>2026-04-12T07:45:28.994Z</time></trkpt><trkpt lat="37.83425945598603" lon="14.796221562896624"><ele>631.0</ele><time>2026-04-12T07:45:29.994Z</time></trkpt><trkpt lat="37.83416991820873" lon="14.796199483199219"><ele>631.0</ele><time>2026-04-12T07:45:30.994Z</time></trkpt><trkpt lat="37.83409068483372" lon="14.796179489041606"><ele>631.0</ele><time>2026-04-12T07:45:31.994Z</time></trkpt><trkpt lat="37.83402921637616" lon="14.79615303786962"><ele>631.4</ele><time>2026-04-12T07:45:32.994Z</time></trkpt><trkpt lat="37.83393552091201" lon="14.796087031936175"><ele>631.8</ele><time>2026-04-12T07:45:34.993Z</time></trkpt><trkpt lat="37.83384178726218" lon="14.795980754913359"><ele>632.1999999999999</ele><time>2026-04-12T07:45:36.993Z</time></trkpt><trkpt lat="37.83379334740105" lon="14.79591127460176"><ele>632.6</ele><time>2026-04-12T07:45:37.993Z</time></trkpt><trkpt lat="37.833744037299155" lon="14.795817293136997"><ele>633.0</ele><time>2026-04-12T07:45:38.993Z</time></trkpt><trkpt lat="37.83371836721982" lon="14.795680453828597"><ele>629.25</ele><time>2026-04-12T07:45:39.993Z</time></trkpt><trkpt lat="37.83368794449799" lon="14.795535259072265"><ele>625.5</ele><time>2026-04-12T07:45:40.992Z</time></trkpt><trkpt lat="37.83365550080919" lon="14.795380606144615"><ele>621.75</ele><time>2026-04-12T07:45:41.992Z</time></trkpt><trkpt lat="37.8336375729238" lon="14.795205275092384"><ele>618.0</ele><time>2026-04-12T07:45:42.992Z</time></trkpt><trkpt lat="37.83360824981219" lon="14.795028216478693"><ele>617.0</ele><time>2026-04-12T07:45:43.992Z</time></trkpt><trkpt lat="37.83356408821121" lon="14.794845402879304"><ele>616.0</ele><time>2026-04-12T07:45:44.992Z</time></trkpt><trkpt lat="37.833508165106" lon="14.794654200852023"><ele>615.0</ele><time>2026-04-12T07:45:45.992Z</time></trkpt><trkpt lat="37.83346436216941" lon="14.794451399620558"><ele>614.0</ele><time>2026-04-12T07:45:46.992Z</time></trkpt><trkpt lat="37.833421656033465" lon="14.794245210040861"><ele>613.0</ele><time>2026-04-12T07:45:47.992Z</time></trkpt><trkpt lat="37.83338079141575" lon="14.794054795811478"><ele>612.0</ele><time>2026-04-12T07:45:48.991Z</time></trkpt><trkpt lat="37.833341073595804" lon="14.793875985750722"><ele>612.0</ele><time>2026-04-12T07:45:49.991Z</time></trkpt><trkpt lat="37.83330213044613" lon="14.793705790682353"><ele>612.0</ele><time>2026-04-12T07:45:50.991Z</time></trkpt><trkpt lat="37.833276101469124" lon="14.793512689804121"><ele>612.0</ele><time>2026-04-12T07:45:51.991Z</time></trkpt><trkpt lat="37.83323453713299" lon="14.793308933854574"><ele>612.0</ele><time>2026-04-12T07:45:52.991Z</time></trkpt><trkpt lat="37.83319836792418" lon="14.793093030272153"><ele>612.0</ele><time>2026-04-12T07:45:53.991Z</time></trkpt><trkpt lat="37.833147677637186" lon="14.79287249190435"><ele>612.0</ele><time>2026-04-12T07:45:54.991Z</time></trkpt><trkpt lat="37.83309214443937" lon="14.792641402927037"><ele>613.6666666666666</ele><time>2026-04-12T07:45:55.991Z</time></trkpt><trkpt lat="37.833039807620935" lon="14.792402044457656"><ele>615.3333333333333</ele><time>2026-04-12T07:45:56.991Z</time></trkpt><trkpt lat="37.832987884650336" lon="14.792158158791535"><ele>617.0</ele><time>2026-04-12T07:45:57.991Z</time></trkpt><trkpt lat="37.83295021840315" lon="14.791914059378922"><ele>617.0</ele><time>2026-04-12T07:45:58.991Z</time></trkpt><trkpt lat="37.83290489620201" lon="14.791689414445111"><ele>617.0</ele><time>2026-04-12T07:45:59.991Z</time></trkpt><trkpt lat="37.832866028867755" lon="14.791473714554481"><ele>617.0</ele><time>2026-04-12T07:46:00.991Z</time></trkpt><trkpt lat="37.83284878685188" lon="14.791271633772329"><ele>617.0</ele><time>2026-04-12T07:46:01.99Z</time></trkpt><trkpt lat="37.83286294881162" lon="14.791079800581691"><ele>617.0</ele><time>2026-04-12T07:46:02.99Z</time></trkpt><trkpt lat="37.83290363581528" lon="14.790892491663532"><ele>617.0</ele><time>2026-04-12T07:46:03.99Z</time></trkpt><trkpt lat="37.83295962992629" lon="14.790699952312025"><ele>616.6666666666666</ele><time>2026-04-12T07:46:04.99Z</time></trkpt><trkpt lat="37.833032340845634" lon="14.79053196097569"><ele>616.3333333333334</ele><time>2026-04-12T07:46:05.99Z</time></trkpt><trkpt lat="37.83313280130834" lon="14.790372908591745"><ele>616.0</ele><time>2026-04-12T07:46:06.99Z</time></trkpt><trkpt lat="37.83325431253948" lon="14.790225113710695"><ele>617.6666666666667</ele><time>2026-04-12T07:46:07.99Z</time></trkpt><trkpt lat="37.83337490424734" lon="14.790083298153444"><ele>619.3333333333334</ele><time>2026-04-12T07:46:08.99Z</time></trkpt><trkpt lat="37.833488789465264" lon="14.78995128452937"><ele>621.0</ele><time>2026-04-12T07:46:09.99Z</time></trkpt><trkpt lat="37.83360767647035" lon="14.789818092526938"><ele>621.0</ele><time>2026-04-12T07:46:10.99Z</time></trkpt><trkpt lat="37.83374324674498" lon="14.789692219660491"><ele>621.0</ele><time>2026-04-12T07:46:11.99Z</time></trkpt><trkpt lat="37.83389010404553" lon="14.78957596451551"><ele>621.0</ele><time>2026-04-12T07:46:12.99Z</time></trkpt><trkpt lat="37.83403544388853" lon="14.789489867441517"><ele>621.0</ele><time>2026-04-12T07:46:13.99Z</time></trkpt><trkpt lat="37.834168484830485" lon="14.789446517198332"><ele>621.0</ele><time>2026-04-12T07:46:14.99Z</time></trkpt><trkpt lat="37.83429109494159" lon="14.789421489552122"><ele>621.0</ele><time>2026-04-12T07:46:15.99Z</time></trkpt><trkpt lat="37.83439751172207" lon="14.789401523546104"><ele>621.0</ele><time>2026-04-12T07:46:16.99Z</time></trkpt><trkpt lat="37.83449987621545" lon="14.789358806097258"><ele>624.25</ele><time>2026-04-12T07:46:17.993Z</time></trkpt><trkpt lat="37.83456050767292" lon="14.78925726264509"><ele>627.5</ele><time>2026-04-12T07:46:18.993Z</time></trkpt><trkpt lat="37.83456104264945" lon="14.789097657985383"><ele>630.75</ele><time>2026-04-12T07:46:19.993Z</time></trkpt><trkpt lat="37.834468103582154" lon="14.788992940943228"><ele>634.0</ele><time>2026-04-12T07:46:20.992Z</time></trkpt><trkpt lat="37.834355724041" lon="14.788949292712463"><ele>634.6666666666667</ele><time>2026-04-12T07:46:21.993Z</time></trkpt><trkpt lat="37.83422131815979" lon="14.788974487438663"><ele>635.3333333333334</ele><time>2026-04-12T07:46:22.993Z</time></trkpt><trkpt lat="37.834032934406046" lon="14.788994827719437"><ele>636.0</ele><time>2026-04-12T07:46:23.993Z</time></trkpt><trkpt lat="37.83382232710635" lon="14.788985703165485"><ele>636.0</ele><time>2026-04-12T07:46:24.992Z</time></trkpt><trkpt lat="37.83359109524888" lon="14.788953374186715"><ele>636.0</ele><time>2026-04-12T07:46:25.992Z</time></trkpt><trkpt lat="37.83335358139553" lon="14.788896595172638"><ele>636.5</ele><time>2026-04-12T07:46:26.993Z</time></trkpt><trkpt lat="37.833108538754225" lon="14.788801912633444"><ele>637.0</ele><time>2026-04-12T07:46:27.993Z</time></trkpt><trkpt lat="37.83290623677884" lon="14.78871577079585"><ele>637.0</ele><time>2026-04-12T07:46:28.993Z</time></trkpt><trkpt lat="37.832674784417435" lon="14.788575613217308"><ele>637.0</ele><time>2026-04-12T07:46:29.992Z</time></trkpt><trkpt lat="37.83246140661312" lon="14.788363752213273"><ele>643.0</ele><time>2026-04-12T07:46:30.993Z</time></trkpt><trkpt lat="37.832278717959035" lon="14.788150003741016"><ele>649.0</ele><time>2026-04-12T07:46:31.993Z</time></trkpt><trkpt lat="37.832116494408545" lon="14.787884858267917"><ele>658.5</ele><time>2026-04-12T07:46:32.993Z</time></trkpt><trkpt lat="37.83198774565746" lon="14.78759993525972"><ele>668.0</ele><time>2026-04-12T07:46:33.992Z</time></trkpt><trkpt lat="37.8319211945503" lon="14.787270566629635"><ele>668.0</ele><time>2026-04-12T07:46:34.992Z</time></trkpt><trkpt lat="37.83185546307826" lon="14.786990015206053"><ele>668.0</ele><time>2026-04-12T07:46:35.992Z</time></trkpt><trkpt lat="37.83174863692169" lon="14.786760241438886"><ele>668.0</ele><time>2026-04-12T07:46:36.992Z</time></trkpt><trkpt lat="37.831583654100804" lon="14.786589128925003"><ele>664.0</ele><time>2026-04-12T07:46:37.992Z</time></trkpt><trkpt lat="37.831405350998075" lon="14.786415129242421"><ele>660.0</ele><time>2026-04-12T07:46:38.992Z</time></trkpt><trkpt lat="37.83122837340503" lon="14.786221350213683"><ele>659.5</ele><time>2026-04-12T07:46:39.992Z</time></trkpt><trkpt lat="37.831055262106666" lon="14.785996493220717"><ele>659.0</ele><time>2026-04-12T07:46:40.992Z</time></trkpt><trkpt lat="37.8308929028512" lon="14.785727058167776"><ele>659.0</ele><time>2026-04-12T07:46:41.992Z</time></trkpt><trkpt lat="37.83078630611706" lon="14.785407514077212"><ele>659.0</ele><time>2026-04-12T07:46:42.992Z</time></trkpt><trkpt lat="37.830684080008474" lon="14.785066359502014"><ele>664.0</ele><time>2026-04-12T07:46:43.992Z</time></trkpt><trkpt lat="37.830578813722" lon="14.784712949451825"><ele>669.0</ele><time>2026-04-12T07:46:44.992Z</time></trkpt><trkpt lat="37.83048211518248" lon="14.784389688016255"><ele>672.5</ele><time>2026-04-12T07:46:45.992Z</time></trkpt><trkpt lat="37.83039245829454" lon="14.784095261493048"><ele>676.0</ele><time>2026-04-12T07:46:46.992Z</time></trkpt><trkpt lat="37.830318499062855" lon="14.783817544848622"><ele>676.0</ele><time>2026-04-12T07:46:47.992Z</time></trkpt><trkpt lat="37.830275065884315" lon="14.783571641458217"><ele>676.0</ele><time>2026-04-12T07:46:48.992Z</time></trkpt><trkpt lat="37.83025991117524" lon="14.783335701478277"><ele>676.0</ele><time>2026-04-12T07:46:49.992Z</time></trkpt><trkpt lat="37.830246588976166" lon="14.783071216831882"><ele>676.3333333333334</ele><time>2026-04-12T07:46:50.992Z</time></trkpt><trkpt lat="37.830163581508" lon="14.782860671494959"><ele>676.6666666666666</ele><time>2026-04-12T07:46:51.992Z</time></trkpt><trkpt lat="37.8301260701779" lon="14.782730187262656"><ele>677.0</ele><time>2026-04-12T07:46:52.992Z</time></trkpt><trkpt lat="37.829995312551105" lon="14.78261717446643"><ele>677.0</ele><time>2026-04-12T07:46:53.992Z</time></trkpt><trkpt lat="37.82982565822153" lon="14.782510805091903"><ele>677.0</ele><time>2026-04-12T07:46:54.992Z</time></trkpt><trkpt lat="37.82965087606426" lon="14.7824345397082"><ele>677.0</ele><time>2026-04-12T07:46:55.992Z</time></trkpt><trkpt lat="37.829470829353" lon="14.782440928152585"><ele>677.3333333333333</ele><time>2026-04-12T07:46:56.992Z</time></trkpt><trkpt lat="37.82930627527333" lon="14.782531498174288"><ele>677.6666666666666</ele><time>2026-04-12T07:46:57.992Z</time></trkpt><trkpt lat="37.82916651092538" lon="14.782697512244813"><ele>678.0</ele><time>2026-04-12T07:46:58.992Z</time></trkpt><trkpt lat="37.829041606520235" lon="14.78290737838461"><ele>678.0</ele><time>2026-04-12T07:46:59.992Z</time></trkpt><trkpt lat="37.82893279087601" lon="14.783157994421831"><ele>678.0</ele><time>2026-04-12T07:47:00.992Z</time></trkpt><trkpt lat="37.82881183899307" lon="14.783424922031891"><ele>676.0</ele><time>2026-04-12T07:47:01.992Z</time></trkpt><trkpt lat="37.828664945699344" lon="14.78369198151665"><ele>674.0</ele><time>2026-04-12T07:47:02.992Z</time></trkpt><trkpt lat="37.82850133699729" lon="14.78397199621153"><ele>678.5</ele><time>2026-04-12T07:47:03.992Z</time></trkpt><trkpt lat="37.82833109584116" lon="14.784256868850866"><ele>683.0</ele><time>2026-04-12T07:47:04.992Z</time></trkpt><trkpt lat="37.82818013708821" lon="14.784504559559762"><ele>683.0</ele><time>2026-04-12T07:47:05.991Z</time></trkpt><trkpt lat="37.82804969195042" lon="14.784692540915549"><ele>683.0</ele><time>2026-04-12T07:47:06.991Z</time></trkpt><trkpt lat="37.82796086072219" lon="14.784800199704229"><ele>683.0</ele><time>2026-04-12T07:47:07.991Z</time></trkpt><trkpt lat="37.82789085315586" lon="14.78485121963721"><ele>683.0</ele><time>2026-04-12T07:47:08.991Z</time></trkpt><trkpt lat="37.827816855955525" lon="14.784806955299489"><ele>683.0</ele><time>2026-04-12T07:47:09.991Z</time></trkpt><trkpt lat="37.8276996918888" lon="14.784745221701009"><ele>683.0</ele><time>2026-04-12T07:47:10.991Z</time></trkpt><trkpt lat="37.82765328860336" lon="14.784583051164603"><ele>683.0</ele><time>2026-04-12T07:47:11.991Z</time></trkpt><trkpt lat="37.827678585834576" lon="14.784427646259926"><ele>683.0</ele><time>2026-04-12T07:47:12.991Z</time></trkpt><trkpt lat="37.82772388281575" lon="14.784255139021333"><ele>683.3333333333333</ele><time>2026-04-12T07:47:13.991Z</time></trkpt><trkpt lat="37.82778193959461" lon="14.784029187957344"><ele>683.6666666666666</ele><time>2026-04-12T07:47:14.991Z</time></trkpt><trkpt lat="37.8278524168366" lon="14.783775926454375"><ele>684.0</ele><time>2026-04-12T07:47:15.991Z</time></trkpt><trkpt lat="37.8279409028218" lon="14.783497627469782"><ele>689.0</ele><time>2026-04-12T07:47:16.991Z</time></trkpt><trkpt lat="37.82804278462309" lon="14.783200937592555"><ele>694.0</ele><time>2026-04-12T07:47:17.991Z</time></trkpt><trkpt lat="37.82814618371762" lon="14.782936853767437"><ele>694.0</ele><time>2026-04-12T07:47:18.991Z</time></trkpt><trkpt lat="37.828213030788646" lon="14.782712964977305"><ele>694.0</ele><time>2026-04-12T07:47:19.991Z</time></trkpt><trkpt lat="37.82826763553219" lon="14.782517066456546"><ele>694.0</ele><time>2026-04-12T07:47:20.991Z</time></trkpt><trkpt lat="37.82823731713523" lon="14.782356301327686"><ele>695.5</ele><time>2026-04-12T07:47:21.991Z</time></trkpt><trkpt lat="37.82815395211975" lon="14.782201020924367"><ele>697.0</ele><time>2026-04-12T07:47:22.991Z</time></trkpt><trkpt lat="37.82804866078932" lon="14.782092632318815"><ele>698.5</ele><time>2026-04-12T07:47:23.991Z</time></trkpt><trkpt lat="37.827890014172816" lon="14.78206233498933"><ele>700.0</ele><time>2026-04-12T07:47:24.991Z</time></trkpt><trkpt lat="37.82771919842805" lon="14.78210594489635"><ele>704.6666666666667</ele><time>2026-04-12T07:47:25.991Z</time></trkpt><trkpt lat="37.82756906474752" lon="14.78220855838319"><ele>709.3333333333334</ele><time>2026-04-12T07:47:26.991Z</time></trkpt><trkpt lat="37.82746117381622" lon="14.782388304387823"><ele>714.0</ele><time>2026-04-12T07:47:27.991Z</time></trkpt><trkpt lat="37.82739222467598" lon="14.782612709693813"><ele>712.0</ele><time>2026-04-12T07:47:28.991Z</time></trkpt><trkpt lat="37.82738433550925" lon="14.7828965431137"><ele>710.0</ele><time>2026-04-12T07:47:29.991Z</time></trkpt><trkpt lat="37.827366209758374" lon="14.783169199956934"><ele>708.0</ele><time>2026-04-12T07:47:30.991Z</time></trkpt><trkpt lat="37.82731782324622" lon="14.783318891718693"><ele>708.0</ele><time>2026-04-12T07:47:31.991Z</time></trkpt><trkpt lat="37.82723435704633" lon="14.783371865995058"><ele>708.0</ele><time>2026-04-12T07:47:32.991Z</time></trkpt><trkpt lat="37.827135198453284" lon="14.783355098127949"><ele>708.0</ele><time>2026-04-12T07:47:33.991Z</time></trkpt><trkpt lat="37.82704571118215" lon="14.78328290956064"><ele>708.0</ele><time>2026-04-12T07:47:34.991Z</time></trkpt><trkpt lat="37.827020455207446" lon="14.783124488740697"><ele>708.0</ele><time>2026-04-12T07:47:35.991Z</time></trkpt><trkpt lat="37.8270225048319" lon="14.782976733182526"><ele>708.0</ele><time>2026-04-12T07:47:36.991Z</time></trkpt><trkpt lat="37.82713019126475" lon="14.782858690916342"><ele>708.0</ele><time>2026-04-12T07:47:37.991Z</time></trkpt><trkpt lat="37.827188129864396" lon="14.78265525079553"><ele>708.0</ele><time>2026-04-12T07:47:38.991Z</time></trkpt><trkpt lat="37.82720901921746" lon="14.782435612231094"><ele>710.0</ele><time>2026-04-12T07:47:39.991Z</time></trkpt><trkpt lat="37.827218647974284" lon="14.782180413737832"><ele>712.0</ele><time>2026-04-12T07:47:40.99Z</time></trkpt><trkpt lat="37.82720938356383" lon="14.78192774380867"><ele>714.0</ele><time>2026-04-12T07:47:41.99Z</time></trkpt><trkpt lat="37.82719749575722" lon="14.781667026838692"><ele>714.6666666666666</ele><time>2026-04-12T07:47:42.99Z</time></trkpt><trkpt lat="37.82719639230056" lon="14.78140261346456"><ele>715.3333333333333</ele><time>2026-04-12T07:47:43.99Z</time></trkpt><trkpt lat="37.82715551325839" lon="14.78113528991158"><ele>716.0</ele><time>2026-04-12T07:47:44.99Z</time></trkpt><trkpt lat="37.8271292037679" lon="14.780866460467381"><ele>716.3333333333333</ele><time>2026-04-12T07:47:45.99Z</time></trkpt><trkpt lat="37.82710612609642" lon="14.780600386751988"><ele>716.6666666666666</ele><time>2026-04-12T07:47:46.99Z</time></trkpt><trkpt lat="37.827108745526644" lon="14.78034154683907"><ele>717.0</ele><time>2026-04-12T07:47:47.99Z</time></trkpt><trkpt lat="37.827113854007706" lon="14.780082559243349"><ele>719.3333333333334</ele><time>2026-04-12T07:47:48.99Z</time></trkpt><trkpt lat="37.82712315085287" lon="14.779825824960488"><ele>721.6666666666667</ele><time>2026-04-12T07:47:49.99Z</time></trkpt><trkpt lat="37.827132110888364" lon="14.779590503539321"><ele>724.0</ele><time>2026-04-12T07:47:50.99Z</time></trkpt><trkpt lat="37.82712613563288" lon="14.779373827810035"><ele>726.4000000000001</ele><time>2026-04-12T07:47:51.99Z</time></trkpt><trkpt lat="37.827164726536054" lon="14.779195315249432"><ele>728.8</ele><time>2026-04-12T07:47:52.99Z</time></trkpt><trkpt lat="37.82719030544766" lon="14.779054755654034"><ele>731.2</ele><time>2026-04-12T07:47:53.99Z</time></trkpt><trkpt lat="37.82724433633156" lon="14.778954406726813"><ele>733.5999999999999</ele><time>2026-04-12T07:47:54.99Z</time></trkpt><trkpt lat="37.827315259386864" lon="14.778884571240226"><ele>736.0</ele><time>2026-04-12T07:47:55.99Z</time></trkpt><trkpt lat="37.82740784011011" lon="14.778839889346177"><ele>736.0</ele><time>2026-04-12T07:47:56.99Z</time></trkpt><trkpt lat="37.82751402687964" lon="14.778813656968525"><ele>736.0</ele><time>2026-04-12T07:47:57.99Z</time></trkpt><trkpt lat="37.8276198133283" lon="14.778794403822426"><ele>736.0</ele><time>2026-04-12T07:47:58.99Z</time></trkpt><trkpt lat="37.82772757545313" lon="14.778777043767077"><ele>736.0</ele><time>2026-04-12T07:47:59.99Z</time></trkpt><trkpt lat="37.827839913783706" lon="14.77875610542103"><ele>736.0</ele><time>2026-04-12T07:48:00.99Z</time></trkpt><trkpt lat="37.82795435216221" lon="14.778735142950064"><ele>734.75</ele><time>2026-04-12T07:48:01.99Z</time></trkpt><trkpt lat="37.8280689873569" lon="14.778715031594833"><ele>733.5</ele><time>2026-04-12T07:48:02.99Z</time></trkpt><trkpt lat="37.828189186016246" lon="14.77869475264341"><ele>732.25</ele><time>2026-04-12T07:48:03.99Z</time></trkpt><trkpt lat="37.8283133978957" lon="14.778668278154306"><ele>731.0</ele><time>2026-04-12T07:48:04.99Z</time></trkpt><trkpt lat="37.828443489767864" lon="14.778645137112944"><ele>728.75</ele><time>2026-04-12T07:48:05.99Z</time></trkpt><trkpt lat="37.8285681581078" lon="14.778623785035009"><ele>726.5</ele><time>2026-04-12T07:48:06.99Z</time></trkpt><trkpt lat="37.82869213177417" lon="14.778599724014567"><ele>724.25</ele><time>2026-04-12T07:48:07.99Z</time></trkpt><trkpt lat="37.82881014906627" lon="14.77856171060884"><ele>722.0</ele><time>2026-04-12T07:48:08.99Z</time></trkpt><trkpt lat="37.828912601691364" lon="14.778488572947456"><ele>725.5</ele><time>2026-04-12T07:48:09.99Z</time></trkpt><trkpt lat="37.829016051619874" lon="14.778389919097739"><ele>729.0</ele><time>2026-04-12T07:48:10.99Z</time></trkpt><trkpt lat="37.829136103168864" lon="14.778294208650042"><ele>732.5</ele><time>2026-04-12T07:48:11.99Z</time></trkpt><trkpt lat="37.82927228350962" lon="14.778232616642637"><ele>736.0</ele><time>2026-04-12T07:48:12.99Z</time></trkpt><trkpt lat="37.82943602385638" lon="14.778251165781427"><ele>736.0</ele><time>2026-04-12T07:48:13.99Z</time></trkpt><trkpt lat="37.82957805562505" lon="14.778244835038548"><ele>736.0</ele><time>2026-04-12T07:48:14.989Z</time></trkpt><trkpt lat="37.82971137944725" lon="14.778255103211674"><ele>736.0</ele><time>2026-04-12T07:48:15.989Z</time></trkpt><trkpt lat="37.82983984203913" lon="14.778248535104282"><ele>736.0</ele><time>2026-04-12T07:48:16.989Z</time></trkpt><trkpt lat="37.829949701915965" lon="14.778210918880706"><ele>736.0</ele><time>2026-04-12T07:48:17.989Z</time></trkpt><trkpt lat="37.830054833661286" lon="14.778131515020904"><ele>736.0</ele><time>2026-04-12T07:48:18.989Z</time></trkpt><trkpt lat="37.830144722201766" lon="14.778027317374617"><ele>736.0</ele><time>2026-04-12T07:48:19.989Z</time></trkpt><trkpt lat="37.83020662646068" lon="14.777887057062419"><ele>736.0</ele><time>2026-04-12T07:48:20.989Z</time></trkpt><trkpt lat="37.83023601758981" lon="14.777717422956314"><ele>741.25</ele><time>2026-04-12T07:48:21.989Z</time></trkpt><trkpt lat="37.83022947639186" lon="14.77753225867611"><ele>746.5</ele><time>2026-04-12T07:48:22.989Z</time></trkpt><trkpt lat="37.83021319176659" lon="14.77735125566897"><ele>751.75</ele><time>2026-04-12T07:48:23.993Z</time></trkpt><trkpt lat="37.830205916271126" lon="14.777181588780747"><ele>757.0</ele><time>2026-04-12T07:48:24.992Z</time></trkpt><trkpt lat="37.83019992875649" lon="14.777011726327284"><ele>757.0</ele><time>2026-04-12T07:48:25.992Z</time></trkpt><trkpt lat="37.83019872750397" lon="14.776845374522866"><ele>757.0</ele><time>2026-04-12T07:48:26.992Z</time></trkpt><trkpt lat="37.83021939304364" lon="14.77668280633642"><ele>757.0</ele><time>2026-04-12T07:48:27.992Z</time></trkpt><trkpt lat="37.830263804561646" lon="14.776530935129399"><ele>757.0</ele><time>2026-04-12T07:48:28.992Z</time></trkpt><trkpt lat="37.83032576939694" lon="14.776388497656813"><ele>757.0</ele><time>2026-04-12T07:48:29.993Z</time></trkpt><trkpt lat="37.83039065483717" lon="14.776252930178678"><ele>757.0</ele><time>2026-04-12T07:48:30.993Z</time></trkpt><trkpt lat="37.83047054231239" lon="14.776129393975774"><ele>757.0</ele><time>2026-04-12T07:48:31.993Z</time></trkpt><trkpt lat="37.830559596424514" lon="14.77601350262213"><ele>757.0</ele><time>2026-04-12T07:48:32.992Z</time></trkpt><trkpt lat="37.83065825562828" lon="14.775903970507388"><ele>755.5</ele><time>2026-04-12T07:48:33.992Z</time></trkpt><trkpt lat="37.8307519737638" lon="14.775784038471086"><ele>754.0</ele><time>2026-04-12T07:48:34.992Z</time></trkpt><trkpt lat="37.830853673375266" lon="14.775668159647655"><ele>752.5</ele><time>2026-04-12T07:48:35.992Z</time></trkpt><trkpt lat="37.83095266823307" lon="14.77554762349195"><ele>751.0</ele><time>2026-04-12T07:48:36.992Z</time></trkpt><trkpt lat="37.831026098847964" lon="14.775405903882454"><ele>755.0</ele><time>2026-04-12T07:48:37.992Z</time></trkpt><trkpt lat="37.83105312965895" lon="14.775233411141642"><ele>759.0</ele><time>2026-04-12T07:48:38.992Z</time></trkpt><trkpt lat="37.83106290805158" lon="14.775051611279054"><ele>763.0</ele><time>2026-04-12T07:48:39.992Z</time></trkpt><trkpt lat="37.83107343598216" lon="14.774869960512904"><ele>767.0</ele><time>2026-04-12T07:48:40.992Z</time></trkpt><trkpt lat="37.83106802084341" lon="14.774707015545985"><ele>767.0</ele><time>2026-04-12T07:48:41.992Z</time></trkpt><trkpt lat="37.83105928868014" lon="14.774559994741796"><ele>767.0</ele><time>2026-04-12T07:48:42.992Z</time></trkpt><trkpt lat="37.83104371636972" lon="14.774412822895927"><ele>767.0</ele><time>2026-04-12T07:48:43.991Z</time></trkpt><trkpt lat="37.83102452822174" lon="14.774257989588914"><ele>767.0</ele><time>2026-04-12T07:48:44.991Z</time></trkpt><trkpt lat="37.83101021556408" lon="14.774098794809982"><ele>768.5</ele><time>2026-04-12T07:48:45.991Z</time></trkpt><trkpt lat="37.83098956472331" lon="14.773922547281021"><ele>770.0</ele><time>2026-04-12T07:48:46.991Z</time></trkpt><trkpt lat="37.83099671110323" lon="14.773744044280555"><ele>771.5</ele><time>2026-04-12T07:48:47.991Z</time></trkpt><trkpt lat="37.83098238265164" lon="14.773566717214576"><ele>773.0</ele><time>2026-04-12T07:48:48.991Z</time></trkpt><trkpt lat="37.83097431586755" lon="14.773384823182957"><ele>774.3333333333334</ele><time>2026-04-12T07:48:49.991Z</time></trkpt><trkpt lat="37.83101848228145" lon="14.773187116878006"><ele>775.6666666666667</ele><time>2026-04-12T07:48:50.991Z</time></trkpt><trkpt lat="37.83107823424258" lon="14.77299033303344"><ele>777.0</ele><time>2026-04-12T07:48:51.991Z</time></trkpt><trkpt lat="37.83113367419039" lon="14.772785537620015"><ele>777.3333333333333</ele><time>2026-04-12T07:48:52.991Z</time></trkpt><trkpt lat="37.83115828809735" lon="14.772575040817825"><ele>777.6666666666666</ele><time>2026-04-12T07:48:53.991Z</time></trkpt><trkpt lat="37.831162454298344" lon="14.772355242299358"><ele>778.0</ele><time>2026-04-12T07:48:54.991Z</time></trkpt><trkpt lat="37.83117533813284" lon="14.772129699662619"><ele>778.0</ele><time>2026-04-12T07:48:55.991Z</time></trkpt><trkpt lat="37.831165529844895" lon="14.771898583847737"><ele>778.0</ele><time>2026-04-12T07:48:56.991Z</time></trkpt><trkpt lat="37.83119562992946" lon="14.771668927398842"><ele>778.0</ele><time>2026-04-12T07:48:57.991Z</time></trkpt><trkpt lat="37.83125162571812" lon="14.77144032513104"><ele>778.0</ele><time>2026-04-12T07:48:58.991Z</time></trkpt><trkpt lat="37.83128928492832" lon="14.771208710159973"><ele>778.0</ele><time>2026-04-12T07:48:59.991Z</time></trkpt><trkpt lat="37.831327639226394" lon="14.770973472910907"><ele>778.0</ele><time>2026-04-12T07:49:00.991Z</time></trkpt><trkpt lat="37.831365084322684" lon="14.770743952789985"><ele>778.0</ele><time>2026-04-12T07:49:01.991Z</time></trkpt><trkpt lat="37.831401895646266" lon="14.770518317446358"><ele>778.0</ele><time>2026-04-12T07:49:02.991Z</time></trkpt><trkpt lat="37.83143878016655" lon="14.770294170636403"><ele>778.0</ele><time>2026-04-12T07:49:03.991Z</time></trkpt><trkpt lat="37.83147512758816" lon="14.770074234930231"><ele>777.6666666666666</ele><time>2026-04-12T07:49:04.991Z</time></trkpt><trkpt lat="37.83151075571473" lon="14.769861018245406"><ele>777.3333333333333</ele><time>2026-04-12T07:49:05.991Z</time></trkpt><trkpt lat="37.83154341237395" lon="14.769665703681454"><ele>777.0</ele><time>2026-04-12T07:49:06.991Z</time></trkpt><trkpt lat="37.831559699534125" lon="14.76948781945586"><ele>774.75</ele><time>2026-04-12T07:49:07.991Z</time></trkpt><trkpt lat="37.83160264205098" lon="14.769338585533944"><ele>772.5</ele><time>2026-04-12T07:49:08.991Z</time></trkpt><trkpt lat="37.83168700438258" lon="14.769232421777145"><ele>770.25</ele><time>2026-04-12T07:49:09.991Z</time></trkpt><trkpt lat="37.83181216686673" lon="14.769214684038865"><ele>768.0</ele><time>2026-04-12T07:49:10.991Z</time></trkpt><trkpt lat="37.83194378333943" lon="14.769240921006016"><ele>768.0</ele><time>2026-04-12T07:49:11.991Z</time></trkpt><trkpt lat="37.83209965950969" lon="14.769236690373868"><ele>768.0</ele><time>2026-04-12T07:49:12.991Z</time></trkpt><trkpt lat="37.832284844494886" lon="14.769231664277413"><ele>768.0</ele><time>2026-04-12T07:49:13.991Z</time></trkpt><trkpt lat="37.83246971656383" lon="14.76922664667725"><ele>769.6666666666667</ele><time>2026-04-12T07:49:14.991Z</time></trkpt><trkpt lat="37.83265216902962" lon="14.769236127631704"><ele>771.3333333333334</ele><time>2026-04-12T07:49:15.991Z</time></trkpt><trkpt lat="37.832827431640865" lon="14.769276535372247"><ele>773.0</ele><time>2026-04-12T07:49:16.991Z</time></trkpt><trkpt lat="37.833011292486326" lon="14.769329555220882"><ele>773.0</ele><time>2026-04-12T07:49:17.991Z</time></trkpt><trkpt lat="37.83318861815508" lon="14.769356577026509"><ele>773.0</ele><time>2026-04-12T07:49:18.99Z</time></trkpt><trkpt lat="37.83336506357192" lon="14.769375177605665"><ele>773.0</ele><time>2026-04-12T07:49:19.99Z</time></trkpt><trkpt lat="37.83352698296425" lon="14.769280027142546"><ele>777.6666666666667</ele><time>2026-04-12T07:49:20.99Z</time></trkpt><trkpt lat="37.83367165131955" lon="14.769097192747815"><ele>782.3333333333333</ele><time>2026-04-12T07:49:21.99Z</time></trkpt><trkpt lat="37.833799968434604" lon="14.768941328695329"><ele>787.0</ele><time>2026-04-12T07:49:22.99Z</time></trkpt><trkpt lat="37.8339155312312" lon="14.76880405660746"><ele>787.0</ele><time>2026-04-12T07:49:23.99Z</time></trkpt><trkpt lat="37.83406365026308" lon="14.768717294471827"><ele>787.0</ele><time>2026-04-12T07:49:24.99Z</time></trkpt><trkpt lat="37.83422383593599" lon="14.76859336675657"><ele>787.0</ele><time>2026-04-12T07:49:25.99Z</time></trkpt><trkpt lat="37.83444524325693" lon="14.76853466891124"><ele>788.0</ele><time>2026-04-12T07:49:26.99Z</time></trkpt><trkpt lat="37.8345244030458" lon="14.768252393919642"><ele>789.0</ele><time>2026-04-12T07:49:27.99Z</time></trkpt><trkpt lat="37.83465698120363" lon="14.768010363011852"><ele>789.0</ele><time>2026-04-12T07:49:28.99Z</time></trkpt><trkpt lat="37.834796880754226" lon="14.767788738522903"><ele>789.0</ele><time>2026-04-12T07:49:29.99Z</time></trkpt><trkpt lat="37.8349358171383" lon="14.767595153836393"><ele>789.0</ele><time>2026-04-12T07:49:30.99Z</time></trkpt><trkpt lat="37.835068398340375" lon="14.767424406495266"><ele>791.6666666666667</ele><time>2026-04-12T07:49:31.99Z</time></trkpt><trkpt lat="37.83517422105211" lon="14.767234286422747"><ele>794.3333333333334</ele><time>2026-04-12T07:49:32.99Z</time></trkpt><trkpt lat="37.83522690017874" lon="14.766999596615687"><ele>797.0</ele><time>2026-04-12T07:49:33.99Z</time></trkpt><trkpt lat="37.83523143651582" lon="14.766738326846426"><ele>796.3333333333334</ele><time>2026-04-12T07:49:34.99Z</time></trkpt><trkpt lat="37.835235359118975" lon="14.76646482414451"><ele>795.6666666666667</ele><time>2026-04-12T07:49:35.99Z</time></trkpt><trkpt lat="37.83525208170211" lon="14.766206128716506"><ele>795.0</ele><time>2026-04-12T07:49:36.99Z</time></trkpt><trkpt lat="37.835264298571694" lon="14.765968902491826"><ele>795.0</ele><time>2026-04-12T07:49:37.99Z</time></trkpt><trkpt lat="37.83525770874015" lon="14.765755408197348"><ele>795.0</ele><time>2026-04-12T07:49:38.99Z</time></trkpt><trkpt lat="37.83521314489325" lon="14.765579597691454"><ele>795.0</ele><time>2026-04-12T07:49:39.99Z</time></trkpt><trkpt lat="37.83512145570081" lon="14.765444125199998"><ele>789.0</ele><time>2026-04-12T07:49:40.99Z</time></trkpt><trkpt lat="37.834977595153056" lon="14.765355667554878"><ele>783.0</ele><time>2026-04-12T07:49:41.99Z</time></trkpt><trkpt lat="37.8347867037207" lon="14.765301839939148"><ele>777.0</ele><time>2026-04-12T07:49:42.99Z</time></trkpt><trkpt lat="37.83459156840262" lon="14.765266504777962"><ele>777.0</ele><time>2026-04-12T07:49:43.99Z</time></trkpt><trkpt lat="37.83440210396584" lon="14.76524982715272"><ele>777.0</ele><time>2026-04-12T07:49:44.99Z</time></trkpt><trkpt lat="37.83421270141107" lon="14.76525043812162"><ele>777.0</ele><time>2026-04-12T07:49:45.99Z</time></trkpt><trkpt lat="37.83404045464309" lon="14.765227213861332"><ele>781.0</ele><time>2026-04-12T07:49:46.99Z</time></trkpt><trkpt lat="37.83387598320773" lon="14.765177013440315"><ele>785.0</ele><time>2026-04-12T07:49:47.99Z</time></trkpt><trkpt lat="37.833743961210935" lon="14.765074433616018"><ele>789.0</ele><time>2026-04-12T07:49:48.99Z</time></trkpt><trkpt lat="37.833620962111375" lon="14.764925552907004"><ele>789.0</ele><time>2026-04-12T07:49:49.99Z</time></trkpt><trkpt lat="37.83347993285936" lon="14.764748150722427"><ele>789.0</ele><time>2026-04-12T07:49:50.99Z</time></trkpt><trkpt lat="37.833332621485155" lon="14.764584785921503"><ele>789.0</ele><time>2026-04-12T07:49:51.99Z</time></trkpt><trkpt lat="37.83318982169504" lon="14.764427372587171"><ele>790.3333333333333</ele><time>2026-04-12T07:49:52.989Z</time></trkpt><trkpt lat="37.833026236534785" lon="14.764300592525922"><ele>791.6666666666666</ele><time>2026-04-12T07:49:53.989Z</time></trkpt><trkpt lat="37.83285686978196" lon="14.764195062837333"><ele>793.0</ele><time>2026-04-12T07:49:54.989Z</time></trkpt><trkpt lat="37.83268743978083" lon="14.764084999481366"><ele>791.0</ele><time>2026-04-12T07:49:55.989Z</time></trkpt><trkpt lat="37.832523677753066" lon="14.76397970469569"><ele>789.0</ele><time>2026-04-12T07:49:56.989Z</time></trkpt><trkpt lat="37.83237229900142" lon="14.763874878753743"><ele>787.0</ele><time>2026-04-12T07:49:57.989Z</time></trkpt><trkpt lat="37.83223159855487" lon="14.76377836634287"><ele>787.0</ele><time>2026-04-12T07:49:58.989Z</time></trkpt><trkpt lat="37.832125435883775" lon="14.7636502977103"><ele>787.0</ele><time>2026-04-12T07:49:59.989Z</time></trkpt><trkpt lat="37.832039470490926" lon="14.763498134257595"><ele>787.0</ele><time>2026-04-12T07:50:00.989Z</time></trkpt><trkpt lat="37.83202512804987" lon="14.763310128516197"><ele>787.0</ele><time>2026-04-12T07:50:01.989Z</time></trkpt><trkpt lat="37.83203458060174" lon="14.76310829697098"><ele>791.3333333333333</ele><time>2026-04-12T07:50:02.989Z</time></trkpt><trkpt lat="37.83204128562059" lon="14.762876538858718"><ele>795.6666666666667</ele><time>2026-04-12T07:50:03.989Z</time></trkpt><trkpt lat="37.832037233708974" lon="14.762670475905328"><ele>800.0</ele><time>2026-04-12T07:50:04.989Z</time></trkpt><trkpt lat="37.831976714128615" lon="14.762510779603746"><ele>798.6666666666667</ele><time>2026-04-12T07:50:05.989Z</time></trkpt><trkpt lat="37.83188377097864" lon="14.762372511372382"><ele>797.3333333333333</ele><time>2026-04-12T07:50:06.989Z</time></trkpt><trkpt lat="37.8317241976016" lon="14.762266884077585"><ele>796.0</ele><time>2026-04-12T07:50:07.989Z</time></trkpt><trkpt lat="37.831551908457094" lon="14.762171869241161"><ele>796.0</ele><time>2026-04-12T07:50:08.989Z</time></trkpt><trkpt lat="37.831411611469335" lon="14.762038249306949"><ele>796.0</ele><time>2026-04-12T07:50:09.989Z</time></trkpt><trkpt lat="37.83128376270135" lon="14.76191686113277"><ele>796.0</ele><time>2026-04-12T07:50:10.989Z</time></trkpt><trkpt lat="37.831221503701805" lon="14.761765249381362"><ele>798.75</ele><time>2026-04-12T07:50:11.989Z</time></trkpt><trkpt lat="37.83118458217224" lon="14.761599375466613"><ele>801.5</ele><time>2026-04-12T07:50:12.989Z</time></trkpt><trkpt lat="37.831180331893975" lon="14.761411738462401"><ele>804.25</ele><time>2026-04-12T07:50:13.989Z</time></trkpt><trkpt lat="37.831242652308184" lon="14.761257850871125"><ele>807.0</ele><time>2026-04-12T07:50:14.989Z</time></trkpt><trkpt lat="37.83134760421329" lon="14.761129681816687"><ele>807.0</ele><time>2026-04-12T07:50:15.989Z</time></trkpt><trkpt lat="37.83147145537977" lon="14.761063006969142"><ele>807.0</ele><time>2026-04-12T07:50:16.989Z</time></trkpt><trkpt lat="37.83162118215273" lon="14.761074259832581"><ele>807.0</ele><time>2026-04-12T07:50:17.989Z</time></trkpt><trkpt lat="37.83180107733559" lon="14.761088978303777"><ele>810.3333333333333</ele><time>2026-04-12T07:50:18.989Z</time></trkpt><trkpt lat="37.83195238281918" lon="14.761106989559128"><ele>813.6666666666666</ele><time>2026-04-12T07:50:19.989Z</time></trkpt><trkpt lat="37.83208739722021" lon="14.76102281438675"><ele>817.0</ele><time>2026-04-12T07:50:20.989Z</time></trkpt><trkpt lat="37.83219306733485" lon="14.76088321797145"><ele>817.3333333333333</ele><time>2026-04-12T07:50:21.989Z</time></trkpt><trkpt lat="37.83226048867966" lon="14.7606727350336"><ele>817.6666666666667</ele><time>2026-04-12T07:50:22.989Z</time></trkpt><trkpt lat="37.8323516351285" lon="14.760463821607782"><ele>818.0</ele><time>2026-04-12T07:50:23.989Z</time></trkpt><trkpt lat="37.83244152072085" lon="14.760279755353434"><ele>817.6666666666667</ele><time>2026-04-12T07:50:24.989Z</time></trkpt><trkpt lat="37.83256582050778" lon="14.760138352788974"><ele>817.3333333333333</ele><time>2026-04-12T07:50:25.989Z</time></trkpt><trkpt lat="37.83271297857211" lon="14.76000230495604"><ele>817.0</ele><time>2026-04-12T07:50:26.989Z</time></trkpt><trkpt lat="37.83284412243357" lon="14.75988164271095"><ele>820.5</ele><time>2026-04-12T07:50:27.988Z</time></trkpt><trkpt lat="37.832959259393895" lon="14.759767390385987"><ele>824.0</ele><time>2026-04-12T07:50:28.988Z</time></trkpt><trkpt lat="37.833043706645064" lon="14.759642069729896"><ele>827.5</ele><time>2026-04-12T07:50:29.992Z</time></trkpt><trkpt lat="37.833063270030244" lon="14.759459365596026"><ele>831.0</ele><time>2026-04-12T07:50:30.992Z</time></trkpt><trkpt lat="37.833024489797964" lon="14.75927349396295"><ele>831.0</ele><time>2026-04-12T07:50:31.992Z</time></trkpt><trkpt lat="37.8329770897005" lon="14.759070060117061"><ele>831.0</ele><time>2026-04-12T07:50:32.992Z</time></trkpt><trkpt lat="37.83292453836795" lon="14.758871339426463"><ele>831.0</ele><time>2026-04-12T07:50:33.991Z</time></trkpt><trkpt lat="37.8328992147892" lon="14.75867842805162"><ele>831.6666666666667</ele><time>2026-04-12T07:50:34.991Z</time></trkpt><trkpt lat="37.832868813107524" lon="14.758490747313846"><ele>832.3333333333334</ele><time>2026-04-12T07:50:35.992Z</time></trkpt><trkpt lat="37.832878278181234" lon="14.75830478007133"><ele>833.0</ele><time>2026-04-12T07:50:36.992Z</time></trkpt><trkpt lat="37.83291221142368" lon="14.758081791773732"><ele>833.0</ele><time>2026-04-12T07:50:37.992Z</time></trkpt><trkpt lat="37.83295357105512" lon="14.75785936611465"><ele>833.0</ele><time>2026-04-12T07:50:38.992Z</time></trkpt><trkpt lat="37.83299383848164" lon="14.757635839884918"><ele>833.0</ele><time>2026-04-12T07:50:39.991Z</time></trkpt><trkpt lat="37.83303210514504" lon="14.757423282742812"><ele>832.6666666666667</ele><time>2026-04-12T07:50:40.991Z</time></trkpt><trkpt lat="37.833068058308996" lon="14.757220884848874"><ele>832.3333333333333</ele><time>2026-04-12T07:50:41.992Z</time></trkpt><trkpt lat="37.83310207013288" lon="14.757022658499245"><ele>832.0</ele><time>2026-04-12T07:50:42.991Z</time></trkpt><trkpt lat="37.83313555525985" lon="14.756822108779872"><ele>831.3333333333333</ele><time>2026-04-12T07:50:43.991Z</time></trkpt><trkpt lat="37.83317019791923" lon="14.756614626342229"><ele>830.6666666666667</ele><time>2026-04-12T07:50:44.991Z</time></trkpt><trkpt lat="37.83320310998048" lon="14.756404990721563"><ele>830.0</ele><time>2026-04-12T07:50:45.991Z</time></trkpt><trkpt lat="37.83319730470888" lon="14.756181609931994"><ele>832.0</ele><time>2026-04-12T07:50:46.991Z</time></trkpt><trkpt lat="37.833135472254675" lon="14.755969544624566"><ele>834.0</ele><time>2026-04-12T07:50:47.991Z</time></trkpt><trkpt lat="37.83305978587669" lon="14.755753878584276"><ele>836.0</ele><time>2026-04-12T07:50:48.991Z</time></trkpt><trkpt lat="37.832983098919144" lon="14.75553965010626"><ele>836.0</ele><time>2026-04-12T07:50:49.991Z</time></trkpt><trkpt lat="37.83290610626961" lon="14.755324566399095"><ele>836.0</ele><time>2026-04-12T07:50:50.991Z</time></trkpt><trkpt lat="37.8328532764443" lon="14.755106764148863"><ele>836.0</ele><time>2026-04-12T07:50:51.991Z</time></trkpt><trkpt lat="37.83282601993841" lon="14.754876453161975"><ele>840.6666666666667</ele><time>2026-04-12T07:50:52.991Z</time></trkpt><trkpt lat="37.8327986167992" lon="14.754626290389304"><ele>845.3333333333333</ele><time>2026-04-12T07:50:53.991Z</time></trkpt><trkpt lat="37.83275779030885" lon="14.754378085060484"><ele>850.0</ele><time>2026-04-12T07:50:54.991Z</time></trkpt><trkpt lat="37.83272866891737" lon="14.754144741769114"><ele>850.3333333333333</ele><time>2026-04-12T07:50:55.991Z</time></trkpt><trkpt lat="37.832683226342816" lon="14.753935930727575"><ele>850.6666666666667</ele><time>2026-04-12T07:50:56.991Z</time></trkpt><trkpt lat="37.832618830754875" lon="14.753744200023426"><ele>851.0</ele><time>2026-04-12T07:50:57.991Z</time></trkpt><trkpt lat="37.83251855065965" lon="14.753593691285998"><ele>850.0</ele><time>2026-04-12T07:50:58.991Z</time></trkpt><trkpt lat="37.83237497607828" lon="14.753487210975509"><ele>849.0</ele><time>2026-04-12T07:50:59.991Z</time></trkpt><trkpt lat="37.832224305950824" lon="14.753400010550992"><ele>848.0</ele><time>2026-04-12T07:51:00.991Z</time></trkpt><trkpt lat="37.832092581901904" lon="14.75328062028374"><ele>848.0</ele><time>2026-04-12T07:51:01.991Z</time></trkpt><trkpt lat="37.832014747482255" lon="14.753098857829997"><ele>848.0</ele><time>2026-04-12T07:51:02.991Z</time></trkpt><trkpt lat="37.83197278891529" lon="14.752891031066614"><ele>848.0</ele><time>2026-04-12T07:51:03.991Z</time></trkpt><trkpt lat="37.83192906545596" lon="14.752661790216715"><ele>852.3333333333334</ele><time>2026-04-12T07:51:04.991Z</time></trkpt><trkpt lat="37.831882457324795" lon="14.752417425312071"><ele>856.6666666666667</ele><time>2026-04-12T07:51:05.991Z</time></trkpt><trkpt lat="37.8318354975954" lon="14.752172209339099"><ele>861.0</ele><time>2026-04-12T07:51:06.991Z</time></trkpt><trkpt lat="37.83178850426271" lon="14.751934993119304"><ele>853.3333333333333</ele><time>2026-04-12T07:51:07.991Z</time></trkpt><trkpt lat="37.83173807659744" lon="14.751704829452208"><ele>845.6666666666666</ele><time>2026-04-12T07:51:08.991Z</time></trkpt><trkpt lat="37.83163595290746" lon="14.75150406018717"><ele>838.0</ele><time>2026-04-12T07:51:09.991Z</time></trkpt><trkpt lat="37.83148555066966" lon="14.751359070962701"><ele>838.0</ele><time>2026-04-12T07:51:10.991Z</time></trkpt><trkpt lat="37.83132951495387" lon="14.751222734166383"><ele>838.0</ele><time>2026-04-12T07:51:11.991Z</time></trkpt><trkpt lat="37.831165710217654" lon="14.75108241252346"><ele>838.0</ele><time>2026-04-12T07:51:12.991Z</time></trkpt><trkpt lat="37.83100473772485" lon="14.750940435499217"><ele>839.6666666666666</ele><time>2026-04-12T07:51:13.991Z</time></trkpt><trkpt lat="37.83085324264152" lon="14.75078556747845"><ele>841.3333333333333</ele><time>2026-04-12T07:51:14.99Z</time></trkpt><trkpt lat="37.83071788916657" lon="14.750617159766287"><ele>843.0</ele><time>2026-04-12T07:51:15.99Z</time></trkpt><trkpt lat="37.830600112169115" lon="14.75045660077627"><ele>843.0</ele><time>2026-04-12T07:51:16.99Z</time></trkpt><trkpt lat="37.83049744577961" lon="14.75030441616674"><ele>843.0</ele><time>2026-04-12T07:51:17.99Z</time></trkpt><trkpt lat="37.83043687977831" lon="14.750159090876718"><ele>843.0</ele><time>2026-04-12T07:51:18.99Z</time></trkpt><trkpt lat="37.830416698400555" lon="14.75000495026435"><ele>843.0</ele><time>2026-04-12T07:51:19.99Z</time></trkpt><trkpt lat="37.83048310256894" lon="14.749831946059512"><ele>846.3333333333333</ele><time>2026-04-12T07:51:20.99Z</time></trkpt><trkpt lat="37.83059636834334" lon="14.749670500849154"><ele>849.6666666666666</ele><time>2026-04-12T07:51:21.99Z</time></trkpt><trkpt lat="37.830709543900134" lon="14.749499493850251"><ele>853.0</ele><time>2026-04-12T07:51:22.99Z</time></trkpt><trkpt lat="37.83080853963626" lon="14.749308674616598"><ele>853.3333333333333</ele><time>2026-04-12T07:51:23.99Z</time></trkpt><trkpt lat="37.83087264497289" lon="14.749093132047413"><ele>853.6666666666667</ele><time>2026-04-12T07:51:24.99Z</time></trkpt><trkpt lat="37.830908633093344" lon="14.748860109782806"><ele>854.0</ele><time>2026-04-12T07:51:25.99Z</time></trkpt><trkpt lat="37.83092752427868" lon="14.748611673403072"><ele>854.3333333333334</ele><time>2026-04-12T07:51:26.99Z</time></trkpt><trkpt lat="37.83093059905636" lon="14.748373797093823"><ele>854.6666666666667</ele><time>2026-04-12T07:51:27.99Z</time></trkpt><trkpt lat="37.83089796730704" lon="14.748129560061122"><ele>855.0</ele><time>2026-04-12T07:51:28.99Z</time></trkpt><trkpt lat="37.83082715303852" lon="14.747886960400523"><ele>857.0</ele><time>2026-04-12T07:51:29.99Z</time></trkpt><trkpt lat="37.830727441963504" lon="14.74764724705187"><ele>859.0</ele><time>2026-04-12T07:51:30.99Z</time></trkpt><trkpt lat="37.83063137762146" lon="14.747442170820557"><ele>861.0</ele><time>2026-04-12T07:51:31.99Z</time></trkpt><trkpt lat="37.83050573781477" lon="14.74725594263913"><ele>861.0</ele><time>2026-04-12T07:51:32.99Z</time></trkpt><trkpt lat="37.830347480648214" lon="14.747097455762162"><ele>861.0</ele><time>2026-04-12T07:51:33.99Z</time></trkpt><trkpt lat="37.83016405589185" lon="14.746954485522876"><ele>861.0</ele><time>2026-04-12T07:51:34.99Z</time></trkpt><trkpt lat="37.829994672917884" lon="14.746809415186544"><ele>862.6666666666667</ele><time>2026-04-12T07:51:35.99Z</time></trkpt><trkpt lat="37.82984934371452" lon="14.746652103293215"><ele>864.3333333333334</ele><time>2026-04-12T07:51:36.99Z</time></trkpt><trkpt lat="37.829730405035164" lon="14.746465413349549"><ele>866.0</ele><time>2026-04-12T07:51:37.99Z</time></trkpt><trkpt lat="37.829630323522466" lon="14.746264977671608"><ele>866.0</ele><time>2026-04-12T07:51:38.99Z</time></trkpt><trkpt lat="37.829544752619974" lon="14.746072563551115"><ele>866.0</ele><time>2026-04-12T07:51:39.99Z</time></trkpt><trkpt lat="37.82948089186113" lon="14.745894472217005"><ele>866.0</ele><time>2026-04-12T07:51:40.99Z</time></trkpt><trkpt lat="37.82946435721257" lon="14.745697682141596"><ele>870.3333333333334</ele><time>2026-04-12T07:51:41.99Z</time></trkpt><trkpt lat="37.829485146675566" lon="14.745475288577586"><ele>874.6666666666667</ele><time>2026-04-12T07:51:42.99Z</time></trkpt><trkpt lat="37.82953066382487" lon="14.745245215657441"><ele>879.0</ele><time>2026-04-12T07:51:43.99Z</time></trkpt><trkpt lat="37.829597276971135" lon="14.745016112593378"><ele>878.6666666666667</ele><time>2026-04-12T07:51:44.99Z</time></trkpt><trkpt lat="37.82965790210017" lon="14.744788156503592"><ele>878.3333333333334</ele><time>2026-04-12T07:51:45.99Z</time></trkpt><trkpt lat="37.829712934279264" lon="14.744571069678967"><ele>878.0</ele><time>2026-04-12T07:51:46.99Z</time></trkpt><trkpt lat="37.8297539998251" lon="14.744367916949509"><ele>878.0</ele><time>2026-04-12T07:51:47.99Z</time></trkpt><trkpt lat="37.82975591582926" lon="14.744175969503177"><ele>878.0</ele><time>2026-04-12T07:51:48.99Z</time></trkpt><trkpt lat="37.829699907258444" lon="14.74400459646178"><ele>878.0</ele><time>2026-04-12T07:51:49.989Z</time></trkpt><trkpt lat="37.829597985526604" lon="14.743837858600688"><ele>878.0</ele><time>2026-04-12T07:51:50.989Z</time></trkpt><trkpt lat="37.829483649165915" lon="14.743652733365568"><ele>878.0</ele><time>2026-04-12T07:51:51.989Z</time></trkpt><trkpt lat="37.829381546394046" lon="14.74346564622769"><ele>878.0</ele><time>2026-04-12T07:51:52.989Z</time></trkpt><trkpt lat="37.82930579102996" lon="14.743272327597273"><ele>874.3333333333334</ele><time>2026-04-12T07:51:53.989Z</time></trkpt><trkpt lat="37.829267653480464" lon="14.743057921185025"><ele>870.6666666666667</ele><time>2026-04-12T07:51:54.989Z</time></trkpt><trkpt lat="37.82927586767831" lon="14.74281351302706"><ele>867.0</ele><time>2026-04-12T07:51:55.989Z</time></trkpt><trkpt lat="37.82927327204028" lon="14.742580717004307"><ele>867.0</ele><time>2026-04-12T07:51:56.989Z</time></trkpt><trkpt lat="37.82928356054951" lon="14.742366036593639"><ele>867.0</ele><time>2026-04-12T07:51:57.989Z</time></trkpt><trkpt lat="37.8293335781194" lon="14.742168472349118"><ele>867.0</ele><time>2026-04-12T07:51:58.989Z</time></trkpt><trkpt lat="37.82939179501951" lon="14.741972382045434"><ele>873.0</ele><time>2026-04-12T07:51:59.989Z</time></trkpt><trkpt lat="37.82945773066627" lon="14.741771118774535"><ele>879.0</ele><time>2026-04-12T07:52:00.989Z</time></trkpt><trkpt lat="37.829519377403784" lon="14.741567569905667"><ele>885.0</ele><time>2026-04-12T07:52:01.989Z</time></trkpt><trkpt lat="37.829553704978984" lon="14.741352798186508"><ele>885.0</ele><time>2026-04-12T07:52:02.989Z</time></trkpt><trkpt lat="37.829542849971595" lon="14.74114549762276"><ele>885.0</ele><time>2026-04-12T07:52:03.989Z</time></trkpt><trkpt lat="37.82952717344286" lon="14.740929303658321"><ele>885.0</ele><time>2026-04-12T07:52:04.989Z</time></trkpt><trkpt lat="37.82950103317914" lon="14.74072153284088"><ele>885.6666666666667</ele><time>2026-04-12T07:52:05.989Z</time></trkpt><trkpt lat="37.82947754995571" lon="14.74051355783186"><ele>886.3333333333334</ele><time>2026-04-12T07:52:06.989Z</time></trkpt><trkpt lat="37.82946993946794" lon="14.740302473194296"><ele>887.0</ele><time>2026-04-12T07:52:07.989Z</time></trkpt><trkpt lat="37.82944899318311" lon="14.740091283947525"><ele>888.6666666666667</ele><time>2026-04-12T07:52:08.989Z</time></trkpt><trkpt lat="37.829429894851124" lon="14.739877831411718"><ele>890.3333333333333</ele><time>2026-04-12T07:52:09.989Z</time></trkpt><trkpt lat="37.82941070747717" lon="14.739661920264972"><ele>892.0</ele><time>2026-04-12T07:52:10.989Z</time></trkpt><trkpt lat="37.82938644079016" lon="14.739443891034387"><ele>895.6666666666666</ele><time>2026-04-12T07:52:11.989Z</time></trkpt><trkpt lat="37.82933498772739" lon="14.73923100206139"><ele>899.3333333333333</ele><time>2026-04-12T07:52:12.989Z</time></trkpt><trkpt lat="37.829227577927426" lon="14.739039284573034"><ele>903.0</ele><time>2026-04-12T07:52:13.989Z</time></trkpt><trkpt lat="37.82907233586854" lon="14.738919218088173"><ele>895.3333333333333</ele><time>2026-04-12T07:52:14.989Z</time></trkpt><trkpt lat="37.82890630277233" lon="14.738841040751868"><ele>887.6666666666666</ele><time>2026-04-12T07:52:15.989Z</time></trkpt><trkpt lat="37.82872223959919" lon="14.738799458868499"><ele>880.0</ele><time>2026-04-12T07:52:16.989Z</time></trkpt><trkpt lat="37.828558234839825" lon="14.738737788063823"><ele>881.0</ele><time>2026-04-12T07:52:17.989Z</time></trkpt><trkpt lat="37.82841146226881" lon="14.738688633346714"><ele>882.0</ele><time>2026-04-12T07:52:18.989Z</time></trkpt><trkpt lat="37.82829379023762" lon="14.73861601385006"><ele>883.0</ele><time>2026-04-12T07:52:19.989Z</time></trkpt><trkpt lat="37.82821341203665" lon="14.738476395565055"><ele>884.0</ele><time>2026-04-12T07:52:20.989Z</time></trkpt><trkpt lat="37.828180265843166" lon="14.738303593359651"><ele>884.0</ele><time>2026-04-12T07:52:21.989Z</time></trkpt><trkpt lat="37.82817988617579" lon="14.738102053358395"><ele>884.0</ele><time>2026-04-12T07:52:22.989Z</time></trkpt><trkpt lat="37.82819074955536" lon="14.737886631720068"><ele>884.0</ele><time>2026-04-12T07:52:23.989Z</time></trkpt><trkpt lat="37.82819483625569" lon="14.737668094985702"><ele>886.3333333333334</ele><time>2026-04-12T07:52:24.988Z</time></trkpt><trkpt lat="37.82819547432472" lon="14.737450884820843"><ele>888.6666666666667</ele><time>2026-04-12T07:52:25.988Z</time></trkpt><trkpt lat="37.82821585391021" lon="14.73723716302564"><ele>891.0</ele><time>2026-04-12T07:52:26.988Z</time></trkpt><trkpt lat="37.82828207634235" lon="14.73702304637791"><ele>891.3333333333333</ele><time>2026-04-12T07:52:27.988Z</time></trkpt><trkpt lat="37.82836585034745" lon="14.736816575304797"><ele>891.6666666666666</ele><time>2026-04-12T07:52:28.988Z</time></trkpt><trkpt lat="37.8284575429759" lon="14.736612079318295"><ele>892.0</ele><time>2026-04-12T07:52:29.988Z</time></trkpt><trkpt lat="37.828553058105115" lon="14.736408236810854"><ele>895.6666666666666</ele><time>2026-04-12T07:52:30.988Z</time></trkpt><trkpt lat="37.828647363560904" lon="14.736207807017557"><ele>899.3333333333333</ele><time>2026-04-12T07:52:31.988Z</time></trkpt><trkpt lat="37.82875912317268" lon="14.736025395819624"><ele>903.0</ele><time>2026-04-12T07:52:32.988Z</time></trkpt><trkpt lat="37.82889772843661" lon="14.735858535093502"><ele>903.0</ele><time>2026-04-12T07:52:33.988Z</time></trkpt><trkpt lat="37.82907717180449" lon="14.735725814274398"><ele>903.0</ele><time>2026-04-12T07:52:34.988Z</time></trkpt><trkpt lat="37.82927914044609" lon="14.735631696336082"><ele>903.0</ele><time>2026-04-12T07:52:35.991Z</time></trkpt><trkpt lat="37.829466627476826" lon="14.735526071421836"><ele>906.3333333333333</ele><time>2026-04-12T07:52:36.991Z</time></trkpt><trkpt lat="37.829628982811755" lon="14.735375950219327"><ele>909.6666666666666</ele><time>2026-04-12T07:52:37.991Z</time></trkpt><trkpt lat="37.82975627756168" lon="14.735181046947833"><ele>913.0</ele><time>2026-04-12T07:52:38.991Z</time></trkpt><trkpt lat="37.82986849596445" lon="14.734968617144574"><ele>913.0</ele><time>2026-04-12T07:52:39.991Z</time></trkpt><trkpt lat="37.829980555292096" lon="14.734727961048929"><ele>913.0</ele><time>2026-04-12T07:52:40.991Z</time></trkpt><trkpt lat="37.83008160732433" lon="14.734493404202304"><ele>913.0</ele><time>2026-04-12T07:52:41.991Z</time></trkpt><trkpt lat="37.83015135044383" lon="14.734259675489199"><ele>918.0</ele><time>2026-04-12T07:52:42.991Z</time></trkpt><trkpt lat="37.830212061246606" lon="14.734028297052461"><ele>923.0</ele><time>2026-04-12T07:52:43.991Z</time></trkpt><trkpt lat="37.8303132488718" lon="14.733815408641252"><ele>928.0</ele><time>2026-04-12T07:52:44.992Z</time></trkpt><trkpt lat="37.83034619510757" lon="14.733581649110613"><ele>928.6666666666666</ele><time>2026-04-12T07:52:45.992Z</time></trkpt><trkpt lat="37.83034104607104" lon="14.733336619198553"><ele>929.3333333333333</ele><time>2026-04-12T07:52:46.992Z</time></trkpt><trkpt lat="37.83033237767535" lon="14.733082251971734"><ele>930.0</ele><time>2026-04-12T07:52:47.991Z</time></trkpt><trkpt lat="37.83032974987645" lon="14.732847850806104"><ele>932.0</ele><time>2026-04-12T07:52:48.991Z</time></trkpt><trkpt lat="37.830322869579476" lon="14.732636372748818"><ele>934.0</ele><time>2026-04-12T07:52:49.991Z</time></trkpt><trkpt lat="37.83028859769385" lon="14.732451376612085"><ele>936.0</ele><time>2026-04-12T07:52:50.991Z</time></trkpt><trkpt lat="37.83020788173323" lon="14.73230673362841"><ele>930.3333333333333</ele><time>2026-04-12T07:52:51.991Z</time></trkpt><trkpt lat="37.83008891246541" lon="14.732220332487701"><ele>924.6666666666666</ele><time>2026-04-12T07:52:52.991Z</time></trkpt><trkpt lat="37.82993152755718" lon="14.732190869243334"><ele>919.0</ele><time>2026-04-12T07:52:53.991Z</time></trkpt><trkpt lat="37.82976837964044" lon="14.73214446036977"><ele>919.0</ele><time>2026-04-12T07:52:54.991Z</time></trkpt><trkpt lat="37.829639749745745" lon="14.73206365689327"><ele>919.0</ele><time>2026-04-12T07:52:55.991Z</time></trkpt><trkpt lat="37.829571514714324" lon="14.731949422457744"><ele>919.0</ele><time>2026-04-12T07:52:56.991Z</time></trkpt><trkpt lat="37.829559073473504" lon="14.731783892556281"><ele>919.0</ele><time>2026-04-12T07:52:57.991Z</time></trkpt><trkpt lat="37.82958068411424" lon="14.731585210180699"><ele>921.5</ele><time>2026-04-12T07:52:58.991Z</time></trkpt><trkpt lat="37.829648603842344" lon="14.731393143513635"><ele>924.0</ele><time>2026-04-12T07:52:59.991Z</time></trkpt><trkpt lat="37.82975428388004" lon="14.731289312787714"><ele>926.5</ele><time>2026-04-12T07:53:00.991Z</time></trkpt><trkpt lat="37.829863783892385" lon="14.731288658816812"><ele>929.0</ele><time>2026-04-12T07:53:01.991Z</time></trkpt><trkpt lat="37.82997261701334" lon="14.731369010823204"><ele>929.0</ele><time>2026-04-12T07:53:02.991Z</time></trkpt><trkpt lat="37.830095014901666" lon="14.731498027742125"><ele>929.0</ele><time>2026-04-12T07:53:03.991Z</time></trkpt><trkpt lat="37.83024970476536" lon="14.731587373473001"><ele>929.0</ele><time>2026-04-12T07:53:04.991Z</time></trkpt><trkpt lat="37.830412728202425" lon="14.731675173772805"><ele>931.3333333333334</ele><time>2026-04-12T07:53:05.991Z</time></trkpt><trkpt lat="37.83057880135683" lon="14.731712325642414"><ele>933.6666666666667</ele><time>2026-04-12T07:53:06.991Z</time></trkpt><trkpt lat="37.83071859644597" lon="14.731750048137007"><ele>936.0</ele><time>2026-04-12T07:53:07.991Z</time></trkpt><trkpt lat="37.830857963843734" lon="14.731754389875604"><ele>943.3333333333333</ele><time>2026-04-12T07:53:08.991Z</time></trkpt><trkpt lat="37.830998480245725" lon="14.731714636062337"><ele>950.6666666666666</ele><time>2026-04-12T07:53:09.991Z</time></trkpt><trkpt lat="37.831123033255125" lon="14.731577235645128"><ele>958.0</ele><time>2026-04-12T07:53:10.991Z</time></trkpt><trkpt lat="37.83122527080265" lon="14.731378803990294"><ele>958.0</ele><time>2026-04-12T07:53:11.991Z</time></trkpt><trkpt lat="37.8313219752503" lon="14.731165850859709"><ele>958.0</ele><time>2026-04-12T07:53:12.991Z</time></trkpt><trkpt lat="37.8314232061518" lon="14.730970019979512"><ele>958.0</ele><time>2026-04-12T07:53:13.991Z</time></trkpt><trkpt lat="37.83152830995771" lon="14.730779439476656"><ele>956.0</ele><time>2026-04-12T07:53:14.991Z</time></trkpt><trkpt lat="37.83162738625932" lon="14.730582050329051"><ele>954.0</ele><time>2026-04-12T07:53:15.99Z</time></trkpt><trkpt lat="37.83171427478738" lon="14.730384475337145"><ele>952.0</ele><time>2026-04-12T07:53:16.99Z</time></trkpt><trkpt lat="37.83178748453023" lon="14.730174065808482"><ele>955.6666666666666</ele><time>2026-04-12T07:53:17.99Z</time></trkpt><trkpt lat="37.83185815883448" lon="14.729956839888564"><ele>959.3333333333333</ele><time>2026-04-12T07:53:18.99Z</time></trkpt><trkpt lat="37.83193490479251" lon="14.729744656040682"><ele>963.0</ele><time>2026-04-12T07:53:19.99Z</time></trkpt><trkpt lat="37.83201491459811" lon="14.729537798735103"><ele>961.3333333333333</ele><time>2026-04-12T07:53:20.99Z</time></trkpt><trkpt lat="37.832091715820994" lon="14.72933294033139"><ele>959.6666666666666</ele><time>2026-04-12T07:53:21.99Z</time></trkpt><trkpt lat="37.83216980915212" lon="14.729130681413846"><ele>958.0</ele><time>2026-04-12T07:53:22.99Z</time></trkpt><trkpt lat="37.83226401888872" lon="14.728942716852092"><ele>958.0</ele><time>2026-04-12T07:53:23.99Z</time></trkpt><trkpt lat="37.832386512337344" lon="14.728774071819204"><ele>958.0</ele><time>2026-04-12T07:53:24.99Z</time></trkpt><trkpt lat="37.832525287137926" lon="14.728625504466558"><ele>958.0</ele><time>2026-04-12T07:53:25.99Z</time></trkpt><trkpt lat="37.83268434503618" lon="14.728501039163271"><ele>959.6666666666666</ele><time>2026-04-12T07:53:26.99Z</time></trkpt><trkpt lat="37.83285715945838" lon="14.728393450846356"><ele>961.3333333333333</ele><time>2026-04-12T07:53:27.99Z</time></trkpt><trkpt lat="37.83301901924387" lon="14.72828902111739"><ele>963.0</ele><time>2026-04-12T07:53:28.99Z</time></trkpt><trkpt lat="37.833173941415495" lon="14.728195834659891"><ele>963.0</ele><time>2026-04-12T07:53:29.99Z</time></trkpt><trkpt lat="37.833294237013114" lon="14.728042831569907"><ele>963.0</ele><time>2026-04-12T07:53:30.99Z</time></trkpt><trkpt lat="37.83335001548799" lon="14.727822077853386"><ele>963.0</ele><time>2026-04-12T07:53:31.99Z</time></trkpt><trkpt lat="37.833402618009835" lon="14.727580021627716"><ele>961.6666666666667</ele><time>2026-04-12T07:53:32.99Z</time></trkpt><trkpt lat="37.83345912504969" lon="14.72740353383705"><ele>960.3333333333334</ele><time>2026-04-12T07:53:33.99Z</time></trkpt><trkpt lat="37.8335595949016" lon="14.727263853603834"><ele>959.0</ele><time>2026-04-12T07:53:34.99Z</time></trkpt><trkpt lat="37.83368094448796" lon="14.727131044853579"><ele>964.6666666666667</ele><time>2026-04-12T07:53:35.99Z</time></trkpt><trkpt lat="37.83382633148984" lon="14.727043612194452"><ele>970.3333333333333</ele><time>2026-04-12T07:53:36.99Z</time></trkpt><trkpt lat="37.83399462342384" lon="14.726996046482403"><ele>976.0</ele><time>2026-04-12T07:53:37.99Z</time></trkpt><trkpt lat="37.834179256301056" lon="14.72703157167904"><ele>979.3333333333333</ele><time>2026-04-12T07:53:38.99Z</time></trkpt><trkpt lat="37.83437364047833" lon="14.727072674809998"><ele>982.6666666666667</ele><time>2026-04-12T07:53:39.99Z</time></trkpt><trkpt lat="37.83456499578066" lon="14.727098862007072"><ele>986.0</ele><time>2026-04-12T07:53:40.99Z</time></trkpt><trkpt lat="37.83476029828994" lon="14.727036541267807"><ele>986.0</ele><time>2026-04-12T07:53:41.99Z</time></trkpt><trkpt lat="37.834935595610226" lon="14.726901992178739"><ele>986.0</ele><time>2026-04-12T07:53:42.99Z</time></trkpt><trkpt lat="37.835091609219056" lon="14.726762274162079"><ele>986.0</ele><time>2026-04-12T07:53:43.99Z</time></trkpt><trkpt lat="37.8352463878368" lon="14.72662885066677"><ele>986.6666666666667</ele><time>2026-04-12T07:53:44.99Z</time></trkpt><trkpt lat="37.83540487975598" lon="14.726490442642922"><ele>987.3333333333333</ele><time>2026-04-12T07:53:45.99Z</time></trkpt><trkpt lat="37.83555268824389" lon="14.726344028510486"><ele>988.0</ele><time>2026-04-12T07:53:46.99Z</time></trkpt><trkpt lat="37.83568587959772" lon="14.72622275993655"><ele>988.0</ele><time>2026-04-12T07:53:47.99Z</time></trkpt><trkpt lat="37.83581185713758" lon="14.726127909943893"><ele>988.0</ele><time>2026-04-12T07:53:48.99Z</time></trkpt><trkpt lat="37.83594944187537" lon="14.726101653969579"><ele>988.0</ele><time>2026-04-12T07:53:49.989Z</time></trkpt><trkpt lat="37.83609689467062" lon="14.72610609233983"><ele>988.0</ele><time>2026-04-12T07:53:50.989Z</time></trkpt><trkpt lat="37.836233216129614" lon="14.726266105496608"><ele>991.0</ele><time>2026-04-12T07:53:51.989Z</time></trkpt><trkpt lat="37.83640426187968" lon="14.726318255638384"><ele>994.0</ele><time>2026-04-12T07:53:52.989Z</time></trkpt><trkpt lat="37.8365687765512" lon="14.726320506450618"><ele>997.0</ele><time>2026-04-12T07:53:53.989Z</time></trkpt><trkpt lat="37.83676247361446" lon="14.726270214491382"><ele>998.3333333333333</ele><time>2026-04-12T07:53:54.989Z</time></trkpt><trkpt lat="37.83695174858506" lon="14.726152679082794"><ele>999.6666666666667</ele><time>2026-04-12T07:53:55.989Z</time></trkpt><trkpt lat="37.83709705315739" lon="14.726028707895184"><ele>1001.0</ele><time>2026-04-12T07:53:56.989Z</time></trkpt><trkpt lat="37.837219159139586" lon="14.725926667822105"><ele>1001.0</ele><time>2026-04-12T07:53:57.989Z</time></trkpt><trkpt lat="37.83729975767434" lon="14.725822565044801"><ele>1001.0</ele><time>2026-04-12T07:53:58.989Z</time></trkpt><trkpt lat="37.83733246886682" lon="14.725661036880586"><ele>1001.0</ele><time>2026-04-12T07:53:59.989Z</time></trkpt><trkpt lat="37.83730325926337" lon="14.725463107506892"><ele>1001.0</ele><time>2026-04-12T07:54:00.989Z</time></trkpt><trkpt lat="37.837226943495146" lon="14.7252495604875"><ele>1000.25</ele><time>2026-04-12T07:54:01.989Z</time></trkpt><trkpt lat="37.837153031583554" lon="14.725051601096695"><ele>999.5</ele><time>2026-04-12T07:54:02.989Z</time></trkpt><trkpt lat="37.83711287262893" lon="14.724864751866575"><ele>998.75</ele><time>2026-04-12T07:54:03.989Z</time></trkpt><trkpt lat="37.837100720596304" lon="14.72471911350946"><ele>998.0</ele><time>2026-04-12T07:54:04.989Z</time></trkpt><trkpt lat="37.837134042533854" lon="14.72462244633123"><ele>998.0</ele><time>2026-04-12T07:54:05.989Z</time></trkpt><trkpt lat="37.8371981077335" lon="14.724575842250715"><ele>998.0</ele><time>2026-04-12T07:54:06.989Z</time></trkpt><trkpt lat="37.83739426633402" lon="14.724742167177977"><ele>998.0</ele><time>2026-04-12T07:54:08.989Z</time></trkpt><trkpt lat="37.83752763214375" lon="14.724815444299583"><ele>1003.3333333333334</ele><time>2026-04-12T07:54:09.989Z</time></trkpt><trkpt lat="37.837678807844384" lon="14.724813416803519"><ele>1008.6666666666667</ele><time>2026-04-12T07:54:10.989Z</time></trkpt><trkpt lat="37.83785209948151" lon="14.724748763254423"><ele>1014.0</ele><time>2026-04-12T07:54:11.989Z</time></trkpt><trkpt lat="37.83802096681579" lon="14.72467175404289"><ele>1014.0</ele><time>2026-04-12T07:54:12.989Z</time></trkpt><trkpt lat="37.83818809392938" lon="14.724611730557706"><ele>1014.0</ele><time>2026-04-12T07:54:13.989Z</time></trkpt><trkpt lat="37.83833963787782" lon="14.724564560025453"><ele>1014.0</ele><time>2026-04-12T07:54:14.989Z</time></trkpt><trkpt lat="37.838462328477945" lon="14.72447353452968"><ele>1014.6666666666667</ele><time>2026-04-12T07:54:15.989Z</time></trkpt><trkpt lat="37.8385510687889" lon="14.7243446197603"><ele>1015.3333333333334</ele><time>2026-04-12T07:54:16.989Z</time></trkpt><trkpt lat="37.83859452935962" lon="14.724167289465075"><ele>1016.0</ele><time>2026-04-12T07:54:17.989Z</time></trkpt><trkpt lat="37.83860330512799" lon="14.723954613621897"><ele>1016.0</ele><time>2026-04-12T07:54:18.989Z</time></trkpt><trkpt lat="37.83860394347357" lon="14.72371341115837"><ele>1016.0</ele><time>2026-04-12T07:54:19.989Z</time></trkpt><trkpt lat="37.838629240327066" lon="14.723455817771582"><ele>1016.0</ele><time>2026-04-12T07:54:20.989Z</time></trkpt><trkpt lat="37.83870335275094" lon="14.72319940291931"><ele>1017.3333333333334</ele><time>2026-04-12T07:54:21.989Z</time></trkpt><trkpt lat="37.83873979901598" lon="14.72292043122922"><ele>1018.6666666666667</ele><time>2026-04-12T07:54:22.989Z</time></trkpt><trkpt lat="37.83876319675412" lon="14.722639987294311"><ele>1020.0</ele><time>2026-04-12T07:54:23.989Z</time></trkpt><trkpt lat="37.838764775009864" lon="14.722366294126747"><ele>1021.3333333333333</ele><time>2026-04-12T07:54:24.988Z</time></trkpt><trkpt lat="37.83876136839078" lon="14.722122037980636"><ele>1022.6666666666666</ele><time>2026-04-12T07:54:25.988Z</time></trkpt><trkpt lat="37.838727026667215" lon="14.721917916892206"><ele>1024.0</ele><time>2026-04-12T07:54:26.988Z</time></trkpt><trkpt lat="37.83862294102768" lon="14.72173662376847"><ele>1026.6666666666665</ele><time>2026-04-12T07:54:27.988Z</time></trkpt><trkpt lat="37.838478732974515" lon="14.721607322579361"><ele>1029.3333333333333</ele><time>2026-04-12T07:54:28.988Z</time></trkpt><trkpt lat="37.838331152364276" lon="14.721533240725558"><ele>1032.0</ele><time>2026-04-12T07:54:29.988Z</time></trkpt><trkpt lat="37.838229832022265" lon="14.721448595547237"><ele>1029.0</ele><time>2026-04-12T07:54:30.988Z</time></trkpt><trkpt lat="37.83817882043187" lon="14.721305638288788"><ele>1026.0</ele><time>2026-04-12T07:54:31.988Z</time></trkpt><trkpt lat="37.83817875905787" lon="14.721110511790153"><ele>1023.0</ele><time>2026-04-12T07:54:32.988Z</time></trkpt><trkpt lat="37.838244933746665" lon="14.720948696767776"><ele>1020.0</ele><time>2026-04-12T07:54:33.988Z</time></trkpt><trkpt lat="37.838351255511256" lon="14.720807670857749"><ele>1025.0</ele><time>2026-04-12T07:54:34.988Z</time></trkpt><trkpt lat="37.83848476407729" lon="14.720724099703485"><ele>1030.0</ele><time>2026-04-12T07:54:35.988Z</time></trkpt><trkpt lat="37.83863921745245" lon="14.72069555716477"><ele>1035.0</ele><time>2026-04-12T07:54:36.988Z</time></trkpt><trkpt lat="37.83876936328528" lon="14.720665297293737"><ele>1040.0</ele><time>2026-04-12T07:54:37.988Z</time></trkpt><trkpt lat="37.83886642561953" lon="14.72062510311867"><ele>1040.0</ele><time>2026-04-12T07:54:38.988Z</time></trkpt><trkpt lat="37.83893289906542" lon="14.720565352896399"><ele>1040.0</ele><time>2026-04-12T07:54:39.988Z</time></trkpt><trkpt lat="37.83896833132792" lon="14.72045458019318"><ele>1040.0</ele><time>2026-04-12T07:54:40.988Z</time></trkpt><trkpt lat="37.83899823022853" lon="14.720323791963768"><ele>1040.0</ele><time>2026-04-12T07:54:41.991Z</time></trkpt><trkpt lat="37.83898971263642" lon="14.72019909637605"><ele>1040.0</ele><time>2026-04-12T07:54:42.991Z</time></trkpt><trkpt lat="37.839008953667346" lon="14.720072954230842"><ele>1038.8</ele><time>2026-04-12T07:54:43.991Z</time></trkpt><trkpt lat="37.83901061029206" lon="14.719940661015467"><ele>1037.6</ele><time>2026-04-12T07:54:44.991Z</time></trkpt><trkpt lat="37.83899470979785" lon="14.719799815915822"><ele>1036.4</ele><time>2026-04-12T07:54:45.991Z</time></trkpt><trkpt lat="37.83900805474104" lon="14.719665066812397"><ele>1035.2</ele><time>2026-04-12T07:54:46.991Z</time></trkpt><trkpt lat="37.83899216306873" lon="14.719539628321735"><ele>1034.0</ele><time>2026-04-12T07:54:47.99Z</time></trkpt><trkpt lat="37.83898310265265" lon="14.719418684927275"><ele>1033.6000000000001</ele><time>2026-04-12T07:54:48.99Z</time></trkpt><trkpt lat="37.83899166933061" lon="14.719303717500745"><ele>1033.2</ele><time>2026-04-12T07:54:49.99Z</time></trkpt><trkpt lat="37.83904733709547" lon="14.719204852126872"><ele>1032.8000000000002</ele><time>2026-04-12T07:54:50.991Z</time></trkpt><trkpt lat="37.83912709250421" lon="14.719133872381462"><ele>1032.4</ele><time>2026-04-12T07:54:51.991Z</time></trkpt><trkpt lat="37.83921740520596" lon="14.7190935948269"><ele>1032.0</ele><time>2026-04-12T07:54:52.991Z</time></trkpt><trkpt lat="37.83931122996531" lon="14.719064745602529"><ele>1034.4</ele><time>2026-04-12T07:54:53.991Z</time></trkpt><trkpt lat="37.83939889024522" lon="14.719031695212998"><ele>1036.8000000000002</ele><time>2026-04-12T07:54:54.991Z</time></trkpt><trkpt lat="37.83949313791427" lon="14.718997653176013"><ele>1039.2</ele><time>2026-04-12T07:54:55.99Z</time></trkpt><trkpt lat="37.83960006388231" lon="14.71896941730478"><ele>1041.6000000000001</ele><time>2026-04-12T07:54:56.99Z</time></trkpt><trkpt lat="37.839714819107655" lon="14.718928897959826"><ele>1044.0</ele><time>2026-04-12T07:54:57.99Z</time></trkpt><trkpt lat="37.83983081333045" lon="14.718884329320277"><ele>1044.0</ele><time>2026-04-12T07:54:58.99Z</time></trkpt><trkpt lat="37.83994713364079" lon="14.718844709204994"><ele>1044.0</ele><time>2026-04-12T07:54:59.99Z</time></trkpt><trkpt lat="37.84005738830917" lon="14.718808325490288"><ele>1044.0</ele><time>2026-04-12T07:55:00.99Z</time></trkpt><trkpt lat="37.84016054901194" lon="14.71876495565016"><ele>1044.0</ele><time>2026-04-12T07:55:01.99Z</time></trkpt><trkpt lat="37.84025271037658" lon="14.71871583342724"><ele>1044.0</ele><time>2026-04-12T07:55:02.99Z</time></trkpt><trkpt lat="37.84032655218859" lon="14.718632167241159"><ele>1047.4</ele><time>2026-04-12T07:55:03.99Z</time></trkpt><trkpt lat="37.84036968238775" lon="14.718520031936418"><ele>1050.8000000000002</ele><time>2026-04-12T07:55:04.99Z</time></trkpt><trkpt lat="37.840387532506114" lon="14.718393382488378"><ele>1054.1999999999998</ele><time>2026-04-12T07:55:05.99Z</time></trkpt><trkpt lat="37.84040124073499" lon="14.71827167039939"><ele>1057.6</ele><time>2026-04-12T07:55:06.99Z</time></trkpt><trkpt lat="37.840415799773915" lon="14.718145967802508"><ele>1061.0</ele><time>2026-04-12T07:55:07.99Z</time></trkpt><trkpt lat="37.84043300253835" lon="14.718014943052415"><ele>1061.0</ele><time>2026-04-12T07:55:08.99Z</time></trkpt><trkpt lat="37.84044806749037" lon="14.717885990929389"><ele>1061.0</ele><time>2026-04-12T07:55:09.99Z</time></trkpt><trkpt lat="37.84047322709071" lon="14.717756272405984"><ele>1061.0</ele><time>2026-04-12T07:55:10.99Z</time></trkpt><trkpt lat="37.8404330761745" lon="14.71762448345282"><ele>1061.0</ele><time>2026-04-12T07:55:11.99Z</time></trkpt><trkpt lat="37.84040531193577" lon="14.717517539469213"><ele>1061.0</ele><time>2026-04-12T07:55:12.99Z</time></trkpt><trkpt lat="37.840384083161695" lon="14.717430254677364"><ele>1061.3999999999999</ele><time>2026-04-12T07:55:13.99Z</time></trkpt><trkpt lat="37.840343995086094" lon="14.717300802447838"><ele>1061.8</ele><time>2026-04-12T07:55:15.99Z</time></trkpt><trkpt lat="37.840322014702735" lon="14.717221027390954"><ele>1062.1999999999998</ele><time>2026-04-12T07:55:17.99Z</time></trkpt><trkpt lat="37.840260425946035" lon="14.717115738201862"><ele>1062.6</ele><time>2026-04-12T07:55:40.989Z</time></trkpt><trkpt lat="37.840226834007396" lon="14.717021823715209"><ele>1063.0</ele><time>2026-04-12T07:55:41.989Z</time></trkpt><trkpt lat="37.84020976975416" lon="14.716910903918807"><ele>1063.8</ele><time>2026-04-12T07:55:42.989Z</time></trkpt><trkpt lat="37.84016511477032" lon="14.71680664684702"><ele>1064.6</ele><time>2026-04-12T07:55:43.989Z</time></trkpt><trkpt lat="37.8401431239618" lon="14.71667951028857"><ele>1065.4</ele><time>2026-04-12T07:55:44.989Z</time></trkpt><trkpt lat="37.84013972141773" lon="14.716535181113828"><ele>1066.2</ele><time>2026-04-12T07:55:45.989Z</time></trkpt><trkpt lat="37.84017251160023" lon="14.71639475876748"><ele>1067.0</ele><time>2026-04-12T07:55:46.989Z</time></trkpt><trkpt lat="37.84023913972278" lon="14.716284549392293"><ele>1067.0</ele><time>2026-04-12T07:55:47.989Z</time></trkpt><trkpt lat="37.84030975119937" lon="14.7161778657494"><ele>1067.0</ele><time>2026-04-12T07:55:48.989Z</time></trkpt><trkpt lat="37.84039057261201" lon="14.716077374808405"><ele>1067.0</ele><time>2026-04-12T07:55:49.989Z</time></trkpt><trkpt lat="37.84047810810405" lon="14.715974201150088"><ele>1067.0</ele><time>2026-04-12T07:55:50.989Z</time></trkpt><trkpt lat="37.8405772898507" lon="14.71586010246006"><ele>1065.5</ele><time>2026-04-12T07:55:51.989Z</time></trkpt><trkpt lat="37.8406598177637" lon="14.71575042164246"><ele>1064.0</ele><time>2026-04-12T07:55:52.989Z</time></trkpt><trkpt lat="37.84074853001258" lon="14.715631411250731"><ele>1062.5</ele><time>2026-04-12T07:55:53.989Z</time></trkpt><trkpt lat="37.840818778877335" lon="14.71547338626777"><ele>1061.0</ele><time>2026-04-12T07:55:54.989Z</time></trkpt><trkpt lat="37.84086228396212" lon="14.715296512624908"><ele>1059.0</ele><time>2026-04-12T07:55:55.989Z</time></trkpt><trkpt lat="37.84087723951092" lon="14.71511065955738"><ele>1057.0</ele><time>2026-04-12T07:55:56.989Z</time></trkpt><trkpt lat="37.84088212991395" lon="14.714923575187333"><ele>1055.0</ele><time>2026-04-12T07:55:57.989Z</time></trkpt><trkpt lat="37.84088755732021" lon="14.714738264441095"><ele>1053.0</ele><time>2026-04-12T07:55:58.989Z</time></trkpt><trkpt lat="37.84090236755619" lon="14.714555171042607"><ele>1051.0</ele><time>2026-04-12T07:55:59.989Z</time></trkpt><trkpt lat="37.84093698473507" lon="14.714379256310929"><ele>1049.0</ele><time>2026-04-12T07:56:00.989Z</time></trkpt><trkpt lat="37.841013588508" lon="14.7142303437685"><ele>1047.0</ele><time>2026-04-12T07:56:01.989Z</time></trkpt><trkpt lat="37.84112170829397" lon="14.714127238264785"><ele>1045.0</ele><time>2026-04-12T07:56:02.989Z</time></trkpt><trkpt lat="37.8412444824546" lon="14.714044129423677"><ele>1049.5</ele><time>2026-04-12T07:56:03.989Z</time></trkpt><trkpt lat="37.84134882090765" lon="14.713940519306972"><ele>1054.0</ele><time>2026-04-12T07:56:04.988Z</time></trkpt><trkpt lat="37.84140973003231" lon="14.713798014999716"><ele>1058.5</ele><time>2026-04-12T07:56:05.988Z</time></trkpt><trkpt lat="37.841406463873" lon="14.713629764380054"><ele>1063.0</ele><time>2026-04-12T07:56:06.988Z</time></trkpt><trkpt lat="37.841352531833365" lon="14.713457780587913"><ele>1064.75</ele><time>2026-04-12T07:56:07.988Z</time></trkpt><trkpt lat="37.84127111222667" lon="14.71328886957329"><ele>1066.5</ele><time>2026-04-12T07:56:08.988Z</time></trkpt><trkpt lat="37.84122429071284" lon="14.713129878483358"><ele>1068.25</ele><time>2026-04-12T07:56:09.988Z</time></trkpt><trkpt lat="37.84123183267105" lon="14.71297775553816"><ele>1070.0</ele><time>2026-04-12T07:56:10.988Z</time></trkpt><trkpt lat="37.8412877049997" lon="14.71282766359099"><ele>1067.5</ele><time>2026-04-12T07:56:11.988Z</time></trkpt><trkpt lat="37.84137066564324" lon="14.712685905004056"><ele>1065.0</ele><time>2026-04-12T07:56:12.988Z</time></trkpt><trkpt lat="37.84146193922628" lon="14.712542893612865"><ele>1062.5</ele><time>2026-04-12T07:56:13.988Z</time></trkpt><trkpt lat="37.841557380807636" lon="14.712398742404897"><ele>1060.0</ele><time>2026-04-12T07:56:14.988Z</time></trkpt><trkpt lat="37.84165071922515" lon="14.712255869930226"><ele>1060.0</ele><time>2026-04-12T07:56:15.988Z</time></trkpt><trkpt lat="37.8417311389605" lon="14.712108859704058"><ele>1060.0</ele><time>2026-04-12T07:56:16.988Z</time></trkpt><trkpt lat="37.84180180849821" lon="14.711964727705444"><ele>1060.0</ele><time>2026-04-12T07:56:17.988Z</time></trkpt><trkpt lat="37.84180975979762" lon="14.711788314933441"><ele>1060.0</ele><time>2026-04-12T07:56:18.988Z</time></trkpt><trkpt lat="37.84179813959217" lon="14.711611262950214"><ele>1060.6</ele><time>2026-04-12T07:56:19.988Z</time></trkpt><trkpt lat="37.84178935965637" lon="14.711456587620805"><ele>1061.2</ele><time>2026-04-12T07:56:20.988Z</time></trkpt><trkpt lat="37.841781172161205" lon="14.71131234905665"><ele>1061.8</ele><time>2026-04-12T07:56:21.988Z</time></trkpt><trkpt lat="37.84176697836983" lon="14.711181057408295"><ele>1062.4</ele><time>2026-04-12T07:56:22.988Z</time></trkpt><trkpt lat="37.84178159463314" lon="14.711056302042604"><ele>1063.0</ele><time>2026-04-12T07:56:23.988Z</time></trkpt><trkpt lat="37.84181024064321" lon="14.710945415621197"><ele>1063.0</ele><time>2026-04-12T07:56:24.988Z</time></trkpt><trkpt lat="37.841861975898304" lon="14.710843062482637"><ele>1063.0</ele><time>2026-04-12T07:56:25.988Z</time></trkpt><trkpt lat="37.84192404525779" lon="14.710743315639233"><ele>1063.0</ele><time>2026-04-12T07:56:26.988Z</time></trkpt><trkpt lat="37.841992821092475" lon="14.710632661187704"><ele>1063.0</ele><time>2026-04-12T07:56:27.988Z</time></trkpt><trkpt lat="37.84206519273534" lon="14.710510758535907"><ele>1063.0</ele><time>2026-04-12T07:56:28.988Z</time></trkpt><trkpt lat="37.84213467194422" lon="14.710378044255268"><ele>1063.0</ele><time>2026-04-12T07:56:29.988Z</time></trkpt><trkpt lat="37.84219350552255" lon="14.710241663563478"><ele>1063.0</ele><time>2026-04-12T07:56:30.988Z</time></trkpt><trkpt lat="37.84225793497108" lon="14.71010885330461"><ele>1063.0</ele><time>2026-04-12T07:56:31.988Z</time></trkpt><trkpt lat="37.84232374030984" lon="14.70998168582411"><ele>1063.0</ele><time>2026-04-12T07:56:32.988Z</time></trkpt><trkpt lat="37.84239192695348" lon="14.709854646131152"><ele>1062.0</ele><time>2026-04-12T07:56:33.988Z</time></trkpt><trkpt lat="37.842474822520344" lon="14.709743529664351"><ele>1061.0</ele><time>2026-04-12T07:56:34.988Z</time></trkpt><trkpt lat="37.842502369260465" lon="14.709618809226246"><ele>1060.0</ele><time>2026-04-12T07:56:35.988Z</time></trkpt><trkpt lat="37.842545049867375" lon="14.709510261693488"><ele>1059.0</ele><time>2026-04-12T07:56:36.988Z</time></trkpt><trkpt lat="37.84258947775306" lon="14.709399861877227"><ele>1058.0</ele><time>2026-04-12T07:56:37.988Z</time></trkpt><trkpt lat="37.84262930090581" lon="14.709295959164033"><ele>1060.142857142857</ele><time>2026-04-12T07:56:38.988Z</time></trkpt><trkpt lat="37.842660838319524" lon="14.709208099482085"><ele>1062.2857142857142</ele><time>2026-04-12T07:56:39.987Z</time></trkpt><trkpt lat="37.84268041742207" lon="14.709126580088181"><ele>1064.4285714285713</ele><time>2026-04-12T07:56:40.987Z</time></trkpt><trkpt lat="37.84270867046273" lon="14.709050704823692"><ele>1066.5714285714284</ele><time>2026-04-12T07:56:41.987Z</time></trkpt><trkpt lat="37.842729601017794" lon="14.708968018637018"><ele>1068.7142857142856</ele><time>2026-04-12T07:56:42.987Z</time></trkpt><trkpt lat="37.84275024382812" lon="14.708884223685784"><ele>1070.857142857143</ele><time>2026-04-12T07:56:43.987Z</time></trkpt><trkpt lat="37.84276338032644" lon="14.708788143389835"><ele>1073.0</ele><time>2026-04-12T07:56:44.987Z</time></trkpt><trkpt lat="37.84276741631591" lon="14.708703703432857"><ele>1073.0</ele><time>2026-04-12T07:56:45.987Z</time></trkpt><trkpt lat="37.84277150551941" lon="14.708558064380046"><ele>1073.0</ele><time>2026-04-12T07:56:47.991Z</time></trkpt><trkpt lat="37.84274583591243" lon="14.708444539174524"><ele>1073.0</ele><time>2026-04-12T07:56:49.991Z</time></trkpt><trkpt lat="37.842738345235155" lon="14.708336221252349"><ele>1073.0</ele><time>2026-04-12T07:56:52.991Z</time></trkpt><trkpt lat="37.84266955044863" lon="14.708292581924466"><ele>1073.0</ele><time>2026-04-12T07:57:55.989Z</time></trkpt><trkpt lat="37.8426682764293" lon="14.708375254016685"><ele>1073.0</ele><time>2026-04-12T07:57:58.989Z</time></trkpt><trkpt lat="37.842691133692114" lon="14.708497042323268"><ele>1073.0</ele><time>2026-04-12T07:58:00.988Z</time></trkpt><trkpt lat="37.84270098545785" lon="14.70857719269251"><ele>1073.0</ele><time>2026-04-12T07:58:01.988Z</time></trkpt><trkpt lat="37.84271064785398" lon="14.708719281142297"><ele>1073.0</ele><time>2026-04-12T07:58:02.988Z</time></trkpt><trkpt lat="37.84270768016684" lon="14.708822655300176"><ele>1073.0</ele><time>2026-04-12T07:58:03.988Z</time></trkpt><trkpt lat="37.84271125793214" lon="14.708908895215876"><ele>1073.0</ele><time>2026-04-12T07:58:04.988Z</time></trkpt><trkpt lat="37.84270638726375" lon="14.709071596183637"><ele>1073.0</ele><time>2026-04-12T07:58:06.988Z</time></trkpt><trkpt lat="37.842707016733705" lon="14.709155646869961"><ele>1073.0</ele><time>2026-04-12T07:58:07.988Z</time></trkpt><trkpt lat="37.84269576163453" lon="14.709241117252578"><ele>1073.0</ele><time>2026-04-12T07:58:08.988Z</time></trkpt><trkpt lat="37.84267837130067" lon="14.709333024105723"><ele>1073.0</ele><time>2026-04-12T07:58:09.988Z</time></trkpt><trkpt lat="37.842594825935585" lon="14.70938514188238"><ele>1073.0</ele><time>2026-04-12T07:58:10.988Z</time></trkpt><trkpt lat="37.84258637235462" lon="14.709545701318406"><ele>1073.0</ele><time>2026-04-12T07:58:12.988Z</time></trkpt><trkpt lat="37.842547622636495" lon="14.709635080588622"><ele>1073.0</ele><time>2026-04-12T07:58:14.988Z</time></trkpt><trkpt lat="37.842674098171926" lon="14.709640660386185"><ele>1073.0</ele><time>2026-04-12T07:58:20.988Z</time></trkpt><trkpt lat="37.84261182743613" lon="14.709653548240727"><ele>1073.0</ele><time>2026-04-12T07:58:26.988Z</time></trkpt><trkpt lat="37.84254698729915" lon="14.709615953797192"><ele>1073.0</ele><time>2026-04-12T07:58:32.988Z</time></trkpt><trkpt lat="37.84258354088433" lon="14.709479136587243"><ele>1073.0</ele><time>2026-04-12T07:58:34.987Z</time></trkpt><trkpt lat="37.84263790393347" lon="14.709379468421014"><ele>1073.0</ele><time>2026-04-12T07:58:35.987Z</time></trkpt><trkpt lat="37.8428168112084" lon="14.709322719112548"><ele>1073.0</ele><time>2026-04-12T07:58:36.987Z</time></trkpt><trkpt lat="37.84270963175794" lon="14.709093979100773"><ele>1073.0</ele><time>2026-04-12T07:58:37.987Z</time></trkpt><trkpt lat="37.84272540963275" lon="14.708941589080057"><ele>1073.0</ele><time>2026-04-12T07:58:38.987Z</time></trkpt><trkpt lat="37.84272980105223" lon="14.708786672640276"><ele>1073.0</ele><time>2026-04-12T07:58:39.987Z</time></trkpt><trkpt lat="37.842717653007725" lon="14.708643600520759"><ele>1073.0</ele><time>2026-04-12T07:58:40.987Z</time></trkpt><trkpt lat="37.84270565797646" lon="14.708498449577878"><ele>1073.0</ele><time>2026-04-12T07:58:41.987Z</time></trkpt><trkpt lat="37.84268707864604" lon="14.708365895713928"><ele>1073.0</ele><time>2026-04-12T07:58:42.987Z</time></trkpt><trkpt lat="37.842672611009675" lon="14.708246252233959"><ele>1073.0</ele><time>2026-04-12T07:58:43.987Z</time></trkpt><trkpt lat="37.842680938413594" lon="14.708130147432048"><ele>1073.0</ele><time>2026-04-12T07:58:44.987Z</time></trkpt><trkpt lat="37.84270696583029" lon="14.708014610246838"><ele>1073.0</ele><time>2026-04-12T07:58:45.987Z</time></trkpt><trkpt lat="37.84275613283869" lon="14.707909201147654"><ele>1073.0</ele><time>2026-04-12T07:58:46.987Z</time></trkpt><trkpt lat="37.84282627517669" lon="14.70781548521223"><ele>1073.0</ele><time>2026-04-12T07:58:47.987Z</time></trkpt><trkpt lat="37.842914254742375" lon="14.707719586058543"><ele>1073.0</ele><time>2026-04-12T07:58:48.987Z</time></trkpt><trkpt lat="37.843016086737286" lon="14.707612044773128"><ele>1073.0</ele><time>2026-04-12T07:58:49.987Z</time></trkpt><trkpt lat="37.84311875678644" lon="14.707501613154836"><ele>1073.0</ele><time>2026-04-12T07:58:50.987Z</time></trkpt><trkpt lat="37.843210511349156" lon="14.707402799075028"><ele>1073.0</ele><time>2026-04-12T07:58:51.987Z</time></trkpt><trkpt lat="37.843287009118505" lon="14.707305755388136"><ele>1073.0</ele><time>2026-04-12T07:58:52.987Z</time></trkpt><trkpt lat="37.84332743508984" lon="14.707201958595249"><ele>1073.0</ele><time>2026-04-12T07:58:53.99Z</time></trkpt><trkpt lat="37.84331941827652" lon="14.70707648505566"><ele>1073.0</ele><time>2026-04-12T07:58:54.99Z</time></trkpt><trkpt lat="37.8432618622585" lon="14.706937256068663"><ele>1073.0</ele><time>2026-04-12T07:58:55.99Z</time></trkpt><trkpt lat="37.8431810056827" lon="14.706786291717389"><ele>1074.75</ele><time>2026-04-12T07:58:56.99Z</time></trkpt><trkpt lat="37.843082688592894" lon="14.706629907265512"><ele>1076.5</ele><time>2026-04-12T07:58:57.989Z</time></trkpt><trkpt lat="37.842985394127346" lon="14.706496962337024"><ele>1078.25</ele><time>2026-04-12T07:58:58.989Z</time></trkpt><trkpt lat="37.842904150985" lon="14.706377356840793"><ele>1080.0</ele><time>2026-04-12T07:58:59.99Z</time></trkpt><trkpt lat="37.842830978903315" lon="14.706257238574075"><ele>1080.0</ele><time>2026-04-12T07:59:00.99Z</time></trkpt><trkpt lat="37.84277212539219" lon="14.70612048976147"><ele>1080.0</ele><time>2026-04-12T07:59:01.99Z</time></trkpt><trkpt lat="37.842737463755725" lon="14.705955570538347"><ele>1080.0</ele><time>2026-04-12T07:59:02.99Z</time></trkpt><trkpt lat="37.842678831439116" lon="14.705813042248412"><ele>1080.0</ele><time>2026-04-12T07:59:03.99Z</time></trkpt><trkpt lat="37.842634193329225" lon="14.70567399524856"><ele>1080.5</ele><time>2026-04-12T07:59:04.99Z</time></trkpt><trkpt lat="37.84259645390901" lon="14.705537158147312"><ele>1081.0</ele><time>2026-04-12T07:59:05.99Z</time></trkpt><trkpt lat="37.84256505242735" lon="14.70540425096366"><ele>1081.5</ele><time>2026-04-12T07:59:06.989Z</time></trkpt><trkpt lat="37.8425390700448" lon="14.705297714875162"><ele>1082.0</ele><time>2026-04-12T07:59:07.989Z</time></trkpt><trkpt lat="37.84253469427169" lon="14.705206888508666"><ele>1082.5</ele><time>2026-04-12T07:59:08.989Z</time></trkpt><trkpt lat="37.84256740341804" lon="14.705136866610605"><ele>1083.0</ele><time>2026-04-12T07:59:09.989Z</time></trkpt><trkpt lat="37.84263643397305" lon="14.70509215671225"><ele>1084.2</ele><time>2026-04-12T07:59:10.989Z</time></trkpt><trkpt lat="37.8427272451465" lon="14.705090568342168"><ele>1085.4</ele><time>2026-04-12T07:59:11.989Z</time></trkpt><trkpt lat="37.84281238324518" lon="14.70514111750604"><ele>1086.6000000000001</ele><time>2026-04-12T07:59:12.989Z</time></trkpt><trkpt lat="37.842844755402595" lon="14.70528006193252"><ele>1087.8</ele><time>2026-04-12T07:59:13.989Z</time></trkpt><trkpt lat="37.84289383268551" lon="14.705418100263193"><ele>1089.0</ele><time>2026-04-12T07:59:14.989Z</time></trkpt><trkpt lat="37.84295596988488" lon="14.705571755696711"><ele>1089.0</ele><time>2026-04-12T07:59:15.989Z</time></trkpt><trkpt lat="37.84302705081111" lon="14.705722719210067"><ele>1089.0</ele><time>2026-04-12T07:59:16.989Z</time></trkpt><trkpt lat="37.84308976220458" lon="14.705854624125049"><ele>1089.0</ele><time>2026-04-12T07:59:17.989Z</time></trkpt><trkpt lat="37.84316338019316" lon="14.705958246537733"><ele>1089.0</ele><time>2026-04-12T07:59:18.989Z</time></trkpt><trkpt lat="37.84327521482408" lon="14.706019672385615"><ele>1089.0</ele><time>2026-04-12T07:59:19.989Z</time></trkpt><trkpt lat="37.843426279916905" lon="14.706065136604364"><ele>1089.0</ele><time>2026-04-12T07:59:20.989Z</time></trkpt><trkpt lat="37.843571527018184" lon="14.706119434006716"><ele>1089.0</ele><time>2026-04-12T07:59:21.989Z</time></trkpt><trkpt lat="37.843723451347856" lon="14.706186381239766"><ele>1090.25</ele><time>2026-04-12T07:59:22.989Z</time></trkpt><trkpt lat="37.843854295591676" lon="14.706248569554015"><ele>1091.5</ele><time>2026-04-12T07:59:23.989Z</time></trkpt><trkpt lat="37.84396788460826" lon="14.70630138721931"><ele>1092.75</ele><time>2026-04-12T07:59:24.989Z</time></trkpt><trkpt lat="37.84403897220214" lon="14.706415916073151"><ele>1094.0</ele><time>2026-04-12T07:59:25.989Z</time></trkpt><trkpt lat="37.84408923032927" lon="14.706543759278912"><ele>1094.0</ele><time>2026-04-12T07:59:26.989Z</time></trkpt><trkpt lat="37.844160782927915" lon="14.706676627611404"><ele>1094.0</ele><time>2026-04-12T07:59:27.989Z</time></trkpt><trkpt lat="37.84423592343717" lon="14.70681981495769"><ele>1094.0</ele><time>2026-04-12T07:59:28.989Z</time></trkpt><trkpt lat="37.844308002731225" lon="14.70695779805366"><ele>1094.0</ele><time>2026-04-12T07:59:29.989Z</time></trkpt><trkpt lat="37.8444018148247" lon="14.707103083163428"><ele>1099.0</ele><time>2026-04-12T07:59:30.989Z</time></trkpt><trkpt lat="37.84447425656485" lon="14.707255325193746"><ele>1104.0</ele><time>2026-04-12T07:59:31.989Z</time></trkpt><trkpt lat="37.844531646269004" lon="14.707414544276045"><ele>1109.0</ele><time>2026-04-12T07:59:32.989Z</time></trkpt><trkpt lat="37.84460154313878" lon="14.707581139979949"><ele>1114.0</ele><time>2026-04-12T07:59:33.989Z</time></trkpt><trkpt lat="37.84466946067951" lon="14.707732490004755"><ele>1113.0</ele><time>2026-04-12T07:59:34.989Z</time></trkpt><trkpt lat="37.844752130249596" lon="14.70787278466542"><ele>1112.0</ele><time>2026-04-12T07:59:35.989Z</time></trkpt><trkpt lat="37.844837275561126" lon="14.707998765668938"><ele>1111.0</ele><time>2026-04-12T07:59:36.989Z</time></trkpt><trkpt lat="37.84489740530901" lon="14.708125730366826"><ele>1110.0</ele><time>2026-04-12T07:59:37.989Z</time></trkpt><trkpt lat="37.844934364613025" lon="14.70827377731477"><ele>1110.0</ele><time>2026-04-12T07:59:38.988Z</time></trkpt><trkpt lat="37.844947759917936" lon="14.708442572461985"><ele>1110.0</ele><time>2026-04-12T07:59:39.988Z</time></trkpt><trkpt lat="37.844905975413965" lon="14.708617224702056"><ele>1110.0</ele><time>2026-04-12T07:59:40.988Z</time></trkpt><trkpt lat="37.844858549856355" lon="14.708776206791482"><ele>1110.0</ele><time>2026-04-12T07:59:41.988Z</time></trkpt><trkpt lat="37.84481037015369" lon="14.708930546162636"><ele>1111.0</ele><time>2026-04-12T07:59:42.988Z</time></trkpt><trkpt lat="37.84476791219186" lon="14.709062860403389"><ele>1112.0</ele><time>2026-04-12T07:59:43.988Z</time></trkpt><trkpt lat="37.8447451457386" lon="14.70919219779352"><ele>1113.0</ele><time>2026-04-12T07:59:44.988Z</time></trkpt><trkpt lat="37.84477231089126" lon="14.709310984961652"><ele>1114.0</ele><time>2026-04-12T07:59:45.988Z</time></trkpt><trkpt lat="37.844834114364524" lon="14.709389186871483"><ele>1115.0</ele><time>2026-04-12T07:59:46.988Z</time></trkpt><trkpt lat="37.84491284461001" lon="14.709425605074767"><ele>1115.8333333333335</ele><time>2026-04-12T07:59:47.988Z</time></trkpt><trkpt lat="37.84498286714334" lon="14.709468537742238"><ele>1116.6666666666667</ele><time>2026-04-12T07:59:48.988Z</time></trkpt><trkpt lat="37.845053129342695" lon="14.709517910749339"><ele>1117.5</ele><time>2026-04-12T07:59:49.988Z</time></trkpt><trkpt lat="37.84512367692001" lon="14.70958693557753"><ele>1118.3333333333333</ele><time>2026-04-12T07:59:50.988Z</time></trkpt><trkpt lat="37.84513348433308" lon="14.709699635697426"><ele>1119.1666666666665</ele><time>2026-04-12T07:59:51.988Z</time></trkpt><trkpt lat="37.84513423554425" lon="14.709810549308267"><ele>1120.0</ele><time>2026-04-12T07:59:52.988Z</time></trkpt><trkpt lat="37.84512011536763" lon="14.709934569434457"><ele>1120.0</ele><time>2026-04-12T07:59:53.988Z</time></trkpt><trkpt lat="37.84505733993091" lon="14.710058406666327"><ele>1120.0</ele><time>2026-04-12T07:59:54.988Z</time></trkpt><trkpt lat="37.844979625575505" lon="14.710183173486115"><ele>1120.0</ele><time>2026-04-12T07:59:55.988Z</time></trkpt><trkpt lat="37.8448997260724" lon="14.7103043901965"><ele>1120.0</ele><time>2026-04-12T07:59:56.988Z</time></trkpt><trkpt lat="37.84482761780875" lon="14.710412614198958"><ele>1120.4</ele><time>2026-04-12T07:59:57.988Z</time></trkpt><trkpt lat="37.84476133842031" lon="14.71051360785414"><ele>1120.8</ele><time>2026-04-12T07:59:58.988Z</time></trkpt><trkpt lat="37.84469815883465" lon="14.710626872873355"><ele>1121.2</ele><time>2026-04-12T07:59:59.988Z</time></trkpt><trkpt lat="37.84467473814292" lon="14.710748296018636"><ele>1121.6</ele><time>2026-04-12T08:00:00.988Z</time></trkpt><trkpt lat="37.844698772657054" lon="14.710870511538445"><ele>1122.0</ele><time>2026-04-12T08:00:01.988Z</time></trkpt><trkpt lat="37.84476466895484" lon="14.710976068198297"><ele>1122.0</ele><time>2026-04-12T08:00:02.988Z</time></trkpt><trkpt lat="37.84480276622484" lon="14.711057705893193"><ele>1122.0</ele><time>2026-04-12T08:00:03.988Z</time></trkpt><trkpt lat="37.84485622940738" lon="14.711174548155363"><ele>1122.0</ele><time>2026-04-12T08:00:05.988Z</time></trkpt><trkpt lat="37.84498741892118" lon="14.711125991679332"><ele>1122.0</ele><time>2026-04-12T08:00:11.988Z</time></trkpt><trkpt lat="37.84501496405539" lon="14.710993045448669"><ele>1122.0</ele><time>2026-04-12T08:00:13.987Z</time></trkpt><trkpt lat="37.84504287902292" lon="14.71091890797986"><ele>1122.0</ele><time>2026-04-12T08:00:14.987Z</time></trkpt><trkpt lat="37.84507069695749" lon="14.710815247846542"><ele>1122.0</ele><time>2026-04-12T08:00:15.987Z</time></trkpt><trkpt lat="37.84514140329247" lon="14.71068715957262"><ele>1122.0</ele><time>2026-04-12T08:00:16.987Z</time></trkpt><trkpt lat="37.84522646142899" lon="14.710556677469164"><ele>1122.0</ele><time>2026-04-12T08:00:17.987Z</time></trkpt><trkpt lat="37.84529749989581" lon="14.710432924622083"><ele>1125.75</ele><time>2026-04-12T08:00:18.987Z</time></trkpt><trkpt lat="37.84536015435182" lon="14.710301278912574"><ele>1129.5</ele><time>2026-04-12T08:00:19.987Z</time></trkpt><trkpt lat="37.84541225434778" lon="14.710168484282246"><ele>1133.25</ele><time>2026-04-12T08:00:20.987Z</time></trkpt><trkpt lat="37.845463625735924" lon="14.71003553001949"><ele>1137.0</ele><time>2026-04-12T08:00:21.987Z</time></trkpt><trkpt lat="37.84552416355405" lon="14.709917494967941"><ele>1137.0</ele><time>2026-04-12T08:00:22.987Z</time></trkpt><trkpt lat="37.84558266605773" lon="14.709804253827317"><ele>1137.0</ele><time>2026-04-12T08:00:23.987Z</time></trkpt><trkpt lat="37.84561907510962" lon="14.709674957151666"><ele>1137.0</ele><time>2026-04-12T08:00:24.987Z</time></trkpt><trkpt lat="37.84563095670659" lon="14.70953928776401"><ele>1137.0</ele><time>2026-04-12T08:00:25.987Z</time></trkpt><trkpt lat="37.84561923660186" lon="14.709404536454395"><ele>1137.0</ele><time>2026-04-12T08:00:26.987Z</time></trkpt><trkpt lat="37.84558855552529" lon="14.709279913874031"><ele>1138.4</ele><time>2026-04-12T08:00:27.987Z</time></trkpt><trkpt lat="37.84555728341703" lon="14.709159262957561"><ele>1139.8000000000002</ele><time>2026-04-12T08:00:28.987Z</time></trkpt><trkpt lat="37.84554457591712" lon="14.709039879156869"><ele>1141.2</ele><time>2026-04-12T08:00:29.987Z</time></trkpt><trkpt lat="37.84554183833985" lon="14.70892064182248"><ele>1142.6000000000001</ele><time>2026-04-12T08:00:30.987Z</time></trkpt><trkpt lat="37.84556303624871" lon="14.708807612619065"><ele>1144.0</ele><time>2026-04-12T08:00:31.987Z</time></trkpt><trkpt lat="37.84560914610289" lon="14.708683512909028"><ele>1143.5</ele><time>2026-04-12T08:00:32.987Z</time></trkpt><trkpt lat="37.845663064200615" lon="14.708554178425523"><ele>1143.0</ele><time>2026-04-12T08:00:33.987Z</time></trkpt><trkpt lat="37.84571611482174" lon="14.70840869412029"><ele>1142.5</ele><time>2026-04-12T08:00:34.987Z</time></trkpt><trkpt lat="37.84576561898822" lon="14.708259099875129"><ele>1142.0</ele><time>2026-04-12T08:00:35.987Z</time></trkpt><trkpt lat="37.845834134368864" lon="14.708116320201242"><ele>1142.0</ele><time>2026-04-12T08:00:36.987Z</time></trkpt><trkpt lat="37.84592087859747" lon="14.707963735207128"><ele>1142.0</ele><time>2026-04-12T08:00:37.987Z</time></trkpt><trkpt lat="37.84600328380305" lon="14.707810407608745"><ele>1142.0</ele><time>2026-04-12T08:00:38.987Z</time></trkpt><trkpt lat="37.84608073165518" lon="14.707650050738259"><ele>1142.0</ele><time>2026-04-12T08:00:39.987Z</time></trkpt><trkpt lat="37.84614382346478" lon="14.707481854671695"><ele>1153.3333333333335</ele><time>2026-04-12T08:00:40.987Z</time></trkpt><trkpt lat="37.8461704608365" lon="14.707309064202565"><ele>1164.6666666666667</ele><time>2026-04-12T08:00:41.987Z</time></trkpt><trkpt lat="37.846165878334325" lon="14.707112553918288"><ele>1176.0</ele><time>2026-04-12T08:00:42.987Z</time></trkpt><trkpt lat="37.8461420679511" lon="14.706918068917384"><ele>1177.25</ele><time>2026-04-12T08:00:43.987Z</time></trkpt><trkpt lat="37.846129122404676" lon="14.706745395329945"><ele>1178.5</ele><time>2026-04-12T08:00:44.987Z</time></trkpt><trkpt lat="37.846156472234256" lon="14.706597148421737"><ele>1179.75</ele><time>2026-04-12T08:00:45.987Z</time></trkpt><trkpt lat="37.846172991586116" lon="14.706467138096441"><ele>1181.0</ele><time>2026-04-12T08:00:46.987Z</time></trkpt><trkpt lat="37.84619929247242" lon="14.706345207144263"><ele>1181.0</ele><time>2026-04-12T08:00:47.986Z</time></trkpt><trkpt lat="37.84618074783519" lon="14.706213326469518"><ele>1181.0</ele><time>2026-04-12T08:00:48.986Z</time></trkpt><trkpt lat="37.84614507326477" lon="14.706065573553957"><ele>1181.0</ele><time>2026-04-12T08:00:49.986Z</time></trkpt><trkpt lat="37.84611406593637" lon="14.70590192333305"><ele>1181.0</ele><time>2026-04-12T08:00:50.986Z</time></trkpt><trkpt lat="37.84607229387793" lon="14.705756557203307"><ele>1181.8333333333335</ele><time>2026-04-12T08:00:51.986Z</time></trkpt><trkpt lat="37.84604676241606" lon="14.705624746097536"><ele>1182.6666666666667</ele><time>2026-04-12T08:00:52.986Z</time></trkpt><trkpt lat="37.846035909848446" lon="14.705505090601104"><ele>1183.5</ele><time>2026-04-12T08:00:53.986Z</time></trkpt><trkpt lat="37.84602426181625" lon="14.705400421126118"><ele>1184.3333333333333</ele><time>2026-04-12T08:00:54.986Z</time></trkpt><trkpt lat="37.846011415146066" lon="14.705307086360483"><ele>1185.1666666666665</ele><time>2026-04-12T08:00:55.986Z</time></trkpt><trkpt lat="37.84599280226661" lon="14.705211189363263"><ele>1186.0</ele><time>2026-04-12T08:00:56.986Z</time></trkpt><trkpt lat="37.84599540346938" lon="14.705088581977012"><ele>1186.0</ele><time>2026-04-12T08:00:57.986Z</time></trkpt><trkpt lat="37.84599964969116" lon="14.704938152190799"><ele>1186.0</ele><time>2026-04-12T08:00:58.986Z</time></trkpt><trkpt lat="37.84600114828679" lon="14.704790425044669"><ele>1186.0</ele><time>2026-04-12T08:00:59.989Z</time></trkpt><trkpt lat="37.846067567387514" lon="14.704661798674001"><ele>1186.0</ele><time>2026-04-12T08:01:00.989Z</time></trkpt><trkpt lat="37.84616241703659" lon="14.704535403058792"><ele>1183.75</ele><time>2026-04-12T08:01:01.989Z</time></trkpt><trkpt lat="37.84623380914158" lon="14.704398224629996"><ele>1181.5</ele><time>2026-04-12T08:01:02.989Z</time></trkpt><trkpt lat="37.84626353276488" lon="14.704251404497512"><ele>1179.25</ele><time>2026-04-12T08:01:03.989Z</time></trkpt><trkpt lat="37.846263635138904" lon="14.704091909069795"><ele>1177.0</ele><time>2026-04-12T08:01:04.989Z</time></trkpt><trkpt lat="37.846229919164685" lon="14.70392178076361"><ele>1177.0</ele><time>2026-04-12T08:01:05.989Z</time></trkpt><trkpt lat="37.84616681969914" lon="14.70378010644204"><ele>1177.0</ele><time>2026-04-12T08:01:06.99Z</time></trkpt><trkpt lat="37.84610892920994" lon="14.703665589676737"><ele>1177.0</ele><time>2026-04-12T08:01:07.99Z</time></trkpt><trkpt lat="37.84603538320886" lon="14.703557516261998"><ele>1177.0</ele><time>2026-04-12T08:01:08.989Z</time></trkpt><trkpt lat="37.84595985857853" lon="14.703464999926043"><ele>1178.0</ele><time>2026-04-12T08:01:09.989Z</time></trkpt><trkpt lat="37.84590536518439" lon="14.703381064758531"><ele>1179.0</ele><time>2026-04-12T08:01:10.989Z</time></trkpt><trkpt lat="37.845890559539825" lon="14.703266564447349"><ele>1180.0</ele><time>2026-04-12T08:01:11.989Z</time></trkpt><trkpt lat="37.84591073311908" lon="14.703130424986622"><ele>1181.0</ele><time>2026-04-12T08:01:12.989Z</time></trkpt><trkpt lat="37.84592894278003" lon="14.70299501283488"><ele>1182.0</ele><time>2026-04-12T08:01:13.989Z</time></trkpt><trkpt lat="37.84601748723207" lon="14.70286433634559"><ele>1179.5</ele><time>2026-04-12T08:01:14.989Z</time></trkpt><trkpt lat="37.846071965728925" lon="14.702709005128284"><ele>1177.0</ele><time>2026-04-12T08:01:15.988Z</time></trkpt><trkpt lat="37.846159854034696" lon="14.702548475239126"><ele>1174.5</ele><time>2026-04-12T08:01:16.988Z</time></trkpt><trkpt lat="37.846224637646415" lon="14.702391488937572"><ele>1172.0</ele><time>2026-04-12T08:01:17.988Z</time></trkpt><trkpt lat="37.84627571844428" lon="14.702236454960588"><ele>1172.0</ele><time>2026-04-12T08:01:18.988Z</time></trkpt><trkpt lat="37.84630450522973" lon="14.702072366085789"><ele>1172.0</ele><time>2026-04-12T08:01:19.988Z</time></trkpt><trkpt lat="37.846348423177915" lon="14.701924208008796"><ele>1172.0</ele><time>2026-04-12T08:01:20.988Z</time></trkpt><trkpt lat="37.846386382229184" lon="14.70179827559096"><ele>1172.0</ele><time>2026-04-12T08:01:21.988Z</time></trkpt><trkpt lat="37.84643158808314" lon="14.701694742572077"><ele>1170.0</ele><time>2026-04-12T08:01:22.988Z</time></trkpt><trkpt lat="37.84649445362453" lon="14.701604096282033"><ele>1168.0</ele><time>2026-04-12T08:01:23.988Z</time></trkpt><trkpt lat="37.846580096258144" lon="14.701507880110919"><ele>1166.0</ele><time>2026-04-12T08:01:24.988Z</time></trkpt><trkpt lat="37.84667226136367" lon="14.70141552613909"><ele>1164.0</ele><time>2026-04-12T08:01:25.988Z</time></trkpt><trkpt lat="37.84674742934985" lon="14.701287772343806"><ele>1164.5</ele><time>2026-04-12T08:01:26.988Z</time></trkpt><trkpt lat="37.84683037275796" lon="14.701147686340324"><ele>1165.0</ele><time>2026-04-12T08:01:27.988Z</time></trkpt><trkpt lat="37.846878604829925" lon="14.700987702713999"><ele>1165.5</ele><time>2026-04-12T08:01:28.988Z</time></trkpt><trkpt lat="37.84689632618206" lon="14.700827333402684"><ele>1166.0</ele><time>2026-04-12T08:01:29.988Z</time></trkpt><trkpt lat="37.84692121944092" lon="14.700692416311412"><ele>1166.0</ele><time>2026-04-12T08:01:30.988Z</time></trkpt><trkpt lat="37.84694279732536" lon="14.700580520132801"><ele>1166.0</ele><time>2026-04-12T08:01:31.988Z</time></trkpt><trkpt lat="37.846971922465926" lon="14.700474332372737"><ele>1166.0</ele><time>2026-04-12T08:01:32.988Z</time></trkpt><trkpt lat="37.847007850354636" lon="14.700389527312723"><ele>1166.0</ele><time>2026-04-12T08:01:33.988Z</time></trkpt><trkpt lat="37.84705152380967" lon="14.700297289561473"><ele>1166.0</ele><time>2026-04-12T08:01:34.988Z</time></trkpt><trkpt lat="37.84710573101883" lon="14.700195560479694"><ele>1166.0</ele><time>2026-04-12T08:01:35.988Z</time></trkpt><trkpt lat="37.84718008758812" lon="14.700099627744642"><ele>1165.75</ele><time>2026-04-12T08:01:36.988Z</time></trkpt><trkpt lat="37.84726330643213" lon="14.699997650860503"><ele>1165.5</ele><time>2026-04-12T08:01:37.988Z</time></trkpt><trkpt lat="37.84734754848513" lon="14.699896237029929"><ele>1165.25</ele><time>2026-04-12T08:01:38.988Z</time></trkpt><trkpt lat="37.84745939978624" lon="14.69984580370912"><ele>1165.0</ele><time>2026-04-12T08:01:39.988Z</time></trkpt><trkpt lat="37.847532773746394" lon="14.699760908552317"><ele>1165.0</ele><time>2026-04-12T08:01:40.988Z</time></trkpt><trkpt lat="37.84761539184872" lon="14.699718341773103"><ele>1165.0</ele><time>2026-04-12T08:01:41.988Z</time></trkpt><trkpt lat="37.847673754089" lon="14.699670818220511"><ele>1165.0</ele><time>2026-04-12T08:01:42.988Z</time></trkpt><trkpt lat="37.847732675544925" lon="14.699622839316213"><ele>1165.0</ele><time>2026-04-12T08:01:44.988Z</time></trkpt><trkpt lat="37.8477861831959" lon="14.699556279770293"><ele>1165.0</ele><time>2026-04-12T08:01:46.988Z</time></trkpt><trkpt lat="37.8478402623121" lon="14.6994955288857"><ele>1165.0</ele><time>2026-04-12T08:01:47.988Z</time></trkpt><trkpt lat="37.847905800210256" lon="14.699427647589294"><ele>1165.6</ele><time>2026-04-12T08:01:48.988Z</time></trkpt><trkpt lat="37.84800074304738" lon="14.699401541380428"><ele>1166.2</ele><time>2026-04-12T08:01:49.988Z</time></trkpt><trkpt lat="37.848083061136876" lon="14.699330358433137"><ele>1166.8</ele><time>2026-04-12T08:01:50.987Z</time></trkpt><trkpt lat="37.84817337823536" lon="14.69925225853882"><ele>1167.4</ele><time>2026-04-12T08:01:51.987Z</time></trkpt><trkpt lat="37.84825656692489" lon="14.6991817345016"><ele>1168.0</ele><time>2026-04-12T08:01:52.987Z</time></trkpt><trkpt lat="37.848344167477606" lon="14.699085179073622"><ele>1168.0</ele><time>2026-04-12T08:01:53.987Z</time></trkpt><trkpt lat="37.84844507644505" lon="14.699001936404443"><ele>1168.0</ele><time>2026-04-12T08:01:54.987Z</time></trkpt><trkpt lat="37.848551649348266" lon="14.698932714410574"><ele>1168.0</ele><time>2026-04-12T08:01:55.987Z</time></trkpt><trkpt lat="37.848668375490156" lon="14.698862687304755"><ele>1168.0</ele><time>2026-04-12T08:01:56.987Z</time></trkpt><trkpt lat="37.84876955545552" lon="14.698787494034233"><ele>1167.25</ele><time>2026-04-12T08:01:57.987Z</time></trkpt><trkpt lat="37.84888561008531" lon="14.698711324952702"><ele>1166.5</ele><time>2026-04-12T08:01:58.987Z</time></trkpt><trkpt lat="37.84900298985653" lon="14.69866728380371"><ele>1165.75</ele><time>2026-04-12T08:01:59.987Z</time></trkpt><trkpt lat="37.84911702264126" lon="14.698571517682494"><ele>1165.0</ele><time>2026-04-12T08:02:00.987Z</time></trkpt><trkpt lat="37.849231877981325" lon="14.69843858534669"><ele>1170.75</ele><time>2026-04-12T08:02:01.987Z</time></trkpt><trkpt lat="37.84932491213493" lon="14.698348567625517"><ele>1176.5</ele><time>2026-04-12T08:02:02.987Z</time></trkpt><trkpt lat="37.849437020095834" lon="14.698267336224474"><ele>1182.25</ele><time>2026-04-12T08:02:03.987Z</time></trkpt><trkpt lat="37.84955763202582" lon="14.698273564917974"><ele>1188.0</ele><time>2026-04-12T08:02:04.987Z</time></trkpt><trkpt lat="37.849686883657824" lon="14.698166384715321"><ele>1188.0</ele><time>2026-04-12T08:02:05.987Z</time></trkpt><trkpt lat="37.849805438314014" lon="14.698018260887356"><ele>1188.0</ele><time>2026-04-12T08:02:06.987Z</time></trkpt><trkpt lat="37.8499054693419" lon="14.697850926963126"><ele>1188.0</ele><time>2026-04-12T08:02:07.987Z</time></trkpt><trkpt lat="37.850022306320405" lon="14.697696518410561"><ele>1188.3333333333333</ele><time>2026-04-12T08:02:08.987Z</time></trkpt><trkpt lat="37.85013963717711" lon="14.697526863760693"><ele>1188.6666666666665</ele><time>2026-04-12T08:02:09.987Z</time></trkpt><trkpt lat="37.85023970949091" lon="14.69737974777741"><ele>1189.0</ele><time>2026-04-12T08:02:10.987Z</time></trkpt><trkpt lat="37.85035473632451" lon="14.697281637830454"><ele>1189.0</ele><time>2026-04-12T08:02:11.987Z</time></trkpt><trkpt lat="37.85044109821929" lon="14.697177969202862"><ele>1189.0</ele><time>2026-04-12T08:02:12.987Z</time></trkpt><trkpt lat="37.85049746012163" lon="14.697051276047146"><ele>1189.0</ele><time>2026-04-12T08:02:13.987Z</time></trkpt><trkpt lat="37.850635173102276" lon="14.696994808628457"><ele>1189.0</ele><time>2026-04-12T08:02:14.987Z</time></trkpt><trkpt lat="37.85082738138321" lon="14.697195417470995"><ele>1190.3333333333333</ele><time>2026-04-12T08:02:15.987Z</time></trkpt><trkpt lat="37.850974655040105" lon="14.697256911340125"><ele>1191.6666666666667</ele><time>2026-04-12T08:02:16.987Z</time></trkpt><trkpt lat="37.85112251906385" lon="14.697292283815292"><ele>1193.0</ele><time>2026-04-12T08:02:17.987Z</time></trkpt><trkpt lat="37.85127228888948" lon="14.697271891754026"><ele>1193.0</ele><time>2026-04-12T08:02:18.987Z</time></trkpt><trkpt lat="37.8514384214035" lon="14.697207891152484"><ele>1193.0</ele><time>2026-04-12T08:02:19.987Z</time></trkpt><trkpt lat="37.85159105413769" lon="14.69713569383583"><ele>1193.0</ele><time>2026-04-12T08:02:20.987Z</time></trkpt><trkpt lat="37.85173422930714" lon="14.697081952738824"><ele>1194.5</ele><time>2026-04-12T08:02:21.987Z</time></trkpt><trkpt lat="37.851873162468365" lon="14.697069905716752"><ele>1196.0</ele><time>2026-04-12T08:02:22.987Z</time></trkpt><trkpt lat="37.8520123621426" lon="14.697096945926182"><ele>1197.5</ele><time>2026-04-12T08:02:23.987Z</time></trkpt><trkpt lat="37.852153268806546" lon="14.697162339393996"><ele>1199.0</ele><time>2026-04-12T08:02:24.987Z</time></trkpt><trkpt lat="37.852299358983686" lon="14.69724041984852"><ele>1199.0</ele><time>2026-04-12T08:02:25.986Z</time></trkpt><trkpt lat="37.852434651895805" lon="14.697282507344758"><ele>1199.0</ele><time>2026-04-12T08:02:26.986Z</time></trkpt><trkpt lat="37.852548964129824" lon="14.69731218102744"><ele>1199.0</ele><time>2026-04-12T08:02:27.986Z</time></trkpt><trkpt lat="37.85266493322183" lon="14.697258684896566"><ele>1199.0</ele><time>2026-04-12T08:02:28.986Z</time></trkpt><trkpt lat="37.85274646158579" lon="14.697139733822425"><ele>1199.3333333333335</ele><time>2026-04-12T08:02:29.986Z</time></trkpt><trkpt lat="37.85278429563386" lon="14.69695794512324"><ele>1199.6666666666667</ele><time>2026-04-12T08:02:30.986Z</time></trkpt><trkpt lat="37.85280824632716" lon="14.69675399779018"><ele>1200.0</ele><time>2026-04-12T08:02:31.986Z</time></trkpt><trkpt lat="37.852844716577785" lon="14.696560560938915"><ele>1200.0</ele><time>2026-04-12T08:02:32.986Z</time></trkpt><trkpt lat="37.8528927034223" lon="14.696391413163859"><ele>1200.0</ele><time>2026-04-12T08:02:33.986Z</time></trkpt><trkpt lat="37.85294577996557" lon="14.69625842965536"><ele>1200.0</ele><time>2026-04-12T08:02:34.986Z</time></trkpt><trkpt lat="37.853020226943" lon="14.696164748588686"><ele>1200.0</ele><time>2026-04-12T08:02:35.986Z</time></trkpt><trkpt lat="37.8531132746617" lon="14.696145126475269"><ele>1200.0</ele><time>2026-04-12T08:02:36.986Z</time></trkpt><trkpt lat="37.85319787915953" lon="14.696209638206934"><ele>1200.0</ele><time>2026-04-12T08:02:37.986Z</time></trkpt><trkpt lat="37.85324370254772" lon="14.696337161801655"><ele>1200.0</ele><time>2026-04-12T08:02:38.986Z</time></trkpt><trkpt lat="37.853304084725124" lon="14.696477610214172"><ele>1200.0</ele><time>2026-04-12T08:02:39.986Z</time></trkpt><trkpt lat="37.85336838162152" lon="14.6966332503506"><ele>1200.0</ele><time>2026-04-12T08:02:40.986Z</time></trkpt><trkpt lat="37.85344232283483" lon="14.69678908277716"><ele>1200.0</ele><time>2026-04-12T08:02:41.986Z</time></trkpt><trkpt lat="37.85351392339176" lon="14.696945513184598"><ele>1200.0</ele><time>2026-04-12T08:02:42.986Z</time></trkpt><trkpt lat="37.85360097272018" lon="14.697097232881601"><ele>1200.0</ele><time>2026-04-12T08:02:43.986Z</time></trkpt><trkpt lat="37.853698474310946" lon="14.69723143965181"><ele>1203.3333333333333</ele><time>2026-04-12T08:02:44.986Z</time></trkpt><trkpt lat="37.853807667409306" lon="14.697360503927781"><ele>1206.6666666666665</ele><time>2026-04-12T08:02:45.986Z</time></trkpt><trkpt lat="37.85391752027911" lon="14.697491009287196"><ele>1210.0</ele><time>2026-04-12T08:02:46.986Z</time></trkpt><trkpt lat="37.8540263721066" lon="14.697622299183186"><ele>1210.0</ele><time>2026-04-12T08:02:47.986Z</time></trkpt><trkpt lat="37.854140733290805" lon="14.697736081531938"><ele>1210.0</ele><time>2026-04-12T08:02:48.986Z</time></trkpt><trkpt lat="37.85426695127802" lon="14.697828629186807"><ele>1210.0</ele><time>2026-04-12T08:02:49.986Z</time></trkpt><trkpt lat="37.85439474570182" lon="14.697916877589378"><ele>1210.0</ele><time>2026-04-12T08:02:50.986Z</time></trkpt><trkpt lat="37.85453185488178" lon="14.69797786095149"><ele>1214.5</ele><time>2026-04-12T08:02:51.986Z</time></trkpt><trkpt lat="37.854682833667184" lon="14.698000294958023"><ele>1219.0</ele><time>2026-04-12T08:02:52.986Z</time></trkpt><trkpt lat="37.85482696760348" lon="14.698005736016775"><ele>1223.5</ele><time>2026-04-12T08:02:53.986Z</time></trkpt><trkpt lat="37.85495032611797" lon="14.698015217608251"><ele>1228.0</ele><time>2026-04-12T08:02:54.986Z</time></trkpt><trkpt lat="37.85505275208954" lon="14.698051969451955"><ele>1227.25</ele><time>2026-04-12T08:02:55.986Z</time></trkpt><trkpt lat="37.855132676492545" lon="14.698144044961397"><ele>1226.5</ele><time>2026-04-12T08:02:56.986Z</time></trkpt><trkpt lat="37.85520117945514" lon="14.698267950713346"><ele>1225.75</ele><time>2026-04-12T08:02:57.986Z</time></trkpt><trkpt lat="37.85527901599285" lon="14.698379929460623"><ele>1225.0</ele><time>2026-04-12T08:02:58.986Z</time></trkpt><trkpt lat="37.85539601275397" lon="14.698431312731547"><ele>1225.0</ele><time>2026-04-12T08:02:59.985Z</time></trkpt><trkpt lat="37.85554255241992" lon="14.698445814058612"><ele>1225.0</ele><time>2026-04-12T08:03:00.985Z</time></trkpt><trkpt lat="37.85569527360944" lon="14.698447836440014"><ele>1225.0</ele><time>2026-04-12T08:03:01.985Z</time></trkpt><trkpt lat="37.85584287811804" lon="14.698458702476264"><ele>1225.0</ele><time>2026-04-12T08:03:02.985Z</time></trkpt><trkpt lat="37.855986977041006" lon="14.698464192051619"><ele>1226.0</ele><time>2026-04-12T08:03:03.985Z</time></trkpt><trkpt lat="37.85613735095778" lon="14.698442456744308"><ele>1227.0</ele><time>2026-04-12T08:03:04.985Z</time></trkpt><trkpt lat="37.856284356559165" lon="14.698377288775532"><ele>1228.0</ele><time>2026-04-12T08:03:05.988Z</time></trkpt><trkpt lat="37.856421453078" lon="14.698288388206066"><ele>1228.0</ele><time>2026-04-12T08:03:06.989Z</time></trkpt><trkpt lat="37.85655787401748" lon="14.698214813655781"><ele>1228.0</ele><time>2026-04-12T08:03:07.989Z</time></trkpt><trkpt lat="37.85668521385054" lon="14.698144536112565"><ele>1228.0</ele><time>2026-04-12T08:03:08.989Z</time></trkpt><trkpt lat="37.85679587322842" lon="14.698073978028042"><ele>1228.0</ele><time>2026-04-12T08:03:09.988Z</time></trkpt><trkpt lat="37.85688092280631" lon="14.697958768983346"><ele>1229.25</ele><time>2026-04-12T08:03:10.988Z</time></trkpt><trkpt lat="37.856928634890984" lon="14.697803541416166"><ele>1230.5</ele><time>2026-04-12T08:03:11.989Z</time></trkpt><trkpt lat="37.85694428817496" lon="14.697645572894203"><ele>1231.75</ele><time>2026-04-12T08:03:12.988Z</time></trkpt><trkpt lat="37.85698318247608" lon="14.697510928945016"><ele>1233.0</ele><time>2026-04-12T08:03:13.988Z</time></trkpt><trkpt lat="37.85703508595428" lon="14.6973863267502"><ele>1233.0</ele><time>2026-04-12T08:03:14.988Z</time></trkpt><trkpt lat="37.857151699841374" lon="14.697324716295023"><ele>1233.0</ele><time>2026-04-12T08:03:15.989Z</time></trkpt><trkpt lat="37.857278623965904" lon="14.697254355388141"><ele>1233.0</ele><time>2026-04-12T08:03:16.989Z</time></trkpt><trkpt lat="37.857409926449925" lon="14.697172293516608"><ele>1233.0</ele><time>2026-04-12T08:03:17.988Z</time></trkpt><trkpt lat="37.85752316981202" lon="14.697078560452045"><ele>1235.5</ele><time>2026-04-12T08:03:18.988Z</time></trkpt><trkpt lat="37.85763687849404" lon="14.696992077313235"><ele>1238.0</ele><time>2026-04-12T08:03:19.988Z</time></trkpt><trkpt lat="37.85772470969281" lon="14.696851438903842"><ele>1240.5</ele><time>2026-04-12T08:03:20.988Z</time></trkpt><trkpt lat="37.85778865941643" lon="14.69668160757551"><ele>1243.0</ele><time>2026-04-12T08:03:21.988Z</time></trkpt><trkpt lat="37.85783089484746" lon="14.696487241890335"><ele>1243.0</ele><time>2026-04-12T08:03:22.988Z</time></trkpt><trkpt lat="37.857882039076806" lon="14.69630177452839"><ele>1243.0</ele><time>2026-04-12T08:03:23.988Z</time></trkpt><trkpt lat="37.85793185145088" lon="14.696127702969143"><ele>1243.0</ele><time>2026-04-12T08:03:24.988Z</time></trkpt><trkpt lat="37.857978890431404" lon="14.69595896140962"><ele>1243.0</ele><time>2026-04-12T08:03:25.988Z</time></trkpt><trkpt lat="37.85803710511221" lon="14.695802771964534"><ele>1239.75</ele><time>2026-04-12T08:03:26.988Z</time></trkpt><trkpt lat="37.858082728339184" lon="14.695648591848078"><ele>1236.5</ele><time>2026-04-12T08:03:27.988Z</time></trkpt><trkpt lat="37.85814144463121" lon="14.695539535396083"><ele>1233.25</ele><time>2026-04-12T08:03:28.988Z</time></trkpt><trkpt lat="37.85822945768537" lon="14.695446701789372"><ele>1230.0</ele><time>2026-04-12T08:03:29.988Z</time></trkpt><trkpt lat="37.85834455461013" lon="14.695397478086145"><ele>1228.25</ele><time>2026-04-12T08:03:30.988Z</time></trkpt><trkpt lat="37.858479858843154" lon="14.6953371100509"><ele>1226.5</ele><time>2026-04-12T08:03:31.987Z</time></trkpt><trkpt lat="37.85860823104489" lon="14.695229763932947"><ele>1224.75</ele><time>2026-04-12T08:03:32.987Z</time></trkpt><trkpt lat="37.85868860282648" lon="14.695082346182778"><ele>1223.0</ele><time>2026-04-12T08:03:33.987Z</time></trkpt><trkpt lat="37.85877000543851" lon="14.694931347168442"><ele>1223.0</ele><time>2026-04-12T08:03:34.987Z</time></trkpt><trkpt lat="37.85886946642501" lon="14.694790635705914"><ele>1223.0</ele><time>2026-04-12T08:03:35.987Z</time></trkpt><trkpt lat="37.85900097653073" lon="14.694699150811395"><ele>1223.0</ele><time>2026-04-12T08:03:36.987Z</time></trkpt><trkpt lat="37.85914538008063" lon="14.694637674219154"><ele>1225.3333333333335</ele><time>2026-04-12T08:03:37.987Z</time></trkpt><trkpt lat="37.85929238649712" lon="14.69457027867565"><ele>1227.6666666666667</ele><time>2026-04-12T08:03:38.987Z</time></trkpt><trkpt lat="37.859438953885885" lon="14.69448951785539"><ele>1230.0</ele><time>2026-04-12T08:03:39.987Z</time></trkpt><trkpt lat="37.85959267774677" lon="14.69442197624472"><ele>1220.0</ele><time>2026-04-12T08:03:40.987Z</time></trkpt><trkpt lat="37.85974772901142" lon="14.694360202601967"><ele>1210.0</ele><time>2026-04-12T08:03:41.987Z</time></trkpt><trkpt lat="37.85989880706225" lon="14.694308959164033"><ele>1200.0</ele><time>2026-04-12T08:03:42.987Z</time></trkpt><trkpt lat="37.86004757659786" lon="14.694272579960883"><ele>1201.0</ele><time>2026-04-12T08:03:43.987Z</time></trkpt><trkpt lat="37.860191092655946" lon="14.694278882066449"><ele>1202.0</ele><time>2026-04-12T08:03:44.987Z</time></trkpt><trkpt lat="37.86033653372946" lon="14.694290571264547"><ele>1203.0</ele><time>2026-04-12T08:03:45.987Z</time></trkpt><trkpt lat="37.86048421493872" lon="14.694258093427006"><ele>1204.0</ele><time>2026-04-12T08:03:46.987Z</time></trkpt><trkpt lat="37.86063102988937" lon="14.694179090355997"><ele>1204.0</ele><time>2026-04-12T08:03:47.987Z</time></trkpt><trkpt lat="37.860771419385316" lon="14.694072691331018"><ele>1204.0</ele><time>2026-04-12T08:03:48.987Z</time></trkpt><trkpt lat="37.86093446638126" lon="14.694000043591263"><ele>1204.0</ele><time>2026-04-12T08:03:49.987Z</time></trkpt><trkpt lat="37.86109521808356" lon="14.693975841131957"><ele>1203.0</ele><time>2026-04-12T08:03:50.987Z</time></trkpt><trkpt lat="37.86125593906026" lon="14.693999704621417"><ele>1202.0</ele><time>2026-04-12T08:03:51.987Z</time></trkpt><trkpt lat="37.86140436856934" lon="14.69406357547568"><ele>1201.0</ele><time>2026-04-12T08:03:52.987Z</time></trkpt><trkpt lat="37.86154588724126" lon="14.694129841366667"><ele>1201.0</ele><time>2026-04-12T08:03:53.987Z</time></trkpt><trkpt lat="37.86168822379431" lon="14.69419190303206"><ele>1201.0</ele><time>2026-04-12T08:03:54.987Z</time></trkpt><trkpt lat="37.86183896691275" lon="14.694205044467342"><ele>1201.0</ele><time>2026-04-12T08:03:55.987Z</time></trkpt><trkpt lat="37.861988752326205" lon="14.694155928393632"><ele>1200.25</ele><time>2026-04-12T08:03:56.987Z</time></trkpt><trkpt lat="37.86212499179175" lon="14.694072206042161"><ele>1199.5</ele><time>2026-04-12T08:03:57.987Z</time></trkpt><trkpt lat="37.86226857301651" lon="14.694030148811143"><ele>1198.75</ele><time>2026-04-12T08:03:58.987Z</time></trkpt><trkpt lat="37.86239601183564" lon="14.694034264449456"><ele>1198.0</ele><time>2026-04-12T08:03:59.987Z</time></trkpt><trkpt lat="37.862512467845534" lon="14.694041188213784"><ele>1199.5</ele><time>2026-04-12T08:04:00.987Z</time></trkpt><trkpt lat="37.862622705907434" lon="14.694018901375589"><ele>1201.0</ele><time>2026-04-12T08:04:01.987Z</time></trkpt><trkpt lat="37.862702552704775" lon="14.693913600541519"><ele>1202.5</ele><time>2026-04-12T08:04:02.987Z</time></trkpt><trkpt lat="37.862745785557046" lon="14.69376834589924"><ele>1204.0</ele><time>2026-04-12T08:04:03.987Z</time></trkpt><trkpt lat="37.86273355595995" lon="14.693577335616721"><ele>1204.0</ele><time>2026-04-12T08:04:04.987Z</time></trkpt><trkpt lat="37.862722206315325" lon="14.693367123438051"><ele>1204.0</ele><time>2026-04-12T08:04:05.986Z</time></trkpt><trkpt lat="37.86271744731998" lon="14.69316911153589"><ele>1204.0</ele><time>2026-04-12T08:04:06.986Z</time></trkpt><trkpt lat="37.862723680755735" lon="14.692971725979119"><ele>1204.0</ele><time>2026-04-12T08:04:07.986Z</time></trkpt><trkpt lat="37.862730457124364" lon="14.692775519549187"><ele>1204.0</ele><time>2026-04-12T08:04:08.986Z</time></trkpt><trkpt lat="37.8627358991284" lon="14.69259095558937"><ele>1204.0</ele><time>2026-04-12T08:04:09.986Z</time></trkpt><trkpt lat="37.86275686397554" lon="14.692435273915244"><ele>1204.0</ele><time>2026-04-12T08:04:10.986Z</time></trkpt><trkpt lat="37.86281988155309" lon="14.69231467754161"><ele>1200.5</ele><time>2026-04-12T08:04:11.986Z</time></trkpt><trkpt lat="37.86292746350928" lon="14.692239099860938"><ele>1197.0</ele><time>2026-04-12T08:04:12.986Z</time></trkpt><trkpt lat="37.86306079898097" lon="14.692220995576758"><ele>1193.5</ele><time>2026-04-12T08:04:13.986Z</time></trkpt><trkpt lat="37.863207406660315" lon="14.692218515779716"><ele>1190.0</ele><time>2026-04-12T08:04:14.986Z</time></trkpt><trkpt lat="37.863365592577075" lon="14.692208810215124"><ele>1187.6666666666667</ele><time>2026-04-12T08:04:15.986Z</time></trkpt><trkpt lat="37.863522694870724" lon="14.692185686184883"><ele>1185.3333333333333</ele><time>2026-04-12T08:04:16.986Z</time></trkpt><trkpt lat="37.86367655547401" lon="14.692178884135439"><ele>1183.0</ele><time>2026-04-12T08:04:17.986Z</time></trkpt><trkpt lat="37.86381809252195" lon="14.692206717395916"><ele>1183.0</ele><time>2026-04-12T08:04:18.986Z</time></trkpt><trkpt lat="37.863941484969715" lon="14.69229027728851"><ele>1183.0</ele><time>2026-04-12T08:04:19.986Z</time></trkpt><trkpt lat="37.864084756414904" lon="14.692368200184431"><ele>1183.0</ele><time>2026-04-12T08:04:20.986Z</time></trkpt><trkpt lat="37.86422657468599" lon="14.692422834463502"><ele>1183.0</ele><time>2026-04-12T08:04:21.986Z</time></trkpt><trkpt lat="37.86434594034291" lon="14.692501674541305"><ele>1185.0</ele><time>2026-04-12T08:04:22.986Z</time></trkpt><trkpt lat="37.86446127945848" lon="14.69253000707415"><ele>1187.0</ele><time>2026-04-12T08:04:23.986Z</time></trkpt><trkpt lat="37.864571925137085" lon="14.692476583080612"><ele>1189.0</ele><time>2026-04-12T08:04:24.986Z</time></trkpt><trkpt lat="37.86465077552041" lon="14.692365012608334"><ele>1191.0</ele><time>2026-04-12T08:04:25.986Z</time></trkpt><trkpt lat="37.864687077992635" lon="14.692220543765504"><ele>1191.0</ele><time>2026-04-12T08:04:26.986Z</time></trkpt><trkpt lat="37.86470323614604" lon="14.692044441974522"><ele>1191.0</ele><time>2026-04-12T08:04:27.986Z</time></trkpt><trkpt lat="37.86471863277761" lon="14.691865792250349"><ele>1191.0</ele><time>2026-04-12T08:04:28.986Z</time></trkpt><trkpt lat="37.86474969763149" lon="14.69168652971405"><ele>1191.0</ele><time>2026-04-12T08:04:29.986Z</time></trkpt><trkpt lat="37.864795075701224" lon="14.6915095890768"><ele>1191.75</ele><time>2026-04-12T08:04:30.986Z</time></trkpt><trkpt lat="37.864858598867926" lon="14.691339844404748"><ele>1192.5</ele><time>2026-04-12T08:04:31.986Z</time></trkpt><trkpt lat="37.86496048705218" lon="14.691203585595662"><ele>1193.25</ele><time>2026-04-12T08:04:32.986Z</time></trkpt><trkpt lat="37.86505752405421" lon="14.691059563937749"><ele>1194.0</ele><time>2026-04-12T08:04:33.986Z</time></trkpt><trkpt lat="37.86513929811568" lon="14.690908316001805"><ele>1194.0</ele><time>2026-04-12T08:04:34.986Z</time></trkpt><trkpt lat="37.86524313483257" lon="14.690806972791115"><ele>1194.0</ele><time>2026-04-12T08:04:35.986Z</time></trkpt><trkpt lat="37.86537759314947" lon="14.690752420228145"><ele>1194.0</ele><time>2026-04-12T08:04:36.986Z</time></trkpt><trkpt lat="37.865537549940186" lon="14.690715119500426"><ele>1194.0</ele><time>2026-04-12T08:04:37.986Z</time></trkpt><trkpt lat="37.865686988802615" lon="14.690680616592159"><ele>1194.0</ele><time>2026-04-12T08:04:38.986Z</time></trkpt><trkpt lat="37.86584283737411" lon="14.690643174761785"><ele>1194.0</ele><time>2026-04-12T08:04:39.986Z</time></trkpt><trkpt lat="37.86599887663517" lon="14.690594023291508"><ele>1194.0</ele><time>2026-04-12T08:04:40.985Z</time></trkpt><trkpt lat="37.86615139322051" lon="14.690511037395032"><ele>1195.0</ele><time>2026-04-12T08:04:41.985Z</time></trkpt><trkpt lat="37.866298394077575" lon="14.690399889226054"><ele>1196.0</ele><time>2026-04-12T08:04:42.985Z</time></trkpt><trkpt lat="37.86644156493789" lon="14.690285871873153"><ele>1197.0</ele><time>2026-04-12T08:04:43.985Z</time></trkpt><trkpt lat="37.86657372839681" lon="14.690180844308355"><ele>1197.0</ele><time>2026-04-12T08:04:44.985Z</time></trkpt><trkpt lat="37.86670100900674" lon="14.690081548067175"><ele>1197.0</ele><time>2026-04-12T08:04:45.985Z</time></trkpt><trkpt lat="37.86679705894951" lon="14.689907313764747"><ele>1197.0</ele><time>2026-04-12T08:04:46.985Z</time></trkpt><trkpt lat="37.86683601441917" lon="14.689685053717552"><ele>1202.0</ele><time>2026-04-12T08:04:47.985Z</time></trkpt><trkpt lat="37.86686928157174" lon="14.689467130856634"><ele>1207.0</ele><time>2026-04-12T08:04:48.985Z</time></trkpt><trkpt lat="37.86689214538136" lon="14.68927474553845"><ele>1212.0</ele><time>2026-04-12T08:04:49.985Z</time></trkpt><trkpt lat="37.86689993182351" lon="14.689104702654797"><ele>1212.0</ele><time>2026-04-12T08:04:50.985Z</time></trkpt><trkpt lat="37.86693079714096" lon="14.688940464772758"><ele>1212.0</ele><time>2026-04-12T08:04:51.985Z</time></trkpt><trkpt lat="37.866989706407345" lon="14.688792262646828"><ele>1212.0</ele><time>2026-04-12T08:04:52.985Z</time></trkpt><trkpt lat="37.86709517030944" lon="14.688688871718128"><ele>1212.0</ele><time>2026-04-12T08:04:53.985Z</time></trkpt><trkpt lat="37.867228435979435" lon="14.688599609145962"><ele>1210.0</ele><time>2026-04-12T08:04:54.985Z</time></trkpt><trkpt lat="37.8673731592873" lon="14.688506963817623"><ele>1208.0</ele><time>2026-04-12T08:04:55.985Z</time></trkpt><trkpt lat="37.86751064681526" lon="14.688409781979813"><ele>1206.0</ele><time>2026-04-12T08:04:56.985Z</time></trkpt><trkpt lat="37.86763063115553" lon="14.688322445790881"><ele>1210.25</ele><time>2026-04-12T08:04:57.985Z</time></trkpt><trkpt lat="37.86772640369691" lon="14.688225338098398"><ele>1214.5</ele><time>2026-04-12T08:04:58.985Z</time></trkpt><trkpt lat="37.86777521484717" lon="14.68810347651069"><ele>1218.75</ele><time>2026-04-12T08:04:59.985Z</time></trkpt><trkpt lat="37.86776832592305" lon="14.687966089519664"><ele>1223.0</ele><time>2026-04-12T08:05:00.985Z</time></trkpt><trkpt lat="37.8677169815938" lon="14.687825226529736"><ele>1223.5</ele><time>2026-04-12T08:05:01.985Z</time></trkpt><trkpt lat="37.86766203601229" lon="14.687667225603667"><ele>1224.0</ele><time>2026-04-12T08:05:02.985Z</time></trkpt><trkpt lat="37.8676102899684" lon="14.687514026384374"><ele>1224.5</ele><time>2026-04-12T08:05:03.985Z</time></trkpt><trkpt lat="37.86756540548069" lon="14.68737026888869"><ele>1225.0</ele><time>2026-04-12T08:05:04.985Z</time></trkpt><trkpt lat="37.86753072841013" lon="14.687241790524178"><ele>1225.0</ele><time>2026-04-12T08:05:05.985Z</time></trkpt><trkpt lat="37.86756365733935" lon="14.687102640692467"><ele>1225.0</ele><time>2026-04-12T08:05:06.985Z</time></trkpt><trkpt lat="37.867623513276406" lon="14.68696211966022"><ele>1225.0</ele><time>2026-04-12T08:05:07.985Z</time></trkpt><trkpt lat="37.8676933019353" lon="14.686820072099929"><ele>1225.0</ele><time>2026-04-12T08:05:08.985Z</time></trkpt><trkpt lat="37.867764296768826" lon="14.686671172044578"><ele>1225.25</ele><time>2026-04-12T08:05:09.985Z</time></trkpt><trkpt lat="37.867832865141445" lon="14.68652227440215"><ele>1225.5</ele><time>2026-04-12T08:05:10.985Z</time></trkpt><trkpt lat="37.86789887001644" lon="14.686383112938902"><ele>1225.75</ele><time>2026-04-12T08:05:11.988Z</time></trkpt><trkpt lat="37.86796413378536" lon="14.68625570215779"><ele>1226.0</ele><time>2026-04-12T08:05:12.987Z</time></trkpt><trkpt lat="37.86804216949991" lon="14.68614574502492"><ele>1225.6</ele><time>2026-04-12T08:05:13.987Z</time></trkpt><trkpt lat="37.86814048674124" lon="14.686057957784758"><ele>1225.1999999999998</ele><time>2026-04-12T08:05:14.988Z</time></trkpt><trkpt lat="37.86821425350043" lon="14.685968635393843"><ele>1224.8000000000002</ele><time>2026-04-12T08:05:15.987Z</time></trkpt><trkpt lat="37.86824367910184" lon="14.685845850613187"><ele>1224.4</ele><time>2026-04-12T08:05:16.987Z</time></trkpt><trkpt lat="37.86823131339832" lon="14.68569930868677"><ele>1224.0</ele><time>2026-04-12T08:05:17.988Z</time></trkpt><trkpt lat="37.86815464078653" lon="14.685538119261121"><ele>1224.0</ele><time>2026-04-12T08:05:18.987Z</time></trkpt><trkpt lat="37.86804599568515" lon="14.685406579939437"><ele>1224.0</ele><time>2026-04-12T08:05:19.987Z</time></trkpt><trkpt lat="37.86795154784229" lon="14.685295787799634"><ele>1224.0</ele><time>2026-04-12T08:05:20.988Z</time></trkpt><trkpt lat="37.867881719821774" lon="14.685196851503852"><ele>1224.0</ele><time>2026-04-12T08:05:21.987Z</time></trkpt><trkpt lat="37.86784573158033" lon="14.685099153229837"><ele>1224.4</ele><time>2026-04-12T08:05:22.987Z</time></trkpt><trkpt lat="37.867891485184245" lon="14.684981350081427"><ele>1224.8000000000002</ele><time>2026-04-12T08:05:23.988Z</time></trkpt><trkpt lat="37.867979443964025" lon="14.684894041370452"><ele>1225.1999999999998</ele><time>2026-04-12T08:05:24.987Z</time></trkpt><trkpt lat="37.868075885831296" lon="14.684823449114543"><ele>1225.6</ele><time>2026-04-12T08:05:25.987Z</time></trkpt><trkpt lat="37.868167408416504" lon="14.684751751719695"><ele>1226.0</ele><time>2026-04-12T08:05:26.987Z</time></trkpt><trkpt lat="37.86825568166106" lon="14.684674244146862"><ele>1226.0</ele><time>2026-04-12T08:05:27.987Z</time></trkpt><trkpt lat="37.86834824994284" lon="14.68460003097439"><ele>1226.0</ele><time>2026-04-12T08:05:28.987Z</time></trkpt><trkpt lat="37.86842864715019" lon="14.68452373168501"><ele>1226.0</ele><time>2026-04-12T08:05:29.987Z</time></trkpt><trkpt lat="37.86850647063581" lon="14.684463193122728"><ele>1226.0</ele><time>2026-04-12T08:05:30.987Z</time></trkpt><trkpt lat="37.8685776612851" lon="14.684405178555272"><ele>1226.0</ele><time>2026-04-12T08:05:31.987Z</time></trkpt><trkpt lat="37.86863933444718" lon="14.684356570706742"><ele>1226.0</ele><time>2026-04-12T08:05:32.987Z</time></trkpt><trkpt lat="37.86872966992759" lon="14.684276605641518"><ele>1226.0</ele><time>2026-04-12T08:05:34.987Z</time></trkpt><trkpt lat="37.868782312470245" lon="14.684177952434515"><ele>1226.0</ele><time>2026-04-12T08:05:36.987Z</time></trkpt><trkpt lat="37.86884886453894" lon="14.684121642243001"><ele>1226.0</ele><time>2026-04-12T08:05:39.987Z</time></trkpt><trkpt lat="37.86880949248662" lon="14.684016323880732"><ele>1226.0</ele><time>2026-04-12T08:05:40.987Z</time></trkpt><trkpt lat="37.8688172851976" lon="14.683925631971643"><ele>1226.0</ele><time>2026-04-12T08:05:43.987Z</time></trkpt><trkpt lat="37.86881277585475" lon="14.683823748152738"><ele>1226.0</ele><time>2026-04-12T08:05:58.986Z</time></trkpt><trkpt lat="37.86883453856304" lon="14.683683901307385"><ele>1226.0</ele><time>2026-04-12T08:06:00.986Z</time></trkpt><trkpt lat="37.86885579824673" lon="14.683599398035458"><ele>1226.0</ele><time>2026-04-12T08:06:01.986Z</time></trkpt><trkpt lat="37.86889760367774" lon="14.68351768694498"><ele>1226.0</ele><time>2026-04-12T08:06:02.986Z</time></trkpt><trkpt lat="37.86895863971389" lon="14.683443880094776"><ele>1226.0</ele><time>2026-04-12T08:06:03.986Z</time></trkpt><trkpt lat="37.86903451638284" lon="14.683383633693992"><ele>1226.0</ele><time>2026-04-12T08:06:04.986Z</time></trkpt><trkpt lat="37.86911886605028" lon="14.683328377977485"><ele>1227.75</ele><time>2026-04-12T08:06:05.986Z</time></trkpt><trkpt lat="37.86921877972932" lon="14.683285694458402"><ele>1229.5</ele><time>2026-04-12T08:06:06.986Z</time></trkpt><trkpt lat="37.869321644280106" lon="14.683236476198264"><ele>1231.25</ele><time>2026-04-12T08:06:07.986Z</time></trkpt><trkpt lat="37.86943223181439" lon="14.683179838853428"><ele>1233.0</ele><time>2026-04-12T08:06:08.986Z</time></trkpt><trkpt lat="37.86955469938991" lon="14.683116574589224"><ele>1233.0</ele><time>2026-04-12T08:06:09.986Z</time></trkpt><trkpt lat="37.86968179962318" lon="14.683045111680322"><ele>1233.0</ele><time>2026-04-12T08:06:10.986Z</time></trkpt><trkpt lat="37.86979656400882" lon="14.682961804189155"><ele>1233.0</ele><time>2026-04-12T08:06:11.986Z</time></trkpt><trkpt lat="37.86990693947614" lon="14.682851808981898"><ele>1233.0</ele><time>2026-04-12T08:06:12.986Z</time></trkpt><trkpt lat="37.87001746679276" lon="14.682736158394336"><ele>1234.0</ele><time>2026-04-12T08:06:13.986Z</time></trkpt><trkpt lat="37.87013774429712" lon="14.682607871044741"><ele>1235.0</ele><time>2026-04-12T08:06:14.986Z</time></trkpt><trkpt lat="37.87026411989654" lon="14.682488756276742"><ele>1236.0</ele><time>2026-04-12T08:06:15.986Z</time></trkpt><trkpt lat="37.870349637671595" lon="14.682334258804694"><ele>1236.0</ele><time>2026-04-12T08:06:16.986Z</time></trkpt><trkpt lat="37.87037978697675" lon="14.682152137738825"><ele>1236.0</ele><time>2026-04-12T08:06:17.986Z</time></trkpt><trkpt lat="37.87041388029387" lon="14.681969688866392"><ele>1236.0</ele><time>2026-04-12T08:06:18.986Z</time></trkpt><trkpt lat="37.87044953090762" lon="14.68181987279018"><ele>1236.0</ele><time>2026-04-12T08:06:19.986Z</time></trkpt><trkpt lat="37.87053972652471" lon="14.681729451987499"><ele>1236.6666666666667</ele><time>2026-04-12T08:06:20.986Z</time></trkpt><trkpt lat="37.870677846392745" lon="14.681680656760392"><ele>1237.3333333333335</ele><time>2026-04-12T08:06:21.986Z</time></trkpt><trkpt lat="37.870829444747685" lon="14.681595626118854"><ele>1238.0</ele><time>2026-04-12T08:06:22.986Z</time></trkpt><trkpt lat="37.87098017790062" lon="14.681524838354017"><ele>1238.0</ele><time>2026-04-12T08:06:23.986Z</time></trkpt><trkpt lat="37.871111636939304" lon="14.681443778247438"><ele>1238.0</ele><time>2026-04-12T08:06:24.985Z</time></trkpt><trkpt lat="37.8712227845154" lon="14.68129579791593"><ele>1238.0</ele><time>2026-04-12T08:06:25.985Z</time></trkpt><trkpt lat="37.87130693202401" lon="14.68110029268357"><ele>1240.0</ele><time>2026-04-12T08:06:26.985Z</time></trkpt><trkpt lat="37.87133814072966" lon="14.68088792010247"><ele>1242.0</ele><time>2026-04-12T08:06:27.985Z</time></trkpt><trkpt lat="37.87131160557962" lon="14.680680579878517"><ele>1244.0</ele><time>2026-04-12T08:06:28.985Z</time></trkpt><trkpt lat="37.87124332335001" lon="14.680482157529433"><ele>1244.0</ele><time>2026-04-12T08:06:29.985Z</time></trkpt><trkpt lat="37.87114906771981" lon="14.680287971937457"><ele>1244.0</ele><time>2026-04-12T08:06:30.985Z</time></trkpt><trkpt lat="37.8710585897695" lon="14.680088779543098"><ele>1244.0</ele><time>2026-04-12T08:06:31.985Z</time></trkpt><trkpt lat="37.8709901738129" lon="14.679877041464996"><ele>1247.3333333333335</ele><time>2026-04-12T08:06:32.985Z</time></trkpt><trkpt lat="37.870907352077154" lon="14.67967102719515"><ele>1250.6666666666667</ele><time>2026-04-12T08:06:33.985Z</time></trkpt><trkpt lat="37.87082377527066" lon="14.679463134723404"><ele>1254.0</ele><time>2026-04-12T08:06:34.985Z</time></trkpt><trkpt lat="37.87074162512311" lon="14.679258790978471"><ele>1254.0</ele><time>2026-04-12T08:06:35.985Z</time></trkpt><trkpt lat="37.870656866854" lon="14.67904765726081"><ele>1254.0</ele><time>2026-04-12T08:06:36.985Z</time></trkpt><trkpt lat="37.87057168834767" lon="14.678835247311213"><ele>1254.0</ele><time>2026-04-12T08:06:37.985Z</time></trkpt><trkpt lat="37.870485086094604" lon="14.678619286943158"><ele>1255.3333333333333</ele><time>2026-04-12T08:06:38.985Z</time></trkpt><trkpt lat="37.87038480150099" lon="14.678408340836954"><ele>1256.6666666666665</ele><time>2026-04-12T08:06:39.985Z</time></trkpt><trkpt lat="37.87029972118458" lon="14.678194818366862"><ele>1258.0</ele><time>2026-04-12T08:06:40.985Z</time></trkpt><trkpt lat="37.87021514228752" lon="14.67797722685806"><ele>1262.0</ele><time>2026-04-12T08:06:41.985Z</time></trkpt><trkpt lat="37.870130807324955" lon="14.677763482508961"><ele>1266.0</ele><time>2026-04-12T08:06:42.985Z</time></trkpt><trkpt lat="37.87004462129495" lon="14.677550019706707"><ele>1270.0</ele><time>2026-04-12T08:06:43.985Z</time></trkpt><trkpt lat="37.86995242441988" lon="14.677338469232737"><ele>1270.0</ele><time>2026-04-12T08:06:44.985Z</time></trkpt><trkpt lat="37.869852989337765" lon="14.677142830460031"><ele>1270.0</ele><time>2026-04-12T08:06:45.985Z</time></trkpt><trkpt lat="37.86972935717855" lon="14.67696461116451"><ele>1270.0</ele><time>2026-04-12T08:06:46.985Z</time></trkpt><trkpt lat="37.86957479726244" lon="14.676820230059016"><ele>1270.3333333333333</ele><time>2026-04-12T08:06:47.985Z</time></trkpt><trkpt lat="37.8694102499563" lon="14.676686538402814"><ele>1270.6666666666667</ele><time>2026-04-12T08:06:48.985Z</time></trkpt><trkpt lat="37.86924671587626" lon="14.676562872321878"><ele>1271.0</ele><time>2026-04-12T08:06:49.985Z</time></trkpt><trkpt lat="37.869098287267" lon="14.676446597823427"><ele>1271.0</ele><time>2026-04-12T08:06:50.985Z</time></trkpt><trkpt lat="37.86898515806149" lon="14.676325995895986"><ele>1271.0</ele><time>2026-04-12T08:06:51.985Z</time></trkpt><trkpt lat="37.86888343720351" lon="14.676250860149612"><ele>1271.0</ele><time>2026-04-12T08:06:52.985Z</time></trkpt><trkpt lat="37.868839784376235" lon="14.676156436325787"><ele>1271.0</ele><time>2026-04-12T08:06:53.985Z</time></trkpt><trkpt lat="37.868843701617706" lon="14.67606970897757"><ele>1271.0</ele><time>2026-04-12T08:06:54.985Z</time></trkpt><trkpt lat="37.8689081508112" lon="14.6760059678079"><ele>1271.0</ele><time>2026-04-12T08:06:55.985Z</time></trkpt><trkpt lat="37.86903445971369" lon="14.675997514365347"><ele>1271.0</ele><time>2026-04-12T08:06:57.985Z</time></trkpt><trkpt lat="37.86919240561423" lon="14.676185537969616"><ele>1271.0</ele><time>2026-04-12T08:06:58.985Z</time></trkpt><trkpt lat="37.86933430123237" lon="14.67626556230337"><ele>1273.5</ele><time>2026-04-12T08:06:59.984Z</time></trkpt><trkpt lat="37.86945635540857" lon="14.676356597106919"><ele>1276.0</ele><time>2026-04-12T08:07:00.984Z</time></trkpt><trkpt lat="37.86958891718212" lon="14.67644228856267"><ele>1278.5</ele><time>2026-04-12T08:07:01.984Z</time></trkpt><trkpt lat="37.86972849983201" lon="14.676531383111088"><ele>1281.0</ele><time>2026-04-12T08:07:02.984Z</time></trkpt><trkpt lat="37.86986042988948" lon="14.676618348475452"><ele>1281.0</ele><time>2026-04-12T08:07:03.984Z</time></trkpt><trkpt lat="37.86999492679817" lon="14.676696756516655"><ele>1281.0</ele><time>2026-04-12T08:07:04.984Z</time></trkpt><trkpt lat="37.870129042892515" lon="14.676713575422434"><ele>1281.0</ele><time>2026-04-12T08:07:05.984Z</time></trkpt><trkpt lat="37.87029379873533" lon="14.676685872481524"><ele>1281.0</ele><time>2026-04-12T08:07:06.984Z</time></trkpt><trkpt lat="37.870458728440994" lon="14.676613463551721"><ele>1281.6666666666667</ele><time>2026-04-12T08:07:07.984Z</time></trkpt><trkpt lat="37.87063777401534" lon="14.67649804666857"><ele>1282.3333333333335</ele><time>2026-04-12T08:07:08.984Z</time></trkpt><trkpt lat="37.87081871736409" lon="14.676434993662525"><ele>1283.0</ele><time>2026-04-12T08:07:09.984Z</time></trkpt><trkpt lat="37.870993860638" lon="14.67634723275632"><ele>1283.0</ele><time>2026-04-12T08:07:10.984Z</time></trkpt><trkpt lat="37.87119290721438" lon="14.676262172319444"><ele>1283.0</ele><time>2026-04-12T08:07:11.984Z</time></trkpt><trkpt lat="37.871390599603345" lon="14.676177063999981"><ele>1283.0</ele><time>2026-04-12T08:07:12.984Z</time></trkpt><trkpt lat="37.87158954683613" lon="14.676081392917121"><ele>1285.3333333333335</ele><time>2026-04-12T08:07:13.984Z</time></trkpt><trkpt lat="37.871779989426734" lon="14.675977052576725"><ele>1287.6666666666667</ele><time>2026-04-12T08:07:14.984Z</time></trkpt><trkpt lat="37.87195323608392" lon="14.675848137706025"><ele>1290.0</ele><time>2026-04-12T08:07:15.984Z</time></trkpt><trkpt lat="37.87211964431732" lon="14.675697472589649"><ele>1290.0</ele><time>2026-04-12T08:07:16.984Z</time></trkpt><trkpt lat="37.87227451896121" lon="14.675530584776684"><ele>1290.0</ele><time>2026-04-12T08:07:17.987Z</time></trkpt><trkpt lat="37.87243466876604" lon="14.675367064820328"><ele>1290.0</ele><time>2026-04-12T08:07:18.987Z</time></trkpt><trkpt lat="37.87259067386785" lon="14.675226950930075"><ele>1291.6666666666667</ele><time>2026-04-12T08:07:19.987Z</time></trkpt><trkpt lat="37.872747815806434" lon="14.675129417005477"><ele>1293.3333333333335</ele><time>2026-04-12T08:07:20.988Z</time></trkpt><trkpt lat="37.87290284114071" lon="14.675071747234322"><ele>1295.0</ele><time>2026-04-12T08:07:21.987Z</time></trkpt><trkpt lat="37.873039199445806" lon="14.675005770212076"><ele>1295.0</ele><time>2026-04-12T08:07:22.987Z</time></trkpt><trkpt lat="37.87312566210172" lon="14.674878848522269"><ele>1295.0</ele><time>2026-04-12T08:07:23.987Z</time></trkpt><trkpt lat="37.873177229676195" lon="14.674688668989548"><ele>1295.0</ele><time>2026-04-12T08:07:24.987Z</time></trkpt><trkpt lat="37.87323008901275" lon="14.674483804582806"><ele>1294.3333333333335</ele><time>2026-04-12T08:07:25.987Z</time></trkpt><trkpt lat="37.87332062488792" lon="14.674281667562898"><ele>1293.6666666666667</ele><time>2026-04-12T08:07:26.988Z</time></trkpt><trkpt lat="37.87340047306119" lon="14.674096923194758"><ele>1293.0</ele><time>2026-04-12T08:07:27.987Z</time></trkpt><trkpt lat="37.87344677629962" lon="14.673886191591967"><ele>1293.0</ele><time>2026-04-12T08:07:28.987Z</time></trkpt><trkpt lat="37.873451765050845" lon="14.67365534965776"><ele>1293.0</ele><time>2026-04-12T08:07:29.987Z</time></trkpt><trkpt lat="37.87342319433686" lon="14.673383414132429"><ele>1293.0</ele><time>2026-04-12T08:07:30.987Z</time></trkpt><trkpt lat="37.873424177936045" lon="14.673108655900254"><ele>1296.0</ele><time>2026-04-12T08:07:31.987Z</time></trkpt><trkpt lat="37.873435346575675" lon="14.672850758784387"><ele>1299.0</ele><time>2026-04-12T08:07:32.987Z</time></trkpt><trkpt lat="37.87343878360992" lon="14.672617859663593"><ele>1302.0</ele><time>2026-04-12T08:07:33.987Z</time></trkpt><trkpt lat="37.873444848664555" lon="14.672413250387185"><ele>1302.0</ele><time>2026-04-12T08:07:34.987Z</time></trkpt><trkpt lat="37.8734542839911" lon="14.67221628807174"><ele>1302.0</ele><time>2026-04-12T08:07:35.987Z</time></trkpt><trkpt lat="37.873423614823956" lon="14.672057181900321"><ele>1302.0</ele><time>2026-04-12T08:07:36.987Z</time></trkpt><trkpt lat="37.873321689288474" lon="14.671906555867608"><ele>1302.0</ele><time>2026-04-12T08:07:37.987Z</time></trkpt><trkpt lat="37.87318601580001" lon="14.671754520642011"><ele>1306.0</ele><time>2026-04-12T08:07:38.987Z</time></trkpt><trkpt lat="37.87307398196769" lon="14.671601149940738"><ele>1310.0</ele><time>2026-04-12T08:07:39.987Z</time></trkpt><trkpt lat="37.873002349286644" lon="14.671430672222808"><ele>1314.0</ele><time>2026-04-12T08:07:40.987Z</time></trkpt><trkpt lat="37.8729653486237" lon="14.671221269976346"><ele>1315.0</ele><time>2026-04-12T08:07:41.987Z</time></trkpt><trkpt lat="37.872953584884634" lon="14.6710021561454"><ele>1316.0</ele><time>2026-04-12T08:07:42.987Z</time></trkpt><trkpt lat="37.87295500375022" lon="14.670782166708177"><ele>1317.0</ele><time>2026-04-12T08:07:43.987Z</time></trkpt><trkpt lat="37.872961009503804" lon="14.670575349268551"><ele>1317.0</ele><time>2026-04-12T08:07:44.987Z</time></trkpt><trkpt lat="37.87298819385031" lon="14.67037606896593"><ele>1317.0</ele><time>2026-04-12T08:07:45.987Z</time></trkpt><trkpt lat="37.873060242852" lon="14.670204363140268"><ele>1317.0</ele><time>2026-04-12T08:07:46.987Z</time></trkpt><trkpt lat="37.873171188967376" lon="14.6700478175439"><ele>1319.0</ele><time>2026-04-12T08:07:47.987Z</time></trkpt><trkpt lat="37.87328666281248" lon="14.669887423144658"><ele>1321.0</ele><time>2026-04-12T08:07:48.986Z</time></trkpt><trkpt lat="37.87339105693734" lon="14.669740037551946"><ele>1323.0</ele><time>2026-04-12T08:07:49.986Z</time></trkpt><trkpt lat="37.873461922438366" lon="14.669592313276999"><ele>1323.5</ele><time>2026-04-12T08:07:50.986Z</time></trkpt><trkpt lat="37.873491013435796" lon="14.66942312472828"><ele>1324.0</ele><time>2026-04-12T08:07:51.986Z</time></trkpt><trkpt lat="37.87345756325345" lon="14.669255284149003"><ele>1324.5</ele><time>2026-04-12T08:07:52.986Z</time></trkpt><trkpt lat="37.873372471191296" lon="14.66908128586167"><ele>1325.0</ele><time>2026-04-12T08:07:53.986Z</time></trkpt><trkpt lat="37.8732884708065" lon="14.668901505580374"><ele>1325.0</ele><time>2026-04-12T08:07:54.986Z</time></trkpt><trkpt lat="37.873233729460964" lon="14.66870749785785"><ele>1325.0</ele><time>2026-04-12T08:07:55.986Z</time></trkpt><trkpt lat="37.87317960366525" lon="14.668542015692013"><ele>1325.0</ele><time>2026-04-12T08:07:56.986Z</time></trkpt><trkpt lat="37.87316771279649" lon="14.668403750039987"><ele>1325.0</ele><time>2026-04-12T08:07:57.986Z</time></trkpt><trkpt lat="37.873213596241015" lon="14.66829134140166"><ele>1325.25</ele><time>2026-04-12T08:07:58.986Z</time></trkpt><trkpt lat="37.87328695272564" lon="14.668222472743873"><ele>1325.5</ele><time>2026-04-12T08:07:59.986Z</time></trkpt><trkpt lat="37.873401236940644" lon="14.66818238448156"><ele>1325.75</ele><time>2026-04-12T08:08:00.986Z</time></trkpt><trkpt lat="37.87354932391046" lon="14.668112291153227"><ele>1326.0</ele><time>2026-04-12T08:08:01.986Z</time></trkpt><trkpt lat="37.87370925888199" lon="14.66805760202277"><ele>1326.0</ele><time>2026-04-12T08:08:02.986Z</time></trkpt><trkpt lat="37.873881332621394" lon="14.66800213516271"><ele>1326.0</ele><time>2026-04-12T08:08:03.986Z</time></trkpt><trkpt lat="37.87405041202934" lon="14.667946240879035"><ele>1326.0</ele><time>2026-04-12T08:08:04.986Z</time></trkpt><trkpt lat="37.87421372976569" lon="14.667878760385666"><ele>1325.75</ele><time>2026-04-12T08:08:05.986Z</time></trkpt><trkpt lat="37.87436668623377" lon="14.66782180630958"><ele>1325.5</ele><time>2026-04-12T08:08:06.986Z</time></trkpt><trkpt lat="37.87449308404269" lon="14.667742656590166"><ele>1325.25</ele><time>2026-04-12T08:08:07.986Z</time></trkpt><trkpt lat="37.874586503913754" lon="14.667599253947728"><ele>1325.0</ele><time>2026-04-12T08:08:08.986Z</time></trkpt><trkpt lat="37.87466330575844" lon="14.667426482378547"><ele>1325.0</ele><time>2026-04-12T08:08:09.986Z</time></trkpt><trkpt lat="37.8747333472694" lon="14.667238589695058"><ele>1325.0</ele><time>2026-04-12T08:08:10.986Z</time></trkpt><trkpt lat="37.87480395029691" lon="14.667040170014682"><ele>1325.0</ele><time>2026-04-12T08:08:11.986Z</time></trkpt><trkpt lat="37.87487123770702" lon="14.666840733646897"><ele>1327.3333333333335</ele><time>2026-04-12T08:08:12.986Z</time></trkpt><trkpt lat="37.874942912549" lon="14.666635371640215"><ele>1329.6666666666667</ele><time>2026-04-12T08:08:13.986Z</time></trkpt><trkpt lat="37.87501488966906" lon="14.66643258439228"><ele>1332.0</ele><time>2026-04-12T08:08:14.986Z</time></trkpt><trkpt lat="37.87509393694902" lon="14.666227694319248"><ele>1329.6666666666667</ele><time>2026-04-12T08:08:15.986Z</time></trkpt><trkpt lat="37.875186894599096" lon="14.666039005579815"><ele>1327.3333333333335</ele><time>2026-04-12T08:08:16.986Z</time></trkpt><trkpt lat="37.87528758767859" lon="14.665850529960414"><ele>1325.0</ele><time>2026-04-12T08:08:17.986Z</time></trkpt><trkpt lat="37.87539073634237" lon="14.665657757831037"><ele>1325.0</ele><time>2026-04-12T08:08:18.986Z</time></trkpt><trkpt lat="37.87550538461786" lon="14.665458914939101"><ele>1325.0</ele><time>2026-04-12T08:08:19.986Z</time></trkpt><trkpt lat="37.875623626052594" lon="14.665256541732612"><ele>1325.0</ele><time>2026-04-12T08:08:20.986Z</time></trkpt><trkpt lat="37.87574568769236" lon="14.665050421171745"><ele>1324.3333333333335</ele><time>2026-04-12T08:08:21.986Z</time></trkpt><trkpt lat="37.87586690590377" lon="14.664844821621461"><ele>1323.6666666666667</ele><time>2026-04-12T08:08:22.986Z</time></trkpt><trkpt lat="37.87599065450022" lon="14.664636578643226"><ele>1323.0</ele><time>2026-04-12T08:08:23.985Z</time></trkpt><trkpt lat="37.876114533030815" lon="14.664429434774304"><ele>1325.0</ele><time>2026-04-12T08:08:24.985Z</time></trkpt><trkpt lat="37.87623761778553" lon="14.664233629422881"><ele>1327.0</ele><time>2026-04-12T08:08:25.985Z</time></trkpt><trkpt lat="37.87635890074594" lon="14.66403739376576"><ele>1329.0</ele><time>2026-04-12T08:08:26.985Z</time></trkpt><trkpt lat="37.87648180225229" lon="14.663849805694124"><ele>1329.0</ele><time>2026-04-12T08:08:27.985Z</time></trkpt><trkpt lat="37.87662408024034" lon="14.66366795464989"><ele>1329.0</ele><time>2026-04-12T08:08:28.985Z</time></trkpt><trkpt lat="37.87677305561669" lon="14.663501038301886"><ele>1329.0</ele><time>2026-04-12T08:08:29.985Z</time></trkpt><trkpt lat="37.876946219968865" lon="14.663346541515722"><ele>1328.3333333333333</ele><time>2026-04-12T08:08:30.985Z</time></trkpt><trkpt lat="37.87711413469768" lon="14.663196733874878"><ele>1327.6666666666665</ele><time>2026-04-12T08:08:31.985Z</time></trkpt><trkpt lat="37.87727104518205" lon="14.663053401917308"><ele>1327.0</ele><time>2026-04-12T08:08:32.985Z</time></trkpt><trkpt lat="37.8774090262407" lon="14.662898620689855"><ele>1325.3333333333333</ele><time>2026-04-12T08:08:33.985Z</time></trkpt><trkpt lat="37.87753155458801" lon="14.662713742037914"><ele>1323.6666666666667</ele><time>2026-04-12T08:08:34.985Z</time></trkpt><trkpt lat="37.877654960845874" lon="14.662518752276197"><ele>1322.0</ele><time>2026-04-12T08:08:35.985Z</time></trkpt><trkpt lat="37.877772128789665" lon="14.662313847320284"><ele>1322.0</ele><time>2026-04-12T08:08:36.985Z</time></trkpt><trkpt lat="37.877864425837096" lon="14.662086724141291"><ele>1322.0</ele><time>2026-04-12T08:08:37.985Z</time></trkpt><trkpt lat="37.87796465578408" lon="14.66187701327767"><ele>1322.0</ele><time>2026-04-12T08:08:38.985Z</time></trkpt><trkpt lat="37.8780684090077" lon="14.661685915678996"><ele>1325.3333333333335</ele><time>2026-04-12T08:08:39.985Z</time></trkpt><trkpt lat="37.87816200193457" lon="14.661516824284215"><ele>1328.6666666666667</ele><time>2026-04-12T08:08:40.985Z</time></trkpt><trkpt lat="37.87828356808234" lon="14.661408691312657"><ele>1332.0</ele><time>2026-04-12T08:08:41.985Z</time></trkpt><trkpt lat="37.8784287499369" lon="14.66137123141885"><ele>1329.3333333333333</ele><time>2026-04-12T08:08:42.985Z</time></trkpt><trkpt lat="37.87861376317979" lon="14.661311993261318"><ele>1326.6666666666665</ele><time>2026-04-12T08:08:43.985Z</time></trkpt><trkpt lat="37.878792074963016" lon="14.661255976674983"><ele>1324.0</ele><time>2026-04-12T08:08:44.985Z</time></trkpt><trkpt lat="37.87897838985139" lon="14.66119638131297"><ele>1324.0</ele><time>2026-04-12T08:08:45.985Z</time></trkpt><trkpt lat="37.87915650908473" lon="14.661139407441627"><ele>1324.0</ele><time>2026-04-12T08:08:46.985Z</time></trkpt><trkpt lat="37.879331245008856" lon="14.661062092182906"><ele>1324.0</ele><time>2026-04-12T08:08:47.985Z</time></trkpt><trkpt lat="37.87950418670988" lon="14.661014650033948"><ele>1326.6666666666665</ele><time>2026-04-12T08:08:48.985Z</time></trkpt><trkpt lat="37.879668555757405" lon="14.660971843493355"><ele>1329.3333333333333</ele><time>2026-04-12T08:08:49.985Z</time></trkpt><trkpt lat="37.87981297888084" lon="14.660861507455262"><ele>1332.0</ele><time>2026-04-12T08:08:50.985Z</time></trkpt><trkpt lat="37.87995866665825" lon="14.660732629314406"><ele>1332.0</ele><time>2026-04-12T08:08:51.985Z</time></trkpt><trkpt lat="37.88008097043552" lon="14.66056122725491"><ele>1332.0</ele><time>2026-04-12T08:08:52.985Z</time></trkpt><trkpt lat="37.88020835459333" lon="14.660381341328362"><ele>1332.0</ele><time>2026-04-12T08:08:53.985Z</time></trkpt><trkpt lat="37.88033500796161" lon="14.660228943330912"><ele>1331.3333333333333</ele><time>2026-04-12T08:08:54.985Z</time></trkpt><trkpt lat="37.88049877385366" lon="14.66013549881565"><ele>1330.6666666666665</ele><time>2026-04-12T08:08:55.985Z</time></trkpt><trkpt lat="37.880674937240066" lon="14.660032463638775"><ele>1330.0</ele><time>2026-04-12T08:08:56.985Z</time></trkpt><trkpt lat="37.88084953305954" lon="14.659930063268474"><ele>1329.6666666666665</ele><time>2026-04-12T08:08:57.984Z</time></trkpt><trkpt lat="37.881001332883834" lon="14.659841643437572"><ele>1329.3333333333333</ele><time>2026-04-12T08:08:58.984Z</time></trkpt><trkpt lat="37.88113807209739" lon="14.659768976446099"><ele>1329.0</ele><time>2026-04-12T08:08:59.984Z</time></trkpt><trkpt lat="37.88127543170651" lon="14.659719632661774"><ele>1329.0</ele><time>2026-04-12T08:09:00.984Z</time></trkpt><trkpt lat="37.88137912254484" lon="14.659817007150464"><ele>1329.0</ele><time>2026-04-12T08:09:01.984Z</time></trkpt><trkpt lat="37.881541037266636" lon="14.659878127772975"><ele>1329.0</ele><time>2026-04-12T08:09:02.984Z</time></trkpt><trkpt lat="37.88170422864951" lon="14.659939730344835"><ele>1330.3333333333333</ele><time>2026-04-12T08:09:03.984Z</time></trkpt><trkpt lat="37.88189278255741" lon="14.659989001992015"><ele>1331.6666666666665</ele><time>2026-04-12T08:09:04.984Z</time></trkpt><trkpt lat="37.882038386260575" lon="14.660071773802475"><ele>1333.0</ele><time>2026-04-12T08:09:05.984Z</time></trkpt><trkpt lat="37.882181304498104" lon="14.660104023995544"><ele>1333.0</ele><time>2026-04-12T08:09:06.984Z</time></trkpt><trkpt lat="37.88233359243382" lon="14.660106286430024"><ele>1333.0</ele><time>2026-04-12T08:09:07.984Z</time></trkpt><trkpt lat="37.88250848441113" lon="14.660040551488969"><ele>1333.0</ele><time>2026-04-12T08:09:08.984Z</time></trkpt><trkpt lat="37.88267900793037" lon="14.659956354168353"><ele>1333.0</ele><time>2026-04-12T08:09:09.984Z</time></trkpt><trkpt lat="37.88283050768172" lon="14.659940724404834"><ele>1333.0</ele><time>2026-04-12T08:09:10.984Z</time></trkpt><trkpt lat="37.88299113897324" lon="14.659961058134195"><ele>1333.0</ele><time>2026-04-12T08:09:11.984Z</time></trkpt><trkpt lat="37.883138763073624" lon="14.660035342912009"><ele>1333.0</ele><time>2026-04-12T08:09:12.984Z</time></trkpt><trkpt lat="37.88327413238774" lon="14.660140666660926"><ele>1333.0</ele><time>2026-04-12T08:09:13.984Z</time></trkpt><trkpt lat="37.88342046082518" lon="14.660242522679809"><ele>1333.0</ele><time>2026-04-12T08:09:14.984Z</time></trkpt><trkpt lat="37.883569852000136" lon="14.660274325291459"><ele>1332.0</ele><time>2026-04-12T08:09:15.984Z</time></trkpt><trkpt lat="37.88370125034021" lon="14.660338502812516"><ele>1331.0</ele><time>2026-04-12T08:09:16.984Z</time></trkpt><trkpt lat="37.88384589579718" lon="14.660293946357022"><ele>1330.0</ele><time>2026-04-12T08:09:17.984Z</time></trkpt><trkpt lat="37.883982421603854" lon="14.660198082477963"><ele>1329.0</ele><time>2026-04-12T08:09:18.984Z</time></trkpt><trkpt lat="37.88412422611677" lon="14.65991548678263"><ele>1329.0</ele><time>2026-04-12T08:09:19.984Z</time></trkpt><trkpt lat="37.88420617019355" lon="14.659648387068952"><ele>1329.0</ele><time>2026-04-12T08:09:20.984Z</time></trkpt><trkpt lat="37.884302367352554" lon="14.659437686024432"><ele>1329.0</ele><time>2026-04-12T08:09:21.984Z</time></trkpt><trkpt lat="37.884404035982094" lon="14.659264223705454"><ele>1326.25</ele><time>2026-04-12T08:09:22.984Z</time></trkpt><trkpt lat="37.88448774971795" lon="14.659092111991264"><ele>1323.5</ele><time>2026-04-12T08:09:23.986Z</time></trkpt><trkpt lat="37.8845430338532" lon="14.658916772221005"><ele>1320.75</ele><time>2026-04-12T08:09:24.986Z</time></trkpt><trkpt lat="37.88453020203116" lon="14.658755116697133"><ele>1318.0</ele><time>2026-04-12T08:09:25.986Z</time></trkpt><trkpt lat="37.88448479910446" lon="14.658577216360651"><ele>1317.3333333333333</ele><time>2026-04-12T08:09:26.986Z</time></trkpt><trkpt lat="37.88441835449122" lon="14.658384038460417"><ele>1316.6666666666667</ele><time>2026-04-12T08:09:27.987Z</time></trkpt><trkpt lat="37.88437074815619" lon="14.658166448754057"><ele>1316.0</ele><time>2026-04-12T08:09:28.987Z</time></trkpt><trkpt lat="37.88440546078013" lon="14.657943705315649"><ele>1317.3333333333335</ele><time>2026-04-12T08:09:29.986Z</time></trkpt><trkpt lat="37.884429995748754" lon="14.657710666945999"><ele>1318.6666666666667</ele><time>2026-04-12T08:09:30.987Z</time></trkpt><trkpt lat="37.884456567090346" lon="14.657469367319727"><ele>1320.0</ele><time>2026-04-12T08:09:31.987Z</time></trkpt><trkpt lat="37.88450129606039" lon="14.657250912886"><ele>1320.0</ele><time>2026-04-12T08:09:32.987Z</time></trkpt><trkpt lat="37.88451229824563" lon="14.65703938181474"><ele>1320.0</ele><time>2026-04-12T08:09:33.987Z</time></trkpt><trkpt lat="37.884523395162596" lon="14.656855736438901"><ele>1320.0</ele><time>2026-04-12T08:09:34.987Z</time></trkpt><trkpt lat="37.8845512495425" lon="14.65668660126559"><ele>1320.0</ele><time>2026-04-12T08:09:35.987Z</time></trkpt><trkpt lat="37.884613136013996" lon="14.656562304541213"><ele>1321.8</ele><time>2026-04-12T08:09:36.987Z</time></trkpt><trkpt lat="37.884681407565495" lon="14.65647778971039"><ele>1323.6</ele><time>2026-04-12T08:09:37.987Z</time></trkpt><trkpt lat="37.88477839146627" lon="14.656443750767917"><ele>1325.4</ele><time>2026-04-12T08:09:38.987Z</time></trkpt><trkpt lat="37.884869264781685" lon="14.65652340460977"><ele>1327.2</ele><time>2026-04-12T08:09:39.987Z</time></trkpt><trkpt lat="37.885000341575484" lon="14.656588343482856"><ele>1329.0</ele><time>2026-04-12T08:09:40.987Z</time></trkpt><trkpt lat="37.88513624766133" lon="14.6566520008757"><ele>1329.0</ele><time>2026-04-12T08:09:41.987Z</time></trkpt><trkpt lat="37.88527524568148" lon="14.65670794290024"><ele>1329.0</ele><time>2026-04-12T08:09:42.987Z</time></trkpt><trkpt lat="37.885416422576185" lon="14.656704688797829"><ele>1329.0</ele><time>2026-04-12T08:09:43.987Z</time></trkpt><trkpt lat="37.88555955886204" lon="14.656653095017749"><ele>1329.0</ele><time>2026-04-12T08:09:44.987Z</time></trkpt><trkpt lat="37.885715937033815" lon="14.656567013797519"><ele>1329.0</ele><time>2026-04-12T08:09:45.987Z</time></trkpt><trkpt lat="37.885886365892986" lon="14.656473489047837"><ele>1329.0</ele><time>2026-04-12T08:09:46.987Z</time></trkpt><trkpt lat="37.886055055603045" lon="14.65637650786622"><ele>1329.0</ele><time>2026-04-12T08:09:47.987Z</time></trkpt><trkpt lat="37.88622220031489" lon="14.656308253521102"><ele>1330.3333333333333</ele><time>2026-04-12T08:09:48.987Z</time></trkpt><trkpt lat="37.88637348381512" lon="14.656231646238115"><ele>1331.6666666666665</ele><time>2026-04-12T08:09:49.987Z</time></trkpt><trkpt lat="37.88652261276304" lon="14.65614810622001"><ele>1333.0</ele><time>2026-04-12T08:09:50.987Z</time></trkpt><trkpt lat="37.88665780727998" lon="14.656022717181084"><ele>1333.0</ele><time>2026-04-12T08:09:51.987Z</time></trkpt><trkpt lat="37.88674621761081" lon="14.655831462157261"><ele>1333.0</ele><time>2026-04-12T08:09:52.987Z</time></trkpt><trkpt lat="37.8868213451812" lon="14.655645380597349"><ele>1333.0</ele><time>2026-04-12T08:09:53.987Z</time></trkpt><trkpt lat="37.88689893204064" lon="14.65544891559725"><ele>1334.0</ele><time>2026-04-12T08:09:54.987Z</time></trkpt><trkpt lat="37.887029816090205" lon="14.655302673564881"><ele>1335.0</ele><time>2026-04-12T08:09:55.987Z</time></trkpt><trkpt lat="37.8871774955686" lon="14.6551607195238"><ele>1336.0</ele><time>2026-04-12T08:09:56.987Z</time></trkpt><trkpt lat="37.88733422308257" lon="14.65500796077623"><ele>1336.0</ele><time>2026-04-12T08:09:57.986Z</time></trkpt><trkpt lat="37.88749504629474" lon="14.654851259196459"><ele>1336.0</ele><time>2026-04-12T08:09:58.986Z</time></trkpt><trkpt lat="37.88765184128123" lon="14.654698530782305"><ele>1336.0</ele><time>2026-04-12T08:09:59.986Z</time></trkpt><trkpt lat="37.88779988949254" lon="14.654555357413207"><ele>1336.0</ele><time>2026-04-12T08:10:00.986Z</time></trkpt><trkpt lat="37.88794755986474" lon="14.654412844381193"><ele>1336.0</ele><time>2026-04-12T08:10:01.986Z</time></trkpt><trkpt lat="37.888089399453094" lon="14.654275958631555"><ele>1336.0</ele><time>2026-04-12T08:10:02.986Z</time></trkpt><trkpt lat="37.88822281725469" lon="14.654146636141933"><ele>1336.0</ele><time>2026-04-12T08:10:03.986Z</time></trkpt><trkpt lat="37.88834601005982" lon="14.654026638458234"><ele>1336.0</ele><time>2026-04-12T08:10:04.986Z</time></trkpt><trkpt lat="37.88845998356198" lon="14.653919578128637"><ele>1336.0</ele><time>2026-04-12T08:10:05.986Z</time></trkpt><trkpt lat="37.888568532322914" lon="14.653845619140869"><ele>1336.0</ele><time>2026-04-12T08:10:06.986Z</time></trkpt><trkpt lat="37.888694350740955" lon="14.653834264578029"><ele>1332.5</ele><time>2026-04-12T08:10:07.986Z</time></trkpt><trkpt lat="37.888834818144296" lon="14.653881489259446"><ele>1329.0</ele><time>2026-04-12T08:10:08.986Z</time></trkpt><trkpt lat="37.88897566361359" lon="14.653869715481616"><ele>1325.5</ele><time>2026-04-12T08:10:09.986Z</time></trkpt><trkpt lat="37.889097047578375" lon="14.653836697535981"><ele>1322.0</ele><time>2026-04-12T08:10:10.986Z</time></trkpt><trkpt lat="37.88919883560141" lon="14.653760961482156"><ele>1321.5</ele><time>2026-04-12T08:10:11.986Z</time></trkpt><trkpt lat="37.88927450196065" lon="14.653632588824207"><ele>1321.0</ele><time>2026-04-12T08:10:12.986Z</time></trkpt><trkpt lat="37.88933678848645" lon="14.653463771958052"><ele>1320.5</ele><time>2026-04-12T08:10:13.986Z</time></trkpt><trkpt lat="37.889382028397655" lon="14.653284346717975"><ele>1320.0</ele><time>2026-04-12T08:10:14.986Z</time></trkpt><trkpt lat="37.889423686885195" lon="14.65310557392545"><ele>1322.6666666666667</ele><time>2026-04-12T08:10:15.986Z</time></trkpt><trkpt lat="37.88946148165963" lon="14.652919808687253"><ele>1325.3333333333335</ele><time>2026-04-12T08:10:16.986Z</time></trkpt><trkpt lat="37.88954718190593" lon="14.652723614106014"><ele>1328.0</ele><time>2026-04-12T08:10:17.986Z</time></trkpt><trkpt lat="37.88962044330453" lon="14.652535456001054"><ele>1331.6666666666667</ele><time>2026-04-12T08:10:18.986Z</time></trkpt><trkpt lat="37.88970291888125" lon="14.652367461387197"><ele>1335.3333333333333</ele><time>2026-04-12T08:10:19.986Z</time></trkpt><trkpt lat="37.88978955778695" lon="14.652205417771553"><ele>1339.0</ele><time>2026-04-12T08:10:20.986Z</time></trkpt><trkpt lat="37.88987418497927" lon="14.652054708182824"><ele>1341.6666666666665</ele><time>2026-04-12T08:10:21.986Z</time></trkpt><trkpt lat="37.88996168740821" lon="14.651894870037868"><ele>1344.3333333333333</ele><time>2026-04-12T08:10:22.986Z</time></trkpt><trkpt lat="37.890031557641954" lon="14.651720450270378"><ele>1347.0</ele><time>2026-04-12T08:10:23.986Z</time></trkpt><trkpt lat="37.890098701908926" lon="14.651537221122053"><ele>1343.6666666666667</ele><time>2026-04-12T08:10:24.986Z</time></trkpt><trkpt lat="37.89016578954571" lon="14.651352866681464"><ele>1340.3333333333335</ele><time>2026-04-12T08:10:25.986Z</time></trkpt><trkpt lat="37.890213006113235" lon="14.651159982148942"><ele>1337.0</ele><time>2026-04-12T08:10:26.986Z</time></trkpt><trkpt lat="37.890243750312784" lon="14.65097487155803"><ele>1337.0</ele><time>2026-04-12T08:10:27.986Z</time></trkpt><trkpt lat="37.89028883073728" lon="14.650813772488563"><ele>1337.0</ele><time>2026-04-12T08:10:28.986Z</time></trkpt><trkpt lat="37.89036710437373" lon="14.650663178876012"><ele>1337.0</ele><time>2026-04-12T08:10:29.986Z</time></trkpt><trkpt lat="37.89048206616082" lon="14.650562017218427"><ele>1337.0</ele><time>2026-04-12T08:10:30.986Z</time></trkpt><trkpt lat="37.89062151295625" lon="14.65049301847744"><ele>1337.0</ele><time>2026-04-12T08:10:31.986Z</time></trkpt><trkpt lat="37.89075630802754" lon="14.650424764476535"><ele>1337.0</ele><time>2026-04-12T08:10:32.985Z</time></trkpt><trkpt lat="37.89086386199666" lon="14.650334558892293"><ele>1337.0</ele><time>2026-04-12T08:10:33.985Z</time></trkpt><trkpt lat="37.89094141125428" lon="14.650201470487092"><ele>1337.0</ele><time>2026-04-12T08:10:34.985Z</time></trkpt><trkpt lat="37.8909943022412" lon="14.650052495217839"><ele>1339.3333333333335</ele><time>2026-04-12T08:10:35.985Z</time></trkpt><trkpt lat="37.89105638069022" lon="14.649875841203206"><ele>1341.6666666666667</ele><time>2026-04-12T08:10:36.985Z</time></trkpt><trkpt lat="37.89111481463059" lon="14.649687680256823"><ele>1344.0</ele><time>2026-04-12T08:10:37.985Z</time></trkpt><trkpt lat="37.89115588815559" lon="14.649502811594921"><ele>1345.5</ele><time>2026-04-12T08:10:38.985Z</time></trkpt><trkpt lat="37.891167707939104" lon="14.6493179852187"><ele>1347.0</ele><time>2026-04-12T08:10:39.985Z</time></trkpt><trkpt lat="37.89117045676735" lon="14.649169315153506"><ele>1348.5</ele><time>2026-04-12T08:10:40.985Z</time></trkpt><trkpt lat="37.891199806075996" lon="14.649039761147941"><ele>1350.0</ele><time>2026-04-12T08:10:41.985Z</time></trkpt><trkpt lat="37.8912673361603" lon="14.648965333244016"><ele>1350.0</ele><time>2026-04-12T08:10:42.985Z</time></trkpt><trkpt lat="37.891382196201974" lon="14.648942907628266"><ele>1350.0</ele><time>2026-04-12T08:10:43.985Z</time></trkpt><trkpt lat="37.89149552698783" lon="14.64893474545551"><ele>1350.0</ele><time>2026-04-12T08:10:44.985Z</time></trkpt><trkpt lat="37.8916003572479" lon="14.648934184687063"><ele>1350.0</ele><time>2026-04-12T08:10:45.985Z</time></trkpt><trkpt lat="37.891686653040715" lon="14.648983116323803"><ele>1350.0</ele><time>2026-04-12T08:10:46.985Z</time></trkpt><trkpt lat="37.89175737204715" lon="14.649101249856939"><ele>1354.75</ele><time>2026-04-12T08:10:47.985Z</time></trkpt><trkpt lat="37.89178365119897" lon="14.649244783181533"><ele>1359.5</ele><time>2026-04-12T08:10:48.985Z</time></trkpt><trkpt lat="37.89179397263826" lon="14.649394215382943"><ele>1364.25</ele><time>2026-04-12T08:10:49.985Z</time></trkpt><trkpt lat="37.891805819734955" lon="14.649550995078252"><ele>1369.0</ele><time>2026-04-12T08:10:50.985Z</time></trkpt><trkpt lat="37.89186060222856" lon="14.649714861506936"><ele>1369.0</ele><time>2026-04-12T08:10:51.985Z</time></trkpt><trkpt lat="37.891941463134565" lon="14.649877487721415"><ele>1369.0</ele><time>2026-04-12T08:10:52.985Z</time></trkpt><trkpt lat="37.89203709663388" lon="14.650039558012779"><ele>1369.0</ele><time>2026-04-12T08:10:53.985Z</time></trkpt><trkpt lat="37.89214209652217" lon="14.650182397792294"><ele>1366.5</ele><time>2026-04-12T08:10:54.985Z</time></trkpt><trkpt lat="37.892231236734865" lon="14.650330370493425"><ele>1364.0</ele><time>2026-04-12T08:10:55.985Z</time></trkpt><trkpt lat="37.89230186566996" lon="14.650489602114275"><ele>1361.5</ele><time>2026-04-12T08:10:56.985Z</time></trkpt><trkpt lat="37.89236616879684" lon="14.650642254502825"><ele>1359.0</ele><time>2026-04-12T08:10:57.985Z</time></trkpt><trkpt lat="37.89243272192544" lon="14.650788129599492"><ele>1359.0</ele><time>2026-04-12T08:10:58.985Z</time></trkpt><trkpt lat="37.89253693671914" lon="14.650885906931665"><ele>1359.0</ele><time>2026-04-12T08:10:59.985Z</time></trkpt><trkpt lat="37.89267141569641" lon="14.650960657915206"><ele>1359.0</ele><time>2026-04-12T08:11:00.985Z</time></trkpt><trkpt lat="37.89280990060822" lon="14.651019280151736"><ele>1359.0</ele><time>2026-04-12T08:11:01.985Z</time></trkpt><trkpt lat="37.89293837664683" lon="14.6510663893594"><ele>1361.3333333333333</ele><time>2026-04-12T08:11:02.985Z</time></trkpt><trkpt lat="37.89309184528091" lon="14.651092362289084"><ele>1363.6666666666665</ele><time>2026-04-12T08:11:03.985Z</time></trkpt><trkpt lat="37.893253083149325" lon="14.65113181354334"><ele>1366.0</ele><time>2026-04-12T08:11:04.985Z</time></trkpt><trkpt lat="37.89339146094646" lon="14.651220409251959"><ele>1369.5</ele><time>2026-04-12T08:11:05.985Z</time></trkpt><trkpt lat="37.893521331497304" lon="14.651285042645751"><ele>1373.0</ele><time>2026-04-12T08:11:06.984Z</time></trkpt><trkpt lat="37.89364145243985" lon="14.651320208036108"><ele>1376.5</ele><time>2026-04-12T08:11:07.984Z</time></trkpt><trkpt lat="37.893753070888906" lon="14.651344074290215"><ele>1380.0</ele><time>2026-04-12T08:11:08.984Z</time></trkpt><trkpt lat="37.89384792261913" lon="14.651371178779703"><ele>1380.0</ele><time>2026-04-12T08:11:09.984Z</time></trkpt><trkpt lat="37.8939193993904" lon="14.651429334570768"><ele>1380.0</ele><time>2026-04-12T08:11:10.984Z</time></trkpt><trkpt lat="37.89395779070173" lon="14.651539810917576"><ele>1380.0</ele><time>2026-04-12T08:11:11.984Z</time></trkpt><trkpt lat="37.89395532250286" lon="14.651668650617877"><ele>1380.0</ele><time>2026-04-12T08:11:12.984Z</time></trkpt><trkpt lat="37.89390829112291" lon="14.65180090247438"><ele>1380.0</ele><time>2026-04-12T08:11:13.984Z</time></trkpt><trkpt lat="37.893818576659" lon="14.651908449178906"><ele>1382.6</ele><time>2026-04-12T08:11:14.984Z</time></trkpt><trkpt lat="37.89370609939689" lon="14.651970299148024"><ele>1385.2</ele><time>2026-04-12T08:11:15.984Z</time></trkpt><trkpt lat="37.8935914612763" lon="14.65201699961937"><ele>1387.8000000000002</ele><time>2026-04-12T08:11:16.984Z</time></trkpt><trkpt lat="37.893501795831604" lon="14.652088879381301"><ele>1390.4</ele><time>2026-04-12T08:11:17.984Z</time></trkpt><trkpt lat="37.893447194443965" lon="14.652194164759596"><ele>1393.0</ele><time>2026-04-12T08:11:18.984Z</time></trkpt><trkpt lat="37.893428528463794" lon="14.652343215202317"><ele>1389.5</ele><time>2026-04-12T08:11:19.984Z</time></trkpt><trkpt lat="37.89338490248365" lon="14.652468133980117"><ele>1386.0</ele><time>2026-04-12T08:11:20.984Z</time></trkpt><trkpt lat="37.8932913728447" lon="14.652557348933277"><ele>1382.5</ele><time>2026-04-12T08:11:21.984Z</time></trkpt><trkpt lat="37.89316641788608" lon="14.652597242691265"><ele>1379.0</ele><time>2026-04-12T08:11:22.984Z</time></trkpt><trkpt lat="37.89301744991585" lon="14.652603472128964"><ele>1379.0</ele><time>2026-04-12T08:11:23.984Z</time></trkpt><trkpt lat="37.89286997356297" lon="14.652604003944877"><ele>1379.0</ele><time>2026-04-12T08:11:24.984Z</time></trkpt><trkpt lat="37.89272937235576" lon="14.652616911032583"><ele>1379.0</ele><time>2026-04-12T08:11:25.984Z</time></trkpt><trkpt lat="37.89260232544368" lon="14.652680092264085"><ele>1379.0</ele><time>2026-04-12T08:11:26.984Z</time></trkpt><trkpt lat="37.89246868230822" lon="14.652775605447975"><ele>1381.25</ele><time>2026-04-12T08:11:27.984Z</time></trkpt><trkpt lat="37.892361863024384" lon="14.65289929891539"><ele>1383.5</ele><time>2026-04-12T08:11:28.984Z</time></trkpt><trkpt lat="37.89226912185216" lon="14.653018962300374"><ele>1385.75</ele><time>2026-04-12T08:11:29.987Z</time></trkpt><trkpt lat="37.89218130861337" lon="14.653130724143667"><ele>1388.0</ele><time>2026-04-12T08:11:30.986Z</time></trkpt><trkpt lat="37.892123636862685" lon="14.65326007639093"><ele>1388.0</ele><time>2026-04-12T08:11:31.986Z</time></trkpt><trkpt lat="37.892141663353996" lon="14.653380865849776"><ele>1388.0</ele><time>2026-04-12T08:11:32.986Z</time></trkpt><trkpt lat="37.89222840309705" lon="14.653450692129631"><ele>1388.0</ele><time>2026-04-12T08:11:33.987Z</time></trkpt><trkpt lat="37.892322782397024" lon="14.653448733887474"><ele>1388.0</ele><time>2026-04-12T08:11:34.987Z</time></trkpt><trkpt lat="37.8924150553795" lon="14.653381910188156"><ele>1388.0</ele><time>2026-04-12T08:11:35.986Z</time></trkpt><trkpt lat="37.892487100597556" lon="14.653266387260903"><ele>1388.0</ele><time>2026-04-12T08:11:36.986Z</time></trkpt><trkpt lat="37.892569994194886" lon="14.653137405323207"><ele>1388.0</ele><time>2026-04-12T08:11:37.986Z</time></trkpt><trkpt lat="37.89266611242594" lon="14.653038688264658"><ele>1388.0</ele><time>2026-04-12T08:11:38.987Z</time></trkpt><trkpt lat="37.89277013947367" lon="14.652978398723983"><ele>1388.0</ele><time>2026-04-12T08:11:39.987Z</time></trkpt><trkpt lat="37.89289122708509" lon="14.652981845728988"><ele>1391.0</ele><time>2026-04-12T08:11:40.987Z</time></trkpt><trkpt lat="37.89299520680149" lon="14.653055720359228"><ele>1394.0</ele><time>2026-04-12T08:11:41.986Z</time></trkpt><trkpt lat="37.893119016686114" lon="14.653124129235874"><ele>1397.0</ele><time>2026-04-12T08:11:42.986Z</time></trkpt><trkpt lat="37.89325933745594" lon="14.653180259777645"><ele>1400.0</ele><time>2026-04-12T08:11:43.986Z</time></trkpt><trkpt lat="37.89338214038685" lon="14.653259818086763"><ele>1402.0</ele><time>2026-04-12T08:11:44.986Z</time></trkpt><trkpt lat="37.8935004327155" lon="14.653309161244419"><ele>1404.0</ele><time>2026-04-12T08:11:45.986Z</time></trkpt><trkpt lat="37.893613793360835" lon="14.653301704329847"><ele>1406.0</ele><time>2026-04-12T08:11:46.986Z</time></trkpt><trkpt lat="37.89372391864817" lon="14.653230510243025"><ele>1408.0</ele><time>2026-04-12T08:11:47.986Z</time></trkpt><trkpt lat="37.893833346375715" lon="14.65311264275559"><ele>1408.0</ele><time>2026-04-12T08:11:48.986Z</time></trkpt><trkpt lat="37.89396340454698" lon="14.653007289109937"><ele>1408.0</ele><time>2026-04-12T08:11:49.986Z</time></trkpt><trkpt lat="37.89412129799662" lon="14.652956332816478"><ele>1408.0</ele><time>2026-04-12T08:11:50.986Z</time></trkpt><trkpt lat="37.89428418900659" lon="14.652925216788532"><ele>1410.3333333333333</ele><time>2026-04-12T08:11:51.986Z</time></trkpt><trkpt lat="37.89445012821259" lon="14.652891036691697"><ele>1412.6666666666667</ele><time>2026-04-12T08:11:52.986Z</time></trkpt><trkpt lat="37.89461083107442" lon="14.652866764079064"><ele>1415.0</ele><time>2026-04-12T08:11:53.986Z</time></trkpt><trkpt lat="37.89474964292251" lon="14.652944758546184"><ele>1415.0</ele><time>2026-04-12T08:11:54.986Z</time></trkpt><trkpt lat="37.89490475538107" lon="14.65303193723256"><ele>1415.0</ele><time>2026-04-12T08:11:55.985Z</time></trkpt><trkpt lat="37.89505558116659" lon="14.65308756422592"><ele>1415.0</ele><time>2026-04-12T08:11:56.985Z</time></trkpt><trkpt lat="37.895216105827075" lon="14.653073660605708"><ele>1417.6666666666667</ele><time>2026-04-12T08:11:57.985Z</time></trkpt><trkpt lat="37.89537601898751" lon="14.65302892662657"><ele>1420.3333333333333</ele><time>2026-04-12T08:11:58.985Z</time></trkpt><trkpt lat="37.89554771421887" lon="14.652982898478314"><ele>1423.0</ele><time>2026-04-12T08:11:59.985Z</time></trkpt><trkpt lat="37.89573179065216" lon="14.652991606202699"><ele>1423.0</ele><time>2026-04-12T08:12:00.985Z</time></trkpt><trkpt lat="37.89589080603482" lon="14.653055320167743"><ele>1423.0</ele><time>2026-04-12T08:12:01.985Z</time></trkpt><trkpt lat="37.896051783791705" lon="14.653063715265937"><ele>1423.0</ele><time>2026-04-12T08:12:02.985Z</time></trkpt><trkpt lat="37.896178943480464" lon="14.652990253616244"><ele>1420.75</ele><time>2026-04-12T08:12:03.985Z</time></trkpt><trkpt lat="37.896293028029966" lon="14.65287821084627"><ele>1418.5</ele><time>2026-04-12T08:12:04.985Z</time></trkpt><trkpt lat="37.89640140260142" lon="14.65273435182962"><ele>1416.25</ele><time>2026-04-12T08:12:05.985Z</time></trkpt><trkpt lat="37.89650253247367" lon="14.652603992674186"><ele>1414.0</ele><time>2026-04-12T08:12:06.985Z</time></trkpt><trkpt lat="37.896583280747" lon="14.652507302981954"><ele>1414.0</ele><time>2026-04-12T08:12:07.985Z</time></trkpt><trkpt lat="37.8966779680968" lon="14.652488424881938"><ele>1414.0</ele><time>2026-04-12T08:12:08.985Z</time></trkpt><trkpt lat="37.8967420506429" lon="14.652549278725186"><ele>1414.0</ele><time>2026-04-12T08:12:09.985Z</time></trkpt><trkpt lat="37.896767413992585" lon="14.65265322625456"><ele>1414.0</ele><time>2026-04-12T08:12:10.985Z</time></trkpt><trkpt lat="37.89673266106544" lon="14.652759622067691"><ele>1414.0</ele><time>2026-04-12T08:12:11.985Z</time></trkpt><trkpt lat="37.89664441704487" lon="14.652865672921488"><ele>1419.25</ele><time>2026-04-12T08:12:12.985Z</time></trkpt><trkpt lat="37.89652981452235" lon="14.652967511871358"><ele>1424.5</ele><time>2026-04-12T08:12:13.985Z</time></trkpt><trkpt lat="37.89640198569313" lon="14.653052817244989"><ele>1429.75</ele><time>2026-04-12T08:12:14.985Z</time></trkpt><trkpt lat="37.89627435641718" lon="14.653158768565083"><ele>1435.0</ele><time>2026-04-12T08:12:15.985Z</time></trkpt><trkpt lat="37.89613037769267" lon="14.653252112205406"><ele>1435.0</ele><time>2026-04-12T08:12:16.985Z</time></trkpt><trkpt lat="37.89598108530399" lon="14.653336600609714"><ele>1435.0</ele><time>2026-04-12T08:12:17.985Z</time></trkpt><trkpt lat="37.895828061865124" lon="14.65341975028311"><ele>1435.0</ele><time>2026-04-12T08:12:18.985Z</time></trkpt><trkpt lat="37.89567450383332" lon="14.653510055735305"><ele>1431.0</ele><time>2026-04-12T08:12:19.985Z</time></trkpt><trkpt lat="37.89553132929531" lon="14.65360249836468"><ele>1427.0</ele><time>2026-04-12T08:12:20.985Z</time></trkpt><trkpt lat="37.895394381435224" lon="14.653732614403214"><ele>1423.0</ele><time>2026-04-12T08:12:21.985Z</time></trkpt><trkpt lat="37.8952818461741" lon="14.653903527356295"><ele>1426.0</ele><time>2026-04-12T08:12:22.985Z</time></trkpt><trkpt lat="37.89518561916014" lon="14.654075798252972"><ele>1429.0</ele><time>2026-04-12T08:12:23.985Z</time></trkpt><trkpt lat="37.8950746183243" lon="14.654220568149162"><ele>1432.0</ele><time>2026-04-12T08:12:24.985Z</time></trkpt><trkpt lat="37.894981112804885" lon="14.654334606961205"><ele>1432.0</ele><time>2026-04-12T08:12:25.985Z</time></trkpt><trkpt lat="37.89485827264624" lon="14.654409598573663"><ele>1432.0</ele><time>2026-04-12T08:12:26.985Z</time></trkpt><trkpt lat="37.8947057892191" lon="14.654445575480027"><ele>1432.0</ele><time>2026-04-12T08:12:27.985Z</time></trkpt><trkpt lat="37.89453082731572" lon="14.654471524642865"><ele>1437.6666666666665</ele><time>2026-04-12T08:12:28.985Z</time></trkpt><trkpt lat="37.894349866368614" lon="14.654497697382679"><ele>1443.3333333333333</ele><time>2026-04-12T08:12:29.984Z</time></trkpt><trkpt lat="37.89416777282787" lon="14.6545291422499"><ele>1449.0</ele><time>2026-04-12T08:12:30.984Z</time></trkpt><trkpt lat="37.89399485275172" lon="14.65457793732826"><ele>1449.0</ele><time>2026-04-12T08:12:31.984Z</time></trkpt><trkpt lat="37.89383808388592" lon="14.65462521340445"><ele>1449.0</ele><time>2026-04-12T08:12:32.984Z</time></trkpt><trkpt lat="37.893687905532246" lon="14.654656002800584"><ele>1449.0</ele><time>2026-04-12T08:12:33.984Z</time></trkpt><trkpt lat="37.893553959627965" lon="14.654674999171222"><ele>1449.0</ele><time>2026-04-12T08:12:34.984Z</time></trkpt><trkpt lat="37.893447578231665" lon="14.65470600007468"><ele>1449.0</ele><time>2026-04-12T08:12:35.984Z</time></trkpt><trkpt lat="37.89337249256072" lon="14.654798358279745"><ele>1449.0</ele><time>2026-04-12T08:12:36.984Z</time></trkpt><trkpt lat="37.89338264559714" lon="14.654937025590304"><ele>1449.0</ele><time>2026-04-12T08:12:37.984Z</time></trkpt><trkpt lat="37.893428690290264" lon="14.655018227872498"><ele>1449.0</ele><time>2026-04-12T08:12:38.984Z</time></trkpt><trkpt lat="37.89352617328296" lon="14.655017245932308"><ele>1449.0</ele><time>2026-04-12T08:12:39.984Z</time></trkpt><trkpt lat="37.89363208678624" lon="14.654953840732297"><ele>1449.0</ele><time>2026-04-12T08:12:40.984Z</time></trkpt><trkpt lat="37.893763457942" lon="14.654884496341891"><ele>1449.0</ele><time>2026-04-12T08:12:41.984Z</time></trkpt><trkpt lat="37.89390966420938" lon="14.654819619016868"><ele>1449.0</ele><time>2026-04-12T08:12:42.984Z</time></trkpt><trkpt lat="37.89407455022995" lon="14.654801708931217"><ele>1449.0</ele><time>2026-04-12T08:12:43.984Z</time></trkpt><trkpt lat="37.894236179399094" lon="14.654802657633716"><ele>1449.0</ele><time>2026-04-12T08:12:44.984Z</time></trkpt><trkpt lat="37.89441623292373" lon="14.654809976480852"><ele>1449.0</ele><time>2026-04-12T08:12:45.984Z</time></trkpt><trkpt lat="37.89458265151851" lon="14.654816017227922"><ele>1452.3333333333333</ele><time>2026-04-12T08:12:46.984Z</time></trkpt><trkpt lat="37.894755193550594" lon="14.654810804616108"><ele>1455.6666666666665</ele><time>2026-04-12T08:12:47.984Z</time></trkpt><trkpt lat="37.89492955500928" lon="14.654768974229718"><ele>1459.0</ele><time>2026-04-12T08:12:48.984Z</time></trkpt><trkpt lat="37.89510212946248" lon="14.654689060564618"><ele>1456.3333333333333</ele><time>2026-04-12T08:12:49.984Z</time></trkpt><trkpt lat="37.895260027314784" lon="14.654568625011825"><ele>1453.6666666666667</ele><time>2026-04-12T08:12:50.984Z</time></trkpt><trkpt lat="37.895418604196564" lon="14.654434416318573"><ele>1451.0</ele><time>2026-04-12T08:12:51.984Z</time></trkpt><trkpt lat="37.89558431358689" lon="14.65433452197975"><ele>1451.0</ele><time>2026-04-12T08:12:52.984Z</time></trkpt><trkpt lat="37.89577069942764" lon="14.65425892363825"><ele>1451.0</ele><time>2026-04-12T08:12:53.984Z</time></trkpt><trkpt lat="37.895952676845994" lon="14.654207709000596"><ele>1451.0</ele><time>2026-04-12T08:12:54.984Z</time></trkpt><trkpt lat="37.896142386248734" lon="14.65417603564178"><ele>1453.3333333333335</ele><time>2026-04-12T08:12:55.984Z</time></trkpt><trkpt lat="37.89632251834057" lon="14.654168164718739"><ele>1455.6666666666667</ele><time>2026-04-12T08:12:56.984Z</time></trkpt><trkpt lat="37.89650280520712" lon="14.6541558670338"><ele>1458.0</ele><time>2026-04-12T08:12:57.984Z</time></trkpt><trkpt lat="37.89667607375289" lon="14.65418865090824"><ele>1457.0</ele><time>2026-04-12T08:12:58.984Z</time></trkpt><trkpt lat="37.89684007866964" lon="14.654246570139382"><ele>1456.0</ele><time>2026-04-12T08:12:59.984Z</time></trkpt><trkpt lat="37.8969976638849" lon="14.654338529483724"><ele>1455.0</ele><time>2026-04-12T08:13:00.984Z</time></trkpt><trkpt lat="37.89714856879095" lon="14.654446654506662"><ele>1458.6666666666667</ele><time>2026-04-12T08:13:01.984Z</time></trkpt><trkpt lat="37.89730266650388" lon="14.654585385653656"><ele>1462.3333333333335</ele><time>2026-04-12T08:13:02.984Z</time></trkpt><trkpt lat="37.89746356976529" lon="14.654732727169197"><ele>1466.0</ele><time>2026-04-12T08:13:03.984Z</time></trkpt><trkpt lat="37.897615561254966" lon="14.654873409970847"><ele>1466.0</ele><time>2026-04-12T08:13:04.983Z</time></trkpt><trkpt lat="37.89776024994646" lon="14.655028220069477"><ele>1466.0</ele><time>2026-04-12T08:13:05.983Z</time></trkpt><trkpt lat="37.89789748504855" lon="14.655147560863886"><ele>1466.0</ele><time>2026-04-12T08:13:06.983Z</time></trkpt><trkpt lat="37.89802485128845" lon="14.655264225531155"><ele>1466.0</ele><time>2026-04-12T08:13:07.983Z</time></trkpt><trkpt lat="37.89816187038843" lon="14.65530542467784"><ele>1466.0</ele><time>2026-04-12T08:13:08.983Z</time></trkpt><trkpt lat="37.89830522687861" lon="14.655282954907687"><ele>1466.0</ele><time>2026-04-12T08:13:09.983Z</time></trkpt><trkpt lat="37.89845671874841" lon="14.655209425097317"><ele>1466.0</ele><time>2026-04-12T08:13:10.983Z</time></trkpt><trkpt lat="37.89862604298753" lon="14.655111072858514"><ele>1466.6666666666667</ele><time>2026-04-12T08:13:11.983Z</time></trkpt><trkpt lat="37.89880383445359" lon="14.655058598247198"><ele>1467.3333333333333</ele><time>2026-04-12T08:13:12.983Z</time></trkpt><trkpt lat="37.8989795360061" lon="14.655014953452586"><ele>1468.0</ele><time>2026-04-12T08:13:13.983Z</time></trkpt><trkpt lat="37.89915293419904" lon="14.655005489221294"><ele>1467.0</ele><time>2026-04-12T08:13:14.983Z</time></trkpt><trkpt lat="37.89930939380884" lon="14.65500241915699"><ele>1466.0</ele><time>2026-04-12T08:13:15.983Z</time></trkpt><trkpt lat="37.899462123890025" lon="14.654991481590494"><ele>1465.0</ele><time>2026-04-12T08:13:16.983Z</time></trkpt><trkpt lat="37.899603787520796" lon="14.654922899639232"><ele>1465.0</ele><time>2026-04-12T08:13:17.983Z</time></trkpt><trkpt lat="37.899722520280434" lon="14.654805398151959"><ele>1465.0</ele><time>2026-04-12T08:13:18.983Z</time></trkpt><trkpt lat="37.89984313232598" lon="14.654655456234524"><ele>1465.0</ele><time>2026-04-12T08:13:19.983Z</time></trkpt><trkpt lat="37.89996788540107" lon="14.65450118297252"><ele>1466.3333333333333</ele><time>2026-04-12T08:13:20.983Z</time></trkpt><trkpt lat="37.90009882782868" lon="14.654357167979562"><ele>1467.6666666666667</ele><time>2026-04-12T08:13:21.983Z</time></trkpt><trkpt lat="37.90023935155342" lon="14.654212179645024"><ele>1469.0</ele><time>2026-04-12T08:13:22.983Z</time></trkpt><trkpt lat="37.90041229166522" lon="14.654095767209558"><ele>1469.0</ele><time>2026-04-12T08:13:23.983Z</time></trkpt><trkpt lat="37.9005740122493" lon="14.653964956051057"><ele>1469.0</ele><time>2026-04-12T08:13:24.983Z</time></trkpt><trkpt lat="37.900744869236" lon="14.653834408344366"><ele>1469.0</ele><time>2026-04-12T08:13:25.983Z</time></trkpt><trkpt lat="37.90090788597843" lon="14.653712714517805"><ele>1471.0</ele><time>2026-04-12T08:13:26.983Z</time></trkpt><trkpt lat="37.90106451109198" lon="14.653595433808887"><ele>1473.0</ele><time>2026-04-12T08:13:27.983Z</time></trkpt><trkpt lat="37.90120841782191" lon="14.653487676595942"><ele>1475.0</ele><time>2026-04-12T08:13:28.983Z</time></trkpt><trkpt lat="37.90134361468448" lon="14.653381791441143"><ele>1475.0</ele><time>2026-04-12T08:13:29.983Z</time></trkpt><trkpt lat="37.90146421127529" lon="14.653243890907106"><ele>1475.0</ele><time>2026-04-12T08:13:30.983Z</time></trkpt><trkpt lat="37.90154247404289" lon="14.65305578094502"><ele>1475.0</ele><time>2026-04-12T08:13:31.983Z</time></trkpt><trkpt lat="37.90161391484896" lon="14.652889378216807"><ele>1476.3333333333335</ele><time>2026-04-12T08:13:32.983Z</time></trkpt><trkpt lat="37.90172076939511" lon="14.65274601037897"><ele>1477.6666666666667</ele><time>2026-04-12T08:13:33.983Z</time></trkpt><trkpt lat="37.90186494097823" lon="14.652633546836503"><ele>1479.0</ele><time>2026-04-12T08:13:34.983Z</time></trkpt><trkpt lat="37.90202495019323" lon="14.652511545109276"><ele>1479.0</ele><time>2026-04-12T08:13:35.986Z</time></trkpt><trkpt lat="37.9021859144587" lon="14.652391987236664"><ele>1479.0</ele><time>2026-04-12T08:13:36.986Z</time></trkpt><trkpt lat="37.902337460080346" lon="14.652276047618695"><ele>1479.0</ele><time>2026-04-12T08:13:37.986Z</time></trkpt><trkpt lat="37.90248160365958" lon="14.652170204099871"><ele>1478.0</ele><time>2026-04-12T08:13:38.986Z</time></trkpt><trkpt lat="37.90263021149553" lon="14.65209822425713"><ele>1477.0</ele><time>2026-04-12T08:13:39.986Z</time></trkpt><trkpt lat="37.90279343032988" lon="14.65208622939809"><ele>1476.0</ele><time>2026-04-12T08:13:40.986Z</time></trkpt><trkpt lat="37.90296990450817" lon="14.652111175257737"><ele>1476.0</ele><time>2026-04-12T08:13:41.986Z</time></trkpt><trkpt lat="37.90316129237726" lon="14.652141493028195"><ele>1476.0</ele><time>2026-04-12T08:13:42.986Z</time></trkpt><trkpt lat="37.90336444692004" lon="14.652174079016936"><ele>1476.0</ele><time>2026-04-12T08:13:43.986Z</time></trkpt><trkpt lat="37.90356627809969" lon="14.652207705319116"><ele>1476.6666666666667</ele><time>2026-04-12T08:13:44.986Z</time></trkpt><trkpt lat="37.903766348088496" lon="14.652239433044421"><ele>1477.3333333333335</ele><time>2026-04-12T08:13:45.986Z</time></trkpt><trkpt lat="37.903966812406395" lon="14.652258786611291"><ele>1478.0</ele><time>2026-04-12T08:13:46.986Z</time></trkpt><trkpt lat="37.9041584670972" lon="14.652276185880757"><ele>1481.6666666666667</ele><time>2026-04-12T08:13:47.986Z</time></trkpt><trkpt lat="37.90433830392015" lon="14.65230072429023"><ele>1485.3333333333333</ele><time>2026-04-12T08:13:48.986Z</time></trkpt><trkpt lat="37.9045124242947" lon="14.652400695922626"><ele>1489.0</ele><time>2026-04-12T08:13:49.986Z</time></trkpt><trkpt lat="37.90467061610523" lon="14.65254959772642"><ele>1489.0</ele><time>2026-04-12T08:13:50.986Z</time></trkpt><trkpt lat="37.90482142318274" lon="14.652700130684577"><ele>1489.0</ele><time>2026-04-12T08:13:51.986Z</time></trkpt><trkpt lat="37.90496692636363" lon="14.65284357905259"><ele>1489.0</ele><time>2026-04-12T08:13:52.986Z</time></trkpt><trkpt lat="37.905119238758544" lon="14.652993416023449"><ele>1489.3333333333333</ele><time>2026-04-12T08:13:53.986Z</time></trkpt><trkpt lat="37.90527352429437" lon="14.65313283186201"><ele>1489.6666666666667</ele><time>2026-04-12T08:13:54.986Z</time></trkpt><trkpt lat="37.905427973581524" lon="14.653262354996707"><ele>1490.0</ele><time>2026-04-12T08:13:55.986Z</time></trkpt><trkpt lat="37.9055829427946" lon="14.65339926970833"><ele>1490.0</ele><time>2026-04-12T08:13:56.986Z</time></trkpt><trkpt lat="37.90574382657521" lon="14.653530438838358"><ele>1490.0</ele><time>2026-04-12T08:13:57.985Z</time></trkpt><trkpt lat="37.905901493375936" lon="14.653650536661212"><ele>1490.0</ele><time>2026-04-12T08:13:58.985Z</time></trkpt><trkpt lat="37.90606085218726" lon="14.653768980087275"><ele>1489.3333333333335</ele><time>2026-04-12T08:13:59.985Z</time></trkpt><trkpt lat="37.90623201789796" lon="14.653868798542698"><ele>1488.6666666666667</ele><time>2026-04-12T08:14:00.985Z</time></trkpt><trkpt lat="37.906413953821726" lon="14.653946096102272"><ele>1488.0</ele><time>2026-04-12T08:14:01.985Z</time></trkpt><trkpt lat="37.90659812788282" lon="14.654008173146913"><ele>1492.6666666666667</ele><time>2026-04-12T08:14:02.985Z</time></trkpt><trkpt lat="37.906782004244306" lon="14.65407229999182"><ele>1497.3333333333335</ele><time>2026-04-12T08:14:03.985Z</time></trkpt><trkpt lat="37.90696022186406" lon="14.654144075360149"><ele>1502.0</ele><time>2026-04-12T08:14:04.985Z</time></trkpt><trkpt lat="37.90713364289883" lon="14.654233996929506"><ele>1502.0</ele><time>2026-04-12T08:14:05.985Z</time></trkpt><trkpt lat="37.90731386426424" lon="14.654316581862778"><ele>1502.0</ele><time>2026-04-12T08:14:06.985Z</time></trkpt><trkpt lat="37.90749678172591" lon="14.654411611604369"><ele>1502.0</ele><time>2026-04-12T08:14:07.985Z</time></trkpt><trkpt lat="37.9076784151923" lon="14.654507880298594"><ele>1498.3333333333335</ele><time>2026-04-12T08:14:08.985Z</time></trkpt><trkpt lat="37.90785450584892" lon="14.654579465249885"><ele>1494.6666666666667</ele><time>2026-04-12T08:14:09.985Z</time></trkpt><trkpt lat="37.90802826678197" lon="14.654655244462063"><ele>1491.0</ele><time>2026-04-12T08:14:10.985Z</time></trkpt><trkpt lat="37.90820363848303" lon="14.654702535030209"><ele>1491.0</ele><time>2026-04-12T08:14:11.985Z</time></trkpt><trkpt lat="37.908378689990265" lon="14.654740999198367"><ele>1491.0</ele><time>2026-04-12T08:14:12.985Z</time></trkpt><trkpt lat="37.908540087997935" lon="14.654778165793008"><ele>1491.0</ele><time>2026-04-12T08:14:13.985Z</time></trkpt><trkpt lat="37.90868029329848" lon="14.65483299107217"><ele>1494.6666666666667</ele><time>2026-04-12T08:14:14.985Z</time></trkpt><trkpt lat="37.908781391343325" lon="14.654947281235637"><ele>1498.3333333333335</ele><time>2026-04-12T08:14:15.985Z</time></trkpt><trkpt lat="37.90888302477273" lon="14.655099136690655"><ele>1502.0</ele><time>2026-04-12T08:14:16.985Z</time></trkpt><trkpt lat="37.908996223176544" lon="14.655268943990182"><ele>1501.6666666666667</ele><time>2026-04-12T08:14:17.985Z</time></trkpt><trkpt lat="37.90911419599276" lon="14.655447119773406"><ele>1501.3333333333333</ele><time>2026-04-12T08:14:18.985Z</time></trkpt><trkpt lat="37.90925079376228" lon="14.6556223330535"><ele>1501.0</ele><time>2026-04-12T08:14:19.985Z</time></trkpt><trkpt lat="37.90934834871957" lon="14.65579346121491"><ele>1501.0</ele><time>2026-04-12T08:14:20.985Z</time></trkpt><trkpt lat="37.909449499439646" lon="14.655941112426381"><ele>1501.0</ele><time>2026-04-12T08:14:21.985Z</time></trkpt><trkpt lat="37.90955837421794" lon="14.656067130806496"><ele>1501.0</ele><time>2026-04-12T08:14:22.985Z</time></trkpt><trkpt lat="37.909677846850805" lon="14.656153523257371"><ele>1501.0</ele><time>2026-04-12T08:14:23.985Z</time></trkpt><trkpt lat="37.90981467145704" lon="14.656168949602067"><ele>1499.3333333333333</ele><time>2026-04-12T08:14:24.985Z</time></trkpt><trkpt lat="37.90997342844967" lon="14.656152369514691"><ele>1497.6666666666667</ele><time>2026-04-12T08:14:25.985Z</time></trkpt><trkpt lat="37.910142123241776" lon="14.656079863023587"><ele>1496.0</ele><time>2026-04-12T08:14:26.985Z</time></trkpt><trkpt lat="37.910315907318825" lon="14.656001511440014"><ele>1496.0</ele><time>2026-04-12T08:14:27.985Z</time></trkpt><trkpt lat="37.91049575986359" lon="14.655919240986863"><ele>1496.0</ele><time>2026-04-12T08:14:28.985Z</time></trkpt><trkpt lat="37.910670458191284" lon="14.655838912920713"><ele>1496.0</ele><time>2026-04-12T08:14:29.985Z</time></trkpt><trkpt lat="37.91083592576756" lon="14.655763239954844"><ele>1497.75</ele><time>2026-04-12T08:14:30.984Z</time></trkpt><trkpt lat="37.9109821572315" lon="14.655697051482576"><ele>1499.5</ele><time>2026-04-12T08:14:31.984Z</time></trkpt><trkpt lat="37.91110060170599" lon="14.655654391691"><ele>1501.25</ele><time>2026-04-12T08:14:32.984Z</time></trkpt><trkpt lat="37.91119898134877" lon="14.655656855277176"><ele>1503.0</ele><time>2026-04-12T08:14:33.984Z</time></trkpt><trkpt lat="37.91128935667716" lon="14.65571723116326"><ele>1503.0</ele><time>2026-04-12T08:14:34.984Z</time></trkpt><trkpt lat="37.91136288080319" lon="14.655842843247608"><ele>1503.0</ele><time>2026-04-12T08:14:35.984Z</time></trkpt><trkpt lat="37.91141908153665" lon="14.655997334850307"><ele>1503.0</ele><time>2026-04-12T08:14:36.984Z</time></trkpt><trkpt lat="37.911451184648314" lon="14.65617654491648"><ele>1503.0</ele><time>2026-04-12T08:14:37.984Z</time></trkpt><trkpt lat="37.91151432921526" lon="14.656334421218368"><ele>1501.0</ele><time>2026-04-12T08:14:38.984Z</time></trkpt><trkpt lat="37.91160672805711" lon="14.656473105478833"><ele>1499.0</ele><time>2026-04-12T08:14:39.984Z</time></trkpt><trkpt lat="37.91173971871909" lon="14.656574330522652"><ele>1497.0</ele><time>2026-04-12T08:14:40.984Z</time></trkpt><trkpt lat="37.91189866650024" lon="14.656573820525498"><ele>1497.0</ele><time>2026-04-12T08:14:41.984Z</time></trkpt><trkpt lat="37.912060726763556" lon="14.656568642417218"><ele>1497.0</ele><time>2026-04-12T08:14:42.984Z</time></trkpt><trkpt lat="37.91222745780725" lon="14.656552732936701"><ele>1497.0</ele><time>2026-04-12T08:14:43.984Z</time></trkpt><trkpt lat="37.91240250240976" lon="14.656537482847744"><ele>1497.0</ele><time>2026-04-12T08:14:44.984Z</time></trkpt><trkpt lat="37.9125711522757" lon="14.656536615599478"><ele>1497.0</ele><time>2026-04-12T08:14:45.984Z</time></trkpt><trkpt lat="37.912729296857016" lon="14.656584605033691"><ele>1497.0</ele><time>2026-04-12T08:14:46.984Z</time></trkpt><trkpt lat="37.91287185432273" lon="14.65663083312853"><ele>1497.3333333333333</ele><time>2026-04-12T08:14:47.984Z</time></trkpt><trkpt lat="37.9130145509744" lon="14.656656955994322"><ele>1497.6666666666665</ele><time>2026-04-12T08:14:48.984Z</time></trkpt><trkpt lat="37.91316070332203" lon="14.656600357504223"><ele>1498.0</ele><time>2026-04-12T08:14:49.984Z</time></trkpt><trkpt lat="37.913302713515144" lon="14.656490324304716"><ele>1496.3333333333333</ele><time>2026-04-12T08:14:50.984Z</time></trkpt><trkpt lat="37.9134455638545" lon="14.656381253719362"><ele>1494.6666666666667</ele><time>2026-04-12T08:14:51.984Z</time></trkpt><trkpt lat="37.91358487832493" lon="14.656252174665713"><ele>1493.0</ele><time>2026-04-12T08:14:52.984Z</time></trkpt><trkpt lat="37.91372311112374" lon="14.656107123964423"><ele>1496.6666666666667</ele><time>2026-04-12T08:14:53.984Z</time></trkpt><trkpt lat="37.91387830064565" lon="14.65598715431734"><ele>1500.3333333333333</ele><time>2026-04-12T08:14:54.984Z</time></trkpt><trkpt lat="37.91401178110584" lon="14.655863385851616"><ele>1504.0</ele><time>2026-04-12T08:14:55.984Z</time></trkpt><trkpt lat="37.914124702946694" lon="14.65570915594417"><ele>1504.0</ele><time>2026-04-12T08:14:56.984Z</time></trkpt><trkpt lat="37.91420399457148" lon="14.6555574463763"><ele>1504.0</ele><time>2026-04-12T08:14:57.984Z</time></trkpt><trkpt lat="37.914283594113954" lon="14.655429764441985"><ele>1504.0</ele><time>2026-04-12T08:14:58.984Z</time></trkpt><trkpt lat="37.914386382775746" lon="14.65535243706587"><ele>1504.0</ele><time>2026-04-12T08:14:59.983Z</time></trkpt><trkpt lat="37.914540928588416" lon="14.655301587709726"><ele>1506.3333333333333</ele><time>2026-04-12T08:15:00.983Z</time></trkpt><trkpt lat="37.91470349561736" lon="14.655216084171087"><ele>1508.6666666666667</ele><time>2026-04-12T08:15:01.983Z</time></trkpt><trkpt lat="37.91485339391237" lon="14.655106095038276"><ele>1511.0</ele><time>2026-04-12T08:15:02.983Z</time></trkpt><trkpt lat="37.91498856141727" lon="14.655010117488404"><ele>1514.0</ele><time>2026-04-12T08:15:03.983Z</time></trkpt><trkpt lat="37.91511787893211" lon="14.654959094354735"><ele>1517.0</ele><time>2026-04-12T08:15:04.983Z</time></trkpt><trkpt lat="37.915266282214716" lon="14.654955084885472"><ele>1520.0</ele><time>2026-04-12T08:15:05.983Z</time></trkpt><trkpt lat="37.91543039038374" lon="14.654988733440558"><ele>1520.0</ele><time>2026-04-12T08:15:06.983Z</time></trkpt><trkpt lat="37.91559527163352" lon="14.655027222152633"><ele>1520.0</ele><time>2026-04-12T08:15:07.983Z</time></trkpt><trkpt lat="37.9157497258119" lon="14.655107151379356"><ele>1520.0</ele><time>2026-04-12T08:15:08.983Z</time></trkpt><trkpt lat="37.91589915216032" lon="14.655175454104846"><ele>1519.25</ele><time>2026-04-12T08:15:09.983Z</time></trkpt><trkpt lat="37.9160488488506" lon="14.655233674426812"><ele>1518.5</ele><time>2026-04-12T08:15:10.983Z</time></trkpt><trkpt lat="37.916181716026045" lon="14.655311991162435"><ele>1517.75</ele><time>2026-04-12T08:15:11.983Z</time></trkpt><trkpt lat="37.91632621806862" lon="14.655338917424919"><ele>1517.0</ele><time>2026-04-12T08:15:12.983Z</time></trkpt><trkpt lat="37.91646358871592" lon="14.655420415513003"><ele>1517.0</ele><time>2026-04-12T08:15:13.983Z</time></trkpt><trkpt lat="37.916586428649595" lon="14.655548984829759"><ele>1517.0</ele><time>2026-04-12T08:15:14.983Z</time></trkpt><trkpt lat="37.91668884275638" lon="14.655726259239916"><ele>1517.0</ele><time>2026-04-12T08:15:15.983Z</time></trkpt><trkpt lat="37.91701164097607" lon="14.655788291023107"><ele>1519.0</ele><time>2026-04-12T08:15:17.983Z</time></trkpt><trkpt lat="37.91708772977819" lon="14.655841873756959"><ele>1521.0</ele><time>2026-04-12T08:15:18.983Z</time></trkpt><trkpt lat="37.91716447874178" lon="14.655900808537277"><ele>1523.0</ele><time>2026-04-12T08:15:19.983Z</time></trkpt><trkpt lat="37.91748511104293" lon="14.655684504091615"><ele>1521.6666666666667</ele><time>2026-04-12T08:15:21.983Z</time></trkpt><trkpt lat="37.91761299251993" lon="14.655557432338666"><ele>1520.3333333333333</ele><time>2026-04-12T08:15:22.983Z</time></trkpt><trkpt lat="37.91774409835686" lon="14.655454688769067"><ele>1519.0</ele><time>2026-04-12T08:15:23.983Z</time></trkpt><trkpt lat="37.91788309177605" lon="14.655405996502614"><ele>1519.0</ele><time>2026-04-12T08:15:24.983Z</time></trkpt><trkpt lat="37.918046910065364" lon="14.655366125958384"><ele>1519.0</ele><time>2026-04-12T08:15:25.983Z</time></trkpt><trkpt lat="37.918217713208186" lon="14.655323948900188"><ele>1519.0</ele><time>2026-04-12T08:15:26.983Z</time></trkpt><trkpt lat="37.91834968799868" lon="14.655260855758137"><ele>1521.5</ele><time>2026-04-12T08:15:27.983Z</time></trkpt><trkpt lat="37.91846225580552" lon="14.655178383337267"><ele>1524.0</ele><time>2026-04-12T08:15:28.983Z</time></trkpt><trkpt lat="37.91853784728303" lon="14.655067940682118"><ele>1526.5</ele><time>2026-04-12T08:15:29.983Z</time></trkpt><trkpt lat="37.91860644928544" lon="14.654934338033284"><ele>1529.0</ele><time>2026-04-12T08:15:30.983Z</time></trkpt><trkpt lat="37.91866639369331" lon="14.654817801185299"><ele>1529.0</ele><time>2026-04-12T08:15:31.983Z</time></trkpt><trkpt lat="37.918735036347705" lon="14.654724141764422"><ele>1529.0</ele><time>2026-04-12T08:15:32.983Z</time></trkpt><trkpt lat="37.918792604880835" lon="14.654647329367414"><ele>1529.0</ele><time>2026-04-12T08:15:33.983Z</time></trkpt><trkpt lat="37.91884181214001" lon="14.654586877652878"><ele>1529.0</ele><time>2026-04-12T08:15:34.983Z</time></trkpt><trkpt lat="37.91891402468576" lon="14.654507045502557"><ele>1529.0</ele><time>2026-04-12T08:15:36.983Z</time></trkpt><trkpt lat="37.9189729740833" lon="14.654472585392114"><ele>1529.0</ele><time>2026-04-12T08:15:39.982Z</time></trkpt><trkpt lat="37.91901349225237" lon="14.654374877321255"><ele>1530.25</ele><time>2026-04-12T08:25:19.983Z</time></trkpt><trkpt lat="37.919213191173135" lon="14.654404422098343"><ele>1531.5</ele><time>2026-04-12T08:25:21.983Z</time></trkpt><trkpt lat="37.91931246822569" lon="14.654357470472899"><ele>1532.75</ele><time>2026-04-12T08:25:23.983Z</time></trkpt><trkpt lat="37.91941427266117" lon="14.654372805792974"><ele>1534.0</ele><time>2026-04-12T08:25:25.983Z</time></trkpt><trkpt lat="37.9195236959644" lon="14.654384119636163"><ele>1533.6</ele><time>2026-04-12T08:25:27.983Z</time></trkpt><trkpt lat="37.91958413059458" lon="14.654411111766667"><ele>1533.2</ele><time>2026-04-12T08:25:28.983Z</time></trkpt><trkpt lat="37.91968499959662" lon="14.654456190229011"><ele>1532.8</ele><time>2026-04-12T08:25:30.983Z</time></trkpt><trkpt lat="37.919791968641285" lon="14.654494875811322"><ele>1532.3999999999999</ele><time>2026-04-12T08:25:32.983Z</time></trkpt><trkpt lat="37.91990733664031" lon="14.654517800037395"><ele>1532.0</ele><time>2026-04-12T08:25:34.983Z</time></trkpt><trkpt lat="37.92000375832656" lon="14.654530490436697"><ele>1533.0</ele><time>2026-04-12T08:25:36.983Z</time></trkpt><trkpt lat="37.92013611028496" lon="14.654546513544174"><ele>1534.0</ele><time>2026-04-12T08:25:38.982Z</time></trkpt><trkpt lat="37.92024715050001" lon="14.654547488935274"><ele>1535.0</ele><time>2026-04-12T08:25:39.982Z</time></trkpt><trkpt lat="37.92031225041726" lon="14.654577823195833"><ele>1536.0</ele><time>2026-04-12T08:25:40.982Z</time></trkpt><trkpt lat="37.92042280098621" lon="14.654600257910095"><ele>1537.0</ele><time>2026-04-12T08:25:42.982Z</time></trkpt><trkpt lat="37.9205180301235" lon="14.654659530397916"><ele>1537.0000000000002</ele><time>2026-04-12T08:25:44.982Z</time></trkpt><trkpt lat="37.9205709205493" lon="14.654708828288342"><ele>1537.0</ele><time>2026-04-12T08:25:46.982Z</time></trkpt><trkpt lat="37.92063255221058" lon="14.654766955963616"><ele>1537.0</ele><time>2026-04-12T08:25:48.982Z</time></trkpt><trkpt lat="37.9206994711178" lon="14.654828961790292"><ele>1537.0</ele><time>2026-04-12T08:25:50.982Z</time></trkpt><trkpt lat="37.92077359083375" lon="14.654900471057264"><ele>1537.0000000000002</ele><time>2026-04-12T08:25:52.982Z</time></trkpt><trkpt lat="37.9208211349264" lon="14.654953847733477"><ele>1537.0</ele><time>2026-04-12T08:25:53.982Z</time></trkpt><trkpt lat="37.92090266838683" lon="14.655064906642247"><ele>1538.0</ele><time>2026-04-12T08:25:55.982Z</time></trkpt><trkpt lat="37.92094238959274" lon="14.655127638034006"><ele>1539.0</ele><time>2026-04-12T08:25:56.982Z</time></trkpt><trkpt lat="37.920980304453266" lon="14.655194422650478"><ele>1540.0</ele><time>2026-04-12T08:25:57.982Z</time></trkpt><trkpt lat="37.92104908730843" lon="14.655295301668916"><ele>1541.0</ele><time>2026-04-12T08:25:59.982Z</time></trkpt><trkpt lat="37.92112463335125" lon="14.655411329471214"><ele>1542.0</ele><time>2026-04-12T08:26:01.982Z</time></trkpt><trkpt lat="37.92120589605476" lon="14.655530180036774"><ele>1542.0</ele><time>2026-04-12T08:26:03.982Z</time></trkpt><trkpt lat="37.92124482591727" lon="14.655593460325154"><ele>1542.0</ele><time>2026-04-12T08:26:04.982Z</time></trkpt><trkpt lat="37.92129585058533" lon="14.655733779837727"><ele>1542.0</ele><time>2026-04-12T08:26:06.982Z</time></trkpt><trkpt lat="37.92135249089329" lon="14.655864103195528"><ele>1542.0</ele><time>2026-04-12T08:26:08.982Z</time></trkpt><trkpt lat="37.92139596242055" lon="14.655980000847608"><ele>1542.0</ele><time>2026-04-12T08:26:10.982Z</time></trkpt><trkpt lat="37.92144830084011" lon="14.656091711227733"><ele>1540.8</ele><time>2026-04-12T08:26:12.984Z</time></trkpt><trkpt lat="37.921477895698246" lon="14.656179055792775"><ele>1539.6</ele><time>2026-04-12T08:26:13.984Z</time></trkpt><trkpt lat="37.921522039906236" lon="14.656248087227917"><ele>1538.3999999999999</ele><time>2026-04-12T08:26:14.983Z</time></trkpt><trkpt lat="37.92160673217339" lon="14.656369914601584"><ele>1537.1999999999998</ele><time>2026-04-12T08:26:16.983Z</time></trkpt><trkpt lat="37.92168892768877" lon="14.656467619436832"><ele>1536.0</ele><time>2026-04-12T08:26:18.983Z</time></trkpt><trkpt lat="37.921739986438844" lon="14.65654019926689"><ele>1538.6</ele><time>2026-04-12T08:26:20.983Z</time></trkpt><trkpt lat="37.92181297312308" lon="14.656607401179466"><ele>1541.1999999999998</ele><time>2026-04-12T08:26:22.983Z</time></trkpt><trkpt lat="37.92188097938523" lon="14.656666351498252"><ele>1543.8000000000002</ele><time>2026-04-12T08:26:24.983Z</time></trkpt><trkpt lat="37.92197093972543" lon="14.656743391737598"><ele>1546.4</ele><time>2026-04-12T08:26:26.983Z</time></trkpt><trkpt lat="37.922058174539" lon="14.656844871260258"><ele>1549.0</ele><time>2026-04-12T08:26:28.982Z</time></trkpt><trkpt lat="37.92213903538405" lon="14.6569619604977"><ele>1549.0</ele><time>2026-04-12T08:26:30.982Z</time></trkpt><trkpt lat="37.92220780559183" lon="14.657062681631976"><ele>1549.0</ele><time>2026-04-12T08:26:32.982Z</time></trkpt><trkpt lat="37.922268724044145" lon="14.657184077177408"><ele>1549.0</ele><time>2026-04-12T08:26:34.982Z</time></trkpt><trkpt lat="37.92232947977566" lon="14.657270588907451"><ele>1549.0</ele><time>2026-04-12T08:26:36.982Z</time></trkpt><trkpt lat="37.92242159754788" lon="14.657363268170577"><ele>1549.0</ele><time>2026-04-12T08:26:38.982Z</time></trkpt><trkpt lat="37.92247151047213" lon="14.657424237525907"><ele>1549.0000000000002</ele><time>2026-04-12T08:26:39.982Z</time></trkpt><trkpt lat="37.92250925488922" lon="14.657490904416518"><ele>1549.0</ele><time>2026-04-12T08:26:40.982Z</time></trkpt><trkpt lat="37.92258001916276" lon="14.657590012081036"><ele>1549.0</ele><time>2026-04-12T08:26:42.982Z</time></trkpt><trkpt lat="37.9226412892082" lon="14.657631717349625"><ele>1549.0</ele><time>2026-04-12T08:26:44.982Z</time></trkpt><trkpt lat="37.922708393545825" lon="14.657696276536539"><ele>1549.0000000000002</ele><time>2026-04-12T08:26:46.982Z</time></trkpt><trkpt lat="37.9227814312589" lon="14.657785142327352"><ele>1549.0</ele><time>2026-04-12T08:26:48.982Z</time></trkpt><trkpt lat="37.92285102594016" lon="14.657887256898968"><ele>1549.6</ele><time>2026-04-12T08:26:50.982Z</time></trkpt><trkpt lat="37.922914032777115" lon="14.657956527870539"><ele>1550.2</ele><time>2026-04-12T08:26:52.982Z</time></trkpt><trkpt lat="37.92300620037492" lon="14.658026172552669"><ele>1550.8</ele><time>2026-04-12T08:26:54.982Z</time></trkpt><trkpt lat="37.92309485340559" lon="14.658105183778437"><ele>1551.3999999999999</ele><time>2026-04-12T08:26:56.982Z</time></trkpt><trkpt lat="37.9231491081358" lon="14.65814698417131"><ele>1552.0</ele><time>2026-04-12T08:26:57.982Z</time></trkpt><trkpt lat="37.92324359350694" lon="14.658205326683692"><ele>1552.0</ele><time>2026-04-12T08:26:59.982Z</time></trkpt><trkpt lat="37.92331323068613" lon="14.658227358558356"><ele>1552.0</ele><time>2026-04-12T08:27:00.982Z</time></trkpt><trkpt lat="37.92337482151243" lon="14.658261454278607"><ele>1552.0</ele><time>2026-04-12T08:27:01.981Z</time></trkpt><trkpt lat="37.923471305559225" lon="14.658275493301968"><ele>1552.0</ele><time>2026-04-12T08:27:02.981Z</time></trkpt><trkpt lat="37.92354421250746" lon="14.65828463254546"><ele>1552.0</ele><time>2026-04-12T08:27:03.981Z</time></trkpt><trkpt lat="37.92361231424457" lon="14.658293169442043"><ele>1552.0</ele><time>2026-04-12T08:27:04.981Z</time></trkpt><trkpt lat="37.92367776420226" lon="14.658302541542238"><ele>1552.0</ele><time>2026-04-12T08:27:05.981Z</time></trkpt><trkpt lat="37.92374199902672" lon="14.658312986534568"><ele>1552.6</ele><time>2026-04-12T08:27:06.981Z</time></trkpt><trkpt lat="37.92383087936237" lon="14.658421907157047"><ele>1553.1999999999998</ele><time>2026-04-12T08:27:08.981Z</time></trkpt><trkpt lat="37.92385943136621" lon="14.658493759098345"><ele>1553.8</ele><time>2026-04-12T08:27:09.981Z</time></trkpt><trkpt lat="37.9238959170172" lon="14.658604335280293"><ele>1554.4</ele><time>2026-04-12T08:27:11.981Z</time></trkpt><trkpt lat="37.92393969287011" lon="14.658691832723704"><ele>1555.0</ele><time>2026-04-12T08:27:12.981Z</time></trkpt><trkpt lat="37.923996437144815" lon="14.658795834905293"><ele>1555.0</ele><time>2026-04-12T08:27:13.981Z</time></trkpt><trkpt lat="37.92406295856015" lon="14.658926062454158"><ele>1555.0</ele><time>2026-04-12T08:27:14.981Z</time></trkpt><trkpt lat="37.92413861387363" lon="14.659057095505846"><ele>1555.0</ele><time>2026-04-12T08:27:15.981Z</time></trkpt><trkpt lat="37.92423050907846" lon="14.65919501182765"><ele>1555.0</ele><time>2026-04-12T08:27:16.981Z</time></trkpt><trkpt lat="37.92434238609904" lon="14.65935288601094"><ele>1557.6</ele><time>2026-04-12T08:27:17.981Z</time></trkpt><trkpt lat="37.92442870906947" lon="14.659455006843576"><ele>1560.2</ele><time>2026-04-12T08:27:18.981Z</time></trkpt><trkpt lat="37.92450143738787" lon="14.659547787612754"><ele>1562.8000000000002</ele><time>2026-04-12T08:27:19.981Z</time></trkpt><trkpt lat="37.924533061687676" lon="14.659655140011921"><ele>1565.4</ele><time>2026-04-12T08:27:20.981Z</time></trkpt><trkpt lat="37.92455394605533" lon="14.659747337716933"><ele>1568.0</ele><time>2026-04-12T08:27:21.981Z</time></trkpt><trkpt lat="37.92456318632474" lon="14.659853246224396"><ele>1567.9999999999998</ele><time>2026-04-12T08:27:22.981Z</time></trkpt><trkpt lat="37.92458208697803" lon="14.659983365976903"><ele>1568.0</ele><time>2026-04-12T08:27:23.981Z</time></trkpt><trkpt lat="37.924569933801436" lon="14.66009992129695"><ele>1568.0</ele><time>2026-04-12T08:27:24.981Z</time></trkpt><trkpt lat="37.924574494265734" lon="14.660206904615139"><ele>1568.0</ele><time>2026-04-12T08:27:25.981Z</time></trkpt><trkpt lat="37.9245993406833" lon="14.660293755918524"><ele>1567.9999999999998</ele><time>2026-04-12T08:27:26.981Z</time></trkpt><trkpt lat="37.924615401308785" lon="14.660386055693552"><ele>1568.0</ele><time>2026-04-12T08:27:27.981Z</time></trkpt><trkpt lat="37.92460798013615" lon="14.660476481164107"><ele>1566.2</ele><time>2026-04-12T08:27:28.981Z</time></trkpt><trkpt lat="37.92461600603264" lon="14.66059758312978"><ele>1564.4</ele><time>2026-04-12T08:27:29.981Z</time></trkpt><trkpt lat="37.924619398899054" lon="14.660716124611819"><ele>1562.6000000000001</ele><time>2026-04-12T08:27:30.981Z</time></trkpt><trkpt lat="37.92463626100006" lon="14.660835191199828"><ele>1560.8000000000002</ele><time>2026-04-12T08:27:31.981Z</time></trkpt><trkpt lat="37.92465614971652" lon="14.660944982189868"><ele>1559.0</ele><time>2026-04-12T08:27:32.981Z</time></trkpt><trkpt lat="37.92466713284242" lon="14.661064301581973"><ele>1557.9999999999998</ele><time>2026-04-12T08:27:33.981Z</time></trkpt><trkpt lat="37.92467184150213" lon="14.661194724856957"><ele>1557.0</ele><time>2026-04-12T08:27:34.981Z</time></trkpt><trkpt lat="37.92467000446463" lon="14.661333473046943"><ele>1556.0</ele><time>2026-04-12T08:27:35.98Z</time></trkpt><trkpt lat="37.9246713490619" lon="14.661435357573644"><ele>1555.0</ele><time>2026-04-12T08:27:36.98Z</time></trkpt><trkpt lat="37.9246541904298" lon="14.6615236288422"><ele>1553.9999999999998</ele><time>2026-04-12T08:27:37.98Z</time></trkpt><trkpt lat="37.92465305108383" lon="14.661627360295729"><ele>1553.0</ele><time>2026-04-12T08:27:38.98Z</time></trkpt><trkpt lat="37.92462994754605" lon="14.661716160200578"><ele>1552.9999999999998</ele><time>2026-04-12T08:27:39.98Z</time></trkpt><trkpt lat="37.92461940507589" lon="14.66180269094718"><ele>1553.0</ele><time>2026-04-12T08:27:40.98Z</time></trkpt><trkpt lat="37.92460312448187" lon="14.661883615851618"><ele>1553.0</ele><time>2026-04-12T08:27:41.98Z</time></trkpt><trkpt lat="37.92458516957928" lon="14.661978509626097"><ele>1553.0</ele><time>2026-04-12T08:27:42.98Z</time></trkpt><trkpt lat="37.92456421471073" lon="14.662087021317546"><ele>1552.9999999999998</ele><time>2026-04-12T08:27:43.98Z</time></trkpt><trkpt lat="37.92454893429458" lon="14.66220503041466"><ele>1553.0</ele><time>2026-04-12T08:27:44.98Z</time></trkpt><trkpt lat="37.924533076942424" lon="14.662322037084634"><ele>1553.3333333333333</ele><time>2026-04-12T08:27:45.98Z</time></trkpt><trkpt lat="37.92451435411336" lon="14.662429367392544"><ele>1553.6666666666665</ele><time>2026-04-12T08:27:46.98Z</time></trkpt><trkpt lat="37.92450347692936" lon="14.662533841547594"><ele>1554.0</ele><time>2026-04-12T08:27:47.98Z</time></trkpt><trkpt lat="37.92449242825839" lon="14.662643896463099"><ele>1554.3333333333335</ele><time>2026-04-12T08:27:48.98Z</time></trkpt><trkpt lat="37.92448389851664" lon="14.662749949208946"><ele>1554.6666666666667</ele><time>2026-04-12T08:27:49.98Z</time></trkpt><trkpt lat="37.924474032395125" lon="14.66286846055961"><ele>1555.0</ele><time>2026-04-12T08:27:50.98Z</time></trkpt><trkpt lat="37.924473970722964" lon="14.663011730587776"><ele>1555.5</ele><time>2026-04-12T08:27:51.98Z</time></trkpt><trkpt lat="37.92448178063211" lon="14.663152216353783"><ele>1556.0</ele><time>2026-04-12T08:27:52.98Z</time></trkpt><trkpt lat="37.92450876040639" lon="14.663300874676182"><ele>1556.5</ele><time>2026-04-12T08:27:53.98Z</time></trkpt><trkpt lat="37.92455108499156" lon="14.663450427103385"><ele>1557.0</ele><time>2026-04-12T08:27:54.98Z</time></trkpt><trkpt lat="37.92459085037128" lon="14.663598416731196"><ele>1557.8</ele><time>2026-04-12T08:27:55.98Z</time></trkpt><trkpt lat="37.924638794290644" lon="14.663732864715259"><ele>1558.6</ele><time>2026-04-12T08:27:56.98Z</time></trkpt><trkpt lat="37.92467603871124" lon="14.663860967209853"><ele>1559.3999999999999</ele><time>2026-04-12T08:27:57.98Z</time></trkpt><trkpt lat="37.92471556081787" lon="14.663983886353959"><ele>1560.1999999999998</ele><time>2026-04-12T08:27:58.98Z</time></trkpt><trkpt lat="37.92474000319156" lon="14.664106584071508"><ele>1561.0</ele><time>2026-04-12T08:27:59.98Z</time></trkpt><trkpt lat="37.924760173863234" lon="14.664228820611743"><ele>1561.0</ele><time>2026-04-12T08:28:00.98Z</time></trkpt><trkpt lat="37.92476562334671" lon="14.664363415308037"><ele>1561.0</ele><time>2026-04-12T08:28:01.98Z</time></trkpt><trkpt lat="37.92473317505027" lon="14.664485163279089"><ele>1561.0</ele><time>2026-04-12T08:28:02.98Z</time></trkpt><trkpt lat="37.92471466809688" lon="14.664590705650324"><ele>1561.0</ele><time>2026-04-12T08:28:03.98Z</time></trkpt><trkpt lat="37.92467202222663" lon="14.664711661912063"><ele>1561.0</ele><time>2026-04-12T08:28:04.98Z</time></trkpt><trkpt lat="37.92463681375982" lon="14.664831555007037"><ele>1561.5000000000002</ele><time>2026-04-12T08:28:05.98Z</time></trkpt><trkpt lat="37.92463656065438" lon="14.664948067938173"><ele>1562.0</ele><time>2026-04-12T08:28:06.98Z</time></trkpt><trkpt lat="37.92464587803368" lon="14.665045116428534"><ele>1562.5</ele><time>2026-04-12T08:28:07.98Z</time></trkpt><trkpt lat="37.92466931998904" lon="14.66515593517192"><ele>1563.0</ele><time>2026-04-12T08:28:08.98Z</time></trkpt><trkpt lat="37.9247044182069" lon="14.665271158621241"><ele>1563.5000000000002</ele><time>2026-04-12T08:28:09.98Z</time></trkpt><trkpt lat="37.924709122623945" lon="14.665386321568413"><ele>1564.0</ele><time>2026-04-12T08:28:10.979Z</time></trkpt><trkpt lat="37.924735865665646" lon="14.665479665151903"><ele>1564.3333333333335</ele><time>2026-04-12T08:28:11.979Z</time></trkpt><trkpt lat="37.92476030805525" lon="14.665564934123262"><ele>1564.6666666666667</ele><time>2026-04-12T08:28:12.979Z</time></trkpt><trkpt lat="37.92478048271754" lon="14.665659160900828"><ele>1565.0</ele><time>2026-04-12T08:28:13.979Z</time></trkpt><trkpt lat="37.92478182353874" lon="14.665742675950597"><ele>1565.3333333333335</ele><time>2026-04-12T08:28:14.979Z</time></trkpt><trkpt lat="37.92479204686542" lon="14.665887931642523"><ele>1565.6666666666667</ele><time>2026-04-12T08:28:16.979Z</time></trkpt><trkpt lat="37.92482683176067" lon="14.665984611888206"><ele>1566.0</ele><time>2026-04-12T08:28:18.982Z</time></trkpt><trkpt lat="37.924896586981646" lon="14.666095068041022"><ele>1567.4</ele><time>2026-04-12T08:28:21.981Z</time></trkpt><trkpt lat="37.924913432559286" lon="14.666222084107632"><ele>1568.8</ele><time>2026-04-12T08:28:23.982Z</time></trkpt><trkpt lat="37.924903547103696" lon="14.666351347079113"><ele>1570.2</ele><time>2026-04-12T08:28:25.982Z</time></trkpt><trkpt lat="37.92489563803501" lon="14.666462968757001"><ele>1571.6000000000001</ele><time>2026-04-12T08:28:27.982Z</time></trkpt><trkpt lat="37.92488460146466" lon="14.666594816361544"><ele>1573.0</ele><time>2026-04-12T08:28:29.982Z</time></trkpt><trkpt lat="37.92488591072121" lon="14.666685395781268"><ele>1573.0</ele><time>2026-04-12T08:28:30.982Z</time></trkpt><trkpt lat="37.92489122626088" lon="14.66684171650776"><ele>1573.0</ele><time>2026-04-12T08:28:32.982Z</time></trkpt><trkpt lat="37.92491017350472" lon="14.66698452109309"><ele>1573.0</ele><time>2026-04-12T08:28:34.982Z</time></trkpt><trkpt lat="37.924951617277" lon="14.667061954314763"><ele>1573.0</ele><time>2026-04-12T08:28:35.982Z</time></trkpt><trkpt lat="37.924973739229316" lon="14.667186653628468"><ele>1573.0</ele><time>2026-04-12T08:28:36.982Z</time></trkpt><trkpt lat="37.925055300117094" lon="14.667218803480742"><ele>1574.6666666666667</ele><time>2026-04-12T08:28:37.982Z</time></trkpt><trkpt lat="37.92511868320232" lon="14.667248691255836"><ele>1576.3333333333335</ele><time>2026-04-12T08:28:38.981Z</time></trkpt><trkpt lat="37.92522902120961" lon="14.667286685596144"><ele>1578.0</ele><time>2026-04-12T08:28:40.981Z</time></trkpt><trkpt lat="37.9252779177611" lon="14.667369778513304"><ele>1579.6666666666665</ele><time>2026-04-12T08:28:41.981Z</time></trkpt><trkpt lat="37.92534608932098" lon="14.667401264139214"><ele>1581.3333333333333</ele><time>2026-04-12T08:28:42.981Z</time></trkpt><trkpt lat="37.92540931879421" lon="14.667411979783903"><ele>1583.0</ele><time>2026-04-12T08:28:43.981Z</time></trkpt><trkpt lat="37.9254626225085" lon="14.667459312347798"><ele>1583.0</ele><time>2026-04-12T08:28:44.981Z</time></trkpt><trkpt lat="37.92553496404438" lon="14.66748767705694"><ele>1583.0</ele><time>2026-04-12T08:28:45.981Z</time></trkpt><trkpt lat="37.925596900894824" lon="14.66750519864245"><ele>1583.0</ele><time>2026-04-12T08:28:46.981Z</time></trkpt><trkpt lat="37.92565374499155" lon="14.667556801175385"><ele>1583.0</ele><time>2026-04-12T08:28:47.981Z</time></trkpt><trkpt lat="37.9257189876712" lon="14.667586523372433"><ele>1583.0</ele><time>2026-04-12T08:28:48.981Z</time></trkpt><trkpt lat="37.92578206626834" lon="14.667598153712897"><ele>1583.0</ele><time>2026-04-12T08:28:49.981Z</time></trkpt><trkpt lat="37.9258320235493" lon="14.66765470300569"><ele>1583.0</ele><time>2026-04-12T08:28:50.981Z</time></trkpt><trkpt lat="37.92594744100242" lon="14.667729330292982"><ele>1582.9999999999998</ele><time>2026-04-12T08:28:52.981Z</time></trkpt><trkpt lat="37.926017275958465" lon="14.667780293258364"><ele>1583.0</ele><time>2026-04-12T08:28:53.981Z</time></trkpt><trkpt lat="37.926057663838705" lon="14.667847611504778"><ele>1583.0</ele><time>2026-04-12T08:28:54.981Z</time></trkpt><trkpt lat="37.92604202381474" lon="14.667938674003082"><ele>1583.0</ele><time>2026-04-12T08:28:55.981Z</time></trkpt><trkpt lat="37.92608299974072" lon="14.668025315272152"><ele>1582.9999999999998</ele><time>2026-04-12T08:28:57.981Z</time></trkpt><trkpt lat="37.926116342834995" lon="14.668136254408637"><ele>1583.0</ele><time>2026-04-12T08:28:59.981Z</time></trkpt><trkpt lat="37.926195143371196" lon="14.66825835912516"><ele>1583.0</ele><time>2026-04-12T08:29:01.981Z</time></trkpt><trkpt lat="37.92630846886586" lon="14.668324066561686"><ele>1583.0</ele><time>2026-04-12T08:29:03.981Z</time></trkpt><trkpt lat="37.926376014064246" lon="14.668355504005644"><ele>1583.0</ele><time>2026-04-12T08:29:04.981Z</time></trkpt><trkpt lat="37.92650064260252" lon="14.668405271536288"><ele>1583.0</ele><time>2026-04-12T08:29:06.981Z</time></trkpt><trkpt lat="37.92661180519227" lon="14.668463502909388"><ele>1583.0</ele><time>2026-04-12T08:29:08.981Z</time></trkpt><trkpt lat="37.9267173966774" lon="14.668542772486783"><ele>1582.4285714285716</ele><time>2026-04-12T08:29:10.981Z</time></trkpt><trkpt lat="37.926774394138576" lon="14.668578939588969"><ele>1581.857142857143</ele><time>2026-04-12T08:29:11.981Z</time></trkpt><trkpt lat="37.92681160917249" lon="14.668659452062252"><ele>1581.2857142857142</ele><time>2026-04-12T08:29:12.98Z</time></trkpt><trkpt lat="37.92684934779613" lon="14.668725171260338"><ele>1580.7142857142858</ele><time>2026-04-12T08:29:13.98Z</time></trkpt><trkpt lat="37.92688402162659" lon="14.668794356261527"><ele>1580.142857142857</ele><time>2026-04-12T08:29:14.98Z</time></trkpt><trkpt lat="37.92689631959079" lon="14.66889850329756"><ele>1579.5714285714287</ele><time>2026-04-12T08:29:15.98Z</time></trkpt><trkpt lat="37.92692529948965" lon="14.668981978534035"><ele>1579.0</ele><time>2026-04-12T08:29:16.98Z</time></trkpt><trkpt lat="37.926937564506254" lon="14.66912077677662"><ele>1579.0</ele><time>2026-04-12T08:29:18.98Z</time></trkpt><trkpt lat="37.926986854765914" lon="14.669234832185493"><ele>1579.0</ele><time>2026-04-12T08:29:20.98Z</time></trkpt><trkpt lat="37.927034471747476" lon="14.669398260428329"><ele>1579.0</ele><time>2026-04-12T08:29:22.98Z</time></trkpt><trkpt lat="37.927074958103034" lon="14.669474533805118"><ele>1579.0</ele><time>2026-04-12T08:29:23.98Z</time></trkpt><trkpt lat="37.9271159056291" lon="14.66953830082588"><ele>1579.0</ele><time>2026-04-12T08:29:24.98Z</time></trkpt><trkpt lat="37.927185374386475" lon="14.669635117322501"><ele>1578.8000000000002</ele><time>2026-04-12T08:29:26.98Z</time></trkpt><trkpt lat="37.92725145334234" lon="14.669755434973572"><ele>1578.6000000000001</ele><time>2026-04-12T08:29:28.98Z</time></trkpt><trkpt lat="37.927339408334625" lon="14.669861606932983"><ele>1578.4</ele><time>2026-04-12T08:29:30.98Z</time></trkpt><trkpt lat="37.927416157595914" lon="14.669973627988142"><ele>1578.2</ele><time>2026-04-12T08:29:32.98Z</time></trkpt><trkpt lat="37.92746387543972" lon="14.670041054795579"><ele>1578.0</ele><time>2026-04-12T08:29:33.98Z</time></trkpt><trkpt lat="37.92751055738545" lon="14.670104091372284"><ele>1578.0</ele><time>2026-04-12T08:29:34.98Z</time></trkpt><trkpt lat="37.92755973247483" lon="14.67016532702472"><ele>1578.0</ele><time>2026-04-12T08:29:35.98Z</time></trkpt><trkpt lat="37.927604263043456" lon="14.670242477003045"><ele>1578.0</ele><time>2026-04-12T08:29:36.98Z</time></trkpt><trkpt lat="37.92764406910394" lon="14.670334051802554"><ele>1578.0</ele><time>2026-04-12T08:29:37.98Z</time></trkpt><trkpt lat="37.927702797276304" lon="14.670415520317512"><ele>1578.0</ele><time>2026-04-12T08:29:38.98Z</time></trkpt><trkpt lat="37.92775465475686" lon="14.670516851941757"><ele>1578.0</ele><time>2026-04-12T08:29:39.98Z</time></trkpt><trkpt lat="37.9278047019548" lon="14.670625910375323"><ele>1576.2</ele><time>2026-04-12T08:29:40.98Z</time></trkpt><trkpt lat="37.92785380434722" lon="14.670744558099432"><ele>1574.4</ele><time>2026-04-12T08:29:41.98Z</time></trkpt><trkpt lat="37.92789972716153" lon="14.670852365006029"><ele>1572.6000000000001</ele><time>2026-04-12T08:29:42.98Z</time></trkpt><trkpt lat="37.927938437377364" lon="14.67097958524947"><ele>1570.8000000000002</ele><time>2026-04-12T08:29:43.98Z</time></trkpt><trkpt lat="37.92798833279119" lon="14.67110000475711"><ele>1569.0</ele><time>2026-04-12T08:29:44.98Z</time></trkpt><trkpt lat="37.92803253051802" lon="14.67120667334961"><ele>1569.0</ele><time>2026-04-12T08:29:45.98Z</time></trkpt><trkpt lat="37.92807135239969" lon="14.67130036755935"><ele>1569.0</ele><time>2026-04-12T08:29:46.98Z</time></trkpt><trkpt lat="37.92812259947525" lon="14.671378939509243"><ele>1569.0</ele><time>2026-04-12T08:29:47.98Z</time></trkpt><trkpt lat="37.92815095200528" lon="14.67145671836916"><ele>1569.0</ele><time>2026-04-12T08:29:48.979Z</time></trkpt><trkpt lat="37.92817949118538" lon="14.671539993174045"><ele>1569.0</ele><time>2026-04-12T08:29:49.979Z</time></trkpt><trkpt lat="37.928209446194394" lon="14.671672297268762"><ele>1569.0</ele><time>2026-04-12T08:29:51.979Z</time></trkpt><trkpt lat="37.928236198814304" lon="14.671770048886666"><ele>1569.0</ele><time>2026-04-12T08:29:52.979Z</time></trkpt><trkpt lat="37.9282793115929" lon="14.671896992699658"><ele>1569.0</ele><time>2026-04-12T08:29:53.979Z</time></trkpt><trkpt lat="37.92829842176409" lon="14.672033036941711"><ele>1569.0</ele><time>2026-04-12T08:29:54.979Z</time></trkpt><trkpt lat="37.928317881709475" lon="14.672127169185838"><ele>1569.0</ele><time>2026-04-12T08:29:55.979Z</time></trkpt><trkpt lat="37.92832032927529" lon="14.672220272192337"><ele>1569.0</ele><time>2026-04-12T08:29:57.979Z</time></trkpt><trkpt lat="37.92833434145215" lon="14.672305077514748"><ele>1569.0</ele><time>2026-04-12T08:29:59.979Z</time></trkpt><trkpt lat="37.92836125483167" lon="14.672435989401068"><ele>1568.6</ele><time>2026-04-12T08:30:01.979Z</time></trkpt><trkpt lat="37.92836149817173" lon="14.672536086173158"><ele>1568.2</ele><time>2026-04-12T08:30:02.979Z</time></trkpt><trkpt lat="37.92836689976585" lon="14.672622730821356"><ele>1567.8</ele><time>2026-04-12T08:30:03.979Z</time></trkpt><trkpt lat="37.928390883190964" lon="14.672748698528338"><ele>1567.3999999999999</ele><time>2026-04-12T08:30:05.979Z</time></trkpt><trkpt lat="37.92839598684587" lon="14.672859279049739"><ele>1567.0</ele><time>2026-04-12T08:30:07.979Z</time></trkpt><trkpt lat="37.9284683082791" lon="14.67300448172975"><ele>1563.6666666666667</ele><time>2026-04-12T08:30:09.979Z</time></trkpt><trkpt lat="37.92851158109299" lon="14.673081584124695"><ele>1560.3333333333335</ele><time>2026-04-12T08:30:10.979Z</time></trkpt><trkpt lat="37.92856343766529" lon="14.67315005993763"><ele>1557.0</ele><time>2026-04-12T08:30:11.979Z</time></trkpt><trkpt lat="37.92862928046877" lon="14.673211876555069"><ele>1553.6666666666665</ele><time>2026-04-12T08:30:12.979Z</time></trkpt><trkpt lat="37.928696280548316" lon="14.673282900356044"><ele>1550.3333333333333</ele><time>2026-04-12T08:30:13.979Z</time></trkpt><trkpt lat="37.92877266592189" lon="14.673365234965358"><ele>1547.0</ele><time>2026-04-12T08:30:14.979Z</time></trkpt><trkpt lat="37.92883603893369" lon="14.67344878376078"><ele>1546.9999999999998</ele><time>2026-04-12T08:30:15.979Z</time></trkpt><trkpt lat="37.92888518646033" lon="14.673511175347773"><ele>1547.0</ele><time>2026-04-12T08:30:16.979Z</time></trkpt><trkpt lat="37.92894039592136" lon="14.673619192637041"><ele>1547.0</ele><time>2026-04-12T08:30:18.979Z</time></trkpt><trkpt lat="37.9290102838173" lon="14.673672920129466"><ele>1547.0</ele><time>2026-04-12T08:30:28.981Z</time></trkpt><trkpt lat="37.92908156516837" lon="14.67375229627882"><ele>1546.9999999999998</ele><time>2026-04-12T08:32:27.978Z</time></trkpt><trkpt lat="37.92915176883527" lon="14.673833298573937"><ele>1547.0</ele><time>2026-04-12T08:32:29.98Z</time></trkpt><trkpt lat="37.92924832799112" lon="14.673944902371263"><ele>1545.3333333333333</ele><time>2026-04-12T08:32:31.98Z</time></trkpt><trkpt lat="37.92929556959529" lon="14.674000248930302"><ele>1543.6666666666665</ele><time>2026-04-12T08:32:32.981Z</time></trkpt><trkpt lat="37.92937875431303" lon="14.674101922356138"><ele>1542.0</ele><time>2026-04-12T08:32:34.98Z</time></trkpt><trkpt lat="37.9294382972672" lon="14.674149366084967"><ele>1540.3333333333335</ele><time>2026-04-12T08:32:35.981Z</time></trkpt><trkpt lat="37.92947004345279" lon="14.674222039947887"><ele>1538.6666666666667</ele><time>2026-04-12T08:32:36.98Z</time></trkpt><trkpt lat="37.92953191177284" lon="14.674278081527863"><ele>1537.0</ele><time>2026-04-12T08:32:37.98Z</time></trkpt><trkpt lat="37.9296317447982" lon="14.67437477375851"><ele>1537.0000000000002</ele><time>2026-04-12T08:32:39.98Z</time></trkpt><trkpt lat="37.929699266891966" lon="14.67440266008075"><ele>1537.0</ele><time>2026-04-12T08:32:40.98Z</time></trkpt><trkpt lat="37.92982928446224" lon="14.674433315383736"><ele>1537.0</ele><time>2026-04-12T08:32:42.981Z</time></trkpt><trkpt lat="37.92989424242159" lon="14.674438492545766"><ele>1537.0</ele><time>2026-04-12T08:32:43.981Z</time></trkpt><trkpt lat="37.9299644206141" lon="14.674450924766381"><ele>1537.0000000000002</ele><time>2026-04-12T08:32:44.981Z</time></trkpt><trkpt lat="37.93004082560046" lon="14.674455362546595"><ele>1537.0</ele><time>2026-04-12T08:32:45.981Z</time></trkpt><trkpt lat="37.93011132004029" lon="14.674468192492018"><ele>1534.6</ele><time>2026-04-12T08:32:46.981Z</time></trkpt><trkpt lat="37.93017379208388" lon="14.674506312660322"><ele>1532.1999999999998</ele><time>2026-04-12T08:32:47.981Z</time></trkpt><trkpt lat="37.9302364448213" lon="14.674528795607804"><ele>1529.8</ele><time>2026-04-12T08:32:48.981Z</time></trkpt><trkpt lat="37.93035859994297" lon="14.674593173036317"><ele>1527.4</ele><time>2026-04-12T08:32:50.981Z</time></trkpt><trkpt lat="37.93041387712648" lon="14.674643105865304"><ele>1525.0</ele><time>2026-04-12T08:32:51.981Z</time></trkpt><trkpt lat="37.93049916047969" lon="14.674758340449651"><ele>1525.0</ele><time>2026-04-12T08:32:53.98Z</time></trkpt><trkpt lat="37.930548337224955" lon="14.674824158117941"><ele>1525.0</ele><time>2026-04-12T08:32:54.98Z</time></trkpt><trkpt lat="37.930594674626505" lon="14.674887044424997"><ele>1525.0</ele><time>2026-04-12T08:32:55.98Z</time></trkpt><trkpt lat="37.930645037657634" lon="14.674953940149027"><ele>1525.0</ele><time>2026-04-12T08:32:56.98Z</time></trkpt><trkpt lat="37.93070202001246" lon="14.675013201060043"><ele>1525.0</ele><time>2026-04-12T08:32:57.98Z</time></trkpt><trkpt lat="37.93075535183136" lon="14.675079176113268"><ele>1525.0</ele><time>2026-04-12T08:32:58.98Z</time></trkpt><trkpt lat="37.93080520642588" lon="14.675137180744272"><ele>1525.0</ele><time>2026-04-12T08:32:59.98Z</time></trkpt><trkpt lat="37.93085955170784" lon="14.675183550846972"><ele>1523.6666666666665</ele><time>2026-04-12T08:33:00.98Z</time></trkpt><trkpt lat="37.93093185457175" lon="14.67521473792739"><ele>1522.3333333333333</ele><time>2026-04-12T08:33:01.98Z</time></trkpt><trkpt lat="37.931009439321755" lon="14.675207204576994"><ele>1521.0</ele><time>2026-04-12T08:33:02.98Z</time></trkpt><trkpt lat="37.931083458509775" lon="14.675193681373312"><ele>1519.6666666666667</ele><time>2026-04-12T08:33:03.98Z</time></trkpt><trkpt lat="37.931164826360494" lon="14.67516737809148"><ele>1518.3333333333335</ele><time>2026-04-12T08:33:04.98Z</time></trkpt><trkpt lat="37.93126847054468" lon="14.675145256053163"><ele>1517.0</ele><time>2026-04-12T08:33:05.98Z</time></trkpt><trkpt lat="37.931358939119676" lon="14.675138917493923"><ele>1517.0</ele><time>2026-04-12T08:33:06.98Z</time></trkpt><trkpt lat="37.93145044277504" lon="14.675135000902046"><ele>1517.0</ele><time>2026-04-12T08:33:07.98Z</time></trkpt><trkpt lat="37.931535717495215" lon="14.675130733723252"><ele>1517.0</ele><time>2026-04-12T08:33:08.98Z</time></trkpt><trkpt lat="37.93160854698043" lon="14.67514313982219"><ele>1517.0</ele><time>2026-04-12T08:33:09.98Z</time></trkpt><trkpt lat="37.931681180561895" lon="14.67515234578225"><ele>1517.0</ele><time>2026-04-12T08:33:10.98Z</time></trkpt><trkpt lat="37.931759769696704" lon="14.675171735852176"><ele>1517.0</ele><time>2026-04-12T08:33:11.98Z</time></trkpt><trkpt lat="37.931831512440056" lon="14.675165311723818"><ele>1516.3999999999999</ele><time>2026-04-12T08:33:12.98Z</time></trkpt><trkpt lat="37.931908709487494" lon="14.675171901433538"><ele>1515.8</ele><time>2026-04-12T08:33:13.98Z</time></trkpt><trkpt lat="37.93200171552316" lon="14.675165491471821"><ele>1515.2</ele><time>2026-04-12T08:33:14.98Z</time></trkpt><trkpt lat="37.932106678488196" lon="14.67513298093535"><ele>1514.6</ele><time>2026-04-12T08:33:15.98Z</time></trkpt><trkpt lat="37.93219249359824" lon="14.675081270180058"><ele>1514.0</ele><time>2026-04-12T08:33:16.98Z</time></trkpt><trkpt lat="37.93228163247407" lon="14.67499949365299"><ele>1514.0</ele><time>2026-04-12T08:33:17.98Z</time></trkpt><trkpt lat="37.93236763273429" lon="14.67490815050518"><ele>1514.0</ele><time>2026-04-12T08:33:18.98Z</time></trkpt><trkpt lat="37.9324550012168" lon="14.674839070128801"><ele>1514.0</ele><time>2026-04-12T08:33:19.98Z</time></trkpt><trkpt lat="37.93253463561148" lon="14.674753369862277"><ele>1514.0</ele><time>2026-04-12T08:33:20.98Z</time></trkpt><trkpt lat="37.932597597818145" lon="14.67468812951061"><ele>1514.0</ele><time>2026-04-12T08:33:21.98Z</time></trkpt><trkpt lat="37.932659363656335" lon="14.674630220921204"><ele>1513.4</ele><time>2026-04-12T08:33:22.98Z</time></trkpt><trkpt lat="37.93276108271706" lon="14.674526760652446"><ele>1512.8000000000002</ele><time>2026-04-12T08:33:24.98Z</time></trkpt><trkpt lat="37.93284624841398" lon="14.674510741693222"><ele>1512.1999999999998</ele><time>2026-04-12T08:33:25.98Z</time></trkpt><trkpt lat="37.93291482031295" lon="14.67450018046721"><ele>1511.6</ele><time>2026-04-12T08:33:26.98Z</time></trkpt><trkpt lat="37.93299025277455" lon="14.674486118733162"><ele>1511.0</ele><time>2026-04-12T08:33:27.979Z</time></trkpt><trkpt lat="37.933084788438464" lon="14.674470294836581"><ele>1511.0</ele><time>2026-04-12T08:33:28.979Z</time></trkpt><trkpt lat="37.9331787098106" lon="14.674455595764849"><ele>1511.0</ele><time>2026-04-12T08:33:29.979Z</time></trkpt><trkpt lat="37.933265459097576" lon="14.67444222672429"><ele>1511.0</ele><time>2026-04-12T08:33:30.979Z</time></trkpt><trkpt lat="37.93334251097077" lon="14.674428457853569"><ele>1511.0</ele><time>2026-04-12T08:33:31.979Z</time></trkpt><trkpt lat="37.93341642218846" lon="14.674415299537278"><ele>1511.0</ele><time>2026-04-12T08:33:32.979Z</time></trkpt><trkpt lat="37.93353658790673" lon="14.674418714925194"><ele>1509.8333333333335</ele><time>2026-04-12T08:33:34.979Z</time></trkpt><trkpt lat="37.933609485939854" lon="14.674461982249241"><ele>1508.6666666666667</ele><time>2026-04-12T08:33:35.979Z</time></trkpt><trkpt lat="37.93369428355467" lon="14.674500722885277"><ele>1507.5</ele><time>2026-04-12T08:33:36.979Z</time></trkpt><trkpt lat="37.933740222945154" lon="14.674581811515962"><ele>1506.3333333333333</ele><time>2026-04-12T08:33:37.979Z</time></trkpt><trkpt lat="37.93379789479701" lon="14.674627276758295"><ele>1505.1666666666665</ele><time>2026-04-12T08:33:38.979Z</time></trkpt><trkpt lat="37.93382931238968" lon="14.674700696326877"><ele>1504.0</ele><time>2026-04-12T08:33:39.979Z</time></trkpt><trkpt lat="37.93387927410772" lon="14.674761930449186"><ele>1504.0</ele><time>2026-04-12T08:33:40.979Z</time></trkpt><trkpt lat="37.93395333234413" lon="14.674820841518828"><ele>1504.0</ele><time>2026-04-12T08:33:41.979Z</time></trkpt><trkpt lat="37.93404350932022" lon="14.674837603553666"><ele>1504.0</ele><time>2026-04-12T08:33:42.979Z</time></trkpt><trkpt lat="37.93413353642878" lon="14.67486057640781"><ele>1504.0</ele><time>2026-04-12T08:33:43.979Z</time></trkpt><trkpt lat="37.93420919046272" lon="14.674869470359752"><ele>1504.0</ele><time>2026-04-12T08:33:44.979Z</time></trkpt><trkpt lat="37.93436445698087" lon="14.674876953317282"><ele>1503.8000000000002</ele><time>2026-04-12T08:33:46.979Z</time></trkpt><trkpt lat="37.93446122499074" lon="14.674877141145682"><ele>1503.6000000000001</ele><time>2026-04-12T08:33:47.979Z</time></trkpt><trkpt lat="37.934554061542414" lon="14.67486379323921"><ele>1503.4</ele><time>2026-04-12T08:33:48.979Z</time></trkpt><trkpt lat="37.934646203763755" lon="14.674859523176957"><ele>1503.2</ele><time>2026-04-12T08:33:49.979Z</time></trkpt><trkpt lat="37.934720140140115" lon="14.674826243539085"><ele>1503.0</ele><time>2026-04-12T08:33:50.979Z</time></trkpt><trkpt lat="37.93480289031089" lon="14.674759261764956"><ele>1503.0</ele><time>2026-04-12T08:33:51.979Z</time></trkpt><trkpt lat="37.93485600766189" lon="14.67462785833893"><ele>1503.0</ele><time>2026-04-12T08:33:52.979Z</time></trkpt><trkpt lat="37.934925139191755" lon="14.674520196297763"><ele>1503.0</ele><time>2026-04-12T08:33:53.979Z</time></trkpt><trkpt lat="37.93499512229791" lon="14.674435284297479"><ele>1503.0</ele><time>2026-04-12T08:33:54.979Z</time></trkpt><trkpt lat="37.93503395272886" lon="14.67434653773216"><ele>1503.0</ele><time>2026-04-12T08:33:55.979Z</time></trkpt><trkpt lat="37.935072921923734" lon="14.67426405055603"><ele>1502.5</ele><time>2026-04-12T08:33:56.979Z</time></trkpt><trkpt lat="37.93514616962004" lon="14.67422080834304"><ele>1502.0</ele><time>2026-04-12T08:33:57.979Z</time></trkpt><trkpt lat="37.935214556585294" lon="14.674201319236847"><ele>1501.5</ele><time>2026-04-12T08:33:58.979Z</time></trkpt><trkpt lat="37.935290078600396" lon="14.674171845975279"><ele>1501.0</ele><time>2026-04-12T08:33:59.979Z</time></trkpt><trkpt lat="37.935383162789435" lon="14.674135840823642"><ele>1500.5</ele><time>2026-04-12T08:34:00.979Z</time></trkpt><trkpt lat="37.93548497848276" lon="14.674100555001205"><ele>1500.0</ele><time>2026-04-12T08:34:01.978Z</time></trkpt><trkpt lat="37.93557435501292" lon="14.674049441239434"><ele>1500.0</ele><time>2026-04-12T08:34:02.978Z</time></trkpt><trkpt lat="37.93567205007595" lon="14.674024872331206"><ele>1500.0</ele><time>2026-04-12T08:34:03.978Z</time></trkpt><trkpt lat="37.93575708901047" lon="14.673997332805815"><ele>1500.0</ele><time>2026-04-12T08:34:04.978Z</time></trkpt><trkpt lat="37.935831415097574" lon="14.67397046393837"><ele>1500.0</ele><time>2026-04-12T08:34:05.978Z</time></trkpt><trkpt lat="37.935912898866505" lon="14.673962091242473"><ele>1500.0</ele><time>2026-04-12T08:34:06.978Z</time></trkpt><trkpt lat="37.93597353906726" lon="14.673940075055112"><ele>1500.0</ele><time>2026-04-12T08:34:07.978Z</time></trkpt><trkpt lat="37.93609448888772" lon="14.673931289351913"><ele>1501.0</ele><time>2026-04-12T08:34:09.978Z</time></trkpt><trkpt lat="37.936218777279436" lon="14.673902947365928"><ele>1502.0</ele><time>2026-04-12T08:34:11.978Z</time></trkpt><trkpt lat="37.936333438880226" lon="14.67385945384517"><ele>1503.0</ele><time>2026-04-12T08:34:13.978Z</time></trkpt><trkpt lat="37.936404399673684" lon="14.673810843160085"><ele>1504.0</ele><time>2026-04-12T08:34:14.978Z</time></trkpt><trkpt lat="37.936458543942095" lon="14.673762527187431"><ele>1505.0</ele><time>2026-04-12T08:34:15.978Z</time></trkpt><trkpt lat="37.93655883397842" lon="14.673640439717026"><ele>1502.8</ele><time>2026-04-12T08:34:17.978Z</time></trkpt><trkpt lat="37.93662286372236" lon="14.673549898033928"><ele>1500.6</ele><time>2026-04-12T08:34:18.978Z</time></trkpt><trkpt lat="37.936687820999985" lon="14.673430441714554"><ele>1498.4</ele><time>2026-04-12T08:34:19.978Z</time></trkpt><trkpt lat="37.93676493871663" lon="14.67335419560212"><ele>1496.2</ele><time>2026-04-12T08:34:20.978Z</time></trkpt><trkpt lat="37.9368280413156" lon="14.673289902262963"><ele>1494.0</ele><time>2026-04-12T08:34:21.978Z</time></trkpt><trkpt lat="37.9369105269893" lon="14.673219173643385"><ele>1494.0</ele><time>2026-04-12T08:34:22.978Z</time></trkpt><trkpt lat="37.93699054862299" lon="14.673151313637975"><ele>1494.0</ele><time>2026-04-12T08:34:23.978Z</time></trkpt><trkpt lat="37.937073741017365" lon="14.673085931580024"><ele>1494.0</ele><time>2026-04-12T08:34:24.978Z</time></trkpt><trkpt lat="37.937171181567685" lon="14.673008018754887"><ele>1494.0</ele><time>2026-04-12T08:34:25.978Z</time></trkpt><trkpt lat="37.9372537457296" lon="14.67293337287352"><ele>1494.0</ele><time>2026-04-12T08:34:26.978Z</time></trkpt><trkpt lat="37.93734241021771" lon="14.67286186378505"><ele>1492.8333333333333</ele><time>2026-04-12T08:34:27.978Z</time></trkpt><trkpt lat="37.93740932703808" lon="14.67276576339856"><ele>1491.6666666666667</ele><time>2026-04-12T08:34:28.978Z</time></trkpt><trkpt lat="37.93747746875852" lon="14.672687024124997"><ele>1490.5</ele><time>2026-04-12T08:34:29.978Z</time></trkpt><trkpt lat="37.93753740723049" lon="14.672617764148937"><ele>1489.3333333333335</ele><time>2026-04-12T08:34:30.978Z</time></trkpt><trkpt lat="37.93760030332209" lon="14.672541370651846"><ele>1488.1666666666667</ele><time>2026-04-12T08:34:31.978Z</time></trkpt><trkpt lat="37.937664464092386" lon="14.672477970922184"><ele>1487.0</ele><time>2026-04-12T08:34:32.978Z</time></trkpt><trkpt lat="37.937730263310826" lon="14.672401701818766"><ele>1487.0</ele><time>2026-04-12T08:34:33.978Z</time></trkpt><trkpt lat="37.93777800559178" lon="14.672329741547019"><ele>1487.0</ele><time>2026-04-12T08:34:34.978Z</time></trkpt><trkpt lat="37.93783926126304" lon="14.672250407995485"><ele>1487.0</ele><time>2026-04-12T08:34:35.98Z</time></trkpt><trkpt lat="37.93789149029433" lon="14.67215805912197"><ele>1487.0</ele><time>2026-04-12T08:34:36.98Z</time></trkpt><trkpt lat="37.937944820963565" lon="14.672069922864722"><ele>1487.0</ele><time>2026-04-12T08:34:37.98Z</time></trkpt><trkpt lat="37.93797778787466" lon="14.671991062700641"><ele>1487.0</ele><time>2026-04-12T08:34:38.98Z</time></trkpt><trkpt lat="37.938051477043146" lon="14.671898626277427"><ele>1485.8333333333335</ele><time>2026-04-12T08:34:39.98Z</time></trkpt><trkpt lat="37.93811568756261" lon="14.67180516533037"><ele>1484.6666666666667</ele><time>2026-04-12T08:34:40.98Z</time></trkpt><trkpt lat="37.938179760781985" lon="14.671719477804382"><ele>1483.5</ele><time>2026-04-12T08:34:41.98Z</time></trkpt><trkpt lat="37.938239763573634" lon="14.67164573954213"><ele>1482.3333333333333</ele><time>2026-04-12T08:34:42.98Z</time></trkpt><trkpt lat="37.938319815744855" lon="14.671581420627767"><ele>1481.1666666666665</ele><time>2026-04-12T08:34:44.98Z</time></trkpt><trkpt lat="37.938382205732275" lon="14.67153551073826"><ele>1480.0</ele><time>2026-04-12T08:34:46.98Z</time></trkpt><trkpt lat="37.93841172600737" lon="14.671456094370475"><ele>1478.4</ele><time>2026-04-12T08:34:48.98Z</time></trkpt><trkpt lat="37.93849627064283" lon="14.671371418071423"><ele>1476.8</ele><time>2026-04-12T08:34:51.979Z</time></trkpt><trkpt lat="37.93857001939232" lon="14.671297007649665"><ele>1475.1999999999998</ele><time>2026-04-12T08:34:53.979Z</time></trkpt><trkpt lat="37.938631525821506" lon="14.671234687541725"><ele>1473.6</ele><time>2026-04-12T08:34:55.979Z</time></trkpt><trkpt lat="37.93870252448893" lon="14.671166565838728"><ele>1472.0</ele><time>2026-04-12T08:34:57.979Z</time></trkpt><trkpt lat="37.938791250385876" lon="14.671094891050368"><ele>1470.1666666666667</ele><time>2026-04-12T08:34:59.979Z</time></trkpt><trkpt lat="37.9388786720392" lon="14.671041958502688"><ele>1468.3333333333335</ele><time>2026-04-12T08:35:01.979Z</time></trkpt><trkpt lat="37.93896881874936" lon="14.671033383070712"><ele>1466.5</ele><time>2026-04-12T08:35:03.979Z</time></trkpt><trkpt lat="37.93907974386708" lon="14.671019446995476"><ele>1464.6666666666667</ele><time>2026-04-12T08:35:05.979Z</time></trkpt><trkpt lat="37.93915081328485" lon="14.671011226774835"><ele>1462.8333333333333</ele><time>2026-04-12T08:35:07.979Z</time></trkpt><trkpt lat="37.93921465536708" lon="14.670994689626632"><ele>1461.0</ele><time>2026-04-12T08:35:09.979Z</time></trkpt><trkpt lat="37.93928163938" lon="14.670958190836584"><ele>1460.4285714285713</ele><time>2026-04-12T08:35:11.979Z</time></trkpt><trkpt lat="37.939345691662645" lon="14.670869778458234"><ele>1459.857142857143</ele><time>2026-04-12T08:35:14.979Z</time></trkpt><trkpt lat="37.93938054284233" lon="14.670802601077495"><ele>1459.2857142857142</ele><time>2026-04-12T08:35:15.979Z</time></trkpt><trkpt lat="37.93941723162289" lon="14.67071315091225"><ele>1458.7142857142858</ele><time>2026-04-12T08:35:16.979Z</time></trkpt><trkpt lat="37.93945008342844" lon="14.670640552374763"><ele>1458.1428571428573</ele><time>2026-04-12T08:35:17.979Z</time></trkpt><trkpt lat="37.93949212399576" lon="14.670567636034832"><ele>1457.5714285714287</ele><time>2026-04-12T08:35:18.979Z</time></trkpt><trkpt lat="37.939542293118" lon="14.670501367148798"><ele>1457.0</ele><time>2026-04-12T08:35:19.979Z</time></trkpt><trkpt lat="37.93959516275833" lon="14.670455625582544"><ele>1457.0</ele><time>2026-04-12T08:35:20.979Z</time></trkpt><trkpt lat="37.93969740591794" lon="14.670387133969271"><ele>1457.0</ele><time>2026-04-12T08:35:22.979Z</time></trkpt><trkpt lat="37.9397882383167" lon="14.670358527880063"><ele>1457.0</ele><time>2026-04-12T08:35:24.979Z</time></trkpt><trkpt lat="37.939913671228055" lon="14.670359507998796"><ele>1457.0</ele><time>2026-04-12T08:35:26.978Z</time></trkpt><trkpt lat="37.93998865126693" lon="14.670380656393252"><ele>1457.0</ele><time>2026-04-12T08:35:27.978Z</time></trkpt><trkpt lat="37.94006318420407" lon="14.67040269764013"><ele>1456.8</ele><time>2026-04-12T08:35:28.978Z</time></trkpt><trkpt lat="37.94017601867033" lon="14.670422233814431"><ele>1456.6</ele><time>2026-04-12T08:35:30.978Z</time></trkpt><trkpt lat="37.94028429071481" lon="14.670469872476714"><ele>1456.3999999999999</ele><time>2026-04-12T08:35:32.978Z</time></trkpt><trkpt lat="37.940382190725195" lon="14.67050427676221"><ele>1456.1999999999998</ele><time>2026-04-12T08:35:34.978Z</time></trkpt><trkpt lat="37.94046432950239" lon="14.670511160399895"><ele>1456.0</ele><time>2026-04-12T08:35:37.978Z</time></trkpt><trkpt lat="37.94052740324683" lon="14.67053167083039"><ele>1456.0</ele><time>2026-04-12T08:35:53.978Z</time></trkpt><trkpt lat="37.940608780656966" lon="14.670538627795633"><ele>1456.0</ele><time>2026-04-12T08:35:55.978Z</time></trkpt><trkpt lat="37.94068779548113" lon="14.670507919207596"><ele>1456.0</ele><time>2026-04-12T08:35:57.978Z</time></trkpt><trkpt lat="37.94077782250778" lon="14.6705366062459"><ele>1456.0</ele><time>2026-04-12T08:35:59.978Z</time></trkpt><trkpt lat="37.94089105428656" lon="14.67055100618429"><ele>1456.0</ele><time>2026-04-12T08:36:01.977Z</time></trkpt><trkpt lat="37.94100494056975" lon="14.670565489342545"><ele>1456.1999999999998</ele><time>2026-04-12T08:36:03.977Z</time></trkpt><trkpt lat="37.94113077696002" lon="14.67057802759632"><ele>1456.3999999999999</ele><time>2026-04-12T08:36:05.977Z</time></trkpt><trkpt lat="37.94119750392691" lon="14.670577704875926"><ele>1456.6</ele><time>2026-04-12T08:36:06.977Z</time></trkpt><trkpt lat="37.941287849556424" lon="14.670608277109586"><ele>1456.8</ele><time>2026-04-12T08:36:08.977Z</time></trkpt><trkpt lat="37.94137588240737" lon="14.670621860993325"><ele>1457.0</ele><time>2026-04-12T08:36:10.977Z</time></trkpt><trkpt lat="37.941472142064455" lon="14.670620671343807"><ele>1457.0</ele><time>2026-04-12T08:36:12.977Z</time></trkpt><trkpt lat="37.94153623740058" lon="14.670645583478484"><ele>1457.0</ele><time>2026-04-12T08:36:14.977Z</time></trkpt><trkpt lat="37.94160143583274" lon="14.670607474061653"><ele>1457.0</ele><time>2026-04-12T08:36:35.976Z</time></trkpt><trkpt lat="37.941660133651624" lon="14.670537959133231"><ele>1457.0</ele><time>2026-04-12T08:38:50.979Z</time></trkpt><trkpt lat="37.94173223019538" lon="14.67060452695318"><ele>1457.0</ele><time>2026-04-12T08:38:52.979Z</time></trkpt><trkpt lat="37.94180875783841" lon="14.670596981981506"><ele>1457.0</ele><time>2026-04-12T08:38:54.98Z</time></trkpt><trkpt lat="37.9418944273888" lon="14.670594329019647"><ele>1457.4285714285716</ele><time>2026-04-12T08:38:56.979Z</time></trkpt><trkpt lat="37.94197636910754" lon="14.67060151555901"><ele>1457.857142857143</ele><time>2026-04-12T08:38:58.979Z</time></trkpt><trkpt lat="37.942040814403214" lon="14.670611241349095"><ele>1458.2857142857142</ele><time>2026-04-12T08:38:59.979Z</time></trkpt><trkpt lat="37.94211062634047" lon="14.670626394888743"><ele>1458.7142857142858</ele><time>2026-04-12T08:39:00.979Z</time></trkpt><trkpt lat="37.94218249551803" lon="14.67064707789686"><ele>1459.142857142857</ele><time>2026-04-12T08:39:01.979Z</time></trkpt><trkpt lat="37.94224739925878" lon="14.67067469009355"><ele>1459.5714285714287</ele><time>2026-04-12T08:39:02.979Z</time></trkpt><trkpt lat="37.94230871960778" lon="14.670709329240351"><ele>1460.0</ele><time>2026-04-12T08:39:03.979Z</time></trkpt><trkpt lat="37.94240347334884" lon="14.670775592075445"><ele>1460.0</ele><time>2026-04-12T08:39:05.979Z</time></trkpt><trkpt lat="37.94246584090896" lon="14.670802292100527"><ele>1460.0</ele><time>2026-04-12T08:39:07.979Z</time></trkpt><trkpt lat="37.94253752707103" lon="14.670884249242631"><ele>1460.0</ele><time>2026-04-12T08:39:10.979Z</time></trkpt><trkpt lat="37.94262988495232" lon="14.670963255652136"><ele>1460.0</ele><time>2026-04-12T08:39:12.979Z</time></trkpt><trkpt lat="37.94272591864339" lon="14.671049403723321"><ele>1460.0</ele><time>2026-04-12T08:39:14.979Z</time></trkpt><trkpt lat="37.94278678889898" lon="14.671121628320376"><ele>1460.1666666666667</ele><time>2026-04-12T08:39:16.979Z</time></trkpt><trkpt lat="37.94284686103449" lon="14.671187484022605"><ele>1460.3333333333335</ele><time>2026-04-12T08:39:18.979Z</time></trkpt><trkpt lat="37.94291134829385" lon="14.671229898619247"><ele>1460.5</ele><time>2026-04-12T08:39:20.979Z</time></trkpt><trkpt lat="37.942991754720765" lon="14.671294482510882"><ele>1460.6666666666667</ele><time>2026-04-12T08:39:23.979Z</time></trkpt><trkpt lat="37.94307541504973" lon="14.671340919539155"><ele>1460.8333333333333</ele><time>2026-04-12T08:39:25.979Z</time></trkpt><trkpt lat="37.94313412014072" lon="14.671380934636929"><ele>1461.0</ele><time>2026-04-12T08:39:27.979Z</time></trkpt><trkpt lat="37.94321676803261" lon="14.671450159222802"><ele>1461.0</ele><time>2026-04-12T08:39:29.978Z</time></trkpt><trkpt lat="37.94327280637593" lon="14.6714997055927"><ele>1461.0</ele><time>2026-04-12T08:39:30.978Z</time></trkpt><trkpt lat="37.94332379691749" lon="14.67155553243041"><ele>1461.0</ele><time>2026-04-12T08:39:31.978Z</time></trkpt><trkpt lat="37.94336877141553" lon="14.67161153925927"><ele>1461.0</ele><time>2026-04-12T08:39:32.978Z</time></trkpt><trkpt lat="37.94342360388939" lon="14.671665053198765"><ele>1461.0</ele><time>2026-04-12T08:39:33.978Z</time></trkpt><trkpt lat="37.94351950214573" lon="14.67172013941579"><ele>1461.0</ele><time>2026-04-12T08:39:35.978Z</time></trkpt><trkpt lat="37.94357084454213" lon="14.671783035615755"><ele>1461.0</ele><time>2026-04-12T08:39:37.978Z</time></trkpt><trkpt lat="37.94358158767031" lon="14.671899926176648"><ele>1459.7142857142856</ele><time>2026-04-12T08:40:29.977Z</time></trkpt><trkpt lat="37.943580896798395" lon="14.671983620029929"><ele>1458.4285714285716</ele><time>2026-04-12T08:40:32.977Z</time></trkpt><trkpt lat="37.94352870660982" lon="14.672039701391748"><ele>1457.142857142857</ele><time>2026-04-12T08:40:34.977Z</time></trkpt><trkpt lat="37.943460134249975" lon="14.67208348960877"><ele>1455.8571428571427</ele><time>2026-04-12T08:40:36.977Z</time></trkpt><trkpt lat="37.9433875822953" lon="14.672131001863733"><ele>1454.5714285714284</ele><time>2026-04-12T08:40:38.976Z</time></trkpt><trkpt lat="37.94331012864118" lon="14.672174599003299"><ele>1453.2857142857142</ele><time>2026-04-12T08:40:40.976Z</time></trkpt><trkpt lat="37.94324372866368" lon="14.672208361588405"><ele>1452.0</ele><time>2026-04-12T08:40:42.976Z</time></trkpt><trkpt lat="37.94317870471432" lon="14.672281076026357"><ele>1452.0</ele><time>2026-04-12T08:40:44.976Z</time></trkpt><trkpt lat="37.943117158734516" lon="14.672315130819474"><ele>1452.0</ele><time>2026-04-12T08:40:46.976Z</time></trkpt><trkpt lat="37.94305480722334" lon="14.672359333587096"><ele>1452.0</ele><time>2026-04-12T08:40:49.976Z</time></trkpt><trkpt lat="37.94298732794869" lon="14.672429475042247"><ele>1452.0</ele><time>2026-04-12T08:40:51.976Z</time></trkpt><trkpt lat="37.94293232096872" lon="14.672474370702982"><ele>1452.0</ele><time>2026-04-12T08:40:52.976Z</time></trkpt><trkpt lat="37.942838610608526" lon="14.672549913936198"><ele>1452.0</ele><time>2026-04-12T08:40:54.979Z</time></trkpt><trkpt lat="37.94274500159867" lon="14.672624439196603"><ele>1452.0</ele><time>2026-04-12T08:40:56.979Z</time></trkpt><trkpt lat="37.94266684176452" lon="14.67267588588829"><ele>1452.0</ele><time>2026-04-12T08:40:57.979Z</time></trkpt><trkpt lat="37.94258226869253" lon="14.672734872219587"><ele>1452.0</ele><time>2026-04-12T08:40:59.979Z</time></trkpt><trkpt lat="37.942490366006034" lon="14.672803892873183"><ele>1452.0</ele><time>2026-04-12T08:41:01.978Z</time></trkpt><trkpt lat="37.94239994455201" lon="14.672897317323013"><ele>1452.0</ele><time>2026-04-12T08:41:03.979Z</time></trkpt><trkpt lat="37.94234533302276" lon="14.672946693900723"><ele>1451.3999999999999</ele><time>2026-04-12T08:41:04.979Z</time></trkpt><trkpt lat="37.94224911364237" lon="14.673015538542579"><ele>1450.8</ele><time>2026-04-12T08:41:06.979Z</time></trkpt><trkpt lat="37.94215983507496" lon="14.673081529184223"><ele>1450.2</ele><time>2026-04-12T08:41:08.978Z</time></trkpt><trkpt lat="37.942092553226985" lon="14.673134464580661"><ele>1449.6</ele><time>2026-04-12T08:41:09.978Z</time></trkpt><trkpt lat="37.9420343327346" lon="14.673184986880644"><ele>1449.0</ele><time>2026-04-12T08:41:10.978Z</time></trkpt><trkpt lat="37.941929583379" lon="14.673266261006436"><ele>1449.0</ele><time>2026-04-12T08:41:12.978Z</time></trkpt><trkpt lat="37.94187189362071" lon="14.673300474150535"><ele>1449.0</ele><time>2026-04-12T08:41:13.978Z</time></trkpt><trkpt lat="37.94176632425601" lon="14.673352687022177"><ele>1449.0</ele><time>2026-04-12T08:41:15.978Z</time></trkpt><trkpt lat="37.94166615591179" lon="14.67339516036103"><ele>1449.0</ele><time>2026-04-12T08:41:17.978Z</time></trkpt><trkpt lat="37.94158712130006" lon="14.673424436724618"><ele>1449.0</ele><time>2026-04-12T08:41:20.978Z</time></trkpt><trkpt lat="37.941524763819515" lon="14.673406088011992"><ele>1449.0</ele><time>2026-04-12T08:41:22.978Z</time></trkpt><trkpt lat="37.94149184773684" lon="14.673317111761621"><ele>1450.1666666666667</ele><time>2026-04-12T08:41:25.978Z</time></trkpt><trkpt lat="37.941432163625656" lon="14.673267619803271"><ele>1451.3333333333333</ele><time>2026-04-12T08:41:30.978Z</time></trkpt><trkpt lat="37.94147633212229" lon="14.673336710415953"><ele>1452.5</ele><time>2026-04-12T08:42:25.976Z</time></trkpt><trkpt lat="37.9415269905764" lon="14.673397425522655"><ele>1453.6666666666665</ele><time>2026-04-12T08:42:39.976Z</time></trkpt><trkpt lat="37.94147172968869" lon="14.673291239845614"><ele>1454.8333333333333</ele><time>2026-04-12T08:44:18.977Z</time></trkpt><trkpt lat="37.941537016422735" lon="14.673339459621213"><ele>1456.0</ele><time>2026-04-12T08:45:44.977Z</time></trkpt><trkpt lat="37.94147420414165" lon="14.673350110084156"><ele>1456.0</ele><time>2026-04-12T08:50:09.976Z</time></trkpt><trkpt lat="37.94142517623094" lon="14.673293736480705"><ele>1456.0</ele><time>2026-04-12T08:50:14.975Z</time></trkpt><trkpt lat="37.941409723078586" lon="14.6733725598279"><ele>1456.0</ele><time>2026-04-12T08:51:09.974Z</time></trkpt><trkpt lat="37.94144936586003" lon="14.673468690638602"><ele>1456.0</ele><time>2026-04-12T08:51:11.974Z</time></trkpt><trkpt lat="37.94154165814382" lon="14.673486636678836"><ele>1456.0</ele><time>2026-04-12T08:51:13.974Z</time></trkpt><trkpt lat="37.94164450228833" lon="14.673456309227268"><ele>1456.0</ele><time>2026-04-12T08:51:15.974Z</time></trkpt><trkpt lat="37.94174655209559" lon="14.673367330750255"><ele>1454.6</ele><time>2026-04-12T08:51:17.974Z</time></trkpt><trkpt lat="37.94183735777743" lon="14.673299968502015"><ele>1453.1999999999998</ele><time>2026-04-12T08:51:19.974Z</time></trkpt><trkpt lat="37.94195608072513" lon="14.673228741970142"><ele>1451.8000000000002</ele><time>2026-04-12T08:51:21.976Z</time></trkpt><trkpt lat="37.9420163571837" lon="14.67318475748125"><ele>1450.4</ele><time>2026-04-12T08:51:22.977Z</time></trkpt><trkpt lat="37.94206866018806" lon="14.673138463793483"><ele>1449.0</ele><time>2026-04-12T08:51:23.977Z</time></trkpt><trkpt lat="37.942178921332356" lon="14.673047484044709"><ele>1449.0</ele><time>2026-04-12T08:51:25.976Z</time></trkpt><trkpt lat="37.94224354417953" lon="14.672997990172894"><ele>1449.0</ele><time>2026-04-12T08:51:26.976Z</time></trkpt><trkpt lat="37.94234070462122" lon="14.672927048443512"><ele>1449.0</ele><time>2026-04-12T08:51:28.977Z</time></trkpt><trkpt lat="37.942413573666244" lon="14.672877347543793"><ele>1449.0</ele><time>2026-04-12T08:51:29.977Z</time></trkpt><trkpt lat="37.942482273155974" lon="14.672826135078795"><ele>1449.0</ele><time>2026-04-12T08:51:30.976Z</time></trkpt><trkpt lat="37.9425512683462" lon="14.672758644196755"><ele>1449.0</ele><time>2026-04-12T08:51:32.976Z</time></trkpt><trkpt lat="37.94264669287518" lon="14.672680993936403"><ele>1449.5</ele><time>2026-04-12T08:51:34.976Z</time></trkpt><trkpt lat="37.9427434942332" lon="14.672598269785402"><ele>1450.0</ele><time>2026-04-12T08:51:36.976Z</time></trkpt><trkpt lat="37.942801126438496" lon="14.672559754038774"><ele>1450.5</ele><time>2026-04-12T08:51:37.976Z</time></trkpt><trkpt lat="37.942856776891155" lon="14.672516759514549"><ele>1451.0</ele><time>2026-04-12T08:51:38.976Z</time></trkpt><trkpt lat="37.94294457437384" lon="14.672446722499563"><ele>1451.5</ele><time>2026-04-12T08:51:40.976Z</time></trkpt><trkpt lat="37.94302298177425" lon="14.67238222645302"><ele>1452.0</ele><time>2026-04-12T08:51:42.976Z</time></trkpt><trkpt lat="37.943080226226314" lon="14.672319946584842"><ele>1452.0</ele><time>2026-04-12T08:51:44.976Z</time></trkpt><trkpt lat="37.943155448493435" lon="14.672277735109397"><ele>1452.0</ele><time>2026-04-12T08:51:46.976Z</time></trkpt><trkpt lat="37.94321639946363" lon="14.672201913387484"><ele>1452.0</ele><time>2026-04-12T08:51:49.976Z</time></trkpt><trkpt lat="37.943299575077724" lon="14.672144625260291"><ele>1452.0</ele><time>2026-04-12T08:51:51.976Z</time></trkpt><trkpt lat="37.94336860698991" lon="14.672103547977708"><ele>1452.0</ele><time>2026-04-12T08:51:53.976Z</time></trkpt><trkpt lat="37.94345605342024" lon="14.672051949380128"><ele>1452.0</ele><time>2026-04-12T08:51:55.976Z</time></trkpt><trkpt lat="37.943537248671554" lon="14.671993169072042"><ele>1453.8</ele><time>2026-04-12T08:51:57.975Z</time></trkpt><trkpt lat="37.943574265655904" lon="14.67192139549351"><ele>1455.6</ele><time>2026-04-12T08:51:59.975Z</time></trkpt><trkpt lat="37.94356505823693" lon="14.671835878410969"><ele>1457.3999999999999</ele><time>2026-04-12T08:52:01.975Z</time></trkpt><trkpt lat="37.94348038721704" lon="14.671735558702284"><ele>1459.1999999999998</ele><time>2026-04-12T08:52:03.975Z</time></trkpt><trkpt lat="37.94337907883864" lon="14.671650531328549"><ele>1461.0</ele><time>2026-04-12T08:52:05.975Z</time></trkpt><trkpt lat="37.94330188256623" lon="14.67157834788205"><ele>1461.0</ele><time>2026-04-12T08:52:07.975Z</time></trkpt><trkpt lat="37.943247463744314" lon="14.671525890551917"><ele>1461.0</ele><time>2026-04-12T08:52:09.975Z</time></trkpt><trkpt lat="37.94317133038833" lon="14.671464504231167"><ele>1461.0</ele><time>2026-04-12T08:52:11.975Z</time></trkpt><trkpt lat="37.943116272497456" lon="14.671397762478838"><ele>1461.0</ele><time>2026-04-12T08:52:13.975Z</time></trkpt><trkpt lat="37.94303925900504" lon="14.671316254906243"><ele>1461.0</ele><time>2026-04-12T08:52:15.975Z</time></trkpt><trkpt lat="37.942986114003716" lon="14.671268104898228"><ele>1461.0</ele><time>2026-04-12T08:52:17.975Z</time></trkpt><trkpt lat="37.94291544258501" lon="14.67122881396421"><ele>1461.0</ele><time>2026-04-12T08:52:19.975Z</time></trkpt><trkpt lat="37.9428288817357" lon="14.67115849333138"><ele>1461.0</ele><time>2026-04-12T08:52:21.975Z</time></trkpt><trkpt lat="37.942737511428035" lon="14.67105951517305"><ele>1461.0</ele><time>2026-04-12T08:52:23.975Z</time></trkpt><trkpt lat="37.94265991614808" lon="14.6709547685092"><ele>1461.0</ele><time>2026-04-12T08:52:25.975Z</time></trkpt><trkpt lat="37.94255979672332" lon="14.670886954295995"><ele>1460.8333333333333</ele><time>2026-04-12T08:52:27.975Z</time></trkpt><trkpt lat="37.94250075853514" lon="14.67081889114207"><ele>1460.6666666666667</ele><time>2026-04-12T08:52:29.975Z</time></trkpt><trkpt lat="37.94243725024662" lon="14.670766042269474"><ele>1460.5</ele><time>2026-04-12T08:52:31.974Z</time></trkpt><trkpt lat="37.94236436833467" lon="14.670712113169674"><ele>1460.3333333333335</ele><time>2026-04-12T08:52:34.974Z</time></trkpt><trkpt lat="37.94227610006327" lon="14.670666378697359"><ele>1460.1666666666667</ele><time>2026-04-12T08:52:36.974Z</time></trkpt><trkpt lat="37.94219038728531" lon="14.67063154862431"><ele>1460.0</ele><time>2026-04-12T08:52:38.974Z</time></trkpt><trkpt lat="37.942121763463334" lon="14.670617621697795"><ele>1460.0</ele><time>2026-04-12T08:52:39.974Z</time></trkpt><trkpt lat="37.942058909302325" lon="14.670594017042173"><ele>1460.0</ele><time>2026-04-12T08:52:40.974Z</time></trkpt><trkpt lat="37.94195325586675" lon="14.67058832583727"><ele>1460.0</ele><time>2026-04-12T08:52:42.974Z</time></trkpt><trkpt lat="37.94185951126639" lon="14.670587197362693"><ele>1460.0</ele><time>2026-04-12T08:52:44.974Z</time></trkpt><trkpt lat="37.94177145796913" lon="14.670570499165764"><ele>1460.0</ele><time>2026-04-12T08:52:46.974Z</time></trkpt><trkpt lat="37.94165991618626" lon="14.670586530542604"><ele>1459.5</ele><time>2026-04-12T08:52:48.974Z</time></trkpt><trkpt lat="37.94158943553316" lon="14.670595268981014"><ele>1459.0</ele><time>2026-04-12T08:52:49.974Z</time></trkpt><trkpt lat="37.9415118351784" lon="14.670611033507992"><ele>1458.5</ele><time>2026-04-12T08:52:50.974Z</time></trkpt><trkpt lat="37.94143613274908" lon="14.670620435646633"><ele>1458.0</ele><time>2026-04-12T08:52:51.974Z</time></trkpt><trkpt lat="37.94136791449043" lon="14.670597377536616"><ele>1457.5</ele><time>2026-04-12T08:52:52.974Z</time></trkpt><trkpt lat="37.94129521066191" lon="14.67057470920977"><ele>1457.0</ele><time>2026-04-12T08:52:53.974Z</time></trkpt><trkpt lat="37.941210890252336" lon="14.670561576221017"><ele>1457.0</ele><time>2026-04-12T08:52:54.974Z</time></trkpt><trkpt lat="37.94112515899555" lon="14.670555129578178"><ele>1457.0</ele><time>2026-04-12T08:52:55.974Z</time></trkpt><trkpt lat="37.94103095848734" lon="14.670542502327901"><ele>1457.0</ele><time>2026-04-12T08:52:56.974Z</time></trkpt><trkpt lat="37.940935329245626" lon="14.670528331783707"><ele>1457.0</ele><time>2026-04-12T08:52:57.974Z</time></trkpt><trkpt lat="37.94081816522338" lon="14.670532150478248"><ele>1457.0</ele><time>2026-04-12T08:52:58.974Z</time></trkpt><trkpt lat="37.940699401640934" lon="14.670521402662102"><ele>1456.8</ele><time>2026-04-12T08:52:59.974Z</time></trkpt><trkpt lat="37.94057819976544" lon="14.670507519182761"><ele>1456.6</ele><time>2026-04-12T08:53:00.974Z</time></trkpt><trkpt lat="37.94047610860699" lon="14.67049623702175"><ele>1456.3999999999999</ele><time>2026-04-12T08:53:01.974Z</time></trkpt><trkpt lat="37.94038164901852" lon="14.670483096948468"><ele>1456.1999999999998</ele><time>2026-04-12T08:53:02.974Z</time></trkpt><trkpt lat="37.94027969340994" lon="14.670454252481006"><ele>1456.0</ele><time>2026-04-12T08:53:03.974Z</time></trkpt><trkpt lat="37.94016664957849" lon="14.670407290978513"><ele>1456.1999999999998</ele><time>2026-04-12T08:53:04.974Z</time></trkpt><trkpt lat="37.94004192855489" lon="14.670379429940201"><ele>1456.3999999999999</ele><time>2026-04-12T08:53:05.974Z</time></trkpt><trkpt lat="37.93992852371642" lon="14.670353225368128"><ele>1456.6</ele><time>2026-04-12T08:53:06.973Z</time></trkpt><trkpt lat="37.93984114739926" lon="14.670330326088177"><ele>1456.8</ele><time>2026-04-12T08:53:07.973Z</time></trkpt><trkpt lat="37.93973504889513" lon="14.670342270420662"><ele>1457.0</ele><time>2026-04-12T08:53:09.973Z</time></trkpt><trkpt lat="37.939652959000156" lon="14.670373254563492"><ele>1457.0</ele><time>2026-04-12T08:53:11.973Z</time></trkpt><trkpt lat="37.93960164159439" lon="14.670427395134709"><ele>1457.0</ele><time>2026-04-12T08:53:12.973Z</time></trkpt><trkpt lat="37.939515461664946" lon="14.670478326609674"><ele>1457.0</ele><time>2026-04-12T08:53:13.973Z</time></trkpt><trkpt lat="37.93944524027858" lon="14.670573619690925"><ele>1457.0</ele><time>2026-04-12T08:53:14.973Z</time></trkpt><trkpt lat="37.93939821538479" lon="14.67066396109043"><ele>1457.0</ele><time>2026-04-12T08:53:15.973Z</time></trkpt><trkpt lat="37.93936676559002" lon="14.670748361930297"><ele>1457.0</ele><time>2026-04-12T08:53:16.973Z</time></trkpt><trkpt lat="37.9393343346742" lon="14.670819735491445"><ele>1457.0</ele><time>2026-04-12T08:53:17.973Z</time></trkpt><trkpt lat="37.939263954943875" lon="14.67091668220235"><ele>1457.0</ele><time>2026-04-12T08:53:19.973Z</time></trkpt><trkpt lat="37.939162941917544" lon="14.670978959371315"><ele>1457.0</ele><time>2026-04-12T08:53:21.973Z</time></trkpt><trkpt lat="37.939094885826364" lon="14.670976882937365"><ele>1457.0</ele><time>2026-04-12T08:53:22.973Z</time></trkpt><trkpt lat="37.93899947951113" lon="14.670972479298776"><ele>1457.0</ele><time>2026-04-12T08:53:23.973Z</time></trkpt><trkpt lat="37.93891354535013" lon="14.670971832478527"><ele>1457.6666666666667</ele><time>2026-04-12T08:53:24.973Z</time></trkpt><trkpt lat="37.93881495612103" lon="14.670998837592546"><ele>1458.3333333333335</ele><time>2026-04-12T08:53:25.973Z</time></trkpt><trkpt lat="37.938733386056185" lon="14.671040424311894"><ele>1459.0</ele><time>2026-04-12T08:53:26.973Z</time></trkpt><trkpt lat="37.93866827108779" lon="14.6710641579962"><ele>1459.6666666666667</ele><time>2026-04-12T08:53:27.976Z</time></trkpt><trkpt lat="37.93859272659975" lon="14.671116895387154"><ele>1460.3333333333333</ele><time>2026-04-12T08:53:29.976Z</time></trkpt><trkpt lat="37.93856186577921" lon="14.67118819683494"><ele>1461.0</ele><time>2026-04-12T08:53:30.976Z</time></trkpt><trkpt lat="37.938509381559236" lon="14.671303576850663"><ele>1463.1999999999998</ele><time>2026-04-12T08:53:31.976Z</time></trkpt><trkpt lat="37.93847073858413" lon="14.6713857555261"><ele>1465.3999999999999</ele><time>2026-04-12T08:53:32.976Z</time></trkpt><trkpt lat="37.93840014098905" lon="14.671508735228453"><ele>1467.6</ele><time>2026-04-12T08:53:34.976Z</time></trkpt><trkpt lat="37.9383136818936" lon="14.67160394030114"><ele>1469.8</ele><time>2026-04-12T08:53:35.975Z</time></trkpt><trkpt lat="37.93821314959636" lon="14.671707866330152"><ele>1472.0</ele><time>2026-04-12T08:53:36.976Z</time></trkpt><trkpt lat="37.93813336248416" lon="14.67177177241306"><ele>1473.3333333333335</ele><time>2026-04-12T08:53:37.976Z</time></trkpt><trkpt lat="37.938059918840615" lon="14.671845204679913"><ele>1474.6666666666667</ele><time>2026-04-12T08:53:38.976Z</time></trkpt><trkpt lat="37.93800349599359" lon="14.671923027797046"><ele>1476.0</ele><time>2026-04-12T08:53:39.975Z</time></trkpt><trkpt lat="37.9379551474695" lon="14.671993677642657"><ele>1477.3333333333333</ele><time>2026-04-12T08:53:40.976Z</time></trkpt><trkpt lat="37.937905078295785" lon="14.672094907677577"><ele>1478.6666666666665</ele><time>2026-04-12T08:53:41.976Z</time></trkpt><trkpt lat="37.937852755093104" lon="14.672194985632274"><ele>1480.0</ele><time>2026-04-12T08:53:42.976Z</time></trkpt><trkpt lat="37.937799136160855" lon="14.672279783694927"><ele>1479.8333333333333</ele><time>2026-04-12T08:53:43.976Z</time></trkpt><trkpt lat="37.93776347359556" lon="14.672356408593831"><ele>1479.6666666666665</ele><time>2026-04-12T08:53:44.976Z</time></trkpt><trkpt lat="37.93771093288623" lon="14.672416603555716"><ele>1479.5</ele><time>2026-04-12T08:53:45.976Z</time></trkpt><trkpt lat="37.937643311529236" lon="14.672468693339583"><ele>1479.3333333333333</ele><time>2026-04-12T08:53:46.976Z</time></trkpt><trkpt lat="37.93756293221953" lon="14.672530050815675"><ele>1479.1666666666667</ele><time>2026-04-12T08:53:47.976Z</time></trkpt><trkpt lat="37.93747890062535" lon="14.672606874671368"><ele>1479.0</ele><time>2026-04-12T08:53:48.976Z</time></trkpt><trkpt lat="37.93740931916117" lon="14.6726792063246"><ele>1479.0</ele><time>2026-04-12T08:53:49.976Z</time></trkpt><trkpt lat="37.9373625847196" lon="14.672767067356451"><ele>1479.0</ele><time>2026-04-12T08:53:50.975Z</time></trkpt><trkpt lat="37.93732317647346" lon="14.672859278152977"><ele>1479.0</ele><time>2026-04-12T08:53:51.975Z</time></trkpt><trkpt lat="37.93726610221386" lon="14.672912281323478"><ele>1479.0</ele><time>2026-04-12T08:53:52.975Z</time></trkpt><trkpt lat="37.93718783997665" lon="14.672948373126832"><ele>1479.0</ele><time>2026-04-12T08:53:53.975Z</time></trkpt><trkpt lat="37.93710570452247" lon="14.672985564968629"><ele>1479.0</ele><time>2026-04-12T08:53:54.975Z</time></trkpt><trkpt lat="37.93702551276" lon="14.673045448792758"><ele>1480.8333333333333</ele><time>2026-04-12T08:53:55.975Z</time></trkpt><trkpt lat="37.936952190342296" lon="14.673114178099622"><ele>1482.6666666666667</ele><time>2026-04-12T08:53:56.975Z</time></trkpt><trkpt lat="37.936888340530096" lon="14.67317529726487"><ele>1484.5</ele><time>2026-04-12T08:53:57.975Z</time></trkpt><trkpt lat="37.93683164504839" lon="14.673232653182605"><ele>1486.3333333333335</ele><time>2026-04-12T08:53:58.975Z</time></trkpt><trkpt lat="37.936772163854684" lon="14.673283321065403"><ele>1488.1666666666667</ele><time>2026-04-12T08:53:59.975Z</time></trkpt><trkpt lat="37.936700972627534" lon="14.673340412453811"><ele>1490.0</ele><time>2026-04-12T08:54:00.975Z</time></trkpt><trkpt lat="37.93662839599532" lon="14.673428498999494"><ele>1490.0</ele><time>2026-04-12T08:54:01.975Z</time></trkpt><trkpt lat="37.93656018841321" lon="14.673519508444341"><ele>1490.0</ele><time>2026-04-12T08:54:02.975Z</time></trkpt><trkpt lat="37.936514711361546" lon="14.673610008213386"><ele>1490.0</ele><time>2026-04-12T08:54:03.975Z</time></trkpt><trkpt lat="37.93647419034586" lon="14.673698651486877"><ele>1490.0</ele><time>2026-04-12T08:54:04.975Z</time></trkpt><trkpt lat="37.936432742709385" lon="14.673762361268055"><ele>1490.0</ele><time>2026-04-12T08:54:05.975Z</time></trkpt><trkpt lat="37.93637512650047" lon="14.67379958333708"><ele>1490.0</ele><time>2026-04-12T08:54:06.975Z</time></trkpt><trkpt lat="37.936311199182725" lon="14.673806426085536"><ele>1491.4285714285713</ele><time>2026-04-12T08:54:07.975Z</time></trkpt><trkpt lat="37.936242929261795" lon="14.673821899314143"><ele>1492.8571428571427</ele><time>2026-04-12T08:54:08.975Z</time></trkpt><trkpt lat="37.936170172648545" lon="14.673848637699244"><ele>1494.2857142857142</ele><time>2026-04-12T08:54:09.975Z</time></trkpt><trkpt lat="37.936104747775474" lon="14.67387058049531"><ele>1495.7142857142858</ele><time>2026-04-12T08:54:10.975Z</time></trkpt><trkpt lat="37.9360274446936" lon="14.67387921747451"><ele>1497.142857142857</ele><time>2026-04-12T08:54:11.975Z</time></trkpt><trkpt lat="37.935947186926185" lon="14.673891481317266"><ele>1498.5714285714287</ele><time>2026-04-12T08:54:12.975Z</time></trkpt><trkpt lat="37.935882499176365" lon="14.673898443527342"><ele>1500.0</ele><time>2026-04-12T08:54:13.975Z</time></trkpt><trkpt lat="37.93581767021928" lon="14.673900566989921"><ele>1500.0</ele><time>2026-04-12T08:54:14.975Z</time></trkpt><trkpt lat="37.93573909286009" lon="14.67392431640782"><ele>1500.0</ele><time>2026-04-12T08:54:15.975Z</time></trkpt><trkpt lat="37.93566365435269" lon="14.67395498966674"><ele>1500.0</ele><time>2026-04-12T08:54:16.975Z</time></trkpt><trkpt lat="37.935573814239774" lon="14.67399217809437"><ele>1500.0</ele><time>2026-04-12T08:54:17.975Z</time></trkpt><trkpt lat="37.935489175639326" lon="14.674030404559733"><ele>1500.0</ele><time>2026-04-12T08:54:18.975Z</time></trkpt><trkpt lat="37.93539771758201" lon="14.674078951278279"><ele>1500.0</ele><time>2026-04-12T08:54:19.975Z</time></trkpt><trkpt lat="37.935316383025864" lon="14.674100422462748"><ele>1500.0</ele><time>2026-04-12T08:54:20.975Z</time></trkpt><trkpt lat="37.935232375333996" lon="14.674119152332274"><ele>1500.0</ele><time>2026-04-12T08:54:21.975Z</time></trkpt><trkpt lat="37.93515373361496" lon="14.674140277581573"><ele>1500.0</ele><time>2026-04-12T08:54:22.975Z</time></trkpt><trkpt lat="37.93507004324258" lon="14.674206936503298"><ele>1500.0</ele><time>2026-04-12T08:54:23.975Z</time></trkpt><trkpt lat="37.93501155910701" lon="14.674294642465481"><ele>1500.0</ele><time>2026-04-12T08:54:24.975Z</time></trkpt><trkpt lat="37.93497710930785" lon="14.67439489360225"><ele>1500.0</ele><time>2026-04-12T08:54:25.974Z</time></trkpt><trkpt lat="37.93493468419305" lon="14.674504559903566"><ele>1500.5</ele><time>2026-04-12T08:54:26.974Z</time></trkpt><trkpt lat="37.934892285856925" lon="14.674593593261871"><ele>1501.0</ele><time>2026-04-12T08:54:27.974Z</time></trkpt><trkpt lat="37.93483903513237" lon="14.674683529938168"><ele>1501.5</ele><time>2026-04-12T08:54:28.974Z</time></trkpt><trkpt lat="37.93477614504349" lon="14.674750279566709"><ele>1502.0</ele><time>2026-04-12T08:54:29.974Z</time></trkpt><trkpt lat="37.934705023771144" lon="14.674797260975646"><ele>1502.5</ele><time>2026-04-12T08:54:30.974Z</time></trkpt><trkpt lat="37.934633453137316" lon="14.674834629435225"><ele>1503.0</ele><time>2026-04-12T08:54:31.974Z</time></trkpt><trkpt lat="37.93456685834523" lon="14.674845935426323"><ele>1503.0</ele><time>2026-04-12T08:54:32.974Z</time></trkpt><trkpt lat="37.934448468306655" lon="14.674819671953106"><ele>1503.0</ele><time>2026-04-12T08:54:34.974Z</time></trkpt><trkpt lat="37.93433216259497" lon="14.674810776109188"><ele>1503.0</ele><time>2026-04-12T08:54:36.974Z</time></trkpt><trkpt lat="37.934197070186976" lon="14.674785446116742"><ele>1503.0</ele><time>2026-04-12T08:54:38.974Z</time></trkpt><trkpt lat="37.93413451713039" lon="14.674774793006195"><ele>1503.0</ele><time>2026-04-12T08:54:39.974Z</time></trkpt><trkpt lat="37.93406306455283" lon="14.674769684911793"><ele>1503.1666666666667</ele><time>2026-04-12T08:54:40.974Z</time></trkpt><trkpt lat="37.93394233998443" lon="14.674759836437078"><ele>1503.3333333333333</ele><time>2026-04-12T08:54:42.974Z</time></trkpt><trkpt lat="37.93388898388168" lon="14.67470169339313"><ele>1503.5</ele><time>2026-04-12T08:54:43.974Z</time></trkpt><trkpt lat="37.933844710507074" lon="14.674636904364483"><ele>1503.6666666666665</ele><time>2026-04-12T08:54:44.974Z</time></trkpt><trkpt lat="37.933790193166665" lon="14.67455387489425"><ele>1503.8333333333333</ele><time>2026-04-12T08:54:45.974Z</time></trkpt><trkpt lat="37.93374883618239" lon="14.674490101108148"><ele>1504.0</ele><time>2026-04-12T08:54:46.974Z</time></trkpt><trkpt lat="37.933644320965264" lon="14.674395478364946"><ele>1503.0</ele><time>2026-04-12T08:54:48.974Z</time></trkpt><trkpt lat="37.9335587241432" lon="14.674353794993646"><ele>1502.0</ele><time>2026-04-12T08:54:49.974Z</time></trkpt><trkpt lat="37.93346910841889" lon="14.674322646739887"><ele>1501.0</ele><time>2026-04-12T08:54:50.974Z</time></trkpt><trkpt lat="37.93338696588807" lon="14.674308741672142"><ele>1500.0</ele><time>2026-04-12T08:54:51.974Z</time></trkpt><trkpt lat="37.93331578099472" lon="14.674322943663148"><ele>1499.0</ele><time>2026-04-12T08:54:52.974Z</time></trkpt><trkpt lat="37.933235313191055" lon="14.674353918546863"><ele>1498.0</ele><time>2026-04-12T08:54:53.974Z</time></trkpt><trkpt lat="37.93316513647855" lon="14.674387970730466"><ele>1498.0</ele><time>2026-04-12T08:54:54.974Z</time></trkpt><trkpt lat="37.93309329563324" lon="14.67443317228144"><ele>1498.0</ele><time>2026-04-12T08:54:55.974Z</time></trkpt><trkpt lat="37.933013714113" lon="14.674450159793691"><ele>1498.0</ele><time>2026-04-12T08:54:56.974Z</time></trkpt><trkpt lat="37.93294389311205" lon="14.674457319220044"><ele>1498.0</ele><time>2026-04-12T08:54:57.974Z</time></trkpt><trkpt lat="37.93287471416837" lon="14.674468141689232"><ele>1498.0</ele><time>2026-04-12T08:54:58.974Z</time></trkpt><trkpt lat="37.932747547638776" lon="14.674510447291512"><ele>1498.0</ele><time>2026-04-12T08:55:00.973Z</time></trkpt><trkpt lat="37.93268447179888" lon="14.674553143842441"><ele>1500.6000000000001</ele><time>2026-04-12T08:55:01.973Z</time></trkpt><trkpt lat="37.93262626123618" lon="14.674604353410844"><ele>1503.2</ele><time>2026-04-12T08:55:02.973Z</time></trkpt><trkpt lat="37.93255374192312" lon="14.674677170926671"><ele>1505.8</ele><time>2026-04-12T08:55:03.973Z</time></trkpt><trkpt lat="37.9324907277423" lon="14.674774120952897"><ele>1508.4</ele><time>2026-04-12T08:55:04.973Z</time></trkpt><trkpt lat="37.93241546517118" lon="14.674870990707404"><ele>1511.0</ele><time>2026-04-12T08:55:05.973Z</time></trkpt><trkpt lat="37.93233888176043" lon="14.674946422354157"><ele>1511.4285714285713</ele><time>2026-04-12T08:55:06.973Z</time></trkpt><trkpt lat="37.93227688895794" lon="14.674999299454546"><ele>1511.8571428571427</ele><time>2026-04-12T08:55:07.973Z</time></trkpt><trkpt lat="37.932217671603915" lon="14.675055426260519"><ele>1512.2857142857142</ele><time>2026-04-12T08:55:08.973Z</time></trkpt><trkpt lat="37.932157192924464" lon="14.67509596659543"><ele>1512.7142857142858</ele><time>2026-04-12T08:55:09.973Z</time></trkpt><trkpt lat="37.93208820582664" lon="14.67512203996611"><ele>1513.142857142857</ele><time>2026-04-12T08:55:10.973Z</time></trkpt><trkpt lat="37.93201888194524" lon="14.675131606161806"><ele>1513.5714285714287</ele><time>2026-04-12T08:55:11.973Z</time></trkpt><trkpt lat="37.93195098141208" lon="14.675140039421704"><ele>1514.0</ele><time>2026-04-12T08:55:12.973Z</time></trkpt><trkpt lat="37.931887665668" lon="14.675133820294471"><ele>1514.0</ele><time>2026-04-12T08:55:13.973Z</time></trkpt><trkpt lat="37.931781717557875" lon="14.675113786166515"><ele>1514.0</ele><time>2026-04-12T08:55:15.973Z</time></trkpt><trkpt lat="37.93164424008897" lon="14.67510029646141"><ele>1514.0</ele><time>2026-04-12T08:55:17.973Z</time></trkpt><trkpt lat="37.93157768350521" lon="14.675097595301734"><ele>1514.0</ele><time>2026-04-12T08:55:18.973Z</time></trkpt><trkpt lat="37.93149532850146" lon="14.675104093982863"><ele>1514.0</ele><time>2026-04-12T08:55:19.973Z</time></trkpt><trkpt lat="37.93141223751225" lon="14.675106340829911"><ele>1514.5</ele><time>2026-04-12T08:55:20.973Z</time></trkpt><trkpt lat="37.93131635247349" lon="14.67511431418672"><ele>1515.0</ele><time>2026-04-12T08:55:21.973Z</time></trkpt><trkpt lat="37.93122506834561" lon="14.675140977997506"><ele>1515.5</ele><time>2026-04-12T08:55:22.973Z</time></trkpt><trkpt lat="37.93113662778552" lon="14.675148177624965"><ele>1516.0</ele><time>2026-04-12T08:55:23.973Z</time></trkpt><trkpt lat="37.931055105237256" lon="14.675162942680831"><ele>1516.5</ele><time>2026-04-12T08:55:24.973Z</time></trkpt><trkpt lat="37.930975972863905" lon="14.675154916494312"><ele>1517.0</ele><time>2026-04-12T08:55:25.973Z</time></trkpt><trkpt lat="37.93090069067575" lon="14.675138298825123"><ele>1518.3333333333335</ele><time>2026-04-12T08:55:26.973Z</time></trkpt><trkpt lat="37.93083668151581" lon="14.675104444363587"><ele>1519.6666666666667</ele><time>2026-04-12T08:55:27.973Z</time></trkpt><trkpt lat="37.93076998677385" lon="14.67505026572798"><ele>1521.0</ele><time>2026-04-12T08:55:28.973Z</time></trkpt><trkpt lat="37.93070662104971" lon="14.674977939199332"><ele>1522.3333333333333</ele><time>2026-04-12T08:55:29.973Z</time></trkpt><trkpt lat="37.930642485443386" lon="14.67489316487206"><ele>1523.6666666666665</ele><time>2026-04-12T08:55:30.971Z</time></trkpt><trkpt lat="37.93058175114538" lon="14.674808069557946"><ele>1525.0</ele><time>2026-04-12T08:55:31.969Z</time></trkpt><trkpt lat="37.93053388134534" lon="14.674726688209663"><ele>1525.0</ele><time>2026-04-12T08:55:32.967Z</time></trkpt><trkpt lat="37.930498388521876" lon="14.67465020739378"><ele>1525.0</ele><time>2026-04-12T08:55:33.968Z</time></trkpt><trkpt lat="37.9304530366998" lon="14.674577957798176"><ele>1525.0</ele><time>2026-04-12T08:55:34.966Z</time></trkpt><trkpt lat="37.930399518299396" lon="14.67453077122212"><ele>1525.0</ele><time>2026-04-12T08:55:35.965Z</time></trkpt><trkpt lat="37.93032231260404" lon="14.674495643370692"><ele>1525.0</ele><time>2026-04-12T08:55:36.962Z</time></trkpt><trkpt lat="37.93023825827143" lon="14.674461142647289"><ele>1525.0</ele><time>2026-04-12T08:55:37.961Z</time></trkpt><trkpt lat="37.930128900569215" lon="14.674444571002342"><ele>1527.0</ele><time>2026-04-12T08:55:38.96Z</time></trkpt><trkpt lat="37.9300319709199" lon="14.674421579800521"><ele>1529.0</ele><time>2026-04-12T08:55:39.958Z</time></trkpt><trkpt lat="37.92995250276132" lon="14.674418196970386"><ele>1531.0</ele><time>2026-04-12T08:55:40.957Z</time></trkpt><trkpt lat="37.929873514059" lon="14.674405654017518"><ele>1533.0</ele><time>2026-04-12T08:55:41.955Z</time></trkpt><trkpt lat="37.92979927502827" lon="14.674388915391726"><ele>1535.0000000000002</ele><time>2026-04-12T08:55:42.954Z</time></trkpt><trkpt lat="37.92972566606253" lon="14.674361702394796"><ele>1537.0</ele><time>2026-04-12T08:55:43.953Z</time></trkpt><trkpt lat="37.9296392306525" lon="14.674314393826847"><ele>1537.0000000000002</ele><time>2026-04-12T08:55:44.952Z</time></trkpt><trkpt lat="37.929571807539226" lon="14.674259751296233"><ele>1537.0</ele><time>2026-04-12T08:55:45.952Z</time></trkpt><trkpt lat="37.92950732514447" lon="14.674198459689512"><ele>1537.0</ele><time>2026-04-12T08:55:46.95Z</time></trkpt><trkpt lat="37.92944664776464" lon="14.674120715016556"><ele>1537.0</ele><time>2026-04-12T08:55:47.95Z</time></trkpt><trkpt lat="37.92938226825502" lon="14.67404588738395"><ele>1537.0000000000002</ele><time>2026-04-12T08:55:48.949Z</time></trkpt><trkpt lat="37.92931467722833" lon="14.67395682666583"><ele>1537.0</ele><time>2026-04-12T08:55:49.948Z</time></trkpt><trkpt lat="37.92924297336927" lon="14.673875765280979"><ele>1538.6666666666667</ele><time>2026-04-12T08:55:50.947Z</time></trkpt><trkpt lat="37.92916827798475" lon="14.673797310321696"><ele>1540.3333333333335</ele><time>2026-04-12T08:55:51.947Z</time></trkpt><trkpt lat="37.92909524641684" lon="14.673725520460883"><ele>1542.0</ele><time>2026-04-12T08:55:52.946Z</time></trkpt><trkpt lat="37.92904324250547" lon="14.67365653072438"><ele>1543.6666666666665</ele><time>2026-04-12T08:55:53.945Z</time></trkpt><trkpt lat="37.92899941087433" lon="14.673592806140759"><ele>1545.3333333333333</ele><time>2026-04-12T08:55:54.945Z</time></trkpt><trkpt lat="37.928941085833166" lon="14.673531645033247"><ele>1547.0</ele><time>2026-04-12T08:55:55.944Z</time></trkpt><trkpt lat="37.928884485358076" lon="14.673463302107608"><ele>1547.0</ele><time>2026-04-12T08:55:56.944Z</time></trkpt><trkpt lat="37.92882720884853" lon="14.673380303654763"><ele>1547.0</ele><time>2026-04-12T08:55:57.943Z</time></trkpt><trkpt lat="37.92875910377732" lon="14.673287518861258"><ele>1547.0</ele><time>2026-04-12T08:55:58.943Z</time></trkpt><trkpt lat="37.92867975846737" lon="14.6731945776598"><ele>1547.0</ele><time>2026-04-12T08:55:59.943Z</time></trkpt><trkpt lat="37.9285981900675" lon="14.673113471863482"><ele>1547.0</ele><time>2026-04-12T08:56:00.942Z</time></trkpt><trkpt lat="37.92853187819945" lon="14.673047973774397"><ele>1546.9999999999998</ele><time>2026-04-12T08:56:01.942Z</time></trkpt><trkpt lat="37.92848822594171" lon="14.67297699066221"><ele>1547.0</ele><time>2026-04-12T08:56:02.941Z</time></trkpt><trkpt lat="37.92843239288089" lon="14.672835659711849"><ele>1547.0</ele><time>2026-04-12T08:56:04.941Z</time></trkpt><trkpt lat="37.92840789380736" lon="14.672749026909663"><ele>1547.0</ele><time>2026-04-12T08:56:05.941Z</time></trkpt><trkpt lat="37.92838509618245" lon="14.672666752168713"><ele>1546.9999999999998</ele><time>2026-04-12T08:56:06.94Z</time></trkpt><trkpt lat="37.92837850854464" lon="14.672569274576372"><ele>1547.0</ele><time>2026-04-12T08:56:07.94Z</time></trkpt><trkpt lat="37.92838026230859" lon="14.672479289210948"><ele>1551.0</ele><time>2026-04-12T08:56:08.94Z</time></trkpt><trkpt lat="37.92837597914602" lon="14.672361201569604"><ele>1555.0</ele><time>2026-04-12T08:56:10.939Z</time></trkpt><trkpt lat="37.928349584683545" lon="14.672244604918072"><ele>1559.0</ele><time>2026-04-12T08:56:12.939Z</time></trkpt><trkpt lat="37.928336643912246" lon="14.672095521593002"><ele>1563.0</ele><time>2026-04-12T08:56:14.938Z</time></trkpt><trkpt lat="37.92831136034616" lon="14.672000063373822"><ele>1567.0</ele><time>2026-04-12T08:56:15.938Z</time></trkpt><trkpt lat="37.928293836955724" lon="14.671899889626328"><ele>1567.3999999999999</ele><time>2026-04-12T08:56:16.938Z</time></trkpt><trkpt lat="37.92827873899534" lon="14.671801558122441"><ele>1567.8</ele><time>2026-04-12T08:56:17.938Z</time></trkpt><trkpt lat="37.92822859814385" lon="14.671665938435126"><ele>1568.2</ele><time>2026-04-12T08:56:19.938Z</time></trkpt><trkpt lat="37.92819337852654" lon="14.671575789953714"><ele>1568.6</ele><time>2026-04-12T08:56:20.938Z</time></trkpt><trkpt lat="37.92814801080459" lon="14.671475066358234"><ele>1569.0</ele><time>2026-04-12T08:56:21.937Z</time></trkpt><trkpt lat="37.92810366468649" lon="14.671368949096342"><ele>1569.0</ele><time>2026-04-12T08:56:22.937Z</time></trkpt><trkpt lat="37.92806138763207" lon="14.671259234863284"><ele>1569.0</ele><time>2026-04-12T08:56:23.937Z</time></trkpt><trkpt lat="37.92801135542543" lon="14.671148659864322"><ele>1569.0</ele><time>2026-04-12T08:56:24.937Z</time></trkpt><trkpt lat="37.92795089996709" lon="14.671032129954474"><ele>1569.0</ele><time>2026-04-12T08:56:25.937Z</time></trkpt><trkpt lat="37.92788883837143" lon="14.670895707538957"><ele>1569.0</ele><time>2026-04-12T08:56:26.937Z</time></trkpt><trkpt lat="37.92784888796303" lon="14.670759945452698"><ele>1568.0</ele><time>2026-04-12T08:56:27.937Z</time></trkpt><trkpt lat="37.92779825120094" lon="14.670637698740295"><ele>1567.0</ele><time>2026-04-12T08:56:28.937Z</time></trkpt><trkpt lat="37.927735888297235" lon="14.670497822732683"><ele>1566.0</ele><time>2026-04-12T08:56:29.937Z</time></trkpt><trkpt lat="37.92766008112894" lon="14.670354973841018"><ele>1565.0</ele><time>2026-04-12T08:56:30.937Z</time></trkpt><trkpt lat="37.92760380805012" lon="14.670243575509911"><ele>1567.6</ele><time>2026-04-12T08:56:31.936Z</time></trkpt><trkpt lat="37.92753329176491" lon="14.670145419379487"><ele>1570.2</ele><time>2026-04-12T08:56:32.936Z</time></trkpt><trkpt lat="37.92746918450892" lon="14.67005900688456"><ele>1572.8000000000002</ele><time>2026-04-12T08:56:33.936Z</time></trkpt><trkpt lat="37.92744436434021" lon="14.66993801918434"><ele>1575.4</ele><time>2026-04-12T08:56:34.936Z</time></trkpt><trkpt lat="37.927377149815534" lon="14.669842488564164"><ele>1578.0</ele><time>2026-04-12T08:56:35.936Z</time></trkpt><trkpt lat="37.92730677674191" lon="14.669742628586775"><ele>1578.0</ele><time>2026-04-12T08:56:36.936Z</time></trkpt><trkpt lat="37.927242565591726" lon="14.669651690723315"><ele>1578.0</ele><time>2026-04-12T08:56:37.936Z</time></trkpt><trkpt lat="37.92717943970787" lon="14.669561727738051"><ele>1578.0</ele><time>2026-04-12T08:56:38.936Z</time></trkpt><trkpt lat="37.927116158297906" lon="14.66946420050612"><ele>1578.0</ele><time>2026-04-12T08:56:39.936Z</time></trkpt><trkpt lat="37.92706362201484" lon="14.669399348468298"><ele>1578.0</ele><time>2026-04-12T08:56:40.936Z</time></trkpt><trkpt lat="37.92701559367274" lon="14.669262381785398"><ele>1578.1666666666667</ele><time>2026-04-12T08:56:42.936Z</time></trkpt><trkpt lat="37.92698824060103" lon="14.66917655395623"><ele>1578.3333333333335</ele><time>2026-04-12T08:56:43.936Z</time></trkpt><trkpt lat="37.92695914161845" lon="14.669104423391"><ele>1578.5</ele><time>2026-04-12T08:56:44.936Z</time></trkpt><trkpt lat="37.92694754910215" lon="14.668984582327848"><ele>1578.6666666666667</ele><time>2026-04-12T08:56:45.935Z</time></trkpt><trkpt lat="37.92692128342986" lon="14.668860942101913"><ele>1578.8333333333335</ele><time>2026-04-12T08:56:46.935Z</time></trkpt><trkpt lat="37.926889784070895" lon="14.66875283064515"><ele>1579.0</ele><time>2026-04-12T08:56:47.935Z</time></trkpt><trkpt lat="37.92684527379473" lon="14.668646252606862"><ele>1579.6666666666667</ele><time>2026-04-12T08:56:48.935Z</time></trkpt><trkpt lat="37.92679045261868" lon="14.66856250949057"><ele>1580.3333333333335</ele><time>2026-04-12T08:56:49.935Z</time></trkpt><trkpt lat="37.92672493351202" lon="14.668520082216041"><ele>1581.0</ele><time>2026-04-12T08:56:50.935Z</time></trkpt><trkpt lat="37.92666915169648" lon="14.668472992640469"><ele>1581.6666666666665</ele><time>2026-04-12T08:56:51.935Z</time></trkpt><trkpt lat="37.92659439638852" lon="14.668420172564113"><ele>1582.3333333333333</ele><time>2026-04-12T08:56:52.935Z</time></trkpt><trkpt lat="37.92651914982017" lon="14.668385538281306"><ele>1583.0</ele><time>2026-04-12T08:56:53.935Z</time></trkpt><trkpt lat="37.9264335529478" lon="14.668355280033728"><ele>1582.9999999999998</ele><time>2026-04-12T08:56:54.935Z</time></trkpt><trkpt lat="37.92635357536847" lon="14.668300180809718"><ele>1583.0</ele><time>2026-04-12T08:56:55.935Z</time></trkpt><trkpt lat="37.92627272947977" lon="14.66826103231055"><ele>1583.0</ele><time>2026-04-12T08:56:56.935Z</time></trkpt><trkpt lat="37.926210062787256" lon="14.668211740925399"><ele>1583.0</ele><time>2026-04-12T08:56:57.935Z</time></trkpt><trkpt lat="37.92614214715844" lon="14.668151047734199"><ele>1582.9999999999998</ele><time>2026-04-12T08:56:58.935Z</time></trkpt><trkpt lat="37.926105521397794" lon="14.668045683493055"><ele>1583.0</ele><time>2026-04-12T08:56:59.935Z</time></trkpt><trkpt lat="37.926084331216984" lon="14.667937382430596"><ele>1582.9999999999998</ele><time>2026-04-12T08:57:00.935Z</time></trkpt><trkpt lat="37.92605138541104" lon="14.66783564257997"><ele>1583.0</ele><time>2026-04-12T08:57:01.935Z</time></trkpt><trkpt lat="37.92602345186951" lon="14.667743706537744"><ele>1583.0</ele><time>2026-04-12T08:57:02.935Z</time></trkpt><trkpt lat="37.925982928540364" lon="14.66768034948348"><ele>1583.0</ele><time>2026-04-12T08:57:03.935Z</time></trkpt><trkpt lat="37.92592037831691" lon="14.667627478907677"><ele>1582.9999999999998</ele><time>2026-04-12T08:57:04.935Z</time></trkpt><trkpt lat="37.92582825590725" lon="14.667578625440145"><ele>1583.0</ele><time>2026-04-12T08:57:05.935Z</time></trkpt><trkpt lat="37.92572136308106" lon="14.667534245195581"><ele>1583.0</ele><time>2026-04-12T08:57:06.934Z</time></trkpt><trkpt lat="37.92561160733243" lon="14.667485647605561"><ele>1583.0</ele><time>2026-04-12T08:57:07.934Z</time></trkpt><trkpt lat="37.9255138003002" lon="14.667423948156506"><ele>1583.0</ele><time>2026-04-12T08:57:08.934Z</time></trkpt><trkpt lat="37.92540703873635" lon="14.667373693936252"><ele>1583.0</ele><time>2026-04-12T08:57:09.934Z</time></trkpt><trkpt lat="37.92530929786294" lon="14.667341403618959"><ele>1583.0</ele><time>2026-04-12T08:57:10.934Z</time></trkpt><trkpt lat="37.925233521676454" lon="14.667308678976154"><ele>1582.9999999999998</ele><time>2026-04-12T08:57:11.934Z</time></trkpt><trkpt lat="37.925165310209806" lon="14.667279700068175"><ele>1583.0</ele><time>2026-04-12T08:57:12.934Z</time></trkpt><trkpt lat="37.925091597931655" lon="14.667238044906247"><ele>1583.0</ele><time>2026-04-12T08:57:13.934Z</time></trkpt><trkpt lat="37.92502969792892" lon="14.667171014921388"><ele>1583.0</ele><time>2026-04-12T08:57:14.934Z</time></trkpt><trkpt lat="37.92498002268494" lon="14.667098100010527"><ele>1582.9999999999998</ele><time>2026-04-12T08:57:15.934Z</time></trkpt><trkpt lat="37.924942058210064" lon="14.667031636602262"><ele>1583.0</ele><time>2026-04-12T08:57:16.934Z</time></trkpt><trkpt lat="37.924913458031675" lon="14.666902933174125"><ele>1581.0</ele><time>2026-04-12T08:57:18.934Z</time></trkpt><trkpt lat="37.92489241582681" lon="14.66678897974849"><ele>1579.0</ele><time>2026-04-12T08:57:19.934Z</time></trkpt><trkpt lat="37.92489062894466" lon="14.66665956876874"><ele>1577.0</ele><time>2026-04-12T08:57:20.934Z</time></trkpt><trkpt lat="37.92489285238309" lon="14.666545329450647"><ele>1575.0</ele><time>2026-04-12T08:57:21.934Z</time></trkpt><trkpt lat="37.92489049041753" lon="14.66643656294228"><ele>1573.0</ele><time>2026-04-12T08:57:22.934Z</time></trkpt><trkpt lat="37.924885377477175" lon="14.666331488910155"><ele>1573.0000000000002</ele><time>2026-04-12T08:57:23.934Z</time></trkpt><trkpt lat="37.92488950345211" lon="14.666194092354946"><ele>1573.0</ele><time>2026-04-12T08:57:25.934Z</time></trkpt><trkpt lat="37.92488132178206" lon="14.66611133325219"><ele>1573.0</ele><time>2026-04-12T08:57:26.934Z</time></trkpt><trkpt lat="37.924861532074395" lon="14.666004698855794"><ele>1573.0</ele><time>2026-04-12T08:57:28.934Z</time></trkpt><trkpt lat="37.92484935444541" lon="14.665920952284967"><ele>1573.0000000000002</ele><time>2026-04-12T08:57:30.934Z</time></trkpt><trkpt lat="37.92482160953428" lon="14.665804169693077"><ele>1573.0</ele><time>2026-04-12T08:57:33.933Z</time></trkpt><trkpt lat="37.924783338367675" lon="14.665698772176334"><ele>1572.0</ele><time>2026-04-12T08:57:35.933Z</time></trkpt><trkpt lat="37.92479829489459" lon="14.665617292131932"><ele>1571.0</ele><time>2026-04-12T08:57:36.933Z</time></trkpt><trkpt lat="37.92478016714489" lon="14.665524460791692"><ele>1570.0</ele><time>2026-04-12T08:57:37.933Z</time></trkpt><trkpt lat="37.92476392514805" lon="14.66544283177909"><ele>1569.0</ele><time>2026-04-12T08:57:38.933Z</time></trkpt><trkpt lat="37.92474523303185" lon="14.665348888974195"><ele>1568.0</ele><time>2026-04-12T08:57:39.937Z</time></trkpt><trkpt lat="37.924726164077796" lon="14.66525305226915"><ele>1567.0</ele><time>2026-04-12T08:57:40.936Z</time></trkpt><trkpt lat="37.9247069487139" lon="14.665146989320814"><ele>1566.0</ele><time>2026-04-12T08:57:41.936Z</time></trkpt><trkpt lat="37.92469515826383" lon="14.665067509151754"><ele>1565.6666666666667</ele><time>2026-04-12T08:57:42.937Z</time></trkpt><trkpt lat="37.92468024489654" lon="14.664975548003081"><ele>1565.3333333333335</ele><time>2026-04-12T08:57:43.936Z</time></trkpt><trkpt lat="37.92468573215365" lon="14.664879501871557"><ele>1565.0</ele><time>2026-04-12T08:57:44.936Z</time></trkpt><trkpt lat="37.924701481040564" lon="14.664782300158182"><ele>1564.6666666666667</ele><time>2026-04-12T08:57:45.937Z</time></trkpt><trkpt lat="37.924716155313455" lon="14.664698932794227"><ele>1564.3333333333335</ele><time>2026-04-12T08:57:46.936Z</time></trkpt><trkpt lat="37.92474392794535" lon="14.664597380163464"><ele>1564.0</ele><time>2026-04-12T08:57:47.936Z</time></trkpt><trkpt lat="37.924775157237065" lon="14.664499938425967"><ele>1563.5000000000002</ele><time>2026-04-12T08:57:48.936Z</time></trkpt><trkpt lat="37.924781798602574" lon="14.664406463277663"><ele>1563.0</ele><time>2026-04-12T08:57:49.936Z</time></trkpt><trkpt lat="37.924790352461024" lon="14.664323969583576"><ele>1562.5</ele><time>2026-04-12T08:57:50.936Z</time></trkpt><trkpt lat="37.92476821126864" lon="14.66422039302274"><ele>1562.0</ele><time>2026-04-12T08:57:51.936Z</time></trkpt><trkpt lat="37.924769939666916" lon="14.664115230793119"><ele>1561.5000000000002</ele><time>2026-04-12T08:57:52.936Z</time></trkpt><trkpt lat="37.92475023355612" lon="14.66402068795535"><ele>1561.0</ele><time>2026-04-12T08:57:53.936Z</time></trkpt><trkpt lat="37.92471194529486" lon="14.663934617737693"><ele>1561.0</ele><time>2026-04-12T08:57:54.936Z</time></trkpt><trkpt lat="37.924689460883684" lon="14.663833577937638"><ele>1561.0</ele><time>2026-04-12T08:57:55.936Z</time></trkpt><trkpt lat="37.92464165795866" lon="14.663679807601229"><ele>1561.0</ele><time>2026-04-12T08:57:57.936Z</time></trkpt><trkpt lat="37.92461019606126" lon="14.663585928510264"><ele>1561.0</ele><time>2026-04-12T08:57:58.936Z</time></trkpt><trkpt lat="37.924594876920736" lon="14.663482974423268"><ele>1561.0</ele><time>2026-04-12T08:57:59.936Z</time></trkpt><trkpt lat="37.92456787214289" lon="14.66338449883263"><ele>1560.3333333333335</ele><time>2026-04-12T08:58:00.936Z</time></trkpt><trkpt lat="37.924541012147536" lon="14.663262052927035"><ele>1559.6666666666667</ele><time>2026-04-12T08:58:01.936Z</time></trkpt><trkpt lat="37.92450446018991" lon="14.663152555019689"><ele>1559.0</ele><time>2026-04-12T08:58:02.936Z</time></trkpt><trkpt lat="37.9245079597308" lon="14.663038706509642"><ele>1558.3333333333335</ele><time>2026-04-12T08:58:03.936Z</time></trkpt><trkpt lat="37.92451733860104" lon="14.662943333311755"><ele>1557.6666666666667</ele><time>2026-04-12T08:58:04.936Z</time></trkpt><trkpt lat="37.92452513178952" lon="14.6628638312869"><ele>1557.0</ele><time>2026-04-12T08:58:05.936Z</time></trkpt><trkpt lat="37.92452624265886" lon="14.662782079203378"><ele>1556.6666666666667</ele><time>2026-04-12T08:58:06.936Z</time></trkpt><trkpt lat="37.92453661746449" lon="14.662683916716102"><ele>1556.3333333333335</ele><time>2026-04-12T08:58:07.936Z</time></trkpt><trkpt lat="37.92455263624131" lon="14.662557725525371"><ele>1556.0</ele><time>2026-04-12T08:58:08.936Z</time></trkpt><trkpt lat="37.92456567547577" lon="14.662455526098281"><ele>1555.6666666666667</ele><time>2026-04-12T08:58:09.936Z</time></trkpt><trkpt lat="37.92457720276882" lon="14.662361819701022"><ele>1555.3333333333335</ele><time>2026-04-12T08:58:10.936Z</time></trkpt><trkpt lat="37.92458790982477" lon="14.662272792974361"><ele>1555.0</ele><time>2026-04-12T08:58:11.936Z</time></trkpt><trkpt lat="37.92459356845516" lon="14.662193089729632"><ele>1555.0</ele><time>2026-04-12T08:58:12.936Z</time></trkpt><trkpt lat="37.92461606577665" lon="14.662040919887083"><ele>1555.0</ele><time>2026-04-12T08:58:14.936Z</time></trkpt><trkpt lat="37.9246230806284" lon="14.661954355722877"><ele>1555.0</ele><time>2026-04-12T08:58:15.936Z</time></trkpt><trkpt lat="37.924632749712025" lon="14.661874941544774"><ele>1555.0</ele><time>2026-04-12T08:58:16.936Z</time></trkpt><trkpt lat="37.92464949834121" lon="14.661745169845391"><ele>1555.0</ele><time>2026-04-12T08:58:18.935Z</time></trkpt><trkpt lat="37.924669572159274" lon="14.661607178505298"><ele>1554.6666666666667</ele><time>2026-04-12T08:58:20.935Z</time></trkpt><trkpt lat="37.92467197730399" lon="14.66151182166973"><ele>1554.3333333333335</ele><time>2026-04-12T08:58:21.935Z</time></trkpt><trkpt lat="37.924684355703405" lon="14.66139375926147"><ele>1554.0</ele><time>2026-04-12T08:58:22.935Z</time></trkpt><trkpt lat="37.92469370626949" lon="14.661266498431216"><ele>1553.6666666666665</ele><time>2026-04-12T08:58:23.935Z</time></trkpt><trkpt lat="37.92469597464245" lon="14.661153570762906"><ele>1553.3333333333333</ele><time>2026-04-12T08:58:24.935Z</time></trkpt><trkpt lat="37.92468676832424" lon="14.661058123265468"><ele>1553.0</ele><time>2026-04-12T08:58:25.935Z</time></trkpt><trkpt lat="37.924673598846006" lon="14.660967924930452"><ele>1553.9999999999998</ele><time>2026-04-12T08:58:26.935Z</time></trkpt><trkpt lat="37.92466562804725" lon="14.660874740619796"><ele>1555.0</ele><time>2026-04-12T08:58:27.935Z</time></trkpt><trkpt lat="37.92465162364809" lon="14.660782611395131"><ele>1556.0</ele><time>2026-04-12T08:58:28.935Z</time></trkpt><trkpt lat="37.924641793078756" lon="14.660699451417825"><ele>1557.0</ele><time>2026-04-12T08:58:29.935Z</time></trkpt><trkpt lat="37.92463275873921" lon="14.660530696551588"><ele>1557.9999999999998</ele><time>2026-04-12T08:58:31.935Z</time></trkpt><trkpt lat="37.924645687176934" lon="14.660434882430915"><ele>1559.0</ele><time>2026-04-12T08:58:32.935Z</time></trkpt><trkpt lat="37.92464501598623" lon="14.660341088018159"><ele>1560.4999999999998</ele><time>2026-04-12T08:58:33.935Z</time></trkpt><trkpt lat="37.9246441684423" lon="14.660234045788894"><ele>1562.0</ele><time>2026-04-12T08:58:34.935Z</time></trkpt><trkpt lat="37.92463918009678" lon="14.660133863129841"><ele>1563.5</ele><time>2026-04-12T08:58:35.935Z</time></trkpt><trkpt lat="37.924633816139654" lon="14.660026336205611"><ele>1565.0</ele><time>2026-04-12T08:58:36.935Z</time></trkpt><trkpt lat="37.92462227690088" lon="14.659930687919246"><ele>1566.4999999999998</ele><time>2026-04-12T08:58:37.935Z</time></trkpt><trkpt lat="37.92460513990019" lon="14.65980456665753"><ele>1568.0</ele><time>2026-04-12T08:58:39.935Z</time></trkpt><trkpt lat="37.9245919569324" lon="14.659725033785316"><ele>1567.9999999999998</ele><time>2026-04-12T08:58:41.935Z</time></trkpt><trkpt lat="37.9245613920344" lon="14.659634019227612"><ele>1568.0</ele><time>2026-04-12T08:58:51.934Z</time></trkpt><trkpt lat="37.92451865741046" lon="14.659553492759644"><ele>1568.0</ele><time>2026-04-12T08:58:53.934Z</time></trkpt><trkpt lat="37.92446659013544" lon="14.659461402791454"><ele>1568.0</ele><time>2026-04-12T08:58:55.934Z</time></trkpt><trkpt lat="37.924419695767" lon="14.659401763758888"><ele>1567.9999999999998</ele><time>2026-04-12T08:58:58.934Z</time></trkpt><trkpt lat="37.924506227907806" lon="14.65951517556369"><ele>1568.0</ele><time>2026-04-12T08:59:04.934Z</time></trkpt><trkpt lat="37.92456242541479" lon="14.659594352058894"><ele>1567.9999999999998</ele><time>2026-04-12T08:59:05.934Z</time></trkpt><trkpt lat="37.92460323770385" lon="14.659698474114691"><ele>1568.0</ele><time>2026-04-12T08:59:06.934Z</time></trkpt><trkpt lat="37.92462858817315" lon="14.65980818473992"><ele>1568.0</ele><time>2026-04-12T08:59:07.934Z</time></trkpt><trkpt lat="37.92462779179697" lon="14.659927989051058"><ele>1568.0</ele><time>2026-04-12T08:59:08.934Z</time></trkpt><trkpt lat="37.92463599008695" lon="14.660023217484504"><ele>1567.9999999999998</ele><time>2026-04-12T08:59:09.934Z</time></trkpt><trkpt lat="37.924641829220064" lon="14.660105059156088"><ele>1568.0</ele><time>2026-04-12T08:59:10.934Z</time></trkpt><trkpt lat="37.924664310513975" lon="14.660238963380634"><ele>1568.0</ele><time>2026-04-12T08:59:12.933Z</time></trkpt><trkpt lat="37.92468497164312" lon="14.66032079677846"><ele>1568.0</ele><time>2026-04-12T08:59:24.933Z</time></trkpt><trkpt lat="37.92478422795335" lon="14.660242288757582"><ele>1568.0</ele><time>2026-04-12T08:59:34.933Z</time></trkpt><trkpt lat="37.92483760702199" lon="14.660180846950654"><ele>1568.0</ele><time>2026-04-12T08:59:36.933Z</time></trkpt><trkpt lat="37.92461256359691" lon="14.66031405626043"><ele>1568.0</ele><time>2026-04-12T08:59:38.932Z</time></trkpt><trkpt lat="37.924606685194746" lon="14.660188504465431"><ele>1568.0</ele><time>2026-04-12T09:04:12.933Z</time></trkpt><trkpt lat="37.92461177419913" lon="14.660030722182656"><ele>1568.0</ele><time>2026-04-12T09:04:14.933Z</time></trkpt><trkpt lat="37.92460131572198" lon="14.659883461603668"><ele>1568.0</ele><time>2026-04-12T09:04:16.933Z</time></trkpt><trkpt lat="37.924590190403066" lon="14.65980483256062"><ele>1568.0</ele><time>2026-04-12T09:04:17.933Z</time></trkpt><trkpt lat="37.92457505418257" lon="14.65970879524322"><ele>1568.0</ele><time>2026-04-12T09:04:18.932Z</time></trkpt><trkpt lat="37.92455738908412" lon="14.659626666266485"><ele>1568.0</ele><time>2026-04-12T09:04:19.932Z</time></trkpt><trkpt lat="37.92452865263556" lon="14.659544511476646"><ele>1568.0</ele><time>2026-04-12T09:04:20.932Z</time></trkpt><trkpt lat="37.924482369329866" lon="14.659468554358678"><ele>1568.0</ele><time>2026-04-12T09:04:21.932Z</time></trkpt><trkpt lat="37.924430327581945" lon="14.65939726609633"><ele>1568.0</ele><time>2026-04-12T09:04:22.932Z</time></trkpt><trkpt lat="37.92438369143476" lon="14.659343317164442"><ele>1568.0</ele><time>2026-04-12T09:04:23.932Z</time></trkpt><trkpt lat="37.92433589672929" lon="14.659283021229442"><ele>1568.0</ele><time>2026-04-12T09:04:24.932Z</time></trkpt><trkpt lat="37.92428582086055" lon="14.659217235236987"><ele>1568.4999999999998</ele><time>2026-04-12T09:04:25.932Z</time></trkpt><trkpt lat="37.92423619492883" lon="14.6591486189479"><ele>1569.0</ele><time>2026-04-12T09:04:26.932Z</time></trkpt><trkpt lat="37.924195084105484" lon="14.659079262129172"><ele>1569.5</ele><time>2026-04-12T09:04:27.932Z</time></trkpt><trkpt lat="37.92415335280708" lon="14.659002229565923"><ele>1570.0</ele><time>2026-04-12T09:04:28.932Z</time></trkpt><trkpt lat="37.924106367674334" lon="14.658908190139897"><ele>1570.4999999999998</ele><time>2026-04-12T09:04:29.932Z</time></trkpt><trkpt lat="37.9240541979455" lon="14.658818521237885"><ele>1571.0</ele><time>2026-04-12T09:04:30.932Z</time></trkpt><trkpt lat="37.92400629186578" lon="14.658712880222188"><ele>1570.1666666666665</ele><time>2026-04-12T09:04:31.932Z</time></trkpt><trkpt lat="37.92397140016139" lon="14.658634246715108"><ele>1569.3333333333333</ele><time>2026-04-12T09:04:32.932Z</time></trkpt><trkpt lat="37.9239338225731" lon="14.65853587683078"><ele>1568.5</ele><time>2026-04-12T09:04:33.932Z</time></trkpt><trkpt lat="37.92388575757052" lon="14.65844966581684"><ele>1567.6666666666665</ele><time>2026-04-12T09:04:34.932Z</time></trkpt><trkpt lat="37.92384413835051" lon="14.658363851914546"><ele>1566.8333333333333</ele><time>2026-04-12T09:04:35.932Z</time></trkpt><trkpt lat="37.92374270850144" lon="14.658275557901147"><ele>1566.0</ele><time>2026-04-12T09:04:37.932Z</time></trkpt><trkpt lat="37.92367861328613" lon="14.658257446011357"><ele>1566.0</ele><time>2026-04-12T09:04:38.932Z</time></trkpt><trkpt lat="37.923592901296246" lon="14.65825900790137"><ele>1566.0</ele><time>2026-04-12T09:04:39.932Z</time></trkpt><trkpt lat="37.92351947397227" lon="14.658239252719609"><ele>1566.0</ele><time>2026-04-12T09:04:40.932Z</time></trkpt><trkpt lat="37.92344376946718" lon="14.658229762779671"><ele>1566.0</ele><time>2026-04-12T09:04:41.932Z</time></trkpt><trkpt lat="37.92336138014063" lon="14.658214613644516"><ele>1566.0</ele><time>2026-04-12T09:04:42.932Z</time></trkpt><trkpt lat="37.923293716397694" lon="14.658193531837243"><ele>1566.0</ele><time>2026-04-12T09:04:43.932Z</time></trkpt><trkpt lat="37.923204755844736" lon="14.658151786851931"><ele>1563.1999999999998</ele><time>2026-04-12T09:04:44.932Z</time></trkpt><trkpt lat="37.92312468603899" lon="14.65809802956813"><ele>1560.3999999999999</ele><time>2026-04-12T09:04:45.931Z</time></trkpt><trkpt lat="37.92304789514357" lon="14.65803818396128"><ele>1557.6</ele><time>2026-04-12T09:04:46.931Z</time></trkpt><trkpt lat="37.922971614965284" lon="14.65796255371845"><ele>1554.8</ele><time>2026-04-12T09:04:47.931Z</time></trkpt><trkpt lat="37.92290592319689" lon="14.65788350588743"><ele>1552.0</ele><time>2026-04-12T09:04:48.931Z</time></trkpt><trkpt lat="37.922844199807955" lon="14.657809953832375"><ele>1551.5000000000002</ele><time>2026-04-12T09:04:49.931Z</time></trkpt><trkpt lat="37.922784453568866" lon="14.657740120794076"><ele>1551.0</ele><time>2026-04-12T09:04:50.931Z</time></trkpt><trkpt lat="37.92271839687528" lon="14.657689334811618"><ele>1550.5</ele><time>2026-04-12T09:04:51.931Z</time></trkpt><trkpt lat="37.92265936447922" lon="14.657623414157172"><ele>1550.0</ele><time>2026-04-12T09:04:52.931Z</time></trkpt><trkpt lat="37.92259762330842" lon="14.657543096376175"><ele>1549.5000000000002</ele><time>2026-04-12T09:04:53.931Z</time></trkpt><trkpt lat="37.92254033949322" lon="14.657456670933499"><ele>1549.0</ele><time>2026-04-12T09:04:54.931Z</time></trkpt><trkpt lat="37.92247619908246" lon="14.657392850932327"><ele>1549.0000000000002</ele><time>2026-04-12T09:04:55.931Z</time></trkpt><trkpt lat="37.92243200081579" lon="14.657314243152426"><ele>1549.0</ele><time>2026-04-12T09:04:56.931Z</time></trkpt><trkpt lat="37.92237345069983" lon="14.657232389469197"><ele>1549.0</ele><time>2026-04-12T09:04:57.931Z</time></trkpt><trkpt lat="37.92232122343346" lon="14.657152655105403"><ele>1549.0</ele><time>2026-04-12T09:04:58.931Z</time></trkpt><trkpt lat="37.92227082399169" lon="14.657092037244158"><ele>1549.0000000000002</ele><time>2026-04-12T09:04:59.931Z</time></trkpt><trkpt lat="37.922225902202555" lon="14.65702492949402"><ele>1549.0</ele><time>2026-04-12T09:05:00.931Z</time></trkpt><trkpt lat="37.92218733274052" lon="14.656947179690341"><ele>1549.5000000000002</ele><time>2026-04-12T09:05:01.931Z</time></trkpt><trkpt lat="37.92214738503224" lon="14.656865538768066"><ele>1550.0</ele><time>2026-04-12T09:05:02.931Z</time></trkpt><trkpt lat="37.922098458743704" lon="14.656792555113986"><ele>1550.5</ele><time>2026-04-12T09:05:03.931Z</time></trkpt><trkpt lat="37.92204409149591" lon="14.656737944193969"><ele>1551.0</ele><time>2026-04-12T09:05:04.931Z</time></trkpt><trkpt lat="37.92198484312733" lon="14.656691649215357"><ele>1551.5000000000002</ele><time>2026-04-12T09:05:05.931Z</time></trkpt><trkpt lat="37.92192679488321" lon="14.656644456881894"><ele>1552.0</ele><time>2026-04-12T09:05:06.931Z</time></trkpt><trkpt lat="37.92183636556494" lon="14.656555190624552"><ele>1552.0</ele><time>2026-04-12T09:05:08.931Z</time></trkpt><trkpt lat="37.92173198413976" lon="14.656476856363042"><ele>1552.0</ele><time>2026-04-12T09:05:10.931Z</time></trkpt><trkpt lat="37.92164455900347" lon="14.656382418775754"><ele>1552.0</ele><time>2026-04-12T09:05:12.93Z</time></trkpt><trkpt lat="37.92158867418623" lon="14.656317235254162"><ele>1552.0</ele><time>2026-04-12T09:05:13.93Z</time></trkpt><trkpt lat="37.921540311832345" lon="14.656222808584362"><ele>1552.0</ele><time>2026-04-12T09:05:14.93Z</time></trkpt><trkpt lat="37.92150051326136" lon="14.656143301565393"><ele>1550.3333333333335</ele><time>2026-04-12T09:05:15.93Z</time></trkpt><trkpt lat="37.9214653842495" lon="14.656075011131339"><ele>1548.6666666666667</ele><time>2026-04-12T09:05:16.93Z</time></trkpt><trkpt lat="37.92141755072157" lon="14.65594989262444"><ele>1547.0</ele><time>2026-04-12T09:05:18.93Z</time></trkpt><trkpt lat="37.92135829863981" lon="14.65581542914603"><ele>1545.3333333333335</ele><time>2026-04-12T09:05:20.93Z</time></trkpt><trkpt lat="37.92133844768502" lon="14.655736808902843"><ele>1543.6666666666667</ele><time>2026-04-12T09:05:21.93Z</time></trkpt><trkpt lat="37.92130417184823" lon="14.65563418935976"><ele>1542.0</ele><time>2026-04-12T09:05:22.93Z</time></trkpt><trkpt lat="37.921274264234135" lon="14.655536479440364"><ele>1542.0</ele><time>2026-04-12T09:05:23.93Z</time></trkpt><trkpt lat="37.92123001233542" lon="14.655473460529432"><ele>1542.0</ele><time>2026-04-12T09:05:24.93Z</time></trkpt><trkpt lat="37.921175598536564" lon="14.655385018762198"><ele>1542.0</ele><time>2026-04-12T09:05:25.93Z</time></trkpt><trkpt lat="37.92111936693125" lon="14.655303937453363"><ele>1542.0</ele><time>2026-04-12T09:05:26.93Z</time></trkpt><trkpt lat="37.92105803898306" lon="14.655221642227104"><ele>1542.0</ele><time>2026-04-12T09:05:28.93Z</time></trkpt><trkpt lat="37.920996893734674" lon="14.655113817333557"><ele>1542.0</ele><time>2026-04-12T09:05:30.93Z</time></trkpt><trkpt lat="37.92095125103199" lon="14.655040418898292"><ele>1541.1666666666667</ele><time>2026-04-12T09:05:31.93Z</time></trkpt><trkpt lat="37.92090046102247" lon="14.65496253545577"><ele>1540.3333333333335</ele><time>2026-04-12T09:05:32.93Z</time></trkpt><trkpt lat="37.920833328272806" lon="14.654880396199585"><ele>1539.5</ele><time>2026-04-12T09:05:33.93Z</time></trkpt><trkpt lat="37.92077490412714" lon="14.654805222264292"><ele>1538.6666666666667</ele><time>2026-04-12T09:05:34.93Z</time></trkpt><trkpt lat="37.92067175493021" lon="14.654733494238137"><ele>1537.8333333333335</ele><time>2026-04-12T09:05:36.93Z</time></trkpt><trkpt lat="37.92061469344723" lon="14.65468784368895"><ele>1537.0</ele><time>2026-04-12T09:05:37.93Z</time></trkpt><trkpt lat="37.92055298194013" lon="14.654630349578207"><ele>1537.0000000000002</ele><time>2026-04-12T09:05:38.929Z</time></trkpt><trkpt lat="37.92049579363351" lon="14.654584508924687"><ele>1537.0</ele><time>2026-04-12T09:05:39.929Z</time></trkpt><trkpt lat="37.92042177324827" lon="14.654548114253414"><ele>1537.0</ele><time>2026-04-12T09:05:40.929Z</time></trkpt><trkpt lat="37.92034476683217" lon="14.654527562430479"><ele>1537.0</ele><time>2026-04-12T09:05:41.929Z</time></trkpt><trkpt lat="37.92025050258615" lon="14.65450659273923"><ele>1537.0000000000002</ele><time>2026-04-12T09:05:42.929Z</time></trkpt><trkpt lat="37.92013951698794" lon="14.654499473770285"><ele>1537.0</ele><time>2026-04-12T09:05:43.929Z</time></trkpt><trkpt lat="37.920042946679295" lon="14.654487703634167"><ele>1536.0</ele><time>2026-04-12T09:05:44.929Z</time></trkpt><trkpt lat="37.91994311970603" lon="14.654469265618678"><ele>1535.0</ele><time>2026-04-12T09:05:45.929Z</time></trkpt><trkpt lat="37.91984527825855" lon="14.6544403346443"><ele>1534.0</ele><time>2026-04-12T09:05:46.929Z</time></trkpt><trkpt lat="37.91974648652557" lon="14.654390415092763"><ele>1533.0</ele><time>2026-04-12T09:05:47.929Z</time></trkpt><trkpt lat="37.919651076111045" lon="14.654344661290812"><ele>1532.0</ele><time>2026-04-12T09:05:48.929Z</time></trkpt><trkpt lat="37.919560057281245" lon="14.654318809637628"><ele>1532.3333333333335</ele><time>2026-04-12T09:05:49.929Z</time></trkpt><trkpt lat="37.919479741714795" lon="14.654311730374028"><ele>1532.6666666666667</ele><time>2026-04-12T09:05:50.929Z</time></trkpt><trkpt lat="37.91936020220307" lon="14.654337374648401"><ele>1533.0</ele><time>2026-04-12T09:05:52.929Z</time></trkpt><trkpt lat="37.91929332199179" lon="14.654366729499095"><ele>1533.3333333333333</ele><time>2026-04-12T09:05:53.929Z</time></trkpt><trkpt lat="37.91922757929016" lon="14.654414124780768"><ele>1533.6666666666665</ele><time>2026-04-12T09:05:54.929Z</time></trkpt><trkpt lat="37.91915014356134" lon="14.654443064486216"><ele>1534.0</ele><time>2026-04-12T09:05:55.929Z</time></trkpt><trkpt lat="37.9190786542311" lon="14.65444991948921"><ele>1534.0</ele><time>2026-04-12T09:05:56.929Z</time></trkpt><trkpt lat="37.91901177435261" lon="14.65444734243807"><ele>1534.0</ele><time>2026-04-12T09:05:57.929Z</time></trkpt><trkpt lat="37.918925963750844" lon="14.654433147615352"><ele>1534.0</ele><time>2026-04-12T09:05:59.929Z</time></trkpt><trkpt lat="37.918849413224876" lon="14.654457498635418"><ele>1534.0</ele><time>2026-04-12T09:06:01.929Z</time></trkpt><trkpt lat="37.918789150696746" lon="14.654555365169646"><ele>1534.0</ele><time>2026-04-12T09:06:03.931Z</time></trkpt><trkpt lat="37.9187258326553" lon="14.654632253738187"><ele>1534.0</ele><time>2026-04-12T09:06:04.931Z</time></trkpt><trkpt lat="37.91867370967154" lon="14.654709524349451"><ele>1533.6</ele><time>2026-04-12T09:06:05.931Z</time></trkpt><trkpt lat="37.91860846010371" lon="14.654806254877164"><ele>1533.2</ele><time>2026-04-12T09:06:06.931Z</time></trkpt><trkpt lat="37.91855608023261" lon="14.654925781303618"><ele>1532.8</ele><time>2026-04-12T09:06:07.931Z</time></trkpt><trkpt lat="37.918480891392676" lon="14.655048989941605"><ele>1532.3999999999999</ele><time>2026-04-12T09:06:08.931Z</time></trkpt><trkpt lat="37.91839240228437" lon="14.655143390174054"><ele>1532.0</ele><time>2026-04-12T09:06:09.932Z</time></trkpt><trkpt lat="37.918316543306915" lon="14.655226178741813"><ele>1532.0</ele><time>2026-04-12T09:06:10.931Z</time></trkpt><trkpt lat="37.91822568802002" lon="14.655278375148766"><ele>1532.0</ele><time>2026-04-12T09:06:11.931Z</time></trkpt><trkpt lat="37.918121869692875" lon="14.655307313920355"><ele>1532.0</ele><time>2026-04-12T09:06:12.932Z</time></trkpt><trkpt lat="37.918009078900845" lon="14.655332346448468"><ele>1532.0</ele><time>2026-04-12T09:06:13.931Z</time></trkpt><trkpt lat="37.91787888543669" lon="14.655366221174635"><ele>1529.75</ele><time>2026-04-12T09:06:14.931Z</time></trkpt><trkpt lat="37.91774578854731" lon="14.655415950644759"><ele>1527.5</ele><time>2026-04-12T09:06:15.931Z</time></trkpt><trkpt lat="37.917633889058735" lon="14.655480856846859"><ele>1525.25</ele><time>2026-04-12T09:06:16.931Z</time></trkpt><trkpt lat="37.917539430875124" lon="14.65556057672636"><ele>1523.0</ele><time>2026-04-12T09:06:17.931Z</time></trkpt><trkpt lat="37.91743276467593" lon="14.655593606034179"><ele>1523.0</ele><time>2026-04-12T09:06:18.931Z</time></trkpt><trkpt lat="37.917334725949644" lon="14.655666684682826"><ele>1523.0</ele><time>2026-04-12T09:06:19.931Z</time></trkpt><trkpt lat="37.91723674648963" lon="14.655727688638049"><ele>1523.0</ele><time>2026-04-12T09:06:20.931Z</time></trkpt><trkpt lat="37.917141548025306" lon="14.655727275640723"><ele>1523.0</ele><time>2026-04-12T09:06:21.931Z</time></trkpt><trkpt lat="37.91703183264705" lon="14.655682241668243"><ele>1523.0</ele><time>2026-04-12T09:06:22.931Z</time></trkpt><trkpt lat="37.91695074578982" lon="14.655608947577225"><ele>1523.0</ele><time>2026-04-12T09:06:23.931Z</time></trkpt><trkpt lat="37.916893338377015" lon="14.655493872725163"><ele>1523.0</ele><time>2026-04-12T09:06:24.931Z</time></trkpt><trkpt lat="37.916837676130676" lon="14.655411815324587"><ele>1523.0</ele><time>2026-04-12T09:06:25.931Z</time></trkpt><trkpt lat="37.916787059336315" lon="14.655324062206912"><ele>1523.0</ele><time>2026-04-12T09:06:26.931Z</time></trkpt><trkpt lat="37.91669721468875" lon="14.655241436626438"><ele>1523.0</ele><time>2026-04-12T09:06:27.931Z</time></trkpt><trkpt lat="37.91659048659766" lon="14.655180916435825"><ele>1524.75</ele><time>2026-04-12T09:06:28.93Z</time></trkpt><trkpt lat="37.91647376881203" lon="14.655156653850662"><ele>1526.5</ele><time>2026-04-12T09:06:29.93Z</time></trkpt><trkpt lat="37.91633290376638" lon="14.655164707786897"><ele>1528.25</ele><time>2026-04-12T09:06:30.93Z</time></trkpt><trkpt lat="37.91619566205464" lon="14.655167939149832"><ele>1530.0</ele><time>2026-04-12T09:06:31.93Z</time></trkpt><trkpt lat="37.91606792578557" lon="14.655164917422074"><ele>1530.0</ele><time>2026-04-12T09:06:32.93Z</time></trkpt><trkpt lat="37.91594282954438" lon="14.655146205345812"><ele>1530.0</ele><time>2026-04-12T09:06:33.93Z</time></trkpt><trkpt lat="37.915804342439365" lon="14.65511112124598"><ele>1530.0</ele><time>2026-04-12T09:06:34.93Z</time></trkpt><trkpt lat="37.915675772334865" lon="14.65503689511911"><ele>1530.0</ele><time>2026-04-12T09:06:35.93Z</time></trkpt><trkpt lat="37.91553167313007" lon="14.65498355525758"><ele>1527.5</ele><time>2026-04-12T09:06:36.93Z</time></trkpt><trkpt lat="37.91540322854515" lon="14.654933430501597"><ele>1525.0</ele><time>2026-04-12T09:06:37.93Z</time></trkpt><trkpt lat="37.915274295177" lon="14.654896557215697"><ele>1522.5</ele><time>2026-04-12T09:06:38.93Z</time></trkpt><trkpt lat="37.91514509200142" lon="14.65490668158683"><ele>1520.0</ele><time>2026-04-12T09:06:39.93Z</time></trkpt><trkpt lat="37.91500878268022" lon="14.654935536381048"><ele>1517.75</ele><time>2026-04-12T09:06:40.93Z</time></trkpt><trkpt lat="37.914881166211245" lon="14.655006473638712"><ele>1515.5</ele><time>2026-04-12T09:06:41.93Z</time></trkpt><trkpt lat="37.91476255299209" lon="14.65510773556076"><ele>1513.25</ele><time>2026-04-12T09:06:42.93Z</time></trkpt><trkpt lat="37.91465694080306" lon="14.655197698052408"><ele>1511.0</ele><time>2026-04-12T09:06:43.93Z</time></trkpt><trkpt lat="37.91454335251383" lon="14.655255023686466"><ele>1509.25</ele><time>2026-04-12T09:06:44.93Z</time></trkpt><trkpt lat="37.914426643882514" lon="14.655292022562762"><ele>1507.5</ele><time>2026-04-12T09:06:45.93Z</time></trkpt><trkpt lat="37.91431198444699" lon="14.655361700911081"><ele>1505.75</ele><time>2026-04-12T09:06:46.93Z</time></trkpt><trkpt lat="37.91421431162226" lon="14.655467075823926"><ele>1504.0</ele><time>2026-04-12T09:06:47.93Z</time></trkpt><trkpt lat="37.914129760023854" lon="14.655595101460928"><ele>1504.0</ele><time>2026-04-12T09:06:48.93Z</time></trkpt><trkpt lat="37.91406066059093" lon="14.655739340613989"><ele>1504.0</ele><time>2026-04-12T09:06:49.93Z</time></trkpt><trkpt lat="37.91396802060411" lon="14.65585941801736"><ele>1504.0</ele><time>2026-04-12T09:06:50.93Z</time></trkpt><trkpt lat="37.91386034741999" lon="14.655951681035928"><ele>1504.0</ele><time>2026-04-12T09:06:51.93Z</time></trkpt><trkpt lat="37.913751051017435" lon="14.656054724672472"><ele>1502.5</ele><time>2026-04-12T09:06:52.93Z</time></trkpt><trkpt lat="37.91364439755301" lon="14.656145620042434"><ele>1501.0</ele><time>2026-04-12T09:06:53.93Z</time></trkpt><trkpt lat="37.91353015698414" lon="14.656234125193608"><ele>1499.5</ele><time>2026-04-12T09:06:54.93Z</time></trkpt><trkpt lat="37.91340991702005" lon="14.656330666128607"><ele>1498.0</ele><time>2026-04-12T09:06:55.929Z</time></trkpt><trkpt lat="37.913301711828396" lon="14.656439910405341"><ele>1498.0</ele><time>2026-04-12T09:06:56.929Z</time></trkpt><trkpt lat="37.91320464044496" lon="14.6565327216088"><ele>1498.0</ele><time>2026-04-12T09:06:57.929Z</time></trkpt><trkpt lat="37.91310169597321" lon="14.656591211718967"><ele>1498.0</ele><time>2026-04-12T09:06:58.929Z</time></trkpt><trkpt lat="37.91298717421784" lon="14.656627091955578"><ele>1498.0</ele><time>2026-04-12T09:06:59.929Z</time></trkpt><trkpt lat="37.91283745086571" lon="14.65657615432281"><ele>1498.0</ele><time>2026-04-12T09:07:00.929Z</time></trkpt><trkpt lat="37.91268364478778" lon="14.65652979999782"><ele>1498.0</ele><time>2026-04-12T09:07:01.929Z</time></trkpt><trkpt lat="37.91251565380435" lon="14.656522853345969"><ele>1498.0</ele><time>2026-04-12T09:07:02.929Z</time></trkpt><trkpt lat="37.912362780776064" lon="14.656524958491271"><ele>1497.75</ele><time>2026-04-12T09:07:03.929Z</time></trkpt><trkpt lat="37.912214165134564" lon="14.656539866403005"><ele>1497.5</ele><time>2026-04-12T09:07:04.929Z</time></trkpt><trkpt lat="37.91206915513154" lon="14.65653176725642"><ele>1497.25</ele><time>2026-04-12T09:07:05.929Z</time></trkpt><trkpt lat="37.911942074775155" lon="14.656562344002102"><ele>1497.0</ele><time>2026-04-12T09:07:06.929Z</time></trkpt><trkpt lat="37.91181817554516" lon="14.656549129098986"><ele>1494.0</ele><time>2026-04-12T09:07:07.929Z</time></trkpt><trkpt lat="37.91169749511727" lon="14.656496554252852"><ele>1491.0</ele><time>2026-04-12T09:07:08.929Z</time></trkpt><trkpt lat="37.91159424486223" lon="14.656404041807109"><ele>1488.0</ele><time>2026-04-12T09:07:09.929Z</time></trkpt><trkpt lat="37.91151954500495" lon="14.656289094290736"><ele>1485.0</ele><time>2026-04-12T09:07:10.929Z</time></trkpt><trkpt lat="37.91147614852777" lon="14.656123327268615"><ele>1489.5</ele><time>2026-04-12T09:07:11.929Z</time></trkpt><trkpt lat="37.911437476912916" lon="14.655959920859196"><ele>1494.0</ele><time>2026-04-12T09:07:12.929Z</time></trkpt><trkpt lat="37.91139611535301" lon="14.655817561109002"><ele>1498.5</ele><time>2026-04-12T09:07:13.929Z</time></trkpt><trkpt lat="37.91133387115122" lon="14.655681940206575"><ele>1503.0</ele><time>2026-04-12T09:07:14.929Z</time></trkpt><trkpt lat="37.91122771825345" lon="14.655602217250859"><ele>1503.0</ele><time>2026-04-12T09:07:15.929Z</time></trkpt><trkpt lat="37.91110712026174" lon="14.655588399486998"><ele>1503.0</ele><time>2026-04-12T09:07:16.929Z</time></trkpt><trkpt lat="37.91096817388984" lon="14.655639296235266"><ele>1503.0</ele><time>2026-04-12T09:07:17.929Z</time></trkpt><trkpt lat="37.910812610445944" lon="14.65573309289416"><ele>1503.0</ele><time>2026-04-12T09:07:18.929Z</time></trkpt><trkpt lat="37.91065914721561" lon="14.655816105014905"><ele>1500.6666666666667</ele><time>2026-04-12T09:07:19.929Z</time></trkpt><trkpt lat="37.91048467907163" lon="14.655882961402895"><ele>1498.3333333333335</ele><time>2026-04-12T09:07:20.929Z</time></trkpt><trkpt lat="37.91032204606152" lon="14.655965087513408"><ele>1496.0</ele><time>2026-04-12T09:07:21.928Z</time></trkpt><trkpt lat="37.910176815030916" lon="14.656035185441334"><ele>1497.25</ele><time>2026-04-12T09:07:22.928Z</time></trkpt><trkpt lat="37.910038021985564" lon="14.656090987741594"><ele>1498.5</ele><time>2026-04-12T09:07:23.928Z</time></trkpt><trkpt lat="37.909910134168555" lon="14.656135435716598"><ele>1499.75</ele><time>2026-04-12T09:07:24.928Z</time></trkpt><trkpt lat="37.909793207680025" lon="14.656131570463598"><ele>1501.0</ele><time>2026-04-12T09:07:25.928Z</time></trkpt><trkpt lat="37.90967051897779" lon="14.656103525495292"><ele>1501.0</ele><time>2026-04-12T09:07:26.928Z</time></trkpt><trkpt lat="37.909555262319" lon="14.656025024807795"><ele>1501.0</ele><time>2026-04-12T09:07:27.928Z</time></trkpt><trkpt lat="37.90945169716836" lon="14.655888293503494"><ele>1501.0</ele><time>2026-04-12T09:07:28.928Z</time></trkpt><trkpt lat="37.909345124917785" lon="14.65573029793236"><ele>1501.0</ele><time>2026-04-12T09:07:29.928Z</time></trkpt><trkpt lat="37.90924158853918" lon="14.655573925642976"><ele>1501.3333333333333</ele><time>2026-04-12T09:07:30.928Z</time></trkpt><trkpt lat="37.90913965566885" lon="14.655419975255453"><ele>1501.6666666666667</ele><time>2026-04-12T09:07:31.928Z</time></trkpt><trkpt lat="37.909036529531996" lon="14.655264222536767"><ele>1502.0</ele><time>2026-04-12T09:07:32.928Z</time></trkpt><trkpt lat="37.90893927971328" lon="14.655118105598813"><ele>1502.0</ele><time>2026-04-12T09:07:33.928Z</time></trkpt><trkpt lat="37.90883177306763" lon="14.654988164347031"><ele>1502.0</ele><time>2026-04-12T09:07:34.928Z</time></trkpt><trkpt lat="37.908743068540645" lon="14.654845690394966"><ele>1502.0</ele><time>2026-04-12T09:07:35.928Z</time></trkpt><trkpt lat="37.908609240596334" lon="14.654749916216547"><ele>1502.0</ele><time>2026-04-12T09:07:36.928Z</time></trkpt><trkpt lat="37.90844465264842" lon="14.654711820934226"><ele>1498.3333333333335</ele><time>2026-04-12T09:07:37.928Z</time></trkpt><trkpt lat="37.90827524394774" lon="14.654676539674101"><ele>1494.6666666666667</ele><time>2026-04-12T09:07:38.928Z</time></trkpt><trkpt lat="37.90810125302804" lon="14.654633587728139"><ele>1491.0</ele><time>2026-04-12T09:07:39.928Z</time></trkpt><trkpt lat="37.90793182287825" lon="14.654577166112563"><ele>1491.0</ele><time>2026-04-12T09:07:40.928Z</time></trkpt><trkpt lat="37.90776803932747" lon="14.65450914858228"><ele>1491.0</ele><time>2026-04-12T09:07:41.928Z</time></trkpt><trkpt lat="37.907581694989155" lon="14.654418047707118"><ele>1491.0</ele><time>2026-04-12T09:07:42.928Z</time></trkpt><trkpt lat="37.90740306907272" lon="14.654327530536744"><ele>1494.6666666666667</ele><time>2026-04-12T09:07:43.928Z</time></trkpt><trkpt lat="37.90724407467666" lon="14.654246366768207"><ele>1498.3333333333335</ele><time>2026-04-12T09:07:44.928Z</time></trkpt><trkpt lat="37.90709048008329" lon="14.654165430446925"><ele>1502.0</ele><time>2026-04-12T09:07:45.928Z</time></trkpt><trkpt lat="37.90693471100908" lon="14.65408419642358"><ele>1502.0</ele><time>2026-04-12T09:07:46.928Z</time></trkpt><trkpt lat="37.90677502577377" lon="14.654011928649457"><ele>1502.0</ele><time>2026-04-12T09:07:47.928Z</time></trkpt><trkpt lat="37.90660592137731" lon="14.65395743810545"><ele>1502.0</ele><time>2026-04-12T09:07:48.927Z</time></trkpt><trkpt lat="37.90644409172517" lon="14.653902419594418"><ele>1497.3333333333335</ele><time>2026-04-12T09:07:49.927Z</time></trkpt><trkpt lat="37.906272257290794" lon="14.65385745064018"><ele>1492.6666666666667</ele><time>2026-04-12T09:07:50.927Z</time></trkpt><trkpt lat="37.90610832320842" lon="14.653748321158252"><ele>1488.0</ele><time>2026-04-12T09:07:51.927Z</time></trkpt><trkpt lat="37.90595443773521" lon="14.653631339835512"><ele>1488.6666666666667</ele><time>2026-04-12T09:07:52.927Z</time></trkpt><trkpt lat="37.90579467775202" lon="14.65349810554048"><ele>1489.3333333333335</ele><time>2026-04-12T09:07:53.927Z</time></trkpt><trkpt lat="37.90564290482894" lon="14.653371532345414"><ele>1490.0</ele><time>2026-04-12T09:07:54.927Z</time></trkpt><trkpt lat="37.905490159782545" lon="14.653244973453315"><ele>1490.0</ele><time>2026-04-12T09:07:55.927Z</time></trkpt><trkpt lat="37.90533969791703" lon="14.65311920376442"><ele>1490.0</ele><time>2026-04-12T09:07:56.927Z</time></trkpt><trkpt lat="37.90519295065289" lon="14.65300319237015"><ele>1490.0</ele><time>2026-04-12T09:07:57.927Z</time></trkpt><trkpt lat="37.90505843672651" lon="14.652882812011747"><ele>1489.75</ele><time>2026-04-12T09:07:58.927Z</time></trkpt><trkpt lat="37.9049388096801" lon="14.652763771155339"><ele>1489.5</ele><time>2026-04-12T09:07:59.927Z</time></trkpt><trkpt lat="37.90482802535795" lon="14.652652573071787"><ele>1489.25</ele><time>2026-04-12T09:08:00.927Z</time></trkpt><trkpt lat="37.90470795480032" lon="14.652534287686008"><ele>1489.0</ele><time>2026-04-12T09:08:01.927Z</time></trkpt><trkpt lat="37.904576564346414" lon="14.652422741586992"><ele>1489.0</ele><time>2026-04-12T09:08:02.927Z</time></trkpt><trkpt lat="37.90444048121165" lon="14.652311535258908"><ele>1489.0</ele><time>2026-04-12T09:08:03.927Z</time></trkpt><trkpt lat="37.90428119485044" lon="14.652239052985252"><ele>1489.0</ele><time>2026-04-12T09:08:04.927Z</time></trkpt><trkpt lat="37.90411392558063" lon="14.65220976242036"><ele>1485.3333333333333</ele><time>2026-04-12T09:08:05.927Z</time></trkpt><trkpt lat="37.90394006607465" lon="14.65219649124685"><ele>1481.6666666666667</ele><time>2026-04-12T09:08:06.927Z</time></trkpt><trkpt lat="37.90376651324992" lon="14.65218711033921"><ele>1478.0</ele><time>2026-04-12T09:08:07.927Z</time></trkpt><trkpt lat="37.90359468835389" lon="14.65217500152211"><ele>1478.0</ele><time>2026-04-12T09:08:08.927Z</time></trkpt><trkpt lat="37.903423910422866" lon="14.652144356921092"><ele>1478.0</ele><time>2026-04-12T09:08:09.93Z</time></trkpt><trkpt lat="37.90324754431923" lon="14.652108464535425"><ele>1478.0</ele><time>2026-04-12T09:08:10.93Z</time></trkpt><trkpt lat="37.90307292114021" lon="14.652082933013066"><ele>1477.3333333333335</ele><time>2026-04-12T09:08:11.93Z</time></trkpt><trkpt lat="37.902907725606866" lon="14.652070399546561"><ele>1476.6666666666667</ele><time>2026-04-12T09:08:12.93Z</time></trkpt><trkpt lat="37.902755846610255" lon="14.65205963247715"><ele>1476.0</ele><time>2026-04-12T09:08:13.93Z</time></trkpt><trkpt lat="37.902597249693116" lon="14.65207871774994"><ele>1477.0</ele><time>2026-04-12T09:08:14.929Z</time></trkpt><trkpt lat="37.9024357435606" lon="14.652162447541162"><ele>1478.0</ele><time>2026-04-12T09:08:15.93Z</time></trkpt><trkpt lat="37.90228371165405" lon="14.652277395770248"><ele>1479.0</ele><time>2026-04-12T09:08:16.93Z</time></trkpt><trkpt lat="37.902123953406566" lon="14.652384834143286"><ele>1479.0</ele><time>2026-04-12T09:08:17.93Z</time></trkpt><trkpt lat="37.90197249454246" lon="14.652514061480913"><ele>1479.0</ele><time>2026-04-12T09:08:18.93Z</time></trkpt><trkpt lat="37.901835316366274" lon="14.652621602576124"><ele>1479.0</ele><time>2026-04-12T09:08:19.93Z</time></trkpt><trkpt lat="37.9016976729505" lon="14.652720195650064"><ele>1477.6666666666667</ele><time>2026-04-12T09:08:20.93Z</time></trkpt><trkpt lat="37.90159068032717" lon="14.652858773420302"><ele>1476.3333333333335</ele><time>2026-04-12T09:08:21.93Z</time></trkpt><trkpt lat="37.90151625501599" lon="14.653025237457028"><ele>1475.0</ele><time>2026-04-12T09:08:22.93Z</time></trkpt><trkpt lat="37.90145446167673" lon="14.653199434589123"><ele>1475.0</ele><time>2026-04-12T09:08:23.93Z</time></trkpt><trkpt lat="37.90134574695395" lon="14.653337592921583"><ele>1475.0</ele><time>2026-04-12T09:08:24.93Z</time></trkpt><trkpt lat="37.90121303814715" lon="14.653458027918118"><ele>1475.0</ele><time>2026-04-12T09:08:25.93Z</time></trkpt><trkpt lat="37.90106294052266" lon="14.653564645265792"><ele>1473.0</ele><time>2026-04-12T09:08:26.93Z</time></trkpt><trkpt lat="37.90090620182142" lon="14.653667239227575"><ele>1471.0</ele><time>2026-04-12T09:08:27.93Z</time></trkpt><trkpt lat="37.900739873317214" lon="14.653781393317875"><ele>1469.0</ele><time>2026-04-12T09:08:28.93Z</time></trkpt><trkpt lat="37.900567112382234" lon="14.653905857851992"><ele>1469.0</ele><time>2026-04-12T09:08:29.93Z</time></trkpt><trkpt lat="37.90039751815467" lon="14.654032153661344"><ele>1469.0</ele><time>2026-04-12T09:08:30.93Z</time></trkpt><trkpt lat="37.90024150993694" lon="14.654188902238763"><ele>1469.0</ele><time>2026-04-12T09:08:31.93Z</time></trkpt><trkpt lat="37.900097854244244" lon="14.654365523745867"><ele>1467.6666666666667</ele><time>2026-04-12T09:08:32.93Z</time></trkpt><trkpt lat="37.89995761792424" lon="14.654545209598774"><ele>1466.3333333333333</ele><time>2026-04-12T09:08:33.93Z</time></trkpt><trkpt lat="37.89979948507677" lon="14.654690029062806"><ele>1465.0</ele><time>2026-04-12T09:08:34.93Z</time></trkpt><trkpt lat="37.89965793996901" lon="14.65482797574901"><ele>1465.0</ele><time>2026-04-12T09:08:35.93Z</time></trkpt><trkpt lat="37.89950862842577" lon="14.654924970797913"><ele>1465.0</ele><time>2026-04-12T09:08:36.93Z</time></trkpt><trkpt lat="37.899353349418504" lon="14.654965832535352"><ele>1465.0</ele><time>2026-04-12T09:08:37.93Z</time></trkpt><trkpt lat="37.89920518916802" lon="14.654960086233997"><ele>1466.0</ele><time>2026-04-12T09:08:38.93Z</time></trkpt><trkpt lat="37.899036785018595" lon="14.654962469295551"><ele>1467.0</ele><time>2026-04-12T09:08:39.93Z</time></trkpt><trkpt lat="37.89885243227725" lon="14.655002360545742"><ele>1468.0</ele><time>2026-04-12T09:08:40.93Z</time></trkpt><trkpt lat="37.89867114770991" lon="14.65506734427806"><ele>1468.0</ele><time>2026-04-12T09:08:41.93Z</time></trkpt><trkpt lat="37.89850671904524" lon="14.655146101670507"><ele>1468.0</ele><time>2026-04-12T09:08:42.93Z</time></trkpt><trkpt lat="37.89835050753048" lon="14.655216016113904"><ele>1468.0</ele><time>2026-04-12T09:08:43.93Z</time></trkpt><trkpt lat="37.898213418043014" lon="14.655256216751779"><ele>1467.5</ele><time>2026-04-12T09:08:44.929Z</time></trkpt><trkpt lat="37.89808810942088" lon="14.65521880944555"><ele>1467.0</ele><time>2026-04-12T09:08:45.929Z</time></trkpt><trkpt lat="37.89796856010885" lon="14.655134905885685"><ele>1466.5</ele><time>2026-04-12T09:08:46.929Z</time></trkpt><trkpt lat="37.89783755948859" lon="14.655015154537523"><ele>1466.0</ele><time>2026-04-12T09:08:47.929Z</time></trkpt><trkpt lat="37.89768819530049" lon="14.654890957759298"><ele>1466.6666666666667</ele><time>2026-04-12T09:08:48.929Z</time></trkpt><trkpt lat="37.897559065846124" lon="14.65474876028996"><ele>1467.3333333333333</ele><time>2026-04-12T09:08:49.929Z</time></trkpt><trkpt lat="37.89743239503159" lon="14.654615406233592"><ele>1468.0</ele><time>2026-04-12T09:08:50.929Z</time></trkpt><trkpt lat="37.89730518786585" lon="14.654488332491983"><ele>1464.75</ele><time>2026-04-12T09:08:51.929Z</time></trkpt><trkpt lat="37.89717301388265" lon="14.654378054552229"><ele>1461.5</ele><time>2026-04-12T09:08:52.929Z</time></trkpt><trkpt lat="37.89705054576905" lon="14.654288443815412"><ele>1458.25</ele><time>2026-04-12T09:08:53.929Z</time></trkpt><trkpt lat="37.89692599082593" lon="14.654218624143484"><ele>1455.0</ele><time>2026-04-12T09:08:54.929Z</time></trkpt><trkpt lat="37.89679605054479" lon="14.654166513257021"><ele>1456.0</ele><time>2026-04-12T09:08:55.929Z</time></trkpt><trkpt lat="37.89664663278903" lon="14.654119202246125"><ele>1457.0</ele><time>2026-04-12T09:08:56.929Z</time></trkpt><trkpt lat="37.89647623986918" lon="14.654110843176651"><ele>1458.0</ele><time>2026-04-12T09:08:57.929Z</time></trkpt><trkpt lat="37.89629768424094" lon="14.654109744984124"><ele>1458.0</ele><time>2026-04-12T09:08:58.929Z</time></trkpt><trkpt lat="37.89611370986685" lon="14.65411049598326"><ele>1458.0</ele><time>2026-04-12T09:08:59.929Z</time></trkpt><trkpt lat="37.895928248391954" lon="14.654129083276096"><ele>1458.0</ele><time>2026-04-12T09:09:00.929Z</time></trkpt><trkpt lat="37.89574315459026" lon="14.654175333875706"><ele>1455.6666666666667</ele><time>2026-04-12T09:09:01.929Z</time></trkpt><trkpt lat="37.8955735069333" lon="14.654251180813514"><ele>1453.3333333333335</ele><time>2026-04-12T09:09:02.929Z</time></trkpt><trkpt lat="37.89540448449481" lon="14.654363164752711"><ele>1451.0</ele><time>2026-04-12T09:09:03.929Z</time></trkpt><trkpt lat="37.8952416800367" lon="14.654516353456017"><ele>1453.6666666666667</ele><time>2026-04-12T09:09:04.929Z</time></trkpt><trkpt lat="37.89509191288967" lon="14.654648670670634"><ele>1456.3333333333333</ele><time>2026-04-12T09:09:05.929Z</time></trkpt><trkpt lat="37.89493033555346" lon="14.654736101276276"><ele>1459.0</ele><time>2026-04-12T09:09:06.929Z</time></trkpt><trkpt lat="37.8947501274533" lon="14.654785658452502"><ele>1459.0</ele><time>2026-04-12T09:09:07.929Z</time></trkpt><trkpt lat="37.89455225390602" lon="14.65478841486569"><ele>1459.0</ele><time>2026-04-12T09:09:08.929Z</time></trkpt><trkpt lat="37.894343843027535" lon="14.654775334125372"><ele>1459.0</ele><time>2026-04-12T09:09:09.929Z</time></trkpt><trkpt lat="37.89415465582702" lon="14.65476272288463"><ele>1455.6666666666665</ele><time>2026-04-12T09:09:10.929Z</time></trkpt><trkpt lat="37.893967823282544" lon="14.654778822492192"><ele>1452.3333333333333</ele><time>2026-04-12T09:09:11.928Z</time></trkpt><trkpt lat="37.893803365380414" lon="14.654826500865354"><ele>1449.0</ele><time>2026-04-12T09:09:12.928Z</time></trkpt><trkpt lat="37.89367521668377" lon="14.654880136556681"><ele>1449.0</ele><time>2026-04-12T09:09:13.928Z</time></trkpt><trkpt lat="37.893558436551935" lon="14.654911895220257"><ele>1449.0</ele><time>2026-04-12T09:09:14.928Z</time></trkpt><trkpt lat="37.893459476988156" lon="14.654917106116427"><ele>1449.0</ele><time>2026-04-12T09:09:15.928Z</time></trkpt><trkpt lat="37.89339217011342" lon="14.654822544727354"><ele>1449.0</ele><time>2026-04-12T09:09:17.928Z</time></trkpt><trkpt lat="37.893421681486466" lon="14.654747613752651"><ele>1449.0</ele><time>2026-04-12T09:09:18.928Z</time></trkpt><trkpt lat="37.89348438510713" lon="14.654685846958088"><ele>1449.0</ele><time>2026-04-12T09:09:19.928Z</time></trkpt><trkpt lat="37.89361477988609" lon="14.654708934935003"><ele>1449.0</ele><time>2026-04-12T09:09:20.928Z</time></trkpt><trkpt lat="37.893741909131066" lon="14.65468881657846"><ele>1449.0</ele><time>2026-04-12T09:09:21.928Z</time></trkpt><trkpt lat="37.8938884185443" lon="14.654654802665437"><ele>1449.0</ele><time>2026-04-12T09:09:22.928Z</time></trkpt><trkpt lat="37.89403785706281" lon="14.654590869162613"><ele>1449.0</ele><time>2026-04-12T09:09:23.928Z</time></trkpt><trkpt lat="37.894214548910256" lon="14.65455493860437"><ele>1449.0</ele><time>2026-04-12T09:09:24.928Z</time></trkpt><trkpt lat="37.89440682699667" lon="14.654528911619876"><ele>1449.0</ele><time>2026-04-12T09:09:25.928Z</time></trkpt><trkpt lat="37.89459151219073" lon="14.654507995525254"><ele>1452.3333333333333</ele><time>2026-04-12T09:09:26.928Z</time></trkpt><trkpt lat="37.8947680586545" lon="14.65447905740807"><ele>1455.6666666666665</ele><time>2026-04-12T09:09:27.928Z</time></trkpt><trkpt lat="37.894924252859234" lon="14.654421309492001"><ele>1459.0</ele><time>2026-04-12T09:09:28.928Z</time></trkpt><trkpt lat="37.89505305403979" lon="14.654307725367657"><ele>1456.3333333333333</ele><time>2026-04-12T09:09:29.928Z</time></trkpt><trkpt lat="37.895163083942734" lon="14.654131766924078"><ele>1453.6666666666667</ele><time>2026-04-12T09:09:30.928Z</time></trkpt><trkpt lat="37.895284976196116" lon="14.653950720180589"><ele>1451.0</ele><time>2026-04-12T09:09:31.928Z</time></trkpt><trkpt lat="37.89539468753335" lon="14.6537857715787"><ele>1451.0</ele><time>2026-04-12T09:09:32.928Z</time></trkpt><trkpt lat="37.895523555592455" lon="14.6536543864297"><ele>1451.0</ele><time>2026-04-12T09:09:33.928Z</time></trkpt><trkpt lat="37.89569454669614" lon="14.653550509720594"><ele>1451.0</ele><time>2026-04-12T09:09:34.928Z</time></trkpt><trkpt lat="37.89589139647026" lon="14.653434811025122"><ele>1445.6666666666667</ele><time>2026-04-12T09:09:35.928Z</time></trkpt><trkpt lat="37.896088466871646" lon="14.653295600639542"><ele>1440.3333333333333</ele><time>2026-04-12T09:09:36.928Z</time></trkpt><trkpt lat="37.89628192681332" lon="14.653182989503815"><ele>1435.0</ele><time>2026-04-12T09:09:37.928Z</time></trkpt><trkpt lat="37.89644347362034" lon="14.653062316246054"><ele>1435.0</ele><time>2026-04-12T09:09:38.927Z</time></trkpt><trkpt lat="37.89658533779568" lon="14.6529546660101"><ele>1435.0</ele><time>2026-04-12T09:09:39.927Z</time></trkpt><trkpt lat="37.89670227394072" lon="14.65286334798803"><ele>1435.0</ele><time>2026-04-12T09:09:40.927Z</time></trkpt><trkpt lat="37.89678624096404" lon="14.652781076069406"><ele>1435.0</ele><time>2026-04-12T09:09:41.927Z</time></trkpt><trkpt lat="37.896819316820526" lon="14.652676308525464"><ele>1432.8</ele><time>2026-04-12T09:09:42.927Z</time></trkpt><trkpt lat="37.89680325854165" lon="14.652560169918132"><ele>1430.6</ele><time>2026-04-12T09:09:43.927Z</time></trkpt><trkpt lat="37.896724688025515" lon="14.652476026713948"><ele>1428.4</ele><time>2026-04-12T09:09:44.927Z</time></trkpt><trkpt lat="37.89661271842881" lon="14.652451208171552"><ele>1426.2</ele><time>2026-04-12T09:09:45.927Z</time></trkpt><trkpt lat="37.89649252227363" lon="14.652541204385308"><ele>1424.0</ele><time>2026-04-12T09:09:46.927Z</time></trkpt><trkpt lat="37.89639864927169" lon="14.652669046493621"><ele>1426.75</ele><time>2026-04-12T09:09:47.927Z</time></trkpt><trkpt lat="37.89629873217713" lon="14.652794059877538"><ele>1429.5</ele><time>2026-04-12T09:09:48.927Z</time></trkpt><trkpt lat="37.89620438779355" lon="14.652909417935291"><ele>1432.25</ele><time>2026-04-12T09:09:49.927Z</time></trkpt><trkpt lat="37.89610787726083" lon="14.652995208280679"><ele>1435.0</ele><time>2026-04-12T09:09:50.927Z</time></trkpt><trkpt lat="37.895985239532195" lon="14.653050949055846"><ele>1431.0</ele><time>2026-04-12T09:09:51.927Z</time></trkpt><trkpt lat="37.895843811932515" lon="14.653001246409962"><ele>1427.0</ele><time>2026-04-12T09:09:52.927Z</time></trkpt><trkpt lat="37.895672415036906" lon="14.652955856981716"><ele>1423.0</ele><time>2026-04-12T09:09:53.927Z</time></trkpt><trkpt lat="37.89549087487854" lon="14.652965786971736"><ele>1423.0</ele><time>2026-04-12T09:09:54.927Z</time></trkpt><trkpt lat="37.89530402173518" lon="14.653002714832528"><ele>1423.0</ele><time>2026-04-12T09:09:55.927Z</time></trkpt><trkpt lat="37.895140320599936" lon="14.653058828121592"><ele>1423.0</ele><time>2026-04-12T09:09:56.927Z</time></trkpt><trkpt lat="37.89497468590217" lon="14.653048106879295"><ele>1421.0</ele><time>2026-04-12T09:09:57.927Z</time></trkpt><trkpt lat="37.89485246131851" lon="14.652984635082738"><ele>1419.0</ele><time>2026-04-12T09:09:58.927Z</time></trkpt><trkpt lat="37.89472059889279" lon="14.652880120159695"><ele>1417.0</ele><time>2026-04-12T09:09:59.927Z</time></trkpt><trkpt lat="37.89456040565809" lon="14.652855230976963"><ele>1415.0</ele><time>2026-04-12T09:10:00.927Z</time></trkpt><trkpt lat="37.89438557965185" lon="14.652864739926992"><ele>1412.6666666666667</ele><time>2026-04-12T09:10:01.927Z</time></trkpt><trkpt lat="37.89419939710054" lon="14.652888144458696"><ele>1410.3333333333333</ele><time>2026-04-12T09:10:02.927Z</time></trkpt><trkpt lat="37.89402471960102" lon="14.652937805577256"><ele>1408.0</ele><time>2026-04-12T09:10:03.927Z</time></trkpt><trkpt lat="37.89387907166247" lon="14.653023974978728"><ele>1408.0</ele><time>2026-04-12T09:10:04.926Z</time></trkpt><trkpt lat="37.89377036652884" lon="14.653120813183682"><ele>1408.0</ele><time>2026-04-12T09:10:05.926Z</time></trkpt><trkpt lat="37.89367233982994" lon="14.6532100659444"><ele>1408.0</ele><time>2026-04-12T09:10:06.926Z</time></trkpt><trkpt lat="37.89356805970428" lon="14.653286750734798"><ele>1408.0</ele><time>2026-04-12T09:10:07.926Z</time></trkpt><trkpt lat="37.89347061750076" lon="14.653271355133139"><ele>1406.0</ele><time>2026-04-12T09:10:08.926Z</time></trkpt><trkpt lat="37.8933570349153" lon="14.653206906222756"><ele>1404.0</ele><time>2026-04-12T09:10:09.926Z</time></trkpt><trkpt lat="37.893223872287955" lon="14.653135762961158"><ele>1402.0</ele><time>2026-04-12T09:10:10.926Z</time></trkpt><trkpt lat="37.89308650670984" lon="14.653060256681002"><ele>1400.0</ele><time>2026-04-12T09:10:11.926Z</time></trkpt><trkpt lat="37.892947701105925" lon="14.653003114582472"><ele>1400.0</ele><time>2026-04-12T09:10:12.926Z</time></trkpt><trkpt lat="37.89283305755442" lon="14.652944792467002"><ele>1400.0</ele><time>2026-04-12T09:10:13.926Z</time></trkpt><trkpt lat="37.8927030478674" lon="14.652945845260925"><ele>1400.0</ele><time>2026-04-12T09:10:14.926Z</time></trkpt><trkpt lat="37.892590344016455" lon="14.653018348679689"><ele>1400.0</ele><time>2026-04-12T09:10:15.929Z</time></trkpt><trkpt lat="37.8924707072131" lon="14.653130789227143"><ele>1397.6</ele><time>2026-04-12T09:10:16.929Z</time></trkpt><trkpt lat="37.892367129263036" lon="14.653251328946679"><ele>1395.2</ele><time>2026-04-12T09:10:17.929Z</time></trkpt><trkpt lat="37.89229885359565" lon="14.65332521616035"><ele>1392.8000000000002</ele><time>2026-04-12T09:10:18.929Z</time></trkpt><trkpt lat="37.89219870030621" lon="14.653352432086555"><ele>1390.4</ele><time>2026-04-12T09:10:20.929Z</time></trkpt><trkpt lat="37.89216751652219" lon="14.653274999706982"><ele>1388.0</ele><time>2026-04-12T09:10:21.929Z</time></trkpt><trkpt lat="37.89217726225941" lon="14.653177522541707"><ele>1388.0</ele><time>2026-04-12T09:10:22.928Z</time></trkpt><trkpt lat="37.892261332318775" lon="14.653060719519372"><ele>1388.0</ele><time>2026-04-12T09:10:23.928Z</time></trkpt><trkpt lat="37.89235590886277" lon="14.652937351992335"><ele>1388.0</ele><time>2026-04-12T09:10:24.929Z</time></trkpt><trkpt lat="37.89245894566482" lon="14.652817777195386"><ele>1388.0</ele><time>2026-04-12T09:10:25.928Z</time></trkpt><trkpt lat="37.892590594366496" lon="14.65272162733013"><ele>1385.0</ele><time>2026-04-12T09:10:26.928Z</time></trkpt><trkpt lat="37.892756475049616" lon="14.652668328145992"><ele>1382.0</ele><time>2026-04-12T09:10:27.928Z</time></trkpt><trkpt lat="37.89293854593882" lon="14.652662655991623"><ele>1379.0</ele><time>2026-04-12T09:10:28.929Z</time></trkpt><trkpt lat="37.893105655255134" lon="14.652675049894983"><ele>1379.0</ele><time>2026-04-12T09:10:29.929Z</time></trkpt><trkpt lat="37.89324822151283" lon="14.652668211988322"><ele>1379.0</ele><time>2026-04-12T09:10:30.929Z</time></trkpt><trkpt lat="37.89337018552764" lon="14.652601969511522"><ele>1379.0</ele><time>2026-04-12T09:10:31.929Z</time></trkpt><trkpt lat="37.893451569222755" lon="14.652497353107178"><ele>1379.0</ele><time>2026-04-12T09:10:32.929Z</time></trkpt><trkpt lat="37.89350487604597" lon="14.652334468365197"><ele>1379.25</ele><time>2026-04-12T09:10:33.928Z</time></trkpt><trkpt lat="37.89356354866704" lon="14.652169316357984"><ele>1379.5</ele><time>2026-04-12T09:10:34.928Z</time></trkpt><trkpt lat="37.89367386787741" lon="14.652047620043554"><ele>1379.75</ele><time>2026-04-12T09:10:35.928Z</time></trkpt><trkpt lat="37.893800608165755" lon="14.651961229658834"><ele>1380.0</ele><time>2026-04-12T09:10:36.928Z</time></trkpt><trkpt lat="37.89390779299233" lon="14.65187069873261"><ele>1380.0</ele><time>2026-04-12T09:10:37.928Z</time></trkpt><trkpt lat="37.893981058164805" lon="14.651745472192866"><ele>1380.0</ele><time>2026-04-12T09:10:38.928Z</time></trkpt><trkpt lat="37.89399753993277" lon="14.651594428132901"><ele>1380.0</ele><time>2026-04-12T09:10:39.928Z</time></trkpt><trkpt lat="37.89396774896907" lon="14.651456700589735"><ele>1380.0</ele><time>2026-04-12T09:10:40.928Z</time></trkpt><trkpt lat="37.8938983726647" lon="14.651360119906817"><ele>1380.0</ele><time>2026-04-12T09:10:41.928Z</time></trkpt><trkpt lat="37.89380878734935" lon="14.651309200933158"><ele>1380.0</ele><time>2026-04-12T09:10:42.928Z</time></trkpt><trkpt lat="37.893693058421704" lon="14.651281278327199"><ele>1380.0</ele><time>2026-04-12T09:10:43.928Z</time></trkpt><trkpt lat="37.893555450515706" lon="14.651266733493998"><ele>1380.0</ele><time>2026-04-12T09:10:44.928Z</time></trkpt><trkpt lat="37.89339854186367" lon="14.65120064449868"><ele>1381.3333333333333</ele><time>2026-04-12T09:10:45.928Z</time></trkpt><trkpt lat="37.89324760248586" lon="14.651081212135002"><ele>1382.6666666666665</ele><time>2026-04-12T09:10:46.928Z</time></trkpt><trkpt lat="37.89306282528654" lon="14.65103605065868"><ele>1384.0</ele><time>2026-04-12T09:10:47.928Z</time></trkpt><trkpt lat="37.8928887537424" lon="14.651025667998086"><ele>1508.0</ele><time>2026-04-12T09:10:48.928Z</time></trkpt><trkpt lat="37.907581694989155" lon="14.654418047707118"><ele>1506.0</ele><time>2026-04-12T09:07:42.928Z</time></trkpt><trkpt lat="37.90740306907272" lon="14.654327530536744"><ele>1504.0</ele><time>2026-04-12T09:07:43.928Z</time></trkpt><trkpt lat="37.90724407467666" lon="14.654246366768207"><ele>1502.0</ele><time>2026-04-12T09:07:44.928Z</time></trkpt><trkpt lat="37.90709048008329" lon="14.654165430446925"><ele>1502.0</ele><time>2026-04-12T09:07:45.928Z</time></trkpt><trkpt lat="37.90693471100908" lon="14.65408419642358"><ele>1502.0</ele><time>2026-04-12T09:07:46.928Z</time></trkpt><trkpt lat="37.90677502577377" lon="14.654011928649457"><ele>1502.0</ele><time>2026-04-12T09:07:47.928Z</time></trkpt><trkpt lat="37.90660592137731" lon="14.65395743810545"><ele>1497.3333333333335</ele><time>2026-04-12T09:07:48.927Z</time></trkpt><trkpt lat="37.90644409172517" lon="14.653902419594418"><ele>1492.6666666666667</ele><time>2026-04-12T09:07:49.927Z</time></trkpt><trkpt lat="37.906272257290794" lon="14.65385745064018"><ele>1488.0</ele><time>2026-04-12T09:07:50.927Z</time></trkpt><trkpt lat="37.90610832320842" lon="14.653748321158252"><ele>1488.0</ele><time>2026-04-12T09:07:51.927Z</time></trkpt><trkpt lat="37.90595443773521" lon="14.653631339835512"><ele>1488.0</ele><time>2026-04-12T09:07:52.927Z</time></trkpt><trkpt lat="37.90579467775202" lon="14.65349810554048"><ele>1488.0</ele><time>2026-04-12T09:07:53.927Z</time></trkpt><trkpt lat="37.90564290482894" lon="14.653371532345414"><ele>1488.6666666666667</ele><time>2026-04-12T09:07:54.927Z</time></trkpt><trkpt lat="37.905490159782545" lon="14.653244973453315"><ele>1489.3333333333335</ele><time>2026-04-12T09:07:55.927Z</time></trkpt><trkpt lat="37.90533969791703" lon="14.65311920376442"><ele>1490.0</ele><time>2026-04-12T09:07:56.927Z</time></trkpt><trkpt lat="37.90519295065289" lon="14.65300319237015"><ele>1489.6666666666667</ele><time>2026-04-12T09:07:57.927Z</time></trkpt><trkpt lat="37.90505843672651" lon="14.652882812011747"><ele>1489.3333333333333</ele><time>2026-04-12T09:07:58.927Z</time></trkpt><trkpt lat="37.9049388096801" lon="14.652763771155339"><ele>1489.0</ele><time>2026-04-12T09:07:59.927Z</time></trkpt><trkpt lat="37.90482802535795" lon="14.652652573071787"><ele>1489.0</ele><time>2026-04-12T09:08:00.927Z</time></trkpt><trkpt lat="37.90470795480032" lon="14.652534287686008"><ele>1489.0</ele><time>2026-04-12T09:08:01.927Z</time></trkpt><trkpt lat="37.904576564346414" lon="14.652422741586992"><ele>1489.0</ele><time>2026-04-12T09:08:02.927Z</time></trkpt><trkpt lat="37.90444048121165" lon="14.652311535258908"><ele>1489.0</ele><time>2026-04-12T09:08:03.927Z</time></trkpt><trkpt lat="37.90428119485044" lon="14.652239052985252"><ele>1489.0</ele><time>2026-04-12T09:08:04.927Z</time></trkpt><trkpt lat="37.90411392558063" lon="14.65220976242036"><ele>1489.0</ele><time>2026-04-12T09:08:05.927Z</time></trkpt><trkpt lat="37.90394006607465" lon="14.65219649124685"><ele>1485.3333333333333</ele><time>2026-04-12T09:08:06.927Z</time></trkpt><trkpt lat="37.90376651324992" lon="14.65218711033921"><ele>1481.6666666666667</ele><time>2026-04-12T09:08:07.927Z</time></trkpt><trkpt lat="37.90359468835389" lon="14.65217500152211"><ele>1478.0</ele><time>2026-04-12T09:08:08.927Z</time></trkpt><trkpt lat="37.903423910422866" lon="14.652144356921092"><ele>1477.3333333333335</ele><time>2026-04-12T09:08:09.93Z</time></trkpt><trkpt lat="37.90324754431923" lon="14.652108464535425"><ele>1476.6666666666667</ele><time>2026-04-12T09:08:10.93Z</time></trkpt><trkpt lat="37.90307292114021" lon="14.652082933013066"><ele>1476.0</ele><time>2026-04-12T09:08:11.93Z</time></trkpt><trkpt lat="37.902907725606866" lon="14.652070399546561"><ele>1476.0</ele><time>2026-04-12T09:08:12.93Z</time></trkpt><trkpt lat="37.902755846610255" lon="14.65205963247715"><ele>1476.0</ele><time>2026-04-12T09:08:13.93Z</time></trkpt><trkpt lat="37.902597249693116" lon="14.65207871774994"><ele>1476.0</ele><time>2026-04-12T09:08:14.929Z</time></trkpt><trkpt lat="37.9024357435606" lon="14.652162447541162"><ele>1477.0</ele><time>2026-04-12T09:08:15.93Z</time></trkpt><trkpt lat="37.90228371165405" lon="14.652277395770248"><ele>1478.0</ele><time>2026-04-12T09:08:16.93Z</time></trkpt><trkpt lat="37.902123953406566" lon="14.652384834143286"><ele>1479.0</ele><time>2026-04-12T09:08:17.93Z</time></trkpt><trkpt lat="37.90197249454246" lon="14.652514061480913"><ele>1479.0</ele><time>2026-04-12T09:08:18.93Z</time></trkpt><trkpt lat="37.901835316366274" lon="14.652621602576124"><ele>1479.0</ele><time>2026-04-12T09:08:19.93Z</time></trkpt><trkpt lat="37.9016976729505" lon="14.652720195650064"><ele>1479.0</ele><time>2026-04-12T09:08:20.93Z</time></trkpt><trkpt lat="37.90159068032717" lon="14.652858773420302"><ele>1477.6666666666667</ele><time>2026-04-12T09:08:21.93Z</time></trkpt><trkpt lat="37.90151625501599" lon="14.653025237457028"><ele>1476.3333333333335</ele><time>2026-04-12T09:08:22.93Z</time></trkpt><trkpt lat="37.90145446167673" lon="14.653199434589123"><ele>1475.0</ele><time>2026-04-12T09:08:23.93Z</time></trkpt><trkpt lat="37.90134574695395" lon="14.653337592921583"><ele>1475.0</ele><time>2026-04-12T09:08:24.93Z</time></trkpt><trkpt lat="37.90121303814715" lon="14.653458027918118"><ele>1475.0</ele><time>2026-04-12T09:08:25.93Z</time></trkpt><trkpt lat="37.90106294052266" lon="14.653564645265792"><ele>1475.0</ele><time>2026-04-12T09:08:26.93Z</time></trkpt><trkpt lat="37.90090620182142" lon="14.653667239227575"><ele>1473.0</ele><time>2026-04-12T09:08:27.93Z</time></trkpt><trkpt lat="37.900739873317214" lon="14.653781393317875"><ele>1471.0</ele><time>2026-04-12T09:08:28.93Z</time></trkpt><trkpt lat="37.900567112382234" lon="14.653905857851992"><ele>1469.0</ele><time>2026-04-12T09:08:29.93Z</time></trkpt><trkpt lat="37.90039751815467" lon="14.654032153661344"><ele>1469.0</ele><time>2026-04-12T09:08:30.93Z</time></trkpt><trkpt lat="37.90024150993694" lon="14.654188902238763"><ele>1469.0</ele><time>2026-04-12T09:08:31.93Z</time></trkpt><trkpt lat="37.900097854244244" lon="14.654365523745867"><ele>1469.0</ele><time>2026-04-12T09:08:32.93Z</time></trkpt><trkpt lat="37.89995761792424" lon="14.654545209598774"><ele>1467.6666666666667</ele><time>2026-04-12T09:08:33.93Z</time></trkpt><trkpt lat="37.89979948507677" lon="14.654690029062806"><ele>1466.3333333333333</ele><time>2026-04-12T09:08:34.93Z</time></trkpt><trkpt lat="37.89965793996901" lon="14.65482797574901"><ele>1465.0</ele><time>2026-04-12T09:08:35.93Z</time></trkpt><trkpt lat="37.89950862842577" lon="14.654924970797913"><ele>1465.0</ele><time>2026-04-12T09:08:36.93Z</time></trkpt><trkpt lat="37.899353349418504" lon="14.654965832535352"><ele>1465.0</ele><time>2026-04-12T09:08:37.93Z</time></trkpt><trkpt lat="37.89920518916802" lon="14.654960086233997"><ele>1465.0</ele><time>2026-04-12T09:08:38.93Z</time></trkpt><trkpt lat="37.899036785018595" lon="14.654962469295551"><ele>1466.0</ele><time>2026-04-12T09:08:39.93Z</time></trkpt><trkpt lat="37.89885243227725" lon="14.655002360545742"><ele>1467.0</ele><time>2026-04-12T09:08:40.93Z</time></trkpt><trkpt lat="37.89867114770991" lon="14.65506734427806"><ele>1468.0</ele><time>2026-04-12T09:08:41.93Z</time></trkpt><trkpt lat="37.89850671904524" lon="14.655146101670507"><ele>1467.5</ele><time>2026-04-12T09:08:42.93Z</time></trkpt><trkpt lat="37.89835050753048" lon="14.655216016113904"><ele>1467.0</ele><time>2026-04-12T09:08:43.93Z</time></trkpt><trkpt lat="37.898213418043014" lon="14.655256216751779"><ele>1466.5</ele><time>2026-04-12T09:08:44.929Z</time></trkpt><trkpt lat="37.89808810942088" lon="14.65521880944555"><ele>1466.0</ele><time>2026-04-12T09:08:45.929Z</time></trkpt><trkpt lat="37.89796856010885" lon="14.655134905885685"><ele>1466.0</ele><time>2026-04-12T09:08:46.929Z</time></trkpt><trkpt lat="37.89783755948859" lon="14.655015154537523"><ele>1466.0</ele><time>2026-04-12T09:08:47.929Z</time></trkpt><trkpt lat="37.89768819530049" lon="14.654890957759298"><ele>1466.0</ele><time>2026-04-12T09:08:48.929Z</time></trkpt><trkpt lat="37.897559065846124" lon="14.65474876028996"><ele>1466.6666666666667</ele><time>2026-04-12T09:08:49.929Z</time></trkpt><trkpt lat="37.89743239503159" lon="14.654615406233592"><ele>1467.3333333333333</ele><time>2026-04-12T09:08:50.929Z</time></trkpt><trkpt lat="37.89730518786585" lon="14.654488332491983"><ele>1468.0</ele><time>2026-04-12T09:08:51.929Z</time></trkpt><trkpt lat="37.89717301388265" lon="14.654378054552229"><ele>1465.5</ele><time>2026-04-12T09:08:52.929Z</time></trkpt><trkpt lat="37.89705054576905" lon="14.654288443815412"><ele>1463.0</ele><time>2026-04-12T09:08:53.929Z</time></trkpt><trkpt lat="37.89692599082593" lon="14.654218624143484"><ele>1460.5</ele><time>2026-04-12T09:08:54.929Z</time></trkpt><trkpt lat="37.89679605054479" lon="14.654166513257021"><ele>1458.0</ele><time>2026-04-12T09:08:55.929Z</time></trkpt><trkpt lat="37.89664663278903" lon="14.654119202246125"><ele>1458.0</ele><time>2026-04-12T09:08:56.929Z</time></trkpt><trkpt lat="37.89647623986918" lon="14.654110843176651"><ele>1458.0</ele><time>2026-04-12T09:08:57.929Z</time></trkpt><trkpt lat="37.89629768424094" lon="14.654109744984124"><ele>1458.0</ele><time>2026-04-12T09:08:58.929Z</time></trkpt><trkpt lat="37.89611370986685" lon="14.65411049598326"><ele>1458.0</ele><time>2026-04-12T09:08:59.929Z</time></trkpt><trkpt lat="37.895928248391954" lon="14.654129083276096"><ele>1458.0</ele><time>2026-04-12T09:09:00.929Z</time></trkpt><trkpt lat="37.89574315459026" lon="14.654175333875706"><ele>1458.0</ele><time>2026-04-12T09:09:01.929Z</time></trkpt><trkpt lat="37.8955735069333" lon="14.654251180813514"><ele>1455.6666666666667</ele><time>2026-04-12T09:09:02.929Z</time></trkpt><trkpt lat="37.89540448449481" lon="14.654363164752711"><ele>1453.3333333333335</ele><time>2026-04-12T09:09:03.929Z</time></trkpt><trkpt lat="37.8952416800367" lon="14.654516353456017"><ele>1451.0</ele><time>2026-04-12T09:09:04.929Z</time></trkpt><trkpt lat="37.89509191288967" lon="14.654648670670634"><ele>1453.6666666666667</ele><time>2026-04-12T09:09:05.929Z</time></trkpt><trkpt lat="37.89493033555346" lon="14.654736101276276"><ele>1456.3333333333333</ele><time>2026-04-12T09:09:06.929Z</time></trkpt><trkpt lat="37.8947501274533" lon="14.654785658452502"><ele>1459.0</ele><time>2026-04-12T09:09:07.929Z</time></trkpt><trkpt lat="37.89455225390602" lon="14.65478841486569"><ele>1459.0</ele><time>2026-04-12T09:09:08.929Z</time></trkpt><trkpt lat="37.894343843027535" lon="14.654775334125372"><ele>1459.0</ele><time>2026-04-12T09:09:09.929Z</time></trkpt><trkpt lat="37.89415465582702" lon="14.65476272288463"><ele>1459.0</ele><time>2026-04-12T09:09:10.929Z</time></trkpt><trkpt lat="37.893967823282544" lon="14.654778822492192"><ele>1456.5</ele><time>2026-04-12T09:09:11.928Z</time></trkpt><trkpt lat="37.893803365380414" lon="14.654826500865354"><ele>1454.0</ele><time>2026-04-12T09:09:12.928Z</time></trkpt><trkpt lat="37.89367521668377" lon="14.654880136556681"><ele>1451.5</ele><time>2026-04-12T09:09:13.928Z</time></trkpt><trkpt lat="37.893558436551935" lon="14.654911895220257"><ele>1449.0</ele><time>2026-04-12T09:09:14.928Z</time></trkpt><trkpt lat="37.893459476988156" lon="14.654917106116427"><ele>1449.0</ele><time>2026-04-12T09:09:15.928Z</time></trkpt><trkpt lat="37.89339217011342" lon="14.654822544727354"><ele>1449.0</ele><time>2026-04-12T09:09:17.928Z</time></trkpt><trkpt lat="37.893421681486466" lon="14.654747613752651"><ele>1449.0</ele><time>2026-04-12T09:09:18.928Z</time></trkpt><trkpt lat="37.89348438510713" lon="14.654685846958088"><ele>1449.0</ele><time>2026-04-12T09:09:19.928Z</time></trkpt><trkpt lat="37.89361477988609" lon="14.654708934935003"><ele>1449.0</ele><time>2026-04-12T09:09:20.928Z</time></trkpt><trkpt lat="37.893741909131066" lon="14.65468881657846"><ele>1449.0</ele><time>2026-04-12T09:09:21.928Z</time></trkpt><trkpt lat="37.8938884185443" lon="14.654654802665437"><ele>1449.0</ele><time>2026-04-12T09:09:22.928Z</time></trkpt><trkpt lat="37.89403785706281" lon="14.654590869162613"><ele>1449.0</ele><time>2026-04-12T09:09:23.928Z</time></trkpt><trkpt lat="37.894214548910256" lon="14.65455493860437"><ele>1452.3333333333333</ele><time>2026-04-12T09:09:24.928Z</time></trkpt><trkpt lat="37.89440682699667" lon="14.654528911619876"><ele>1455.6666666666665</ele><time>2026-04-12T09:09:25.928Z</time></trkpt><trkpt lat="37.89459151219073" lon="14.654507995525254"><ele>1459.0</ele><time>2026-04-12T09:09:26.928Z</time></trkpt><trkpt lat="37.8947680586545" lon="14.65447905740807"><ele>1456.3333333333333</ele><time>2026-04-12T09:09:27.928Z</time></trkpt><trkpt lat="37.894924252859234" lon="14.654421309492001"><ele>1453.6666666666667</ele><time>2026-04-12T09:09:28.928Z</time></trkpt><trkpt lat="37.89505305403979" lon="14.654307725367657"><ele>1451.0</ele><time>2026-04-12T09:09:29.928Z</time></trkpt><trkpt lat="37.895163083942734" lon="14.654131766924078"><ele>1451.0</ele><time>2026-04-12T09:09:30.928Z</time></trkpt><trkpt lat="37.895284976196116" lon="14.653950720180589"><ele>1451.0</ele><time>2026-04-12T09:09:31.928Z</time></trkpt><trkpt lat="37.89539468753335" lon="14.6537857715787"><ele>1451.0</ele><time>2026-04-12T09:09:32.928Z</time></trkpt><trkpt lat="37.895523555592455" lon="14.6536543864297"><ele>1445.6666666666667</ele><time>2026-04-12T09:09:33.928Z</time></trkpt><trkpt lat="37.89569454669614" lon="14.653550509720594"><ele>1440.3333333333333</ele><time>2026-04-12T09:09:34.928Z</time></trkpt><trkpt lat="37.89589139647026" lon="14.653434811025122"><ele>1435.0</ele><time>2026-04-12T09:09:35.928Z</time></trkpt><trkpt lat="37.896088466871646" lon="14.653295600639542"><ele>1435.0</ele><time>2026-04-12T09:09:36.928Z</time></trkpt><trkpt lat="37.89628192681332" lon="14.653182989503815"><ele>1435.0</ele><time>2026-04-12T09:09:37.928Z</time></trkpt><trkpt lat="37.89644347362034" lon="14.653062316246054"><ele>1435.0</ele><time>2026-04-12T09:09:38.927Z</time></trkpt><trkpt lat="37.89658533779568" lon="14.6529546660101"><ele>1435.0</ele><time>2026-04-12T09:09:39.927Z</time></trkpt><trkpt lat="37.89670227394072" lon="14.65286334798803"><ele>1435.0</ele><time>2026-04-12T09:09:40.927Z</time></trkpt><trkpt lat="37.89678624096404" lon="14.652781076069406"><ele>1435.0</ele><time>2026-04-12T09:09:41.927Z</time></trkpt><trkpt lat="37.896819316820526" lon="14.652676308525464"><ele>1435.0</ele><time>2026-04-12T09:09:42.927Z</time></trkpt><trkpt lat="37.89680325854165" lon="14.652560169918132"><ele>1435.0</ele><time>2026-04-12T09:09:43.927Z</time></trkpt><trkpt lat="37.896724688025515" lon="14.652476026713948"><ele>1435.0</ele><time>2026-04-12T09:09:44.927Z</time></trkpt><trkpt lat="37.89661271842881" lon="14.652451208171552"><ele>1435.0</ele><time>2026-04-12T09:09:45.927Z</time></trkpt><trkpt lat="37.89649252227363" lon="14.652541204385308"><ele>1435.0</ele><time>2026-04-12T09:09:46.927Z</time></trkpt><trkpt lat="37.89639864927169" lon="14.652669046493621"><ele>1435.0</ele><time>2026-04-12T09:09:47.927Z</time></trkpt><trkpt lat="37.89629873217713" lon="14.652794059877538"><ele>1435.0</ele><time>2026-04-12T09:09:48.927Z</time></trkpt><trkpt lat="37.89620438779355" lon="14.652909417935291"><ele>1435.0</ele><time>2026-04-12T09:09:49.927Z</time></trkpt><trkpt lat="37.89610787726083" lon="14.652995208280679"><ele>1435.0</ele><time>2026-04-12T09:09:50.927Z</time></trkpt><trkpt lat="37.895985239532195" lon="14.653050949055846"><ele>1435.0</ele><time>2026-04-12T09:09:51.927Z</time></trkpt><trkpt lat="37.895843811932515" lon="14.653001246409962"><ele>1431.0</ele><time>2026-04-12T09:09:52.927Z</time></trkpt><trkpt lat="37.895672415036906" lon="14.652955856981716"><ele>1427.0</ele><time>2026-04-12T09:09:53.927Z</time></trkpt><trkpt lat="37.89549087487854" lon="14.652965786971736"><ele>1423.0</ele><time>2026-04-12T09:09:54.927Z</time></trkpt><trkpt lat="37.89530402173518" lon="14.653002714832528"><ele>1423.0</ele><time>2026-04-12T09:09:55.927Z</time></trkpt><trkpt lat="37.895140320599936" lon="14.653058828121592"><ele>1423.0</ele><time>2026-04-12T09:09:56.927Z</time></trkpt><trkpt lat="37.89497468590217" lon="14.653048106879295"><ele>1423.0</ele><time>2026-04-12T09:09:57.927Z</time></trkpt><trkpt lat="37.89485246131851" lon="14.652984635082738"><ele>1420.3333333333333</ele><time>2026-04-12T09:09:58.927Z</time></trkpt><trkpt lat="37.89472059889279" lon="14.652880120159695"><ele>1417.6666666666667</ele><time>2026-04-12T09:09:59.927Z</time></trkpt><trkpt lat="37.89456040565809" lon="14.652855230976963"><ele>1415.0</ele><time>2026-04-12T09:10:00.927Z</time></trkpt><trkpt lat="37.89438557965185" lon="14.652864739926992"><ele>1412.6666666666667</ele><time>2026-04-12T09:10:01.927Z</time></trkpt><trkpt lat="37.89419939710054" lon="14.652888144458696"><ele>1410.3333333333333</ele><time>2026-04-12T09:10:02.927Z</time></trkpt><trkpt lat="37.89402471960102" lon="14.652937805577256"><ele>1408.0</ele><time>2026-04-12T09:10:03.927Z</time></trkpt><trkpt lat="37.89387907166247" lon="14.653023974978728"><ele>1408.0</ele><time>2026-04-12T09:10:04.926Z</time></trkpt><trkpt lat="37.89377036652884" lon="14.653120813183682"><ele>1408.0</ele><time>2026-04-12T09:10:05.926Z</time></trkpt><trkpt lat="37.89367233982994" lon="14.6532100659444"><ele>1408.0</ele><time>2026-04-12T09:10:06.926Z</time></trkpt><trkpt lat="37.89356805970428" lon="14.653286750734798"><ele>1408.0</ele><time>2026-04-12T09:10:07.926Z</time></trkpt><trkpt lat="37.89347061750076" lon="14.653271355133139"><ele>1406.0</ele><time>2026-04-12T09:10:08.926Z</time></trkpt><trkpt lat="37.8933570349153" lon="14.653206906222756"><ele>1404.0</ele><time>2026-04-12T09:10:09.926Z</time></trkpt><trkpt lat="37.893223872287955" lon="14.653135762961158"><ele>1402.0</ele><time>2026-04-12T09:10:10.926Z</time></trkpt><trkpt lat="37.89308650670984" lon="14.653060256681002"><ele>1400.0</ele><time>2026-04-12T09:10:11.926Z</time></trkpt><trkpt lat="37.892947701105925" lon="14.653003114582472"><ele>1400.0</ele><time>2026-04-12T09:10:12.926Z</time></trkpt><trkpt lat="37.89283305755442" lon="14.652944792467002"><ele>1400.0</ele><time>2026-04-12T09:10:13.926Z</time></trkpt><trkpt lat="37.8927030478674" lon="14.652945845260925"><ele>1400.0</ele><time>2026-04-12T09:10:14.926Z</time></trkpt><trkpt lat="37.892590344016455" lon="14.653018348679689"><ele>1400.0</ele><time>2026-04-12T09:10:15.929Z</time></trkpt><trkpt lat="37.8924707072131" lon="14.653130789227143"><ele>1397.6</ele><time>2026-04-12T09:10:16.929Z</time></trkpt><trkpt lat="37.892367129263036" lon="14.653251328946679"><ele>1395.2</ele><time>2026-04-12T09:10:17.929Z</time></trkpt><trkpt lat="37.89229885359565" lon="14.65332521616035"><ele>1392.8000000000002</ele><time>2026-04-12T09:10:18.929Z</time></trkpt><trkpt lat="37.89219870030621" lon="14.653352432086555"><ele>1390.4</ele><time>2026-04-12T09:10:20.929Z</time></trkpt><trkpt lat="37.89216751652219" lon="14.653274999706982"><ele>1388.0</ele><time>2026-04-12T09:10:21.929Z</time></trkpt><trkpt lat="37.89217726225941" lon="14.653177522541707"><ele>1388.0</ele><time>2026-04-12T09:10:22.928Z</time></trkpt><trkpt lat="37.892261332318775" lon="14.653060719519372"><ele>1388.0</ele><time>2026-04-12T09:10:23.928Z</time></trkpt><trkpt lat="37.89235590886277" lon="14.652937351992335"><ele>1388.0</ele><time>2026-04-12T09:10:24.929Z</time></trkpt><trkpt lat="37.89245894566482" lon="14.652817777195386"><ele>1388.0</ele><time>2026-04-12T09:10:25.928Z</time></trkpt><trkpt lat="37.892590594366496" lon="14.65272162733013"><ele>1385.0</ele><time>2026-04-12T09:10:26.928Z</time></trkpt><trkpt lat="37.892756475049616" lon="14.652668328145992"><ele>1382.0</ele><time>2026-04-12T09:10:27.928Z</time></trkpt><trkpt lat="37.89293854593882" lon="14.652662655991623"><ele>1379.0</ele><time>2026-04-12T09:10:28.929Z</time></trkpt><trkpt lat="37.893105655255134" lon="14.652675049894983"><ele>1379.0</ele><time>2026-04-12T09:10:29.929Z</time></trkpt><trkpt lat="37.89324822151283" lon="14.652668211988322"><ele>1379.0</ele><time>2026-04-12T09:10:30.929Z</time></trkpt><trkpt lat="37.89337018552764" lon="14.652601969511522"><ele>1379.0</ele><time>2026-04-12T09:10:31.929Z</time></trkpt><trkpt lat="37.893451569222755" lon="14.652497353107178"><ele>1379.0</ele><time>2026-04-12T09:10:32.929Z</time></trkpt><trkpt lat="37.89350487604597" lon="14.652334468365197"><ele>1379.25</ele><time>2026-04-12T09:10:33.928Z</time></trkpt><trkpt lat="37.89356354866704" lon="14.652169316357984"><ele>1379.5</ele><time>2026-04-12T09:10:34.928Z</time></trkpt><trkpt lat="37.89367386787741" lon="14.652047620043554"><ele>1379.75</ele><time>2026-04-12T09:10:35.928Z</time></trkpt><trkpt lat="37.893800608165755" lon="14.651961229658834"><ele>1380.0</ele><time>2026-04-12T09:10:36.928Z</time></trkpt><trkpt lat="37.89390779299233" lon="14.65187069873261"><ele>1380.0</ele><time>2026-04-12T09:10:37.928Z</time></trkpt><trkpt lat="37.893981058164805" lon="14.651745472192866"><ele>1380.0</ele><time>2026-04-12T09:10:38.928Z</time></trkpt><trkpt lat="37.89399753993277" lon="14.651594428132901"><ele>1380.0</ele><time>2026-04-12T09:10:39.928Z</time></trkpt><trkpt lat="37.89396774896907" lon="14.651456700589735"><ele>1380.0</ele><time>2026-04-12T09:10:40.928Z</time></trkpt><trkpt lat="37.8938983726647" lon="14.651360119906817"><ele>1380.0</ele><time>2026-04-12T09:10:41.928Z</time></trkpt><trkpt lat="37.89380878734935" lon="14.651309200933158"><ele>1380.0</ele><time>2026-04-12T09:10:42.928Z</time></trkpt><trkpt lat="37.893693058421704" lon="14.651281278327199"><ele>1380.0</ele><time>2026-04-12T09:10:43.928Z</time></trkpt><trkpt lat="37.893555450515706" lon="14.651266733493998"><ele>1380.0</ele><time>2026-04-12T09:10:44.928Z</time></trkpt><trkpt lat="37.89339854186367" lon="14.65120064449868"><ele>1381.3333333333333</ele><time>2026-04-12T09:10:45.928Z</time></trkpt><trkpt lat="37.89324760248586" lon="14.651081212135002"><ele>1382.6666666666665</ele><time>2026-04-12T09:10:46.928Z</time></trkpt><trkpt lat="37.89306282528654" lon="14.65103605065868"><ele>1384.0</ele><time>2026-04-12T09:10:47.928Z</time></trkpt><trkpt lat="37.8928887537424" lon="14.651025667998086"><ele>1384.0</ele><time>2026-04-12T09:10:48.928Z</time></trkpt><trkpt lat="37.892744339561695" lon="14.650904196495166"><ele>1384.0</ele><time>2026-04-12T09:10:49.928Z</time></trkpt><trkpt lat="37.892608813872194" lon="14.650838289933523"><ele>1384.0</ele><time>2026-04-12T09:10:50.928Z</time></trkpt><trkpt lat="37.8925028281115" lon="14.650792348944771"><ele>1384.0</ele><time>2026-04-12T09:10:51.928Z</time></trkpt><trkpt lat="37.89242555249198" lon="14.65067510923966"><ele>1379.0</ele><time>2026-04-12T09:10:52.928Z</time></trkpt><trkpt lat="37.8923696398878" lon="14.650496376715283"><ele>1374.0</ele><time>2026-04-12T09:10:53.928Z</time></trkpt><trkpt lat="37.89228714149107" lon="14.650273237895291"><ele>1369.0</ele><time>2026-04-12T09:10:54.928Z</time></trkpt><trkpt lat="37.89214244441708" lon="14.650071502107178"><ele>1369.0</ele><time>2026-04-12T09:10:55.928Z</time></trkpt><trkpt lat="37.8920104972806" lon="14.6498928067661"><ele>1369.0</ele><time>2026-04-12T09:10:56.928Z</time></trkpt><trkpt lat="37.89190725573359" lon="14.649699283882502"><ele>1369.0</ele><time>2026-04-12T09:10:57.928Z</time></trkpt><trkpt lat="37.8918325009998" lon="14.64950555589735"><ele>1371.5</ele><time>2026-04-12T09:10:58.928Z</time></trkpt><trkpt lat="37.89181105710102" lon="14.64932373837992"><ele>1374.0</ele><time>2026-04-12T09:10:59.928Z</time></trkpt><trkpt lat="37.89180204120508" lon="14.649134846913613"><ele>1376.5</ele><time>2026-04-12T09:11:00.927Z</time></trkpt><trkpt lat="37.89174850987837" lon="14.648975310413745"><ele>1379.0</ele><time>2026-04-12T09:11:01.927Z</time></trkpt><trkpt lat="37.89170039201157" lon="14.64887684911125"><ele>1371.75</ele><time>2026-04-12T09:11:02.927Z</time></trkpt><trkpt lat="37.89156865897966" lon="14.648823618561886"><ele>1364.5</ele><time>2026-04-12T09:11:03.927Z</time></trkpt><trkpt lat="37.89141528214228" lon="14.648862243738527"><ele>1357.25</ele><time>2026-04-12T09:11:04.927Z</time></trkpt><trkpt lat="37.891278048626646" lon="14.648931557261406"><ele>1350.0</ele><time>2026-04-12T09:11:05.927Z</time></trkpt><trkpt lat="37.891186807266955" lon="14.64899757406808"><ele>1350.0</ele><time>2026-04-12T09:11:06.927Z</time></trkpt><trkpt lat="37.891120136168695" lon="14.649090884193424"><ele>1350.0</ele><time>2026-04-12T09:11:07.927Z</time></trkpt><trkpt lat="37.89112243650949" lon="14.649248980995933"><ele>1350.0</ele><time>2026-04-12T09:11:08.927Z</time></trkpt><trkpt lat="37.891112875002854" lon="14.649443970347578"><ele>1350.0</ele><time>2026-04-12T09:11:09.927Z</time></trkpt><trkpt lat="37.89108026855294" lon="14.649623787734713"><ele>1351.0</ele><time>2026-04-12T09:11:10.927Z</time></trkpt><trkpt lat="37.891002899307125" lon="14.64979129763449"><ele>1352.0</ele><time>2026-04-12T09:11:11.927Z</time></trkpt><trkpt lat="37.89093887843727" lon="14.649972742192164"><ele>1353.0</ele><time>2026-04-12T09:11:12.927Z</time></trkpt><trkpt lat="37.8909005272367" lon="14.650151174555905"><ele>1353.0</ele><time>2026-04-12T09:11:13.927Z</time></trkpt><trkpt lat="37.890842417284006" lon="14.650273870182325"><ele>1353.0</ele><time>2026-04-12T09:11:14.927Z</time></trkpt><trkpt lat="37.89075683695096" lon="14.650361854264041"><ele>1353.0</ele><time>2026-04-12T09:11:15.927Z</time></trkpt><trkpt lat="37.89063982427063" lon="14.650435239194328"><ele>1353.0</ele><time>2026-04-12T09:11:16.927Z</time></trkpt><trkpt lat="37.89050763615233" lon="14.650515463989532"><ele>1347.6666666666667</ele><time>2026-04-12T09:11:17.927Z</time></trkpt><trkpt lat="37.89037219875235" lon="14.650597024447993"><ele>1342.3333333333335</ele><time>2026-04-12T09:11:18.927Z</time></trkpt><trkpt lat="37.890262480701345" lon="14.650753507662222"><ele>1337.0</ele><time>2026-04-12T09:11:19.927Z</time></trkpt><trkpt lat="37.89019661797738" lon="14.65096412149143"><ele>1334.0</ele><time>2026-04-12T09:11:20.927Z</time></trkpt><trkpt lat="37.890133041545994" lon="14.651201136437557"><ele>1331.0</ele><time>2026-04-12T09:11:21.927Z</time></trkpt><trkpt lat="37.89006494295821" lon="14.651468580837072"><ele>1328.0</ele><time>2026-04-12T09:11:22.927Z</time></trkpt><trkpt lat="37.88999815339556" lon="14.651712174964228"><ele>1331.6666666666667</ele><time>2026-04-12T09:11:23.927Z</time></trkpt><trkpt lat="37.8899158819979" lon="14.651904873918156"><ele>1335.3333333333333</ele><time>2026-04-12T09:11:24.927Z</time></trkpt><trkpt lat="37.889783490816924" lon="14.652119131650185"><ele>1339.0</ele><time>2026-04-12T09:11:25.927Z</time></trkpt><trkpt lat="37.8896343906865" lon="14.652383713901907"><ele>1339.0</ele><time>2026-04-12T09:11:26.927Z</time></trkpt><trkpt lat="37.889508664343225" lon="14.652692349055071"><ele>1339.0</ele><time>2026-04-12T09:11:27.926Z</time></trkpt><trkpt lat="37.88942283398664" lon="14.652987403256517"><ele>1335.3333333333333</ele><time>2026-04-12T09:11:28.926Z</time></trkpt><trkpt lat="37.889356140337256" lon="14.653250062640954"><ele>1331.6666666666667</ele><time>2026-04-12T09:11:29.926Z</time></trkpt><trkpt lat="37.88930049761077" lon="14.653467262979584"><ele>1328.0</ele><time>2026-04-12T09:11:30.926Z</time></trkpt><trkpt lat="37.88924311888496" lon="14.653647160240325"><ele>1326.5</ele><time>2026-04-12T09:11:31.926Z</time></trkpt><trkpt lat="37.889187559344755" lon="14.653731678237158"><ele>1325.0</ele><time>2026-04-12T09:11:32.926Z</time></trkpt><trkpt lat="37.889095689638616" lon="14.653798842519782"><ele>1323.5</ele><time>2026-04-12T09:11:33.926Z</time></trkpt><trkpt lat="37.888971450373106" lon="14.65384159257955"><ele>1322.0</ele><time>2026-04-12T09:11:34.926Z</time></trkpt><trkpt lat="37.88881517125692" lon="14.653834817927642"><ele>1322.0</ele><time>2026-04-12T09:11:35.926Z</time></trkpt><trkpt lat="37.88865779536795" lon="14.653789719114275"><ele>1322.0</ele><time>2026-04-12T09:11:36.926Z</time></trkpt><trkpt lat="37.88851095851366" lon="14.65382565928948"><ele>1322.0</ele><time>2026-04-12T09:11:37.924Z</time></trkpt><trkpt lat="37.888369981186074" lon="14.653914855024581"><ele>1326.6666666666667</ele><time>2026-04-12T09:11:38.922Z</time></trkpt><trkpt lat="37.88822308302314" lon="14.654066519109415"><ele>1331.3333333333333</ele><time>2026-04-12T09:11:39.92Z</time></trkpt><trkpt lat="37.88806760833644" lon="14.65423826402487"><ele>1336.0</ele><time>2026-04-12T09:11:40.918Z</time></trkpt><trkpt lat="37.8879040946933" lon="14.654419570153733"><ele>1336.0</ele><time>2026-04-12T09:11:41.917Z</time></trkpt><trkpt lat="37.8877114889446" lon="14.654587727746913"><ele>1336.0</ele><time>2026-04-12T09:11:42.915Z</time></trkpt><trkpt lat="37.88751733713692" lon="14.65478094785896"><ele>1336.0</ele><time>2026-04-12T09:11:43.914Z</time></trkpt><trkpt lat="37.88731313199483" lon="14.654949765703902"><ele>1336.0</ele><time>2026-04-12T09:11:44.912Z</time></trkpt><trkpt lat="37.887123780013766" lon="14.655109000872155"><ele>1336.0</ele><time>2026-04-12T09:11:45.911Z</time></trkpt><trkpt lat="37.886944520032536" lon="14.65524225592566"><ele>1336.0</ele><time>2026-04-12T09:11:46.91Z</time></trkpt><trkpt lat="37.88681801263874" lon="14.65541741899364"><ele>1336.0</ele><time>2026-04-12T09:11:47.909Z</time></trkpt><trkpt lat="37.886713477696695" lon="14.65561676195993"><ele>1335.0</ele><time>2026-04-12T09:11:48.907Z</time></trkpt><trkpt lat="37.88665862304214" lon="14.655835514715944"><ele>1334.0</ele><time>2026-04-12T09:11:49.906Z</time></trkpt><trkpt lat="37.88655071429774" lon="14.655988494362537"><ele>1333.0</ele><time>2026-04-12T09:11:50.905Z</time></trkpt><trkpt lat="37.8864295799219" lon="14.656094275135239"><ele>1331.6666666666665</ele><time>2026-04-12T09:11:51.905Z</time></trkpt><trkpt lat="37.88630133067192" lon="14.656202569121291"><ele>1330.3333333333333</ele><time>2026-04-12T09:11:52.904Z</time></trkpt><trkpt lat="37.886108210151214" lon="14.656289589111953"><ele>1329.0</ele><time>2026-04-12T09:11:53.903Z</time></trkpt><trkpt lat="37.88589883356461" lon="14.65641016810625"><ele>1329.0</ele><time>2026-04-12T09:11:54.902Z</time></trkpt><trkpt lat="37.885701665900775" lon="14.656514190470794"><ele>1329.0</ele><time>2026-04-12T09:11:55.901Z</time></trkpt><trkpt lat="37.88552836789233" lon="14.656609474236694"><ele>1329.0</ele><time>2026-04-12T09:11:56.901Z</time></trkpt><trkpt lat="37.88538801556155" lon="14.656678096526566"><ele>1329.0</ele><time>2026-04-12T09:11:57.9Z</time></trkpt><trkpt lat="37.88525782731138" lon="14.656665507683305"><ele>1329.0</ele><time>2026-04-12T09:11:58.899Z</time></trkpt><trkpt lat="37.885119206882806" lon="14.656599162774063"><ele>1329.0</ele><time>2026-04-12T09:11:59.899Z</time></trkpt><trkpt lat="37.88495338332066" lon="14.656520828421998"><ele>1330.0</ele><time>2026-04-12T09:12:00.898Z</time></trkpt><trkpt lat="37.88482095371816" lon="14.656448714405343"><ele>1331.0</ele><time>2026-04-12T09:12:01.898Z</time></trkpt><trkpt lat="37.884706190439765" lon="14.65638840262466"><ele>1332.0</ele><time>2026-04-12T09:12:02.897Z</time></trkpt><trkpt lat="37.88461494503742" lon="14.65638794181573"><ele>1333.0</ele><time>2026-04-12T09:12:03.897Z</time></trkpt><trkpt lat="37.88453179523526" lon="14.656467882458742"><ele>1333.0</ele><time>2026-04-12T09:12:04.897Z</time></trkpt><trkpt lat="37.8844732566934" lon="14.656629747016577"><ele>1333.0</ele><time>2026-04-12T09:12:05.896Z</time></trkpt><trkpt lat="37.884446313313944" lon="14.656893936723227"><ele>1333.0</ele><time>2026-04-12T09:12:06.896Z</time></trkpt><trkpt lat="37.88444304534895" lon="14.657169934314087"><ele>1328.6666666666665</ele><time>2026-04-12T09:12:07.895Z</time></trkpt><trkpt lat="37.8844376307334" lon="14.657451167228894"><ele>1324.3333333333333</ele><time>2026-04-12T09:12:08.895Z</time></trkpt><trkpt lat="37.88439450595312" lon="14.657728418528675"><ele>1320.0</ele><time>2026-04-12T09:12:09.895Z</time></trkpt><trkpt lat="37.88437401264985" lon="14.657999811220487"><ele>1319.3333333333333</ele><time>2026-04-12T09:12:10.895Z</time></trkpt><trkpt lat="37.88435746158274" lon="14.65823334278451"><ele>1318.6666666666665</ele><time>2026-04-12T09:12:11.894Z</time></trkpt><trkpt lat="37.884379561672624" lon="14.65844577988792"><ele>1318.0</ele><time>2026-04-12T09:12:12.894Z</time></trkpt><trkpt lat="37.884451537712366" lon="14.658639287167338"><ele>1318.0</ele><time>2026-04-12T09:12:13.894Z</time></trkpt><trkpt lat="37.884509753812935" lon="14.658802096265422"><ele>1318.0</ele><time>2026-04-12T09:12:14.893Z</time></trkpt><trkpt lat="37.88452674719741" lon="14.658942656187115"><ele>1318.0</ele><time>2026-04-12T09:12:15.893Z</time></trkpt><trkpt lat="37.88447201390073" lon="14.659065299639435"><ele>1318.0</ele><time>2026-04-12T09:12:16.893Z</time></trkpt><trkpt lat="37.884369259708485" lon="14.659255206344774"><ele>1321.6666666666665</ele><time>2026-04-12T09:12:17.893Z</time></trkpt><trkpt lat="37.884247849990636" lon="14.659499519988321"><ele>1325.3333333333333</ele><time>2026-04-12T09:12:18.893Z</time></trkpt><trkpt lat="37.88413485542678" lon="14.65973200142937"><ele>1329.0</ele><time>2026-04-12T09:12:19.892Z</time></trkpt><trkpt lat="37.8840394794226" lon="14.659925419201903"><ele>1329.0</ele><time>2026-04-12T09:12:20.892Z</time></trkpt><trkpt lat="37.88394194468116" lon="14.660077628223641"><ele>1329.0</ele><time>2026-04-12T09:12:21.895Z</time></trkpt><trkpt lat="37.8838054800357" lon="14.660184520529"><ele>1329.0</ele><time>2026-04-12T09:12:22.895Z</time></trkpt><trkpt lat="37.88365358363731" lon="14.660249257715906"><ele>1329.0</ele><time>2026-04-12T09:12:23.895Z</time></trkpt><trkpt lat="37.88350809793239" lon="14.660234199970587"><ele>1329.0</ele><time>2026-04-12T09:12:24.895Z</time></trkpt><trkpt lat="37.88337141491751" lon="14.66017098936907"><ele>1329.0</ele><time>2026-04-12T09:12:25.894Z</time></trkpt><trkpt lat="37.88323930715325" lon="14.660065615362884"><ele>1329.0</ele><time>2026-04-12T09:12:26.894Z</time></trkpt><trkpt lat="37.883084711580366" lon="14.659960504905468"><ele>1330.3333333333333</ele><time>2026-04-12T09:12:27.895Z</time></trkpt><trkpt lat="37.88291376200748" lon="14.659907105876053"><ele>1331.6666666666665</ele><time>2026-04-12T09:12:28.894Z</time></trkpt><trkpt lat="37.8827327514823" lon="14.659923603773167"><ele>1333.0</ele><time>2026-04-12T09:12:29.894Z</time></trkpt><trkpt lat="37.882502894696465" lon="14.659993757612405"><ele>1333.0</ele><time>2026-04-12T09:12:30.894Z</time></trkpt><trkpt lat="37.882282481339224" lon="14.660040943325054"><ele>1333.0</ele><time>2026-04-12T09:12:31.894Z</time></trkpt><trkpt lat="37.88211429585895" lon="14.660046174644004"><ele>1333.0</ele><time>2026-04-12T09:12:32.893Z</time></trkpt><trkpt lat="37.88193155033325" lon="14.659980164536163"><ele>1331.6666666666665</ele><time>2026-04-12T09:12:33.894Z</time></trkpt><trkpt lat="37.88173866205986" lon="14.65990883702902"><ele>1330.3333333333333</ele><time>2026-04-12T09:12:34.894Z</time></trkpt><trkpt lat="37.881565912896185" lon="14.659843626536976"><ele>1329.0</ele><time>2026-04-12T09:12:35.894Z</time></trkpt><trkpt lat="37.88137448263821" lon="14.65977136413203"><ele>1329.0</ele><time>2026-04-12T09:12:36.894Z</time></trkpt><trkpt lat="37.88120366548654" lon="14.659712528405654"><ele>1329.0</ele><time>2026-04-12T09:12:37.894Z</time></trkpt><trkpt lat="37.88106275182013" lon="14.659708657685107"><ele>1329.0</ele><time>2026-04-12T09:12:38.894Z</time></trkpt><trkpt lat="37.88092050661599" lon="14.659761293460125"><ele>1329.3333333333333</ele><time>2026-04-12T09:12:39.894Z</time></trkpt><trkpt lat="37.88075610844641" lon="14.659895430933341"><ele>1329.6666666666665</ele><time>2026-04-12T09:12:40.894Z</time></trkpt><trkpt lat="37.88057493702657" lon="14.660014477391897"><ele>1330.0</ele><time>2026-04-12T09:12:41.894Z</time></trkpt><trkpt lat="37.88039534965858" lon="14.660122796027633"><ele>1330.0</ele><time>2026-04-12T09:12:42.893Z</time></trkpt><trkpt lat="37.88020588590397" lon="14.660243378135412"><ele>1330.0</ele><time>2026-04-12T09:12:43.893Z</time></trkpt><trkpt lat="37.88003034018226" lon="14.66038685377495"><ele>1330.0</ele><time>2026-04-12T09:12:44.893Z</time></trkpt><trkpt lat="37.879887478446065" lon="14.660590661512629"><ele>1330.6666666666665</ele><time>2026-04-12T09:12:45.893Z</time></trkpt><trkpt lat="37.879781379159404" lon="14.660781348922956"><ele>1331.3333333333333</ele><time>2026-04-12T09:12:46.893Z</time></trkpt><trkpt lat="37.87966396628335" lon="14.660928194241954"><ele>1332.0</ele><time>2026-04-12T09:12:47.893Z</time></trkpt><trkpt lat="37.87948377128963" lon="14.66099076063184"><ele>1332.0</ele><time>2026-04-12T09:12:48.893Z</time></trkpt><trkpt lat="37.87928225041386" lon="14.661071346198767"><ele>1332.0</ele><time>2026-04-12T09:12:49.893Z</time></trkpt><trkpt lat="37.87907150995238" lon="14.661112899939537"><ele>1332.0</ele><time>2026-04-12T09:12:50.893Z</time></trkpt><trkpt lat="37.87887131535811" lon="14.661183638223887"><ele>1332.0</ele><time>2026-04-12T09:12:51.893Z</time></trkpt><trkpt lat="37.87868138528414" lon="14.661254387610791"><ele>1332.0</ele><time>2026-04-12T09:12:52.893Z</time></trkpt><trkpt lat="37.87849950075799" lon="14.66131698354961"><ele>1332.0</ele><time>2026-04-12T09:12:53.893Z</time></trkpt><trkpt lat="37.87833164815087" lon="14.661363980121415"><ele>1332.0</ele><time>2026-04-12T09:12:54.893Z</time></trkpt><trkpt lat="37.87817603810915" lon="14.661413053605415"><ele>1332.0</ele><time>2026-04-12T09:12:55.893Z</time></trkpt><trkpt lat="37.878036253752484" lon="14.661521085255071"><ele>1332.0</ele><time>2026-04-12T09:12:56.893Z</time></trkpt><trkpt lat="37.87794186259037" lon="14.661733896462662"><ele>1327.0</ele><time>2026-04-12T09:12:57.892Z</time></trkpt><trkpt lat="37.87780359168177" lon="14.66201916831081"><ele>1322.0</ele><time>2026-04-12T09:12:58.892Z</time></trkpt><trkpt lat="37.87770610319582" lon="14.662313561676388"><ele>1323.6666666666667</ele><time>2026-04-12T09:12:59.892Z</time></trkpt><trkpt lat="37.87757180070551" lon="14.662558892195683"><ele>1325.3333333333333</ele><time>2026-04-12T09:13:00.892Z</time></trkpt><trkpt lat="37.8774421364788" lon="14.662772266463081"><ele>1327.0</ele><time>2026-04-12T09:13:01.892Z</time></trkpt><trkpt lat="37.87729446995364" lon="14.662954503287018"><ele>1327.0</ele><time>2026-04-12T09:13:02.892Z</time></trkpt><trkpt lat="37.87713609980963" lon="14.663121142947416"><ele>1327.0</ele><time>2026-04-12T09:13:03.892Z</time></trkpt><trkpt lat="37.87697756155044" lon="14.663281916298216"><ele>1327.0</ele><time>2026-04-12T09:13:04.892Z</time></trkpt><trkpt lat="37.876809454267665" lon="14.66343579182499"><ele>1327.6666666666665</ele><time>2026-04-12T09:13:05.892Z</time></trkpt><trkpt lat="37.8766396899713" lon="14.663602272529365"><ele>1328.3333333333333</ele><time>2026-04-12T09:13:06.892Z</time></trkpt><trkpt lat="37.876473671723886" lon="14.663796380922106"><ele>1329.0</ele><time>2026-04-12T09:13:07.892Z</time></trkpt><trkpt lat="37.876299462185266" lon="14.664004296947752"><ele>1329.0</ele><time>2026-04-12T09:13:08.892Z</time></trkpt><trkpt lat="37.876157291617815" lon="14.664239183195088"><ele>1329.0</ele><time>2026-04-12T09:13:09.892Z</time></trkpt><trkpt lat="37.876043700238306" lon="14.664458352536428"><ele>1329.0</ele><time>2026-04-12T09:13:10.892Z</time></trkpt><trkpt lat="37.87594377960183" lon="14.664650207071281"><ele>1331.6666666666667</ele><time>2026-04-12T09:13:11.892Z</time></trkpt><trkpt lat="37.87583707023544" lon="14.664825527773253"><ele>1334.3333333333335</ele><time>2026-04-12T09:13:12.892Z</time></trkpt><trkpt lat="37.87573878459723" lon="14.6650085155497"><ele>1337.0</ele><time>2026-04-12T09:13:13.892Z</time></trkpt><trkpt lat="37.87563387438795" lon="14.665198232031146"><ele>1333.0</ele><time>2026-04-12T09:13:14.892Z</time></trkpt><trkpt lat="37.87550714548712" lon="14.66537973260031"><ele>1329.0</ele><time>2026-04-12T09:13:15.892Z</time></trkpt><trkpt lat="37.8753855698075" lon="14.665585806466911"><ele>1325.0</ele><time>2026-04-12T09:13:16.892Z</time></trkpt><trkpt lat="37.875280034791146" lon="14.665806736641725"><ele>1325.0</ele><time>2026-04-12T09:13:17.891Z</time></trkpt><trkpt lat="37.875150644847814" lon="14.666006310758826"><ele>1325.0</ele><time>2026-04-12T09:13:18.891Z</time></trkpt><trkpt lat="37.875049608134496" lon="14.66619253431685"><ele>1325.0</ele><time>2026-04-12T09:13:19.891Z</time></trkpt><trkpt lat="37.874982650839996" lon="14.666395699026532"><ele>1325.0</ele><time>2026-04-12T09:13:20.891Z</time></trkpt><trkpt lat="37.874911367151334" lon="14.666605750544608"><ele>1325.0</ele><time>2026-04-12T09:13:21.891Z</time></trkpt><trkpt lat="37.87484033153046" lon="14.666801370834296"><ele>1325.0</ele><time>2026-04-12T09:13:22.891Z</time></trkpt><trkpt lat="37.874773447836006" lon="14.667011964378798"><ele>1325.0</ele><time>2026-04-12T09:13:23.891Z</time></trkpt><trkpt lat="37.874712055860826" lon="14.667216647007338"><ele>1325.0</ele><time>2026-04-12T09:13:24.891Z</time></trkpt><trkpt lat="37.87464338673097" lon="14.667405652881506"><ele>1325.0</ele><time>2026-04-12T09:13:25.891Z</time></trkpt><trkpt lat="37.874578619480054" lon="14.667578594571099"><ele>1325.0</ele><time>2026-04-12T09:13:26.891Z</time></trkpt><trkpt lat="37.87448658823909" lon="14.667710120187637"><ele>1325.0</ele><time>2026-04-12T09:13:27.891Z</time></trkpt><trkpt lat="37.874391242584025" lon="14.667782227748333"><ele>1325.0</ele><time>2026-04-12T09:13:28.891Z</time></trkpt><trkpt lat="37.874287032018884" lon="14.667813307732441"><ele>1325.0</ele><time>2026-04-12T09:13:29.891Z</time></trkpt><trkpt lat="37.87415050682797" lon="14.667863213610415"><ele>1325.25</ele><time>2026-04-12T09:13:30.891Z</time></trkpt><trkpt lat="37.874010196873606" lon="14.667932523063175"><ele>1325.5</ele><time>2026-04-12T09:13:31.891Z</time></trkpt><trkpt lat="37.87386555079413" lon="14.667958499829956"><ele>1325.75</ele><time>2026-04-12T09:13:32.891Z</time></trkpt><trkpt lat="37.873728044296385" lon="14.66801527048893"><ele>1326.0</ele><time>2026-04-12T09:13:33.891Z</time></trkpt><trkpt lat="37.87359608057056" lon="14.668059200791824"><ele>1326.0</ele><time>2026-04-12T09:13:34.891Z</time></trkpt><trkpt lat="37.873456131899026" lon="14.668112109067193"><ele>1326.0</ele><time>2026-04-12T09:13:35.891Z</time></trkpt><trkpt lat="37.87333265905959" lon="14.668163598328738"><ele>1326.0</ele><time>2026-04-12T09:13:36.891Z</time></trkpt><trkpt lat="37.873213092042384" lon="14.668206483503495"><ele>1326.0</ele><time>2026-04-12T09:13:37.891Z</time></trkpt><trkpt lat="37.873126850022096" lon="14.668304096868779"><ele>1325.6666666666667</ele><time>2026-04-12T09:13:38.891Z</time></trkpt><trkpt lat="37.87308239580341" lon="14.668468518384678"><ele>1325.3333333333335</ele><time>2026-04-12T09:13:39.89Z</time></trkpt><trkpt lat="37.87312303834191" lon="14.668653360535853"><ele>1325.0</ele><time>2026-04-12T09:13:40.89Z</time></trkpt><trkpt lat="37.873208531395264" lon="14.668826629021199"><ele>1325.0</ele><time>2026-04-12T09:13:41.89Z</time></trkpt><trkpt lat="37.87331562164529" lon="14.669001585410472"><ele>1325.0</ele><time>2026-04-12T09:13:42.89Z</time></trkpt><trkpt lat="37.87337728177585" lon="14.669188308987387"><ele>1325.0</ele><time>2026-04-12T09:13:43.89Z</time></trkpt><trkpt lat="37.87343477886793" lon="14.669351073829874"><ele>1324.5</ele><time>2026-04-12T09:13:44.89Z</time></trkpt><trkpt lat="37.873466709360876" lon="14.669491799627888"><ele>1324.0</ele><time>2026-04-12T09:13:45.89Z</time></trkpt><trkpt lat="37.87343218669666" lon="14.669617415057665"><ele>1323.5</ele><time>2026-04-12T09:13:46.89Z</time></trkpt><trkpt lat="37.873348156747575" lon="14.669734409758863"><ele>1323.0</ele><time>2026-04-12T09:13:47.89Z</time></trkpt><trkpt lat="37.87321474369037" lon="14.669927980798137"><ele>1323.0</ele><time>2026-04-12T09:13:48.89Z</time></trkpt><trkpt lat="37.87309520071459" lon="14.670107669595255"><ele>1323.0</ele><time>2026-04-12T09:13:49.89Z</time></trkpt><trkpt lat="37.87300178466293" lon="14.670277089998535"><ele>1323.0</ele><time>2026-04-12T09:13:50.89Z</time></trkpt><trkpt lat="37.872917294583736" lon="14.670431329513333"><ele>1321.0</ele><time>2026-04-12T09:13:51.89Z</time></trkpt><trkpt lat="37.872894919673385" lon="14.670629617296903"><ele>1319.0</ele><time>2026-04-12T09:13:52.89Z</time></trkpt><trkpt lat="37.872917044171736" lon="14.670858566727256"><ele>1317.0</ele><time>2026-04-12T09:13:53.89Z</time></trkpt><trkpt lat="37.87294935581427" lon="14.671098973947375"><ele>1316.0</ele><time>2026-04-12T09:13:54.89Z</time></trkpt><trkpt lat="37.87295332061045" lon="14.671318598844582"><ele>1315.0</ele><time>2026-04-12T09:13:55.89Z</time></trkpt><trkpt lat="37.87298307514868" lon="14.671513264229121"><ele>1314.0</ele><time>2026-04-12T09:13:56.89Z</time></trkpt><trkpt lat="37.87306669803375" lon="14.671671778365486"><ele>1314.0</ele><time>2026-04-12T09:13:57.89Z</time></trkpt><trkpt lat="37.87320205529835" lon="14.671830471286473"><ele>1314.0</ele><time>2026-04-12T09:13:58.89Z</time></trkpt><trkpt lat="37.873330377901254" lon="14.671977668435577"><ele>1314.0</ele><time>2026-04-12T09:13:59.89Z</time></trkpt><trkpt lat="37.873399080179375" lon="14.67214754873045"><ele>1313.75</ele><time>2026-04-12T09:14:00.89Z</time></trkpt><trkpt lat="37.873415238392816" lon="14.672310855052936"><ele>1313.5</ele><time>2026-04-12T09:14:01.889Z</time></trkpt><trkpt lat="37.8734049350724" lon="14.672486140655343"><ele>1313.25</ele><time>2026-04-12T09:14:02.889Z</time></trkpt><trkpt lat="37.87340406035325" lon="14.672711323462675"><ele>1313.0</ele><time>2026-04-12T09:14:03.889Z</time></trkpt><trkpt lat="37.87340365793116" lon="14.672984970540858"><ele>1311.0</ele><time>2026-04-12T09:14:04.889Z</time></trkpt><trkpt lat="37.873403261525894" lon="14.673276664326032"><ele>1309.0</ele><time>2026-04-12T09:14:05.889Z</time></trkpt><trkpt lat="37.87340483624877" lon="14.67355824115461"><ele>1307.0</ele><time>2026-04-12T09:14:06.889Z</time></trkpt><trkpt lat="37.87340533584025" lon="14.673806921344363"><ele>1305.0</ele><time>2026-04-12T09:14:07.889Z</time></trkpt><trkpt lat="37.873396967962584" lon="14.674018072727987"><ele>1303.0</ele><time>2026-04-12T09:14:08.889Z</time></trkpt><trkpt lat="37.87334493840656" lon="14.674176712916916"><ele>1303.0</ele><time>2026-04-12T09:14:09.889Z</time></trkpt><trkpt lat="37.87324619001463" lon="14.674344859220705"><ele>1303.0</ele><time>2026-04-12T09:14:10.889Z</time></trkpt><trkpt lat="37.873179571315845" lon="14.674572403186703"><ele>1303.0</ele><time>2026-04-12T09:14:11.889Z</time></trkpt><trkpt lat="37.87310573833892" lon="14.674767747551366"><ele>1301.0</ele><time>2026-04-12T09:14:12.889Z</time></trkpt><trkpt lat="37.87305224228144" lon="14.674937052874245"><ele>1299.0</ele><time>2026-04-12T09:14:13.889Z</time></trkpt><trkpt lat="37.872966107878796" lon="14.675026070083913"><ele>1297.0</ele><time>2026-04-12T09:14:14.889Z</time></trkpt><trkpt lat="37.87284908582826" lon="14.675074041431746"><ele>1295.0</ele><time>2026-04-12T09:14:15.889Z</time></trkpt><trkpt lat="37.87267776867992" lon="14.675120219753277"><ele>1293.3333333333335</ele><time>2026-04-12T09:14:16.889Z</time></trkpt><trkpt lat="37.87251693453771" lon="14.675241203575395"><ele>1291.6666666666667</ele><time>2026-04-12T09:14:17.889Z</time></trkpt><trkpt lat="37.87234691629021" lon="14.675404975004561"><ele>1290.0</ele><time>2026-04-12T09:14:18.889Z</time></trkpt><trkpt lat="37.872137831596" lon="14.675606230538303"><ele>1290.0</ele><time>2026-04-12T09:14:19.889Z</time></trkpt><trkpt lat="37.871938075082056" lon="14.675813030783978"><ele>1290.0</ele><time>2026-04-12T09:14:20.889Z</time></trkpt><trkpt lat="37.87173160785501" lon="14.675943742419"><ele>1292.0</ele><time>2026-04-12T09:14:21.889Z</time></trkpt><trkpt lat="37.87153302770149" lon="14.676051219846848"><ele>1294.0</ele><time>2026-04-12T09:14:22.889Z</time></trkpt><trkpt lat="37.871328328132115" lon="14.676145685765311"><ele>1296.0</ele><time>2026-04-12T09:14:23.889Z</time></trkpt><trkpt lat="37.87112320982639" lon="14.676241846018506"><ele>1292.0</ele><time>2026-04-12T09:14:24.888Z</time></trkpt><trkpt lat="37.87093326552195" lon="14.676330106880522"><ele>1288.0</ele><time>2026-04-12T09:14:25.888Z</time></trkpt><trkpt lat="37.870756472976694" lon="14.676432272163348"><ele>1284.0</ele><time>2026-04-12T09:14:26.888Z</time></trkpt><trkpt lat="37.87057964017863" lon="14.676509202290681"><ele>1284.0</ele><time>2026-04-12T09:14:27.891Z</time></trkpt><trkpt lat="37.87042428873507" lon="14.676565491249159"><ele>1284.0</ele><time>2026-04-12T09:14:28.891Z</time></trkpt><trkpt lat="37.87027694144597" lon="14.676629597787528"><ele>1284.0</ele><time>2026-04-12T09:14:29.891Z</time></trkpt><trkpt lat="37.87014474013236" lon="14.676676806429223"><ele>1283.25</ele><time>2026-04-12T09:14:30.89Z</time></trkpt><trkpt lat="37.87002617649756" lon="14.676677033882463"><ele>1282.5</ele><time>2026-04-12T09:14:31.891Z</time></trkpt><trkpt lat="37.869921851894006" lon="14.676633323295059"><ele>1281.75</ele><time>2026-04-12T09:14:32.89Z</time></trkpt><trkpt lat="37.86980899968931" lon="14.67654696640805"><ele>1281.0</ele><time>2026-04-12T09:14:33.891Z</time></trkpt><trkpt lat="37.86967439432656" lon="14.676458707525681"><ele>1281.0</ele><time>2026-04-12T09:14:34.89Z</time></trkpt><trkpt lat="37.86953303630136" lon="14.676364951676723"><ele>1281.0</ele><time>2026-04-12T09:14:35.89Z</time></trkpt><trkpt lat="37.86938423151741" lon="14.676265803537795"><ele>1281.0</ele><time>2026-04-12T09:14:36.891Z</time></trkpt><trkpt lat="37.869229236040084" lon="14.67616253049234"><ele>1282.4</ele><time>2026-04-12T09:14:37.891Z</time></trkpt><trkpt lat="37.869091498374345" lon="14.676065552442154"><ele>1283.8</ele><time>2026-04-12T09:14:38.891Z</time></trkpt><trkpt lat="37.86898187159774" lon="14.67601670135335"><ele>1285.2</ele><time>2026-04-12T09:14:39.891Z</time></trkpt><trkpt lat="37.868915551634714" lon="14.675972398649353"><ele>1286.6000000000001</ele><time>2026-04-12T09:14:40.891Z</time></trkpt><trkpt lat="37.8688448020627" lon="14.675992413717312"><ele>1288.0</ele><time>2026-04-12T09:14:41.891Z</time></trkpt><trkpt lat="37.86879723087987" lon="14.676084841633758"><ele>1283.75</ele><time>2026-04-12T09:14:42.891Z</time></trkpt><trkpt lat="37.86881671914373" lon="14.67621119667504"><ele>1279.5</ele><time>2026-04-12T09:14:43.891Z</time></trkpt><trkpt lat="37.868887072848885" lon="14.676321946474339"><ele>1275.25</ele><time>2026-04-12T09:14:44.891Z</time></trkpt><trkpt lat="37.869024850130316" lon="14.676422115740994"><ele>1271.0</ele><time>2026-04-12T09:14:45.891Z</time></trkpt><trkpt lat="37.86918777919728" lon="14.676527703919533"><ele>1270.6666666666667</ele><time>2026-04-12T09:14:46.891Z</time></trkpt><trkpt lat="37.86934209299996" lon="14.676676914247453"><ele>1270.3333333333333</ele><time>2026-04-12T09:14:47.891Z</time></trkpt><trkpt lat="37.869522436365045" lon="14.676831599401774"><ele>1270.0</ele><time>2026-04-12T09:14:48.891Z</time></trkpt><trkpt lat="37.86970629168474" lon="14.67700026166508"><ele>1270.0</ele><time>2026-04-12T09:14:49.891Z</time></trkpt><trkpt lat="37.86985850454072" lon="14.677195535444678"><ele>1270.0</ele><time>2026-04-12T09:14:50.891Z</time></trkpt><trkpt lat="37.869964211265874" lon="14.677413260287327"><ele>1270.0</ele><time>2026-04-12T09:14:51.891Z</time></trkpt><trkpt lat="37.870067856875444" lon="14.677670692114804"><ele>1264.0</ele><time>2026-04-12T09:14:52.89Z</time></trkpt><trkpt lat="37.87017628995087" lon="14.677943877950396"><ele>1258.0</ele><time>2026-04-12T09:14:53.89Z</time></trkpt><trkpt lat="37.87028606974567" lon="14.67825094408349"><ele>1258.0</ele><time>2026-04-12T09:14:54.89Z</time></trkpt><trkpt lat="37.87041698077653" lon="14.678561557821157"><ele>1258.0</ele><time>2026-04-12T09:14:55.89Z</time></trkpt><trkpt lat="37.870552931513814" lon="14.678891643852248"><ele>1257.0</ele><time>2026-04-12T09:14:56.89Z</time></trkpt><trkpt lat="37.870707681530256" lon="14.679237106960684"><ele>1256.0</ele><time>2026-04-12T09:14:57.89Z</time></trkpt><trkpt lat="37.870846140531" lon="14.679611721455384"><ele>1250.0</ele><time>2026-04-12T09:14:58.89Z</time></trkpt><trkpt lat="37.87098684700295" lon="14.679961720737415"><ele>1244.0</ele><time>2026-04-12T09:14:59.89Z</time></trkpt><trkpt lat="37.87111408368858" lon="14.680278214594889"><ele>1244.0</ele><time>2026-04-12T09:15:00.89Z</time></trkpt><trkpt lat="37.87121158758519" lon="14.68052549888183"><ele>1244.0</ele><time>2026-04-12T09:15:01.89Z</time></trkpt><trkpt lat="37.871280881621566" lon="14.680714506856075"><ele>1244.0</ele><time>2026-04-12T09:15:02.89Z</time></trkpt><trkpt lat="37.87131429121572" lon="14.68089020586965"><ele>1244.0</ele><time>2026-04-12T09:15:03.89Z</time></trkpt><trkpt lat="37.87128934663691" lon="14.681070447348993"><ele>1244.0</ele><time>2026-04-12T09:15:04.89Z</time></trkpt><trkpt lat="37.87123489669989" lon="14.681242926994392"><ele>1244.0</ele><time>2026-04-12T09:15:05.89Z</time></trkpt><trkpt lat="37.871127590785775" lon="14.681401574135132"><ele>1245.0</ele><time>2026-04-12T09:15:06.89Z</time></trkpt><trkpt lat="37.870971937511996" lon="14.681500259162197"><ele>1246.0</ele><time>2026-04-12T09:15:07.89Z</time></trkpt><trkpt lat="37.870779414114565" lon="14.681588415537856"><ele>1247.0</ele><time>2026-04-12T09:15:08.89Z</time></trkpt><trkpt lat="37.87060082687578" lon="14.681672558027106"><ele>1247.0</ele><time>2026-04-12T09:15:09.89Z</time></trkpt><trkpt lat="37.8704584793431" lon="14.681751208639625"><ele>1247.0</ele><time>2026-04-12T09:15:10.89Z</time></trkpt><trkpt lat="37.87035256549873" lon="14.681873095799912"><ele>1247.0</ele><time>2026-04-12T09:15:11.89Z</time></trkpt><trkpt lat="37.87031355886895" lon="14.682060043888212"><ele>1243.3333333333335</ele><time>2026-04-12T09:15:12.89Z</time></trkpt><trkpt lat="37.87030660835183" lon="14.6822444696207"><ele>1239.6666666666667</ele><time>2026-04-12T09:15:13.89Z</time></trkpt><trkpt lat="37.8702586453516" lon="14.68243597645909"><ele>1236.0</ele><time>2026-04-12T09:15:14.89Z</time></trkpt><trkpt lat="37.87011935702338" lon="14.682593118767894"><ele>1235.0</ele><time>2026-04-12T09:15:15.889Z</time></trkpt><trkpt lat="37.869942908545944" lon="14.682784153075579"><ele>1234.0</ele><time>2026-04-12T09:15:16.889Z</time></trkpt><trkpt lat="37.86977364225408" lon="14.682947358716474"><ele>1233.0</ele><time>2026-04-12T09:15:17.889Z</time></trkpt><trkpt lat="37.86958758495942" lon="14.683055680853393"><ele>1233.0</ele><time>2026-04-12T09:15:18.889Z</time></trkpt><trkpt lat="37.86938277645477" lon="14.683149619555328"><ele>1233.0</ele><time>2026-04-12T09:15:19.889Z</time></trkpt><trkpt lat="37.869187804919335" lon="14.683244313002332"><ele>1233.0</ele><time>2026-04-12T09:15:20.889Z</time></trkpt><trkpt lat="37.869014449615044" lon="14.683335576439896"><ele>1234.5</ele><time>2026-04-12T09:15:21.889Z</time></trkpt><trkpt lat="37.86888740938503" lon="14.683459351721337"><ele>1236.0</ele><time>2026-04-12T09:15:22.889Z</time></trkpt><trkpt lat="37.868796743683674" lon="14.683584098657189"><ele>1237.5</ele><time>2026-04-12T09:15:23.889Z</time></trkpt><trkpt lat="37.86876426710634" lon="14.683766257673962"><ele>1239.0</ele><time>2026-04-12T09:15:24.889Z</time></trkpt><trkpt lat="37.868750935883604" lon="14.683922814491222"><ele>1236.4</ele><time>2026-04-12T09:15:25.889Z</time></trkpt><trkpt lat="37.868754644939614" lon="14.684032422913942"><ele>1233.8000000000002</ele><time>2026-04-12T09:15:26.889Z</time></trkpt><trkpt lat="37.868723036262445" lon="14.684150427251618"><ele>1231.1999999999998</ele><time>2026-04-12T09:15:28.889Z</time></trkpt><trkpt lat="37.86868208124241" lon="14.68421174785798"><ele>1228.6</ele><time>2026-04-12T09:15:30.889Z</time></trkpt><trkpt lat="37.868692477653425" lon="14.684367615142653"><ele>1226.0</ele><time>2026-04-12T09:17:26.887Z</time></trkpt><trkpt lat="37.86849126067933" lon="14.684427937886088"><ele>1226.0</ele><time>2026-04-12T09:17:27.887Z</time></trkpt><trkpt lat="37.868411920216865" lon="14.68449618677832"><ele>1226.0</ele><time>2026-04-12T09:17:28.887Z</time></trkpt><trkpt lat="37.868325018361794" lon="14.68457309181491"><ele>1226.0</ele><time>2026-04-12T09:17:29.887Z</time></trkpt><trkpt lat="37.868211945019546" lon="14.684647425109235"><ele>1226.0</ele><time>2026-04-12T09:17:30.887Z</time></trkpt><trkpt lat="37.86812058675731" lon="14.68474988878218"><ele>1226.0</ele><time>2026-04-12T09:17:31.887Z</time></trkpt><trkpt lat="37.86802469837671" lon="14.684829494779104"><ele>1226.0</ele><time>2026-04-12T09:17:32.887Z</time></trkpt><trkpt lat="37.86793244532736" lon="14.68490895800789"><ele>1226.0</ele><time>2026-04-12T09:17:33.886Z</time></trkpt><trkpt lat="37.86786270038046" lon="14.685002048211135"><ele>1226.0</ele><time>2026-04-12T09:17:34.886Z</time></trkpt><trkpt lat="37.86782503805188" lon="14.685112224968021"><ele>1226.0</ele><time>2026-04-12T09:17:35.886Z</time></trkpt><trkpt lat="37.86787601608106" lon="14.685268818217004"><ele>1225.5</ele><time>2026-04-12T09:17:36.886Z</time></trkpt><trkpt lat="37.86798807672957" lon="14.685396724889339"><ele>1225.0</ele><time>2026-04-12T09:17:37.886Z</time></trkpt><trkpt lat="37.86808904358651" lon="14.685516205025563"><ele>1224.5</ele><time>2026-04-12T09:17:38.886Z</time></trkpt><trkpt lat="37.868163555585554" lon="14.685629847487114"><ele>1224.0</ele><time>2026-04-12T09:17:39.886Z</time></trkpt><trkpt lat="37.86821884460502" lon="14.685751321865958"><ele>1224.0</ele><time>2026-04-12T09:17:40.886Z</time></trkpt><trkpt lat="37.86821870840662" lon="14.685886545462514"><ele>1224.0</ele><time>2026-04-12T09:17:41.886Z</time></trkpt><trkpt lat="37.868158859909315" lon="14.686006446963697"><ele>1224.0</ele><time>2026-04-12T09:17:42.886Z</time></trkpt><trkpt lat="37.86803377919587" lon="14.68608730405315"><ele>1224.0</ele><time>2026-04-12T09:17:43.886Z</time></trkpt><trkpt lat="37.86793668658359" lon="14.686252614362944"><ele>1224.6666666666667</ele><time>2026-04-12T09:17:44.886Z</time></trkpt><trkpt lat="37.867848842970474" lon="14.686451327965033"><ele>1225.3333333333335</ele><time>2026-04-12T09:17:45.886Z</time></trkpt><trkpt lat="37.8677363262962" lon="14.686654228087361"><ele>1226.0</ele><time>2026-04-12T09:17:46.886Z</time></trkpt><trkpt lat="37.86765679857133" lon="14.68685265509362"><ele>1221.25</ele><time>2026-04-12T09:17:47.886Z</time></trkpt><trkpt lat="37.86757837796599" lon="14.687011680160563"><ele>1216.5</ele><time>2026-04-12T09:17:48.886Z</time></trkpt><trkpt lat="37.86752526447933" lon="14.687150155228684"><ele>1211.75</ele><time>2026-04-12T09:17:49.886Z</time></trkpt><trkpt lat="37.867515271356076" lon="14.687321048393565"><ele>1207.0</ele><time>2026-04-12T09:17:50.886Z</time></trkpt><trkpt lat="37.867571844647955" lon="14.687539324547387"><ele>1212.3333333333333</ele><time>2026-04-12T09:17:51.886Z</time></trkpt><trkpt lat="37.867667289564544" lon="14.687745007537893"><ele>1217.6666666666667</ele><time>2026-04-12T09:17:52.886Z</time></trkpt><trkpt lat="37.86771321853352" lon="14.687933001970416"><ele>1223.0</ele><time>2026-04-12T09:17:53.886Z</time></trkpt><trkpt lat="37.867741382512946" lon="14.688074146660144"><ele>1223.0</ele><time>2026-04-12T09:17:54.886Z</time></trkpt><trkpt lat="37.867751099213926" lon="14.688189618370547"><ele>1223.0</ele><time>2026-04-12T09:17:55.886Z</time></trkpt><trkpt lat="37.867661779199416" lon="14.688275511422052"><ele>1223.0</ele><time>2026-04-12T09:17:56.885Z</time></trkpt><trkpt lat="37.86752653996468" lon="14.688337068529476"><ele>1223.0</ele><time>2026-04-12T09:17:57.885Z</time></trkpt><trkpt lat="37.867383428568985" lon="14.68846493884816"><ele>1219.3333333333335</ele><time>2026-04-12T09:17:58.885Z</time></trkpt><trkpt lat="37.86722435780289" lon="14.688568619586567"><ele>1215.6666666666667</ele><time>2026-04-12T09:17:59.885Z</time></trkpt><trkpt lat="37.86707922466559" lon="14.688668821390387"><ele>1212.0</ele><time>2026-04-12T09:18:00.885Z</time></trkpt><trkpt lat="37.86697337220784" lon="14.688770039244583"><ele>1212.0</ele><time>2026-04-12T09:18:01.885Z</time></trkpt><trkpt lat="37.866890360914645" lon="14.688898382645823"><ele>1212.0</ele><time>2026-04-12T09:18:02.885Z</time></trkpt><trkpt lat="37.866864797839874" lon="14.689105661714427"><ele>1212.0</ele><time>2026-04-12T09:18:03.885Z</time></trkpt><trkpt lat="37.86686210452252" lon="14.689353761506425"><ele>1213.6666666666667</ele><time>2026-04-12T09:18:04.885Z</time></trkpt><trkpt lat="37.86681885943213" lon="14.689575092442587"><ele>1215.3333333333335</ele><time>2026-04-12T09:18:05.885Z</time></trkpt><trkpt lat="37.86678820190879" lon="14.689781314663861"><ele>1217.0</ele><time>2026-04-12T09:18:06.885Z</time></trkpt><trkpt lat="37.86674641194652" lon="14.689948899747282"><ele>1214.0</ele><time>2026-04-12T09:18:07.885Z</time></trkpt><trkpt lat="37.866667138280015" lon="14.69007171501546"><ele>1211.0</ele><time>2026-04-12T09:18:08.885Z</time></trkpt><trkpt lat="37.86654290220913" lon="14.690165292602348"><ele>1208.0</ele><time>2026-04-12T09:18:09.885Z</time></trkpt><trkpt lat="37.86638565130946" lon="14.690286545657791"><ele>1208.0</ele><time>2026-04-12T09:18:10.885Z</time></trkpt><trkpt lat="37.866223170653996" lon="14.690409413617674"><ele>1208.0</ele><time>2026-04-12T09:18:11.885Z</time></trkpt><trkpt lat="37.86605828347912" lon="14.690548448237264"><ele>1208.0</ele><time>2026-04-12T09:18:12.885Z</time></trkpt><trkpt lat="37.86586493449494" lon="14.690602501340486"><ele>1203.3333333333335</ele><time>2026-04-12T09:18:13.885Z</time></trkpt><trkpt lat="37.86565705672029" lon="14.690655502605777"><ele>1198.6666666666667</ele><time>2026-04-12T09:18:14.885Z</time></trkpt><trkpt lat="37.86546779838131" lon="14.690716889248668"><ele>1194.0</ele><time>2026-04-12T09:18:15.885Z</time></trkpt><trkpt lat="37.86531267499686" lon="14.690747297283673"><ele>1194.0</ele><time>2026-04-12T09:18:16.885Z</time></trkpt><trkpt lat="37.865174019585" lon="14.69081373295517"><ele>1194.0</ele><time>2026-04-12T09:18:17.885Z</time></trkpt><trkpt lat="37.8650431357856" lon="14.690946759988744"><ele>1194.0</ele><time>2026-04-12T09:18:18.884Z</time></trkpt><trkpt lat="37.86493187634902" lon="14.69114909902575"><ele>1191.6666666666667</ele><time>2026-04-12T09:18:19.884Z</time></trkpt><trkpt lat="37.86482817130515" lon="14.69133274670114"><ele>1189.3333333333335</ele><time>2026-04-12T09:18:20.884Z</time></trkpt><trkpt lat="37.86475236836169" lon="14.69151455629253"><ele>1187.0</ele><time>2026-04-12T09:18:21.884Z</time></trkpt><trkpt lat="37.864706000679526" lon="14.691733672006835"><ele>1188.3333333333335</ele><time>2026-04-12T09:18:22.884Z</time></trkpt><trkpt lat="37.864685264672424" lon="14.691987844485064"><ele>1189.6666666666667</ele><time>2026-04-12T09:18:23.884Z</time></trkpt><trkpt lat="37.86464381967518" lon="14.69220985981698"><ele>1191.0</ele><time>2026-04-12T09:18:24.884Z</time></trkpt><trkpt lat="37.864607378194734" lon="14.6923587846534"><ele>1191.0</ele><time>2026-04-12T09:18:25.884Z</time></trkpt><trkpt lat="37.86455255719116" lon="14.69246793879598"><ele>1191.0</ele><time>2026-04-12T09:18:26.884Z</time></trkpt><trkpt lat="37.86445922398191" lon="14.692511286939029"><ele>1191.0</ele><time>2026-04-12T09:18:27.884Z</time></trkpt><trkpt lat="37.864346771424174" lon="14.692486244017037"><ele>1191.0</ele><time>2026-04-12T09:18:28.884Z</time></trkpt><trkpt lat="37.86421970927829" lon="14.69239595936621"><ele>1188.3333333333333</ele><time>2026-04-12T09:18:29.884Z</time></trkpt><trkpt lat="37.864061079584786" lon="14.69230954151491"><ele>1185.6666666666665</ele><time>2026-04-12T09:18:30.884Z</time></trkpt><trkpt lat="37.86390404532752" lon="14.69223498480444"><ele>1183.0</ele><time>2026-04-12T09:18:31.884Z</time></trkpt><trkpt lat="37.86374878114347" lon="14.692158904655207"><ele>1183.0</ele><time>2026-04-12T09:18:32.884Z</time></trkpt><trkpt lat="37.86355915707756" lon="14.69215032768987"><ele>1183.0</ele><time>2026-04-12T09:18:33.884Z</time></trkpt><trkpt lat="37.86335976695463" lon="14.692157738057855"><ele>1183.0</ele><time>2026-04-12T09:18:34.884Z</time></trkpt><trkpt lat="37.8631489228504" lon="14.692188635474048"><ele>1184.75</ele><time>2026-04-12T09:18:35.884Z</time></trkpt><trkpt lat="37.86297870000204" lon="14.69220660781517"><ele>1186.5</ele><time>2026-04-12T09:18:36.884Z</time></trkpt><trkpt lat="37.86285192006603" lon="14.692216104027667"><ele>1188.25</ele><time>2026-04-12T09:18:37.884Z</time></trkpt><trkpt lat="37.862739790648384" lon="14.692281873489632"><ele>1190.0</ele><time>2026-04-12T09:18:38.884Z</time></trkpt><trkpt lat="37.862667717198896" lon="14.692417628010698"><ele>1190.0</ele><time>2026-04-12T09:18:39.887Z</time></trkpt><trkpt lat="37.862651188686705" lon="14.692604315971591"><ele>1190.0</ele><time>2026-04-12T09:18:40.887Z</time></trkpt><trkpt lat="37.86267308929285" lon="14.692793563820866"><ele>1190.0</ele><time>2026-04-12T09:18:41.887Z</time></trkpt><trkpt lat="37.862676689080935" lon="14.693003692578905"><ele>1194.6666666666667</ele><time>2026-04-12T09:18:42.887Z</time></trkpt><trkpt lat="37.862691894370855" lon="14.693232178441148"><ele>1199.3333333333333</ele><time>2026-04-12T09:18:43.886Z</time></trkpt><trkpt lat="37.86267861083899" lon="14.693462862652705"><ele>1204.0</ele><time>2026-04-12T09:18:44.886Z</time></trkpt><trkpt lat="37.86267490267699" lon="14.693678473912751"><ele>1205.0</ele><time>2026-04-12T09:18:45.886Z</time></trkpt><trkpt lat="37.862671735770434" lon="14.69385280964577"><ele>1206.0</ele><time>2026-04-12T09:18:46.886Z</time></trkpt><trkpt lat="37.86262168901243" lon="14.693976673426068"><ele>1207.0</ele><time>2026-04-12T09:18:47.886Z</time></trkpt><trkpt lat="37.86251870265986" lon="14.694012050132695"><ele>1208.0</ele><time>2026-04-12T09:18:48.886Z</time></trkpt><trkpt lat="37.862433006237836" lon="14.693982979746893"><ele>1209.0</ele><time>2026-04-12T09:18:49.887Z</time></trkpt><trkpt lat="37.862305619155016" lon="14.693958229024629"><ele>1205.3333333333333</ele><time>2026-04-12T09:18:50.887Z</time></trkpt><trkpt lat="37.862158874183145" lon="14.693974785026205"><ele>1201.6666666666665</ele><time>2026-04-12T09:18:51.887Z</time></trkpt><trkpt lat="37.86200818485183" lon="14.694058516182768"><ele>1198.0</ele><time>2026-04-12T09:18:52.887Z</time></trkpt><trkpt lat="37.86184967149625" lon="14.694125125828064"><ele>1199.0</ele><time>2026-04-12T09:18:53.887Z</time></trkpt><trkpt lat="37.861679833068386" lon="14.694146772778938"><ele>1200.0</ele><time>2026-04-12T09:18:54.887Z</time></trkpt><trkpt lat="37.86153234967077" lon="14.694079621149477"><ele>1201.0</ele><time>2026-04-12T09:18:55.886Z</time></trkpt><trkpt lat="37.86133686599361" lon="14.693996579730298"><ele>1201.0</ele><time>2026-04-12T09:18:56.886Z</time></trkpt><trkpt lat="37.861144137056144" lon="14.693943841935008"><ele>1201.0</ele><time>2026-04-12T09:18:57.886Z</time></trkpt><trkpt lat="37.86095133793911" lon="14.69394012942418"><ele>1201.0</ele><time>2026-04-12T09:18:58.886Z</time></trkpt><trkpt lat="37.86078043004608" lon="14.693983004032871"><ele>1202.0</ele><time>2026-04-12T09:18:59.886Z</time></trkpt><trkpt lat="37.86065281470923" lon="14.694090053352264"><ele>1203.0</ele><time>2026-04-12T09:19:00.886Z</time></trkpt><trkpt lat="37.86050601997204" lon="14.694216616022988"><ele>1204.0</ele><time>2026-04-12T09:19:01.886Z</time></trkpt><trkpt lat="37.860354914881896" lon="14.694273949149599"><ele>1204.0</ele><time>2026-04-12T09:19:02.886Z</time></trkpt><trkpt lat="37.86020931948562" lon="14.694250614626966"><ele>1204.0</ele><time>2026-04-12T09:19:03.886Z</time></trkpt><trkpt lat="37.85999808737246" lon="14.694241318917875"><ele>1204.0</ele><time>2026-04-12T09:19:04.886Z</time></trkpt><trkpt lat="37.85980204782727" lon="14.69429419477854"><ele>1202.0</ele><time>2026-04-12T09:19:05.886Z</time></trkpt><trkpt lat="37.85959346459154" lon="14.694401756460609"><ele>1200.0</ele><time>2026-04-12T09:19:06.886Z</time></trkpt><trkpt lat="37.85936210309316" lon="14.694493971492848"><ele>1207.6666666666667</ele><time>2026-04-12T09:19:07.886Z</time></trkpt><trkpt lat="37.85912657753703" lon="14.69460189919125"><ele>1215.3333333333335</ele><time>2026-04-12T09:19:08.886Z</time></trkpt><trkpt lat="37.85894505867748" lon="14.694695752187332"><ele>1223.0</ele><time>2026-04-12T09:19:09.886Z</time></trkpt><trkpt lat="37.85883079891161" lon="14.694807540618715"><ele>1223.0</ele><time>2026-04-12T09:19:10.886Z</time></trkpt><trkpt lat="37.85873580210589" lon="14.69493036045888"><ele>1223.0</ele><time>2026-04-12T09:19:11.886Z</time></trkpt><trkpt lat="37.8586581281404" lon="14.695110195915468"><ele>1223.0</ele><time>2026-04-12T09:19:12.886Z</time></trkpt><trkpt lat="37.858527845879905" lon="14.695261446612092"><ele>1225.3333333333335</ele><time>2026-04-12T09:19:13.886Z</time></trkpt><trkpt lat="37.8583839964458" lon="14.695336498614026"><ele>1227.6666666666667</ele><time>2026-04-12T09:19:14.886Z</time></trkpt><trkpt lat="37.858217759805335" lon="14.695412876181777"><ele>1230.0</ele><time>2026-04-12T09:19:15.886Z</time></trkpt><trkpt lat="37.85809786797504" lon="14.695516040628812"><ele>1230.0</ele><time>2026-04-12T09:19:16.886Z</time></trkpt><trkpt lat="37.85800796808074" lon="14.695655688849222"><ele>1230.0</ele><time>2026-04-12T09:19:17.886Z</time></trkpt><trkpt lat="37.85796141579045" lon="14.695819339482327"><ele>1230.0</ele><time>2026-04-12T09:19:18.885Z</time></trkpt><trkpt lat="37.85793617912902" lon="14.696036454148265"><ele>1234.3333333333333</ele><time>2026-04-12T09:19:19.885Z</time></trkpt><trkpt lat="37.85787215910765" lon="14.69624980450294"><ele>1238.6666666666665</ele><time>2026-04-12T09:19:20.885Z</time></trkpt><trkpt lat="37.85780695329197" lon="14.696475155238858"><ele>1243.0</ele><time>2026-04-12T09:19:21.885Z</time></trkpt><trkpt lat="37.85773863671881" lon="14.696694078553755"><ele>1243.0</ele><time>2026-04-12T09:19:22.885Z</time></trkpt><trkpt lat="37.85768438276028" lon="14.69690471567197"><ele>1243.0</ele><time>2026-04-12T09:19:23.885Z</time></trkpt><trkpt lat="37.85757160913728" lon="14.69702523763768"><ele>1243.0</ele><time>2026-04-12T09:19:24.885Z</time></trkpt><trkpt lat="37.85743800183067" lon="14.69710517150347"><ele>1239.6666666666665</ele><time>2026-04-12T09:19:25.885Z</time></trkpt><trkpt lat="37.85728509749553" lon="14.697203985839538"><ele>1236.3333333333333</ele><time>2026-04-12T09:19:26.885Z</time></trkpt><trkpt lat="37.857146697039695" lon="14.697288717327819"><ele>1233.0</ele><time>2026-04-12T09:19:27.885Z</time></trkpt><trkpt lat="37.85703131070698" lon="14.69736205739192"><ele>1233.0</ele><time>2026-04-12T09:19:28.885Z</time></trkpt><trkpt lat="37.85694079255866" lon="14.697465052439245"><ele>1233.0</ele><time>2026-04-12T09:19:29.885Z</time></trkpt><trkpt lat="37.85690637431784" lon="14.697614270517777"><ele>1233.0</ele><time>2026-04-12T09:19:30.885Z</time></trkpt><trkpt lat="37.85690036722738" lon="14.697790214757875"><ele>1233.0</ele><time>2026-04-12T09:19:31.885Z</time></trkpt><trkpt lat="37.85686725278241" lon="14.697947869966216"><ele>1231.75</ele><time>2026-04-12T09:19:32.885Z</time></trkpt><trkpt lat="37.85678605885205" lon="14.698077587388553"><ele>1230.5</ele><time>2026-04-12T09:19:33.885Z</time></trkpt><trkpt lat="37.85664081639472" lon="14.698133765234353"><ele>1229.25</ele><time>2026-04-12T09:19:34.885Z</time></trkpt><trkpt lat="37.856504181956126" lon="14.698209870881037"><ele>1228.0</ele><time>2026-04-12T09:19:35.885Z</time></trkpt><trkpt lat="37.8563987158408" lon="14.698291222345835"><ele>1228.0</ele><time>2026-04-12T09:19:36.885Z</time></trkpt><trkpt lat="37.856283589343626" lon="14.698365146247594"><ele>1228.0</ele><time>2026-04-12T09:19:37.885Z</time></trkpt><trkpt lat="37.856160653653795" lon="14.698429977118083"><ele>1228.0</ele><time>2026-04-12T09:19:38.885Z</time></trkpt><trkpt lat="37.85602628732724" lon="14.698431135149532"><ele>1228.0</ele><time>2026-04-12T09:19:39.885Z</time></trkpt><trkpt lat="37.85590475562112" lon="14.698423542631312"><ele>1227.25</ele><time>2026-04-12T09:19:40.884Z</time></trkpt><trkpt lat="37.85578327804811" lon="14.698416936932295"><ele>1226.5</ele><time>2026-04-12T09:19:41.884Z</time></trkpt><trkpt lat="37.85564639270183" lon="14.69842682526762"><ele>1225.75</ele><time>2026-04-12T09:19:42.884Z</time></trkpt><trkpt lat="37.85548616446896" lon="14.698402939921701"><ele>1225.0</ele><time>2026-04-12T09:19:43.884Z</time></trkpt><trkpt lat="37.85534861078305" lon="14.698398379152684"><ele>1225.0</ele><time>2026-04-12T09:19:44.884Z</time></trkpt><trkpt lat="37.85523973198777" lon="14.698324505680315"><ele>1225.0</ele><time>2026-04-12T09:19:45.884Z</time></trkpt><trkpt lat="37.85519086725934" lon="14.69820151888505"><ele>1225.0</ele><time>2026-04-12T09:19:46.884Z</time></trkpt><trkpt lat="37.85511177728919" lon="14.698066441485784"><ele>1225.0</ele><time>2026-04-12T09:19:47.884Z</time></trkpt><trkpt lat="37.85501141368297" lon="14.697980739961428"><ele>1226.0</ele><time>2026-04-12T09:19:48.884Z</time></trkpt><trkpt lat="37.85488273409406" lon="14.697940738431479"><ele>1227.0</ele><time>2026-04-12T09:19:49.884Z</time></trkpt><trkpt lat="37.85472151533342" lon="14.697945401446297"><ele>1228.0</ele><time>2026-04-12T09:19:50.884Z</time></trkpt><trkpt lat="37.85453277491751" lon="14.697954832024049"><ele>1228.0</ele><time>2026-04-12T09:19:51.884Z</time></trkpt><trkpt lat="37.85436602481798" lon="14.69786912719861"><ele>1228.0</ele><time>2026-04-12T09:19:52.884Z</time></trkpt><trkpt lat="37.85419814338983" lon="14.697737765238085"><ele>1228.0</ele><time>2026-04-12T09:19:53.884Z</time></trkpt><trkpt lat="37.854020402422094" lon="14.697575385925548"><ele>1222.0</ele><time>2026-04-12T09:19:54.884Z</time></trkpt><trkpt lat="37.853866356169895" lon="14.697374705379525"><ele>1216.0</ele><time>2026-04-12T09:19:55.884Z</time></trkpt><trkpt lat="37.85371708629131" lon="14.697171490964957"><ele>1210.0</ele><time>2026-04-12T09:19:56.884Z</time></trkpt><trkpt lat="37.85356605670983" lon="14.69699077348699"><ele>1206.6666666666665</ele><time>2026-04-12T09:19:57.884Z</time></trkpt><trkpt lat="37.853470787391004" lon="14.696779749820442"><ele>1203.3333333333333</ele><time>2026-04-12T09:19:58.884Z</time></trkpt><trkpt lat="37.85338362069707" lon="14.6965801675927"><ele>1200.0</ele><time>2026-04-12T09:19:59.884Z</time></trkpt><trkpt lat="37.85331056258368" lon="14.696401968955447"><ele>1200.0</ele><time>2026-04-12T09:20:00.884Z</time></trkpt><trkpt lat="37.85323296457074" lon="14.696250599920468"><ele>1200.0</ele><time>2026-04-12T09:20:01.884Z</time></trkpt><trkpt lat="37.85316791249544" lon="14.69613574272989"><ele>1200.0</ele><time>2026-04-12T09:20:02.884Z</time></trkpt><trkpt lat="37.85308019352347" lon="14.696070317669049"><ele>1200.0</ele><time>2026-04-12T09:20:03.883Z</time></trkpt><trkpt lat="37.852991487068046" lon="14.696074031429118"><ele>1200.0</ele><time>2026-04-12T09:20:04.883Z</time></trkpt><trkpt lat="37.85290443810875" lon="14.69616694812191"><ele>1200.0</ele><time>2026-04-12T09:20:05.883Z</time></trkpt><trkpt lat="37.852846998319265" lon="14.696313336763675"><ele>1200.0</ele><time>2026-04-12T09:20:06.883Z</time></trkpt><trkpt lat="37.85282044961175" lon="14.696513646534227"><ele>1200.0</ele><time>2026-04-12T09:20:07.883Z</time></trkpt><trkpt lat="37.85279994304958" lon="14.696735278886806"><ele>1199.75</ele><time>2026-04-12T09:20:08.883Z</time></trkpt><trkpt lat="37.852743253137604" lon="14.696948182251656"><ele>1199.5</ele><time>2026-04-12T09:20:09.883Z</time></trkpt><trkpt lat="37.85270593785663" lon="14.697126920331096"><ele>1199.25</ele><time>2026-04-12T09:20:10.883Z</time></trkpt><trkpt lat="37.85263831971449" lon="14.697249202328068"><ele>1199.0</ele><time>2026-04-12T09:20:11.883Z</time></trkpt><trkpt lat="37.852538250626644" lon="14.697318579319761"><ele>1199.0</ele><time>2026-04-12T09:20:12.883Z</time></trkpt><trkpt lat="37.85242883721648" lon="14.697325030329349"><ele>1199.0</ele><time>2026-04-12T09:20:13.883Z</time></trkpt><trkpt lat="37.85232279585101" lon="14.69720986126757"><ele>1199.0</ele><time>2026-04-12T09:20:14.883Z</time></trkpt><trkpt lat="37.85218040560375" lon="14.697131190822763"><ele>1199.0</ele><time>2026-04-12T09:20:15.883Z</time></trkpt><trkpt lat="37.85201025150178" lon="14.697069928100913"><ele>1199.0</ele><time>2026-04-12T09:20:16.883Z</time></trkpt><trkpt lat="37.85185290470299" lon="14.697017755733057"><ele>1199.0</ele><time>2026-04-12T09:20:17.883Z</time></trkpt><trkpt lat="37.8516814210483" lon="14.697042514128485"><ele>1199.0</ele><time>2026-04-12T09:20:18.883Z</time></trkpt><trkpt lat="37.85150816139808" lon="14.697133423253302"><ele>1197.5</ele><time>2026-04-12T09:20:19.883Z</time></trkpt><trkpt lat="37.85135023484091" lon="14.697190066148892"><ele>1196.0</ele><time>2026-04-12T09:20:20.883Z</time></trkpt><trkpt lat="37.851214789002476" lon="14.69723388531503"><ele>1194.5</ele><time>2026-04-12T09:20:21.883Z</time></trkpt><trkpt lat="37.85108731284443" lon="14.697245694492922"><ele>1193.0</ele><time>2026-04-12T09:20:22.883Z</time></trkpt><trkpt lat="37.85096399943836" lon="14.6972224273934"><ele>1191.6666666666667</ele><time>2026-04-12T09:20:23.883Z</time></trkpt><trkpt lat="37.85079441145035" lon="14.697173739843251"><ele>1190.3333333333333</ele><time>2026-04-12T09:20:24.883Z</time></trkpt><trkpt lat="37.850614765389516" lon="14.697127112044443"><ele>1189.0</ele><time>2026-04-12T09:20:25.883Z</time></trkpt><trkpt lat="37.8504711434409" lon="14.697105785331084"><ele>1189.0</ele><time>2026-04-12T09:20:26.882Z</time></trkpt><trkpt lat="37.85034801405482" lon="14.697135394377684"><ele>1189.0</ele><time>2026-04-12T09:20:27.882Z</time></trkpt><trkpt lat="37.85023735185898" lon="14.697240104243216"><ele>1189.0</ele><time>2026-04-12T09:20:28.882Z</time></trkpt><trkpt lat="37.85013410934143" lon="14.697392757540978"><ele>1189.0</ele><time>2026-04-12T09:20:29.882Z</time></trkpt><trkpt lat="37.85004673555604" lon="14.69760038261422"><ele>1188.6666666666665</ele><time>2026-04-12T09:20:30.882Z</time></trkpt><trkpt lat="37.84993968740127" lon="14.697754122144385"><ele>1188.3333333333333</ele><time>2026-04-12T09:20:31.882Z</time></trkpt><trkpt lat="37.84983361333661" lon="14.697903281838844"><ele>1188.0</ele><time>2026-04-12T09:20:32.882Z</time></trkpt><trkpt lat="37.849730819754924" lon="14.698038162498614"><ele>1188.0</ele><time>2026-04-12T09:20:33.882Z</time></trkpt><trkpt lat="37.849639469155996" lon="14.698154211275197"><ele>1188.0</ele><time>2026-04-12T09:20:34.882Z</time></trkpt><trkpt lat="37.84954906597408" lon="14.698244511882232"><ele>1188.0</ele><time>2026-04-12T09:20:35.882Z</time></trkpt><trkpt lat="37.849466651257" lon="14.698307263388527"><ele>1188.0</ele><time>2026-04-12T09:20:36.882Z</time></trkpt><trkpt lat="37.84938597184489" lon="14.698358571240297"><ele>1188.0</ele><time>2026-04-12T09:20:37.882Z</time></trkpt><trkpt lat="37.84931807364837" lon="14.698398434982114"><ele>1185.0</ele><time>2026-04-12T09:20:38.882Z</time></trkpt><trkpt lat="37.84919562860016" lon="14.698468766342463"><ele>1182.0</ele><time>2026-04-12T09:20:40.882Z</time></trkpt><trkpt lat="37.84907896327555" lon="14.698567656986539"><ele>1179.0</ele><time>2026-04-12T09:20:42.882Z</time></trkpt><trkpt lat="37.849026104234454" lon="14.698622080362199"><ele>1176.0</ele><time>2026-04-12T09:20:43.882Z</time></trkpt><trkpt lat="37.84896797035635" lon="14.698672869524245"><ele>1173.0</ele><time>2026-04-12T09:20:44.882Z</time></trkpt><trkpt lat="37.84891924393984" lon="14.698733373758037"><ele>1173.0</ele><time>2026-04-12T09:20:45.884Z</time></trkpt><trkpt lat="37.84882094815359" lon="14.698819857743066"><ele>1173.0</ele><time>2026-04-12T09:20:47.884Z</time></trkpt><trkpt lat="37.84876497759391" lon="14.698860789783769"><ele>1173.0</ele><time>2026-04-12T09:20:48.884Z</time></trkpt><trkpt lat="37.84868614501028" lon="14.698845549458472"><ele>1173.0</ele><time>2026-04-12T09:20:49.884Z</time></trkpt><trkpt lat="37.84862248389432" lon="14.698885164245388"><ele>1173.0</ele><time>2026-04-12T09:20:50.884Z</time></trkpt><trkpt lat="37.84854115688979" lon="14.698935876149168"><ele>1173.0</ele><time>2026-04-12T09:20:51.884Z</time></trkpt><trkpt lat="37.84844998564381" lon="14.69899484016508"><ele>1171.75</ele><time>2026-04-12T09:20:52.883Z</time></trkpt><trkpt lat="37.848360024421815" lon="14.699082287728759"><ele>1170.5</ele><time>2026-04-12T09:20:53.883Z</time></trkpt><trkpt lat="37.84824752667879" lon="14.699139657329104"><ele>1169.25</ele><time>2026-04-12T09:20:54.883Z</time></trkpt><trkpt lat="37.84815209594817" lon="14.699234290211818"><ele>1168.0</ele><time>2026-04-12T09:20:55.883Z</time></trkpt><trkpt lat="37.848063505800766" lon="14.699337642217436"><ele>1168.0</ele><time>2026-04-12T09:20:56.883Z</time></trkpt><trkpt lat="37.84797345330897" lon="14.699416237610041"><ele>1168.0</ele><time>2026-04-12T09:20:57.884Z</time></trkpt><trkpt lat="37.84787793970785" lon="14.699494721323386"><ele>1168.0</ele><time>2026-04-12T09:20:58.884Z</time></trkpt><trkpt lat="37.847773199483214" lon="14.69953996588447"><ele>1168.0</ele><time>2026-04-12T09:20:59.883Z</time></trkpt><trkpt lat="37.84768200558644" lon="14.699614067687428"><ele>1168.0</ele><time>2026-04-12T09:21:00.883Z</time></trkpt><trkpt lat="37.84759818429225" lon="14.699682322164648"><ele>1167.5</ele><time>2026-04-12T09:21:01.883Z</time></trkpt><trkpt lat="37.847522433943574" lon="14.699744203713873"><ele>1167.0</ele><time>2026-04-12T09:21:02.883Z</time></trkpt><trkpt lat="37.84745073196371" lon="14.69980280235025"><ele>1166.5</ele><time>2026-04-12T09:21:03.883Z</time></trkpt><trkpt lat="37.84737899789938" lon="14.699861427200169"><ele>1166.0</ele><time>2026-04-12T09:21:04.883Z</time></trkpt><trkpt lat="37.84731129852682" lon="14.69991982346529"><ele>1165.5</ele><time>2026-04-12T09:21:05.883Z</time></trkpt><trkpt lat="37.84726381218486" lon="14.699993557520523"><ele>1165.0</ele><time>2026-04-12T09:21:06.883Z</time></trkpt><trkpt lat="37.8471948843513" lon="14.70004515391464"><ele>1165.0</ele><time>2026-04-12T09:21:07.883Z</time></trkpt><trkpt lat="37.847138866004656" lon="14.700114760002522"><ele>1165.0</ele><time>2026-04-12T09:21:08.883Z</time></trkpt><trkpt lat="37.84708581717416" lon="14.700181893188983"><ele>1165.0</ele><time>2026-04-12T09:21:09.883Z</time></trkpt><trkpt lat="37.84703005848428" lon="14.700246846213687"><ele>1165.0</ele><time>2026-04-12T09:21:10.883Z</time></trkpt><trkpt lat="37.84699016117645" lon="14.700336074661852"><ele>1165.0</ele><time>2026-04-12T09:21:11.883Z</time></trkpt><trkpt lat="37.84694906457886" lon="14.700428931781268"><ele>1165.0</ele><time>2026-04-12T09:21:12.883Z</time></trkpt><trkpt lat="37.84692012410384" lon="14.700546668475123"><ele>1165.2</ele><time>2026-04-12T09:21:13.883Z</time></trkpt><trkpt lat="37.84690046675038" lon="14.700667313334526"><ele>1165.4</ele><time>2026-04-12T09:21:14.883Z</time></trkpt><trkpt lat="37.84687503867343" lon="14.700785571041315"><ele>1165.6</ele><time>2026-04-12T09:21:15.883Z</time></trkpt><trkpt lat="37.8468498862079" lon="14.700903543362454"><ele>1165.8</ele><time>2026-04-12T09:21:16.883Z</time></trkpt><trkpt lat="37.84683115844879" lon="14.701017264490359"><ele>1166.0</ele><time>2026-04-12T09:21:17.883Z</time></trkpt><trkpt lat="37.84681241605909" lon="14.701128048773752"><ele>1165.6</ele><time>2026-04-12T09:21:18.883Z</time></trkpt><trkpt lat="37.84678790416197" lon="14.701241487392503"><ele>1165.1999999999998</ele><time>2026-04-12T09:21:19.883Z</time></trkpt><trkpt lat="37.846736324789475" lon="14.70135924152448"><ele>1164.8000000000002</ele><time>2026-04-12T09:21:20.883Z</time></trkpt><trkpt lat="37.84666615770147" lon="14.70147664252973"><ele>1164.4</ele><time>2026-04-12T09:21:21.883Z</time></trkpt><trkpt lat="37.84658145029257" lon="14.701562581806561"><ele>1164.0</ele><time>2026-04-12T09:21:22.882Z</time></trkpt><trkpt lat="37.846481468097295" lon="14.701620794653053"><ele>1164.0</ele><time>2026-04-12T09:21:23.882Z</time></trkpt><trkpt lat="37.84640405918504" lon="14.70170757241118"><ele>1164.0</ele><time>2026-04-12T09:21:24.882Z</time></trkpt><trkpt lat="37.84633733037451" lon="14.701819038287304"><ele>1164.0</ele><time>2026-04-12T09:21:25.882Z</time></trkpt><trkpt lat="37.84629598853014" lon="14.701986741189964"><ele>1164.0</ele><time>2026-04-12T09:21:26.882Z</time></trkpt><trkpt lat="37.84624531311649" lon="14.70216764121577"><ele>1166.0</ele><time>2026-04-12T09:21:27.882Z</time></trkpt><trkpt lat="37.84618453438149" lon="14.702350582220884"><ele>1168.0</ele><time>2026-04-12T09:21:28.882Z</time></trkpt><trkpt lat="37.846127323816766" lon="14.7025113234659"><ele>1170.0</ele><time>2026-04-12T09:21:29.882Z</time></trkpt><trkpt lat="37.84605748109615" lon="14.702646394736938"><ele>1172.0</ele><time>2026-04-12T09:21:30.882Z</time></trkpt><trkpt lat="37.846023362619896" lon="14.702789608554651"><ele>1170.5</ele><time>2026-04-12T09:21:31.882Z</time></trkpt><trkpt lat="37.84597199527098" lon="14.702938669778268"><ele>1169.0</ele><time>2026-04-12T09:21:32.882Z</time></trkpt><trkpt lat="37.84592701014609" lon="14.703077921527345"><ele>1167.5</ele><time>2026-04-12T09:21:33.882Z</time></trkpt><trkpt lat="37.845894956213534" lon="14.703211189577589"><ele>1166.0</ele><time>2026-04-12T09:21:34.882Z</time></trkpt><trkpt lat="37.845882301940954" lon="14.703346530419985"><ele>1166.0</ele><time>2026-04-12T09:21:35.882Z</time></trkpt><trkpt lat="37.845916823580964" lon="14.703476531558088"><ele>1166.0</ele><time>2026-04-12T09:21:36.882Z</time></trkpt><trkpt lat="37.8459887396518" lon="14.70360098883872"><ele>1166.0</ele><time>2026-04-12T09:21:37.882Z</time></trkpt><trkpt lat="37.84608415343921" lon="14.703718865569073"><ele>1166.0</ele><time>2026-04-12T09:21:38.882Z</time></trkpt><trkpt lat="37.846158906336726" lon="14.7038666673282"><ele>1168.75</ele><time>2026-04-12T09:21:39.882Z</time></trkpt><trkpt lat="37.846208572390594" lon="14.704005185054326"><ele>1171.5</ele><time>2026-04-12T09:21:40.882Z</time></trkpt><trkpt lat="37.84623164679087" lon="14.70414878158317"><ele>1174.25</ele><time>2026-04-12T09:21:41.882Z</time></trkpt><trkpt lat="37.84623263542395" lon="14.704291285644974"><ele>1177.0</ele><time>2026-04-12T09:21:42.882Z</time></trkpt><trkpt lat="37.846187717825345" lon="14.704429070868601"><ele>1179.25</ele><time>2026-04-12T09:21:43.882Z</time></trkpt><trkpt lat="37.846116732511206" lon="14.704543955585592"><ele>1181.5</ele><time>2026-04-12T09:21:44.882Z</time></trkpt><trkpt lat="37.84604144838939" lon="14.704658648232869"><ele>1183.75</ele><time>2026-04-12T09:21:45.881Z</time></trkpt><trkpt lat="37.84598543688591" lon="14.70480137191828"><ele>1186.0</ele><time>2026-04-12T09:21:46.881Z</time></trkpt><trkpt lat="37.84596505536107" lon="14.704960442341578"><ele>1186.25</ele><time>2026-04-12T09:21:47.881Z</time></trkpt><trkpt lat="37.84596166162765" lon="14.705128171232175"><ele>1186.5</ele><time>2026-04-12T09:21:48.881Z</time></trkpt><trkpt lat="37.8459816724506" lon="14.705302956920816"><ele>1186.75</ele><time>2026-04-12T09:21:49.881Z</time></trkpt><trkpt lat="37.845986811196816" lon="14.705482784556974"><ele>1187.0</ele><time>2026-04-12T09:21:50.881Z</time></trkpt><trkpt lat="37.84602333014649" lon="14.705665555417111"><ele>1187.0</ele><time>2026-04-12T09:21:51.881Z</time></trkpt><trkpt lat="37.84605815371281" lon="14.705861768111287"><ele>1187.0</ele><time>2026-04-12T09:21:52.881Z</time></trkpt><trkpt lat="37.84610820589803" lon="14.70605180010905"><ele>1187.0</ele><time>2026-04-12T09:21:53.881Z</time></trkpt><trkpt lat="37.84613594076843" lon="14.70624235515519"><ele>1185.5</ele><time>2026-04-12T09:21:54.881Z</time></trkpt><trkpt lat="37.84615400916613" lon="14.706430939642818"><ele>1184.0</ele><time>2026-04-12T09:21:55.881Z</time></trkpt><trkpt lat="37.84614484965647" lon="14.706610408460527"><ele>1182.5</ele><time>2026-04-12T09:21:56.881Z</time></trkpt><trkpt lat="37.84609405897894" lon="14.706777954586954"><ele>1181.0</ele><time>2026-04-12T09:21:57.881Z</time></trkpt><trkpt lat="37.84609184482816" lon="14.706958652466906"><ele>1179.75</ele><time>2026-04-12T09:21:58.881Z</time></trkpt><trkpt lat="37.84611244668165" lon="14.707126151071476"><ele>1178.5</ele><time>2026-04-12T09:21:59.881Z</time></trkpt><trkpt lat="37.846130832184066" lon="14.70728094815845"><ele>1177.25</ele><time>2026-04-12T09:22:00.881Z</time></trkpt><trkpt lat="37.84612668051024" lon="14.707452488750313"><ele>1176.0</ele><time>2026-04-12T09:22:01.881Z</time></trkpt><trkpt lat="37.84608254472718" lon="14.707618294321044"><ele>1175.25</ele><time>2026-04-12T09:22:02.881Z</time></trkpt><trkpt lat="37.8460083450708" lon="14.707770763794539"><ele>1174.5</ele><time>2026-04-12T09:22:03.881Z</time></trkpt><trkpt lat="37.845919501606566" lon="14.707916885629915"><ele>1173.75</ele><time>2026-04-12T09:22:04.881Z</time></trkpt><trkpt lat="37.84582647505269" lon="14.708084173080923"><ele>1173.0</ele><time>2026-04-12T09:22:05.881Z</time></trkpt><trkpt lat="37.845744540655765" lon="14.70825386931267"><ele>1165.75</ele><time>2026-04-12T09:22:06.881Z</time></trkpt><trkpt lat="37.84567845025185" lon="14.708423050275082"><ele>1158.5</ele><time>2026-04-12T09:22:07.88Z</time></trkpt><trkpt lat="37.845604528910314" lon="14.708581817561473"><ele>1151.25</ele><time>2026-04-12T09:22:08.88Z</time></trkpt><trkpt lat="37.84553368449137" lon="14.708724722911589"><ele>1144.0</ele><time>2026-04-12T09:22:09.88Z</time></trkpt><trkpt lat="37.845481790519585" lon="14.70887527029797"><ele>1144.0</ele><time>2026-04-12T09:22:10.88Z</time></trkpt><trkpt lat="37.84547867625876" lon="14.709045316462596"><ele>1144.0</ele><time>2026-04-12T09:22:11.88Z</time></trkpt><trkpt lat="37.84551057177815" lon="14.709215121136912"><ele>1144.0</ele><time>2026-04-12T09:22:12.88Z</time></trkpt><trkpt lat="37.84555688289396" lon="14.709367733693316"><ele>1144.0</ele><time>2026-04-12T09:22:13.88Z</time></trkpt><trkpt lat="37.8455723700292" lon="14.709511228276668"><ele>1142.6000000000001</ele><time>2026-04-12T09:22:14.88Z</time></trkpt><trkpt lat="37.84556999456904" lon="14.70964623533427"><ele>1141.2</ele><time>2026-04-12T09:22:15.88Z</time></trkpt><trkpt lat="37.84553472577479" lon="14.709774054826184"><ele>1139.8000000000002</ele><time>2026-04-12T09:22:16.88Z</time></trkpt><trkpt lat="37.8454606104766" lon="14.709884966064962"><ele>1138.4</ele><time>2026-04-12T09:22:17.88Z</time></trkpt><trkpt lat="37.84539482070098" lon="14.709998477912611"><ele>1137.0</ele><time>2026-04-12T09:22:18.88Z</time></trkpt><trkpt lat="37.845337382632906" lon="14.71013468101672"><ele>1140.0</ele><time>2026-04-12T09:22:19.88Z</time></trkpt><trkpt lat="37.845270168154826" lon="14.710268964057267"><ele>1143.0</ele><time>2026-04-12T09:22:20.88Z</time></trkpt><trkpt lat="37.84519654776801" lon="14.71039868327132"><ele>1146.0</ele><time>2026-04-12T09:22:21.88Z</time></trkpt><trkpt lat="37.845134409690345" lon="14.710534641705314"><ele>1149.0</ele><time>2026-04-12T09:22:22.88Z</time></trkpt><trkpt lat="37.845075653439615" lon="14.710656855340218"><ele>1144.6000000000001</ele><time>2026-04-12T09:22:23.88Z</time></trkpt><trkpt lat="37.845019348468" lon="14.71077963292339"><ele>1140.2</ele><time>2026-04-12T09:22:24.88Z</time></trkpt><trkpt lat="37.844974743045455" lon="14.710890295455279"><ele>1135.8000000000002</ele><time>2026-04-12T09:22:25.88Z</time></trkpt><trkpt lat="37.84494107389065" lon="14.710985147135423"><ele>1131.4</ele><time>2026-04-12T09:22:26.88Z</time></trkpt><trkpt lat="37.84490280994527" lon="14.711099871601286"><ele>1127.0</ele><time>2026-04-12T09:22:28.88Z</time></trkpt><trkpt lat="37.84489594081649" lon="14.711019537563194"><ele>1125.75</ele><time>2026-04-12T09:22:45.879Z</time></trkpt><trkpt lat="37.84473212872598" lon="14.710858834145789"><ele>1124.5</ele><time>2026-04-12T09:22:46.879Z</time></trkpt><trkpt lat="37.84470071224676" lon="14.710749667868637"><ele>1123.25</ele><time>2026-04-12T09:22:48.879Z</time></trkpt><trkpt lat="37.84472443078377" lon="14.710628497787472"><ele>1122.0</ele><time>2026-04-12T09:22:50.879Z</time></trkpt><trkpt lat="37.84480102519567" lon="14.710514315683541"><ele>1122.0</ele><time>2026-04-12T09:22:52.881Z</time></trkpt><trkpt lat="37.84485519400554" lon="14.710428769654566"><ele>1122.0</ele><time>2026-04-12T09:22:54.881Z</time></trkpt><trkpt lat="37.8449006135358" lon="14.710368808597604"><ele>1122.0</ele><time>2026-04-12T09:22:56.881Z</time></trkpt><trkpt lat="37.84495817056283" lon="14.710281541383152"><ele>1122.0</ele><time>2026-04-12T09:23:47.879Z</time></trkpt><trkpt lat="37.84499919891537" lon="14.710219379629565"><ele>1122.0</ele><time>2026-04-12T09:23:53.879Z</time></trkpt><trkpt lat="37.84504251078986" lon="14.710152317196657"><ele>1122.0</ele><time>2026-04-12T09:23:54.879Z</time></trkpt><trkpt lat="37.84509135078179" lon="14.710067052787531"><ele>1125.0</ele><time>2026-04-12T09:23:55.879Z</time></trkpt><trkpt lat="37.84514632397128" lon="14.709961421499342"><ele>1128.0</ele><time>2026-04-12T09:23:56.879Z</time></trkpt><trkpt lat="37.84517796188961" lon="14.709830350663573"><ele>1131.0</ele><time>2026-04-12T09:23:57.879Z</time></trkpt><trkpt lat="37.84515887306617" lon="14.709722963993796"><ele>1134.0</ele><time>2026-04-12T09:23:58.879Z</time></trkpt><trkpt lat="37.845159862520404" lon="14.709608014563019"><ele>1137.0</ele><time>2026-04-12T09:23:59.879Z</time></trkpt><trkpt lat="37.845137787519526" lon="14.709501669198692"><ele>1134.1666666666667</ele><time>2026-04-12T09:24:00.879Z</time></trkpt><trkpt lat="37.84507327252964" lon="14.709420087506933"><ele>1131.3333333333333</ele><time>2026-04-12T09:24:01.878Z</time></trkpt><trkpt lat="37.844997318259296" lon="14.709387230148067"><ele>1128.5</ele><time>2026-04-12T09:24:02.878Z</time></trkpt><trkpt lat="37.844934569788094" lon="14.709332927297377"><ele>1125.6666666666665</ele><time>2026-04-12T09:24:03.878Z</time></trkpt><trkpt lat="37.84483783731293" lon="14.70926507177725"><ele>1122.8333333333333</ele><time>2026-04-12T09:24:04.878Z</time></trkpt><trkpt lat="37.844793586366826" lon="14.709170354948107"><ele>1120.0</ele><time>2026-04-12T09:24:05.878Z</time></trkpt><trkpt lat="37.844801410206294" lon="14.70906501546157"><ele>1119.0</ele><time>2026-04-12T09:24:06.878Z</time></trkpt><trkpt lat="37.84482801901174" lon="14.708946367577678"><ele>1118.0</ele><time>2026-04-12T09:24:07.878Z</time></trkpt><trkpt lat="37.8448764251749" lon="14.708833687687687"><ele>1117.0</ele><time>2026-04-12T09:24:08.878Z</time></trkpt><trkpt lat="37.84491276817646" lon="14.708715278368354"><ele>1116.0</ele><time>2026-04-12T09:24:09.878Z</time></trkpt><trkpt lat="37.844943898954824" lon="14.708597699690365"><ele>1115.0</ele><time>2026-04-12T09:24:10.878Z</time></trkpt><trkpt lat="37.8449649060138" lon="14.708464015106058"><ele>1114.0</ele><time>2026-04-12T09:24:11.878Z</time></trkpt><trkpt lat="37.84494851529786" lon="14.70834479587198"><ele>1113.0</ele><time>2026-04-12T09:24:12.878Z</time></trkpt><trkpt lat="37.84493938772886" lon="14.70822435999364"><ele>1112.0</ele><time>2026-04-12T09:24:13.878Z</time></trkpt><trkpt lat="37.844906817247434" lon="14.708090955204321"><ele>1111.0</ele><time>2026-04-12T09:24:14.878Z</time></trkpt><trkpt lat="37.84485323160652" lon="14.707971086533803"><ele>1110.0</ele><time>2026-04-12T09:24:15.878Z</time></trkpt><trkpt lat="37.844776763869504" lon="14.707850576831692"><ele>1111.0</ele><time>2026-04-12T09:24:16.878Z</time></trkpt><trkpt lat="37.8447013215726" lon="14.707725644831884"><ele>1112.0</ele><time>2026-04-12T09:24:17.878Z</time></trkpt><trkpt lat="37.84463066936094" lon="14.707594515655284"><ele>1113.0</ele><time>2026-04-12T09:24:18.878Z</time></trkpt><trkpt lat="37.8445642699891" lon="14.70745060794589"><ele>1114.0</ele><time>2026-04-12T09:24:19.878Z</time></trkpt><trkpt lat="37.84450087750507" lon="14.707303699933293"><ele>1114.0</ele><time>2026-04-12T09:24:20.878Z</time></trkpt><trkpt lat="37.8444645587705" lon="14.70713165557337"><ele>1114.0</ele><time>2026-04-12T09:24:21.878Z</time></trkpt><trkpt lat="37.84438903254152" lon="14.706979021556219"><ele>1114.0</ele><time>2026-04-12T09:24:22.878Z</time></trkpt><trkpt lat="37.84430636108457" lon="14.706830435818528"><ele>1114.0</ele><time>2026-04-12T09:24:23.878Z</time></trkpt><trkpt lat="37.84422262899466" lon="14.706675693816903"><ele>1109.0</ele><time>2026-04-12T09:24:24.877Z</time></trkpt><trkpt lat="37.84414732140084" lon="14.706525489628095"><ele>1104.0</ele><time>2026-04-12T09:24:25.877Z</time></trkpt><trkpt lat="37.84406465570307" lon="14.706381248916548"><ele>1099.0</ele><time>2026-04-12T09:24:26.877Z</time></trkpt><trkpt lat="37.84396359817979" lon="14.706252944053515"><ele>1094.0</ele><time>2026-04-12T09:24:27.877Z</time></trkpt><trkpt lat="37.84384143105048" lon="14.706164979353504"><ele>1094.0</ele><time>2026-04-12T09:24:28.877Z</time></trkpt><trkpt lat="37.8436951249206" lon="14.706114630882334"><ele>1094.0</ele><time>2026-04-12T09:24:29.877Z</time></trkpt><trkpt lat="37.84355363886797" lon="14.706066337889625"><ele>1094.0</ele><time>2026-04-12T09:24:30.877Z</time></trkpt><trkpt lat="37.843425650455536" lon="14.706004304987713"><ele>1094.0</ele><time>2026-04-12T09:24:31.877Z</time></trkpt><trkpt lat="37.84330479596811" lon="14.705944916902014"><ele>1092.75</ele><time>2026-04-12T09:24:32.877Z</time></trkpt><trkpt lat="37.84319120962937" lon="14.705879142787161"><ele>1091.5</ele><time>2026-04-12T09:24:33.877Z</time></trkpt><trkpt lat="37.843093469723705" lon="14.705791882899005"><ele>1090.25</ele><time>2026-04-12T09:24:34.877Z</time></trkpt><trkpt lat="37.843022073347996" lon="14.705660775404006"><ele>1089.0</ele><time>2026-04-12T09:24:35.877Z</time></trkpt><trkpt lat="37.84296834671603" lon="14.705499628694916"><ele>1089.0</ele><time>2026-04-12T09:24:36.877Z</time></trkpt><trkpt lat="37.84290838186022" lon="14.70533733159143"><ele>1089.0</ele><time>2026-04-12T09:24:37.877Z</time></trkpt><trkpt lat="37.84285163165657" lon="14.70519832863298"><ele>1089.0</ele><time>2026-04-12T09:24:38.877Z</time></trkpt><trkpt lat="37.84280062056503" lon="14.705085447158178"><ele>1089.0</ele><time>2026-04-12T09:24:39.877Z</time></trkpt><trkpt lat="37.8427212890088" lon="14.70500907480257"><ele>1087.8</ele><time>2026-04-12T09:24:40.877Z</time></trkpt><trkpt lat="37.84262786464625" lon="14.7049943796696"><ele>1086.6000000000001</ele><time>2026-04-12T09:24:41.877Z</time></trkpt><trkpt lat="37.842547634229895" lon="14.705041241663059"><ele>1085.4</ele><time>2026-04-12T09:24:42.877Z</time></trkpt><trkpt lat="37.84248390867264" lon="14.705135161739946"><ele>1084.2</ele><time>2026-04-12T09:24:43.877Z</time></trkpt><trkpt lat="37.84247749525444" lon="14.705276206529028"><ele>1083.0</ele><time>2026-04-12T09:24:44.877Z</time></trkpt><trkpt lat="37.8425169646906" lon="14.70543774706809"><ele>1085.0</ele><time>2026-04-12T09:24:45.877Z</time></trkpt><trkpt lat="37.84258558800313" lon="14.705620030333737"><ele>1087.0</ele><time>2026-04-12T09:24:46.876Z</time></trkpt><trkpt lat="37.84266941279368" lon="14.705830785883697"><ele>1089.0</ele><time>2026-04-12T09:24:47.876Z</time></trkpt><trkpt lat="37.84273299099298" lon="14.70605210056849"><ele>1086.0</ele><time>2026-04-12T09:24:48.876Z</time></trkpt><trkpt lat="37.84279173707297" lon="14.706253903648427"><ele>1083.0</ele><time>2026-04-12T09:24:49.876Z</time></trkpt><trkpt lat="37.84286510523717" lon="14.706438503084202"><ele>1080.0</ele><time>2026-04-12T09:24:50.876Z</time></trkpt><trkpt lat="37.84297657179581" lon="14.706609308379761"><ele>1080.0</ele><time>2026-04-12T09:24:51.876Z</time></trkpt><trkpt lat="37.84309164749252" lon="14.706761994439653"><ele>1080.0</ele><time>2026-04-12T09:24:52.876Z</time></trkpt><trkpt lat="37.84319478809648" lon="14.706891794715485"><ele>1080.0</ele><time>2026-04-12T09:24:53.876Z</time></trkpt><trkpt lat="37.843270332728835" lon="14.707011407843568"><ele>1080.0</ele><time>2026-04-12T09:24:54.876Z</time></trkpt><trkpt lat="37.84332028702404" lon="14.707127961479546"><ele>1078.25</ele><time>2026-04-12T09:24:55.876Z</time></trkpt><trkpt lat="37.84328922652469" lon="14.707255889746657"><ele>1076.5</ele><time>2026-04-12T09:24:56.876Z</time></trkpt><trkpt lat="37.843174157750155" lon="14.707347321856735"><ele>1074.75</ele><time>2026-04-12T09:24:57.879Z</time></trkpt><trkpt lat="37.843057429939535" lon="14.707471998321173"><ele>1073.0</ele><time>2026-04-12T09:24:58.878Z</time></trkpt><trkpt lat="37.842917225843024" lon="14.707622712045653"><ele>1073.0</ele><time>2026-04-12T09:24:59.878Z</time></trkpt><trkpt lat="37.84279283443582" lon="14.707762070574109"><ele>1073.0</ele><time>2026-04-12T09:25:00.879Z</time></trkpt><trkpt lat="37.842698451876984" lon="14.70789478838371"><ele>1073.0</ele><time>2026-04-12T09:25:01.879Z</time></trkpt><trkpt lat="37.842651641849564" lon="14.708052562603008"><ele>1073.0</ele><time>2026-04-12T09:25:02.879Z</time></trkpt><trkpt lat="37.84263196206715" lon="14.708193981635326"><ele>1073.0</ele><time>2026-04-12T09:25:03.879Z</time></trkpt><trkpt lat="37.84265321422289" lon="14.708363159701697"><ele>1073.0</ele><time>2026-04-12T09:25:04.879Z</time></trkpt><trkpt lat="37.84266598036575" lon="14.708525614155757"><ele>1073.0</ele><time>2026-04-12T09:25:05.879Z</time></trkpt><trkpt lat="37.84269114143631" lon="14.708685044075304"><ele>1073.0</ele><time>2026-04-12T09:25:06.878Z</time></trkpt><trkpt lat="37.84270137837532" lon="14.708825139288713"><ele>1073.0</ele><time>2026-04-12T09:25:07.879Z</time></trkpt><trkpt lat="37.8426956404963" lon="14.708940024537325"><ele>1073.0</ele><time>2026-04-12T09:25:08.879Z</time></trkpt><trkpt lat="37.842683478090116" lon="14.709051253435685"><ele>1073.0</ele><time>2026-04-12T09:25:09.879Z</time></trkpt><trkpt lat="37.842665654489394" lon="14.709154284609921"><ele>1073.0</ele><time>2026-04-12T09:25:10.878Z</time></trkpt><trkpt lat="37.84264051209757" lon="14.709249953238885"><ele>1073.0</ele><time>2026-04-12T09:25:11.878Z</time></trkpt><trkpt lat="37.842612864787085" lon="14.709333657944907"><ele>1073.0</ele><time>2026-04-12T09:25:12.878Z</time></trkpt><trkpt lat="37.842581685534654" lon="14.709417570305396"><ele>1073.0</ele><time>2026-04-12T09:25:13.878Z</time></trkpt><trkpt lat="37.84255051526793" lon="14.70949286537334"><ele>1073.0</ele><time>2026-04-12T09:25:14.878Z</time></trkpt><trkpt lat="37.842609978791714" lon="14.70959887147855"><ele>1073.0</ele><time>2026-04-12T09:25:15.878Z</time></trkpt><trkpt lat="37.84263550471883" lon="14.70969215811592"><ele>1073.0</ele><time>2026-04-12T09:25:17.878Z</time></trkpt><trkpt lat="37.842477104118224" lon="14.709660304729818"><ele>1073.0</ele><time>2026-04-12T09:25:19.878Z</time></trkpt><trkpt lat="37.842617154519196" lon="14.709786865016026"><ele>1068.0</ele><time>2026-04-12T09:25:32.877Z</time></trkpt><trkpt lat="37.84246743399697" lon="14.709682329844606"><ele>1063.0</ele><time>2026-04-12T09:25:37.877Z</time></trkpt><trkpt lat="37.842617154519196" lon="14.709786865016026"><ele>1058.0</ele><time>2026-04-12T09:25:47.877Z</time></trkpt><trkpt lat="37.842466013261074" lon="14.709685565787082"><ele>1058.0</ele><time>2026-04-12T09:25:51.877Z</time></trkpt><trkpt lat="37.842629282287454" lon="14.709799560551524"><ele>1058.0</ele><time>2026-04-12T09:25:54.876Z</time></trkpt><trkpt lat="37.84246606670915" lon="14.709685444069239"><ele>1058.0</ele><time>2026-04-12T09:25:58.876Z</time></trkpt><trkpt lat="37.842633948590986" lon="14.709802659538662"><ele>1058.0</ele><time>2026-04-12T09:26:24.875Z</time></trkpt><trkpt lat="37.84246606670065" lon="14.709685444063307"><ele>1058.0</ele><time>2026-04-12T09:26:28.875Z</time></trkpt><trkpt lat="37.842633948590986" lon="14.709802659538662"><ele>1058.0</ele><time>2026-04-12T09:27:50.831Z</time></trkpt><trkpt lat="37.84246606670161" lon="14.709685444063975"><ele>1058.0</ele><time>2026-04-12T09:27:55.831Z</time></trkpt><trkpt lat="37.842662417021025" lon="14.709802531640953"><ele>1058.0</ele><time>2026-04-12T09:28:02.831Z</time></trkpt><trkpt lat="37.84247278902918" lon="14.709670132993502"><ele>1058.0</ele><time>2026-04-12T09:28:06.83Z</time></trkpt><trkpt lat="37.842665667542" lon="14.709802900450985"><ele>1058.0</ele><time>2026-04-12T09:28:09.83Z</time></trkpt><trkpt lat="37.842456178391195" lon="14.709707966130361"><ele>1058.0</ele><time>2026-04-12T09:28:36.829Z</time></trkpt><trkpt lat="37.842609684876884" lon="14.709847300896719"><ele>1058.0</ele><time>2026-04-12T09:29:17.829Z</time></trkpt><trkpt lat="37.8425466387111" lon="14.709854615143568"><ele>1058.0</ele><time>2026-04-12T09:29:37.828Z</time></trkpt><trkpt lat="37.84242994807402" lon="14.709759727152573"><ele>1058.0</ele><time>2026-04-12T09:29:48.827Z</time></trkpt><trkpt lat="37.842552731984284" lon="14.709833232852812"><ele>1058.0</ele><time>2026-04-12T09:29:50.827Z</time></trkpt><trkpt lat="37.84243002704128" lon="14.70975955586763"><ele>1058.0</ele><time>2026-04-12T09:33:12.818Z</time></trkpt><trkpt lat="37.84258089872053" lon="14.709870178969853"><ele>1058.0</ele><time>2026-04-12T09:33:14.818Z</time></trkpt><trkpt lat="37.84240944307491" lon="14.70980419919081"><ele>1058.0</ele><time>2026-04-12T09:33:56.818Z</time></trkpt><trkpt lat="37.84253705139433" lon="14.709943073282055"><ele>1058.0</ele><time>2026-04-12T09:33:58.818Z</time></trkpt><trkpt lat="37.842473986328976" lon="14.709931158089603"><ele>1058.0</ele><time>2026-04-12T09:34:01.818Z</time></trkpt><trkpt lat="37.84238494306545" lon="14.709860410791986"><ele>1058.0</ele><time>2026-04-12T09:34:02.818Z</time></trkpt><trkpt lat="37.84234131493106" lon="14.709959017074459"><ele>1058.0</ele><time>2026-04-12T09:34:06.817Z</time></trkpt><trkpt lat="37.842279775855125" lon="14.710098104851621"><ele>1058.0</ele><time>2026-04-12T09:34:08.817Z</time></trkpt><trkpt lat="37.84224525452153" lon="14.710176128354187"><ele>1058.0</ele><time>2026-04-12T09:34:09.817Z</time></trkpt><trkpt lat="37.842204318644065" lon="14.710265500720544"><ele>1058.0</ele><time>2026-04-12T09:34:10.817Z</time></trkpt><trkpt lat="37.84216581325564" lon="14.71034875211609"><ele>1058.0</ele><time>2026-04-12T09:34:11.817Z</time></trkpt><trkpt lat="37.84213025914014" lon="14.710425622688065"><ele>1058.8333333333335</ele><time>2026-04-12T09:34:12.817Z</time></trkpt><trkpt lat="37.8420973457977" lon="14.710496606281835"><ele>1059.6666666666667</ele><time>2026-04-12T09:34:13.817Z</time></trkpt><trkpt lat="37.84202845916931" lon="14.710614995537808"><ele>1060.5</ele><time>2026-04-12T09:34:15.817Z</time></trkpt><trkpt lat="37.841971053163" lon="14.710696198180221"><ele>1061.3333333333333</ele><time>2026-04-12T09:34:17.817Z</time></trkpt><trkpt lat="37.84192352074802" lon="14.71075840910428"><ele>1062.1666666666665</ele><time>2026-04-12T09:34:19.817Z</time></trkpt><trkpt lat="37.84187202661732" lon="14.710815433703386"><ele>1063.0</ele><time>2026-04-12T09:34:21.817Z</time></trkpt><trkpt lat="37.84178187600704" lon="14.710877074676722"><ele>1065.6</ele><time>2026-04-12T09:34:23.816Z</time></trkpt><trkpt lat="37.84175152783061" lon="14.710993904808777"><ele>1068.1999999999998</ele><time>2026-04-12T09:34:24.816Z</time></trkpt><trkpt lat="37.8417937281269" lon="14.711094149887995"><ele>1070.8</ele><time>2026-04-12T09:34:26.816Z</time></trkpt><trkpt lat="37.84187714295147" lon="14.711082809375057"><ele>1073.3999999999999</ele><time>2026-04-12T09:37:08.383Z</time></trkpt><trkpt lat="37.84182682234906" lon="14.711172611985676"><ele>1076.0</ele><time>2026-04-12T09:50:20.782Z</time></trkpt><trkpt lat="37.84181431397049" lon="14.71136055199821"><ele>1076.0</ele><time>2026-04-12T09:50:23.782Z</time></trkpt><trkpt lat="37.841829041234" lon="14.711523420690236"><ele>1076.0</ele><time>2026-04-12T09:50:24.781Z</time></trkpt><trkpt lat="37.84176984682413" lon="14.711708292253078"><ele>1076.0</ele><time>2026-04-12T09:50:25.781Z</time></trkpt><trkpt lat="37.84177232836886" lon="14.711900124316726"><ele>1076.0</ele><time>2026-04-12T09:50:26.781Z</time></trkpt><trkpt lat="37.84173701581134" lon="14.712070532231612"><ele>1070.6666666666667</ele><time>2026-04-12T09:50:27.781Z</time></trkpt><trkpt lat="37.84162674728762" lon="14.712233974782135"><ele>1065.3333333333333</ele><time>2026-04-12T09:50:28.781Z</time></trkpt><trkpt lat="37.84148489014665" lon="14.712461697740137"><ele>1060.0</ele><time>2026-04-12T09:50:29.781Z</time></trkpt><trkpt lat="37.84135039789999" lon="14.712681608594266"><ele>1063.3333333333333</ele><time>2026-04-12T09:50:30.781Z</time></trkpt><trkpt lat="37.84124999043875" lon="14.712882536672106"><ele>1066.6666666666667</ele><time>2026-04-12T09:50:31.781Z</time></trkpt><trkpt lat="37.841180641570524" lon="14.713064442472554"><ele>1070.0</ele><time>2026-04-12T09:50:32.781Z</time></trkpt><trkpt lat="37.84117293156414" lon="14.713254793329964"><ele>1070.0</ele><time>2026-04-12T09:50:33.781Z</time></trkpt><trkpt lat="37.84123257429069" lon="14.71344075319673"><ele>1070.0</ele><time>2026-04-12T09:50:34.781Z</time></trkpt><trkpt lat="37.84133628986541" lon="14.713637044681786"><ele>1070.0</ele><time>2026-04-12T09:50:35.781Z</time></trkpt><trkpt lat="37.84138112084486" lon="14.713807668938788"><ele>1068.25</ele><time>2026-04-12T09:50:36.781Z</time></trkpt><trkpt lat="37.84132972963724" lon="14.713957204843473"><ele>1066.5</ele><time>2026-04-12T09:50:37.781Z</time></trkpt><trkpt lat="37.84122437326791" lon="14.714025274122212"><ele>1064.75</ele><time>2026-04-12T09:50:38.781Z</time></trkpt><trkpt lat="37.841089835528884" lon="14.714103408752914"><ele>1063.0</ele><time>2026-04-12T09:50:39.781Z</time></trkpt><trkpt lat="37.84094201899992" lon="14.714275041324468"><ele>1059.6666666666665</ele><time>2026-04-12T09:50:40.781Z</time></trkpt><trkpt lat="37.84087972654585" lon="14.714435278742496"><ele>1056.3333333333333</ele><time>2026-04-12T09:50:41.781Z</time></trkpt><trkpt lat="37.840820466299164" lon="14.71460386554888"><ele>1053.0</ele><time>2026-04-12T09:50:42.781Z</time></trkpt><trkpt lat="37.84082298874556" lon="14.714859967011066"><ele>1053.0</ele><time>2026-04-12T09:50:43.781Z</time></trkpt><trkpt lat="37.84084118802604" lon="14.715124475349239"><ele>1053.0</ele><time>2026-04-12T09:50:44.78Z</time></trkpt><trkpt lat="37.84083592599652" lon="14.715348531811197"><ele>1053.0</ele><time>2026-04-12T09:50:45.78Z</time></trkpt><trkpt lat="37.840780515845594" lon="14.715532980268149"><ele>1055.6666666666667</ele><time>2026-04-12T09:50:46.78Z</time></trkpt><trkpt lat="37.84069581340411" lon="14.71567559731466"><ele>1058.3333333333335</ele><time>2026-04-12T09:50:47.78Z</time></trkpt><trkpt lat="37.84060824447383" lon="14.715882705193225"><ele>1061.0</ele><time>2026-04-12T09:50:48.78Z</time></trkpt><trkpt lat="37.84043396038351" lon="14.716044765514152"><ele>1063.0</ele><time>2026-04-12T09:50:49.78Z</time></trkpt><trkpt lat="37.840297434591854" lon="14.716178893564296"><ele>1065.0</ele><time>2026-04-12T09:50:50.78Z</time></trkpt><trkpt lat="37.840182087399306" lon="14.716320885149784"><ele>1067.0</ele><time>2026-04-12T09:50:51.78Z</time></trkpt><trkpt lat="37.84010272860288" lon="14.716478780428652"><ele>1065.6666666666667</ele><time>2026-04-12T09:50:52.78Z</time></trkpt><trkpt lat="37.840065878566655" lon="14.716673955991576"><ele>1064.3333333333333</ele><time>2026-04-12T09:50:53.78Z</time></trkpt><trkpt lat="37.84008243315174" lon="14.716909396892285"><ele>1063.0</ele><time>2026-04-12T09:50:54.78Z</time></trkpt><trkpt lat="37.840162202186505" lon="14.717148289691321"><ele>1063.0</ele><time>2026-04-12T09:50:55.78Z</time></trkpt><trkpt lat="37.84026947588909" lon="14.71739125423108"><ele>1063.0</ele><time>2026-04-12T09:50:56.78Z</time></trkpt><trkpt lat="37.840361494923066" lon="14.717622631394851"><ele>1063.0</ele><time>2026-04-12T09:50:57.78Z</time></trkpt><trkpt lat="37.840419095940376" lon="14.71784013493217"><ele>1062.3333333333333</ele><time>2026-04-12T09:50:58.78Z</time></trkpt><trkpt lat="37.84040291403319" lon="14.718038639099516"><ele>1061.6666666666667</ele><time>2026-04-12T09:50:59.78Z</time></trkpt><trkpt lat="37.84037310560088" lon="14.718237689567928"><ele>1061.0</ele><time>2026-04-12T09:51:00.781Z</time></trkpt><trkpt lat="37.840338031638936" lon="14.718454647776612"><ele>1062.5</ele><time>2026-04-12T09:51:01.781Z</time></trkpt><trkpt lat="37.84029462437967" lon="14.718623556099804"><ele>1064.0</ele><time>2026-04-12T09:51:02.781Z</time></trkpt><trkpt lat="37.84022225283456" lon="14.718741469183653"><ele>1065.5</ele><time>2026-04-12T09:51:03.781Z</time></trkpt><trkpt lat="37.840104746673035" lon="14.718757312180948"><ele>1067.0</ele><time>2026-04-12T09:51:04.781Z</time></trkpt><trkpt lat="37.83997902844672" lon="14.718795371656928"><ele>1059.3333333333335</ele><time>2026-04-12T09:51:05.78Z</time></trkpt><trkpt lat="37.83979846192804" lon="14.718860176755458"><ele>1051.6666666666667</ele><time>2026-04-12T09:51:06.78Z</time></trkpt><trkpt lat="37.83959817787475" lon="14.718931958180104"><ele>1044.0</ele><time>2026-04-12T09:51:07.781Z</time></trkpt><trkpt lat="37.839386186682894" lon="14.719008365064365"><ele>1040.0</ele><time>2026-04-12T09:51:08.781Z</time></trkpt><trkpt lat="37.83920086914311" lon="14.719076287854238"><ele>1036.0</ele><time>2026-04-12T09:51:09.781Z</time></trkpt><trkpt lat="37.839045667076356" lon="14.719143487666223"><ele>1032.0</ele><time>2026-04-12T09:51:10.78Z</time></trkpt><trkpt lat="37.838942527638736" lon="14.719263270060084"><ele>1032.0</ele><time>2026-04-12T09:51:11.78Z</time></trkpt><trkpt lat="37.83887454815691" lon="14.719394289088124"><ele>1032.0</ele><time>2026-04-12T09:51:12.78Z</time></trkpt><trkpt lat="37.838862208086425" lon="14.719570229181192"><ele>1032.0</ele><time>2026-04-12T09:51:13.78Z</time></trkpt><trkpt lat="37.838901973716574" lon="14.719802400881695"><ele>1032.6666666666667</ele><time>2026-04-12T09:51:14.78Z</time></trkpt><trkpt lat="37.83895821898044" lon="14.720032352245006"><ele>1033.3333333333335</ele><time>2026-04-12T09:51:15.78Z</time></trkpt><trkpt lat="37.8389757997287" lon="14.72026357178461"><ele>1034.0</ele><time>2026-04-12T09:51:16.78Z</time></trkpt><trkpt lat="37.83895788477418" lon="14.720449931067348"><ele>1035.5</ele><time>2026-04-12T09:51:17.78Z</time></trkpt><trkpt lat="37.83888590815244" lon="14.720588775481886"><ele>1037.0</ele><time>2026-04-12T09:51:18.78Z</time></trkpt><trkpt lat="37.838820632812705" lon="14.7206871089352"><ele>1038.5</ele><time>2026-04-12T09:51:19.78Z</time></trkpt><trkpt lat="37.83870262059646" lon="14.720644781280178"><ele>1040.0</ele><time>2026-04-12T09:51:20.78Z</time></trkpt><trkpt lat="37.83856047151435" lon="14.720669326650738"><ele>1033.3333333333335</ele><time>2026-04-12T09:51:21.78Z</time></trkpt><trkpt lat="37.83837827794934" lon="14.72074165592777"><ele>1026.6666666666667</ele><time>2026-04-12T09:51:22.78Z</time></trkpt><trkpt lat="37.838247353124416" lon="14.720887439553467"><ele>1020.0</ele><time>2026-04-12T09:51:23.78Z</time></trkpt><trkpt lat="37.838150169027585" lon="14.72104724368901"><ele>1018.3333333333333</ele><time>2026-04-12T09:51:24.78Z</time></trkpt><trkpt lat="37.83808838753733" lon="14.721240036300284"><ele>1016.6666666666666</ele><time>2026-04-12T09:51:25.78Z</time></trkpt><trkpt lat="37.838105575799275" lon="14.721450067301824"><ele>1015.0</ele><time>2026-04-12T09:51:26.78Z</time></trkpt><trkpt lat="37.83817781907948" lon="14.721636775473733"><ele>1015.0</ele><time>2026-04-12T09:51:27.78Z</time></trkpt><trkpt lat="37.838295011185956" lon="14.721776470075362"><ele>1015.0</ele><time>2026-04-12T09:51:28.779Z</time></trkpt><trkpt lat="37.83844654028154" lon="14.721865660109838"><ele>1015.0</ele><time>2026-04-12T09:51:29.779Z</time></trkpt><trkpt lat="37.8385740217589" lon="14.722015704428937"><ele>1018.0</ele><time>2026-04-12T09:51:30.779Z</time></trkpt><trkpt lat="37.83870720954035" lon="14.722147571575167"><ele>1021.0</ele><time>2026-04-12T09:51:31.779Z</time></trkpt><trkpt lat="37.838747092134014" lon="14.722365911372004"><ele>1024.0</ele><time>2026-04-12T09:51:32.779Z</time></trkpt><trkpt lat="37.838759093973046" lon="14.722594991106805"><ele>1022.6666666666666</ele><time>2026-04-12T09:51:33.779Z</time></trkpt><trkpt lat="37.83875663071689" lon="14.722861254575873"><ele>1021.3333333333333</ele><time>2026-04-12T09:51:34.779Z</time></trkpt><trkpt lat="37.838733696692486" lon="14.723162399522094"><ele>1020.0</ele><time>2026-04-12T09:51:35.779Z</time></trkpt><trkpt lat="37.838688983164324" lon="14.723478452800634"><ele>1018.0</ele><time>2026-04-12T09:51:36.779Z</time></trkpt><trkpt lat="37.83854659108152" lon="14.723743132187936"><ele>1016.0</ele><time>2026-04-12T09:51:37.779Z</time></trkpt><trkpt lat="37.83851500858319" lon="14.723989596901413"><ele>1016.0</ele><time>2026-04-12T09:51:38.779Z</time></trkpt><trkpt lat="37.838507743292965" lon="14.724197156708287"><ele>1016.0</ele><time>2026-04-12T09:51:39.779Z</time></trkpt><trkpt lat="37.83849199429526" lon="14.724360635066452"><ele>1016.0</ele><time>2026-04-12T09:51:40.779Z</time></trkpt><trkpt lat="37.83843782293737" lon="14.724471261718104"><ele>1016.0</ele><time>2026-04-12T09:51:41.779Z</time></trkpt><trkpt lat="37.838399959695934" lon="14.72458299624744"><ele>1015.5</ele><time>2026-04-12T09:51:42.779Z</time></trkpt><trkpt lat="37.8383540661311" lon="14.724705609360154"><ele>1015.0</ele><time>2026-04-12T09:51:43.779Z</time></trkpt><trkpt lat="37.83816401400667" lon="14.724687657958048"><ele>1014.5</ele><time>2026-04-12T09:51:44.779Z</time></trkpt><trkpt lat="37.838021143180235" lon="14.724718156824428"><ele>1014.0</ele><time>2026-04-12T09:51:45.779Z</time></trkpt><trkpt lat="37.837875529171136" lon="14.72475636267793"><ele>1014.0</ele><time>2026-04-12T09:51:46.779Z</time></trkpt><trkpt lat="37.83773822359751" lon="14.724795796773058"><ele>1014.0</ele><time>2026-04-12T09:51:47.778Z</time></trkpt><trkpt lat="37.8376157212693" lon="14.724773364890023"><ele>1014.0</ele><time>2026-04-12T09:51:48.778Z</time></trkpt><trkpt lat="37.837500855499684" lon="14.724769475262734"><ele>1014.0</ele><time>2026-04-12T09:51:49.778Z</time></trkpt><trkpt lat="37.837400455172975" lon="14.724699951828885"><ele>1010.8000000000001</ele><time>2026-04-12T09:51:50.778Z</time></trkpt><trkpt lat="37.83728370022919" lon="14.724617160130226"><ele>1007.6000000000001</ele><time>2026-04-12T09:51:51.778Z</time></trkpt><trkpt lat="37.837205840782055" lon="14.724587164730492"><ele>1004.4</ele><time>2026-04-12T09:51:52.778Z</time></trkpt><trkpt lat="37.837123886468184" lon="14.724594298158772"><ele>1001.2</ele><time>2026-04-12T09:51:53.778Z</time></trkpt><trkpt lat="37.83705073468609" lon="14.72462505242524"><ele>998.0</ele><time>2026-04-12T09:51:54.778Z</time></trkpt><trkpt lat="37.83703292675689" lon="14.724772879225913"><ele>998.0</ele><time>2026-04-12T09:51:55.778Z</time></trkpt><trkpt lat="37.83704751271325" lon="14.724925297546749"><ele>998.0</ele><time>2026-04-12T09:51:56.778Z</time></trkpt><trkpt lat="37.83709520423885" lon="14.725093822224592"><ele>998.0</ele><time>2026-04-12T09:51:57.778Z</time></trkpt><trkpt lat="37.83714175533055" lon="14.725257243221478"><ele>998.0</ele><time>2026-04-12T09:51:58.778Z</time></trkpt><trkpt lat="37.837187203276265" lon="14.725434736489667"><ele>998.5999999999999</ele><time>2026-04-12T09:51:59.778Z</time></trkpt><trkpt lat="37.8372389410565" lon="14.725589321505025"><ele>999.1999999999999</ele><time>2026-04-12T09:52:00.778Z</time></trkpt><trkpt lat="37.83728625544696" lon="14.72571032604842"><ele>999.8</ele><time>2026-04-12T09:52:01.778Z</time></trkpt><trkpt lat="37.83727273493628" lon="14.725809228690173"><ele>1000.4</ele><time>2026-04-12T09:52:02.778Z</time></trkpt><trkpt lat="37.83717575098485" lon="14.725907308337344"><ele>1001.0</ele><time>2026-04-12T09:52:03.778Z</time></trkpt><trkpt lat="37.837038830605685" lon="14.725970663987836"><ele>999.6666666666667</ele><time>2026-04-12T09:52:04.778Z</time></trkpt><trkpt lat="37.83687432102408" lon="14.726081045185058"><ele>998.3333333333333</ele><time>2026-04-12T09:52:05.778Z</time></trkpt><trkpt lat="37.83672079176884" lon="14.726180392645276"><ele>997.0</ele><time>2026-04-12T09:52:06.778Z</time></trkpt><trkpt lat="37.836587952518975" lon="14.726249283670155"><ele>997.0</ele><time>2026-04-12T09:52:07.777Z</time></trkpt><trkpt lat="37.83646076137653" lon="14.726284039787544"><ele>997.0</ele><time>2026-04-12T09:52:08.777Z</time></trkpt><trkpt lat="37.83634090176415" lon="14.726269989191884"><ele>997.0</ele><time>2026-04-12T09:52:09.777Z</time></trkpt><trkpt lat="37.836230661485935" lon="14.726220517049507"><ele>997.0</ele><time>2026-04-12T09:52:10.777Z</time></trkpt><trkpt lat="37.83611748587576" lon="14.726128088596308"><ele>997.0</ele><time>2026-04-12T09:52:11.777Z</time></trkpt><trkpt lat="37.835976823483776" lon="14.726064602950837"><ele>997.0</ele><time>2026-04-12T09:52:12.777Z</time></trkpt><trkpt lat="37.83584148700009" lon="14.726085450669112"><ele>997.0</ele><time>2026-04-12T09:52:13.777Z</time></trkpt><trkpt lat="37.83568964955364" lon="14.72614966957035"><ele>997.0</ele><time>2026-04-12T09:52:14.777Z</time></trkpt><trkpt lat="37.83555628965359" lon="14.726289267599414"><ele>994.0</ele><time>2026-04-12T09:52:15.777Z</time></trkpt><trkpt lat="37.835417895719885" lon="14.726450934852434"><ele>991.0</ele><time>2026-04-12T09:52:16.777Z</time></trkpt><trkpt lat="37.83521483974473" lon="14.726605135492305"><ele>988.0</ele><time>2026-04-12T09:52:17.777Z</time></trkpt><trkpt lat="37.83503479551076" lon="14.726815698241706"><ele>987.3333333333333</ele><time>2026-04-12T09:52:18.777Z</time></trkpt><trkpt lat="37.83485806015703" lon="14.726970682310093"><ele>986.6666666666667</ele><time>2026-04-12T09:52:19.777Z</time></trkpt><trkpt lat="37.83469059722147" lon="14.727089570879668"><ele>986.0</ele><time>2026-04-12T09:52:20.777Z</time></trkpt><trkpt lat="37.834529796861105" lon="14.727132241756301"><ele>986.0</ele><time>2026-04-12T09:52:21.777Z</time></trkpt><trkpt lat="37.83435846547097" lon="14.727026340234744"><ele>986.0</ele><time>2026-04-12T09:52:22.777Z</time></trkpt><trkpt lat="37.8341415576732" lon="14.726981700501698"><ele>986.0</ele><time>2026-04-12T09:52:23.777Z</time></trkpt><trkpt lat="37.833931580329036" lon="14.726971695354514"><ele>982.6666666666667</ele><time>2026-04-12T09:52:24.777Z</time></trkpt><trkpt lat="37.833735753689986" lon="14.727006387373757"><ele>979.3333333333333</ele><time>2026-04-12T09:52:25.777Z</time></trkpt><trkpt lat="37.83357482365802" lon="14.727116008444806"><ele>976.0</ele><time>2026-04-12T09:52:26.776Z</time></trkpt><trkpt lat="37.83343340144533" lon="14.727263986323925"><ele>971.6666666666666</ele><time>2026-04-12T09:52:27.776Z</time></trkpt><trkpt lat="37.83333103518917" lon="14.727477297819416"><ele>967.3333333333333</ele><time>2026-04-12T09:52:28.776Z</time></trkpt><trkpt lat="37.83326380093937" lon="14.727709095822854"><ele>963.0</ele><time>2026-04-12T09:52:29.776Z</time></trkpt><trkpt lat="37.83323901322059" lon="14.727984151899967"><ele>963.0</ele><time>2026-04-12T09:52:30.776Z</time></trkpt><trkpt lat="37.83316766583551" lon="14.728164376393725"><ele>963.0</ele><time>2026-04-12T09:52:31.776Z</time></trkpt><trkpt lat="37.83302920516473" lon="14.728247799955243"><ele>963.0</ele><time>2026-04-12T09:52:32.776Z</time></trkpt><trkpt lat="37.832845428021635" lon="14.728366363883652"><ele>963.0</ele><time>2026-04-12T09:52:33.776Z</time></trkpt><trkpt lat="37.83264298502423" lon="14.728495941986552"><ele>963.0</ele><time>2026-04-12T09:52:34.776Z</time></trkpt><trkpt lat="37.8324178113306" lon="14.72867559124755"><ele>960.5</ele><time>2026-04-12T09:52:35.776Z</time></trkpt><trkpt lat="37.832239974774836" lon="14.728870096267814"><ele>958.0</ele><time>2026-04-12T09:52:36.776Z</time></trkpt><trkpt lat="37.83209153085544" lon="14.729080567826918"><ele>958.0</ele><time>2026-04-12T09:52:37.776Z</time></trkpt><trkpt lat="37.831974355333614" lon="14.729323151296414"><ele>958.0</ele><time>2026-04-12T09:52:38.776Z</time></trkpt><trkpt lat="37.831879683450396" lon="14.729602780003566"><ele>955.0</ele><time>2026-04-12T09:52:39.776Z</time></trkpt><trkpt lat="37.83179868525989" lon="14.729914162823793"><ele>952.0</ele><time>2026-04-12T09:52:40.776Z</time></trkpt><trkpt lat="37.83169911663582" lon="14.730238500163535"><ele>952.0</ele><time>2026-04-12T09:52:41.776Z</time></trkpt><trkpt lat="37.83154925131378" lon="14.730537117165767"><ele>952.0</ele><time>2026-04-12T09:52:42.776Z</time></trkpt><trkpt lat="37.83141974346498" lon="14.730820751374283"><ele>954.0</ele><time>2026-04-12T09:52:43.776Z</time></trkpt><trkpt lat="37.831286116241436" lon="14.731057931682619"><ele>956.0</ele><time>2026-04-12T09:52:44.776Z</time></trkpt><trkpt lat="37.83117235553493" lon="14.731276252532801"><ele>958.0</ele><time>2026-04-12T09:52:45.775Z</time></trkpt><trkpt lat="37.83107420713435" lon="14.731455282197432"><ele>952.5</ele><time>2026-04-12T09:52:46.775Z</time></trkpt><trkpt lat="37.83094473406164" lon="14.731573334301183"><ele>947.0</ele><time>2026-04-12T09:52:47.775Z</time></trkpt><trkpt lat="37.8308249720394" lon="14.731637542218888"><ele>941.5</ele><time>2026-04-12T09:52:48.775Z</time></trkpt><trkpt lat="37.83071306780571" lon="14.731613958485958"><ele>936.0</ele><time>2026-04-12T09:52:49.775Z</time></trkpt><trkpt lat="37.830531691667844" lon="14.731556829771367"><ele>936.0</ele><time>2026-04-12T09:52:50.775Z</time></trkpt><trkpt lat="37.8303273389102" lon="14.731489828644635"><ele>936.0</ele><time>2026-04-12T09:52:51.775Z</time></trkpt><trkpt lat="37.83011179483383" lon="14.731412519457333"><ele>936.0</ele><time>2026-04-12T09:52:52.775Z</time></trkpt><trkpt lat="37.82993932370646" lon="14.731308622369982"><ele>934.25</ele><time>2026-04-12T09:52:53.775Z</time></trkpt><trkpt lat="37.82981178570432" lon="14.731253721306631"><ele>932.5</ele><time>2026-04-12T09:52:54.775Z</time></trkpt><trkpt lat="37.82970886586839" lon="14.731225167253392"><ele>930.75</ele><time>2026-04-12T09:52:55.775Z</time></trkpt><trkpt lat="37.829610186884054" lon="14.731279941472279"><ele>929.0</ele><time>2026-04-12T09:52:56.775Z</time></trkpt><trkpt lat="37.8295382435504" lon="14.73145601939828"><ele>929.0</ele><time>2026-04-12T09:52:57.775Z</time></trkpt><trkpt lat="37.82950054757387" lon="14.731661628734944"><ele>929.0</ele><time>2026-04-12T09:52:58.775Z</time></trkpt><trkpt lat="37.82950807886408" lon="14.731888728497033"><ele>929.0</ele><time>2026-04-12T09:52:59.775Z</time></trkpt><trkpt lat="37.82954283287897" lon="14.732075241997912"><ele>926.5</ele><time>2026-04-12T09:53:00.775Z</time></trkpt><trkpt lat="37.829607774911025" lon="14.732204611702546"><ele>924.0</ele><time>2026-04-12T09:53:01.775Z</time></trkpt><trkpt lat="37.829718285240375" lon="14.732277857250008"><ele>921.5</ele><time>2026-04-12T09:53:02.775Z</time></trkpt><trkpt lat="37.82989326183973" lon="14.732323378533728"><ele>919.0</ele><time>2026-04-12T09:53:03.775Z</time></trkpt><trkpt lat="37.83011169844169" lon="14.73234696221104"><ele>921.75</ele><time>2026-04-12T09:53:04.774Z</time></trkpt><trkpt lat="37.83023572868487" lon="14.732409890079346"><ele>924.5</ele><time>2026-04-12T09:53:05.774Z</time></trkpt><trkpt lat="37.830310844140946" lon="14.73252092493272"><ele>927.25</ele><time>2026-04-12T09:53:06.775Z</time></trkpt><trkpt lat="37.8302826878582" lon="14.732691676035202"><ele>930.0</ele><time>2026-04-12T09:53:07.775Z</time></trkpt><trkpt lat="37.83028595516341" lon="14.732897698667156"><ele>930.0</ele><time>2026-04-12T09:53:08.775Z</time></trkpt><trkpt lat="37.83029079613332" lon="14.733151926316904"><ele>930.0</ele><time>2026-04-12T09:53:09.775Z</time></trkpt><trkpt lat="37.830304311221965" lon="14.733405946062637"><ele>930.0</ele><time>2026-04-12T09:53:10.775Z</time></trkpt><trkpt lat="37.83030959984295" lon="14.733647348938822"><ele>929.3333333333333</ele><time>2026-04-12T09:53:11.775Z</time></trkpt><trkpt lat="37.830266567130714" lon="14.733862971623818"><ele>928.6666666666666</ele><time>2026-04-12T09:53:12.775Z</time></trkpt><trkpt lat="37.83017311372669" lon="14.734081867777398"><ele>928.0</ele><time>2026-04-12T09:53:13.775Z</time></trkpt><trkpt lat="37.83008917685284" lon="14.73436290829254"><ele>920.5</ele><time>2026-04-12T09:53:14.775Z</time></trkpt><trkpt lat="37.82998327543954" lon="14.734625749216459"><ele>913.0</ele><time>2026-04-12T09:53:15.775Z</time></trkpt><trkpt lat="37.82985371066272" lon="14.734853770417397"><ele>913.0</ele><time>2026-04-12T09:53:16.775Z</time></trkpt><trkpt lat="37.82975598781354" lon="14.735101238147172"><ele>913.0</ele><time>2026-04-12T09:53:17.775Z</time></trkpt><trkpt lat="37.82962090542855" lon="14.735308761518922"><ele>913.0</ele><time>2026-04-12T09:53:18.774Z</time></trkpt><trkpt lat="37.82946139459266" lon="14.735484562924263"><ele>909.6666666666666</ele><time>2026-04-12T09:53:19.774Z</time></trkpt><trkpt lat="37.829281334679436" lon="14.735625225958385"><ele>906.3333333333333</ele><time>2026-04-12T09:53:20.774Z</time></trkpt><trkpt lat="37.829083570799376" lon="14.735688147895164"><ele>903.0</ele><time>2026-04-12T09:53:21.774Z</time></trkpt><trkpt lat="37.82891021793542" lon="14.73580687571967"><ele>903.0</ele><time>2026-04-12T09:53:22.774Z</time></trkpt><trkpt lat="37.82876722115326" lon="14.735962524766816"><ele>903.0</ele><time>2026-04-12T09:53:23.774Z</time></trkpt><trkpt lat="37.82866584096948" lon="14.736147680187676"><ele>903.0</ele><time>2026-04-12T09:53:24.774Z</time></trkpt><trkpt lat="37.82856551697789" lon="14.736340057680064"><ele>899.3333333333333</ele><time>2026-04-12T09:53:25.774Z</time></trkpt><trkpt lat="37.828466629015445" lon="14.736546964330465"><ele>895.6666666666666</ele><time>2026-04-12T09:53:26.774Z</time></trkpt><trkpt lat="37.82837821553905" lon="14.736753356693734"><ele>892.0</ele><time>2026-04-12T09:53:27.774Z</time></trkpt><trkpt lat="37.828289780048856" lon="14.736947564116578"><ele>891.6666666666666</ele><time>2026-04-12T09:53:28.774Z</time></trkpt><trkpt lat="37.828222029137464" lon="14.73715161486907"><ele>891.3333333333333</ele><time>2026-04-12T09:53:29.774Z</time></trkpt><trkpt lat="37.82818259951" lon="14.737373763812036"><ele>891.0</ele><time>2026-04-12T09:53:30.774Z</time></trkpt><trkpt lat="37.82815877298346" lon="14.737608410199991"><ele>888.6666666666667</ele><time>2026-04-12T09:53:31.774Z</time></trkpt><trkpt lat="37.82815860794929" lon="14.737842200239704"><ele>886.3333333333334</ele><time>2026-04-12T09:53:32.774Z</time></trkpt><trkpt lat="37.82815745508957" lon="14.738069697470488"><ele>884.0</ele><time>2026-04-12T09:53:33.774Z</time></trkpt><trkpt lat="37.82817419857886" lon="14.738259255928439"><ele>884.0</ele><time>2026-04-12T09:53:34.774Z</time></trkpt><trkpt lat="37.82818211148305" lon="14.73843465756902"><ele>884.0</ele><time>2026-04-12T09:53:35.774Z</time></trkpt><trkpt lat="37.828231530796295" lon="14.73857216290792"><ele>884.0</ele><time>2026-04-12T09:53:36.774Z</time></trkpt><trkpt lat="37.82831912904101" lon="14.7386818058381"><ele>884.0</ele><time>2026-04-12T09:53:37.774Z</time></trkpt><trkpt lat="37.82845442007703" lon="14.738754341395548"><ele>882.6666666666667</ele><time>2026-04-12T09:53:38.773Z</time></trkpt><trkpt lat="37.82862267515543" lon="14.738797691142437"><ele>881.3333333333333</ele><time>2026-04-12T09:53:39.773Z</time></trkpt><trkpt lat="37.8288086102928" lon="14.73883331908412"><ele>880.0</ele><time>2026-04-12T09:53:40.773Z</time></trkpt><trkpt lat="37.828964705344085" lon="14.738890778678577"><ele>880.0</ele><time>2026-04-12T09:53:41.773Z</time></trkpt><trkpt lat="37.82910345970651" lon="14.738978278127847"><ele>880.0</ele><time>2026-04-12T09:53:42.773Z</time></trkpt><trkpt lat="37.829225971173294" lon="14.739097712961936"><ele>880.0</ele><time>2026-04-12T09:53:43.773Z</time></trkpt><trkpt lat="37.82932374911867" lon="14.739262465339657"><ele>884.0</ele><time>2026-04-12T09:53:44.773Z</time></trkpt><trkpt lat="37.82935749510169" lon="14.739474462513114"><ele>888.0</ele><time>2026-04-12T09:53:45.773Z</time></trkpt><trkpt lat="37.829381196934044" lon="14.739707255293862"><ele>892.0</ele><time>2026-04-12T09:53:46.773Z</time></trkpt><trkpt lat="37.82940346162082" lon="14.739957794917084"><ele>892.0</ele><time>2026-04-12T09:53:47.773Z</time></trkpt><trkpt lat="37.82942648713705" lon="14.740204916299787"><ele>892.0</ele><time>2026-04-12T09:53:48.773Z</time></trkpt><trkpt lat="37.82945210631083" lon="14.740458090866197"><ele>892.0</ele><time>2026-04-12T09:53:49.773Z</time></trkpt><trkpt lat="37.82947894868206" lon="14.740721446982477"><ele>890.3333333333333</ele><time>2026-04-12T09:53:50.773Z</time></trkpt><trkpt lat="37.829503702064805" lon="14.740977632943048"><ele>888.6666666666667</ele><time>2026-04-12T09:53:51.773Z</time></trkpt><trkpt lat="37.82952365174185" lon="14.741221976708651"><ele>887.0</ele><time>2026-04-12T09:53:52.773Z</time></trkpt><trkpt lat="37.82950660451096" lon="14.7414645395597"><ele>886.3333333333334</ele><time>2026-04-12T09:53:53.773Z</time></trkpt><trkpt lat="37.82944908490318" lon="14.741693766349567"><ele>885.6666666666667</ele><time>2026-04-12T09:53:54.773Z</time></trkpt><trkpt lat="37.829371680758875" lon="14.741922808677247"><ele>885.0</ele><time>2026-04-12T09:53:55.773Z</time></trkpt><trkpt lat="37.82930058862568" lon="14.742160655254752"><ele>879.0</ele><time>2026-04-12T09:53:56.773Z</time></trkpt><trkpt lat="37.82924849002097" lon="14.74239770331427"><ele>873.0</ele><time>2026-04-12T09:53:57.772Z</time></trkpt><trkpt lat="37.829255056985716" lon="14.742637483746861"><ele>867.0</ele><time>2026-04-12T09:53:58.772Z</time></trkpt><trkpt lat="37.829246630655796" lon="14.742870383062268"><ele>866.3333333333333</ele><time>2026-04-12T09:53:59.772Z</time></trkpt><trkpt lat="37.829253168825254" lon="14.743092507806749"><ele>865.6666666666666</ele><time>2026-04-12T09:54:00.772Z</time></trkpt><trkpt lat="37.82928513641449" lon="14.743298590740746"><ele>865.0</ele><time>2026-04-12T09:54:01.772Z</time></trkpt><trkpt lat="37.829361249394076" lon="14.743506047866344"><ele>869.3333333333333</ele><time>2026-04-12T09:54:02.772Z</time></trkpt><trkpt lat="37.82945861530617" lon="14.74369648041554"><ele>873.6666666666667</ele><time>2026-04-12T09:54:03.772Z</time></trkpt><trkpt lat="37.829551680004606" lon="14.743873401938345"><ele>878.0</ele><time>2026-04-12T09:54:04.772Z</time></trkpt><trkpt lat="37.829630554632125" lon="14.744040380232262"><ele>878.0</ele><time>2026-04-12T09:54:05.772Z</time></trkpt><trkpt lat="37.829692260196325" lon="14.74420366172933"><ele>878.0</ele><time>2026-04-12T09:54:06.772Z</time></trkpt><trkpt lat="37.829710710733174" lon="14.744373121881964"><ele>878.0</ele><time>2026-04-12T09:54:07.772Z</time></trkpt><trkpt lat="37.8296791933349" lon="14.744565919652818"><ele>878.0</ele><time>2026-04-12T09:54:08.772Z</time></trkpt><trkpt lat="37.8296254735456" lon="14.744774124419571"><ele>878.3333333333334</ele><time>2026-04-12T09:54:09.772Z</time></trkpt><trkpt lat="37.82956063331265" lon="14.744999279391457"><ele>878.6666666666667</ele><time>2026-04-12T09:54:10.772Z</time></trkpt><trkpt lat="37.82949127531925" lon="14.745221978969532"><ele>879.0</ele><time>2026-04-12T09:54:11.772Z</time></trkpt><trkpt lat="37.829435442817115" lon="14.745414720683069"><ele>879.0</ele><time>2026-04-12T09:54:12.772Z</time></trkpt><trkpt lat="37.82939687379307" lon="14.745588067227667"><ele>879.0</ele><time>2026-04-12T09:54:13.772Z</time></trkpt><trkpt lat="37.82939648669586" lon="14.74573878177462"><ele>879.0</ele><time>2026-04-12T09:54:14.772Z</time></trkpt><trkpt lat="37.82942803764485" lon="14.745912095379527"><ele>879.0</ele><time>2026-04-12T09:54:15.772Z</time></trkpt><trkpt lat="37.82949972417005" lon="14.746088495116744"><ele>874.6666666666667</ele><time>2026-04-12T09:54:16.771Z</time></trkpt><trkpt lat="37.82958568878215" lon="14.746256797554919"><ele>870.3333333333334</ele><time>2026-04-12T09:54:17.771Z</time></trkpt><trkpt lat="37.829668931269154" lon="14.746414731215449"><ele>866.0</ele><time>2026-04-12T09:54:18.771Z</time></trkpt><trkpt lat="37.82974878361915" lon="14.746570667533463"><ele>866.0</ele><time>2026-04-12T09:54:19.771Z</time></trkpt><trkpt lat="37.82984752947947" lon="14.74671032482936"><ele>866.0</ele><time>2026-04-12T09:54:20.771Z</time></trkpt><trkpt lat="37.82998816634984" lon="14.746846090002995"><ele>866.0</ele><time>2026-04-12T09:54:21.771Z</time></trkpt><trkpt lat="37.830156877970225" lon="14.74699245976756"><ele>864.3333333333334</ele><time>2026-04-12T09:54:22.771Z</time></trkpt><trkpt lat="37.83034852289525" lon="14.747142363194671"><ele>862.6666666666667</ele><time>2026-04-12T09:54:23.771Z</time></trkpt><trkpt lat="37.83052354695759" lon="14.74731862228128"><ele>861.0</ele><time>2026-04-12T09:54:24.771Z</time></trkpt><trkpt lat="37.830636564238" lon="14.747554429832254"><ele>859.0</ele><time>2026-04-12T09:54:25.771Z</time></trkpt><trkpt lat="37.83074135719064" lon="14.747796369612185"><ele>857.0</ele><time>2026-04-12T09:54:26.771Z</time></trkpt><trkpt lat="37.83083006264583" lon="14.748030957001028"><ele>855.0</ele><time>2026-04-12T09:54:27.771Z</time></trkpt><trkpt lat="37.83087564315678" lon="14.748269223646918"><ele>855.0</ele><time>2026-04-12T09:54:28.771Z</time></trkpt><trkpt lat="37.830876137036036" lon="14.748542318843738"><ele>855.0</ele><time>2026-04-12T09:54:29.771Z</time></trkpt><trkpt lat="37.830846073514856" lon="14.748816785296425"><ele>855.0</ele><time>2026-04-12T09:54:30.771Z</time></trkpt><trkpt lat="37.83081691711146" lon="14.749072078756043"><ele>854.6666666666667</ele><time>2026-04-12T09:54:31.771Z</time></trkpt><trkpt lat="37.830763466640434" lon="14.749297756440335"><ele>854.3333333333334</ele><time>2026-04-12T09:54:32.771Z</time></trkpt><trkpt lat="37.830646348772156" lon="14.749507053284042"><ele>854.0</ele><time>2026-04-12T09:54:33.771Z</time></trkpt><trkpt lat="37.83051758416533" lon="14.749692765058676"><ele>853.75</ele><time>2026-04-12T09:54:34.771Z</time></trkpt><trkpt lat="37.83039501927291" lon="14.7498297302951"><ele>853.5</ele><time>2026-04-12T09:54:35.77Z</time></trkpt><trkpt lat="37.83032696504232" lon="14.749984055033607"><ele>853.25</ele><time>2026-04-12T09:54:36.77Z</time></trkpt><trkpt lat="37.83032658964962" lon="14.750162513404907"><ele>853.0</ele><time>2026-04-12T09:54:37.77Z</time></trkpt><trkpt lat="37.830383254987815" lon="14.750346762914386"><ele>848.0</ele><time>2026-04-12T09:54:38.77Z</time></trkpt><trkpt lat="37.8305216088776" lon="14.7505507308016"><ele>843.0</ele><time>2026-04-12T09:54:39.77Z</time></trkpt><trkpt lat="37.8306910538092" lon="14.750760977956535"><ele>843.0</ele><time>2026-04-12T09:54:40.77Z</time></trkpt><trkpt lat="37.83087458157168" lon="14.750919281108668"><ele>843.0</ele><time>2026-04-12T09:54:41.77Z</time></trkpt><trkpt lat="37.831051539443024" lon="14.751074013727003"><ele>843.0</ele><time>2026-04-12T09:54:42.77Z</time></trkpt><trkpt lat="37.83124954894315" lon="14.751217517755478"><ele>841.3333333333333</ele><time>2026-04-12T09:54:43.77Z</time></trkpt><trkpt lat="37.83143299027494" lon="14.751338064191577"><ele>839.6666666666666</ele><time>2026-04-12T09:54:44.77Z</time></trkpt><trkpt lat="37.831569734695066" lon="14.751489922384458"><ele>838.0</ele><time>2026-04-12T09:54:45.77Z</time></trkpt><trkpt lat="37.83167840642505" lon="14.751630877915138"><ele>838.0</ele><time>2026-04-12T09:54:46.77Z</time></trkpt><trkpt lat="37.83173614320902" lon="14.75180106336211"><ele>838.0</ele><time>2026-04-12T09:54:47.77Z</time></trkpt><trkpt lat="37.83177009278006" lon="14.752015473517426"><ele>838.0</ele><time>2026-04-12T09:54:48.77Z</time></trkpt><trkpt lat="37.83182314244556" lon="14.752286174371916"><ele>841.3333333333333</ele><time>2026-04-12T09:54:49.77Z</time></trkpt><trkpt lat="37.831877392744346" lon="14.752570607058113"><ele>844.6666666666667</ele><time>2026-04-12T09:54:50.77Z</time></trkpt><trkpt lat="37.83192729073568" lon="14.752832220842903"><ele>848.0</ele><time>2026-04-12T09:54:51.77Z</time></trkpt><trkpt lat="37.83198977603571" lon="14.753073774926985"><ele>848.0</ele><time>2026-04-12T09:54:52.77Z</time></trkpt><trkpt lat="37.83204304653485" lon="14.753287749861938"><ele>848.0</ele><time>2026-04-12T09:54:53.77Z</time></trkpt><trkpt lat="37.83213843390943" lon="14.753451654432315"><ele>848.0</ele><time>2026-04-12T09:54:54.769Z</time></trkpt><trkpt lat="37.83226320092583" lon="14.753580211012082"><ele>849.0</ele><time>2026-04-12T09:54:55.769Z</time></trkpt><trkpt lat="37.83242382514879" lon="14.753660343029166"><ele>850.0</ele><time>2026-04-12T09:54:56.769Z</time></trkpt><trkpt lat="37.83258654974551" lon="14.753746121287408"><ele>851.0</ele><time>2026-04-12T09:54:57.769Z</time></trkpt><trkpt lat="37.83264594349621" lon="14.753892700271605"><ele>851.0</ele><time>2026-04-12T09:54:58.769Z</time></trkpt><trkpt lat="37.832695688341516" lon="14.754107533382165"><ele>851.0</ele><time>2026-04-12T09:54:59.769Z</time></trkpt><trkpt lat="37.83273712688187" lon="14.754352679493959"><ele>851.0</ele><time>2026-04-12T09:55:00.769Z</time></trkpt><trkpt lat="37.83276114143123" lon="14.75459391024853"><ele>850.6666666666667</ele><time>2026-04-12T09:55:01.769Z</time></trkpt><trkpt lat="37.83278692095802" lon="14.754826796029697"><ele>850.3333333333333</ele><time>2026-04-12T09:55:02.769Z</time></trkpt><trkpt lat="37.832811757819705" lon="14.755046673745616"><ele>850.0</ele><time>2026-04-12T09:55:03.769Z</time></trkpt><trkpt lat="37.83285616891176" lon="14.755261498492187"><ele>845.3333333333333</ele><time>2026-04-12T09:55:04.769Z</time></trkpt><trkpt lat="37.83290989329506" lon="14.755487445586748"><ele>840.6666666666667</ele><time>2026-04-12T09:55:05.769Z</time></trkpt><trkpt lat="37.832994867948194" lon="14.755689366725115"><ele>836.0</ele><time>2026-04-12T09:55:06.769Z</time></trkpt><trkpt lat="37.83307995129161" lon="14.755883590483082"><ele>834.5</ele><time>2026-04-12T09:55:07.769Z</time></trkpt><trkpt lat="37.833141299762644" lon="14.756066032717516"><ele>833.0</ele><time>2026-04-12T09:55:08.769Z</time></trkpt><trkpt lat="37.83317180064933" lon="14.756242949813661"><ele>831.5</ele><time>2026-04-12T09:55:09.769Z</time></trkpt><trkpt lat="37.83316832467711" lon="14.756432302892577"><ele>830.0</ele><time>2026-04-12T09:55:10.769Z</time></trkpt><trkpt lat="37.83312792466295" lon="14.756663807845511"><ele>830.6666666666667</ele><time>2026-04-12T09:55:11.769Z</time></trkpt><trkpt lat="37.83308568187729" lon="14.75691680912811"><ele>831.3333333333333</ele><time>2026-04-12T09:55:12.771Z</time></trkpt><trkpt lat="37.83303903341918" lon="14.75719199529515"><ele>832.0</ele><time>2026-04-12T09:55:13.771Z</time></trkpt><trkpt lat="37.83299469721292" lon="14.757441338551677"><ele>832.0</ele><time>2026-04-12T09:55:14.77Z</time></trkpt><trkpt lat="37.832953761198844" lon="14.757668575879903"><ele>832.0</ele><time>2026-04-12T09:55:15.771Z</time></trkpt><trkpt lat="37.83292711060555" lon="14.757879104760374"><ele>832.0</ele><time>2026-04-12T09:55:16.771Z</time></trkpt><trkpt lat="37.83289151365176" lon="14.758069609223885"><ele>832.25</ele><time>2026-04-12T09:55:17.771Z</time></trkpt><trkpt lat="37.83285808213533" lon="14.758248371998363"><ele>832.5</ele><time>2026-04-12T09:55:18.77Z</time></trkpt><trkpt lat="37.83283540346234" lon="14.758427217887641"><ele>832.75</ele><time>2026-04-12T09:55:19.77Z</time></trkpt><trkpt lat="37.83284154874846" lon="14.758615403045127"><ele>833.0</ele><time>2026-04-12T09:55:20.77Z</time></trkpt><trkpt lat="37.832890306914685" lon="14.758808639387478"><ele>832.75</ele><time>2026-04-12T09:55:21.77Z</time></trkpt><trkpt lat="37.8329385642552" lon="14.758995535899647"><ele>832.5</ele><time>2026-04-12T09:55:22.77Z</time></trkpt><trkpt lat="37.832981446049004" lon="14.759171931166176"><ele>832.25</ele><time>2026-04-12T09:55:23.77Z</time></trkpt><trkpt lat="37.833013265028235" lon="14.759339315996968"><ele>832.0</ele><time>2026-04-12T09:55:24.77Z</time></trkpt><trkpt lat="37.83302445312605" lon="14.759473729904315"><ele>832.0</ele><time>2026-04-12T09:55:25.77Z</time></trkpt><trkpt lat="37.833000747285375" lon="14.759617007916766"><ele>832.0</ele><time>2026-04-12T09:55:26.77Z</time></trkpt><trkpt lat="37.83293893957112" lon="14.759747588194811"><ele>832.0</ele><time>2026-04-12T09:55:27.77Z</time></trkpt><trkpt lat="37.83282864836027" lon="14.759843855159225"><ele>832.0</ele><time>2026-04-12T09:55:28.77Z</time></trkpt><trkpt lat="37.832718212372384" lon="14.759965135474816"><ele>828.5</ele><time>2026-04-12T09:55:29.77Z</time></trkpt><trkpt lat="37.8325960139303" lon="14.760071819159315"><ele>825.0</ele><time>2026-04-12T09:55:30.77Z</time></trkpt><trkpt lat="37.83248558017685" lon="14.76018137356125"><ele>821.5</ele><time>2026-04-12T09:55:31.77Z</time></trkpt><trkpt lat="37.832389475968945" lon="14.760315064732277"><ele>818.0</ele><time>2026-04-12T09:55:32.77Z</time></trkpt><trkpt lat="37.83231368811545" lon="14.760473982367127"><ele>818.0</ele><time>2026-04-12T09:55:33.77Z</time></trkpt><trkpt lat="37.83225414380971" lon="14.760640263291947"><ele>818.0</ele><time>2026-04-12T09:55:34.77Z</time></trkpt><trkpt lat="37.83219533910625" lon="14.76080317362539"><ele>818.0</ele><time>2026-04-12T09:55:35.77Z</time></trkpt><trkpt lat="37.832128220875994" lon="14.760944678027638"><ele>818.0</ele><time>2026-04-12T09:55:36.77Z</time></trkpt><trkpt lat="37.83203707625148" lon="14.761045533948124"><ele>817.75</ele><time>2026-04-12T09:55:37.77Z</time></trkpt><trkpt lat="37.83192712976396" lon="14.76107289004864"><ele>817.5</ele><time>2026-04-12T09:55:38.77Z</time></trkpt><trkpt lat="37.83181377367464" lon="14.761067507211147"><ele>817.25</ele><time>2026-04-12T09:55:39.77Z</time></trkpt><trkpt lat="37.83168275591884" lon="14.761064854286905"><ele>817.0</ele><time>2026-04-12T09:55:40.769Z</time></trkpt><trkpt lat="37.83156150931125" lon="14.761028471313276"><ele>814.5</ele><time>2026-04-12T09:55:41.769Z</time></trkpt><trkpt lat="37.831439189355" lon="14.761069635949712"><ele>812.0</ele><time>2026-04-12T09:55:42.769Z</time></trkpt><trkpt lat="37.83131638531318" lon="14.761134405849932"><ele>809.5</ele><time>2026-04-12T09:55:43.769Z</time></trkpt><trkpt lat="37.831217843072125" lon="14.761246734013172"><ele>807.0</ele><time>2026-04-12T09:55:44.769Z</time></trkpt><trkpt lat="37.83115859816429" lon="14.761407408862192"><ele>807.0</ele><time>2026-04-12T09:55:45.769Z</time></trkpt><trkpt lat="37.831138158749376" lon="14.7615881249029"><ele>807.0</ele><time>2026-04-12T09:55:46.769Z</time></trkpt><trkpt lat="37.83116840004118" lon="14.76177192168288"><ele>807.0</ele><time>2026-04-12T09:55:47.769Z</time></trkpt><trkpt lat="37.8312432666518" lon="14.761922617020716"><ele>807.0</ele><time>2026-04-12T09:55:48.769Z</time></trkpt><trkpt lat="37.83134789179907" lon="14.76205217015936"><ele>804.25</ele><time>2026-04-12T09:55:49.769Z</time></trkpt><trkpt lat="37.83146428043203" lon="14.7621500595005"><ele>801.5</ele><time>2026-04-12T09:55:50.769Z</time></trkpt><trkpt lat="37.831581484401994" lon="14.762230662025901"><ele>798.75</ele><time>2026-04-12T09:55:51.769Z</time></trkpt><trkpt lat="37.83169072601042" lon="14.762312065660133"><ele>796.0</ele><time>2026-04-12T09:55:52.769Z</time></trkpt><trkpt lat="37.83179448600559" lon="14.762394082647122"><ele>797.0</ele><time>2026-04-12T09:55:53.769Z</time></trkpt><trkpt lat="37.83189348655545" lon="14.762481909339702"><ele>798.0</ele><time>2026-04-12T09:55:54.769Z</time></trkpt><trkpt lat="37.83197195855617" lon="14.76258738662786"><ele>799.0</ele><time>2026-04-12T09:55:55.769Z</time></trkpt><trkpt lat="37.83201409645135" lon="14.762710720147913"><ele>800.0</ele><time>2026-04-12T09:55:56.769Z</time></trkpt><trkpt lat="37.83201881150982" lon="14.762853969226004"><ele>800.0</ele><time>2026-04-12T09:55:57.769Z</time></trkpt><trkpt lat="37.832007261953585" lon="14.763011122602535"><ele>800.0</ele><time>2026-04-12T09:55:58.769Z</time></trkpt><trkpt lat="37.83200427106668" lon="14.763161680663352"><ele>800.0</ele><time>2026-04-12T09:55:59.769Z</time></trkpt><trkpt lat="37.83200228787638" lon="14.763319345411084"><ele>800.0</ele><time>2026-04-12T09:56:00.768Z</time></trkpt><trkpt lat="37.8320181905332" lon="14.763478673442503"><ele>796.75</ele><time>2026-04-12T09:56:01.768Z</time></trkpt><trkpt lat="37.8320748883001" lon="14.763626428407475"><ele>793.5</ele><time>2026-04-12T09:56:02.768Z</time></trkpt><trkpt lat="37.832164766079636" lon="14.763762612472219"><ele>790.25</ele><time>2026-04-12T09:56:03.768Z</time></trkpt><trkpt lat="37.83229784166695" lon="14.763879939235547"><ele>787.0</ele><time>2026-04-12T09:56:04.768Z</time></trkpt><trkpt lat="37.83248179004496" lon="14.764003721391699"><ele>790.0</ele><time>2026-04-12T09:56:05.768Z</time></trkpt><trkpt lat="37.83268646821101" lon="14.764154621254423"><ele>793.0</ele><time>2026-04-12T09:56:06.768Z</time></trkpt><trkpt lat="37.83291744749187" lon="14.764324408759451"><ele>787.0</ele><time>2026-04-12T09:56:07.768Z</time></trkpt><trkpt lat="37.833148979666404" lon="14.76449587967612"><ele>781.0</ele><time>2026-04-12T09:56:08.768Z</time></trkpt><trkpt lat="37.83334100083039" lon="14.764662838194475"><ele>783.6666666666666</ele><time>2026-04-12T09:56:09.768Z</time></trkpt><trkpt lat="37.83349513562815" lon="14.76484085685941"><ele>786.3333333333333</ele><time>2026-04-12T09:56:10.768Z</time></trkpt><trkpt lat="37.833636674270444" lon="14.765022559279986"><ele>789.0</ele><time>2026-04-12T09:56:11.768Z</time></trkpt><trkpt lat="37.833745733734624" lon="14.76517947787912"><ele>782.6666666666667</ele><time>2026-04-12T09:56:12.768Z</time></trkpt><trkpt lat="37.83387530473931" lon="14.765295860334488"><ele>776.3333333333334</ele><time>2026-04-12T09:56:13.768Z</time></trkpt><trkpt lat="37.83404588384029" lon="14.765377083305664"><ele>770.0</ele><time>2026-04-12T09:56:14.768Z</time></trkpt><trkpt lat="37.834255604944985" lon="14.765415328090402"><ele>773.5</ele><time>2026-04-12T09:56:15.768Z</time></trkpt><trkpt lat="37.83450974799183" lon="14.765411256137146"><ele>777.0</ele><time>2026-04-12T09:56:16.768Z</time></trkpt><trkpt lat="37.83473308684113" lon="14.765418498523871"><ele>777.0</ele><time>2026-04-12T09:56:17.768Z</time></trkpt><trkpt lat="37.834913641519684" lon="14.765452757822231"><ele>777.0</ele><time>2026-04-12T09:56:18.768Z</time></trkpt><trkpt lat="37.83504641957165" lon="14.765526038615588"><ele>777.0</ele><time>2026-04-12T09:56:19.767Z</time></trkpt><trkpt lat="37.835150075254965" lon="14.765628928522503"><ele>781.5</ele><time>2026-04-12T09:56:20.767Z</time></trkpt><trkpt lat="37.83521418976541" lon="14.76574458008817"><ele>786.0</ele><time>2026-04-12T09:56:21.767Z</time></trkpt><trkpt lat="37.835207508429995" lon="14.765905569967668"><ele>790.5</ele><time>2026-04-12T09:56:22.767Z</time></trkpt><trkpt lat="37.83519299479179" lon="14.766099627247577"><ele>795.0</ele><time>2026-04-12T09:56:23.767Z</time></trkpt><trkpt lat="37.835179248539234" lon="14.766351857473722"><ele>796.0</ele><time>2026-04-12T09:56:24.767Z</time></trkpt><trkpt lat="37.835162369007115" lon="14.766643385575373"><ele>797.0</ele><time>2026-04-12T09:56:25.767Z</time></trkpt><trkpt lat="37.835143030280804" lon="14.766939137432145"><ele>791.0</ele><time>2026-04-12T09:56:26.767Z</time></trkpt><trkpt lat="37.83510697437979" lon="14.767190884989228"><ele>785.0</ele><time>2026-04-12T09:56:27.767Z</time></trkpt><trkpt lat="37.83502893833307" lon="14.767365819025548"><ele>779.0</ele><time>2026-04-12T09:56:28.767Z</time></trkpt><trkpt lat="37.834905394958646" lon="14.767515687505611"><ele>784.0</ele><time>2026-04-12T09:56:29.767Z</time></trkpt><trkpt lat="37.83475131231355" lon="14.767718066813345"><ele>789.0</ele><time>2026-04-12T09:56:30.767Z</time></trkpt><trkpt lat="37.83458770215574" lon="14.767948314863075"><ele>789.0</ele><time>2026-04-12T09:56:31.767Z</time></trkpt><trkpt lat="37.83443774885236" lon="14.768211497620035"><ele>789.0</ele><time>2026-04-12T09:56:32.767Z</time></trkpt><trkpt lat="37.83430086061084" lon="14.768454152906907"><ele>788.3333333333333</ele><time>2026-04-12T09:56:33.767Z</time></trkpt><trkpt lat="37.834149818785974" lon="14.768618158778542"><ele>787.6666666666666</ele><time>2026-04-12T09:56:34.767Z</time></trkpt><trkpt lat="37.83395977226379" lon="14.768736242536722"><ele>787.0</ele><time>2026-04-12T09:56:35.767Z</time></trkpt><trkpt lat="37.83377064564078" lon="14.76889960658939"><ele>787.0</ele><time>2026-04-12T09:56:36.767Z</time></trkpt><trkpt lat="37.833604514088044" lon="14.769070857008382"><ele>787.0</ele><time>2026-04-12T09:56:37.767Z</time></trkpt><trkpt lat="37.83345726633795" lon="14.769222871414046"><ele>787.0</ele><time>2026-04-12T09:56:38.766Z</time></trkpt><trkpt lat="37.83331978626719" lon="14.769317830161237"><ele>782.3333333333333</ele><time>2026-04-12T09:56:39.766Z</time></trkpt><trkpt lat="37.83318609178631" lon="14.769340900603577"><ele>777.6666666666667</ele><time>2026-04-12T09:56:40.766Z</time></trkpt><trkpt lat="37.83304381129257" lon="14.769296580593766"><ele>773.0</ele><time>2026-04-12T09:56:41.766Z</time></trkpt><trkpt lat="37.83284060102876" lon="14.769237020570454"><ele>770.5</ele><time>2026-04-12T09:56:42.766Z</time></trkpt><trkpt lat="37.83262118469982" lon="14.769188878949556"><ele>768.0</ele><time>2026-04-12T09:56:43.766Z</time></trkpt><trkpt lat="37.83239365657081" lon="14.769190282545265"><ele>768.0</ele><time>2026-04-12T09:56:44.766Z</time></trkpt><trkpt lat="37.83215280723664" lon="14.769196560441214"><ele>768.0</ele><time>2026-04-12T09:56:45.766Z</time></trkpt><trkpt lat="37.83193610837669" lon="14.76921049803525"><ele>767.0</ele><time>2026-04-12T09:56:46.766Z</time></trkpt><trkpt lat="37.83176970630738" lon="14.769210820461906"><ele>766.0</ele><time>2026-04-12T09:56:47.766Z</time></trkpt><trkpt lat="37.83165723997225" lon="14.769229901194132"><ele>765.0</ele><time>2026-04-12T09:56:48.766Z</time></trkpt><trkpt lat="37.8315558570639" lon="14.769295892311504"><ele>764.0</ele><time>2026-04-12T09:56:49.766Z</time></trkpt><trkpt lat="37.83147342474825" lon="14.769449604034422"><ele>768.3333333333333</ele><time>2026-04-12T09:56:50.766Z</time></trkpt><trkpt lat="37.831443594903895" lon="14.769656582876623"><ele>772.6666666666666</ele><time>2026-04-12T09:56:51.766Z</time></trkpt><trkpt lat="37.83143216629608" lon="14.769899919366637"><ele>777.0</ele><time>2026-04-12T09:56:52.766Z</time></trkpt><trkpt lat="37.8314174530463" lon="14.770204721605081"><ele>777.5</ele><time>2026-04-12T09:56:53.766Z</time></trkpt><trkpt lat="37.83138108733937" lon="14.77049108414614"><ele>778.0</ele><time>2026-04-12T09:56:54.766Z</time></trkpt><trkpt lat="37.83132114235853" lon="14.77078032834056"><ele>777.5</ele><time>2026-04-12T09:56:55.766Z</time></trkpt><trkpt lat="37.83127377631978" lon="14.771064684607989"><ele>777.0</ele><time>2026-04-12T09:56:56.766Z</time></trkpt><trkpt lat="37.83122519204238" lon="14.771367518618595"><ele>777.0</ele><time>2026-04-12T09:56:57.765Z</time></trkpt><trkpt lat="37.8311786339522" lon="14.771659936592805"><ele>777.0</ele><time>2026-04-12T09:56:58.765Z</time></trkpt><trkpt lat="37.8311453013301" lon="14.771931903018478"><ele>777.0</ele><time>2026-04-12T09:56:59.765Z</time></trkpt><trkpt lat="37.83113249210012" lon="14.77219948990797"><ele>777.0</ele><time>2026-04-12T09:57:00.765Z</time></trkpt><trkpt lat="37.831136808451916" lon="14.772472737512112"><ele>777.0</ele><time>2026-04-12T09:57:01.765Z</time></trkpt><trkpt lat="37.8311326180578" lon="14.77274425594554"><ele>777.0</ele><time>2026-04-12T09:57:02.765Z</time></trkpt><trkpt lat="37.83105832376817" lon="14.77297193306373"><ele>777.0</ele><time>2026-04-12T09:57:03.765Z</time></trkpt><trkpt lat="37.83099055963192" lon="14.773214515885249"><ele>777.0</ele><time>2026-04-12T09:57:04.765Z</time></trkpt><trkpt lat="37.83095276967919" lon="14.773481027735675"><ele>763.0</ele><time>2026-04-12T09:57:05.765Z</time></trkpt><trkpt lat="37.83092698622242" lon="14.773752239136007"><ele>749.0</ele><time>2026-04-12T09:57:06.765Z</time></trkpt><trkpt lat="37.83097033936038" lon="14.774064099362365"><ele>758.0</ele><time>2026-04-12T09:57:07.765Z</time></trkpt><trkpt lat="37.83101631515184" lon="14.774409483550015"><ele>767.0</ele><time>2026-04-12T09:57:08.765Z</time></trkpt><trkpt lat="37.83104453356945" lon="14.774722627102383"><ele>767.0</ele><time>2026-04-12T09:57:09.766Z</time></trkpt><trkpt lat="37.83105514053458" lon="14.775000041448232"><ele>767.0</ele><time>2026-04-12T09:57:10.766Z</time></trkpt><trkpt lat="37.8310184592263" lon="14.77524269045269"><ele>767.0</ele><time>2026-04-12T09:57:11.766Z</time></trkpt><trkpt lat="37.83095688940898" lon="14.775439393738914"><ele>761.6666666666666</ele><time>2026-04-12T09:57:12.767Z</time></trkpt><trkpt lat="37.830859079242" lon="14.77559380550091"><ele>756.3333333333334</ele><time>2026-04-12T09:57:13.767Z</time></trkpt><trkpt lat="37.830719388470094" lon="14.775756276999294"><ele>751.0</ele><time>2026-04-12T09:57:14.767Z</time></trkpt><trkpt lat="37.83055835352573" lon="14.775937921837503"><ele>753.0</ele><time>2026-04-12T09:57:15.767Z</time></trkpt><trkpt lat="37.83042101163193" lon="14.776122408862959"><ele>755.0</ele><time>2026-04-12T09:57:16.768Z</time></trkpt><trkpt lat="37.8303065463982" lon="14.776320636406124"><ele>757.0</ele><time>2026-04-12T09:57:17.768Z</time></trkpt><trkpt lat="37.830203497653514" lon="14.77654379102076"><ele>757.0</ele><time>2026-04-12T09:57:18.771Z</time></trkpt><trkpt lat="37.830146971608436" lon="14.776788204434004"><ele>757.0</ele><time>2026-04-12T09:57:19.771Z</time></trkpt><trkpt lat="37.83015132659806" lon="14.777052999275242"><ele>757.0</ele><time>2026-04-12T09:57:20.771Z</time></trkpt><trkpt lat="37.830180706133945" lon="14.777310218999528"><ele>757.0</ele><time>2026-04-12T09:57:21.771Z</time></trkpt><trkpt lat="37.830212805149685" lon="14.777549550053475"><ele>757.0</ele><time>2026-04-12T09:57:22.771Z</time></trkpt><trkpt lat="37.83021638045287" lon="14.777753914311928"><ele>757.0</ele><time>2026-04-12T09:57:23.771Z</time></trkpt><trkpt lat="37.830158658534806" lon="14.777923377251595"><ele>751.75</ele><time>2026-04-12T09:57:24.771Z</time></trkpt><trkpt lat="37.83009161050619" lon="14.778065528043307"><ele>746.5</ele><time>2026-04-12T09:57:25.771Z</time></trkpt><trkpt lat="37.82996745241236" lon="14.778164388540999"><ele>741.25</ele><time>2026-04-12T09:57:26.771Z</time></trkpt><trkpt lat="37.82982610107417" lon="14.778206868063767"><ele>736.0</ele><time>2026-04-12T09:57:27.771Z</time></trkpt><trkpt lat="37.82965887701928" lon="14.77821411330726"><ele>736.0</ele><time>2026-04-12T09:57:28.771Z</time></trkpt><trkpt lat="37.82945103502756" lon="14.77820971853021"><ele>736.0</ele><time>2026-04-12T09:57:29.771Z</time></trkpt><trkpt lat="37.829221073242344" lon="14.77821307868728"><ele>736.0</ele><time>2026-04-12T09:57:30.772Z</time></trkpt><trkpt lat="37.82903482015745" lon="14.778337593849903"><ele>737.3333333333334</ele><time>2026-04-12T09:57:31.772Z</time></trkpt><trkpt lat="37.82886190803513" lon="14.778458423810527"><ele>738.6666666666666</ele><time>2026-04-12T09:57:32.772Z</time></trkpt><trkpt lat="37.82868328706115" lon="14.77856498463807"><ele>740.0</ele><time>2026-04-12T09:57:33.772Z</time></trkpt><trkpt lat="37.82847225051346" lon="14.778598578715876"><ele>735.5</ele><time>2026-04-12T09:57:34.772Z</time></trkpt><trkpt lat="37.82822848784562" lon="14.778666786479567"><ele>731.0</ele><time>2026-04-12T09:57:35.772Z</time></trkpt><trkpt lat="37.82797862544146" lon="14.778691948924566"><ele>731.0</ele><time>2026-04-12T09:57:36.772Z</time></trkpt><trkpt lat="37.82776112301619" lon="14.778724562140209"><ele>731.0</ele><time>2026-04-12T09:57:37.772Z</time></trkpt><trkpt lat="37.827564761021" lon="14.778752397195568"><ele>731.0</ele><time>2026-04-12T09:57:38.772Z</time></trkpt><trkpt lat="37.82738705176917" lon="14.778781542219619"><ele>732.25</ele><time>2026-04-12T09:57:39.772Z</time></trkpt><trkpt lat="37.8272457196446" lon="14.77882453301886"><ele>733.5</ele><time>2026-04-12T09:57:40.772Z</time></trkpt><trkpt lat="37.82714495158154" lon="14.77889299130804"><ele>734.75</ele><time>2026-04-12T09:57:41.772Z</time></trkpt><trkpt lat="37.82705818548358" lon="14.778950042814769"><ele>736.0</ele><time>2026-04-12T09:57:42.772Z</time></trkpt><trkpt lat="37.8270102227985" lon="14.779084550995767"><ele>736.0</ele><time>2026-04-12T09:57:43.772Z</time></trkpt><trkpt lat="37.82708016930617" lon="14.779260370793313"><ele>736.0</ele><time>2026-04-12T09:57:44.772Z</time></trkpt><trkpt lat="37.827088912899484" lon="14.77941041150791"><ele>736.0</ele><time>2026-04-12T09:57:45.772Z</time></trkpt><trkpt lat="37.827091408000044" lon="14.779568966165028"><ele>736.0</ele><time>2026-04-12T09:57:46.772Z</time></trkpt><trkpt lat="37.82708474017791" lon="14.77971891358131"><ele>733.0</ele><time>2026-04-12T09:57:47.772Z</time></trkpt><trkpt lat="37.827081405371466" lon="14.779860184516664"><ele>730.0</ele><time>2026-04-12T09:57:48.772Z</time></trkpt><trkpt lat="37.82707806337506" lon="14.779999086694163"><ele>727.0</ele><time>2026-04-12T09:57:49.772Z</time></trkpt><trkpt lat="37.827076520596854" lon="14.780141601835652"><ele>724.0</ele><time>2026-04-12T09:57:50.772Z</time></trkpt><trkpt lat="37.82708031144248" lon="14.780308099260502"><ele>722.25</ele><time>2026-04-12T09:57:51.772Z</time></trkpt><trkpt lat="37.827075977254935" lon="14.780484605921918"><ele>720.5</ele><time>2026-04-12T09:57:52.772Z</time></trkpt><trkpt lat="37.827082239512364" lon="14.780644273362027"><ele>718.75</ele><time>2026-04-12T09:57:53.772Z</time></trkpt><trkpt lat="37.82710212496113" lon="14.780787024165473"><ele>717.0</ele><time>2026-04-12T09:57:54.772Z</time></trkpt><trkpt lat="37.82711934113938" lon="14.78090776284155"><ele>716.8</ele><time>2026-04-12T09:57:55.772Z</time></trkpt><trkpt lat="37.82712456197906" lon="14.781031809860135"><ele>716.6</ele><time>2026-04-12T09:57:56.772Z</time></trkpt><trkpt lat="37.82715300230296" lon="14.781150383498185"><ele>716.4</ele><time>2026-04-12T09:57:57.772Z</time></trkpt><trkpt lat="37.82715190709765" lon="14.781268790468891"><ele>716.1999999999999</ele><time>2026-04-12T09:57:58.772Z</time></trkpt><trkpt lat="37.82715733639852" lon="14.781384285260888"><ele>716.0</ele><time>2026-04-12T09:57:59.772Z</time></trkpt><trkpt lat="37.82716149301404" lon="14.781493042437944"><ele>716.0</ele><time>2026-04-12T09:58:00.772Z</time></trkpt><trkpt lat="37.82717147807516" lon="14.781597143355498"><ele>716.0</ele><time>2026-04-12T09:58:01.772Z</time></trkpt><trkpt lat="37.82717309462914" lon="14.781705652913569"><ele>716.0</ele><time>2026-04-12T09:58:02.772Z</time></trkpt><trkpt lat="37.82718013127549" lon="14.78183322040564"><ele>716.0</ele><time>2026-04-12T09:58:03.772Z</time></trkpt><trkpt lat="37.82719430658407" lon="14.781973976708976"><ele>716.0</ele><time>2026-04-12T09:58:04.772Z</time></trkpt><trkpt lat="37.82718873108291" lon="14.782105538483943"><ele>715.6666666666666</ele><time>2026-04-12T09:58:05.772Z</time></trkpt><trkpt lat="37.82718685917516" lon="14.782235811477603"><ele>715.3333333333333</ele><time>2026-04-12T09:58:06.772Z</time></trkpt><trkpt lat="37.827183159709776" lon="14.782346108089259"><ele>715.0</ele><time>2026-04-12T09:58:07.772Z</time></trkpt><trkpt lat="37.82718012348081" lon="14.782432640141552"><ele>714.6666666666666</ele><time>2026-04-12T09:58:08.772Z</time></trkpt><trkpt lat="37.82717449027012" lon="14.78251575081654"><ele>714.3333333333334</ele><time>2026-04-12T09:58:09.772Z</time></trkpt><trkpt lat="37.82715058168395" lon="14.782670910894584"><ele>714.0</ele><time>2026-04-12T09:58:11.771Z</time></trkpt><trkpt lat="37.82712932429236" lon="14.782752117650139"><ele>713.0</ele><time>2026-04-12T09:58:12.771Z</time></trkpt><trkpt lat="37.827102834553855" lon="14.782835125366612"><ele>712.0</ele><time>2026-04-12T09:58:13.771Z</time></trkpt><trkpt lat="37.82707307690404" lon="14.78291119615049"><ele>711.0</ele><time>2026-04-12T09:58:14.771Z</time></trkpt><trkpt lat="37.82701869561734" lon="14.783032988875933"><ele>710.0</ele><time>2026-04-12T09:58:16.771Z</time></trkpt><trkpt lat="37.82700197060462" lon="14.783190446130163"><ele>709.0</ele><time>2026-04-12T09:58:18.771Z</time></trkpt><trkpt lat="37.82704811060915" lon="14.783260806890587"><ele>708.0</ele><time>2026-04-12T09:58:19.771Z</time></trkpt><trkpt lat="37.827126943348944" lon="14.783336155692599"><ele>708.0</ele><time>2026-04-12T09:58:20.771Z</time></trkpt><trkpt lat="37.82720637620186" lon="14.783374060148077"><ele>708.0</ele><time>2026-04-12T09:58:21.771Z</time></trkpt><trkpt lat="37.82728608050363" lon="14.783332819364562"><ele>708.0</ele><time>2026-04-12T09:58:22.771Z</time></trkpt><trkpt lat="37.82734915015861" lon="14.783278948883913"><ele>708.0</ele><time>2026-04-12T09:58:23.771Z</time></trkpt><trkpt lat="37.82738906572638" lon="14.78319889709792"><ele>708.0</ele><time>2026-04-12T09:58:24.771Z</time></trkpt><trkpt lat="37.827416697646235" lon="14.783104942722327"><ele>708.0</ele><time>2026-04-12T09:58:25.771Z</time></trkpt><trkpt lat="37.827424193564894" lon="14.783011236981224"><ele>708.0</ele><time>2026-04-12T09:58:26.771Z</time></trkpt><trkpt lat="37.82743567928042" lon="14.782910117308804"><ele>708.0</ele><time>2026-04-12T09:58:27.771Z</time></trkpt><trkpt lat="37.82746669638188" lon="14.782780818070087"><ele>708.0</ele><time>2026-04-12T09:58:28.771Z</time></trkpt><trkpt lat="37.827497209182354" lon="14.782619038291575"><ele>708.0</ele><time>2026-04-12T09:58:29.771Z</time></trkpt><trkpt lat="37.827536641343194" lon="14.782459719007624"><ele>709.5</ele><time>2026-04-12T09:58:30.771Z</time></trkpt><trkpt lat="37.827590213931174" lon="14.782320720174686"><ele>711.0</ele><time>2026-04-12T09:58:31.77Z</time></trkpt><trkpt lat="37.82769792747043" lon="14.782217701501713"><ele>712.5</ele><time>2026-04-12T09:58:32.77Z</time></trkpt><trkpt lat="37.82784039675778" lon="14.782182795856816"><ele>714.0</ele><time>2026-04-12T09:58:33.77Z</time></trkpt><trkpt lat="37.82798699390433" lon="14.782205553996397"><ele>710.5</ele><time>2026-04-12T09:58:34.77Z</time></trkpt><trkpt lat="37.828115008183914" lon="14.782302080769975"><ele>707.0</ele><time>2026-04-12T09:58:35.77Z</time></trkpt><trkpt lat="37.82818575705182" lon="14.782414114000932"><ele>703.5</ele><time>2026-04-12T09:58:36.77Z</time></trkpt><trkpt lat="37.82820820510902" lon="14.782553954398779"><ele>700.0</ele><time>2026-04-12T09:58:37.77Z</time></trkpt><trkpt lat="37.82819966542847" lon="14.782743535811546"><ele>697.0</ele><time>2026-04-12T09:58:38.77Z</time></trkpt><trkpt lat="37.82807435734187" lon="14.783023094220471"><ele>694.0</ele><time>2026-04-12T09:58:40.77Z</time></trkpt><trkpt lat="37.82798006565776" lon="14.783274232463034"><ele>689.0</ele><time>2026-04-12T09:58:41.77Z</time></trkpt><trkpt lat="37.82790281308981" lon="14.783556088337487"><ele>684.0</ele><time>2026-04-12T09:58:42.77Z</time></trkpt><trkpt lat="37.82780643375688" lon="14.78381118506044"><ele>684.0</ele><time>2026-04-12T09:58:43.77Z</time></trkpt><trkpt lat="37.82774072904091" lon="14.784052293802645"><ele>684.0</ele><time>2026-04-12T09:58:44.77Z</time></trkpt><trkpt lat="37.827682815745376" lon="14.784279789859639"><ele>684.0</ele><time>2026-04-12T09:58:45.77Z</time></trkpt><trkpt lat="37.82765614143393" lon="14.784480167328125"><ele>683.75</ele><time>2026-04-12T09:58:46.77Z</time></trkpt><trkpt lat="37.82762571003219" lon="14.784654372639231"><ele>683.5</ele><time>2026-04-12T09:58:47.77Z</time></trkpt><trkpt lat="37.827639352505024" lon="14.784792590377188"><ele>683.25</ele><time>2026-04-12T09:58:48.77Z</time></trkpt><trkpt lat="37.827722709343085" lon="14.784900327599278"><ele>683.0</ele><time>2026-04-12T09:58:49.77Z</time></trkpt><trkpt lat="37.82784552388253" lon="14.784942581942682"><ele>683.0</ele><time>2026-04-12T09:58:50.77Z</time></trkpt><trkpt lat="37.827978711536105" lon="14.784934566434428"><ele>683.0</ele><time>2026-04-12T09:58:51.77Z</time></trkpt><trkpt lat="37.82811072271717" lon="14.784799699642386"><ele>683.0</ele><time>2026-04-12T09:58:52.769Z</time></trkpt><trkpt lat="37.82821756460042" lon="14.784602471374003"><ele>683.0</ele><time>2026-04-12T09:58:53.769Z</time></trkpt><trkpt lat="37.82832594625395" lon="14.78435863346175"><ele>683.0</ele><time>2026-04-12T09:58:54.769Z</time></trkpt><trkpt lat="37.82844748252826" lon="14.78412636919906"><ele>683.0</ele><time>2026-04-12T09:58:55.769Z</time></trkpt><trkpt lat="37.82858863871559" lon="14.783885876638529"><ele>680.5</ele><time>2026-04-12T09:58:56.769Z</time></trkpt><trkpt lat="37.82874100613732" lon="14.783627078232545"><ele>678.0</ele><time>2026-04-12T09:58:57.769Z</time></trkpt><trkpt lat="37.828889769147324" lon="14.783377485188767"><ele>678.0</ele><time>2026-04-12T09:58:58.769Z</time></trkpt><trkpt lat="37.82902438104733" lon="14.783145208572252"><ele>678.0</ele><time>2026-04-12T09:58:59.769Z</time></trkpt><trkpt lat="37.829149315984004" lon="14.782918908897257"><ele>678.0</ele><time>2026-04-12T09:59:00.769Z</time></trkpt><trkpt lat="37.82926893931089" lon="14.782707220681528"><ele>677.6666666666666</ele><time>2026-04-12T09:59:01.769Z</time></trkpt><trkpt lat="37.82944216919152" lon="14.782562606425742"><ele>677.3333333333333</ele><time>2026-04-12T09:59:02.769Z</time></trkpt><trkpt lat="37.82957098580057" lon="14.782525817643325"><ele>677.0</ele><time>2026-04-12T09:59:03.769Z</time></trkpt><trkpt lat="37.82969372915494" lon="14.782523339952407"><ele>677.0</ele><time>2026-04-12T09:59:04.769Z</time></trkpt><trkpt lat="37.82980950167879" lon="14.782603044075813"><ele>677.0</ele><time>2026-04-12T09:59:05.769Z</time></trkpt><trkpt lat="37.82995897438922" lon="14.782705130111607"><ele>677.0</ele><time>2026-04-12T09:59:06.769Z</time></trkpt><trkpt lat="37.830100377868376" lon="14.78284656710727"><ele>679.0</ele><time>2026-04-12T09:59:07.769Z</time></trkpt><trkpt lat="37.83021068619084" lon="14.782999709066697"><ele>681.0</ele><time>2026-04-12T09:59:08.769Z</time></trkpt><trkpt lat="37.830230240458" lon="14.783171929123123"><ele>683.0</ele><time>2026-04-12T09:59:09.769Z</time></trkpt><trkpt lat="37.8302272470852" lon="14.783399152987272"><ele>679.5</ele><time>2026-04-12T09:59:10.769Z</time></trkpt><trkpt lat="37.83025975942605" lon="14.783695385839449"><ele>676.0</ele><time>2026-04-12T09:59:11.768Z</time></trkpt><trkpt lat="37.83032994466855" lon="14.784005060358913"><ele>676.0</ele><time>2026-04-12T09:59:12.768Z</time></trkpt><trkpt lat="37.83044537153949" lon="14.784339037320743"><ele>676.0</ele><time>2026-04-12T09:59:13.768Z</time></trkpt><trkpt lat="37.83053847668781" lon="14.784697062126384"><ele>672.5</ele><time>2026-04-12T09:59:14.768Z</time></trkpt><trkpt lat="37.830641268001756" lon="14.785042163275023"><ele>669.0</ele><time>2026-04-12T09:59:15.768Z</time></trkpt><trkpt lat="37.83073130576747" lon="14.785342929274645"><ele>666.0</ele><time>2026-04-12T09:59:16.768Z</time></trkpt><trkpt lat="37.83082864091796" lon="14.78560256217192"><ele>663.0</ele><time>2026-04-12T09:59:17.768Z</time></trkpt><trkpt lat="37.83090812571747" lon="14.7858487615051"><ele>660.0</ele><time>2026-04-12T09:59:18.768Z</time></trkpt><trkpt lat="37.83101571011173" lon="14.786091322198969"><ele>660.0</ele><time>2026-04-12T09:59:19.768Z</time></trkpt><trkpt lat="37.83116936927062" lon="14.786334698867066"><ele>660.0</ele><time>2026-04-12T09:59:20.768Z</time></trkpt><trkpt lat="37.83135693012768" lon="14.786581914885343"><ele>660.0</ele><time>2026-04-12T09:59:21.768Z</time></trkpt><trkpt lat="37.831574062370514" lon="14.786776643691416"><ele>660.0</ele><time>2026-04-12T09:59:22.768Z</time></trkpt><trkpt lat="37.831758159686345" lon="14.78693018951444"><ele>662.6666666666666</ele><time>2026-04-12T09:59:23.768Z</time></trkpt><trkpt lat="37.83184540693513" lon="14.787113818998936"><ele>665.3333333333333</ele><time>2026-04-12T09:59:24.77Z</time></trkpt><trkpt lat="37.83188648385331" lon="14.787312745156672"><ele>668.0</ele><time>2026-04-12T09:59:25.77Z</time></trkpt><trkpt lat="37.83195520615514" lon="14.787564224588579"><ele>658.5</ele><time>2026-04-12T09:59:26.77Z</time></trkpt><trkpt lat="37.83205442963438" lon="14.787837997273959"><ele>649.0</ele><time>2026-04-12T09:59:27.77Z</time></trkpt><trkpt lat="37.83219078528786" lon="14.788087998383324"><ele>649.0</ele><time>2026-04-12T09:59:28.77Z</time></trkpt><trkpt lat="37.83233192437369" lon="14.788308000286374"><ele>649.0</ele><time>2026-04-12T09:59:29.77Z</time></trkpt><trkpt lat="37.832511220089415" lon="14.788486271083702"><ele>643.0</ele><time>2026-04-12T09:59:30.769Z</time></trkpt><trkpt lat="37.832711873769135" lon="14.788662572309889"><ele>637.0</ele><time>2026-04-12T09:59:31.77Z</time></trkpt><trkpt lat="37.83294143183298" lon="14.788818759596266"><ele>637.0</ele><time>2026-04-12T09:59:32.77Z</time></trkpt><trkpt lat="37.833205593043665" lon="14.788924657567957"><ele>637.0</ele><time>2026-04-12T09:59:33.77Z</time></trkpt><trkpt lat="37.83346487619055" lon="14.789008063020816"><ele>636.6666666666667</ele><time>2026-04-12T09:59:34.77Z</time></trkpt><trkpt lat="37.83369841143312" lon="14.789029297433819"><ele>636.3333333333334</ele><time>2026-04-12T09:59:35.77Z</time></trkpt><trkpt lat="37.83389937380364" lon="14.789032021624548"><ele>636.0</ele><time>2026-04-12T09:59:36.769Z</time></trkpt><trkpt lat="37.8340779269819" lon="14.789023503229648"><ele>636.0</ele><time>2026-04-12T09:59:37.77Z</time></trkpt><trkpt lat="37.83424420964146" lon="14.789014542338382"><ele>636.0</ele><time>2026-04-12T09:59:38.77Z</time></trkpt><trkpt lat="37.83438823119061" lon="14.789009017090736"><ele>636.0</ele><time>2026-04-12T09:59:39.77Z</time></trkpt><trkpt lat="37.83449549814825" lon="14.789041742293838"><ele>636.0</ele><time>2026-04-12T09:59:40.77Z</time></trkpt><trkpt lat="37.834575864829034" lon="14.789069579631624"><ele>635.5</ele><time>2026-04-12T09:59:41.769Z</time></trkpt><trkpt lat="37.83458918286579" lon="14.789188005469711"><ele>635.0</ele><time>2026-04-12T09:59:42.769Z</time></trkpt><trkpt lat="37.83457568405193" lon="14.789276145005681"><ele>634.5</ele><time>2026-04-12T09:59:43.769Z</time></trkpt><trkpt lat="37.8344733197837" lon="14.78938144523657"><ele>634.0</ele><time>2026-04-12T09:59:44.769Z</time></trkpt><trkpt lat="37.83431025142741" lon="14.789375462843251"><ele>629.6666666666667</ele><time>2026-04-12T09:59:45.769Z</time></trkpt><trkpt lat="37.83410539071319" lon="14.78942118380672"><ele>625.3333333333334</ele><time>2026-04-12T09:59:46.769Z</time></trkpt><trkpt lat="37.83389845299033" lon="14.789517578794184"><ele>621.0</ele><time>2026-04-12T09:59:47.769Z</time></trkpt><trkpt lat="37.83369208774226" lon="14.789645264970117"><ele>621.0</ele><time>2026-04-12T09:59:48.769Z</time></trkpt><trkpt lat="37.8334934185494" lon="14.789832308973834"><ele>621.0</ele><time>2026-04-12T09:59:49.769Z</time></trkpt><trkpt lat="37.833291689029416" lon="14.790066301581472"><ele>618.5</ele><time>2026-04-12T09:59:50.769Z</time></trkpt><trkpt lat="37.83311382845637" lon="14.7902925686386"><ele>616.0</ele><time>2026-04-12T09:59:51.769Z</time></trkpt><trkpt lat="37.83296805506662" lon="14.790501439165599"><ele>616.0</ele><time>2026-04-12T09:59:52.769Z</time></trkpt><trkpt lat="37.832852381796506" lon="14.790736477358418"><ele>616.0</ele><time>2026-04-12T09:59:53.769Z</time></trkpt><trkpt lat="37.83278745460734" lon="14.790994267307033"><ele>616.0</ele><time>2026-04-12T09:59:54.769Z</time></trkpt><trkpt lat="37.832773571210325" lon="14.791274185980816"><ele>616.5</ele><time>2026-04-12T09:59:55.769Z</time></trkpt><trkpt lat="37.83280212614626" lon="14.791564855582278"><ele>617.0</ele><time>2026-04-12T09:59:56.769Z</time></trkpt><trkpt lat="37.83287582083871" lon="14.79187859386077"><ele>617.0</ele><time>2026-04-12T09:59:57.769Z</time></trkpt><trkpt lat="37.83297449292951" lon="14.792217144890751"><ele>617.0</ele><time>2026-04-12T09:59:58.769Z</time></trkpt><trkpt lat="37.83306911013319" lon="14.79258577674789"><ele>614.5</ele><time>2026-04-12T09:59:59.769Z</time></trkpt><trkpt lat="37.83314800320009" lon="14.792970778623644"><ele>612.0</ele><time>2026-04-12T10:00:00.768Z</time></trkpt><trkpt lat="37.8332210063937" lon="14.793371228081554"><ele>612.0</ele><time>2026-04-12T10:00:01.768Z</time></trkpt><trkpt lat="37.83329495802683" lon="14.793771946934324"><ele>612.0</ele><time>2026-04-12T10:00:02.768Z</time></trkpt><trkpt lat="37.83336773529116" lon="14.794169956325726"><ele>611.0</ele><time>2026-04-12T10:00:03.768Z</time></trkpt><trkpt lat="37.83344460755794" lon="14.794549113952087"><ele>610.0</ele><time>2026-04-12T10:00:04.768Z</time></trkpt><trkpt lat="37.83351910151903" lon="14.7948934044174"><ele>614.0</ele><time>2026-04-12T10:00:05.768Z</time></trkpt><trkpt lat="37.833585917940304" lon="14.795195980897189"><ele>618.0</ele><time>2026-04-12T10:00:06.768Z</time></trkpt><trkpt lat="37.833642283853806" lon="14.795487650899005"><ele>618.0</ele><time>2026-04-12T10:00:07.768Z</time></trkpt><trkpt lat="37.833692806187166" lon="14.795742422023269"><ele>618.0</ele><time>2026-04-12T10:00:08.768Z</time></trkpt><trkpt lat="37.833749261705854" lon="14.79597094672289"><ele>618.0</ele><time>2026-04-12T10:00:09.768Z</time></trkpt><trkpt lat="37.83383396311577" lon="14.796146813897579"><ele>622.3333333333334</ele><time>2026-04-12T10:00:10.768Z</time></trkpt><trkpt lat="37.83398375574888" lon="14.79626195947031"><ele>626.6666666666667</ele><time>2026-04-12T10:00:11.768Z</time></trkpt><trkpt lat="37.83418509049137" lon="14.796354502677042"><ele>631.0</ele><time>2026-04-12T10:00:12.768Z</time></trkpt><trkpt lat="37.83438190080395" lon="14.796408958933306"><ele>631.0</ele><time>2026-04-12T10:00:13.768Z</time></trkpt><trkpt lat="37.83459105512594" lon="14.796437301966998"><ele>631.0</ele><time>2026-04-12T10:00:14.768Z</time></trkpt><trkpt lat="37.83473251637117" lon="14.796440831103654"><ele>631.0</ele><time>2026-04-12T10:00:15.768Z</time></trkpt><trkpt lat="37.83483789332425" lon="14.796476147178996"><ele>631.0</ele><time>2026-04-12T10:00:16.768Z</time></trkpt><trkpt lat="37.834918624191296" lon="14.796504926831727"><ele>631.0</ele><time>2026-04-12T10:00:17.768Z</time></trkpt><trkpt lat="37.83504084316118" lon="14.796553290406315"><ele>631.0</ele><time>2026-04-12T10:00:19.768Z</time></trkpt><trkpt lat="37.8351261619357" lon="14.796586977525351"><ele>631.0</ele><time>2026-04-12T10:00:20.767Z</time></trkpt><trkpt lat="37.835224728249955" lon="14.796651556743589"><ele>631.0</ele><time>2026-04-12T10:00:21.767Z</time></trkpt><trkpt lat="37.8353421302902" lon="14.796723450512214"><ele>630.2</ele><time>2026-04-12T10:00:22.767Z</time></trkpt><trkpt lat="37.83546078644056" lon="14.796788022713436"><ele>629.4000000000001</ele><time>2026-04-12T10:00:23.767Z</time></trkpt><trkpt lat="37.835561752953645" lon="14.79685947360017"><ele>628.6</ele><time>2026-04-12T10:00:24.767Z</time></trkpt><trkpt lat="37.83564433529077" lon="14.796933245531582"><ele>627.8000000000001</ele><time>2026-04-12T10:00:25.767Z</time></trkpt><trkpt lat="37.835722845670354" lon="14.797012703225617"><ele>627.0</ele><time>2026-04-12T10:00:26.767Z</time></trkpt><trkpt lat="37.83578666536955" lon="14.79709843863423"><ele>627.8000000000001</ele><time>2026-04-12T10:00:27.767Z</time></trkpt><trkpt lat="37.83583444085732" lon="14.797207826799694"><ele>628.6</ele><time>2026-04-12T10:00:29.767Z</time></trkpt><trkpt lat="37.83588330494498" lon="14.797274571695196"><ele>629.4000000000001</ele><time>2026-04-12T10:00:30.767Z</time></trkpt><trkpt lat="37.83595265158412" lon="14.79738442309334"><ele>630.2</ele><time>2026-04-12T10:00:31.767Z</time></trkpt><trkpt lat="37.83604444751339" lon="14.79754122560439"><ele>631.0</ele><time>2026-04-12T10:00:32.767Z</time></trkpt><trkpt lat="37.8361509168816" lon="14.797713980356706"><ele>633.3333333333334</ele><time>2026-04-12T10:00:33.767Z</time></trkpt><trkpt lat="37.83625723495306" lon="14.797885557247113"><ele>635.6666666666666</ele><time>2026-04-12T10:00:34.767Z</time></trkpt><trkpt lat="37.83635712956012" lon="14.798046253021822"><ele>638.0</ele><time>2026-04-12T10:00:35.767Z</time></trkpt><trkpt lat="37.83646580871741" lon="14.798194766168605"><ele>638.0</ele><time>2026-04-12T10:00:36.767Z</time></trkpt><trkpt lat="37.83655587275885" lon="14.79836901056315"><ele>638.0</ele><time>2026-04-12T10:00:37.767Z</time></trkpt><trkpt lat="37.83666939556747" lon="14.79852940821065"><ele>638.0</ele><time>2026-04-12T10:00:38.767Z</time></trkpt><trkpt lat="37.83677198241789" lon="14.798712217636"><ele>638.3333333333333</ele><time>2026-04-12T10:00:39.767Z</time></trkpt><trkpt lat="37.8369045745455" lon="14.798927456728773"><ele>638.6666666666666</ele><time>2026-04-12T10:00:40.766Z</time></trkpt><trkpt lat="37.83704232699986" lon="14.799141612773841"><ele>639.0</ele><time>2026-04-12T10:00:41.766Z</time></trkpt><trkpt lat="37.83717885931843" lon="14.799382170971933"><ele>641.5</ele><time>2026-04-12T10:00:42.766Z</time></trkpt><trkpt lat="37.83734366767284" lon="14.79961882702146"><ele>644.0</ele><time>2026-04-12T10:00:43.766Z</time></trkpt><trkpt lat="37.8374848136243" lon="14.799862043425108"><ele>644.0</ele><time>2026-04-12T10:00:44.766Z</time></trkpt><trkpt lat="37.83761821404846" lon="14.800080399615663"><ele>644.0</ele><time>2026-04-12T10:00:45.766Z</time></trkpt><trkpt lat="37.83774464529541" lon="14.800296113556522"><ele>644.0</ele><time>2026-04-12T10:00:46.766Z</time></trkpt><trkpt lat="37.83788414774929" lon="14.80046534283224"><ele>645.0</ele><time>2026-04-12T10:00:47.766Z</time></trkpt><trkpt lat="37.83807027908347" lon="14.800599165506764"><ele>646.0</ele><time>2026-04-12T10:00:48.766Z</time></trkpt><trkpt lat="37.83829289505627" lon="14.800646134953896"><ele>647.0</ele><time>2026-04-12T10:00:49.766Z</time></trkpt><trkpt lat="37.83853190252609" lon="14.800638679732904"><ele>649.0</ele><time>2026-04-12T10:00:50.766Z</time></trkpt><trkpt lat="37.838795538651866" lon="14.800582499802255"><ele>651.0</ele><time>2026-04-12T10:00:51.766Z</time></trkpt><trkpt lat="37.839078597847454" lon="14.800512521084713"><ele>653.0</ele><time>2026-04-12T10:00:52.766Z</time></trkpt><trkpt lat="37.83935000996669" lon="14.80046173304551"><ele>655.0</ele><time>2026-04-12T10:00:53.766Z</time></trkpt><trkpt lat="37.83963202744905" lon="14.800420917825589"><ele>655.0</ele><time>2026-04-12T10:00:54.766Z</time></trkpt><trkpt lat="37.839918221751425" lon="14.80039100934629"><ele>655.0</ele><time>2026-04-12T10:00:55.766Z</time></trkpt><trkpt lat="37.84020344032443" lon="14.800371089730877"><ele>657.5</ele><time>2026-04-12T10:00:56.766Z</time></trkpt><trkpt lat="37.8404769989365" lon="14.800347790035811"><ele>660.0</ele><time>2026-04-12T10:00:57.766Z</time></trkpt><trkpt lat="37.84075496265302" lon="14.800365838626416"><ele>661.0</ele><time>2026-04-12T10:00:58.766Z</time></trkpt><trkpt lat="37.84102553676826" lon="14.800399717885595"><ele>662.0</ele><time>2026-04-12T10:00:59.765Z</time></trkpt><trkpt lat="37.84128679181659" lon="14.800454310367595"><ele>662.0</ele><time>2026-04-12T10:01:00.765Z</time></trkpt><trkpt lat="37.84155097941317" lon="14.800526800259854"><ele>662.0</ele><time>2026-04-12T10:01:01.765Z</time></trkpt><trkpt lat="37.841831935894845" lon="14.800611758814242"><ele>661.0</ele><time>2026-04-12T10:01:02.765Z</time></trkpt><trkpt lat="37.842126615100725" lon="14.800703593769049"><ele>660.0</ele><time>2026-04-12T10:01:03.765Z</time></trkpt><trkpt lat="37.84239322062699" lon="14.800786679741314"><ele>660.0</ele><time>2026-04-12T10:01:04.765Z</time></trkpt><trkpt lat="37.8426308487765" lon="14.800845696981137"><ele>660.0</ele><time>2026-04-12T10:01:05.765Z</time></trkpt><trkpt lat="37.84283533938973" lon="14.800917217872504"><ele>663.6666666666666</ele><time>2026-04-12T10:01:06.765Z</time></trkpt><trkpt lat="37.843011269922066" lon="14.80101867561861"><ele>667.3333333333333</ele><time>2026-04-12T10:01:07.765Z</time></trkpt><trkpt lat="37.843159044612655" lon="14.801152432913257"><ele>671.0</ele><time>2026-04-12T10:01:08.765Z</time></trkpt><trkpt lat="37.84332361137383" lon="14.801349621682295"><ele>664.0</ele><time>2026-04-12T10:01:09.765Z</time></trkpt><trkpt lat="37.843497521985206" lon="14.801576227176039"><ele>657.0</ele><time>2026-04-12T10:01:10.765Z</time></trkpt><trkpt lat="37.84368454584905" lon="14.80180573985785"><ele>665.5</ele><time>2026-04-12T10:01:11.765Z</time></trkpt><trkpt lat="37.84388713789613" lon="14.80201083062671"><ele>674.0</ele><time>2026-04-12T10:01:12.765Z</time></trkpt><trkpt lat="37.844117612280186" lon="14.802203514831035"><ele>669.5</ele><time>2026-04-12T10:01:13.765Z</time></trkpt><trkpt lat="37.84435619144673" lon="14.80241403270037"><ele>665.0</ele><time>2026-04-12T10:01:14.765Z</time></trkpt><trkpt lat="37.84459637045331" lon="14.802642018416675"><ele>673.5</ele><time>2026-04-12T10:01:15.765Z</time></trkpt><trkpt lat="37.844848820621074" lon="14.802864712626072"><ele>682.0</ele><time>2026-04-12T10:01:16.765Z</time></trkpt><trkpt lat="37.8450956506493" lon="14.803080218186198"><ele>676.5</ele><time>2026-04-12T10:01:17.765Z</time></trkpt><trkpt lat="37.84530261584793" lon="14.803266100685756"><ele>671.0</ele><time>2026-04-12T10:01:18.765Z</time></trkpt><trkpt lat="37.84548195033702" lon="14.803457446780216"><ele>675.0</ele><time>2026-04-12T10:01:19.764Z</time></trkpt><trkpt lat="37.84564634765617" lon="14.803696450838226"><ele>679.0</ele><time>2026-04-12T10:01:20.764Z</time></trkpt><trkpt lat="37.845781379850784" lon="14.8039606088349"><ele>679.0</ele><time>2026-04-12T10:01:21.764Z</time></trkpt><trkpt lat="37.84590075894631" lon="14.804201126818818"><ele>679.0</ele><time>2026-04-12T10:01:22.764Z</time></trkpt><trkpt lat="37.84600089212604" lon="14.80440389218537"><ele>679.0</ele><time>2026-04-12T10:01:23.764Z</time></trkpt><trkpt lat="37.84610469652229" lon="14.804586342259126"><ele>678.6666666666667</ele><time>2026-04-12T10:01:24.764Z</time></trkpt><trkpt lat="37.846202887908845" lon="14.804797800659138"><ele>678.3333333333334</ele><time>2026-04-12T10:01:25.764Z</time></trkpt><trkpt lat="37.84631050949271" lon="14.805018411567477"><ele>678.0</ele><time>2026-04-12T10:01:26.764Z</time></trkpt><trkpt lat="37.84642320796129" lon="14.80524570899267"><ele>680.3333333333334</ele><time>2026-04-12T10:01:27.764Z</time></trkpt><trkpt lat="37.8465305359264" lon="14.805473076092833"><ele>682.6666666666667</ele><time>2026-04-12T10:01:28.764Z</time></trkpt><trkpt lat="37.84662587247449" lon="14.805710711520371"><ele>685.0</ele><time>2026-04-12T10:01:29.764Z</time></trkpt><trkpt lat="37.84667584276083" lon="14.805981068586254"><ele>686.6666666666667</ele><time>2026-04-12T10:01:30.767Z</time></trkpt><trkpt lat="37.84670475005834" lon="14.8062325950853"><ele>688.3333333333334</ele><time>2026-04-12T10:01:31.766Z</time></trkpt><trkpt lat="37.846705369142434" lon="14.806482304434905"><ele>690.0</ele><time>2026-04-12T10:01:32.766Z</time></trkpt><trkpt lat="37.84670202728985" lon="14.806733330535865"><ele>691.0</ele><time>2026-04-12T10:01:33.766Z</time></trkpt><trkpt lat="37.846698707113276" lon="14.806982728077736"><ele>692.0</ele><time>2026-04-12T10:01:34.766Z</time></trkpt><trkpt lat="37.846706803982265" lon="14.80721900419533"><ele>693.0</ele><time>2026-04-12T10:01:35.766Z</time></trkpt><trkpt lat="37.84671037460712" lon="14.807418041152804"><ele>693.0</ele><time>2026-04-12T10:01:36.766Z</time></trkpt><trkpt lat="37.84669383193318" lon="14.807607985722887"><ele>693.0</ele><time>2026-04-12T10:01:37.766Z</time></trkpt><trkpt lat="37.84669688591644" lon="14.807769721555024"><ele>693.0</ele><time>2026-04-12T10:01:38.766Z</time></trkpt><trkpt lat="37.84694119370472" lon="14.80788286289571"><ele>696.3333333333334</ele><time>2026-04-12T10:01:39.766Z</time></trkpt><trkpt lat="37.84711022121326" lon="14.8079548165767"><ele>699.6666666666667</ele><time>2026-04-12T10:01:40.766Z</time></trkpt><trkpt lat="37.847328802318685" lon="14.8079249062322"><ele>703.0</ele><time>2026-04-12T10:01:41.766Z</time></trkpt><trkpt lat="37.847535553830895" lon="14.807805385500503"><ele>704.0</ele><time>2026-04-12T10:01:42.766Z</time></trkpt><trkpt lat="37.847733127657015" lon="14.807695650696791"><ele>705.0</ele><time>2026-04-12T10:01:43.766Z</time></trkpt><trkpt lat="37.84791529943185" lon="14.807626528891458"><ele>706.0</ele><time>2026-04-12T10:01:44.766Z</time></trkpt><trkpt lat="37.84808917073369" lon="14.807641747675227"><ele>706.0</ele><time>2026-04-12T10:01:45.766Z</time></trkpt><trkpt lat="37.84826328689625" lon="14.807703882830543"><ele>706.0</ele><time>2026-04-12T10:01:46.766Z</time></trkpt><trkpt lat="37.8484215173956" lon="14.807823901830902"><ele>706.0</ele><time>2026-04-12T10:01:47.766Z</time></trkpt><trkpt lat="37.84855776251936" lon="14.807989012833936"><ele>701.3333333333334</ele><time>2026-04-12T10:01:48.766Z</time></trkpt><trkpt lat="37.84864934853603" lon="14.808192955722472"><ele>696.6666666666666</ele><time>2026-04-12T10:01:49.766Z</time></trkpt><trkpt lat="37.848700197081094" lon="14.808394952984061"><ele>692.0</ele><time>2026-04-12T10:01:50.766Z</time></trkpt><trkpt lat="37.84871218628045" lon="14.808582833687602"><ele>692.0</ele><time>2026-04-12T10:01:51.765Z</time></trkpt><trkpt lat="37.84869325517043" lon="14.808787225218435"><ele>692.0</ele><time>2026-04-12T10:01:52.765Z</time></trkpt><trkpt lat="37.84862377949031" lon="14.80901017780451"><ele>692.0</ele><time>2026-04-12T10:01:53.765Z</time></trkpt><trkpt lat="37.84851688452381" lon="14.80921718489218"><ele>698.0</ele><time>2026-04-12T10:01:54.765Z</time></trkpt><trkpt lat="37.84837405509326" lon="14.809458956457055"><ele>704.0</ele><time>2026-04-12T10:01:55.765Z</time></trkpt><trkpt lat="37.84822254154335" lon="14.80971236556234"><ele>704.0</ele><time>2026-04-12T10:01:56.765Z</time></trkpt><trkpt lat="37.84807594199905" lon="14.80998127183336"><ele>704.0</ele><time>2026-04-12T10:01:57.765Z</time></trkpt><trkpt lat="37.847924802381925" lon="14.810242831258948"><ele>703.6666666666666</ele><time>2026-04-12T10:01:58.765Z</time></trkpt><trkpt lat="37.84776699815536" lon="14.810475159759422"><ele>703.3333333333334</ele><time>2026-04-12T10:01:59.765Z</time></trkpt><trkpt lat="37.8476448871792" lon="14.810680560486963"><ele>703.0</ele><time>2026-04-12T10:02:00.765Z</time></trkpt><trkpt lat="37.84754557299555" lon="14.810880594401917"><ele>708.6666666666667</ele><time>2026-04-12T10:02:01.765Z</time></trkpt><trkpt lat="37.84746533844876" lon="14.811079151024614"><ele>714.3333333333334</ele><time>2026-04-12T10:02:02.765Z</time></trkpt><trkpt lat="37.84743247993524" lon="14.811309398778311"><ele>720.0</ele><time>2026-04-12T10:02:03.765Z</time></trkpt><trkpt lat="37.84745762490306" lon="14.8115866323686"><ele>720.0</ele><time>2026-04-12T10:02:04.765Z</time></trkpt><trkpt lat="37.847525838449705" lon="14.811859475656906"><ele>720.0</ele><time>2026-04-12T10:02:05.765Z</time></trkpt><trkpt lat="37.84762806266065" lon="14.81208906862169"><ele>720.0</ele><time>2026-04-12T10:02:06.765Z</time></trkpt><trkpt lat="37.84779537724552" lon="14.812263579136179"><ele>720.0</ele><time>2026-04-12T10:02:07.765Z</time></trkpt><trkpt lat="37.8480046326836" lon="14.81242989016513"><ele>720.0</ele><time>2026-04-12T10:02:08.765Z</time></trkpt><trkpt lat="37.848214626171774" lon="14.812610503681192"><ele>718.0</ele><time>2026-04-12T10:02:09.765Z</time></trkpt><trkpt lat="37.848413446221855" lon="14.812720367344202"><ele>716.0</ele><time>2026-04-12T10:02:10.765Z</time></trkpt><trkpt lat="37.848557857069466" lon="14.81284044299736"><ele>714.0</ele><time>2026-04-12T10:02:11.764Z</time></trkpt><trkpt lat="37.84864348791123" lon="14.813056366964672"><ele>714.0</ele><time>2026-04-12T10:02:12.764Z</time></trkpt><trkpt lat="37.8487001075308" lon="14.813308448673032"><ele>714.0</ele><time>2026-04-12T10:02:13.764Z</time></trkpt><trkpt lat="37.84871206586465" lon="14.813571414911424"><ele>714.0</ele><time>2026-04-12T10:02:14.764Z</time></trkpt><trkpt lat="37.848667057404874" lon="14.81383013030579"><ele>714.5</ele><time>2026-04-12T10:02:15.764Z</time></trkpt><trkpt lat="37.848584638559245" lon="14.814121849771942"><ele>715.0</ele><time>2026-04-12T10:02:16.764Z</time></trkpt><trkpt lat="37.8484898992054" lon="14.814457668609275"><ele>722.5</ele><time>2026-04-12T10:02:17.764Z</time></trkpt><trkpt lat="37.84840131002448" lon="14.814817668810877"><ele>730.0</ele><time>2026-04-12T10:02:18.764Z</time></trkpt><trkpt lat="37.84828925265738" lon="14.815123404094146"><ele>728.5</ele><time>2026-04-12T10:02:19.764Z</time></trkpt><trkpt lat="37.848194280990235" lon="14.81538052254602"><ele>727.0</ele><time>2026-04-12T10:02:20.764Z</time></trkpt><trkpt lat="37.84807608581933" lon="14.815660863173909"><ele>727.0</ele><time>2026-04-12T10:02:21.764Z</time></trkpt><trkpt lat="37.847934453907676" lon="14.81594746718222"><ele>727.0</ele><time>2026-04-12T10:02:22.764Z</time></trkpt><trkpt lat="37.84776602885604" lon="14.81623929373392"><ele>733.5</ele><time>2026-04-12T10:02:23.764Z</time></trkpt><trkpt lat="37.847590410270335" lon="14.816530589686735"><ele>740.0</ele><time>2026-04-12T10:02:24.764Z</time></trkpt><trkpt lat="37.84741888473169" lon="14.816805561974263"><ele>739.3333333333333</ele><time>2026-04-12T10:02:25.764Z</time></trkpt><trkpt lat="37.847308299889384" lon="14.81705334631931"><ele>738.6666666666666</ele><time>2026-04-12T10:02:26.764Z</time></trkpt><trkpt lat="37.84719579217105" lon="14.817233144224623"><ele>738.0</ele><time>2026-04-12T10:02:27.764Z</time></trkpt><trkpt lat="37.84714857681793" lon="14.817434177748206"><ele>741.0</ele><time>2026-04-12T10:02:28.764Z</time></trkpt><trkpt lat="37.84718588724308" lon="14.817681684558226"><ele>744.0</ele><time>2026-04-12T10:02:29.764Z</time></trkpt><trkpt lat="37.847276057592566" lon="14.817917982870894"><ele>747.0</ele><time>2026-04-12T10:02:30.764Z</time></trkpt><trkpt lat="37.8473884856863" lon="14.818174781560636"><ele>747.0</ele><time>2026-04-12T10:02:31.763Z</time></trkpt><trkpt lat="37.84751116467743" lon="14.818453540199863"><ele>747.0</ele><time>2026-04-12T10:02:32.763Z</time></trkpt><trkpt lat="37.847674341173516" lon="14.818728399907123"><ele>748.5</ele><time>2026-04-12T10:02:33.763Z</time></trkpt><trkpt lat="37.84781703285783" lon="14.819036269967157"><ele>750.0</ele><time>2026-04-12T10:02:34.763Z</time></trkpt><trkpt lat="37.84796329400051" lon="14.819354533965168"><ele>752.5</ele><time>2026-04-12T10:02:35.763Z</time></trkpt><trkpt lat="37.84811256856388" lon="14.819670554216538"><ele>755.0</ele><time>2026-04-12T10:02:36.763Z</time></trkpt><trkpt lat="37.848264382139746" lon="14.819971726822327"><ele>753.0</ele><time>2026-04-12T10:02:37.763Z</time></trkpt><trkpt lat="37.848394680980874" lon="14.820242605722362"><ele>751.0</ele><time>2026-04-12T10:02:38.763Z</time></trkpt><trkpt lat="37.84850915093038" lon="14.82049245887801"><ele>751.0</ele><time>2026-04-12T10:02:39.763Z</time></trkpt><trkpt lat="37.84858478628556" lon="14.82074977515584"><ele>751.0</ele><time>2026-04-12T10:02:40.763Z</time></trkpt><trkpt lat="37.84862894728892" lon="14.821018849539435"><ele>751.0</ele><time>2026-04-12T10:02:41.763Z</time></trkpt><trkpt lat="37.84864593445956" lon="14.821295951027832"><ele>755.5</ele><time>2026-04-12T10:02:42.763Z</time></trkpt><trkpt lat="37.84862809698158" lon="14.821620749312332"><ele>760.0</ele><time>2026-04-12T10:02:43.763Z</time></trkpt><trkpt lat="37.848597848274984" lon="14.821966052508083"><ele>761.5</ele><time>2026-04-12T10:02:44.763Z</time></trkpt><trkpt lat="37.84854046070097" lon="14.822324894782062"><ele>763.0</ele><time>2026-04-12T10:02:45.763Z</time></trkpt><trkpt lat="37.848498317712156" lon="14.822700883511095"><ele>763.5</ele><time>2026-04-12T10:02:46.763Z</time></trkpt><trkpt lat="37.84846460843742" lon="14.82309812036222"><ele>764.0</ele><time>2026-04-12T10:02:47.763Z</time></trkpt><trkpt lat="37.84843805155578" lon="14.823488931474227"><ele>768.5</ele><time>2026-04-12T10:02:48.763Z</time></trkpt><trkpt lat="37.84841534426392" lon="14.823859181487293"><ele>773.0</ele><time>2026-04-12T10:02:49.763Z</time></trkpt><trkpt lat="37.84838966434215" lon="14.824208921120773"><ele>772.5</ele><time>2026-04-12T10:02:50.762Z</time></trkpt><trkpt lat="37.84836353178831" lon="14.82452954244811"><ele>772.0</ele><time>2026-04-12T10:02:51.762Z</time></trkpt><trkpt lat="37.84833609885316" lon="14.82482093999142"><ele>772.0</ele><time>2026-04-12T10:02:52.762Z</time></trkpt><trkpt lat="37.84831209712515" lon="14.825126045625298"><ele>772.0</ele><time>2026-04-12T10:02:53.762Z</time></trkpt><trkpt lat="37.84828495401113" lon="14.825431567063402"><ele>775.5</ele><time>2026-04-12T10:02:54.762Z</time></trkpt><trkpt lat="37.848252214611826" lon="14.825744769386231"><ele>779.0</ele><time>2026-04-12T10:02:55.762Z</time></trkpt><trkpt lat="37.848223355574994" lon="14.826035822977566"><ele>782.5</ele><time>2026-04-12T10:02:56.762Z</time></trkpt><trkpt lat="37.84819400497071" lon="14.826317681918908"><ele>786.0</ele><time>2026-04-12T10:02:57.762Z</time></trkpt><trkpt lat="37.84817087945262" lon="14.82660170744754"><ele>788.0</ele><time>2026-04-12T10:02:58.762Z</time></trkpt><trkpt lat="37.84814590934913" lon="14.826880397527042"><ele>790.0</ele><time>2026-04-12T10:02:59.762Z</time></trkpt><trkpt lat="37.848114254385585" lon="14.827174541844087"><ele>790.0</ele><time>2026-04-12T10:03:00.762Z</time></trkpt><trkpt lat="37.84808643052105" lon="14.82749487742222"><ele>790.0</ele><time>2026-04-12T10:03:01.762Z</time></trkpt><trkpt lat="37.84804342443005" lon="14.827828362274854"><ele>792.5</ele><time>2026-04-12T10:03:02.762Z</time></trkpt><trkpt lat="37.848012271933314" lon="14.82816333552535"><ele>795.0</ele><time>2026-04-12T10:03:03.762Z</time></trkpt><trkpt lat="37.84798317302618" lon="14.8284762270993"><ele>798.5</ele><time>2026-04-12T10:03:04.762Z</time></trkpt><trkpt lat="37.847967838339166" lon="14.828773273116624"><ele>802.0</ele><time>2026-04-12T10:03:05.762Z</time></trkpt><trkpt lat="37.84793512676471" lon="14.829058522252138"><ele>803.6666666666666</ele><time>2026-04-12T10:03:06.762Z</time></trkpt><trkpt lat="37.8479127644548" lon="14.829334312467925"><ele>805.3333333333333</ele><time>2026-04-12T10:03:07.762Z</time></trkpt><trkpt lat="37.84788799271703" lon="14.829603053886457"><ele>807.0</ele><time>2026-04-12T10:03:08.762Z</time></trkpt><trkpt lat="37.84786998987297" lon="14.829852467232453"><ele>807.0</ele><time>2026-04-12T10:03:09.762Z</time></trkpt><trkpt lat="37.847845513416885" lon="14.830105141195494"><ele>807.0</ele><time>2026-04-12T10:03:10.761Z</time></trkpt><trkpt lat="37.84783595114437" lon="14.830370861162953"><ele>807.0</ele><time>2026-04-12T10:03:11.761Z</time></trkpt><trkpt lat="37.847871163540724" lon="14.83062293291495"><ele>806.6666666666667</ele><time>2026-04-12T10:03:12.761Z</time></trkpt><trkpt lat="37.847924829611834" lon="14.830855118648877"><ele>806.3333333333334</ele><time>2026-04-12T10:03:13.761Z</time></trkpt><trkpt lat="37.848006465129764" lon="14.831089392939566"><ele>806.0</ele><time>2026-04-12T10:03:14.761Z</time></trkpt><trkpt lat="37.84809998876287" lon="14.831332250957118"><ele>807.0</ele><time>2026-04-12T10:03:15.761Z</time></trkpt><trkpt lat="37.84819696205694" lon="14.831577460790854"><ele>808.0</ele><time>2026-04-12T10:03:16.761Z</time></trkpt><trkpt lat="37.84828856261849" lon="14.83182692283687"><ele>809.0</ele><time>2026-04-12T10:03:17.761Z</time></trkpt><trkpt lat="37.84837201337937" lon="14.832074107613655"><ele>810.3333333333334</ele><time>2026-04-12T10:03:18.761Z</time></trkpt><trkpt lat="37.84845648136654" lon="14.832307079134765"><ele>811.6666666666667</ele><time>2026-04-12T10:03:19.761Z</time></trkpt><trkpt lat="37.84853760210143" lon="14.832536727004333"><ele>813.0</ele><time>2026-04-12T10:03:20.761Z</time></trkpt><trkpt lat="37.8486166589273" lon="14.832770882460625"><ele>814.0</ele><time>2026-04-12T10:03:21.761Z</time></trkpt><trkpt lat="37.84870590432538" lon="14.833011797656102"><ele>815.0</ele><time>2026-04-12T10:03:22.761Z</time></trkpt><trkpt lat="37.848787635044964" lon="14.833263711664527"><ele>816.0</ele><time>2026-04-12T10:03:23.761Z</time></trkpt><trkpt lat="37.84886677289333" lon="14.833532453911031"><ele>816.0</ele><time>2026-04-12T10:03:24.761Z</time></trkpt><trkpt lat="37.848931429372534" lon="14.833810975739382"><ele>816.0</ele><time>2026-04-12T10:03:25.761Z</time></trkpt><trkpt lat="37.84899136228709" lon="14.834091753528506"><ele>815.5</ele><time>2026-04-12T10:03:26.761Z</time></trkpt><trkpt lat="37.84905653288917" lon="14.834373284206258"><ele>815.0</ele><time>2026-04-12T10:03:27.761Z</time></trkpt><trkpt lat="37.84912458799755" lon="14.834652196195993"><ele>815.0</ele><time>2026-04-12T10:03:28.761Z</time></trkpt><trkpt lat="37.84918844339862" lon="14.834922722135605"><ele>815.0</ele><time>2026-04-12T10:03:29.761Z</time></trkpt><trkpt lat="37.849247633720935" lon="14.835190894918851"><ele>815.0</ele><time>2026-04-12T10:03:30.76Z</time></trkpt><trkpt lat="37.84931205634954" lon="14.835463856794796"><ele>818.0</ele><time>2026-04-12T10:03:31.76Z</time></trkpt><trkpt lat="37.84937908626905" lon="14.83573551250326"><ele>821.0</ele><time>2026-04-12T10:03:32.76Z</time></trkpt><trkpt lat="37.849446717712325" lon="14.836009580040729"><ele>821.0</ele><time>2026-04-12T10:03:33.76Z</time></trkpt><trkpt lat="37.849516789262125" lon="14.836282402038087"><ele>821.0</ele><time>2026-04-12T10:03:34.76Z</time></trkpt><trkpt lat="37.84956706378674" lon="14.836574737341484"><ele>821.5</ele><time>2026-04-12T10:03:35.76Z</time></trkpt><trkpt lat="37.8496346545503" lon="14.836859544392565"><ele>822.0</ele><time>2026-04-12T10:03:36.762Z</time></trkpt><trkpt lat="37.84970337000145" lon="14.837148796060488"><ele>822.0</ele><time>2026-04-12T10:03:37.763Z</time></trkpt><trkpt lat="37.849771276219364" lon="14.837434641341746"><ele>822.0</ele><time>2026-04-12T10:03:38.763Z</time></trkpt><trkpt lat="37.849837987512466" lon="14.837715456697246"><ele>822.0</ele><time>2026-04-12T10:03:39.762Z</time></trkpt><trkpt lat="37.84990936957748" lon="14.838015933239"><ele>822.0</ele><time>2026-04-12T10:03:40.763Z</time></trkpt><trkpt lat="37.84997989537164" lon="14.83831291824527"><ele>822.5</ele><time>2026-04-12T10:03:41.763Z</time></trkpt><trkpt lat="37.85004833267864" lon="14.838599014249759"><ele>823.0</ele><time>2026-04-12T10:03:42.762Z</time></trkpt><trkpt lat="37.85011642376407" lon="14.838877744602076"><ele>823.5</ele><time>2026-04-12T10:03:43.763Z</time></trkpt><trkpt lat="37.85018160058377" lon="14.839151338371575"><ele>824.0</ele><time>2026-04-12T10:03:44.763Z</time></trkpt><trkpt lat="37.85024693849313" lon="14.839425637111841"><ele>824.5</ele><time>2026-04-12T10:03:45.762Z</time></trkpt><trkpt lat="37.85032847802045" lon="14.839691338548986"><ele>825.0</ele><time>2026-04-12T10:03:46.762Z</time></trkpt><trkpt lat="37.850391392918105" lon="14.839964910603463"><ele>825.5</ele><time>2026-04-12T10:03:47.762Z</time></trkpt><trkpt lat="37.85046052559925" lon="14.840244346776663"><ele>826.0</ele><time>2026-04-12T10:03:48.763Z</time></trkpt><trkpt lat="37.850545988598654" lon="14.840526976150697"><ele>826.0</ele><time>2026-04-12T10:03:49.762Z</time></trkpt><trkpt lat="37.85064859101176" lon="14.840807077283936"><ele>826.0</ele><time>2026-04-12T10:03:50.762Z</time></trkpt><trkpt lat="37.85078613009032" lon="14.84109875574893"><ele>827.0</ele><time>2026-04-12T10:03:51.762Z</time></trkpt><trkpt lat="37.85094568019348" lon="14.841369762071114"><ele>828.0</ele><time>2026-04-12T10:03:52.762Z</time></trkpt><trkpt lat="37.85111810047886" lon="14.841623276427104"><ele>829.0</ele><time>2026-04-12T10:03:53.762Z</time></trkpt><trkpt lat="37.85126233708" lon="14.841885600403693"><ele>830.0</ele><time>2026-04-12T10:03:54.762Z</time></trkpt><trkpt lat="37.851408738192774" lon="14.842161218158887"><ele>830.0</ele><time>2026-04-12T10:03:55.762Z</time></trkpt><trkpt lat="37.85156262650826" lon="14.842449070554968"><ele>830.0</ele><time>2026-04-12T10:03:56.762Z</time></trkpt><trkpt lat="37.85171992644428" lon="14.842735596880207"><ele>832.0</ele><time>2026-04-12T10:03:57.762Z</time></trkpt><trkpt lat="37.85187237332779" lon="14.843016913482582"><ele>834.0</ele><time>2026-04-12T10:03:58.762Z</time></trkpt><trkpt lat="37.852011518503865" lon="14.84330995042759"><ele>834.5</ele><time>2026-04-12T10:03:59.762Z</time></trkpt><trkpt lat="37.85217833096649" lon="14.8435856440235"><ele>835.0</ele><time>2026-04-12T10:04:00.761Z</time></trkpt><trkpt lat="37.85233706682625" lon="14.843888002282227"><ele>835.0</ele><time>2026-04-12T10:04:01.761Z</time></trkpt><trkpt lat="37.85249761413227" lon="14.84419398036191"><ele>835.0</ele><time>2026-04-12T10:04:02.761Z</time></trkpt><trkpt lat="37.852666857746925" lon="14.84450190573479"><ele>837.5</ele><time>2026-04-12T10:04:03.761Z</time></trkpt><trkpt lat="37.852835259923246" lon="14.84480323280887"><ele>840.0</ele><time>2026-04-12T10:04:04.761Z</time></trkpt><trkpt lat="37.852979952735176" lon="14.845108321597701"><ele>841.0</ele><time>2026-04-12T10:04:05.761Z</time></trkpt><trkpt lat="37.85313925700044" lon="14.845372826247809"><ele>842.0</ele><time>2026-04-12T10:04:06.761Z</time></trkpt><trkpt lat="37.853270891663094" lon="14.845622264135617"><ele>842.0</ele><time>2026-04-12T10:04:07.761Z</time></trkpt><trkpt lat="37.853397968616974" lon="14.845851804738448"><ele>842.0</ele><time>2026-04-12T10:04:08.761Z</time></trkpt><trkpt lat="37.85352444774636" lon="14.846089159711422"><ele>842.0</ele><time>2026-04-12T10:04:09.761Z</time></trkpt><trkpt lat="37.853653933822315" lon="14.846327314087086"><ele>841.5</ele><time>2026-04-12T10:04:10.761Z</time></trkpt><trkpt lat="37.85377182109962" lon="14.84657884091549"><ele>841.0</ele><time>2026-04-12T10:04:11.761Z</time></trkpt><trkpt lat="37.853900394984564" lon="14.846817051461542"><ele>842.0</ele><time>2026-04-12T10:04:12.761Z</time></trkpt><trkpt lat="37.854029320885154" lon="14.847057078538095"><ele>843.0</ele><time>2026-04-12T10:04:13.761Z</time></trkpt><trkpt lat="37.85416121370767" lon="14.847302997023768"><ele>843.0</ele><time>2026-04-12T10:04:14.761Z</time></trkpt><trkpt lat="37.85429286570441" lon="14.847546869424015"><ele>843.0</ele><time>2026-04-12T10:04:15.761Z</time></trkpt><trkpt lat="37.85442772477713" lon="14.84779423438815"><ele>843.0</ele><time>2026-04-12T10:04:16.761Z</time></trkpt><trkpt lat="37.85457736830089" lon="14.848038686714904"><ele>843.0</ele><time>2026-04-12T10:04:17.761Z</time></trkpt><trkpt lat="37.854715209030935" lon="14.848300217696565"><ele>844.0</ele><time>2026-04-12T10:04:18.761Z</time></trkpt><trkpt lat="37.85486188795397" lon="14.848571070154811"><ele>845.0</ele><time>2026-04-12T10:04:19.76Z</time></trkpt><trkpt lat="37.85499502171321" lon="14.848853017057463"><ele>845.0</ele><time>2026-04-12T10:04:20.76Z</time></trkpt><trkpt lat="37.85514327335545" lon="14.849129335752862"><ele>845.0</ele><time>2026-04-12T10:04:21.76Z</time></trkpt><trkpt lat="37.85528897282224" lon="14.849400897574395"><ele>846.3333333333334</ele><time>2026-04-12T10:04:22.76Z</time></trkpt><trkpt lat="37.85541805451986" lon="14.849641479438297"><ele>847.6666666666667</ele><time>2026-04-12T10:04:23.76Z</time></trkpt><trkpt lat="37.855538692134814" lon="14.849866297135202"><ele>849.0</ele><time>2026-04-12T10:04:24.76Z</time></trkpt><trkpt lat="37.85565115665251" lon="14.850075883671844"><ele>849.0</ele><time>2026-04-12T10:04:25.76Z</time></trkpt><trkpt lat="37.85576273903112" lon="14.850283826254728"><ele>849.0</ele><time>2026-04-12T10:04:26.76Z</time></trkpt><trkpt lat="37.85587569357159" lon="14.850494325965084"><ele>849.0</ele><time>2026-04-12T10:04:27.76Z</time></trkpt><trkpt lat="37.855989989100145" lon="14.8507070236639"><ele>849.0</ele><time>2026-04-12T10:04:28.76Z</time></trkpt><trkpt lat="37.85610614834028" lon="14.850922678219781"><ele>849.0</ele><time>2026-04-12T10:04:29.76Z</time></trkpt><trkpt lat="37.85622764242249" lon="14.851148237141706"><ele>849.0</ele><time>2026-04-12T10:04:30.76Z</time></trkpt><trkpt lat="37.85634773711522" lon="14.851371174080755"><ele>849.6666666666667</ele><time>2026-04-12T10:04:31.76Z</time></trkpt><trkpt lat="37.8564735340977" lon="14.851604652481553"><ele>850.3333333333334</ele><time>2026-04-12T10:04:32.76Z</time></trkpt><trkpt lat="37.85659782961556" lon="14.851835344142211"><ele>851.0</ele><time>2026-04-12T10:04:33.76Z</time></trkpt><trkpt lat="37.85672321569987" lon="14.852068059904827"><ele>851.5</ele><time>2026-04-12T10:04:34.76Z</time></trkpt><trkpt lat="37.856851858539606" lon="14.852306820191526"><ele>852.0</ele><time>2026-04-12T10:04:35.76Z</time></trkpt><trkpt lat="37.85698711774391" lon="14.852557860383346"><ele>854.0</ele><time>2026-04-12T10:04:36.76Z</time></trkpt><trkpt lat="37.857125081402714" lon="14.852813920057125"><ele>856.0</ele><time>2026-04-12T10:04:37.76Z</time></trkpt><trkpt lat="37.85725928134439" lon="14.853062994248031"><ele>856.0</ele><time>2026-04-12T10:04:38.76Z</time></trkpt><trkpt lat="37.85740266135696" lon="14.853329302674295"><ele>856.0</ele><time>2026-04-12T10:04:39.759Z</time></trkpt><trkpt lat="37.857547998679" lon="14.853599981587143"><ele>857.0</ele><time>2026-04-12T10:04:40.759Z</time></trkpt><trkpt lat="37.85769520807826" lon="14.853875430931817"><ele>858.0</ele><time>2026-04-12T10:04:41.759Z</time></trkpt><trkpt lat="37.85784564403358" lon="14.85415630911941"><ele>859.0</ele><time>2026-04-12T10:04:42.759Z</time></trkpt><trkpt lat="37.85799519982884" lon="14.854434487227854"><ele>860.0</ele><time>2026-04-12T10:04:43.759Z</time></trkpt><trkpt lat="37.85814352940052" lon="14.854710219163472"><ele>860.0</ele><time>2026-04-12T10:04:44.759Z</time></trkpt><trkpt lat="37.8582933018835" lon="14.85498867609928"><ele>860.0</ele><time>2026-04-12T10:04:45.759Z</time></trkpt><trkpt lat="37.85843975165893" lon="14.855260433939124"><ele>861.0</ele><time>2026-04-12T10:04:46.759Z</time></trkpt><trkpt lat="37.85857726753701" lon="14.855515263996978"><ele>862.0</ele><time>2026-04-12T10:04:47.759Z</time></trkpt><trkpt lat="37.858706204639994" lon="14.855754196764627"><ele>863.0</ele><time>2026-04-12T10:04:48.759Z</time></trkpt><trkpt lat="37.858828943042774" lon="14.85598164276026"><ele>864.0</ele><time>2026-04-12T10:04:49.759Z</time></trkpt><trkpt lat="37.858961850406835" lon="14.856194872477973"><ele>865.0</ele><time>2026-04-12T10:04:50.759Z</time></trkpt><trkpt lat="37.859081300687286" lon="14.85642524552456"><ele>865.0</ele><time>2026-04-12T10:04:51.759Z</time></trkpt><trkpt lat="37.85921416539637" lon="14.85666566571618"><ele>865.0</ele><time>2026-04-12T10:04:52.759Z</time></trkpt><trkpt lat="37.85935081962799" lon="14.856911427402865"><ele>866.0</ele><time>2026-04-12T10:04:53.759Z</time></trkpt><trkpt lat="37.85947751513916" lon="14.857154404473688"><ele>867.0</ele><time>2026-04-12T10:04:54.759Z</time></trkpt><trkpt lat="37.85960651238331" lon="14.85741825358709"><ele>867.0</ele><time>2026-04-12T10:04:55.759Z</time></trkpt><trkpt lat="37.85975700415729" lon="14.857660012549124"><ele>867.0</ele><time>2026-04-12T10:04:56.759Z</time></trkpt><trkpt lat="37.859878211879604" lon="14.857920022560585"><ele>867.0</ele><time>2026-04-12T10:04:57.759Z</time></trkpt><trkpt lat="37.86002453072257" lon="14.85815333038406"><ele>867.0</ele><time>2026-04-12T10:04:58.759Z</time></trkpt><trkpt lat="37.86015551413419" lon="14.858399589400719"><ele>867.0</ele><time>2026-04-12T10:04:59.758Z</time></trkpt><trkpt lat="37.8602861155599" lon="14.858642987692825"><ele>867.0</ele><time>2026-04-12T10:05:00.758Z</time></trkpt><trkpt lat="37.86041936252552" lon="14.858883834489005"><ele>867.0</ele><time>2026-04-12T10:05:01.758Z</time></trkpt><trkpt lat="37.86055184598111" lon="14.859129171501502"><ele>867.0</ele><time>2026-04-12T10:05:02.758Z</time></trkpt><trkpt lat="37.86067838041723" lon="14.859376719821592"><ele>868.0</ele><time>2026-04-12T10:05:03.758Z</time></trkpt><trkpt lat="37.86080997926337" lon="14.859628841421266"><ele>869.0</ele><time>2026-04-12T10:05:04.758Z</time></trkpt><trkpt lat="37.86092842535301" lon="14.859895398163268"><ele>870.0</ele><time>2026-04-12T10:05:05.758Z</time></trkpt><trkpt lat="37.8610089643804" lon="14.860179353572237"><ele>871.0</ele><time>2026-04-12T10:05:06.758Z</time></trkpt><trkpt lat="37.86109768983704" lon="14.860457321055405"><ele>871.0</ele><time>2026-04-12T10:05:07.758Z</time></trkpt><trkpt lat="37.86115535574759" lon="14.860752582162363"><ele>871.0</ele><time>2026-04-12T10:05:08.758Z</time></trkpt><trkpt lat="37.86119596868439" lon="14.861054483643203"><ele>872.5</ele><time>2026-04-12T10:05:09.758Z</time></trkpt><trkpt lat="37.86119527537862" lon="14.86136116293043"><ele>874.0</ele><time>2026-04-12T10:05:10.758Z</time></trkpt><trkpt lat="37.86120413183283" lon="14.861670470414728"><ele>873.5</ele><time>2026-04-12T10:05:11.758Z</time></trkpt><trkpt lat="37.86121483902003" lon="14.861981464674912"><ele>873.0</ele><time>2026-04-12T10:05:12.758Z</time></trkpt><trkpt lat="37.861225474864945" lon="14.862294335609645"><ele>873.0</ele><time>2026-04-12T10:05:13.758Z</time></trkpt><trkpt lat="37.861252565259676" lon="14.862608869783816"><ele>873.0</ele><time>2026-04-12T10:05:14.758Z</time></trkpt><trkpt lat="37.86124625530967" lon="14.862920945874375"><ele>874.0</ele><time>2026-04-12T10:05:15.758Z</time></trkpt><trkpt lat="37.86125660442691" lon="14.863233011535861"><ele>875.0</ele><time>2026-04-12T10:05:16.758Z</time></trkpt><trkpt lat="37.86126613351138" lon="14.863540576301004"><ele>876.5</ele><time>2026-04-12T10:05:17.758Z</time></trkpt><trkpt lat="37.861276775308" lon="14.86384703765171"><ele>878.0</ele><time>2026-04-12T10:05:18.757Z</time></trkpt><trkpt lat="37.861287401044336" lon="14.864153036517315"><ele>879.0</ele><time>2026-04-12T10:05:19.757Z</time></trkpt><trkpt lat="37.86129847587601" lon="14.864471968395275"><ele>880.0</ele><time>2026-04-12T10:05:20.757Z</time></trkpt><trkpt lat="37.86132341997255" lon="14.864791191921315"><ele>880.0</ele><time>2026-04-12T10:05:21.757Z</time></trkpt><trkpt lat="37.86133129456141" lon="14.865108539742288"><ele>880.0</ele><time>2026-04-12T10:05:22.757Z</time></trkpt><trkpt lat="37.861343879754806" lon="14.865418851204279"><ele>880.5</ele><time>2026-04-12T10:05:23.757Z</time></trkpt><trkpt lat="37.86135475412349" lon="14.865727959913906"><ele>881.0</ele><time>2026-04-12T10:05:24.757Z</time></trkpt><trkpt lat="37.861365894555576" lon="14.866034734123485"><ele>882.0</ele><time>2026-04-12T10:05:25.757Z</time></trkpt><trkpt lat="37.86137646085163" lon="14.866337365498236"><ele>883.0</ele><time>2026-04-12T10:05:26.757Z</time></trkpt><trkpt lat="37.86138591272143" lon="14.866637839812581"><ele>884.0</ele><time>2026-04-12T10:05:27.757Z</time></trkpt><trkpt lat="37.861394631312905" lon="14.866937319016253"><ele>885.0</ele><time>2026-04-12T10:05:28.757Z</time></trkpt><trkpt lat="37.86140739608197" lon="14.867229001697021"><ele>885.0</ele><time>2026-04-12T10:05:29.757Z</time></trkpt><trkpt lat="37.86143871422204" lon="14.86750845625859"><ele>885.0</ele><time>2026-04-12T10:05:30.757Z</time></trkpt><trkpt lat="37.86149570021235" lon="14.867783717322784"><ele>885.0</ele><time>2026-04-12T10:05:31.757Z</time></trkpt><trkpt lat="37.86156304476843" lon="14.868054395290049"><ele>885.0</ele><time>2026-04-12T10:05:32.757Z</time></trkpt><trkpt lat="37.86163148399409" lon="14.868322687008707"><ele>885.0</ele><time>2026-04-12T10:05:33.757Z</time></trkpt><trkpt lat="37.86169645724225" lon="14.8685957792878"><ele>885.0</ele><time>2026-04-12T10:05:34.757Z</time></trkpt><trkpt lat="37.861762255537094" lon="14.8688662928235"><ele>884.5</ele><time>2026-04-12T10:05:35.757Z</time></trkpt><trkpt lat="37.861829339249326" lon="14.869153375454106"><ele>884.0</ele><time>2026-04-12T10:05:36.757Z</time></trkpt><trkpt lat="37.8619093343086" lon="14.86945519186336"><ele>884.0</ele><time>2026-04-12T10:05:37.757Z</time></trkpt><trkpt lat="37.86201282482157" lon="14.869756158383936"><ele>884.0</ele><time>2026-04-12T10:05:38.756Z</time></trkpt><trkpt lat="37.862118120331445" lon="14.870063188372185"><ele>882.5</ele><time>2026-04-12T10:05:39.756Z</time></trkpt><trkpt lat="37.862223103531456" lon="14.870377332212998"><ele>881.0</ele><time>2026-04-12T10:05:40.756Z</time></trkpt><trkpt lat="37.862328920056434" lon="14.870703807658758"><ele>880.5</ele><time>2026-04-12T10:05:41.756Z</time></trkpt><trkpt lat="37.86243321777622" lon="14.87101759477836"><ele>880.0</ele><time>2026-04-12T10:05:42.76Z</time></trkpt><trkpt lat="37.86252766222415" lon="14.871309880477076"><ele>880.5</ele><time>2026-04-12T10:05:43.759Z</time></trkpt><trkpt lat="37.86262136793601" lon="14.871602762038863"><ele>881.0</ele><time>2026-04-12T10:05:44.759Z</time></trkpt><trkpt lat="37.86271697985484" lon="14.871895360934065"><ele>881.0</ele><time>2026-04-12T10:05:45.759Z</time></trkpt><trkpt lat="37.862817924197074" lon="14.872203152962447"><ele>881.0</ele><time>2026-04-12T10:05:46.759Z</time></trkpt><trkpt lat="37.86290171564275" lon="14.872518791124719"><ele>881.0</ele><time>2026-04-12T10:05:47.76Z</time></trkpt><trkpt lat="37.86299991527598" lon="14.872825545846654"><ele>881.0</ele><time>2026-04-12T10:05:48.76Z</time></trkpt><trkpt lat="37.86309762667136" lon="14.873130775429296"><ele>881.0</ele><time>2026-04-12T10:05:49.76Z</time></trkpt><trkpt lat="37.86320981392926" lon="14.873428858013487"><ele>881.0</ele><time>2026-04-12T10:05:50.76Z</time></trkpt><trkpt lat="37.86329315248822" lon="14.873741556436395"><ele>880.5</ele><time>2026-04-12T10:05:51.76Z</time></trkpt><trkpt lat="37.86340458894623" lon="14.874040406101843"><ele>880.0</ele><time>2026-04-12T10:05:52.76Z</time></trkpt><trkpt lat="37.863503180299205" lon="14.874344632092523"><ele>880.0</ele><time>2026-04-12T10:05:53.759Z</time></trkpt><trkpt lat="37.86358671855552" lon="14.874658594303774"><ele>880.0</ele><time>2026-04-12T10:05:54.76Z</time></trkpt><trkpt lat="37.863685179436104" lon="14.874966165125043"><ele>880.0</ele><time>2026-04-12T10:05:55.76Z</time></trkpt><trkpt lat="37.86378338416776" lon="14.875272935784979"><ele>880.0</ele><time>2026-04-12T10:05:56.76Z</time></trkpt><trkpt lat="37.863882613287466" lon="14.8755828833754"><ele>880.0</ele><time>2026-04-12T10:05:57.76Z</time></trkpt><trkpt lat="37.86399752168218" lon="14.875887828354195"><ele>880.0</ele><time>2026-04-12T10:05:58.76Z</time></trkpt><trkpt lat="37.86408445151814" lon="14.87621321542901"><ele>880.0</ele><time>2026-04-12T10:05:59.76Z</time></trkpt><trkpt lat="37.8641851308671" lon="14.876527632689655"><ele>880.0</ele><time>2026-04-12T10:06:00.76Z</time></trkpt><trkpt lat="37.864280821878005" lon="14.87682647158249"><ele>883.0</ele><time>2026-04-12T10:06:01.76Z</time></trkpt><trkpt lat="37.864379869170634" lon="14.877106924340538"><ele>886.0</ele><time>2026-04-12T10:06:02.76Z</time></trkpt><trkpt lat="37.86446116549368" lon="14.87738322304943"><ele>885.0</ele><time>2026-04-12T10:06:03.76Z</time></trkpt><trkpt lat="37.86454782413094" lon="14.877642665566169"><ele>884.0</ele><time>2026-04-12T10:06:04.76Z</time></trkpt><trkpt lat="37.86463612302613" lon="14.877883422818716"><ele>883.0</ele><time>2026-04-12T10:06:05.76Z</time></trkpt><trkpt lat="37.86473022166952" lon="14.878118136251917"><ele>883.0</ele><time>2026-04-12T10:06:06.76Z</time></trkpt><trkpt lat="37.86483341395574" lon="14.878354184346202"><ele>883.0</ele><time>2026-04-12T10:06:07.759Z</time></trkpt><trkpt lat="37.86495083528207" lon="14.878606062069784"><ele>883.0</ele><time>2026-04-12T10:06:08.759Z</time></trkpt><trkpt lat="37.86507649283697" lon="14.878877880210391"><ele>881.5</ele><time>2026-04-12T10:06:09.759Z</time></trkpt><trkpt lat="37.86520760703741" lon="14.879144057671942"><ele>880.0</ele><time>2026-04-12T10:06:10.759Z</time></trkpt><trkpt lat="37.86532161179116" lon="14.879424041426086"><ele>878.5</ele><time>2026-04-12T10:06:11.759Z</time></trkpt><trkpt lat="37.865442276565176" lon="14.879687654923675"><ele>877.0</ele><time>2026-04-12T10:06:12.759Z</time></trkpt><trkpt lat="37.86556814187351" lon="14.87996262992119"><ele>875.5</ele><time>2026-04-12T10:06:13.759Z</time></trkpt><trkpt lat="37.865697227634" lon="14.88024464055331"><ele>874.0</ele><time>2026-04-12T10:06:14.759Z</time></trkpt><trkpt lat="37.86582801455836" lon="14.880530367655966"><ele>875.0</ele><time>2026-04-12T10:06:15.759Z</time></trkpt><trkpt lat="37.86596153700804" lon="14.880822071015825"><ele>876.0</ele><time>2026-04-12T10:06:16.759Z</time></trkpt><trkpt lat="37.86610921019532" lon="14.881107611049197"><ele>876.0</ele><time>2026-04-12T10:06:17.759Z</time></trkpt><trkpt lat="37.8662457959009" lon="14.881413501378015"><ele>876.0</ele><time>2026-04-12T10:06:18.759Z</time></trkpt><trkpt lat="37.86638330414145" lon="14.881723656733719"><ele>876.0</ele><time>2026-04-12T10:06:19.759Z</time></trkpt><trkpt lat="37.8665263277767" lon="14.882039896163583"><ele>876.0</ele><time>2026-04-12T10:06:20.759Z</time></trkpt><trkpt lat="37.86667210568198" lon="14.882350534135263"><ele>875.5</ele><time>2026-04-12T10:06:21.759Z</time></trkpt><trkpt lat="37.8668156698494" lon="14.882666816718539"><ele>875.0</ele><time>2026-04-12T10:06:22.759Z</time></trkpt><trkpt lat="37.8669568408259" lon="14.88297752059148"><ele>875.0</ele><time>2026-04-12T10:06:23.759Z</time></trkpt><trkpt lat="37.86709498814617" lon="14.883279007397654"><ele>875.0</ele><time>2026-04-12T10:06:24.759Z</time></trkpt><trkpt lat="37.86723017269048" lon="14.88357794558901"><ele>874.5</ele><time>2026-04-12T10:06:25.759Z</time></trkpt><trkpt lat="37.86736133609979" lon="14.883872026853147"><ele>874.0</ele><time>2026-04-12T10:06:26.759Z</time></trkpt><trkpt lat="37.86749571353161" lon="14.884165940290735"><ele>873.0</ele><time>2026-04-12T10:06:27.758Z</time></trkpt><trkpt lat="37.86762499969575" lon="14.884457717906825"><ele>872.0</ele><time>2026-04-12T10:06:28.758Z</time></trkpt><trkpt lat="37.867751656996745" lon="14.884746887599418"><ele>872.0</ele><time>2026-04-12T10:06:29.758Z</time></trkpt><trkpt lat="37.86788079693431" lon="14.885035832642268"><ele>872.0</ele><time>2026-04-12T10:06:30.758Z</time></trkpt><trkpt lat="37.8680051270466" lon="14.88531828418307"><ele>871.5</ele><time>2026-04-12T10:06:31.758Z</time></trkpt><trkpt lat="37.868132919921166" lon="14.885596467148208"><ele>871.0</ele><time>2026-04-12T10:06:32.758Z</time></trkpt><trkpt lat="37.868265933422464" lon="14.885874020834406"><ele>871.0</ele><time>2026-04-12T10:06:33.758Z</time></trkpt><trkpt lat="37.86839509753937" lon="14.886151838198183"><ele>871.0</ele><time>2026-04-12T10:06:34.758Z</time></trkpt><trkpt lat="37.868530540808734" lon="14.886426092318171"><ele>871.0</ele><time>2026-04-12T10:06:35.758Z</time></trkpt><trkpt lat="37.86867406787346" lon="14.886697511007716"><ele>871.0</ele><time>2026-04-12T10:06:36.758Z</time></trkpt><trkpt lat="37.868822149514685" lon="14.886961215901799"><ele>871.0</ele><time>2026-04-12T10:06:37.758Z</time></trkpt><trkpt lat="37.86896310500753" lon="14.887192855183661"><ele>871.0</ele><time>2026-04-12T10:06:38.758Z</time></trkpt><trkpt lat="37.86909004581027" lon="14.887397847477544"><ele>871.0</ele><time>2026-04-12T10:06:39.758Z</time></trkpt><trkpt lat="37.86920442331044" lon="14.88759551989671"><ele>869.6666666666666</ele><time>2026-04-12T10:06:40.758Z</time></trkpt><trkpt lat="37.86931701003494" lon="14.887776513416783"><ele>868.3333333333333</ele><time>2026-04-12T10:06:41.758Z</time></trkpt><trkpt lat="37.8694013000247" lon="14.88795550381616"><ele>867.0</ele><time>2026-04-12T10:06:42.758Z</time></trkpt><trkpt lat="37.869509072076944" lon="14.888107813604258"><ele>867.0</ele><time>2026-04-12T10:06:43.758Z</time></trkpt><trkpt lat="37.86959538061226" lon="14.888261398339935"><ele>867.0</ele><time>2026-04-12T10:06:44.758Z</time></trkpt><trkpt lat="37.869667729790294" lon="14.888415392088831"><ele>867.0</ele><time>2026-04-12T10:06:45.758Z</time></trkpt><trkpt lat="37.869761295351665" lon="14.888546516044908"><ele>867.0</ele><time>2026-04-12T10:06:46.757Z</time></trkpt><trkpt lat="37.869834371942304" lon="14.888677051467202"><ele>867.6</ele><time>2026-04-12T10:06:47.757Z</time></trkpt><trkpt lat="37.869902149377" lon="14.888797941402002"><ele>868.2</ele><time>2026-04-12T10:06:48.757Z</time></trkpt><trkpt lat="37.869970310549235" lon="14.888914148255596"><ele>868.8</ele><time>2026-04-12T10:06:49.757Z</time></trkpt><trkpt lat="37.87002704757293" lon="14.889020459162909"><ele>869.4</ele><time>2026-04-12T10:06:50.757Z</time></trkpt><trkpt lat="37.87008612137724" lon="14.889126432444646"><ele>870.0</ele><time>2026-04-12T10:06:51.757Z</time></trkpt><trkpt lat="37.870144571279376" lon="14.889244634622592"><ele>872.25</ele><time>2026-04-12T10:06:52.757Z</time></trkpt><trkpt lat="37.87019894589253" lon="14.889384031314702"><ele>874.5</ele><time>2026-04-12T10:06:53.757Z</time></trkpt><trkpt lat="37.87024074043205" lon="14.889525959515268"><ele>876.75</ele><time>2026-04-12T10:06:54.757Z</time></trkpt><trkpt lat="37.870266505248246" lon="14.88966400073494"><ele>879.0</ele><time>2026-04-12T10:06:55.757Z</time></trkpt><trkpt lat="37.870288005846646" lon="14.889807761778872"><ele>879.0</ele><time>2026-04-12T10:06:56.757Z</time></trkpt><trkpt lat="37.87030197161015" lon="14.889950043478041"><ele>879.0</ele><time>2026-04-12T10:06:57.757Z</time></trkpt><trkpt lat="37.87031326952589" lon="14.890096549152176"><ele>879.0</ele><time>2026-04-12T10:06:58.757Z</time></trkpt><trkpt lat="37.87029248842084" lon="14.890236403668224"><ele>879.0</ele><time>2026-04-12T10:06:59.757Z</time></trkpt><trkpt lat="37.870301881042536" lon="14.890382443205205"><ele>881.0</ele><time>2026-04-12T10:07:00.757Z</time></trkpt><trkpt lat="37.87028179220653" lon="14.890522041463326"><ele>883.0</ele><time>2026-04-12T10:07:01.757Z</time></trkpt><trkpt lat="37.87024896896414" lon="14.89066800438729"><ele>885.0</ele><time>2026-04-12T10:07:02.757Z</time></trkpt><trkpt lat="37.8702153780633" lon="14.890818110641474"><ele>887.0</ele><time>2026-04-12T10:07:03.757Z</time></trkpt><trkpt lat="37.870152107113164" lon="14.890967704516358"><ele>884.3333333333334</ele><time>2026-04-12T10:07:04.757Z</time></trkpt><trkpt lat="37.8700856769498" lon="14.891136489498152"><ele>881.6666666666667</ele><time>2026-04-12T10:07:05.757Z</time></trkpt><trkpt lat="37.87000670096594" lon="14.891331583399255"><ele>879.0</ele><time>2026-04-12T10:07:06.756Z</time></trkpt><trkpt lat="37.86992360187081" lon="14.891536862583644"><ele>879.0</ele><time>2026-04-12T10:07:07.756Z</time></trkpt><trkpt lat="37.86983536677689" lon="14.891754829200126"><ele>879.0</ele><time>2026-04-12T10:07:08.756Z</time></trkpt><trkpt lat="37.86973953603936" lon="14.891986096237252"><ele>879.0</ele><time>2026-04-12T10:07:09.756Z</time></trkpt><trkpt lat="37.869633702020714" lon="14.892220503242465"><ele>878.6666666666667</ele><time>2026-04-12T10:07:10.756Z</time></trkpt><trkpt lat="37.86951805658" lon="14.892449161814056"><ele>878.3333333333334</ele><time>2026-04-12T10:07:11.756Z</time></trkpt><trkpt lat="37.86939530119158" lon="14.89268466928413"><ele>878.0</ele><time>2026-04-12T10:07:12.756Z</time></trkpt><trkpt lat="37.869269527527" lon="14.892921451150128"><ele>874.0</ele><time>2026-04-12T10:07:13.756Z</time></trkpt><trkpt lat="37.86914245641157" lon="14.89316344230417"><ele>870.0</ele><time>2026-04-12T10:07:14.756Z</time></trkpt><trkpt lat="37.869010993453315" lon="14.893415241152585"><ele>872.5</ele><time>2026-04-12T10:07:15.756Z</time></trkpt><trkpt lat="37.86887989289399" lon="14.893665591679483"><ele>875.0</ele><time>2026-04-12T10:07:16.756Z</time></trkpt><trkpt lat="37.8687570840159" lon="14.893898556414484"><ele>875.0</ele><time>2026-04-12T10:07:17.756Z</time></trkpt><trkpt lat="37.86864167025514" lon="14.89412161170779"><ele>875.0</ele><time>2026-04-12T10:07:18.756Z</time></trkpt><trkpt lat="37.86854662713219" lon="14.894345503307758"><ele>875.0</ele><time>2026-04-12T10:07:19.756Z</time></trkpt><trkpt lat="37.868446008302406" lon="14.894564355630191"><ele>874.0</ele><time>2026-04-12T10:07:20.756Z</time></trkpt><trkpt lat="37.86835991746821" lon="14.894811582382076"><ele>873.0</ele><time>2026-04-12T10:07:21.756Z</time></trkpt><trkpt lat="37.86829709976584" lon="14.89509753830595"><ele>872.0</ele><time>2026-04-12T10:07:22.756Z</time></trkpt><trkpt lat="37.868259345790094" lon="14.895405450812676"><ele>871.5</ele><time>2026-04-12T10:07:23.756Z</time></trkpt><trkpt lat="37.86823912310517" lon="14.89572255915271"><ele>871.0</ele><time>2026-04-12T10:07:24.756Z</time></trkpt><trkpt lat="37.86822997930322" lon="14.896014889839387"><ele>869.0</ele><time>2026-04-12T10:07:25.756Z</time></trkpt><trkpt lat="37.86821787090566" lon="14.896311939320436"><ele>867.0</ele><time>2026-04-12T10:07:26.755Z</time></trkpt><trkpt lat="37.868209479656926" lon="14.89659202436131"><ele>866.0</ele><time>2026-04-12T10:07:27.755Z</time></trkpt><trkpt lat="37.86819368954156" lon="14.896864228432122"><ele>865.0</ele><time>2026-04-12T10:07:28.755Z</time></trkpt><trkpt lat="37.86816628537471" lon="14.897136271908622"><ele>864.0</ele><time>2026-04-12T10:07:29.755Z</time></trkpt><trkpt lat="37.868151757290676" lon="14.89740366525866"><ele>863.3333333333333</ele><time>2026-04-12T10:07:30.755Z</time></trkpt><trkpt lat="37.868137067474215" lon="14.897668932731115"><ele>862.6666666666666</ele><time>2026-04-12T10:07:31.755Z</time></trkpt><trkpt lat="37.86812387476686" lon="14.897927930326052"><ele>862.0</ele><time>2026-04-12T10:07:32.755Z</time></trkpt><trkpt lat="37.86811214078772" lon="14.898166618972773"><ele>862.0</ele><time>2026-04-12T10:07:33.755Z</time></trkpt><trkpt lat="37.868115133965695" lon="14.898406005888523"><ele>862.0</ele><time>2026-04-12T10:07:34.755Z</time></trkpt><trkpt lat="37.86810101708871" lon="14.898641536152534"><ele>862.0</ele><time>2026-04-12T10:07:35.755Z</time></trkpt><trkpt lat="37.86808582666394" lon="14.898876945677104"><ele>862.0</ele><time>2026-04-12T10:07:36.755Z</time></trkpt><trkpt lat="37.868075673436245" lon="14.899105444401725"><ele>862.0</ele><time>2026-04-12T10:07:37.755Z</time></trkpt><trkpt lat="37.86806150277301" lon="14.899323751871648"><ele>862.0</ele><time>2026-04-12T10:07:38.755Z</time></trkpt><trkpt lat="37.86804942052209" lon="14.89954008298334"><ele>862.3333333333333</ele><time>2026-04-12T10:07:39.755Z</time></trkpt><trkpt lat="37.868044287457465" lon="14.899752166681603"><ele>862.6666666666667</ele><time>2026-04-12T10:07:40.755Z</time></trkpt><trkpt lat="37.86803708519784" lon="14.89994378163121"><ele>863.0</ele><time>2026-04-12T10:07:41.755Z</time></trkpt><trkpt lat="37.868012290439225" lon="14.90011289094474"><ele>863.75</ele><time>2026-04-12T10:07:42.755Z</time></trkpt><trkpt lat="37.868004192467765" lon="14.90027300583802"><ele>864.5</ele><time>2026-04-12T10:07:43.755Z</time></trkpt><trkpt lat="37.8679954606309" lon="14.900445653687383"><ele>865.25</ele><time>2026-04-12T10:07:44.755Z</time></trkpt><trkpt lat="37.86798392362755" lon="14.900661369060515"><ele>866.0</ele><time>2026-04-12T10:07:45.754Z</time></trkpt><trkpt lat="37.86797069272967" lon="14.900907989832346"><ele>865.3333333333334</ele><time>2026-04-12T10:07:46.754Z</time></trkpt><trkpt lat="37.867970138892964" lon="14.901175724031688"><ele>864.6666666666667</ele><time>2026-04-12T10:07:47.754Z</time></trkpt><trkpt lat="37.86794788210828" lon="14.901465322045171"><ele>864.0</ele><time>2026-04-12T10:07:48.756Z</time></trkpt><trkpt lat="37.86793480552838" lon="14.901775370948297"><ele>862.5</ele><time>2026-04-12T10:07:49.757Z</time></trkpt><trkpt lat="37.86792390709525" lon="14.902080880187702"><ele>861.0</ele><time>2026-04-12T10:07:50.756Z</time></trkpt><trkpt lat="37.86789148075469" lon="14.902385627653684"><ele>860.5</ele><time>2026-04-12T10:07:51.757Z</time></trkpt><trkpt lat="37.86787575155077" lon="14.902684482519078"><ele>860.0</ele><time>2026-04-12T10:07:52.756Z</time></trkpt><trkpt lat="37.8678606845087" lon="14.902961939255817"><ele>860.0</ele><time>2026-04-12T10:07:53.756Z</time></trkpt><trkpt lat="37.867862638358794" lon="14.903224687647393"><ele>860.0</ele><time>2026-04-12T10:07:54.756Z</time></trkpt><trkpt lat="37.86784374040541" lon="14.903479984447754"><ele>860.0</ele><time>2026-04-12T10:07:55.757Z</time></trkpt><trkpt lat="37.867832104218245" lon="14.90374117457503"><ele>859.6666666666667</ele><time>2026-04-12T10:07:56.757Z</time></trkpt><trkpt lat="37.86781837014673" lon="14.903991929486324"><ele>859.3333333333333</ele><time>2026-04-12T10:07:57.757Z</time></trkpt><trkpt lat="37.86781115221979" lon="14.904226646269127"><ele>859.0</ele><time>2026-04-12T10:07:58.756Z</time></trkpt><trkpt lat="37.86779996208491" lon="14.904456861215888"><ele>859.6666666666666</ele><time>2026-04-12T10:07:59.756Z</time></trkpt><trkpt lat="37.867787227686854" lon="14.904696310497807"><ele>860.3333333333333</ele><time>2026-04-12T10:08:00.756Z</time></trkpt><trkpt lat="37.86777364016844" lon="14.9049377928526"><ele>861.0</ele><time>2026-04-12T10:08:01.757Z</time></trkpt><trkpt lat="37.867755795321166" lon="14.90519454824599"><ele>861.0</ele><time>2026-04-12T10:08:02.757Z</time></trkpt><trkpt lat="37.86774111858495" lon="14.905456770124236"><ele>861.0</ele><time>2026-04-12T10:08:03.757Z</time></trkpt><trkpt lat="37.86772779935898" lon="14.90571368400223"><ele>861.0</ele><time>2026-04-12T10:08:04.757Z</time></trkpt><trkpt lat="37.86770922185144" lon="14.905965925589284"><ele>861.3333333333333</ele><time>2026-04-12T10:08:05.757Z</time></trkpt><trkpt lat="37.86769584954301" lon="14.906216028170501"><ele>861.6666666666666</ele><time>2026-04-12T10:08:06.756Z</time></trkpt><trkpt lat="37.86768508304373" lon="14.90646510733122"><ele>862.0</ele><time>2026-04-12T10:08:07.756Z</time></trkpt><trkpt lat="37.867663274611445" lon="14.906713627992769"><ele>861.6666666666666</ele><time>2026-04-12T10:08:08.756Z</time></trkpt><trkpt lat="37.867612628183444" lon="14.906956217922897"><ele>861.3333333333333</ele><time>2026-04-12T10:08:09.756Z</time></trkpt><trkpt lat="37.86755864611213" lon="14.907198482533984"><ele>861.0</ele><time>2026-04-12T10:08:10.756Z</time></trkpt><trkpt lat="37.867507744784604" lon="14.907443640347507"><ele>861.6666666666667</ele><time>2026-04-12T10:08:11.756Z</time></trkpt><trkpt lat="37.867434445951254" lon="14.907682009244853"><ele>862.3333333333334</ele><time>2026-04-12T10:08:12.756Z</time></trkpt><trkpt lat="37.867359684598675" lon="14.90790965495863"><ele>863.0</ele><time>2026-04-12T10:08:13.756Z</time></trkpt><trkpt lat="37.867281852001476" lon="14.908137429326885"><ele>863.0</ele><time>2026-04-12T10:08:14.756Z</time></trkpt><trkpt lat="37.86720548547753" lon="14.908363954382283"><ele>863.0</ele><time>2026-04-12T10:08:15.756Z</time></trkpt><trkpt lat="37.86712504816959" lon="14.908592515421649"><ele>863.0</ele><time>2026-04-12T10:08:16.756Z</time></trkpt><trkpt lat="37.86703226735316" lon="14.908829974754514"><ele>861.3333333333334</ele><time>2026-04-12T10:08:17.756Z</time></trkpt><trkpt lat="37.86694575028953" lon="14.909083540734505"><ele>859.6666666666667</ele><time>2026-04-12T10:08:18.756Z</time></trkpt><trkpt lat="37.86685445864497" lon="14.909351340173764"><ele>858.0</ele><time>2026-04-12T10:08:19.756Z</time></trkpt><trkpt lat="37.86676271563655" lon="14.909621245070404"><ele>857.5</ele><time>2026-04-12T10:08:20.756Z</time></trkpt><trkpt lat="37.866668676272624" lon="14.909897905792265"><ele>857.0</ele><time>2026-04-12T10:08:21.756Z</time></trkpt><trkpt lat="37.86656936159341" lon="14.910190107880021"><ele>857.0</ele><time>2026-04-12T10:08:22.756Z</time></trkpt><trkpt lat="37.866466385877196" lon="14.910494431174168"><ele>857.0</ele><time>2026-04-12T10:08:23.756Z</time></trkpt><trkpt lat="37.86635947552755" lon="14.910810382479985"><ele>855.5</ele><time>2026-04-12T10:08:24.756Z</time></trkpt><trkpt lat="37.86626424191465" lon="14.911131094426768"><ele>854.0</ele><time>2026-04-12T10:08:25.756Z</time></trkpt><trkpt lat="37.86615734778735" lon="14.91143947366514"><ele>854.0</ele><time>2026-04-12T10:08:26.755Z</time></trkpt><trkpt lat="37.866059040517" lon="14.911735455394803"><ele>854.0</ele><time>2026-04-12T10:08:27.755Z</time></trkpt><trkpt lat="37.86596117720947" lon="14.912019141126168"><ele>855.0</ele><time>2026-04-12T10:08:28.755Z</time></trkpt><trkpt lat="37.865869170490946" lon="14.912297629807423"><ele>856.0</ele><time>2026-04-12T10:08:29.755Z</time></trkpt><trkpt lat="37.86579233660171" lon="14.912566264297821"><ele>855.6666666666666</ele><time>2026-04-12T10:08:30.755Z</time></trkpt><trkpt lat="37.86573865753737" lon="14.912828034496439"><ele>855.3333333333333</ele><time>2026-04-12T10:08:31.755Z</time></trkpt><trkpt lat="37.865716439158156" lon="14.913092161495301"><ele>855.0</ele><time>2026-04-12T10:08:32.755Z</time></trkpt><trkpt lat="37.86572201593883" lon="14.913369351185759"><ele>853.5</ele><time>2026-04-12T10:08:33.755Z</time></trkpt><trkpt lat="37.865767827450206" lon="14.913665729538275"><ele>852.0</ele><time>2026-04-12T10:08:34.755Z</time></trkpt><trkpt lat="37.86582543435458" lon="14.913970569342471"><ele>851.0</ele><time>2026-04-12T10:08:35.755Z</time></trkpt><trkpt lat="37.86586680251633" lon="14.914272956834603"><ele>850.0</ele><time>2026-04-12T10:08:36.755Z</time></trkpt><trkpt lat="37.86591424847782" lon="14.914556662019868"><ele>849.0</ele><time>2026-04-12T10:08:37.755Z</time></trkpt><trkpt lat="37.865959165185174" lon="14.914829473907588"><ele>848.0</ele><time>2026-04-12T10:08:38.755Z</time></trkpt><trkpt lat="37.86600118117246" lon="14.91508545035917"><ele>847.0</ele><time>2026-04-12T10:08:39.755Z</time></trkpt><trkpt lat="37.86604176814428" lon="14.915332988009968"><ele>846.0</ele><time>2026-04-12T10:08:40.755Z</time></trkpt><trkpt lat="37.866083209221316" lon="14.915585734734215"><ele>845.0</ele><time>2026-04-12T10:08:41.755Z</time></trkpt><trkpt lat="37.86612406369496" lon="14.915838696522057"><ele>844.0</ele><time>2026-04-12T10:08:42.755Z</time></trkpt><trkpt lat="37.8661621794261" lon="14.916090967059374"><ele>843.0</ele><time>2026-04-12T10:08:43.755Z</time></trkpt><trkpt lat="37.86620661051529" lon="14.916354579925137"><ele>842.0</ele><time>2026-04-12T10:08:44.755Z</time></trkpt><trkpt lat="37.86626564314958" lon="14.916620817485933"><ele>841.0</ele><time>2026-04-12T10:08:45.755Z</time></trkpt><trkpt lat="37.866344139863884" lon="14.91688745956232"><ele>840.5</ele><time>2026-04-12T10:08:46.754Z</time></trkpt><trkpt lat="37.86644051838674" lon="14.917169372760581"><ele>840.0</ele><time>2026-04-12T10:08:47.754Z</time></trkpt><trkpt lat="37.86654456578397" lon="14.917445838416853"><ele>839.3333333333333</ele><time>2026-04-12T10:08:48.754Z</time></trkpt><trkpt lat="37.86664589753063" lon="14.917706222721568"><ele>838.6666666666666</ele><time>2026-04-12T10:08:49.754Z</time></trkpt><trkpt lat="37.86674248224517" lon="14.917949809784112"><ele>838.0</ele><time>2026-04-12T10:08:50.754Z</time></trkpt><trkpt lat="37.866821655688426" lon="14.918190716181051"><ele>837.0</ele><time>2026-04-12T10:08:51.754Z</time></trkpt><trkpt lat="37.86690721050546" lon="14.918425917891774"><ele>836.0</ele><time>2026-04-12T10:08:52.754Z</time></trkpt><trkpt lat="37.86700646468903" lon="14.918657029241068"><ele>835.0</ele><time>2026-04-12T10:08:53.754Z</time></trkpt><trkpt lat="37.867090564306665" lon="14.918886652826947"><ele>835.0</ele><time>2026-04-12T10:08:54.754Z</time></trkpt><trkpt lat="37.86717305325355" lon="14.919119326414425"><ele>835.0</ele><time>2026-04-12T10:08:55.754Z</time></trkpt><trkpt lat="37.867259605900145" lon="14.919352338334697"><ele>835.0</ele><time>2026-04-12T10:08:56.754Z</time></trkpt><trkpt lat="37.8673416672438" lon="14.919598702750845"><ele>835.0</ele><time>2026-04-12T10:08:57.754Z</time></trkpt><trkpt lat="37.86743152215226" lon="14.919841991194538"><ele>835.0</ele><time>2026-04-12T10:08:58.754Z</time></trkpt><trkpt lat="37.867519551050506" lon="14.920091558070768"><ele>835.0</ele><time>2026-04-12T10:08:59.754Z</time></trkpt><trkpt lat="37.86760909155059" lon="14.920339887835407"><ele>833.6666666666666</ele><time>2026-04-12T10:09:00.754Z</time></trkpt><trkpt lat="37.867696728362404" lon="14.920585870068784"><ele>832.3333333333333</ele><time>2026-04-12T10:09:01.754Z</time></trkpt><trkpt lat="37.867785684405106" lon="14.920836414347564"><ele>831.0</ele><time>2026-04-12T10:09:02.754Z</time></trkpt><trkpt lat="37.8678805626449" lon="14.921092651927598"><ele>830.6666666666667</ele><time>2026-04-12T10:09:03.754Z</time></trkpt><trkpt lat="37.86797206719584" lon="14.921341322695561"><ele>830.3333333333334</ele><time>2026-04-12T10:09:04.754Z</time></trkpt><trkpt lat="37.86805973289651" lon="14.921587605662637"><ele>830.0</ele><time>2026-04-12T10:09:05.753Z</time></trkpt><trkpt lat="37.868152150358355" lon="14.921827652929677"><ele>830.0</ele><time>2026-04-12T10:09:06.753Z</time></trkpt><trkpt lat="37.86824077241645" lon="14.92207356924828"><ele>830.0</ele><time>2026-04-12T10:09:07.753Z</time></trkpt><trkpt lat="37.868329763635934" lon="14.922324337678713"><ele>830.0</ele><time>2026-04-12T10:09:08.753Z</time></trkpt><trkpt lat="37.868421003548754" lon="14.922580786063541"><ele>829.3333333333334</ele><time>2026-04-12T10:09:09.753Z</time></trkpt><trkpt lat="37.86851234196636" lon="14.922837831575633"><ele>828.6666666666667</ele><time>2026-04-12T10:09:10.753Z</time></trkpt><trkpt lat="37.86860809365168" lon="14.923089128952464"><ele>828.0</ele><time>2026-04-12T10:09:11.753Z</time></trkpt><trkpt lat="37.8686994601408" lon="14.923336979008685"><ele>827.6666666666667</ele><time>2026-04-12T10:09:12.753Z</time></trkpt><trkpt lat="37.86879271720494" lon="14.923583986981257"><ele>827.3333333333334</ele><time>2026-04-12T10:09:13.753Z</time></trkpt><trkpt lat="37.86886984557301" lon="14.923839598530998"><ele>827.0</ele><time>2026-04-12T10:09:14.753Z</time></trkpt><trkpt lat="37.86897696925568" lon="14.924091561003973"><ele>827.3333333333334</ele><time>2026-04-12T10:09:15.753Z</time></trkpt><trkpt lat="37.86905421420401" lon="14.9243464308798"><ele>827.6666666666667</ele><time>2026-04-12T10:09:16.753Z</time></trkpt><trkpt lat="37.86914389192542" lon="14.924593092014126"><ele>828.0</ele><time>2026-04-12T10:09:17.753Z</time></trkpt><trkpt lat="37.869232949669446" lon="14.924836562651025"><ele>827.3333333333333</ele><time>2026-04-12T10:09:18.753Z</time></trkpt><trkpt lat="37.86933566755833" lon="14.92508004403189"><ele>826.6666666666666</ele><time>2026-04-12T10:09:19.753Z</time></trkpt><trkpt lat="37.86942676792887" lon="14.925335391251624"><ele>826.0</ele><time>2026-04-12T10:09:20.753Z</time></trkpt><trkpt lat="37.86952196494763" lon="14.925585735824603"><ele>826.0</ele><time>2026-04-12T10:09:21.753Z</time></trkpt><trkpt lat="37.86961138233003" lon="14.925826226966361"><ele>826.0</ele><time>2026-04-12T10:09:22.753Z</time></trkpt><trkpt lat="37.869695915346746" lon="14.926062220753364"><ele>826.0</ele><time>2026-04-12T10:09:23.753Z</time></trkpt><trkpt lat="37.86978280314927" lon="14.926298819319502"><ele>824.3333333333333</ele><time>2026-04-12T10:09:24.753Z</time></trkpt><trkpt lat="37.869862904449135" lon="14.926529214641196"><ele>822.6666666666667</ele><time>2026-04-12T10:09:25.752Z</time></trkpt><trkpt lat="37.86992133079853" lon="14.926762078039182"><ele>821.0</ele><time>2026-04-12T10:09:26.752Z</time></trkpt><trkpt lat="37.869969307432704" lon="14.92698730130577"><ele>820.3333333333334</ele><time>2026-04-12T10:09:27.752Z</time></trkpt><trkpt lat="37.87000036498074" lon="14.927241435933064"><ele>819.6666666666667</ele><time>2026-04-12T10:09:28.752Z</time></trkpt><trkpt lat="37.870011787642746" lon="14.927514386769815"><ele>819.0</ele><time>2026-04-12T10:09:29.752Z</time></trkpt><trkpt lat="37.87002060605999" lon="14.927792582902836"><ele>819.0</ele><time>2026-04-12T10:09:30.752Z</time></trkpt><trkpt lat="37.87002921185971" lon="14.92805077539514"><ele>819.0</ele><time>2026-04-12T10:09:31.752Z</time></trkpt><trkpt lat="37.870038114712244" lon="14.928283539853233"><ele>819.0</ele><time>2026-04-12T10:09:32.752Z</time></trkpt><trkpt lat="37.87004591665969" lon="14.928495981583815"><ele>818.5</ele><time>2026-04-12T10:09:33.752Z</time></trkpt><trkpt lat="37.87005333083276" lon="14.928701518885907"><ele>818.0</ele><time>2026-04-12T10:09:34.752Z</time></trkpt><trkpt lat="37.870059265358464" lon="14.92887058251839"><ele>817.5</ele><time>2026-04-12T10:09:35.752Z</time></trkpt><trkpt lat="37.87006365056957" lon="14.929019958063472"><ele>817.0</ele><time>2026-04-12T10:09:36.752Z</time></trkpt><trkpt lat="37.87006614747235" lon="14.929153178593534"><ele>816.3333333333333</ele><time>2026-04-12T10:09:37.752Z</time></trkpt><trkpt lat="37.870067694202476" lon="14.929267711320172"><ele>815.6666666666666</ele><time>2026-04-12T10:09:38.752Z</time></trkpt><trkpt lat="37.87008372114443" lon="14.92935642401923"><ele>815.0</ele><time>2026-04-12T10:09:39.752Z</time></trkpt><trkpt lat="37.870072534641174" lon="14.929438329528157"><ele>814.3333333333333</ele><time>2026-04-12T10:09:40.752Z</time></trkpt><trkpt lat="37.87006778147868" lon="14.929586634022137"><ele>813.6666666666666</ele><time>2026-04-12T10:09:42.752Z</time></trkpt><trkpt lat="37.87007263335262" lon="14.929698142854756"><ele>813.0</ele><time>2026-04-12T10:09:44.752Z</time></trkpt><trkpt lat="37.870089046442395" lon="14.929784095895783"><ele>811.0</ele><time>2026-04-12T10:10:02.753Z</time></trkpt><trkpt lat="37.870110808927095" lon="14.929929399398459"><ele>809.0</ele><time>2026-04-12T10:10:04.753Z</time></trkpt><trkpt lat="37.87012765698401" lon="14.930035755697437"><ele>807.0</ele><time>2026-04-12T10:10:05.753Z</time></trkpt><trkpt lat="37.870160925193524" lon="14.930154501961665"><ele>805.0</ele><time>2026-04-12T10:10:06.753Z</time></trkpt><trkpt lat="37.87019098128851" lon="14.93030532407181"><ele>803.0</ele><time>2026-04-12T10:10:07.753Z</time></trkpt><trkpt lat="37.87025746715516" lon="14.93044576171719"><ele>803.0</ele><time>2026-04-12T10:10:08.753Z</time></trkpt><trkpt lat="37.87032254374888" lon="14.930615608484958"><ele>803.0</ele><time>2026-04-12T10:10:09.753Z</time></trkpt><trkpt lat="37.87039904698529" lon="14.930797855623291"><ele>803.0</ele><time>2026-04-12T10:10:10.753Z</time></trkpt><trkpt lat="37.870521232737005" lon="14.9309531186977"><ele>803.0</ele><time>2026-04-12T10:10:11.753Z</time></trkpt><trkpt lat="37.870646374567805" lon="14.9311186667858"><ele>803.0</ele><time>2026-04-12T10:10:12.753Z</time></trkpt><trkpt lat="37.870789758112" lon="14.931268745318409"><ele>803.0</ele><time>2026-04-12T10:10:13.752Z</time></trkpt><trkpt lat="37.87094531044063" lon="14.93141141898803"><ele>803.0</ele><time>2026-04-12T10:10:14.752Z</time></trkpt><trkpt lat="37.871115411887075" lon="14.931524364900712"><ele>803.0</ele><time>2026-04-12T10:10:15.752Z</time></trkpt><trkpt lat="37.87129157556159" lon="14.931626598138365"><ele>803.0</ele><time>2026-04-12T10:10:16.752Z</time></trkpt><trkpt lat="37.87145987392297" lon="14.931725174567719"><ele>804.3333333333334</ele><time>2026-04-12T10:10:17.752Z</time></trkpt><trkpt lat="37.871627662008905" lon="14.931829041734373"><ele>805.6666666666667</ele><time>2026-04-12T10:10:18.752Z</time></trkpt><trkpt lat="37.871792258138015" lon="14.93195930174015"><ele>807.0</ele><time>2026-04-12T10:10:19.752Z</time></trkpt><trkpt lat="37.871934996657714" lon="14.932124150972761"><ele>803.0</ele><time>2026-04-12T10:10:20.752Z</time></trkpt><trkpt lat="37.872046916657155" lon="14.932330867139804"><ele>799.0</ele><time>2026-04-12T10:10:21.752Z</time></trkpt><trkpt lat="37.87216135276971" lon="14.932541187468042"><ele>795.0</ele><time>2026-04-12T10:10:22.752Z</time></trkpt><trkpt lat="37.872229635405354" lon="14.932779182488677"><ele>795.0</ele><time>2026-04-12T10:10:23.752Z</time></trkpt><trkpt lat="37.87228996638716" lon="14.933016541943461"><ele>795.0</ele><time>2026-04-12T10:10:24.752Z</time></trkpt><trkpt lat="37.87233533486079" lon="14.93324957514419"><ele>795.0</ele><time>2026-04-12T10:10:25.752Z</time></trkpt><trkpt lat="37.87240779980071" lon="14.93348093112434"><ele>794.0</ele><time>2026-04-12T10:10:26.752Z</time></trkpt><trkpt lat="37.87242285427205" lon="14.933731380395573"><ele>793.0</ele><time>2026-04-12T10:10:27.752Z</time></trkpt><trkpt lat="37.872419379082714" lon="14.93398498369561"><ele>792.0</ele><time>2026-04-12T10:10:28.752Z</time></trkpt><trkpt lat="37.87240198380375" lon="14.934244789174405"><ele>791.3333333333333</ele><time>2026-04-12T10:10:29.752Z</time></trkpt><trkpt lat="37.87236556036783" lon="14.93450612637147"><ele>790.6666666666666</ele><time>2026-04-12T10:10:30.752Z</time></trkpt><trkpt lat="37.87236503287846" lon="14.934765906165257"><ele>790.0</ele><time>2026-04-12T10:10:31.752Z</time></trkpt><trkpt lat="37.87237072872802" lon="14.935024290051688"><ele>791.3333333333333</ele><time>2026-04-12T10:10:32.751Z</time></trkpt><trkpt lat="37.87238308886417" lon="14.9352694984411"><ele>792.6666666666667</ele><time>2026-04-12T10:10:33.751Z</time></trkpt><trkpt lat="37.87245268157755" lon="14.935488958232119"><ele>794.0</ele><time>2026-04-12T10:10:34.751Z</time></trkpt><trkpt lat="37.872482765643966" lon="14.935701425922614"><ele>793.6666666666667</ele><time>2026-04-12T10:10:35.751Z</time></trkpt><trkpt lat="37.872491255854214" lon="14.935913786416524"><ele>793.3333333333333</ele><time>2026-04-12T10:10:36.751Z</time></trkpt><trkpt lat="37.87247164648556" lon="14.936129083069881"><ele>793.0</ele><time>2026-04-12T10:10:37.751Z</time></trkpt><trkpt lat="37.872391185133246" lon="14.936356747672031"><ele>793.0</ele><time>2026-04-12T10:10:38.751Z</time></trkpt><trkpt lat="37.87239043033829" lon="14.936592887292253"><ele>793.0</ele><time>2026-04-12T10:10:39.751Z</time></trkpt><trkpt lat="37.872420184936125" lon="14.936851385475782"><ele>793.0</ele><time>2026-04-12T10:10:40.751Z</time></trkpt><trkpt lat="37.87248625209785" lon="14.937126030631534"><ele>793.0</ele><time>2026-04-12T10:10:41.751Z</time></trkpt><trkpt lat="37.872586000280904" lon="14.937377974011408"><ele>793.0</ele><time>2026-04-12T10:10:42.751Z</time></trkpt><trkpt lat="37.872672493183025" lon="14.937612538116262"><ele>793.0</ele><time>2026-04-12T10:10:43.751Z</time></trkpt><trkpt lat="37.87279550905548" lon="14.937807453905487"><ele>795.3333333333333</ele><time>2026-04-12T10:10:44.751Z</time></trkpt><trkpt lat="37.87297272309729" lon="14.937963663186043"><ele>797.6666666666667</ele><time>2026-04-12T10:10:45.751Z</time></trkpt><trkpt lat="37.87318377034469" lon="14.938083379497066"><ele>800.0</ele><time>2026-04-12T10:10:46.751Z</time></trkpt><trkpt lat="37.8733999897393" lon="14.938176268316912"><ele>799.6666666666667</ele><time>2026-04-12T10:10:47.751Z</time></trkpt><trkpt lat="37.87357407428089" lon="14.938299838401004"><ele>799.3333333333333</ele><time>2026-04-12T10:10:48.751Z</time></trkpt><trkpt lat="37.87367194444519" lon="14.938481685848556"><ele>799.0</ele><time>2026-04-12T10:10:49.751Z</time></trkpt><trkpt lat="37.87375657575875" lon="14.938672823843435"><ele>799.0</ele><time>2026-04-12T10:10:50.751Z</time></trkpt><trkpt lat="37.873842547138295" lon="14.93887325959266"><ele>799.0</ele><time>2026-04-12T10:10:51.751Z</time></trkpt><trkpt lat="37.87393364642603" lon="14.939081751242075"><ele>799.0</ele><time>2026-04-12T10:10:52.75Z</time></trkpt><trkpt lat="37.874018852741784" lon="14.939278698294865"><ele>800.6666666666666</ele><time>2026-04-12T10:10:53.75Z</time></trkpt><trkpt lat="37.87409623325685" lon="14.93946713332287"><ele>802.3333333333333</ele><time>2026-04-12T10:10:54.75Z</time></trkpt><trkpt lat="37.874166442246214" lon="14.939646583553142"><ele>804.0</ele><time>2026-04-12T10:10:55.75Z</time></trkpt><trkpt lat="37.87423459270718" lon="14.939815602021763"><ele>801.5</ele><time>2026-04-12T10:10:56.75Z</time></trkpt><trkpt lat="37.874307559823286" lon="14.939981236640442"><ele>799.0</ele><time>2026-04-12T10:10:57.75Z</time></trkpt><trkpt lat="37.87437421181734" lon="14.940132535899671"><ele>796.5</ele><time>2026-04-12T10:10:58.75Z</time></trkpt><trkpt lat="37.87443482554357" lon="14.94027303043061"><ele>794.0</ele><time>2026-04-12T10:10:59.75Z</time></trkpt><trkpt lat="37.87448585251945" lon="14.940428940490536"><ele>794.0</ele><time>2026-04-12T10:11:00.75Z</time></trkpt><trkpt lat="37.87451485045182" lon="14.940582524171312"><ele>794.0</ele><time>2026-04-12T10:11:01.75Z</time></trkpt><trkpt lat="37.87459937201223" lon="14.94073246040499"><ele>794.0</ele><time>2026-04-12T10:11:02.75Z</time></trkpt><trkpt lat="37.874614508689675" lon="14.94090091683929"><ele>794.0</ele><time>2026-04-12T10:11:03.75Z</time></trkpt><trkpt lat="37.874621134543176" lon="14.941053831243144"><ele>793.2</ele><time>2026-04-12T10:11:04.75Z</time></trkpt><trkpt lat="37.874621981533245" lon="14.94120133619516"><ele>792.4000000000001</ele><time>2026-04-12T10:11:05.75Z</time></trkpt><trkpt lat="37.87455527806223" lon="14.941331443248417"><ele>791.6</ele><time>2026-04-12T10:11:06.75Z</time></trkpt><trkpt lat="37.874552315605754" lon="14.941461562935908"><ele>790.8</ele><time>2026-04-12T10:11:07.75Z</time></trkpt><trkpt lat="37.874548715484394" lon="14.941578372073177"><ele>790.0</ele><time>2026-04-12T10:11:08.75Z</time></trkpt><trkpt lat="37.87454481808394" lon="14.941705056539321"><ele>788.4999999999999</ele><time>2026-04-12T10:11:09.75Z</time></trkpt><trkpt lat="37.87454080308543" lon="14.941804107610764"><ele>787.0</ele><time>2026-04-12T10:11:10.75Z</time></trkpt><trkpt lat="37.87453644673411" lon="14.94190323039693"><ele>785.5</ele><time>2026-04-12T10:11:11.75Z</time></trkpt><trkpt lat="37.874526845901855" lon="14.94200348267893"><ele>784.0</ele><time>2026-04-12T10:11:12.749Z</time></trkpt><trkpt lat="37.87451437864548" lon="14.942092775884202"><ele>782.4999999999999</ele><time>2026-04-12T10:11:13.749Z</time></trkpt><trkpt lat="37.87449897459267" lon="14.942190119841115"><ele>781.0</ele><time>2026-04-12T10:11:14.749Z</time></trkpt><trkpt lat="37.87448055298724" lon="14.942280989555808"><ele>781.0</ele><time>2026-04-12T10:11:15.749Z</time></trkpt><trkpt lat="37.874460206572145" lon="14.942383427748005"><ele>781.0</ele><time>2026-04-12T10:11:16.749Z</time></trkpt><trkpt lat="37.87444138968475" lon="14.942506859278042"><ele>781.0</ele><time>2026-04-12T10:11:17.749Z</time></trkpt><trkpt lat="37.8744313460089" lon="14.942630232713944"><ele>781.0</ele><time>2026-04-12T10:11:18.749Z</time></trkpt><trkpt lat="37.87446783000215" lon="14.94276662805009"><ele>781.0</ele><time>2026-04-12T10:11:19.749Z</time></trkpt><trkpt lat="37.87455938094028" lon="14.942880870742473"><ele>781.6666666666666</ele><time>2026-04-12T10:11:20.749Z</time></trkpt><trkpt lat="37.87466895259437" lon="14.943055592788063"><ele>782.3333333333333</ele><time>2026-04-12T10:11:21.749Z</time></trkpt><trkpt lat="37.87477815579934" lon="14.94324111224137"><ele>783.0</ele><time>2026-04-12T10:11:22.749Z</time></trkpt><trkpt lat="37.87485838614735" lon="14.943392551363752"><ele>783.0</ele><time>2026-04-12T10:11:23.749Z</time></trkpt><trkpt lat="37.874941956963255" lon="14.943520857961717"><ele>783.0</ele><time>2026-04-12T10:11:24.749Z</time></trkpt><trkpt lat="37.87501059687259" lon="14.94364777038161"><ele>783.0</ele><time>2026-04-12T10:11:25.749Z</time></trkpt><trkpt lat="37.87505043145278" lon="14.943760859643584"><ele>783.0</ele><time>2026-04-12T10:11:26.749Z</time></trkpt><trkpt lat="37.8750994185292" lon="14.943860456033802"><ele>783.0</ele><time>2026-04-12T10:11:27.749Z</time></trkpt><trkpt lat="37.87513870101316" lon="14.943945869289447"><ele>783.0</ele><time>2026-04-12T10:11:28.749Z</time></trkpt><trkpt lat="37.87517069825678" lon="14.944023650723679"><ele>783.0</ele><time>2026-04-12T10:11:29.749Z</time></trkpt><trkpt lat="37.87519962265472" lon="14.944097077747335"><ele>783.0</ele><time>2026-04-12T10:11:30.749Z</time></trkpt><trkpt lat="37.87522813216383" lon="14.944168734687782"><ele>783.0</ele><time>2026-04-12T10:11:31.748Z</time></trkpt><trkpt lat="37.87526010999802" lon="14.944247997726805"><ele>783.0</ele><time>2026-04-12T10:11:32.748Z</time></trkpt><trkpt lat="37.875296638426306" lon="14.944326591207101"><ele>783.0</ele><time>2026-04-12T10:11:33.748Z</time></trkpt><trkpt lat="37.875319234745724" lon="14.94440207035498"><ele>783.0</ele><time>2026-04-12T10:11:34.748Z</time></trkpt><trkpt lat="37.875379858883996" lon="14.944529022854862"><ele>783.4285714285714</ele><time>2026-04-12T10:11:36.748Z</time></trkpt><trkpt lat="37.87541179634264" lon="14.944609126056573"><ele>783.8571428571429</ele><time>2026-04-12T10:11:37.748Z</time></trkpt><trkpt lat="37.875446537774415" lon="14.944692319278197"><ele>784.2857142857143</ele><time>2026-04-12T10:11:38.748Z</time></trkpt><trkpt lat="37.875485659941596" lon="14.944767724203068"><ele>784.7142857142858</ele><time>2026-04-12T10:11:39.748Z</time></trkpt><trkpt lat="37.875497444222596" lon="14.944851556616625"><ele>785.1428571428571</ele><time>2026-04-12T10:11:40.748Z</time></trkpt><trkpt lat="37.87549840554082" lon="14.944964544445842"><ele>785.5714285714287</ele><time>2026-04-12T10:11:42.748Z</time></trkpt><trkpt lat="37.87543760808487" lon="14.94499816913697"><ele>786.0</ele><time>2026-04-12T10:11:43.748Z</time></trkpt><trkpt lat="37.87535094111993" lon="14.944951258827702"><ele>786.0</ele><time>2026-04-12T10:11:44.748Z</time></trkpt><trkpt lat="37.87523748482684" lon="14.944903638950008"><ele>786.0</ele><time>2026-04-12T10:11:45.748Z</time></trkpt><trkpt lat="37.87509467646444" lon="14.944848330970352"><ele>786.0</ele><time>2026-04-12T10:11:46.748Z</time></trkpt><trkpt lat="37.87495145313243" lon="14.944825575479648"><ele>786.0</ele><time>2026-04-12T10:11:47.748Z</time></trkpt><trkpt lat="37.87488909022888" lon="14.944864660946726"><ele>785.25</ele><time>2026-04-12T10:11:48.748Z</time></trkpt><trkpt lat="37.874852265300014" lon="14.945001713183423"><ele>784.5</ele><time>2026-04-12T10:11:50.748Z</time></trkpt><trkpt lat="37.87491514341638" lon="14.945056378036385"><ele>783.75</ele><time>2026-04-12T10:11:51.747Z</time></trkpt><trkpt lat="37.87505124550004" lon="14.945098455977053"><ele>783.0</ele><time>2026-04-12T10:11:53.747Z</time></trkpt><trkpt lat="37.875180914508384" lon="14.945140046318516"><ele>780.0</ele><time>2026-04-12T10:11:54.747Z</time></trkpt><trkpt lat="37.875326730221175" lon="14.945227288712532"><ele>777.0</ele><time>2026-04-12T10:11:55.747Z</time></trkpt><trkpt lat="37.87550537627832" lon="14.945331996322126"><ele>774.0</ele><time>2026-04-12T10:11:56.747Z</time></trkpt><trkpt lat="37.875695874176074" lon="14.945424296169938"><ele>774.0</ele><time>2026-04-12T10:11:57.747Z</time></trkpt><trkpt lat="37.87585575994255" lon="14.94555793647503"><ele>774.0</ele><time>2026-04-12T10:11:58.747Z</time></trkpt><trkpt lat="37.87597127628836" lon="14.945670659938328"><ele>774.0</ele><time>2026-04-12T10:11:59.75Z</time></trkpt><trkpt lat="37.876087098060665" lon="14.945779754240844"><ele>772.25</ele><time>2026-04-12T10:12:00.75Z</time></trkpt><trkpt lat="37.876192354887316" lon="14.945881570534148"><ele>770.5</ele><time>2026-04-12T10:12:01.749Z</time></trkpt><trkpt lat="37.87626389169803" lon="14.94599760265105"><ele>768.75</ele><time>2026-04-12T10:12:02.75Z</time></trkpt><trkpt lat="37.87630171066097" lon="14.946128754366072"><ele>767.0</ele><time>2026-04-12T10:12:03.75Z</time></trkpt><trkpt lat="37.87632098696107" lon="14.946278735676938"><ele>767.0</ele><time>2026-04-12T10:12:04.75Z</time></trkpt><trkpt lat="37.87634484122597" lon="14.946469298951047"><ele>767.0</ele><time>2026-04-12T10:12:05.75Z</time></trkpt><trkpt lat="37.87636627434359" lon="14.946632430923147"><ele>767.0</ele><time>2026-04-12T10:12:06.75Z</time></trkpt><trkpt lat="37.87638350631087" lon="14.946763587086622"><ele>767.0</ele><time>2026-04-12T10:12:07.75Z</time></trkpt><trkpt lat="37.876399598335" lon="14.946886066836994"><ele>766.6666666666666</ele><time>2026-04-12T10:12:08.749Z</time></trkpt><trkpt lat="37.876411987461" lon="14.946970649679605"><ele>766.3333333333333</ele><time>2026-04-12T10:12:09.749Z</time></trkpt><trkpt lat="37.87642499735386" lon="14.947049551565739"><ele>766.0</ele><time>2026-04-12T10:12:13.749Z</time></trkpt><trkpt lat="37.87644250609233" lon="14.947151001409134"><ele>765.6666666666666</ele><time>2026-04-12T10:12:18.749Z</time></trkpt><trkpt lat="37.87647596198357" lon="14.9472896474375"><ele>765.3333333333334</ele><time>2026-04-12T10:12:20.749Z</time></trkpt><trkpt lat="37.87650571384394" lon="14.947378853820736"><ele>765.0</ele><time>2026-04-12T10:12:21.749Z</time></trkpt><trkpt lat="37.87653410741554" lon="14.947458207908275"><ele>765.0</ele><time>2026-04-12T10:12:22.749Z</time></trkpt><trkpt lat="37.87657038662273" lon="14.947536020053027"><ele>765.0</ele><time>2026-04-12T10:12:23.749Z</time></trkpt><trkpt lat="37.876599666773785" lon="14.94761259865876"><ele>765.0</ele><time>2026-04-12T10:12:24.749Z</time></trkpt><trkpt lat="37.8766272555525" lon="14.94774258471669"><ele>765.0</ele><time>2026-04-12T10:12:26.749Z</time></trkpt><trkpt lat="37.87666699535921" lon="14.94780665288054"><ele>765.0</ele><time>2026-04-12T10:12:28.749Z</time></trkpt><trkpt lat="37.876716785837736" lon="14.947881399264134"><ele>765.0</ele><time>2026-04-12T10:12:40.748Z</time></trkpt><trkpt lat="37.876766567272725" lon="14.94799488084894"><ele>764.2</ele><time>2026-04-12T10:12:43.748Z</time></trkpt><trkpt lat="37.87681606211137" lon="14.948097138251002"><ele>763.4</ele><time>2026-04-12T10:12:45.82Z</time></trkpt><trkpt lat="37.8768650754674" lon="14.94819953249911"><ele>762.5999999999999</ele><time>2026-04-12T10:12:47.82Z</time></trkpt><trkpt lat="37.87691733162095" lon="14.948312169473157"><ele>761.8</ele><time>2026-04-12T10:12:49.82Z</time></trkpt><trkpt lat="37.876980756906235" lon="14.948452078199354"><ele>761.0</ele><time>2026-04-12T10:12:51.82Z</time></trkpt><trkpt lat="37.87701618700347" lon="14.948530232827254"><ele>760.8333333333333</ele><time>2026-04-12T10:12:52.82Z</time></trkpt><trkpt lat="37.87705263224588" lon="14.948610626757878"><ele>760.6666666666666</ele><time>2026-04-12T10:12:53.819Z</time></trkpt><trkpt lat="37.87708897440114" lon="14.948690793265872"><ele>760.5</ele><time>2026-04-12T10:12:54.819Z</time></trkpt><trkpt lat="37.8771501552157" lon="14.94882575103993"><ele>760.3333333333334</ele><time>2026-04-12T10:12:56.819Z</time></trkpt><trkpt lat="37.87718917701729" lon="14.948908512595525"><ele>760.1666666666667</ele><time>2026-04-12T10:12:58.819Z</time></trkpt><trkpt lat="37.87722590316391" lon="14.948987138853658"><ele>760.0</ele><time>2026-04-12T10:13:00.819Z</time></trkpt><trkpt lat="37.87725884188726" lon="14.949057656689728"><ele>760.0</ele><time>2026-04-12T10:13:02.819Z</time></trkpt><trkpt lat="37.87729323247008" lon="14.94913128278181"><ele>760.0</ele><time>2026-04-12T10:13:04.819Z</time></trkpt><trkpt lat="37.87732951868996" lon="14.949208967208378"><ele>760.0</ele><time>2026-04-12T10:13:06.819Z</time></trkpt><trkpt lat="37.87737404757948" lon="14.949299830018342"><ele>760.0</ele><time>2026-04-12T10:13:10.819Z</time></trkpt><trkpt lat="37.87741879030273" lon="14.949369059586703"><ele>760.0</ele><time>2026-04-12T10:13:13.819Z</time></trkpt><trkpt lat="37.87744015355363" lon="14.949470921358145"><ele>760.0</ele><time>2026-04-12T10:13:16.819Z</time></trkpt><trkpt lat="37.87747671473597" lon="14.94954022557486"><ele>760.0</ele><time>2026-04-12T10:13:18.819Z</time></trkpt><trkpt lat="37.877507725253395" lon="14.949611315948541"><ele>759.5</ele><time>2026-04-12T10:13:20.819Z</time></trkpt><trkpt lat="37.87755803171936" lon="14.949670226018648"><ele>759.0</ele><time>2026-04-12T10:13:26.818Z</time></trkpt><trkpt lat="37.87757840165342" lon="14.949763970091194"><ele>758.5</ele><time>2026-04-12T10:13:30.818Z</time></trkpt><trkpt lat="37.87760253734412" lon="14.94984384346223"><ele>758.0</ele><time>2026-04-12T10:13:38.818Z</time></trkpt><trkpt lat="37.87766610255121" lon="14.949891315350603"><ele>757.5</ele><time>2026-04-12T10:13:44.818Z</time></trkpt><trkpt lat="37.87770412827737" lon="14.949965823369816"><ele>757.0</ele><time>2026-04-12T10:13:48.817Z</time></trkpt><trkpt lat="37.87764728908178" lon="14.950069163326878"><ele>756.8571428571429</ele><time>2026-04-12T10:13:51.817Z</time></trkpt><trkpt lat="37.877719245968066" lon="14.950085196578982"><ele>756.7142857142857</ele><time>2026-04-12T10:13:52.817Z</time></trkpt><trkpt lat="37.877734324390815" lon="14.950163423630677"><ele>756.5714285714286</ele><time>2026-04-12T10:13:54.817Z</time></trkpt><trkpt lat="37.877749433177435" lon="14.950260451053406"><ele>756.4285714285714</ele><time>2026-04-12T10:13:57.817Z</time></trkpt><trkpt lat="37.877698066043166" lon="14.950357461411002"><ele>756.2857142857142</ele><time>2026-04-12T10:14:02.817Z</time></trkpt><trkpt lat="37.877712463515394" lon="14.950442866395184"><ele>756.1428571428571</ele><time>2026-04-12T10:14:09.82Z</time></trkpt><trkpt lat="37.87772682889615" lon="14.950528219663896"><ele>756.0</ele><time>2026-04-12T10:14:15.819Z</time></trkpt><trkpt lat="37.87774127414437" lon="14.950621759474016"><ele>756.0</ele><time>2026-04-12T10:14:20.819Z</time></trkpt><trkpt lat="37.87775742176775" lon="14.950718144057456"><ele>756.0</ele><time>2026-04-12T10:14:26.819Z</time></trkpt><trkpt lat="37.87778229342902" lon="14.95080681789681"><ele>756.0</ele><time>2026-04-12T10:14:29.819Z</time></trkpt><trkpt lat="37.8778106842629" lon="14.950879192838935"><ele>756.0</ele><time>2026-04-12T10:14:32.819Z</time></trkpt><trkpt lat="37.87784957847258" lon="14.950947975882332"><ele>756.0</ele><time>2026-04-12T10:14:34.819Z</time></trkpt><trkpt lat="37.87790805507206" lon="14.95103340099265"><ele>756.0</ele><time>2026-04-12T10:14:36.818Z</time></trkpt><trkpt lat="37.87795801995035" lon="14.95109560995494"><ele>756.0</ele><time>2026-04-12T10:14:38.818Z</time></trkpt><trkpt lat="37.87801051123318" lon="14.951159646737889"><ele>755.3333333333334</ele><time>2026-04-12T10:14:52.818Z</time></trkpt><trkpt lat="37.87806258408669" lon="14.951222162928099"><ele>754.6666666666666</ele><time>2026-04-12T10:14:54.818Z</time></trkpt><trkpt lat="37.87813199649642" lon="14.951293236004425"><ele>754.0</ele><time>2026-04-12T10:14:56.818Z</time></trkpt><trkpt lat="37.878188203894084" lon="14.951376999589275"><ele>753.3333333333333</ele><time>2026-04-12T10:14:58.818Z</time></trkpt><trkpt lat="37.87826213051732" lon="14.951458221626174"><ele>752.6666666666666</ele><time>2026-04-12T10:15:00.818Z</time></trkpt><trkpt lat="37.87833138841316" lon="14.951537606755998"><ele>752.0</ele><time>2026-04-12T10:15:02.817Z</time></trkpt><trkpt lat="37.87840905048204" lon="14.95161798523539"><ele>751.0</ele><time>2026-04-12T10:15:04.817Z</time></trkpt><trkpt lat="37.87849649216841" lon="14.951718275975388"><ele>750.0</ele><time>2026-04-12T10:15:06.817Z</time></trkpt><trkpt lat="37.878589598673045" lon="14.951818411839492"><ele>749.0</ele><time>2026-04-12T10:15:08.817Z</time></trkpt><trkpt lat="37.878624752243454" lon="14.9518854045568"><ele>748.0</ele><time>2026-04-12T10:15:09.817Z</time></trkpt><trkpt lat="37.878704037654444" lon="14.951972934552293"><ele>747.0</ele><time>2026-04-12T10:15:11.817Z</time></trkpt><trkpt lat="37.87875788943828" lon="14.952017756154351"><ele>747.0</ele><time>2026-04-12T10:15:12.817Z</time></trkpt><trkpt lat="37.87881282162127" lon="14.952078449911577"><ele>747.0</ele><time>2026-04-12T10:15:13.817Z</time></trkpt><trkpt lat="37.87888055552999" lon="14.952137034661364"><ele>747.0</ele><time>2026-04-12T10:15:14.817Z</time></trkpt><trkpt lat="37.878934646671794" lon="14.952221481968191"><ele>747.0</ele><time>2026-04-12T10:15:15.817Z</time></trkpt><trkpt lat="37.87898965734443" lon="14.952280668064112"><ele>747.0</ele><time>2026-04-12T10:15:16.817Z</time></trkpt><trkpt lat="37.87904201535732" lon="14.952337681472736"><ele>747.0</ele><time>2026-04-12T10:15:17.817Z</time></trkpt><trkpt lat="37.87909635849874" lon="14.952397927164704"><ele>747.0</ele><time>2026-04-12T10:15:18.817Z</time></trkpt><trkpt lat="37.879151861607134" lon="14.952459877527295"><ele>747.0</ele><time>2026-04-12T10:15:19.817Z</time></trkpt><trkpt lat="37.879205763513056" lon="14.95252012354289"><ele>747.0</ele><time>2026-04-12T10:15:20.817Z</time></trkpt><trkpt lat="37.87926320796415" lon="14.952584326036233"><ele>747.0</ele><time>2026-04-12T10:15:21.817Z</time></trkpt><trkpt lat="37.87934283046637" lon="14.952611568679174"><ele>747.0</ele><time>2026-04-12T10:15:22.817Z</time></trkpt><trkpt lat="37.87940203942674" lon="14.952663386562374"><ele>747.0</ele><time>2026-04-12T10:15:23.817Z</time></trkpt><trkpt lat="37.87946164857287" lon="14.952717132027574"><ele>746.1666666666666</ele><time>2026-04-12T10:15:24.817Z</time></trkpt><trkpt lat="37.87951521448309" lon="14.952775625846522"><ele>745.3333333333334</ele><time>2026-04-12T10:15:25.817Z</time></trkpt><trkpt lat="37.879569028593004" lon="14.952832469071796"><ele>744.5</ele><time>2026-04-12T10:15:26.817Z</time></trkpt><trkpt lat="37.87958270151766" lon="14.952941633574428"><ele>743.6666666666667</ele><time>2026-04-12T10:15:27.817Z</time></trkpt><trkpt lat="37.879632734709354" lon="14.952993825971799"><ele>742.8333333333334</ele><time>2026-04-12T10:15:28.816Z</time></trkpt><trkpt lat="37.879710111706544" lon="14.953077975469963"><ele>742.0</ele><time>2026-04-12T10:15:30.816Z</time></trkpt><trkpt lat="37.879760441861244" lon="14.953137714873808"><ele>742.0</ele><time>2026-04-12T10:15:33.816Z</time></trkpt><trkpt lat="37.87981185877228" lon="14.953185956687138"><ele>742.0</ele><time>2026-04-12T10:15:39.816Z</time></trkpt><trkpt lat="37.87985477881991" lon="14.953266000913535"><ele>742.0</ele><time>2026-04-12T10:15:45.816Z</time></trkpt><trkpt lat="37.87988948123305" lon="14.953382323109256"><ele>742.0</ele><time>2026-04-12T10:15:47.816Z</time></trkpt><trkpt lat="37.879899356466616" lon="14.953482228914016"><ele>742.0</ele><time>2026-04-12T10:15:48.816Z</time></trkpt><trkpt lat="37.879895126841305" lon="14.953608120389084"><ele>742.0</ele><time>2026-04-12T10:15:49.816Z</time></trkpt><trkpt lat="37.87989361769868" lon="14.953770136844502"><ele>741.6666666666667</ele><time>2026-04-12T10:15:50.816Z</time></trkpt><trkpt lat="37.87986191126959" lon="14.953961617769936"><ele>741.3333333333334</ele><time>2026-04-12T10:15:51.816Z</time></trkpt><trkpt lat="37.87983298862274" lon="14.954165810222786"><ele>741.0</ele><time>2026-04-12T10:15:52.816Z</time></trkpt><trkpt lat="37.8798015946177" lon="14.954364335442428"><ele>741.5</ele><time>2026-04-12T10:15:53.816Z</time></trkpt><trkpt lat="37.879767325419905" lon="14.95454555273265"><ele>742.0</ele><time>2026-04-12T10:15:54.815Z</time></trkpt><trkpt lat="37.879735726053674" lon="14.954717217366415"><ele>742.5</ele><time>2026-04-12T10:15:55.815Z</time></trkpt><trkpt lat="37.8797059692941" lon="14.95487762086425"><ele>743.0</ele><time>2026-04-12T10:15:56.815Z</time></trkpt><trkpt lat="37.87968280687699" lon="14.955034542438016"><ele>743.5</ele><time>2026-04-12T10:15:57.815Z</time></trkpt><trkpt lat="37.879670373541394" lon="14.95519039958108"><ele>744.0</ele><time>2026-04-12T10:15:58.815Z</time></trkpt><trkpt lat="37.879664849134684" lon="14.955355176152823"><ele>744.5</ele><time>2026-04-12T10:15:59.815Z</time></trkpt><trkpt lat="37.87964928736113" lon="14.95551534218989"><ele>745.0</ele><time>2026-04-12T10:16:00.815Z</time></trkpt><trkpt lat="37.87964155739011" lon="14.955665677598432"><ele>745.0</ele><time>2026-04-12T10:16:01.815Z</time></trkpt><trkpt lat="37.87963748618738" lon="14.955814240885344"><ele>745.0</ele><time>2026-04-12T10:16:02.815Z</time></trkpt><trkpt lat="37.879617115996666" lon="14.95595310173433"><ele>745.0</ele><time>2026-04-12T10:16:03.815Z</time></trkpt><trkpt lat="37.87960335038005" lon="14.95608828369577"><ele>745.0</ele><time>2026-04-12T10:16:04.815Z</time></trkpt><trkpt lat="37.87958713330785" lon="14.956212131261438"><ele>745.0</ele><time>2026-04-12T10:16:05.815Z</time></trkpt><trkpt lat="37.879569283471895" lon="14.956335804220446"><ele>744.8</ele><time>2026-04-12T10:16:06.815Z</time></trkpt><trkpt lat="37.8795558990834" lon="14.956453299057095"><ele>744.6</ele><time>2026-04-12T10:16:07.815Z</time></trkpt><trkpt lat="37.879535527114996" lon="14.956561196123046"><ele>744.4000000000001</ele><time>2026-04-12T10:16:08.815Z</time></trkpt><trkpt lat="37.879531279517394" lon="14.956676251893102"><ele>744.2</ele><time>2026-04-12T10:16:09.815Z</time></trkpt><trkpt lat="37.879521514457494" lon="14.956807100211561"><ele>744.0</ele><time>2026-04-12T10:16:10.815Z</time></trkpt><trkpt lat="37.87950403167344" lon="14.956934621584187"><ele>743.8333333333334</ele><time>2026-04-12T10:16:11.818Z</time></trkpt><trkpt lat="37.879491590803525" lon="14.957059398116506"><ele>743.6666666666666</ele><time>2026-04-12T10:16:12.818Z</time></trkpt><trkpt lat="37.87946197365433" lon="14.957162512655778"><ele>743.5</ele><time>2026-04-12T10:16:13.818Z</time></trkpt><trkpt lat="37.87944701068877" lon="14.957254730918395"><ele>743.3333333333333</ele><time>2026-04-12T10:16:14.818Z</time></trkpt><trkpt lat="37.87942810199089" lon="14.957346892657805"><ele>743.1666666666666</ele><time>2026-04-12T10:16:15.818Z</time></trkpt><trkpt lat="37.879407441482215" lon="14.95743828929641"><ele>743.0</ele><time>2026-04-12T10:16:16.818Z</time></trkpt><trkpt lat="37.87938713271714" lon="14.957524105068613"><ele>743.3333333333333</ele><time>2026-04-12T10:16:17.818Z</time></trkpt><trkpt lat="37.87936575389186" lon="14.95760881057976"><ele>743.6666666666666</ele><time>2026-04-12T10:16:18.818Z</time></trkpt><trkpt lat="37.87934127120159" lon="14.957691442589862"><ele>744.0</ele><time>2026-04-12T10:16:19.818Z</time></trkpt><trkpt lat="37.87929774929393" lon="14.957838262680788"><ele>744.3333333333334</ele><time>2026-04-12T10:16:21.818Z</time></trkpt><trkpt lat="37.879274019261224" lon="14.957918315407063"><ele>744.6666666666667</ele><time>2026-04-12T10:16:22.818Z</time></trkpt><trkpt lat="37.87923574031354" lon="14.958047910791016"><ele>745.0</ele><time>2026-04-12T10:16:24.818Z</time></trkpt><trkpt lat="37.87921077386073" lon="14.95813402211372"><ele>745.25</ele><time>2026-04-12T10:16:25.818Z</time></trkpt><trkpt lat="37.87918452744998" lon="14.958232082830559"><ele>745.5</ele><time>2026-04-12T10:16:26.818Z</time></trkpt><trkpt lat="37.87916045186147" lon="14.958367631575076"><ele>745.75</ele><time>2026-04-12T10:16:27.818Z</time></trkpt><trkpt lat="37.87911799822005" lon="14.958499047404468"><ele>746.0</ele><time>2026-04-12T10:16:28.818Z</time></trkpt><trkpt lat="37.879074060875546" lon="14.958677812186643"><ele>746.0</ele><time>2026-04-12T10:16:29.818Z</time></trkpt><trkpt lat="37.87903921958815" lon="14.95881009760541"><ele>746.0</ele><time>2026-04-12T10:16:30.818Z</time></trkpt><trkpt lat="37.87899230332372" lon="14.958944598153845"><ele>746.0</ele><time>2026-04-12T10:16:31.818Z</time></trkpt><trkpt lat="37.87889480632634" lon="14.959070897067539"><ele>746.0</ele><time>2026-04-12T10:16:32.817Z</time></trkpt><trkpt lat="37.87882819185674" lon="14.959264883981122"><ele>744.75</ele><time>2026-04-12T10:16:33.817Z</time></trkpt><trkpt lat="37.87876548982825" lon="14.959445108980123"><ele>743.5</ele><time>2026-04-12T10:16:34.817Z</time></trkpt><trkpt lat="37.878696864138014" lon="14.959612514431146"><ele>742.25</ele><time>2026-04-12T10:16:35.817Z</time></trkpt><trkpt lat="37.8786245854251" lon="14.959765658909678"><ele>741.0</ele><time>2026-04-12T10:16:36.817Z</time></trkpt><trkpt lat="37.87855125977973" lon="14.959896046873698"><ele>738.6666666666666</ele><time>2026-04-12T10:16:37.817Z</time></trkpt><trkpt lat="37.87852335866657" lon="14.960078358835178"><ele>736.3333333333333</ele><time>2026-04-12T10:16:38.817Z</time></trkpt><trkpt lat="37.87849444161444" lon="14.9603154667051"><ele>734.0</ele><time>2026-04-12T10:16:39.817Z</time></trkpt><trkpt lat="37.87848474736907" lon="14.960527290415785"><ele>734.0</ele><time>2026-04-12T10:16:40.817Z</time></trkpt><trkpt lat="37.87847720255343" lon="14.960729543783215"><ele>734.0</ele><time>2026-04-12T10:16:41.817Z</time></trkpt><trkpt lat="37.87847685461347" lon="14.960922927654696"><ele>734.0</ele><time>2026-04-12T10:16:42.817Z</time></trkpt><trkpt lat="37.8784715925456" lon="14.961106577053014"><ele>734.0</ele><time>2026-04-12T10:16:43.817Z</time></trkpt><trkpt lat="37.87847096259829" lon="14.961289194115666"><ele>734.0</ele><time>2026-04-12T10:16:44.817Z</time></trkpt><trkpt lat="37.878468175699524" lon="14.961461767063952"><ele>734.0</ele><time>2026-04-12T10:16:45.817Z</time></trkpt><trkpt lat="37.87846515035039" lon="14.961623520247336"><ele>734.0</ele><time>2026-04-12T10:16:46.817Z</time></trkpt><trkpt lat="37.87845394910273" lon="14.961776851438259"><ele>733.4000000000001</ele><time>2026-04-12T10:16:47.817Z</time></trkpt><trkpt lat="37.87845019859396" lon="14.961929014749764"><ele>732.8</ele><time>2026-04-12T10:16:48.817Z</time></trkpt><trkpt lat="37.87844584813322" lon="14.962077467369307"><ele>732.2</ele><time>2026-04-12T10:16:49.817Z</time></trkpt><trkpt lat="37.878420953635" lon="14.96221917156712"><ele>731.5999999999999</ele><time>2026-04-12T10:16:50.817Z</time></trkpt><trkpt lat="37.878413161540166" lon="14.962338994505583"><ele>731.0</ele><time>2026-04-12T10:16:51.817Z</time></trkpt><trkpt lat="37.87840643686697" lon="14.962442403156565"><ele>730.25</ele><time>2026-04-12T10:16:52.817Z</time></trkpt><trkpt lat="37.87839801913872" lon="14.962571846874603"><ele>729.5</ele><time>2026-04-12T10:16:53.817Z</time></trkpt><trkpt lat="37.878389627716054" lon="14.962700886144152"><ele>728.75</ele><time>2026-04-12T10:16:54.817Z</time></trkpt><trkpt lat="37.87836364147309" lon="14.962852026655096"><ele>728.0</ele><time>2026-04-12T10:16:55.817Z</time></trkpt><trkpt lat="37.87834577211841" lon="14.963027571335669"><ele>728.0</ele><time>2026-04-12T10:16:56.817Z</time></trkpt><trkpt lat="37.878336975971656" lon="14.963227653157988"><ele>728.0</ele><time>2026-04-12T10:16:57.817Z</time></trkpt><trkpt lat="37.87832984465937" lon="14.963429918335454"><ele>728.0</ele><time>2026-04-12T10:16:58.816Z</time></trkpt><trkpt lat="37.87832063841282" lon="14.963628670828271"><ele>727.75</ele><time>2026-04-12T10:16:59.816Z</time></trkpt><trkpt lat="37.87831153579639" lon="14.96381739614237"><ele>727.5</ele><time>2026-04-12T10:17:00.816Z</time></trkpt><trkpt lat="37.8783010694666" lon="14.963984844362527"><ele>727.25</ele><time>2026-04-12T10:17:01.816Z</time></trkpt><trkpt lat="37.8782874932306" lon="14.964147291577289"><ele>727.0</ele><time>2026-04-12T10:17:02.816Z</time></trkpt><trkpt lat="37.8782764379291" lon="14.964290277684588"><ele>726.4000000000001</ele><time>2026-04-12T10:17:03.816Z</time></trkpt><trkpt lat="37.87827033953852" lon="14.964423084055687"><ele>725.8000000000001</ele><time>2026-04-12T10:17:04.816Z</time></trkpt><trkpt lat="37.87826738748394" lon="14.964530154339434"><ele>725.2</ele><time>2026-04-12T10:17:05.816Z</time></trkpt><trkpt lat="37.878258408596054" lon="14.964648089264188"><ele>724.6</ele><time>2026-04-12T10:17:07.816Z</time></trkpt><trkpt lat="37.87823703348787" lon="14.964751636997484"><ele>724.0</ele><time>2026-04-12T10:17:09.816Z</time></trkpt><trkpt lat="37.878347579358696" lon="14.964943188747952"><ele>723.3333333333334</ele><time>2026-04-12T10:17:11.816Z</time></trkpt><trkpt lat="37.878399255470896" lon="14.96508704812699"><ele>722.6666666666666</ele><time>2026-04-12T10:17:12.816Z</time></trkpt><trkpt lat="37.87845270169407" lon="14.965282046160358"><ele>722.0</ele><time>2026-04-12T10:17:13.816Z</time></trkpt><trkpt lat="37.87850399715706" lon="14.965529590971661"><ele>720.6666666666666</ele><time>2026-04-12T10:17:14.816Z</time></trkpt><trkpt lat="37.87855447036851" lon="14.965793129182577"><ele>719.3333333333334</ele><time>2026-04-12T10:17:15.816Z</time></trkpt><trkpt lat="37.87861481112906" lon="14.9660655772399"><ele>718.0</ele><time>2026-04-12T10:17:16.816Z</time></trkpt><trkpt lat="37.87866913191356" lon="14.966308393689824"><ele>718.0</ele><time>2026-04-12T10:17:17.816Z</time></trkpt><trkpt lat="37.87871975615759" lon="14.966546829124104"><ele>718.0</ele><time>2026-04-12T10:17:18.816Z</time></trkpt><trkpt lat="37.87877269863063" lon="14.96677548031102"><ele>718.0</ele><time>2026-04-12T10:17:19.816Z</time></trkpt><trkpt lat="37.878804221683005" lon="14.967014392912906"><ele>717.6666666666667</ele><time>2026-04-12T10:17:20.816Z</time></trkpt><trkpt lat="37.878850093222965" lon="14.967250651581544"><ele>717.3333333333334</ele><time>2026-04-12T10:17:21.816Z</time></trkpt><trkpt lat="37.87891079322996" lon="14.967481527455318"><ele>717.0</ele><time>2026-04-12T10:17:22.816Z</time></trkpt><trkpt lat="37.8789546845075" lon="14.967723968179689"><ele>717.0</ele><time>2026-04-12T10:17:23.816Z</time></trkpt><trkpt lat="37.87899748498672" lon="14.967993279242666"><ele>717.0</ele><time>2026-04-12T10:17:24.815Z</time></trkpt><trkpt lat="37.87904645996045" lon="14.968266704682396"><ele>717.0</ele><time>2026-04-12T10:17:25.815Z</time></trkpt><trkpt lat="37.87910358104315" lon="14.96853559941487"><ele>717.5</ele><time>2026-04-12T10:17:26.815Z</time></trkpt><trkpt lat="37.87918303225486" lon="14.968806885105828"><ele>718.0</ele><time>2026-04-12T10:17:27.815Z</time></trkpt><trkpt lat="37.8792896808272" lon="14.96907859106295"><ele>716.0</ele><time>2026-04-12T10:17:28.815Z</time></trkpt><trkpt lat="37.87940757595381" lon="14.969335100642668"><ele>714.0</ele><time>2026-04-12T10:17:29.815Z</time></trkpt><trkpt lat="37.879514713886536" lon="14.969574527636617"><ele>714.0</ele><time>2026-04-12T10:17:30.815Z</time></trkpt><trkpt lat="37.87959242080803" lon="14.969801660767539"><ele>714.0</ele><time>2026-04-12T10:17:31.815Z</time></trkpt><trkpt lat="37.879658352146556" lon="14.970014242764346"><ele>714.0</ele><time>2026-04-12T10:17:32.815Z</time></trkpt><trkpt lat="37.87970493088026" lon="14.970239327930589"><ele>714.0</ele><time>2026-04-12T10:17:33.815Z</time></trkpt><trkpt lat="37.879762569084065" lon="14.970491906228858"><ele>714.0</ele><time>2026-04-12T10:17:34.815Z</time></trkpt><trkpt lat="37.879827823812654" lon="14.970751023507262"><ele>714.0</ele><time>2026-04-12T10:17:35.815Z</time></trkpt><trkpt lat="37.87991079288685" lon="14.97099985295307"><ele>714.0</ele><time>2026-04-12T10:17:36.815Z</time></trkpt><trkpt lat="37.879979785710916" lon="14.971255931641755"><ele>714.0</ele><time>2026-04-12T10:17:37.815Z</time></trkpt><trkpt lat="37.88004948780007" lon="14.971512690032206"><ele>714.0</ele><time>2026-04-12T10:17:38.815Z</time></trkpt><trkpt lat="37.880131288954246" lon="14.971774340867938"><ele>711.5</ele><time>2026-04-12T10:17:39.815Z</time></trkpt><trkpt lat="37.88022972138858" lon="14.97203621226593"><ele>709.0</ele><time>2026-04-12T10:17:40.815Z</time></trkpt><trkpt lat="37.88035250873697" lon="14.97230432065551"><ele>709.0</ele><time>2026-04-12T10:17:41.815Z</time></trkpt><trkpt lat="37.88046850195322" lon="14.972580547991479"><ele>709.0</ele><time>2026-04-12T10:17:42.815Z</time></trkpt><trkpt lat="37.880549290606346" lon="14.972853938274234"><ele>709.0</ele><time>2026-04-12T10:17:43.815Z</time></trkpt><trkpt lat="37.88063148333042" lon="14.97311106013102"><ele>709.0</ele><time>2026-04-12T10:17:44.815Z</time></trkpt><trkpt lat="37.880713237006304" lon="14.973366328444369"><ele>709.0</ele><time>2026-04-12T10:17:45.815Z</time></trkpt><trkpt lat="37.88078733750927" lon="14.97362753595418"><ele>709.6666666666667</ele><time>2026-04-12T10:17:46.815Z</time></trkpt><trkpt lat="37.88087209545904" lon="14.97388289434256"><ele>710.3333333333334</ele><time>2026-04-12T10:17:47.815Z</time></trkpt><trkpt lat="37.88095882111157" lon="14.974134900585605"><ele>711.0</ele><time>2026-04-12T10:17:48.815Z</time></trkpt><trkpt lat="37.88105369196833" lon="14.974387248796925"><ele>712.5</ele><time>2026-04-12T10:17:49.815Z</time></trkpt><trkpt lat="37.881155036346044" lon="14.974638550597227"><ele>714.0</ele><time>2026-04-12T10:17:50.814Z</time></trkpt><trkpt lat="37.88126224925856" lon="14.97489434447796"><ele>714.5</ele><time>2026-04-12T10:17:51.814Z</time></trkpt><trkpt lat="37.881367301433336" lon="14.975158703558435"><ele>715.0</ele><time>2026-04-12T10:17:52.814Z</time></trkpt><trkpt lat="37.88147180432659" lon="14.975435753981783"><ele>715.0</ele><time>2026-04-12T10:17:53.814Z</time></trkpt><trkpt lat="37.88157616012263" lon="14.975725503778992"><ele>715.0</ele><time>2026-04-12T10:17:54.814Z</time></trkpt><trkpt lat="37.8816883965676" lon="14.976011307115213"><ele>712.5</ele><time>2026-04-12T10:17:55.814Z</time></trkpt><trkpt lat="37.881797757125526" lon="14.976289028022174"><ele>710.0</ele><time>2026-04-12T10:17:56.814Z</time></trkpt><trkpt lat="37.88190482199766" lon="14.976555730490821"><ele>709.5</ele><time>2026-04-12T10:17:57.814Z</time></trkpt><trkpt lat="37.88200875655675" lon="14.97681453877319"><ele>709.0</ele><time>2026-04-12T10:17:58.814Z</time></trkpt><trkpt lat="37.88211488208743" lon="14.97706752187771"><ele>709.0</ele><time>2026-04-12T10:17:59.814Z</time></trkpt><trkpt lat="37.88221920999346" lon="14.977317911213607"><ele>709.0</ele><time>2026-04-12T10:18:00.814Z</time></trkpt><trkpt lat="37.882320900793424" lon="14.977580407770207"><ele>707.5</ele><time>2026-04-12T10:18:01.814Z</time></trkpt><trkpt lat="37.8824197026168" lon="14.97784631603359"><ele>706.0</ele><time>2026-04-12T10:18:02.814Z</time></trkpt><trkpt lat="37.88252391688635" lon="14.978115259166765"><ele>705.5</ele><time>2026-04-12T10:18:03.814Z</time></trkpt><trkpt lat="37.88263175351482" lon="14.97839116298276"><ele>705.0</ele><time>2026-04-12T10:18:04.814Z</time></trkpt><trkpt lat="37.88274342341347" lon="14.978680870385782"><ele>705.0</ele><time>2026-04-12T10:18:05.814Z</time></trkpt><trkpt lat="37.88285605702997" lon="14.978984203120733"><ele>705.0</ele><time>2026-04-12T10:18:06.814Z</time></trkpt><trkpt lat="37.88297701311385" lon="14.979299926415132"><ele>705.0</ele><time>2026-04-12T10:18:07.814Z</time></trkpt><trkpt lat="37.8830934232964" lon="14.979610424342685"><ele>705.0</ele><time>2026-04-12T10:18:08.814Z</time></trkpt><trkpt lat="37.883208626939684" lon="14.979915814820167"><ele>703.0</ele><time>2026-04-12T10:18:09.814Z</time></trkpt><trkpt lat="37.883299870268644" lon="14.980212945983613"><ele>701.0</ele><time>2026-04-12T10:18:10.814Z</time></trkpt><trkpt lat="37.88341691585056" lon="14.98048819879787"><ele>698.0</ele><time>2026-04-12T10:18:11.814Z</time></trkpt><trkpt lat="37.88351647348074" lon="14.98076607812528"><ele>695.0</ele><time>2026-04-12T10:18:12.814Z</time></trkpt><trkpt lat="37.88361869970459" lon="14.981057122705034"><ele>695.0</ele><time>2026-04-12T10:18:13.814Z</time></trkpt><trkpt lat="37.88372914105518" lon="14.98135989147136"><ele>695.0</ele><time>2026-04-12T10:18:14.814Z</time></trkpt><trkpt lat="37.883827029931474" lon="14.981679383966114"><ele>695.5</ele><time>2026-04-12T10:18:15.814Z</time></trkpt><trkpt lat="37.8839365844802" lon="14.98198203026972"><ele>696.0</ele><time>2026-04-12T10:18:16.813Z</time></trkpt><trkpt lat="37.884050535573856" lon="14.982294637006047"><ele>695.5</ele><time>2026-04-12T10:18:17.816Z</time></trkpt><trkpt lat="37.884170496920106" lon="14.98262383657117"><ele>695.0</ele><time>2026-04-12T10:18:18.816Z</time></trkpt><trkpt lat="37.88428410300482" lon="14.982935690770155"><ele>693.5</ele><time>2026-04-12T10:18:19.816Z</time></trkpt><trkpt lat="37.88441109311361" lon="14.98323536569474"><ele>692.0</ele><time>2026-04-12T10:18:20.815Z</time></trkpt><trkpt lat="37.88452357381419" lon="14.983539604625"><ele>690.5</ele><time>2026-04-12T10:18:21.815Z</time></trkpt><trkpt lat="37.88462271576033" lon="14.983853187796818"><ele>689.0</ele><time>2026-04-12T10:18:22.815Z</time></trkpt><trkpt lat="37.88473612528491" lon="14.98416020172769"><ele>687.5</ele><time>2026-04-12T10:18:23.815Z</time></trkpt><trkpt lat="37.88484615842546" lon="14.984466013115668"><ele>686.0</ele><time>2026-04-12T10:18:24.815Z</time></trkpt><trkpt lat="37.88495349206785" lon="14.984769235930129"><ele>685.5</ele><time>2026-04-12T10:18:25.815Z</time></trkpt><trkpt lat="37.88505828699634" lon="14.985068498450648"><ele>685.0</ele><time>2026-04-12T10:18:26.815Z</time></trkpt><trkpt lat="37.885159268594734" lon="14.985377411930937"><ele>685.0</ele><time>2026-04-12T10:18:27.815Z</time></trkpt><trkpt lat="37.88526218269109" lon="14.9857000498295"><ele>685.0</ele><time>2026-04-12T10:18:28.815Z</time></trkpt><trkpt lat="37.885365165346464" lon="14.986029350210618"><ele>681.5</ele><time>2026-04-12T10:18:29.815Z</time></trkpt><trkpt lat="37.88546616846491" lon="14.986348990891363"><ele>678.0</ele><time>2026-04-12T10:18:30.815Z</time></trkpt><trkpt lat="37.88556520633696" lon="14.986665089549748"><ele>676.5</ele><time>2026-04-12T10:18:31.815Z</time></trkpt><trkpt lat="37.885664508880225" lon="14.986982734110718"><ele>675.0</ele><time>2026-04-12T10:18:32.815Z</time></trkpt><trkpt lat="37.88576467268715" lon="14.987303281993539"><ele>674.0</ele><time>2026-04-12T10:18:33.815Z</time></trkpt><trkpt lat="37.885865191036274" lon="14.987624964496447"><ele>673.0</ele><time>2026-04-12T10:18:34.815Z</time></trkpt><trkpt lat="37.88596422258549" lon="14.987941888892417"><ele>672.5</ele><time>2026-04-12T10:18:35.815Z</time></trkpt><trkpt lat="37.88606199394265" lon="14.988254780373232"><ele>672.0</ele><time>2026-04-12T10:18:36.815Z</time></trkpt><trkpt lat="37.88615567171566" lon="14.988554571410823"><ele>671.0</ele><time>2026-04-12T10:18:37.815Z</time></trkpt><trkpt lat="37.88624216967296" lon="14.988829612742192"><ele>670.0</ele><time>2026-04-12T10:18:38.815Z</time></trkpt><trkpt lat="37.886326196161946" lon="14.989096305523459"><ele>669.5</ele><time>2026-04-12T10:18:39.815Z</time></trkpt><trkpt lat="37.886410699525435" lon="14.989369461921168"><ele>669.0</ele><time>2026-04-12T10:18:40.815Z</time></trkpt><trkpt lat="37.88649613320219" lon="14.989641146144915"><ele>669.0</ele><time>2026-04-12T10:18:41.815Z</time></trkpt><trkpt lat="37.886596405985046" lon="14.989901404941813"><ele>669.0</ele><time>2026-04-12T10:18:42.815Z</time></trkpt><trkpt lat="37.88668007226521" lon="14.990167612573964"><ele>667.0</ele><time>2026-04-12T10:18:43.815Z</time></trkpt><trkpt lat="37.88676384880906" lon="14.99043135071712"><ele>665.0</ele><time>2026-04-12T10:18:44.815Z</time></trkpt><trkpt lat="37.88684788230173" lon="14.990698294516292"><ele>664.3333333333333</ele><time>2026-04-12T10:18:45.815Z</time></trkpt><trkpt lat="37.88692851652552" lon="14.990963133408938"><ele>663.6666666666666</ele><time>2026-04-12T10:18:46.815Z</time></trkpt><trkpt lat="37.887004086727906" lon="14.991218904082492"><ele>663.0</ele><time>2026-04-12T10:18:47.815Z</time></trkpt><trkpt lat="37.88708131111012" lon="14.991462696246028"><ele>662.6666666666666</ele><time>2026-04-12T10:18:48.815Z</time></trkpt><trkpt lat="37.887166703849495" lon="14.991697343918684"><ele>662.3333333333333</ele><time>2026-04-12T10:18:49.814Z</time></trkpt><trkpt lat="37.88726453040676" lon="14.991933397264132"><ele>662.0</ele><time>2026-04-12T10:18:50.814Z</time></trkpt><trkpt lat="37.88738173185198" lon="14.99216219821515"><ele>662.0</ele><time>2026-04-12T10:18:51.814Z</time></trkpt><trkpt lat="37.88753967269708" lon="14.992378913370985"><ele>662.0</ele><time>2026-04-12T10:18:52.814Z</time></trkpt><trkpt lat="37.88771876778862" lon="14.992577400376987"><ele>660.0</ele><time>2026-04-12T10:18:53.814Z</time></trkpt><trkpt lat="37.88789428776228" lon="14.992799925758844"><ele>658.0</ele><time>2026-04-12T10:18:54.814Z</time></trkpt><trkpt lat="37.88806685351871" lon="14.99302204942413"><ele>658.0</ele><time>2026-04-12T10:18:55.814Z</time></trkpt><trkpt lat="37.888207371691955" lon="14.993232210479688"><ele>658.0</ele><time>2026-04-12T10:18:56.814Z</time></trkpt><trkpt lat="37.888324712005044" lon="14.99345286108237"><ele>658.0</ele><time>2026-04-12T10:18:57.814Z</time></trkpt><trkpt lat="37.8884293957985" lon="14.993689291187046"><ele>656.0</ele><time>2026-04-12T10:18:58.814Z</time></trkpt><trkpt lat="37.8885263715091" lon="14.993943409130765"><ele>654.0</ele><time>2026-04-12T10:18:59.814Z</time></trkpt><trkpt lat="37.888614749875224" lon="14.994204025093111"><ele>652.0</ele><time>2026-04-12T10:19:00.814Z</time></trkpt><trkpt lat="37.88869570762422" lon="14.99448112419114"><ele>651.5</ele><time>2026-04-12T10:19:01.814Z</time></trkpt><trkpt lat="37.88876567866375" lon="14.994760966263069"><ele>651.0</ele><time>2026-04-12T10:19:02.814Z</time></trkpt><trkpt lat="37.888811448909685" lon="14.995037406814161"><ele>650.6666666666666</ele><time>2026-04-12T10:19:03.814Z</time></trkpt><trkpt lat="37.88882316481852" lon="14.995306823519057"><ele>650.3333333333333</ele><time>2026-04-12T10:19:04.814Z</time></trkpt><trkpt lat="37.88879325268672" lon="14.995565259451592"><ele>650.0</ele><time>2026-04-12T10:19:05.814Z</time></trkpt><trkpt lat="37.88874859109831" lon="14.995832578022068"><ele>649.0</ele><time>2026-04-12T10:19:06.814Z</time></trkpt><trkpt lat="37.88871013207909" lon="14.996097819060692"><ele>648.0</ele><time>2026-04-12T10:19:07.814Z</time></trkpt><trkpt lat="37.888671380740035" lon="14.996361380361751"><ele>647.0</ele><time>2026-04-12T10:19:08.814Z</time></trkpt><trkpt lat="37.88859453282526" lon="14.996612926829965"><ele>646.3333333333333</ele><time>2026-04-12T10:19:09.814Z</time></trkpt><trkpt lat="37.888520309848545" lon="14.996872351801299"><ele>645.6666666666666</ele><time>2026-04-12T10:19:10.814Z</time></trkpt><trkpt lat="37.88844460238275" lon="14.997122817075033"><ele>645.0</ele><time>2026-04-12T10:19:11.814Z</time></trkpt><trkpt lat="37.88837315124893" lon="14.997359262286373"><ele>645.6666666666666</ele><time>2026-04-12T10:19:12.814Z</time></trkpt><trkpt lat="37.88830349730909" lon="14.997582632365337"><ele>646.3333333333333</ele><time>2026-04-12T10:19:13.814Z</time></trkpt><trkpt lat="37.888237639795804" lon="14.997791877821966"><ele>647.0</ele><time>2026-04-12T10:19:14.814Z</time></trkpt><trkpt lat="37.88816369207863" lon="14.997979871932284"><ele>647.0</ele><time>2026-04-12T10:19:15.813Z</time></trkpt><trkpt lat="37.88806742219505" lon="14.998127232202561"><ele>647.0</ele><time>2026-04-12T10:19:16.813Z</time></trkpt><trkpt lat="37.888000828425504" lon="14.998259708756793"><ele>647.0</ele><time>2026-04-12T10:19:17.813Z</time></trkpt><trkpt lat="37.88796935471606" lon="14.99840713902577"><ele>647.0</ele><time>2026-04-12T10:19:18.813Z</time></trkpt><trkpt lat="37.887968016902214" lon="14.99857802101396"><ele>645.3333333333333</ele><time>2026-04-12T10:19:19.813Z</time></trkpt><trkpt lat="37.88797526254255" lon="14.998816223237965"><ele>643.6666666666666</ele><time>2026-04-12T10:19:20.813Z</time></trkpt><trkpt lat="37.88798385144246" lon="14.999070841662311"><ele>642.0</ele><time>2026-04-12T10:19:21.813Z</time></trkpt><trkpt lat="37.88798986801744" lon="14.999335394299463"><ele>640.6666666666666</ele><time>2026-04-12T10:19:22.813Z</time></trkpt><trkpt lat="37.88799687281112" lon="14.999598813882566"><ele>639.3333333333333</ele><time>2026-04-12T10:19:23.813Z</time></trkpt><trkpt lat="37.88802319670797" lon="14.999855410416478"><ele>638.0</ele><time>2026-04-12T10:19:24.813Z</time></trkpt><trkpt lat="37.88803281817673" lon="15.000115466738533"><ele>638.0</ele><time>2026-04-12T10:19:25.813Z</time></trkpt><trkpt lat="37.88804552308117" lon="15.000379409564053"><ele>638.0</ele><time>2026-04-12T10:19:26.813Z</time></trkpt><trkpt lat="37.88806448032161" lon="15.000644605999678"><ele>638.0</ele><time>2026-04-12T10:19:27.813Z</time></trkpt><trkpt lat="37.888059654047865" lon="15.0009180400864"><ele>636.6666666666666</ele><time>2026-04-12T10:19:28.813Z</time></trkpt><trkpt lat="37.88806107373778" lon="15.001195982749502"><ele>635.3333333333334</ele><time>2026-04-12T10:19:29.813Z</time></trkpt><trkpt lat="37.88806029036952" lon="15.00148470834498"><ele>634.0</ele><time>2026-04-12T10:19:30.813Z</time></trkpt><trkpt lat="37.888059491735326" lon="15.001779060823829"><ele>632.0</ele><time>2026-04-12T10:19:31.813Z</time></trkpt><trkpt lat="37.88805933292591" lon="15.002067262821411"><ele>630.0</ele><time>2026-04-12T10:19:32.813Z</time></trkpt><trkpt lat="37.888059700590844" lon="15.002356416889294"><ele>629.5</ele><time>2026-04-12T10:19:33.813Z</time></trkpt><trkpt lat="37.88806007209635" lon="15.002648591201474"><ele>629.0</ele><time>2026-04-12T10:19:34.813Z</time></trkpt><trkpt lat="37.88806063617053" lon="15.00294023759701"><ele>629.0</ele><time>2026-04-12T10:19:35.813Z</time></trkpt><trkpt lat="37.8880613647521" lon="15.003237804660472"><ele>629.0</ele><time>2026-04-12T10:19:36.813Z</time></trkpt><trkpt lat="37.88806211288917" lon="15.003543358342627"><ele>628.5</ele><time>2026-04-12T10:19:37.813Z</time></trkpt><trkpt lat="37.88806286917516" lon="15.003852240695666"><ele>628.0</ele><time>2026-04-12T10:19:38.813Z</time></trkpt><trkpt lat="37.8880636068931" lon="15.004153226848192"><ele>625.5</ele><time>2026-04-12T10:19:39.813Z</time></trkpt><trkpt lat="37.88806436531356" lon="15.004462111907023"><ele>623.0</ele><time>2026-04-12T10:19:40.813Z</time></trkpt><trkpt lat="37.8880652808715" lon="15.004781347251885"><ele>621.5</ele><time>2026-04-12T10:19:41.812Z</time></trkpt><trkpt lat="37.88806684240267" lon="15.005124146592681"><ele>620.0</ele><time>2026-04-12T10:19:42.812Z</time></trkpt><trkpt lat="37.88808333957368" lon="15.005488143932832"><ele>618.0</ele><time>2026-04-12T10:19:43.812Z</time></trkpt><trkpt lat="37.888083497726996" lon="15.00585130887777"><ele>616.0</ele><time>2026-04-12T10:19:44.812Z</time></trkpt><trkpt lat="37.88808766138301" lon="15.006232089434848"><ele>616.0</ele><time>2026-04-12T10:19:45.812Z</time></trkpt><trkpt lat="37.888072430922065" lon="15.006556424760818"><ele>616.0</ele><time>2026-04-12T10:19:46.812Z</time></trkpt><trkpt lat="37.88807319101557" lon="15.00685778880961"><ele>615.6666666666667</ele><time>2026-04-12T10:19:47.812Z</time></trkpt><trkpt lat="37.88807364220658" lon="15.007141001053741"><ele>615.3333333333334</ele><time>2026-04-12T10:19:48.812Z</time></trkpt><trkpt lat="37.88807462643596" lon="15.007414620485916"><ele>615.0</ele><time>2026-04-12T10:19:49.812Z</time></trkpt><trkpt lat="37.888075460546666" lon="15.007685084725882"><ele>614.5</ele><time>2026-04-12T10:19:50.812Z</time></trkpt><trkpt lat="37.88807601319552" lon="15.007966765338216"><ele>614.0</ele><time>2026-04-12T10:19:51.812Z</time></trkpt><trkpt lat="37.88807658429904" lon="15.008257851692425"><ele>612.5</ele><time>2026-04-12T10:19:52.812Z</time></trkpt><trkpt lat="37.88807714346455" lon="15.008542854545983"><ele>611.0</ele><time>2026-04-12T10:19:53.812Z</time></trkpt><trkpt lat="37.88807771160101" lon="15.00883242945564"><ele>611.0</ele><time>2026-04-12T10:19:54.812Z</time></trkpt><trkpt lat="37.888078337321915" lon="15.009151355465352"><ele>611.0</ele><time>2026-04-12T10:19:55.812Z</time></trkpt><trkpt lat="37.88809517604703" lon="15.009493243031082"><ele>610.5</ele><time>2026-04-12T10:19:56.812Z</time></trkpt><trkpt lat="37.88809003743561" lon="15.009836142002417"><ele>610.0</ele><time>2026-04-12T10:19:57.812Z</time></trkpt><trkpt lat="37.88809535292072" lon="15.010182853679558"><ele>609.0</ele><time>2026-04-12T10:19:58.812Z</time></trkpt><trkpt lat="37.888081110391106" lon="15.010504191666051"><ele>608.0</ele><time>2026-04-12T10:19:59.812Z</time></trkpt><trkpt lat="37.888081748513315" lon="15.010808835802248"><ele>607.5</ele><time>2026-04-12T10:20:00.812Z</time></trkpt><trkpt lat="37.88808238485512" lon="15.01111262963156"><ele>607.0</ele><time>2026-04-12T10:20:01.812Z</time></trkpt><trkpt lat="37.88808322559583" lon="15.011417221328264"><ele>606.5</ele><time>2026-04-12T10:20:02.812Z</time></trkpt><trkpt lat="37.88808410940898" lon="15.011731080990124"><ele>606.0</ele><time>2026-04-12T10:20:03.812Z</time></trkpt><trkpt lat="37.88808507721162" lon="15.012074765033566"><ele>606.0</ele><time>2026-04-12T10:20:04.812Z</time></trkpt><trkpt lat="37.88808612074892" lon="15.01244534614392"><ele>606.0</ele><time>2026-04-12T10:20:05.812Z</time></trkpt><trkpt lat="37.88808750072727" lon="15.012819190604178"><ele>606.0</ele><time>2026-04-12T10:20:06.811Z</time></trkpt><trkpt lat="37.888089259436" lon="15.013207871852167"><ele>606.0</ele><time>2026-04-12T10:20:07.811Z</time></trkpt><trkpt lat="37.888104161218806" lon="15.013555338665064"><ele>605.5</ele><time>2026-04-12T10:20:08.811Z</time></trkpt><trkpt lat="37.88810854229301" lon="15.013883873526668"><ele>605.0</ele><time>2026-04-12T10:20:09.811Z</time></trkpt><trkpt lat="37.88810677864032" lon="15.014195555259192"><ele>604.6666666666666</ele><time>2026-04-12T10:20:10.811Z</time></trkpt><trkpt lat="37.88810960869346" lon="15.014486233193747"><ele>604.3333333333334</ele><time>2026-04-12T10:20:11.811Z</time></trkpt><trkpt lat="37.88809434213355" lon="15.01475111674065"><ele>604.0</ele><time>2026-04-12T10:20:12.811Z</time></trkpt><trkpt lat="37.88809099934242" lon="15.014987228857613"><ele>603.6666666666667</ele><time>2026-04-12T10:20:13.811Z</time></trkpt><trkpt lat="37.88809562635871" lon="15.015194833944973"><ele>603.3333333333334</ele><time>2026-04-12T10:20:14.811Z</time></trkpt><trkpt lat="37.888001608081694" lon="15.01537433053683"><ele>603.0</ele><time>2026-04-12T10:20:15.811Z</time></trkpt><trkpt lat="37.887957644512156" lon="15.015618883814112"><ele>603.3333333333334</ele><time>2026-04-12T10:20:16.811Z</time></trkpt><trkpt lat="37.88783144110806" lon="15.015841266832934"><ele>603.6666666666667</ele><time>2026-04-12T10:20:17.811Z</time></trkpt><trkpt lat="37.88776322146188" lon="15.016057202244117"><ele>604.0</ele><time>2026-04-12T10:20:18.811Z</time></trkpt><trkpt lat="37.88774244648339" lon="15.016260905337084"><ele>604.0</ele><time>2026-04-12T10:20:19.811Z</time></trkpt><trkpt lat="37.88776668087557" lon="15.016470710263746"><ele>604.0</ele><time>2026-04-12T10:20:20.811Z</time></trkpt><trkpt lat="37.88787382980066" lon="15.016716340977931"><ele>604.0</ele><time>2026-04-12T10:20:21.811Z</time></trkpt><trkpt lat="37.88797450449356" lon="15.016991537024605"><ele>603.0</ele><time>2026-04-12T10:20:22.811Z</time></trkpt><trkpt lat="37.88803262742379" lon="15.017291180141063"><ele>602.0</ele><time>2026-04-12T10:20:23.813Z</time></trkpt><trkpt lat="37.88809578274938" lon="15.017564665926711"><ele>600.6666666666666</ele><time>2026-04-12T10:20:24.813Z</time></trkpt><trkpt lat="37.88815347597045" lon="15.017814032877613"><ele>599.3333333333334</ele><time>2026-04-12T10:20:25.813Z</time></trkpt><trkpt lat="37.88820880723664" lon="15.018053189004265"><ele>598.0</ele><time>2026-04-12T10:20:26.813Z</time></trkpt><trkpt lat="37.888254319307904" lon="15.018279507652977"><ele>597.6666666666667</ele><time>2026-04-12T10:20:27.813Z</time></trkpt><trkpt lat="37.88828368582981" lon="15.018511646721617"><ele>597.3333333333334</ele><time>2026-04-12T10:20:28.813Z</time></trkpt><trkpt lat="37.88830776553461" lon="15.01875783554882"><ele>597.0</ele><time>2026-04-12T10:20:29.813Z</time></trkpt><trkpt lat="37.88832546990812" lon="15.018999142472648"><ele>596.3333333333334</ele><time>2026-04-12T10:20:30.814Z</time></trkpt><trkpt lat="37.8883440972213" lon="15.01924126164205"><ele>595.6666666666667</ele><time>2026-04-12T10:20:31.814Z</time></trkpt><trkpt lat="37.88836678024816" lon="15.019490531992336"><ele>595.0</ele><time>2026-04-12T10:20:32.813Z</time></trkpt><trkpt lat="37.88841484523479" lon="15.019713548903038"><ele>593.6666666666667</ele><time>2026-04-12T10:20:33.813Z</time></trkpt><trkpt lat="37.88845337035627" lon="15.019913626646316"><ele>592.3333333333334</ele><time>2026-04-12T10:20:34.813Z</time></trkpt><trkpt lat="37.88851204060681" lon="15.020097670756002"><ele>591.0</ele><time>2026-04-12T10:20:35.813Z</time></trkpt><trkpt lat="37.88856942119548" lon="15.020259234870183"><ele>591.0</ele><time>2026-04-12T10:20:36.813Z</time></trkpt><trkpt lat="37.88863275972872" lon="15.020398970095377"><ele>591.0</ele><time>2026-04-12T10:20:37.813Z</time></trkpt><trkpt lat="37.88862900322922" lon="15.020535474671311"><ele>591.0</ele><time>2026-04-12T10:20:38.813Z</time></trkpt><trkpt lat="37.888621696965245" lon="15.020707263692445"><ele>591.0</ele><time>2026-04-12T10:20:39.813Z</time></trkpt><trkpt lat="37.888626876751395" lon="15.020933226532941"><ele>591.0</ele><time>2026-04-12T10:20:40.813Z</time></trkpt><trkpt lat="37.88863034763291" lon="15.02118076097972"><ele>591.0</ele><time>2026-04-12T10:20:41.813Z</time></trkpt><trkpt lat="37.8886366112243" lon="15.021425328420596"><ele>591.0</ele><time>2026-04-12T10:20:42.813Z</time></trkpt><trkpt lat="37.8886352670708" lon="15.021670807164806"><ele>590.0</ele><time>2026-04-12T10:20:43.813Z</time></trkpt><trkpt lat="37.88861985732118" lon="15.021899861290436"><ele>589.0</ele><time>2026-04-12T10:20:44.813Z</time></trkpt><trkpt lat="37.888616815933716" lon="15.02211740659817"><ele>588.0</ele><time>2026-04-12T10:20:45.813Z</time></trkpt><trkpt lat="37.888637178844256" lon="15.022319822090644"><ele>588.6666666666666</ele><time>2026-04-12T10:20:46.813Z</time></trkpt><trkpt lat="37.88869831240697" lon="15.022511558774305"><ele>589.3333333333333</ele><time>2026-04-12T10:20:47.813Z</time></trkpt><trkpt lat="37.88875895256993" lon="15.02269685169618"><ele>590.0</ele><time>2026-04-12T10:20:48.813Z</time></trkpt><trkpt lat="37.88880374632529" lon="15.022864406244803"><ele>590.0</ele><time>2026-04-12T10:20:49.813Z</time></trkpt><trkpt lat="37.88878120131475" lon="15.0230296234488"><ele>590.0</ele><time>2026-04-12T10:20:50.812Z</time></trkpt><trkpt lat="37.88875931737917" lon="15.023228468657575"><ele>590.0</ele><time>2026-04-12T10:20:51.812Z</time></trkpt><trkpt lat="37.88877157894708" lon="15.023423326298342"><ele>590.0</ele><time>2026-04-12T10:20:52.812Z</time></trkpt><trkpt lat="37.88876008521366" lon="15.023610076022942"><ele>590.75</ele><time>2026-04-12T10:20:53.812Z</time></trkpt><trkpt lat="37.88876350958411" lon="15.023788480046882"><ele>591.5</ele><time>2026-04-12T10:20:54.812Z</time></trkpt><trkpt lat="37.88873787479146" lon="15.023953235499123"><ele>592.25</ele><time>2026-04-12T10:20:55.812Z</time></trkpt><trkpt lat="37.88871023129113" lon="15.024114804079046"><ele>593.0</ele><time>2026-04-12T10:20:56.812Z</time></trkpt><trkpt lat="37.88867210984268" lon="15.024283529296882"><ele>593.0</ele><time>2026-04-12T10:20:57.812Z</time></trkpt><trkpt lat="37.8886320021126" lon="15.024454550809608"><ele>593.0</ele><time>2026-04-12T10:20:58.812Z</time></trkpt><trkpt lat="37.8885898252699" lon="15.024617324248167"><ele>593.0</ele><time>2026-04-12T10:20:59.812Z</time></trkpt><trkpt lat="37.88854889969719" lon="15.024768427623133"><ele>593.0</ele><time>2026-04-12T10:21:00.812Z</time></trkpt><trkpt lat="37.88846080023966" lon="15.024903758574263"><ele>593.5</ele><time>2026-04-12T10:21:01.812Z</time></trkpt><trkpt lat="37.88836526452131" lon="15.025052612155426"><ele>594.0</ele><time>2026-04-12T10:21:02.812Z</time></trkpt><trkpt lat="37.88826585360007" lon="15.025199106033924"><ele>594.5</ele><time>2026-04-12T10:21:03.812Z</time></trkpt><trkpt lat="37.88818237426193" lon="15.025341107774876"><ele>595.0</ele><time>2026-04-12T10:21:04.812Z</time></trkpt><trkpt lat="37.8880952824955" lon="15.025468822764571"><ele>595.0</ele><time>2026-04-12T10:21:05.812Z</time></trkpt><trkpt lat="37.88801406961931" lon="15.025607404839997"><ele>595.0</ele><time>2026-04-12T10:21:06.812Z</time></trkpt><trkpt lat="37.88794298707045" lon="15.025757420518348"><ele>595.0</ele><time>2026-04-12T10:21:07.812Z</time></trkpt><trkpt lat="37.887901881604314" lon="15.025918993250913"><ele>595.0</ele><time>2026-04-12T10:21:08.812Z</time></trkpt><trkpt lat="37.88792513241073" lon="15.026099369442521"><ele>594.0</ele><time>2026-04-12T10:21:09.812Z</time></trkpt><trkpt lat="37.88797731406554" lon="15.026295935053456"><ele>593.0</ele><time>2026-04-12T10:21:10.812Z</time></trkpt><trkpt lat="37.887967779807795" lon="15.02649114742746"><ele>592.0</ele><time>2026-04-12T10:21:11.812Z</time></trkpt><trkpt lat="37.887912841555085" lon="15.026704111301873"><ele>589.0</ele><time>2026-04-12T10:21:12.812Z</time></trkpt><trkpt lat="37.8878522047226" lon="15.026945825604846"><ele>586.0</ele><time>2026-04-12T10:21:13.812Z</time></trkpt><trkpt lat="37.887822406695996" lon="15.027176463293706"><ele>583.0</ele><time>2026-04-12T10:21:14.812Z</time></trkpt><trkpt lat="37.88781606869999" lon="15.02739380853034"><ele>580.6666666666667</ele><time>2026-04-12T10:21:15.812Z</time></trkpt><trkpt lat="37.88777354105156" lon="15.02758356088923"><ele>578.3333333333334</ele><time>2026-04-12T10:21:16.811Z</time></trkpt><trkpt lat="37.887706941329085" lon="15.027750558590663"><ele>576.0</ele><time>2026-04-12T10:21:17.811Z</time></trkpt><trkpt lat="37.88758376864573" lon="15.02793833521693"><ele>579.3333333333334</ele><time>2026-04-12T10:21:18.811Z</time></trkpt><trkpt lat="37.88748798110656" lon="15.028165275570963"><ele>582.6666666666667</ele><time>2026-04-12T10:21:19.811Z</time></trkpt><trkpt lat="37.88740454073103" lon="15.028411644364024"><ele>586.0</ele><time>2026-04-12T10:21:20.811Z</time></trkpt><trkpt lat="37.88736897922209" lon="15.028681637777071"><ele>586.0</ele><time>2026-04-12T10:21:21.811Z</time></trkpt><trkpt lat="37.88736016291668" lon="15.028926338475749"><ele>586.0</ele><time>2026-04-12T10:21:22.811Z</time></trkpt><trkpt lat="37.88735757828326" lon="15.029178225837503"><ele>586.0</ele><time>2026-04-12T10:21:23.811Z</time></trkpt><trkpt lat="37.887366280219894" lon="15.029438212770284"><ele>583.3333333333334</ele><time>2026-04-12T10:21:24.811Z</time></trkpt><trkpt lat="37.88733175005333" lon="15.029668286631724"><ele>580.6666666666666</ele><time>2026-04-12T10:21:25.811Z</time></trkpt><trkpt lat="37.887308523268594" lon="15.029895324195163"><ele>578.0</ele><time>2026-04-12T10:21:26.811Z</time></trkpt><trkpt lat="37.88729258457555" lon="15.030124009494209"><ele>577.6666666666666</ele><time>2026-04-12T10:21:27.811Z</time></trkpt><trkpt lat="37.88731523543686" lon="15.030339887053655"><ele>577.3333333333334</ele><time>2026-04-12T10:21:28.811Z</time></trkpt><trkpt lat="37.887319513546764" lon="15.030534241697739"><ele>577.0</ele><time>2026-04-12T10:21:29.811Z</time></trkpt><trkpt lat="37.887260591396384" lon="15.030697240726402"><ele>576.5</ele><time>2026-04-12T10:21:30.811Z</time></trkpt><trkpt lat="37.88722488134844" lon="15.030867134291285"><ele>576.0</ele><time>2026-04-12T10:21:31.811Z</time></trkpt><trkpt lat="37.88721115015064" lon="15.031045429794933"><ele>575.5</ele><time>2026-04-12T10:21:32.811Z</time></trkpt><trkpt lat="37.88719363134272" lon="15.031228758676688"><ele>575.0</ele><time>2026-04-12T10:21:33.811Z</time></trkpt><trkpt lat="37.8871944275356" lon="15.031415573315423"><ele>575.0</ele><time>2026-04-12T10:21:34.811Z</time></trkpt><trkpt lat="37.88719885034651" lon="15.031609202139995"><ele>575.0</ele><time>2026-04-12T10:21:35.811Z</time></trkpt><trkpt lat="37.887196775316255" lon="15.031806960260408"><ele>575.0</ele><time>2026-04-12T10:21:36.811Z</time></trkpt><trkpt lat="37.887185628397205" lon="15.03199564663126"><ele>575.6666666666666</ele><time>2026-04-12T10:21:37.811Z</time></trkpt><trkpt lat="37.88717133899385" lon="15.03217597420256"><ele>576.3333333333334</ele><time>2026-04-12T10:21:38.811Z</time></trkpt><trkpt lat="37.88714920326144" lon="15.032362072345114"><ele>577.0</ele><time>2026-04-12T10:21:39.811Z</time></trkpt><trkpt lat="37.887132655577226" lon="15.032562085111545"><ele>577.0</ele><time>2026-04-12T10:21:40.811Z</time></trkpt><trkpt lat="37.887103990882586" lon="15.032793971130396"><ele>577.0</ele><time>2026-04-12T10:21:41.811Z</time></trkpt><trkpt lat="37.88708389536486" lon="15.033067834680859"><ele>577.0</ele><time>2026-04-12T10:21:42.81Z</time></trkpt><trkpt lat="37.887059975747654" lon="15.033343211881967"><ele>574.6666666666667</ele><time>2026-04-12T10:21:43.81Z</time></trkpt><trkpt lat="37.88703485283976" lon="15.033613811132403"><ele>572.3333333333334</ele><time>2026-04-12T10:21:44.81Z</time></trkpt><trkpt lat="37.88701203464791" lon="15.03386657406473"><ele>570.0</ele><time>2026-04-12T10:21:45.81Z</time></trkpt><trkpt lat="37.88699672056035" lon="15.034107158821936"><ele>569.3333333333334</ele><time>2026-04-12T10:21:46.81Z</time></trkpt><trkpt lat="37.886990998637614" lon="15.034330936468708"><ele>568.6666666666667</ele><time>2026-04-12T10:21:47.81Z</time></trkpt><trkpt lat="37.88699784556208" lon="15.034523370127243"><ele>568.0</ele><time>2026-04-12T10:21:48.81Z</time></trkpt><trkpt lat="37.8870284625993" lon="15.034696480942932"><ele>568.0</ele><time>2026-04-12T10:21:49.81Z</time></trkpt><trkpt lat="37.887107074212906" lon="15.034876594845466"><ele>568.0</ele><time>2026-04-12T10:21:50.81Z</time></trkpt><trkpt lat="37.88720451419152" lon="15.035077902542954"><ele>568.0</ele><time>2026-04-12T10:21:51.81Z</time></trkpt><trkpt lat="37.887265284790224" lon="15.03530539178016"><ele>568.0</ele><time>2026-04-12T10:21:52.81Z</time></trkpt><trkpt lat="37.88729210898273" lon="15.035519315303306"><ele>568.0</ele><time>2026-04-12T10:21:53.81Z</time></trkpt><trkpt lat="37.887269563455035" lon="15.035737221509713"><ele>568.0</ele><time>2026-04-12T10:21:54.81Z</time></trkpt><trkpt lat="37.887251671072306" lon="15.035973284842532"><ele>567.6666666666667</ele><time>2026-04-12T10:21:55.81Z</time></trkpt><trkpt lat="37.88723185822034" lon="15.03620561190604"><ele>567.3333333333334</ele><time>2026-04-12T10:21:56.81Z</time></trkpt><trkpt lat="37.887230979363345" lon="15.036434675907785"><ele>567.0</ele><time>2026-04-12T10:21:57.81Z</time></trkpt><trkpt lat="37.887212359655464" lon="15.036661657270905"><ele>567.0</ele><time>2026-04-12T10:21:58.81Z</time></trkpt><trkpt lat="37.88719292633768" lon="15.036894032195468"><ele>567.0</ele><time>2026-04-12T10:21:59.81Z</time></trkpt><trkpt lat="37.88715860204718" lon="15.037124249412093"><ele>567.0</ele><time>2026-04-12T10:22:00.81Z</time></trkpt><trkpt lat="37.88711409327323" lon="15.037356168057926"><ele>567.0</ele><time>2026-04-12T10:22:01.81Z</time></trkpt><trkpt lat="37.88706801768874" lon="15.037569358097592"><ele>567.0</ele><time>2026-04-12T10:22:02.81Z</time></trkpt><trkpt lat="37.887028693581556" lon="15.037762324910185"><ele>567.0</ele><time>2026-04-12T10:22:03.81Z</time></trkpt><trkpt lat="37.886998054201285" lon="15.03793218384064"><ele>567.0</ele><time>2026-04-12T10:22:04.81Z</time></trkpt><trkpt lat="37.88698539322458" lon="15.038085505968015"><ele>567.0</ele><time>2026-04-12T10:22:05.81Z</time></trkpt><trkpt lat="37.887008161552004" lon="15.038227382985111"><ele>567.0</ele><time>2026-04-12T10:22:06.81Z</time></trkpt><trkpt lat="37.88707338041578" lon="15.038373620445459"><ele>567.0</ele><time>2026-04-12T10:22:07.81Z</time></trkpt><trkpt lat="37.887172691485546" lon="15.038529351723597"><ele>566.3333333333334</ele><time>2026-04-12T10:22:08.809Z</time></trkpt><trkpt lat="37.88727418182847" lon="15.038682654295718"><ele>565.6666666666667</ele><time>2026-04-12T10:22:09.809Z</time></trkpt><trkpt lat="37.887367740104224" lon="15.038835128749492"><ele>565.0</ele><time>2026-04-12T10:22:10.809Z</time></trkpt><trkpt lat="37.88745858849076" lon="15.038981677534522"><ele>565.75</ele><time>2026-04-12T10:22:11.809Z</time></trkpt><trkpt lat="37.88754983824384" lon="15.039136169678912"><ele>566.5</ele><time>2026-04-12T10:22:12.809Z</time></trkpt><trkpt lat="37.887633524327704" lon="15.03927303257206"><ele>567.25</ele><time>2026-04-12T10:22:13.809Z</time></trkpt><trkpt lat="37.88770399264986" lon="15.039398560894675"><ele>568.0</ele><time>2026-04-12T10:22:14.809Z</time></trkpt><trkpt lat="37.88775579877627" lon="15.03951979990067"><ele>568.6</ele><time>2026-04-12T10:22:15.809Z</time></trkpt><trkpt lat="37.88777550062245" lon="15.039641848609751"><ele>569.1999999999999</ele><time>2026-04-12T10:22:16.809Z</time></trkpt><trkpt lat="37.88775826089284" lon="15.039760651283405"><ele>569.8</ele><time>2026-04-12T10:22:17.809Z</time></trkpt><trkpt lat="37.88768765333423" lon="15.039860532026433"><ele>570.4</ele><time>2026-04-12T10:22:18.809Z</time></trkpt><trkpt lat="37.88761281991924" lon="15.039980558087931"><ele>571.0</ele><time>2026-04-12T10:22:19.809Z</time></trkpt><trkpt lat="37.88751623499543" lon="15.04010169466948"><ele>571.0</ele><time>2026-04-12T10:22:20.809Z</time></trkpt><trkpt lat="37.88741130456542" lon="15.040248711357409"><ele>571.0</ele><time>2026-04-12T10:22:21.809Z</time></trkpt><trkpt lat="37.887308898746156" lon="15.040406788070783"><ele>571.0</ele><time>2026-04-12T10:22:22.809Z</time></trkpt><trkpt lat="37.88722927656593" lon="15.040571115611527"><ele>571.0</ele><time>2026-04-12T10:22:23.809Z</time></trkpt><trkpt lat="37.887174904561974" lon="15.040760516484475"><ele>571.0</ele><time>2026-04-12T10:22:24.809Z</time></trkpt><trkpt lat="37.887133536820194" lon="15.040990401071126"><ele>571.0</ele><time>2026-04-12T10:22:25.809Z</time></trkpt><trkpt lat="37.88705456125976" lon="15.041239993460717"><ele>571.0</ele><time>2026-04-12T10:22:26.809Z</time></trkpt><trkpt lat="37.886996140407696" lon="15.041489492870026"><ele>571.0</ele><time>2026-04-12T10:22:27.809Z</time></trkpt><trkpt lat="37.88693389459579" lon="15.041736618137898"><ele>571.0</ele><time>2026-04-12T10:22:28.811Z</time></trkpt><trkpt lat="37.886874768948026" lon="15.041967800759744"><ele>571.0</ele><time>2026-04-12T10:22:29.812Z</time></trkpt><trkpt lat="37.88682141211894" lon="15.042188440394778"><ele>571.0</ele><time>2026-04-12T10:22:30.812Z</time></trkpt><trkpt lat="37.88676919033316" lon="15.04241427972773"><ele>571.0</ele><time>2026-04-12T10:22:31.812Z</time></trkpt><trkpt lat="37.88671823401009" lon="15.042642893196314"><ele>571.3333333333334</ele><time>2026-04-12T10:22:32.812Z</time></trkpt><trkpt lat="37.88666445433766" lon="15.042875994762015"><ele>571.6666666666666</ele><time>2026-04-12T10:22:33.812Z</time></trkpt><trkpt lat="37.886609306746195" lon="15.043113700324087"><ele>572.0</ele><time>2026-04-12T10:22:34.812Z</time></trkpt><trkpt lat="37.88655387569736" lon="15.043351258964769"><ele>572.0</ele><time>2026-04-12T10:22:35.811Z</time></trkpt><trkpt lat="37.88649996441896" lon="15.043586466468906"><ele>572.0</ele><time>2026-04-12T10:22:36.811Z</time></trkpt><trkpt lat="37.886445949349934" lon="15.043819324780362"><ele>572.0</ele><time>2026-04-12T10:22:37.811Z</time></trkpt><trkpt lat="37.88639319436703" lon="15.044044652487035"><ele>571.6666666666666</ele><time>2026-04-12T10:22:38.812Z</time></trkpt><trkpt lat="37.88634181799612" lon="15.044259150819084"><ele>571.3333333333334</ele><time>2026-04-12T10:22:39.812Z</time></trkpt><trkpt lat="37.886290433393256" lon="15.044473625003844"><ele>571.0</ele><time>2026-04-12T10:22:40.811Z</time></trkpt><trkpt lat="37.88623726193481" lon="15.044689891919152"><ele>571.0</ele><time>2026-04-12T10:22:41.812Z</time></trkpt><trkpt lat="37.8861858964973" lon="15.044906289671214"><ele>571.0</ele><time>2026-04-12T10:22:42.812Z</time></trkpt><trkpt lat="37.886136487110385" lon="15.045120880803479"><ele>571.0</ele><time>2026-04-12T10:22:43.812Z</time></trkpt><trkpt lat="37.88609132066511" lon="15.045318923969992"><ele>571.3333333333334</ele><time>2026-04-12T10:22:44.812Z</time></trkpt><trkpt lat="37.88603190901179" lon="15.04549925987935"><ele>571.6666666666666</ele><time>2026-04-12T10:22:45.812Z</time></trkpt><trkpt lat="37.88598593977778" lon="15.045687063098828"><ele>572.0</ele><time>2026-04-12T10:22:46.812Z</time></trkpt><trkpt lat="37.8859424841468" lon="15.045864597287599"><ele>572.8000000000001</ele><time>2026-04-12T10:22:47.812Z</time></trkpt><trkpt lat="37.88591868521073" lon="15.046032913462351"><ele>573.6</ele><time>2026-04-12T10:22:48.812Z</time></trkpt><trkpt lat="37.88587880962924" lon="15.046173894024841"><ele>574.4000000000001</ele><time>2026-04-12T10:22:49.812Z</time></trkpt><trkpt lat="37.88584323998422" lon="15.046290966385595"><ele>575.2</ele><time>2026-04-12T10:22:50.812Z</time></trkpt><trkpt lat="37.88581947431744" lon="15.046373277516102"><ele>576.0</ele><time>2026-04-12T10:22:51.811Z</time></trkpt><trkpt lat="37.885806971404136" lon="15.046452452092222"><ele>575.0</ele><time>2026-04-12T10:22:55.811Z</time></trkpt><trkpt lat="37.885991130137405" lon="15.046565893253687"><ele>574.0</ele><time>2026-04-12T10:23:04.811Z</time></trkpt><trkpt lat="37.886096927707555" lon="15.046557650126202"><ele>573.0</ele><time>2026-04-12T10:23:05.811Z</time></trkpt><trkpt lat="37.88620835853867" lon="15.046550736228284"><ele>572.0</ele><time>2026-04-12T10:23:06.811Z</time></trkpt><trkpt lat="37.88633745012865" lon="15.04654324389412"><ele>572.0</ele><time>2026-04-12T10:23:07.811Z</time></trkpt><trkpt lat="37.88648641932086" lon="15.04653529387882"><ele>572.0</ele><time>2026-04-12T10:23:08.811Z</time></trkpt><trkpt lat="37.886641493410536" lon="15.04651556846516"><ele>572.0</ele><time>2026-04-12T10:23:09.811Z</time></trkpt><trkpt lat="37.88678985525759" lon="15.046511244278365"><ele>572.3333333333333</ele><time>2026-04-12T10:23:10.811Z</time></trkpt><trkpt lat="37.886925606615485" lon="15.04651855435523"><ele>572.6666666666666</ele><time>2026-04-12T10:23:11.811Z</time></trkpt><trkpt lat="37.887123098923894" lon="15.046675886046163"><ele>573.0</ele><time>2026-04-12T10:23:13.811Z</time></trkpt><trkpt lat="37.88713603136671" lon="15.046817848103546"><ele>572.0</ele><time>2026-04-12T10:23:14.811Z</time></trkpt><trkpt lat="37.88714010981706" lon="15.047001639497854"><ele>571.0</ele><time>2026-04-12T10:23:15.811Z</time></trkpt><trkpt lat="37.88714353710713" lon="15.047223258155903"><ele>570.0</ele><time>2026-04-12T10:23:16.811Z</time></trkpt><trkpt lat="37.88714604449737" lon="15.047429479707612"><ele>567.3333333333334</ele><time>2026-04-12T10:23:17.81Z</time></trkpt><trkpt lat="37.88713165204838" lon="15.04761516796246"><ele>564.6666666666667</ele><time>2026-04-12T10:23:18.81Z</time></trkpt><trkpt lat="37.88708353206551" lon="15.047782878899591"><ele>562.0</ele><time>2026-04-12T10:23:19.81Z</time></trkpt><trkpt lat="37.8869984522144" lon="15.04796415162396"><ele>562.0</ele><time>2026-04-12T10:23:20.81Z</time></trkpt><trkpt lat="37.886894958146925" lon="15.048173207182616"><ele>562.0</ele><time>2026-04-12T10:23:21.81Z</time></trkpt><trkpt lat="37.88680202838723" lon="15.04836685871334"><ele>562.0</ele><time>2026-04-12T10:23:22.81Z</time></trkpt><trkpt lat="37.88673731026889" lon="15.048535303938769"><ele>561.75</ele><time>2026-04-12T10:23:23.81Z</time></trkpt><trkpt lat="37.886679085087806" lon="15.04866405053369"><ele>561.5</ele><time>2026-04-12T10:23:24.81Z</time></trkpt><trkpt lat="37.88666769332314" lon="15.048810932904143"><ele>561.25</ele><time>2026-04-12T10:23:25.81Z</time></trkpt><trkpt lat="37.886719061409536" lon="15.048970632362368"><ele>561.0</ele><time>2026-04-12T10:23:26.81Z</time></trkpt><trkpt lat="37.88681360872658" lon="15.049108344138197"><ele>561.75</ele><time>2026-04-12T10:23:27.81Z</time></trkpt><trkpt lat="37.886903957431706" lon="15.049239516227292"><ele>562.5</ele><time>2026-04-12T10:23:28.81Z</time></trkpt><trkpt lat="37.887003258801776" lon="15.049306297073526"><ele>563.25</ele><time>2026-04-12T10:23:29.81Z</time></trkpt><trkpt lat="37.88713219656173" lon="15.049299636580479"><ele>564.0</ele><time>2026-04-12T10:23:30.81Z</time></trkpt><trkpt lat="37.88724710620434" lon="15.04923135409501"><ele>563.0</ele><time>2026-04-12T10:23:31.81Z</time></trkpt><trkpt lat="37.88737083900774" lon="15.049067151511949"><ele>562.0</ele><time>2026-04-12T10:23:32.81Z</time></trkpt><trkpt lat="37.88748146703963" lon="15.048883769539273"><ele>561.0</ele><time>2026-04-12T10:23:33.81Z</time></trkpt><trkpt lat="37.88759663471909" lon="15.048695665243953"><ele>560.0</ele><time>2026-04-12T10:23:34.81Z</time></trkpt><trkpt lat="37.887737961208416" lon="15.048537647357907"><ele>559.0</ele><time>2026-04-12T10:23:35.81Z</time></trkpt><trkpt lat="37.88785527207703" lon="15.048401715247353"><ele>558.0</ele><time>2026-04-12T10:23:36.81Z</time></trkpt><trkpt lat="37.8879747460772" lon="15.048324442101217"><ele>558.0</ele><time>2026-04-12T10:23:37.81Z</time></trkpt><trkpt lat="37.888098339153515" lon="15.048335546280887"><ele>558.0</ele><time>2026-04-12T10:23:38.81Z</time></trkpt><trkpt lat="37.88819770265369" lon="15.04839151207575"><ele>558.0</ele><time>2026-04-12T10:23:39.81Z</time></trkpt><trkpt lat="37.88832283676984" lon="15.04847170951897"><ele>558.0</ele><time>2026-04-12T10:23:40.81Z</time></trkpt><trkpt lat="37.88846116590329" lon="15.048532147475422"><ele>557.6666666666666</ele><time>2026-04-12T10:23:41.81Z</time></trkpt><trkpt lat="37.8886045729876" lon="15.048527041355493"><ele>557.3333333333333</ele><time>2026-04-12T10:23:42.81Z</time></trkpt><trkpt lat="37.88874868626507" lon="15.048428840360984"><ele>557.0</ele><time>2026-04-12T10:23:43.809Z</time></trkpt><trkpt lat="37.888894408649854" lon="15.048278135437057"><ele>555.6666666666666</ele><time>2026-04-12T10:23:44.809Z</time></trkpt><trkpt lat="37.88903750288285" lon="15.048135091248524"><ele>554.3333333333334</ele><time>2026-04-12T10:23:45.809Z</time></trkpt><trkpt lat="37.88918540869022" lon="15.048029331007971"><ele>553.0</ele><time>2026-04-12T10:23:46.809Z</time></trkpt><trkpt lat="37.88930165246143" lon="15.047933691402996"><ele>552.4</ele><time>2026-04-12T10:23:47.809Z</time></trkpt><trkpt lat="37.889396089086304" lon="15.0478709588303"><ele>551.8</ele><time>2026-04-12T10:23:48.809Z</time></trkpt><trkpt lat="37.88946563357976" lon="15.047885363485848"><ele>551.2</ele><time>2026-04-12T10:23:49.809Z</time></trkpt><trkpt lat="37.88952358515487" lon="15.047993636502916"><ele>550.6</ele><time>2026-04-12T10:23:50.809Z</time></trkpt><trkpt lat="37.88959524160729" lon="15.04813049469474"><ele>550.0</ele><time>2026-04-12T10:23:51.809Z</time></trkpt><trkpt lat="37.8896964672367" lon="15.048281938798539"><ele>549.75</ele><time>2026-04-12T10:23:52.809Z</time></trkpt><trkpt lat="37.8898042836455" lon="15.048400758763286"><ele>549.5</ele><time>2026-04-12T10:23:53.809Z</time></trkpt><trkpt lat="37.88990108770517" lon="15.048464280764092"><ele>549.25</ele><time>2026-04-12T10:23:54.809Z</time></trkpt><trkpt lat="37.89002021964302" lon="15.048447122395057"><ele>549.0</ele><time>2026-04-12T10:23:55.809Z</time></trkpt><trkpt lat="37.890160667091216" lon="15.048362332642304"><ele>549.0</ele><time>2026-04-12T10:23:56.809Z</time></trkpt><trkpt lat="37.89029289289344" lon="15.048283797757485"><ele>549.0</ele><time>2026-04-12T10:23:57.809Z</time></trkpt><trkpt lat="37.89039205388253" lon="15.04824851331601"><ele>549.0</ele><time>2026-04-12T10:23:58.809Z</time></trkpt><trkpt lat="37.89047261195969" lon="15.048317706780395"><ele>549.0</ele><time>2026-04-12T10:23:59.809Z</time></trkpt><trkpt lat="37.89050961326649" lon="15.048494673519809"><ele>549.0</ele><time>2026-04-12T10:24:00.809Z</time></trkpt><trkpt lat="37.89062928025506" lon="15.048612475569994"><ele>549.0</ele><time>2026-04-12T10:24:01.809Z</time></trkpt><trkpt lat="37.89076779836207" lon="15.048652577010031"><ele>549.0</ele><time>2026-04-12T10:24:02.809Z</time></trkpt><trkpt lat="37.890924609415805" lon="15.048661273411854"><ele>547.3333333333334</ele><time>2026-04-12T10:24:03.809Z</time></trkpt><trkpt lat="37.89110314586523" lon="15.048618675608294"><ele>545.6666666666667</ele><time>2026-04-12T10:24:04.809Z</time></trkpt><trkpt lat="37.89125834194888" lon="15.048565897864677"><ele>544.0</ele><time>2026-04-12T10:24:05.809Z</time></trkpt><trkpt lat="37.89138732340398" lon="15.048584605763569"><ele>544.0</ele><time>2026-04-12T10:24:06.809Z</time></trkpt><trkpt lat="37.89149576771566" lon="15.048724818405619"><ele>544.0</ele><time>2026-04-12T10:24:07.809Z</time></trkpt><trkpt lat="37.891627267489056" lon="15.048834735754227"><ele>544.0</ele><time>2026-04-12T10:24:08.809Z</time></trkpt><trkpt lat="37.89172202501096" lon="15.04893326781352"><ele>544.0</ele><time>2026-04-12T10:24:09.808Z</time></trkpt><trkpt lat="37.89175090867184" lon="15.049038862786208"><ele>544.75</ele><time>2026-04-12T10:24:10.808Z</time></trkpt><trkpt lat="37.891737764759675" lon="15.049149647402468"><ele>545.5</ele><time>2026-04-12T10:24:11.808Z</time></trkpt><trkpt lat="37.89162616356205" lon="15.049269721192305"><ele>546.25</ele><time>2026-04-12T10:24:12.808Z</time></trkpt><trkpt lat="37.89156454691122" lon="15.049417193422217"><ele>547.0</ele><time>2026-04-12T10:24:13.808Z</time></trkpt><trkpt lat="37.891511169095175" lon="15.04953721814059"><ele>547.0</ele><time>2026-04-12T10:24:14.808Z</time></trkpt><trkpt lat="37.891512877698375" lon="15.049670822367435"><ele>547.0</ele><time>2026-04-12T10:24:15.808Z</time></trkpt><trkpt lat="37.89157408723668" lon="15.049776039499356"><ele>547.0</ele><time>2026-04-12T10:24:16.808Z</time></trkpt><trkpt lat="37.89170019475196" lon="15.049851117654113"><ele>547.0</ele><time>2026-04-12T10:24:17.808Z</time></trkpt><trkpt lat="37.89186452183888" lon="15.049872355801472"><ele>544.0</ele><time>2026-04-12T10:24:18.808Z</time></trkpt><trkpt lat="37.892043749649005" lon="15.049824704086861"><ele>541.0</ele><time>2026-04-12T10:24:19.808Z</time></trkpt><trkpt lat="37.89220620566703" lon="15.04974950562989"><ele>538.0</ele><time>2026-04-12T10:24:20.808Z</time></trkpt><trkpt lat="37.89234871486117" lon="15.049736029803654"><ele>538.0</ele><time>2026-04-12T10:24:21.808Z</time></trkpt><trkpt lat="37.89247641305612" lon="15.04976700728134"><ele>538.0</ele><time>2026-04-12T10:24:22.808Z</time></trkpt><trkpt lat="37.892616788109414" lon="15.049857559774301"><ele>538.0</ele><time>2026-04-12T10:24:23.808Z</time></trkpt><trkpt lat="37.89278045686685" lon="15.049954415009877"><ele>537.75</ele><time>2026-04-12T10:24:24.808Z</time></trkpt><trkpt lat="37.89289930944373" lon="15.050037911125473"><ele>537.5</ele><time>2026-04-12T10:24:25.808Z</time></trkpt><trkpt lat="37.892969880308826" lon="15.050154110098676"><ele>537.25</ele><time>2026-04-12T10:24:26.808Z</time></trkpt><trkpt lat="37.892991590263016" lon="15.0503376830876"><ele>537.0</ele><time>2026-04-12T10:24:27.808Z</time></trkpt><trkpt lat="37.893029599199004" lon="15.050573200570227"><ele>537.0</ele><time>2026-04-12T10:24:28.808Z</time></trkpt><trkpt lat="37.893100365724415" lon="15.050772100623922"><ele>537.0</ele><time>2026-04-12T10:24:29.808Z</time></trkpt><trkpt lat="37.89318944060057" lon="15.05094646535212"><ele>537.0</ele><time>2026-04-12T10:24:30.808Z</time></trkpt><trkpt lat="37.89331856856963" lon="15.051108456989454"><ele>535.3333333333334</ele><time>2026-04-12T10:24:31.808Z</time></trkpt><trkpt lat="37.89345085784334" lon="15.051282778735569"><ele>533.6666666666667</ele><time>2026-04-12T10:24:32.808Z</time></trkpt><trkpt lat="37.89359580021397" lon="15.05144450818842"><ele>532.0</ele><time>2026-04-12T10:24:33.808Z</time></trkpt><trkpt lat="37.8937640686304" lon="15.051596679845284"><ele>533.5</ele><time>2026-04-12T10:24:34.81Z</time></trkpt><trkpt lat="37.89393302687335" lon="15.051759477624024"><ele>535.0</ele><time>2026-04-12T10:24:35.81Z</time></trkpt><trkpt lat="37.894089579201484" lon="15.051994795905864"><ele>532.5</ele><time>2026-04-12T10:24:36.81Z</time></trkpt><trkpt lat="37.89426483548799" lon="15.052200045266954"><ele>530.0</ele><time>2026-04-12T10:24:37.81Z</time></trkpt><trkpt lat="37.89443113795782" lon="15.052386739357642"><ele>531.3333333333333</ele><time>2026-04-12T10:24:38.81Z</time></trkpt><trkpt lat="37.89456927969688" lon="15.052562085987175"><ele>532.6666666666666</ele><time>2026-04-12T10:24:39.81Z</time></trkpt><trkpt lat="37.89467026460333" lon="15.052760926524204"><ele>534.0</ele><time>2026-04-12T10:24:40.81Z</time></trkpt><trkpt lat="37.89474848873403" lon="15.052958992931632"><ele>534.0</ele><time>2026-04-12T10:24:41.81Z</time></trkpt><trkpt lat="37.894820768114045" lon="15.053129132090215"><ele>534.0</ele><time>2026-04-12T10:24:42.81Z</time></trkpt><trkpt lat="37.89490265038015" lon="15.053248706851344"><ele>534.0</ele><time>2026-04-12T10:24:43.81Z</time></trkpt><trkpt lat="37.894986464116364" lon="15.053343733971523"><ele>534.0</ele><time>2026-04-12T10:24:44.81Z</time></trkpt><trkpt lat="37.89511585465473" lon="15.053370693208382"><ele>533.25</ele><time>2026-04-12T10:24:45.81Z</time></trkpt><trkpt lat="37.89526089961125" lon="15.053318886510471"><ele>532.5</ele><time>2026-04-12T10:24:46.81Z</time></trkpt><trkpt lat="37.895393502904085" lon="15.053252182752695"><ele>531.75</ele><time>2026-04-12T10:24:47.81Z</time></trkpt><trkpt lat="37.895498748639035" lon="15.053299685974043"><ele>531.0</ele><time>2026-04-12T10:24:48.81Z</time></trkpt><trkpt lat="37.89559307341002" lon="15.053399882349536"><ele>531.0</ele><time>2026-04-12T10:24:49.81Z</time></trkpt><trkpt lat="37.8956809304024" lon="15.053548284839588"><ele>531.0</ele><time>2026-04-12T10:24:50.81Z</time></trkpt><trkpt lat="37.89575932473463" lon="15.05368903598623"><ele>531.0</ele><time>2026-04-12T10:24:51.809Z</time></trkpt><trkpt lat="37.895807029495984" lon="15.053826796856772"><ele>531.0</ele><time>2026-04-12T10:24:52.809Z</time></trkpt><trkpt lat="37.89579840339725" lon="15.053994068152305"><ele>531.0</ele><time>2026-04-12T10:24:53.809Z</time></trkpt><trkpt lat="37.89582343395473" lon="15.05423528611194"><ele>531.0</ele><time>2026-04-12T10:24:54.809Z</time></trkpt><trkpt lat="37.89585158386008" lon="15.054481005792502"><ele>531.0</ele><time>2026-04-12T10:24:55.809Z</time></trkpt><trkpt lat="37.895875271413296" lon="15.054723537793736"><ele>530.3333333333334</ele><time>2026-04-12T10:24:56.809Z</time></trkpt><trkpt lat="37.89589882304608" lon="15.054974898718518"><ele>529.6666666666667</ele><time>2026-04-12T10:24:57.809Z</time></trkpt><trkpt lat="37.8959426998659" lon="15.05521053358047"><ele>529.0</ele><time>2026-04-12T10:24:58.809Z</time></trkpt><trkpt lat="37.8959484006647" lon="15.0554384614311"><ele>527.3333333333334</ele><time>2026-04-12T10:24:59.809Z</time></trkpt><trkpt lat="37.89596632146146" lon="15.055641431056303"><ele>525.6666666666666</ele><time>2026-04-12T10:25:00.809Z</time></trkpt><trkpt lat="37.895998362061185" lon="15.055823976386277"><ele>524.0</ele><time>2026-04-12T10:25:01.809Z</time></trkpt><trkpt lat="37.89600712767702" lon="15.056007444552678"><ele>524.0</ele><time>2026-04-12T10:25:02.809Z</time></trkpt><trkpt lat="37.89603136528486" lon="15.05619255422098"><ele>524.0</ele><time>2026-04-12T10:25:03.809Z</time></trkpt><trkpt lat="37.896071794810624" lon="15.056382242296783"><ele>524.0</ele><time>2026-04-12T10:25:04.809Z</time></trkpt><trkpt lat="37.89613578860384" lon="15.056570833858721"><ele>524.25</ele><time>2026-04-12T10:25:05.809Z</time></trkpt><trkpt lat="37.896225752539316" lon="15.05672231372908"><ele>524.5</ele><time>2026-04-12T10:25:06.809Z</time></trkpt><trkpt lat="37.89633910424022" lon="15.056802266562357"><ele>524.75</ele><time>2026-04-12T10:25:07.809Z</time></trkpt><trkpt lat="37.896471820607545" lon="15.056828114956152"><ele>525.0</ele><time>2026-04-12T10:25:08.809Z</time></trkpt><trkpt lat="37.896617822728615" lon="15.05680199987494"><ele>524.3333333333334</ele><time>2026-04-12T10:25:09.809Z</time></trkpt><trkpt lat="37.896780582148054" lon="15.056695463283837"><ele>523.6666666666667</ele><time>2026-04-12T10:25:10.809Z</time></trkpt><trkpt lat="37.89690844932993" lon="15.056569361433542"><ele>523.0</ele><time>2026-04-12T10:25:11.809Z</time></trkpt><trkpt lat="37.89699884260583" lon="15.05640969213635"><ele>523.0</ele><time>2026-04-12T10:25:12.809Z</time></trkpt><trkpt lat="37.897047259807366" lon="15.0562229276265"><ele>523.0</ele><time>2026-04-12T10:25:13.809Z</time></trkpt><trkpt lat="37.897095454644365" lon="15.056042635184225"><ele>523.0</ele><time>2026-04-12T10:25:14.809Z</time></trkpt><trkpt lat="37.89715443908967" lon="15.05587645603332"><ele>523.0</ele><time>2026-04-12T10:25:15.809Z</time></trkpt><trkpt lat="37.89721913323904" lon="15.055707390994755"><ele>524.0</ele><time>2026-04-12T10:25:16.809Z</time></trkpt><trkpt lat="37.897285538804034" lon="15.055534041826318"><ele>525.0</ele><time>2026-04-12T10:25:17.808Z</time></trkpt><trkpt lat="37.8973585434295" lon="15.05535353868282"><ele>526.0</ele><time>2026-04-12T10:25:18.808Z</time></trkpt><trkpt lat="37.89743235912966" lon="15.05516507227869"><ele>526.0</ele><time>2026-04-12T10:25:19.808Z</time></trkpt><trkpt lat="37.89750579273056" lon="15.05497147684846"><ele>526.0</ele><time>2026-04-12T10:25:20.808Z</time></trkpt><trkpt lat="37.89757852085336" lon="15.054784521481832"><ele>526.0</ele><time>2026-04-12T10:25:21.808Z</time></trkpt><trkpt lat="37.897658070593955" lon="15.054602490769247"><ele>526.3333333333334</ele><time>2026-04-12T10:25:22.808Z</time></trkpt><trkpt lat="37.89773734702927" lon="15.054405417547121"><ele>526.6666666666666</ele><time>2026-04-12T10:25:23.808Z</time></trkpt><trkpt lat="37.897820808796894" lon="15.05420327489016"><ele>527.0</ele><time>2026-04-12T10:25:24.808Z</time></trkpt><trkpt lat="37.89789662383328" lon="15.054010364484363"><ele>528.0</ele><time>2026-04-12T10:25:25.808Z</time></trkpt><trkpt lat="37.89796706624654" lon="15.053826951488407"><ele>529.0</ele><time>2026-04-12T10:25:26.808Z</time></trkpt><trkpt lat="37.89803544890784" lon="15.05364066225623"><ele>530.0</ele><time>2026-04-12T10:25:27.808Z</time></trkpt><trkpt lat="37.898100017307875" lon="15.053452517442002"><ele>530.0</ele><time>2026-04-12T10:25:28.808Z</time></trkpt><trkpt lat="37.898166228033105" lon="15.05326693809462"><ele>530.0</ele><time>2026-04-12T10:25:29.808Z</time></trkpt><trkpt lat="37.89823326969747" lon="15.053082305496009"><ele>530.0</ele><time>2026-04-12T10:25:30.808Z</time></trkpt><trkpt lat="37.89831223554961" lon="15.052917562649125"><ele>530.0</ele><time>2026-04-12T10:25:31.808Z</time></trkpt><trkpt lat="37.898360043472366" lon="15.052754364884512"><ele>530.0</ele><time>2026-04-12T10:25:32.808Z</time></trkpt><trkpt lat="37.898436070329446" lon="15.052630914007812"><ele>530.0</ele><time>2026-04-12T10:25:33.808Z</time></trkpt><trkpt lat="37.898522442577544" lon="15.052545067276"><ele>530.0</ele><time>2026-04-12T10:25:34.808Z</time></trkpt><trkpt lat="37.89863211082498" lon="15.052519099288402"><ele>530.6</ele><time>2026-04-12T10:25:35.808Z</time></trkpt><trkpt lat="37.898733566287085" lon="15.052487617806266"><ele>531.2</ele><time>2026-04-12T10:25:36.808Z</time></trkpt><trkpt lat="37.89882964621674" lon="15.052453713127823"><ele>531.8</ele><time>2026-04-12T10:25:37.808Z</time></trkpt><trkpt lat="37.898932525708254" lon="15.052430981788572"><ele>532.4</ele><time>2026-04-12T10:25:38.808Z</time></trkpt><trkpt lat="37.89903399837748" lon="15.052344764043871"><ele>533.0</ele><time>2026-04-12T10:25:39.808Z</time></trkpt><trkpt lat="37.89916943314517" lon="15.05228416259575"><ele>533.75</ele><time>2026-04-12T10:25:40.808Z</time></trkpt><trkpt lat="37.89930762029382" lon="15.052244642220666"><ele>534.5</ele><time>2026-04-12T10:25:41.808Z</time></trkpt><trkpt lat="37.89942909402604" lon="15.05220665732114"><ele>535.25</ele><time>2026-04-12T10:25:42.808Z</time></trkpt><trkpt lat="37.89955867638217" lon="15.052268380555109"><ele>536.0</ele><time>2026-04-12T10:25:43.807Z</time></trkpt><trkpt lat="37.89968272721206" lon="15.052233661111645"><ele>536.0</ele><time>2026-04-12T10:25:44.807Z</time></trkpt><trkpt lat="37.899817034172145" lon="15.052196071173224"><ele>536.0</ele><time>2026-04-12T10:25:45.807Z</time></trkpt><trkpt lat="37.8999570999962" lon="15.052157000463776"><ele>536.0</ele><time>2026-04-12T10:25:46.807Z</time></trkpt><trkpt lat="37.90008522201118" lon="15.052119536958875"><ele>536.0</ele><time>2026-04-12T10:25:47.807Z</time></trkpt><trkpt lat="37.90019277946332" lon="15.052093581952274"><ele>535.5</ele><time>2026-04-12T10:25:48.807Z</time></trkpt><trkpt lat="37.90027844289205" lon="15.05207262054186"><ele>535.0</ele><time>2026-04-12T10:25:49.807Z</time></trkpt><trkpt lat="37.900341721576204" lon="15.052005674961725"><ele>534.5</ele><time>2026-04-12T10:25:50.807Z</time></trkpt><trkpt lat="37.90040672664669" lon="15.052038286712651"><ele>534.0</ele><time>2026-04-12T10:25:51.807Z</time></trkpt><trkpt lat="37.90047877172579" lon="15.05213710186173"><ele>533.5</ele><time>2026-04-12T10:25:52.807Z</time></trkpt><trkpt lat="37.90053336445817" lon="15.052234555576169"><ele>533.0</ele><time>2026-04-12T10:25:53.807Z</time></trkpt><trkpt lat="37.90057710011192" lon="15.052331237814629"><ele>533.0</ele><time>2026-04-12T10:25:54.807Z</time></trkpt><trkpt lat="37.90062010153263" lon="15.052430997469948"><ele>533.0</ele><time>2026-04-12T10:25:55.807Z</time></trkpt><trkpt lat="37.90066185328736" lon="15.052527262464993"><ele>533.0</ele><time>2026-04-12T10:25:56.807Z</time></trkpt><trkpt lat="37.90070665671208" lon="15.052618505855031"><ele>533.0</ele><time>2026-04-12T10:25:57.807Z</time></trkpt><trkpt lat="37.900718548268884" lon="15.052734985907158"><ele>533.0</ele><time>2026-04-12T10:25:58.807Z</time></trkpt><trkpt lat="37.90079288797238" lon="15.052804687971575"><ele>533.0</ele><time>2026-04-12T10:25:59.807Z</time></trkpt><trkpt lat="37.9008389482184" lon="15.052900926487768"><ele>533.1999999999999</ele><time>2026-04-12T10:26:00.807Z</time></trkpt><trkpt lat="37.90089026105468" lon="15.052989698822476"><ele>533.4</ele><time>2026-04-12T10:26:01.807Z</time></trkpt><trkpt lat="37.90093799254098" lon="15.053082310599832"><ele>533.5999999999999</ele><time>2026-04-12T10:26:02.807Z</time></trkpt><trkpt lat="37.900966954239834" lon="15.053208583596426"><ele>533.8</ele><time>2026-04-12T10:26:03.807Z</time></trkpt><trkpt lat="37.901023448944834" lon="15.053317821486173"><ele>534.0</ele><time>2026-04-12T10:26:04.807Z</time></trkpt><trkpt lat="37.90107952936348" lon="15.053429594680427"><ele>533.25</ele><time>2026-04-12T10:26:05.807Z</time></trkpt><trkpt lat="37.90113035798" lon="15.053539824077355"><ele>532.5</ele><time>2026-04-12T10:26:06.807Z</time></trkpt><trkpt lat="37.90119100690792" lon="15.053672621672506"><ele>531.75</ele><time>2026-04-12T10:26:07.807Z</time></trkpt><trkpt lat="37.90125668489839" lon="15.053817106114067"><ele>531.0</ele><time>2026-04-12T10:26:08.807Z</time></trkpt><trkpt lat="37.90132433448399" lon="15.053965927846367"><ele>531.0</ele><time>2026-04-12T10:26:09.806Z</time></trkpt><trkpt lat="37.901405727466" lon="15.05410725851636"><ele>531.0</ele><time>2026-04-12T10:26:10.806Z</time></trkpt><trkpt lat="37.90145808505601" lon="15.054283697749105"><ele>531.0</ele><time>2026-04-12T10:26:11.806Z</time></trkpt><trkpt lat="37.901534337600744" lon="15.054448482129919"><ele>531.0</ele><time>2026-04-12T10:26:12.806Z</time></trkpt><trkpt lat="37.90160542529648" lon="15.054606654711767"><ele>530.75</ele><time>2026-04-12T10:26:13.806Z</time></trkpt><trkpt lat="37.901672372505836" lon="15.054758519151415"><ele>530.5</ele><time>2026-04-12T10:26:14.806Z</time></trkpt><trkpt lat="37.90172786137729" lon="15.054932169513304"><ele>530.25</ele><time>2026-04-12T10:26:15.806Z</time></trkpt><trkpt lat="37.90176694068021" lon="15.055131790764316"><ele>530.0</ele><time>2026-04-12T10:26:16.806Z</time></trkpt><trkpt lat="37.90180081729243" lon="15.055329085610722"><ele>530.0</ele><time>2026-04-12T10:26:17.806Z</time></trkpt><trkpt lat="37.90182779237261" lon="15.05552074335014"><ele>530.0</ele><time>2026-04-12T10:26:18.806Z</time></trkpt><trkpt lat="37.90185970353976" lon="15.055711737962499"><ele>530.0</ele><time>2026-04-12T10:26:19.806Z</time></trkpt><trkpt lat="37.9018894025119" lon="15.055912664270256"><ele>529.3333333333333</ele><time>2026-04-12T10:26:20.806Z</time></trkpt><trkpt lat="37.90191984093831" lon="15.056116569705122"><ele>528.6666666666666</ele><time>2026-04-12T10:26:21.806Z</time></trkpt><trkpt lat="37.901951487631145" lon="15.056325307613331"><ele>528.0</ele><time>2026-04-12T10:26:22.806Z</time></trkpt><trkpt lat="37.901985979491165" lon="15.056535831461135"><ele>528.0</ele><time>2026-04-12T10:26:23.806Z</time></trkpt><trkpt lat="37.9020241202248" lon="15.056745384820234"><ele>528.0</ele><time>2026-04-12T10:26:24.806Z</time></trkpt><trkpt lat="37.902059154787175" lon="15.05695392771398"><ele>528.0</ele><time>2026-04-12T10:26:25.806Z</time></trkpt><trkpt lat="37.90208794123893" lon="15.057155059336994"><ele>528.0</ele><time>2026-04-12T10:26:26.806Z</time></trkpt><trkpt lat="37.902108049237256" lon="15.057345126715381"><ele>528.0</ele><time>2026-04-12T10:26:27.806Z</time></trkpt><trkpt lat="37.902128196656925" lon="15.057528246039404"><ele>528.0</ele><time>2026-04-12T10:26:28.806Z</time></trkpt><trkpt lat="37.90214945580737" lon="15.057731988552904"><ele>528.0</ele><time>2026-04-12T10:26:29.806Z</time></trkpt><trkpt lat="37.90217852710161" lon="15.057953217273594"><ele>528.0</ele><time>2026-04-12T10:26:30.806Z</time></trkpt><trkpt lat="37.90220806139937" lon="15.058167379247084"><ele>528.0</ele><time>2026-04-12T10:26:31.806Z</time></trkpt><trkpt lat="37.90223426958967" lon="15.058362718347658"><ele>528.0</ele><time>2026-04-12T10:26:32.806Z</time></trkpt><trkpt lat="37.902260610949" lon="15.058538567481456"><ele>528.0</ele><time>2026-04-12T10:26:33.806Z</time></trkpt><trkpt lat="37.90223818096451" lon="15.058704208043942"><ele>528.0</ele><time>2026-04-12T10:26:34.805Z</time></trkpt><trkpt lat="37.90219420275111" lon="15.058886038758578"><ele>528.0</ele><time>2026-04-12T10:26:35.805Z</time></trkpt><trkpt lat="37.90212251088585" lon="15.05907733112665"><ele>527.0</ele><time>2026-04-12T10:26:36.805Z</time></trkpt><trkpt lat="37.90204582330347" lon="15.059268182175169"><ele>526.0</ele><time>2026-04-12T10:26:37.805Z</time></trkpt><trkpt lat="37.901973453180574" lon="15.059466831021282"><ele>525.0</ele><time>2026-04-12T10:26:38.805Z</time></trkpt><trkpt lat="37.90191757626354" lon="15.059673093899637"><ele>525.0</ele><time>2026-04-12T10:26:39.805Z</time></trkpt><trkpt lat="37.90184981321865" lon="15.059894488231166"><ele>525.0</ele><time>2026-04-12T10:26:40.809Z</time></trkpt><trkpt lat="37.9018078798895" lon="15.060135160681805"><ele>525.0</ele><time>2026-04-12T10:26:41.809Z</time></trkpt><trkpt lat="37.901769741855034" lon="15.060400696949266"><ele>523.0</ele><time>2026-04-12T10:26:42.809Z</time></trkpt><trkpt lat="37.90173363110676" lon="15.060702882104728"><ele>521.0</ele><time>2026-04-12T10:26:43.809Z</time></trkpt><trkpt lat="37.90170497245099" lon="15.061001579727437"><ele>520.6666666666666</ele><time>2026-04-12T10:26:44.809Z</time></trkpt><trkpt lat="37.901679698508666" lon="15.061267922998903"><ele>520.3333333333334</ele><time>2026-04-12T10:26:45.808Z</time></trkpt><trkpt lat="37.901652769043906" lon="15.061524430491879"><ele>520.0</ele><time>2026-04-12T10:26:46.808Z</time></trkpt><trkpt lat="37.901626486115205" lon="15.061763476186446"><ele>519.5</ele><time>2026-04-12T10:26:47.808Z</time></trkpt><trkpt lat="37.9016030520765" lon="15.061959931474215"><ele>519.0</ele><time>2026-04-12T10:26:48.808Z</time></trkpt><trkpt lat="37.901592625061284" lon="15.062132574739014"><ele>518.5</ele><time>2026-04-12T10:26:49.809Z</time></trkpt><trkpt lat="37.901534652004266" lon="15.062283787424665"><ele>518.0</ele><time>2026-04-12T10:26:50.808Z</time></trkpt><trkpt lat="37.901451314733094" lon="15.062448775776234"><ele>517.3333333333333</ele><time>2026-04-12T10:26:51.808Z</time></trkpt><trkpt lat="37.901335134574744" lon="15.062614881119913"><ele>516.6666666666666</ele><time>2026-04-12T10:26:52.808Z</time></trkpt><trkpt lat="37.90121487513422" lon="15.062792872943009"><ele>516.0</ele><time>2026-04-12T10:26:53.808Z</time></trkpt><trkpt lat="37.90111198273378" lon="15.062976728537858"><ele>516.0</ele><time>2026-04-12T10:26:54.808Z</time></trkpt><trkpt lat="37.90101013951964" lon="15.063143390430655"><ele>516.0</ele><time>2026-04-12T10:26:55.808Z</time></trkpt><trkpt lat="37.900931058056806" lon="15.063337605527886"><ele>516.0</ele><time>2026-04-12T10:26:56.808Z</time></trkpt><trkpt lat="37.900874222172796" lon="15.06356243941443"><ele>515.3333333333334</ele><time>2026-04-12T10:26:57.808Z</time></trkpt><trkpt lat="37.90083269811696" lon="15.063815557660666"><ele>514.6666666666667</ele><time>2026-04-12T10:26:58.808Z</time></trkpt><trkpt lat="37.9007849701885" lon="15.064065309174504"><ele>514.0</ele><time>2026-04-12T10:26:59.808Z</time></trkpt><trkpt lat="37.90072990344433" lon="15.064293457091718"><ele>513.0</ele><time>2026-04-12T10:27:00.808Z</time></trkpt><trkpt lat="37.90067422274682" lon="15.064513588841793"><ele>512.0</ele><time>2026-04-12T10:27:01.808Z</time></trkpt><trkpt lat="37.90062561125158" lon="15.06473249942804"><ele>511.0</ele><time>2026-04-12T10:27:02.808Z</time></trkpt><trkpt lat="37.90057768198441" lon="15.064953676656115"><ele>507.33333333333337</ele><time>2026-04-12T10:27:03.808Z</time></trkpt><trkpt lat="37.900518671534414" lon="15.065161619501813"><ele>503.66666666666663</ele><time>2026-04-12T10:27:04.808Z</time></trkpt><trkpt lat="37.90046981608778" lon="15.065357390183271"><ele>500.0</ele><time>2026-04-12T10:27:05.807Z</time></trkpt><trkpt lat="37.90041392681642" lon="15.065523842440657"><ele>500.0</ele><time>2026-04-12T10:27:06.807Z</time></trkpt><trkpt lat="37.90033280669945" lon="15.065644004442015"><ele>500.0</ele><time>2026-04-12T10:27:07.807Z</time></trkpt><trkpt lat="37.90022462840862" lon="15.065739681173861"><ele>500.0</ele><time>2026-04-12T10:27:08.807Z</time></trkpt><trkpt lat="37.90010045909251" lon="15.065804118893888"><ele>500.0</ele><time>2026-04-12T10:27:09.807Z</time></trkpt><trkpt lat="37.89997948051476" lon="15.065852192644416"><ele>499.0</ele><time>2026-04-12T10:27:10.807Z</time></trkpt><trkpt lat="37.89987771742659" lon="15.06592193364971"><ele>498.0</ele><time>2026-04-12T10:27:11.807Z</time></trkpt><trkpt lat="37.89978499351626" lon="15.065986083658006"><ele>497.0</ele><time>2026-04-12T10:27:12.807Z</time></trkpt><trkpt lat="37.89972194972391" lon="15.066098464631033"><ele>496.0</ele><time>2026-04-12T10:27:13.807Z</time></trkpt><trkpt lat="37.89970845561625" lon="15.066264740615011"><ele>496.0</ele><time>2026-04-12T10:27:14.807Z</time></trkpt><trkpt lat="37.89976939621396" lon="15.066406112352567"><ele>496.0</ele><time>2026-04-12T10:27:15.807Z</time></trkpt><trkpt lat="37.899881476139875" lon="15.06653816940211"><ele>496.0</ele><time>2026-04-12T10:27:16.807Z</time></trkpt><trkpt lat="37.90000784844088" lon="15.066612657110925"><ele>496.0</ele><time>2026-04-12T10:27:17.807Z</time></trkpt><trkpt lat="37.90016326666681" lon="15.066650713639836"><ele>491.33333333333337</ele><time>2026-04-12T10:27:18.807Z</time></trkpt><trkpt lat="37.90033810928635" lon="15.06665496566658"><ele>486.66666666666663</ele><time>2026-04-12T10:27:19.807Z</time></trkpt><trkpt lat="37.90051476584221" lon="15.066643108155459"><ele>482.0</ele><time>2026-04-12T10:27:20.807Z</time></trkpt><trkpt lat="37.90068257784291" lon="15.066638708223884"><ele>482.0</ele><time>2026-04-12T10:27:21.807Z</time></trkpt><trkpt lat="37.90083595786867" lon="15.066643475264653"><ele>482.0</ele><time>2026-04-12T10:27:22.807Z</time></trkpt><trkpt lat="37.90096471852971" lon="15.06669002694939"><ele>482.0</ele><time>2026-04-12T10:27:23.807Z</time></trkpt><trkpt lat="37.90108722967966" lon="15.066754827484997"><ele>482.0</ele><time>2026-04-12T10:27:24.807Z</time></trkpt><trkpt lat="37.90118428659009" lon="15.066887911984596"><ele>481.66666666666663</ele><time>2026-04-12T10:27:25.807Z</time></trkpt><trkpt lat="37.90131765892653" lon="15.067051289619306"><ele>481.33333333333337</ele><time>2026-04-12T10:27:26.807Z</time></trkpt><trkpt lat="37.90145965284863" lon="15.067225228450702"><ele>481.0</ele><time>2026-04-12T10:27:27.807Z</time></trkpt><trkpt lat="37.901606546785956" lon="15.06737627526705"><ele>481.0</ele><time>2026-04-12T10:27:28.807Z</time></trkpt><trkpt lat="37.90173116460611" lon="15.06753778527724"><ele>481.0</ele><time>2026-04-12T10:27:29.807Z</time></trkpt><trkpt lat="37.90185369775303" lon="15.067708002726231"><ele>481.0</ele><time>2026-04-12T10:27:30.806Z</time></trkpt><trkpt lat="37.901984396901526" lon="15.06786817911808"><ele>481.0</ele><time>2026-04-12T10:27:31.806Z</time></trkpt><trkpt lat="37.902115473387916" lon="15.068028817886617"><ele>481.0</ele><time>2026-04-12T10:27:32.806Z</time></trkpt><trkpt lat="37.90224565069117" lon="15.068188408792077"><ele>481.0</ele><time>2026-04-12T10:27:33.806Z</time></trkpt><trkpt lat="37.90237168029997" lon="15.068342920234327"><ele>482.33333333333337</ele><time>2026-04-12T10:27:34.806Z</time></trkpt><trkpt lat="37.902493634666975" lon="15.068491862722858"><ele>483.66666666666663</ele><time>2026-04-12T10:27:35.806Z</time></trkpt><trkpt lat="37.902611623360315" lon="15.06863715579027"><ele>485.0</ele><time>2026-04-12T10:27:36.806Z</time></trkpt><trkpt lat="37.90274519518061" lon="15.068775728202896"><ele>485.0</ele><time>2026-04-12T10:27:37.806Z</time></trkpt><trkpt lat="37.90287315475829" lon="15.06893507894751"><ele>485.0</ele><time>2026-04-12T10:27:38.806Z</time></trkpt><trkpt lat="37.903009150323626" lon="15.069107834945864"><ele>485.0</ele><time>2026-04-12T10:27:39.806Z</time></trkpt><trkpt lat="37.90314637745264" lon="15.069278477081586"><ele>484.66666666666663</ele><time>2026-04-12T10:27:40.806Z</time></trkpt><trkpt lat="37.90327869024077" lon="15.06943853491314"><ele>484.33333333333337</ele><time>2026-04-12T10:27:41.806Z</time></trkpt><trkpt lat="37.903405861162824" lon="15.069589866746828"><ele>484.0</ele><time>2026-04-12T10:27:42.806Z</time></trkpt><trkpt lat="37.90352434034569" lon="15.069760699482668"><ele>484.0</ele><time>2026-04-12T10:27:43.806Z</time></trkpt><trkpt lat="37.90365134090563" lon="15.06993267440544"><ele>484.0</ele><time>2026-04-12T10:27:44.806Z</time></trkpt><trkpt lat="37.90377171539238" lon="15.070078695627435"><ele>484.0</ele><time>2026-04-12T10:27:45.806Z</time></trkpt><trkpt lat="37.9038896158149" lon="15.070207991058366"><ele>483.33333333333337</ele><time>2026-04-12T10:27:46.806Z</time></trkpt><trkpt lat="37.904019217135875" lon="15.07030929389775"><ele>482.66666666666663</ele><time>2026-04-12T10:27:47.806Z</time></trkpt><trkpt lat="37.90417583813418" lon="15.07037773596501"><ele>482.0</ele><time>2026-04-12T10:27:48.806Z</time></trkpt><trkpt lat="37.90434516082647" lon="15.070398027092203"><ele>482.0</ele><time>2026-04-12T10:27:49.806Z</time></trkpt><trkpt lat="37.90453327582313" lon="15.070381681820274"><ele>482.0</ele><time>2026-04-12T10:27:50.806Z</time></trkpt><trkpt lat="37.90471424249411" lon="15.070371157595334"><ele>482.0</ele><time>2026-04-12T10:27:51.806Z</time></trkpt><trkpt lat="37.90487490084918" lon="15.070380991337931"><ele>482.0</ele><time>2026-04-12T10:27:52.806Z</time></trkpt><trkpt lat="37.9050165985858" lon="15.070409964374441"><ele>482.0</ele><time>2026-04-12T10:27:53.806Z</time></trkpt><trkpt lat="37.905128326421035" lon="15.070481903738008"><ele>482.0</ele><time>2026-04-12T10:27:54.806Z</time></trkpt><trkpt lat="37.90517965015587" lon="15.07063703382926"><ele>482.0</ele><time>2026-04-12T10:27:55.806Z</time></trkpt><trkpt lat="37.905212327463396" lon="15.070792329408768"><ele>482.5</ele><time>2026-04-12T10:27:56.805Z</time></trkpt><trkpt lat="37.90517270076723" lon="15.07093203998413"><ele>483.0</ele><time>2026-04-12T10:27:57.805Z</time></trkpt><trkpt lat="37.905138694024124" lon="15.071111443248988"><ele>483.5</ele><time>2026-04-12T10:27:58.805Z</time></trkpt><trkpt lat="37.90511126313356" lon="15.071328574235482"><ele>484.0</ele><time>2026-04-12T10:27:59.805Z</time></trkpt><trkpt lat="37.9051034525959" lon="15.071533654677758"><ele>484.0</ele><time>2026-04-12T10:28:00.805Z</time></trkpt><trkpt lat="37.905101194434" lon="15.071748059572592"><ele>484.0</ele><time>2026-04-12T10:28:01.805Z</time></trkpt><trkpt lat="37.90509994897015" lon="15.071962078283976"><ele>484.0</ele><time>2026-04-12T10:28:02.805Z</time></trkpt><trkpt lat="37.90510024967653" lon="15.072183113833058"><ele>483.33333333333337</ele><time>2026-04-12T10:28:03.805Z</time></trkpt><trkpt lat="37.905074696007624" lon="15.072395595016115"><ele>482.66666666666663</ele><time>2026-04-12T10:28:04.805Z</time></trkpt><trkpt lat="37.90499825167035" lon="15.072580369691291"><ele>482.0</ele><time>2026-04-12T10:28:05.805Z</time></trkpt><trkpt lat="37.90489039760785" lon="15.072784103669713"><ele>482.0</ele><time>2026-04-12T10:28:06.805Z</time></trkpt><trkpt lat="37.90477223066644" lon="15.072993739337475"><ele>482.0</ele><time>2026-04-12T10:28:07.805Z</time></trkpt><trkpt lat="37.90467512854291" lon="15.073219563927234"><ele>482.0</ele><time>2026-04-12T10:28:08.805Z</time></trkpt><trkpt lat="37.90457104141695" lon="15.073443291859226"><ele>484.3333333333333</ele><time>2026-04-12T10:28:09.805Z</time></trkpt><trkpt lat="37.904494669521064" lon="15.073675842130857"><ele>486.66666666666663</ele><time>2026-04-12T10:28:10.805Z</time></trkpt><trkpt lat="37.90443287506292" lon="15.073911201429816"><ele>489.0</ele><time>2026-04-12T10:28:11.805Z</time></trkpt><trkpt lat="37.904380004362814" lon="15.074144965168928"><ele>489.0</ele><time>2026-04-12T10:28:12.805Z</time></trkpt><trkpt lat="37.904326242084046" lon="15.074370873326908"><ele>489.0</ele><time>2026-04-12T10:28:13.805Z</time></trkpt><trkpt lat="37.90427569155681" lon="15.074589377859983"><ele>489.0</ele><time>2026-04-12T10:28:14.805Z</time></trkpt><trkpt lat="37.90424403471961" lon="15.07481506706213"><ele>490.66666666666663</ele><time>2026-04-12T10:28:15.805Z</time></trkpt><trkpt lat="37.90423845021426" lon="15.075068938736473"><ele>492.3333333333333</ele><time>2026-04-12T10:28:16.805Z</time></trkpt><trkpt lat="37.904233288489834" lon="15.075329733282649"><ele>494.0</ele><time>2026-04-12T10:28:17.805Z</time></trkpt><trkpt lat="37.90422868442214" lon="15.075582904968982"><ele>495.3333333333333</ele><time>2026-04-12T10:28:18.805Z</time></trkpt><trkpt lat="37.90421912196341" lon="15.075818961175466"><ele>496.66666666666663</ele><time>2026-04-12T10:28:19.805Z</time></trkpt><trkpt lat="37.904216898995436" lon="15.076024508808533"><ele>498.0</ele><time>2026-04-12T10:28:20.805Z</time></trkpt><trkpt lat="37.90424422888344" lon="15.07621796667624"><ele>503.33333333333337</ele><time>2026-04-12T10:28:21.805Z</time></trkpt><trkpt lat="37.904327533891994" lon="15.076396699036756"><ele>508.6666666666667</ele><time>2026-04-12T10:28:22.804Z</time></trkpt><trkpt lat="37.90444745459315" lon="15.07656703629649"><ele>514.0</ele><time>2026-04-12T10:28:23.804Z</time></trkpt><trkpt lat="37.90459106160319" lon="15.076741268940095"><ele>514.0</ele><time>2026-04-12T10:28:24.804Z</time></trkpt><trkpt lat="37.90468167069155" lon="15.07694022787506"><ele>514.0</ele><time>2026-04-12T10:28:25.804Z</time></trkpt><trkpt lat="37.9047408734867" lon="15.077161693384948"><ele>514.0</ele><time>2026-04-12T10:28:26.804Z</time></trkpt><trkpt lat="37.90479204778297" lon="15.07741144667369"><ele>515.3333333333334</ele><time>2026-04-12T10:28:27.804Z</time></trkpt><trkpt lat="37.904845440253" lon="15.077674906690564"><ele>516.6666666666666</ele><time>2026-04-12T10:28:28.804Z</time></trkpt><trkpt lat="37.90489767146391" lon="15.077946839183763"><ele>518.0</ele><time>2026-04-12T10:28:29.804Z</time></trkpt><trkpt lat="37.90495799705185" lon="15.078226289127738"><ele>518.3333333333333</ele><time>2026-04-12T10:28:30.804Z</time></trkpt><trkpt lat="37.904999690366665" lon="15.078495125740355"><ele>518.6666666666666</ele><time>2026-04-12T10:28:31.804Z</time></trkpt><trkpt lat="37.90503640224488" lon="15.078738228352389"><ele>519.0</ele><time>2026-04-12T10:28:32.804Z</time></trkpt><trkpt lat="37.90508138966654" lon="15.078968810926082"><ele>522.6666666666666</ele><time>2026-04-12T10:28:33.804Z</time></trkpt><trkpt lat="37.90515307403846" lon="15.07921052507791"><ele>526.3333333333333</ele><time>2026-04-12T10:28:34.804Z</time></trkpt><trkpt lat="37.90525096778413" lon="15.079430668213915"><ele>530.0</ele><time>2026-04-12T10:28:35.803Z</time></trkpt><trkpt lat="37.90534996290712" lon="15.079634139213027"><ele>530.0</ele><time>2026-04-12T10:28:36.803Z</time></trkpt><trkpt lat="37.905432675679194" lon="15.079825773361533"><ele>530.0</ele><time>2026-04-12T10:28:37.803Z</time></trkpt><trkpt lat="37.905484894626944" lon="15.080021363511825"><ele>530.0</ele><time>2026-04-12T10:28:38.803Z</time></trkpt><trkpt lat="37.90552862027199" lon="15.080207353552364"><ele>527.6666666666666</ele><time>2026-04-12T10:28:39.803Z</time></trkpt><trkpt lat="37.90556326573612" lon="15.080396024140997"><ele>525.3333333333334</ele><time>2026-04-12T10:28:40.803Z</time></trkpt><trkpt lat="37.90559517634876" lon="15.080596989311616"><ele>523.0</ele><time>2026-04-12T10:28:41.803Z</time></trkpt><trkpt lat="37.905619567877494" lon="15.080782345101039"><ele>521.3333333333334</ele><time>2026-04-12T10:28:42.803Z</time></trkpt><trkpt lat="37.90562964121773" lon="15.080971353296878"><ele>519.6666666666666</ele><time>2026-04-12T10:28:43.803Z</time></trkpt><trkpt lat="37.905627306412384" lon="15.081181025120484"><ele>518.0</ele><time>2026-04-12T10:28:44.803Z</time></trkpt><trkpt lat="37.905609718506724" lon="15.081406086157658"><ele>517.0</ele><time>2026-04-12T10:28:45.803Z</time></trkpt><trkpt lat="37.90557235395631" lon="15.081634400033309"><ele>516.0</ele><time>2026-04-12T10:28:46.806Z</time></trkpt><trkpt lat="37.905527748107225" lon="15.081855586814987"><ele>515.0</ele><time>2026-04-12T10:28:47.806Z</time></trkpt><trkpt lat="37.905478018535696" lon="15.08207639669178"><ele>515.0</ele><time>2026-04-12T10:28:48.806Z</time></trkpt><trkpt lat="37.90542696781246" lon="15.082303182640286"><ele>515.0</ele><time>2026-04-12T10:28:49.806Z</time></trkpt><trkpt lat="37.90537536930691" lon="15.082532098144883"><ele>515.0</ele><time>2026-04-12T10:28:50.805Z</time></trkpt><trkpt lat="37.90532435675406" lon="15.082756533122815"><ele>510.3333333333333</ele><time>2026-04-12T10:28:51.805Z</time></trkpt><trkpt lat="37.90527424943839" lon="15.082978621335872"><ele>505.66666666666663</ele><time>2026-04-12T10:28:52.805Z</time></trkpt><trkpt lat="37.905224047326236" lon="15.083198264808692"><ele>501.0</ele><time>2026-04-12T10:28:53.805Z</time></trkpt><trkpt lat="37.90516675043533" lon="15.083428027143391"><ele>497.0</ele><time>2026-04-12T10:28:54.805Z</time></trkpt><trkpt lat="37.905099925932134" lon="15.083659521461499"><ele>493.0</ele><time>2026-04-12T10:28:55.805Z</time></trkpt><trkpt lat="37.90502933419929" lon="15.08388437645217"><ele>489.0</ele><time>2026-04-12T10:28:56.805Z</time></trkpt><trkpt lat="37.90499267636355" lon="15.08412011291557"><ele>498.0</ele><time>2026-04-12T10:28:57.805Z</time></trkpt><trkpt lat="37.90498777934008" lon="15.084349691818732"><ele>507.0</ele><time>2026-04-12T10:28:58.805Z</time></trkpt><trkpt lat="37.90496078757832" lon="15.084564098088837"><ele>516.0</ele><time>2026-04-12T10:28:59.805Z</time></trkpt><trkpt lat="37.90490818501221" lon="15.084756040289307"><ele>516.0</ele><time>2026-04-12T10:29:00.805Z</time></trkpt><trkpt lat="37.90483689950448" lon="15.084907359479347"><ele>516.0</ele><time>2026-04-12T10:29:01.805Z</time></trkpt><trkpt lat="37.90472693098161" lon="15.08506425421741"><ele>516.0</ele><time>2026-04-12T10:29:02.805Z</time></trkpt><trkpt lat="37.90459791716426" lon="15.085211720615442"><ele>511.0</ele><time>2026-04-12T10:29:03.805Z</time></trkpt><trkpt lat="37.90446398366272" lon="15.085348060155763"><ele>506.0</ele><time>2026-04-12T10:29:04.805Z</time></trkpt><trkpt lat="37.90434222981165" lon="15.085469974301512"><ele>501.0</ele><time>2026-04-12T10:29:05.805Z</time></trkpt><trkpt lat="37.90424970040887" lon="15.085621860652228"><ele>501.0</ele><time>2026-04-12T10:29:06.805Z</time></trkpt><trkpt lat="37.90417892569956" lon="15.085795175101518"><ele>501.0</ele><time>2026-04-12T10:29:07.805Z</time></trkpt><trkpt lat="37.90415834467107" lon="15.086012222572641"><ele>501.0</ele><time>2026-04-12T10:29:08.805Z</time></trkpt><trkpt lat="37.90418509143321" lon="15.086244717629565"><ele>501.0</ele><time>2026-04-12T10:29:09.805Z</time></trkpt><trkpt lat="37.904224834423566" lon="15.086484736107874"><ele>501.0</ele><time>2026-04-12T10:29:10.805Z</time></trkpt><trkpt lat="37.90423102853204" lon="15.086725146262156"><ele>501.0</ele><time>2026-04-12T10:29:11.805Z</time></trkpt><trkpt lat="37.904258567726686" lon="15.0869427794471"><ele>493.66666666666663</ele><time>2026-04-12T10:29:12.805Z</time></trkpt><trkpt lat="37.904308025024726" lon="15.087150443602853"><ele>486.3333333333333</ele><time>2026-04-12T10:29:13.805Z</time></trkpt><trkpt lat="37.90434238210736" lon="15.087353055326515"><ele>479.0</ele><time>2026-04-12T10:29:14.805Z</time></trkpt><trkpt lat="37.904369916712476" lon="15.087561488013101"><ele>479.0</ele><time>2026-04-12T10:29:15.805Z</time></trkpt><trkpt lat="37.90442304265643" lon="15.087748433618563"><ele>479.0</ele><time>2026-04-12T10:29:16.805Z</time></trkpt><trkpt lat="37.904495218031514" lon="15.087939006357002"><ele>479.0</ele><time>2026-04-12T10:29:17.805Z</time></trkpt><trkpt lat="37.90453825950017" lon="15.088144756483217"><ele>480.66666666666663</ele><time>2026-04-12T10:29:18.805Z</time></trkpt><trkpt lat="37.90459211163408" lon="15.088334826468824"><ele>482.33333333333337</ele><time>2026-04-12T10:29:19.805Z</time></trkpt><trkpt lat="37.90475696399207" lon="15.088470871850586"><ele>484.0</ele><time>2026-04-12T10:29:20.804Z</time></trkpt><trkpt lat="37.904870408562395" lon="15.088631742954037"><ele>484.0</ele><time>2026-04-12T10:29:21.804Z</time></trkpt><trkpt lat="37.90497407578277" lon="15.088811716113291"><ele>484.0</ele><time>2026-04-12T10:29:22.804Z</time></trkpt><trkpt lat="37.90506774641173" lon="15.089009192817251"><ele>484.0</ele><time>2026-04-12T10:29:23.804Z</time></trkpt><trkpt lat="37.905138969601445" lon="15.089217060796702"><ele>481.0</ele><time>2026-04-12T10:29:24.804Z</time></trkpt><trkpt lat="37.90520064353517" lon="15.089421622535193"><ele>478.0</ele><time>2026-04-12T10:29:25.804Z</time></trkpt><trkpt lat="37.905267796831936" lon="15.089614135662757"><ele>475.0</ele><time>2026-04-12T10:29:26.804Z</time></trkpt><trkpt lat="37.90533271155937" lon="15.089814143549436"><ele>475.33333333333337</ele><time>2026-04-12T10:29:27.804Z</time></trkpt><trkpt lat="37.905409352954855" lon="15.090022400366456"><ele>475.66666666666663</ele><time>2026-04-12T10:29:28.804Z</time></trkpt><trkpt lat="37.905490450712726" lon="15.090207296110211"><ele>476.0</ele><time>2026-04-12T10:29:29.804Z</time></trkpt><trkpt lat="37.905579956508454" lon="15.090372257067777"><ele>476.0</ele><time>2026-04-12T10:29:30.804Z</time></trkpt><trkpt lat="37.905674940510316" lon="15.09052371430001"><ele>476.0</ele><time>2026-04-12T10:29:31.804Z</time></trkpt><trkpt lat="37.90578159407184" lon="15.09068357685012"><ele>476.0</ele><time>2026-04-12T10:29:32.804Z</time></trkpt><trkpt lat="37.90588263260317" lon="15.090849046432451"><ele>473.66666666666663</ele><time>2026-04-12T10:29:33.804Z</time></trkpt><trkpt lat="37.905963303041844" lon="15.091039043558446"><ele>471.33333333333337</ele><time>2026-04-12T10:29:34.804Z</time></trkpt><trkpt lat="37.906035677224175" lon="15.0912400499269"><ele>469.0</ele><time>2026-04-12T10:29:35.804Z</time></trkpt><trkpt lat="37.906132993819014" lon="15.091433274445427"><ele>471.0</ele><time>2026-04-12T10:29:36.804Z</time></trkpt><trkpt lat="37.90625061258771" lon="15.091597594691512"><ele>473.0</ele><time>2026-04-12T10:29:37.804Z</time></trkpt><trkpt lat="37.906377360354234" lon="15.09173558173943"><ele>475.0</ele><time>2026-04-12T10:29:38.804Z</time></trkpt><trkpt lat="37.90648888110732" lon="15.091879136231258"><ele>475.0</ele><time>2026-04-12T10:29:39.804Z</time></trkpt><trkpt lat="37.9065729365217" lon="15.092019802451865"><ele>475.0</ele><time>2026-04-12T10:29:40.804Z</time></trkpt><trkpt lat="37.90661092194573" lon="15.092166544454267"><ele>475.0</ele><time>2026-04-12T10:29:41.804Z</time></trkpt><trkpt lat="37.906600772588135" lon="15.092329878077182"><ele>475.0</ele><time>2026-04-12T10:29:42.804Z</time></trkpt><trkpt lat="37.90656027240718" lon="15.092490597478845"><ele>475.0</ele><time>2026-04-12T10:29:43.804Z</time></trkpt><trkpt lat="37.906471401428526" lon="15.092644810143575"><ele>475.0</ele><time>2026-04-12T10:29:44.803Z</time></trkpt><trkpt lat="37.9063600338459" lon="15.092776564386947"><ele>475.0</ele><time>2026-04-12T10:29:45.803Z</time></trkpt><trkpt lat="37.90621559355628" lon="15.092892494042525"><ele>475.0</ele><time>2026-04-12T10:29:46.803Z</time></trkpt><trkpt lat="37.90607135605696" lon="15.093014578565242"><ele>475.0</ele><time>2026-04-12T10:29:47.803Z</time></trkpt><trkpt lat="37.9059612162439" lon="15.093131644550933"><ele>475.0</ele><time>2026-04-12T10:29:48.803Z</time></trkpt><trkpt lat="37.90588618269374" lon="15.093238670523652"><ele>475.0</ele><time>2026-04-12T10:29:49.803Z</time></trkpt><trkpt lat="37.90586358902871" lon="15.093378274149172"><ele>476.0</ele><time>2026-04-12T10:29:50.803Z</time></trkpt><trkpt lat="37.90590048559589" lon="15.093526224999799"><ele>477.0</ele><time>2026-04-12T10:29:51.803Z</time></trkpt><trkpt lat="37.9059825471353" lon="15.093644911144736"><ele>478.0</ele><time>2026-04-12T10:29:52.803Z</time></trkpt><trkpt lat="37.90610567469209" lon="15.093774365025578"><ele>479.0</ele><time>2026-04-12T10:29:53.803Z</time></trkpt><trkpt lat="37.90622027541791" lon="15.09394403550002"><ele>476.3333333333333</ele><time>2026-04-12T10:29:54.803Z</time></trkpt><trkpt lat="37.9063179420581" lon="15.094115474705443"><ele>473.66666666666663</ele><time>2026-04-12T10:29:55.803Z</time></trkpt><trkpt lat="37.90641778122758" lon="15.094262079836787"><ele>471.0</ele><time>2026-04-12T10:29:56.803Z</time></trkpt><trkpt lat="37.90653697916391" lon="15.09436323769278"><ele>471.0</ele><time>2026-04-12T10:29:57.803Z</time></trkpt><trkpt lat="37.906656813986" lon="15.094450231892452"><ele>471.0</ele><time>2026-04-12T10:29:58.803Z</time></trkpt><trkpt lat="37.90677372652999" lon="15.094523137437314"><ele>471.0</ele><time>2026-04-12T10:29:59.803Z</time></trkpt><trkpt lat="37.90691355379556" lon="15.094559826212969"><ele>471.0</ele><time>2026-04-12T10:30:00.803Z</time></trkpt><trkpt lat="37.907067585583505" lon="15.094519376600298"><ele>468.5</ele><time>2026-04-12T10:30:01.803Z</time></trkpt><trkpt lat="37.90720360275756" lon="15.094470254730759"><ele>466.0</ele><time>2026-04-12T10:30:02.803Z</time></trkpt><trkpt lat="37.90732645474608" lon="15.09446057797435"><ele>463.5</ele><time>2026-04-12T10:30:03.803Z</time></trkpt><trkpt lat="37.90745719301539" lon="15.094522193548329"><ele>461.0</ele><time>2026-04-12T10:30:04.803Z</time></trkpt><trkpt lat="37.907588235456124" lon="15.094596729144666"><ele>458.75</ele><time>2026-04-12T10:30:05.803Z</time></trkpt><trkpt lat="37.907689844782595" lon="15.094670388125513"><ele>456.5</ele><time>2026-04-12T10:30:06.803Z</time></trkpt><trkpt lat="37.9077517531959" lon="15.094764539636063"><ele>454.25</ele><time>2026-04-12T10:30:07.803Z</time></trkpt><trkpt lat="37.907775498659305" lon="15.0949008359353"><ele>452.0</ele><time>2026-04-12T10:30:08.803Z</time></trkpt><trkpt lat="37.9077450427324" lon="15.09508511855727"><ele>452.0</ele><time>2026-04-12T10:30:09.803Z</time></trkpt><trkpt lat="37.90769864750406" lon="15.09528499635307"><ele>452.0</ele><time>2026-04-12T10:30:10.802Z</time></trkpt><trkpt lat="37.90765604669608" lon="15.095475479272624"><ele>452.0</ele><time>2026-04-12T10:30:11.802Z</time></trkpt><trkpt lat="37.90762580209695" lon="15.095664057990215"><ele>450.66666666666663</ele><time>2026-04-12T10:30:12.802Z</time></trkpt><trkpt lat="37.907597440268454" lon="15.095851702275477"><ele>449.33333333333337</ele><time>2026-04-12T10:30:13.802Z</time></trkpt><trkpt lat="37.90756212997301" lon="15.096035342955219"><ele>448.0</ele><time>2026-04-12T10:30:14.802Z</time></trkpt><trkpt lat="37.90752532750755" lon="15.096224028474833"><ele>451.75</ele><time>2026-04-12T10:30:15.802Z</time></trkpt><trkpt lat="37.9074891499385" lon="15.096408044971241"><ele>455.5</ele><time>2026-04-12T10:30:16.802Z</time></trkpt><trkpt lat="37.907452647345956" lon="15.09657802684974"><ele>459.25</ele><time>2026-04-12T10:30:17.802Z</time></trkpt><trkpt lat="37.90741662988905" lon="15.096746547770303"><ele>463.0</ele><time>2026-04-12T10:30:18.802Z</time></trkpt><trkpt lat="37.90738009808685" lon="15.096910783470758"><ele>463.0</ele><time>2026-04-12T10:30:19.802Z</time></trkpt><trkpt lat="37.90734864867876" lon="15.09706215023061"><ele>463.0</ele><time>2026-04-12T10:30:20.802Z</time></trkpt><trkpt lat="37.907321796680044" lon="15.09721323599639"><ele>463.0</ele><time>2026-04-12T10:30:21.802Z</time></trkpt><trkpt lat="37.90731596796211" lon="15.097364222119337"><ele>463.0</ele><time>2026-04-12T10:30:22.802Z</time></trkpt><trkpt lat="37.90735819075823" lon="15.097503163134942"><ele>461.75</ele><time>2026-04-12T10:30:23.802Z</time></trkpt><trkpt lat="37.90743737343237" lon="15.097633156451698"><ele>460.5</ele><time>2026-04-12T10:30:24.802Z</time></trkpt><trkpt lat="37.907549483512035" lon="15.09775163863645"><ele>459.25</ele><time>2026-04-12T10:30:25.802Z</time></trkpt><trkpt lat="37.90766304463582" lon="15.097854988095225"><ele>458.0</ele><time>2026-04-12T10:30:26.802Z</time></trkpt><trkpt lat="37.907789011593565" lon="15.097951800271543"><ele>455.0</ele><time>2026-04-12T10:30:27.802Z</time></trkpt><trkpt lat="37.90787961384146" lon="15.098054823867235"><ele>451.99999999999994</ele><time>2026-04-12T10:30:28.802Z</time></trkpt><trkpt lat="37.907929293544655" lon="15.098159896236016"><ele>448.99999999999994</ele><time>2026-04-12T10:30:29.802Z</time></trkpt><trkpt lat="37.907929268536755" lon="15.098278709726136"><ele>446.0</ele><time>2026-04-12T10:30:30.802Z</time></trkpt><trkpt lat="37.90787045945314" lon="15.098412647906626"><ele>443.0</ele><time>2026-04-12T10:30:31.802Z</time></trkpt><trkpt lat="37.907781519682565" lon="15.098527771611463"><ele>443.0</ele><time>2026-04-12T10:30:32.802Z</time></trkpt><trkpt lat="37.90766291218192" lon="15.098604759227257"><ele>443.0</ele><time>2026-04-12T10:30:33.802Z</time></trkpt><trkpt lat="37.907554873619375" lon="15.098665956845434"><ele>443.0</ele><time>2026-04-12T10:30:34.802Z</time></trkpt><trkpt lat="37.90746891654754" lon="15.098745529677034"><ele>443.0</ele><time>2026-04-12T10:30:35.801Z</time></trkpt><trkpt lat="37.907425444353755" lon="15.098876336640664"><ele>442.0</ele><time>2026-04-12T10:30:36.801Z</time></trkpt><trkpt lat="37.90744095811727" lon="15.099019452484342"><ele>441.0</ele><time>2026-04-12T10:30:37.801Z</time></trkpt><trkpt lat="37.90750784611023" lon="15.099134957428086"><ele>440.0</ele><time>2026-04-12T10:30:38.801Z</time></trkpt><trkpt lat="37.907604788758796" lon="15.099251464511333"><ele>439.0</ele><time>2026-04-12T10:30:39.801Z</time></trkpt><trkpt lat="37.907716165254" lon="15.099386649903394"><ele>439.0</ele><time>2026-04-12T10:30:40.801Z</time></trkpt><trkpt lat="37.90781441791279" lon="15.09952007022829"><ele>439.0</ele><time>2026-04-12T10:30:41.801Z</time></trkpt><trkpt lat="37.907902958614564" lon="15.099646238246384"><ele>439.0</ele><time>2026-04-12T10:30:42.801Z</time></trkpt><trkpt lat="37.907971613064724" lon="15.099772697046246"><ele>439.0</ele><time>2026-04-12T10:30:43.801Z</time></trkpt><trkpt lat="37.90802061488659" lon="15.099904140589905"><ele>438.79999999999995</ele><time>2026-04-12T10:30:44.801Z</time></trkpt><trkpt lat="37.90805578798362" lon="15.100037620081675"><ele>438.59999999999997</ele><time>2026-04-12T10:30:45.801Z</time></trkpt><trkpt lat="37.90804250143501" lon="15.100175788915944"><ele>438.4</ele><time>2026-04-12T10:30:46.801Z</time></trkpt><trkpt lat="37.908036943184236" lon="15.100315494882889"><ele>438.2</ele><time>2026-04-12T10:30:47.801Z</time></trkpt><trkpt lat="37.90802540754174" lon="15.100440479794935"><ele>438.0</ele><time>2026-04-12T10:30:48.801Z</time></trkpt><trkpt lat="37.90802571121088" lon="15.100568493706698"><ele>438.0</ele><time>2026-04-12T10:30:49.801Z</time></trkpt><trkpt lat="37.90804386036322" lon="15.100692989819496"><ele>438.0</ele><time>2026-04-12T10:30:50.801Z</time></trkpt><trkpt lat="37.90809087202573" lon="15.100817900611549"><ele>438.0</ele><time>2026-04-12T10:30:51.801Z</time></trkpt><trkpt lat="37.90817942639536" lon="15.10091856252629"><ele>438.0</ele><time>2026-04-12T10:30:52.804Z</time></trkpt><trkpt lat="37.908294595699815" lon="15.100998204457381"><ele>438.25</ele><time>2026-04-12T10:30:53.804Z</time></trkpt><trkpt lat="37.90840171788719" lon="15.101085963634365"><ele>438.5</ele><time>2026-04-12T10:30:54.804Z</time></trkpt><trkpt lat="37.90849834078889" lon="15.101169572180769"><ele>438.75</ele><time>2026-04-12T10:30:55.803Z</time></trkpt><trkpt lat="37.90859473271969" lon="15.101274688854534"><ele>439.0</ele><time>2026-04-12T10:30:56.804Z</time></trkpt><trkpt lat="37.90869483681347" lon="15.101402670322575"><ele>436.5</ele><time>2026-04-12T10:30:57.803Z</time></trkpt><trkpt lat="37.90878980090623" lon="15.101550409607635"><ele>434.0</ele><time>2026-04-12T10:30:58.804Z</time></trkpt><trkpt lat="37.90888400529001" lon="15.101693846601446"><ele>431.5</ele><time>2026-04-12T10:30:59.803Z</time></trkpt><trkpt lat="37.90898091965615" lon="15.101837303266446"><ele>429.0</ele><time>2026-04-12T10:31:00.803Z</time></trkpt><trkpt lat="37.90908308374673" lon="15.101986859875709"><ele>429.0</ele><time>2026-04-12T10:31:01.803Z</time></trkpt><trkpt lat="37.90918666210654" lon="15.102133951819592"><ele>429.0</ele><time>2026-04-12T10:31:02.804Z</time></trkpt><trkpt lat="37.9092867079202" lon="15.10227378347685"><ele>429.0</ele><time>2026-04-12T10:31:03.804Z</time></trkpt><trkpt lat="37.90938251441872" lon="15.10241470108156"><ele>425.0</ele><time>2026-04-12T10:31:04.803Z</time></trkpt><trkpt lat="37.90948796516401" lon="15.102564783090209"><ele>421.0</ele><time>2026-04-12T10:31:05.804Z</time></trkpt><trkpt lat="37.90959810033314" lon="15.102722872189222"><ele>417.0</ele><time>2026-04-12T10:31:06.804Z</time></trkpt><trkpt lat="37.909712864424314" lon="15.102882604286677"><ele>417.0</ele><time>2026-04-12T10:31:07.804Z</time></trkpt><trkpt lat="37.909820895865266" lon="15.103042536136414"><ele>417.0</ele><time>2026-04-12T10:31:08.804Z</time></trkpt><trkpt lat="37.909935677208885" lon="15.103205898923608"><ele>417.0</ele><time>2026-04-12T10:31:09.804Z</time></trkpt><trkpt lat="37.91004780127762" lon="15.103361789627431"><ele>413.75</ele><time>2026-04-12T10:31:10.804Z</time></trkpt><trkpt lat="37.91015626600584" lon="15.103514301872645"><ele>410.5</ele><time>2026-04-12T10:31:11.804Z</time></trkpt><trkpt lat="37.91024798190373" lon="15.103659917971548"><ele>407.25</ele><time>2026-04-12T10:31:12.804Z</time></trkpt><trkpt lat="37.91033795804461" lon="15.103787826258278"><ele>404.0</ele><time>2026-04-12T10:31:13.804Z</time></trkpt><trkpt lat="37.910417032442176" lon="15.103911669518629"><ele>404.0</ele><time>2026-04-12T10:31:14.804Z</time></trkpt><trkpt lat="37.91047345043197" lon="15.104049604632529"><ele>404.0</ele><time>2026-04-12T10:31:15.804Z</time></trkpt><trkpt lat="37.91049671207508" lon="15.104220818779236"><ele>404.0</ele><time>2026-04-12T10:31:16.804Z</time></trkpt><trkpt lat="37.910489854523725" lon="15.104416788814005"><ele>404.0</ele><time>2026-04-12T10:31:17.804Z</time></trkpt><trkpt lat="37.91048460422728" lon="15.10460720348691"><ele>404.25</ele><time>2026-04-12T10:31:18.804Z</time></trkpt><trkpt lat="37.91049780894883" lon="15.10476580062964"><ele>404.5</ele><time>2026-04-12T10:31:19.804Z</time></trkpt><trkpt lat="37.9105275154421" lon="15.10489525916219"><ele>404.75</ele><time>2026-04-12T10:31:20.804Z</time></trkpt><trkpt lat="37.91060050162379" lon="15.105000730039057"><ele>405.0</ele><time>2026-04-12T10:31:21.804Z</time></trkpt><trkpt lat="37.910749511215926" lon="15.105060872510947"><ele>405.5</ele><time>2026-04-12T10:31:22.803Z</time></trkpt><trkpt lat="37.91089562915749" lon="15.105079922348825"><ele>406.0</ele><time>2026-04-12T10:31:23.803Z</time></trkpt><trkpt lat="37.911040868362704" lon="15.105107405741492"><ele>406.5</ele><time>2026-04-12T10:31:24.803Z</time></trkpt><trkpt lat="37.911167621036775" lon="15.105150597193314"><ele>407.0</ele><time>2026-04-12T10:31:25.803Z</time></trkpt><trkpt lat="37.911272134140596" lon="15.105219302405777"><ele>406.25</ele><time>2026-04-12T10:31:26.803Z</time></trkpt><trkpt lat="37.911360848350924" lon="15.105332733228408"><ele>405.5</ele><time>2026-04-12T10:31:27.803Z</time></trkpt><trkpt lat="37.91143749196956" lon="15.105486984214277"><ele>404.75</ele><time>2026-04-12T10:31:28.803Z</time></trkpt><trkpt lat="37.9115225468469" lon="15.10564339918742"><ele>404.0</ele><time>2026-04-12T10:31:29.803Z</time></trkpt><trkpt lat="37.91160676411972" lon="15.105793048772465"><ele>404.0</ele><time>2026-04-12T10:31:30.803Z</time></trkpt><trkpt lat="37.91169189933579" lon="15.10592273137003"><ele>404.0</ele><time>2026-04-12T10:31:31.803Z</time></trkpt><trkpt lat="37.91178241399091" lon="15.106036479031408"><ele>404.0</ele><time>2026-04-12T10:31:32.803Z</time></trkpt><trkpt lat="37.911880322294934" lon="15.106130157705527"><ele>404.0</ele><time>2026-04-12T10:31:33.803Z</time></trkpt><trkpt lat="37.911980887258814" lon="15.106208098594626"><ele>401.4</ele><time>2026-04-12T10:31:34.803Z</time></trkpt><trkpt lat="37.91207216196729" lon="15.106274133078538"><ele>398.79999999999995</ele><time>2026-04-12T10:31:35.803Z</time></trkpt><trkpt lat="37.91215054069135" lon="15.106297414443205"><ele>396.20000000000005</ele><time>2026-04-12T10:31:36.803Z</time></trkpt><trkpt lat="37.912266124498196" lon="15.106289621667536"><ele>393.6</ele><time>2026-04-12T10:31:38.803Z</time></trkpt><trkpt lat="37.91233203293531" lon="15.106260282454985"><ele>391.0</ele><time>2026-04-12T10:32:25.801Z</time></trkpt><trkpt lat="37.912407629512415" lon="15.106352994309423"><ele>391.0</ele><time>2026-04-12T10:32:27.801Z</time></trkpt><trkpt lat="37.91242834116485" lon="15.106455911674914"><ele>391.0</ele><time>2026-04-12T10:32:28.801Z</time></trkpt><trkpt lat="37.91243754308535" lon="15.106570325041618"><ele>391.0</ele><time>2026-04-12T10:32:29.801Z</time></trkpt><trkpt lat="37.912435657417014" lon="15.106690800297798"><ele>391.0</ele><time>2026-04-12T10:32:30.801Z</time></trkpt><trkpt lat="37.91243274323195" lon="15.10684935663458"><ele>391.0</ele><time>2026-04-12T10:32:31.801Z</time></trkpt><trkpt lat="37.912434008407686" lon="15.107076266565276"><ele>391.33333333333337</ele><time>2026-04-12T10:32:32.801Z</time></trkpt><trkpt lat="37.91241910022394" lon="15.107326251185617"><ele>391.66666666666663</ele><time>2026-04-12T10:32:33.801Z</time></trkpt><trkpt lat="37.91233451639551" lon="15.107492630472958"><ele>392.0</ele><time>2026-04-12T10:32:34.801Z</time></trkpt><trkpt lat="37.912245596473305" lon="15.107629110009395"><ele>392.0</ele><time>2026-04-12T10:32:35.801Z</time></trkpt><trkpt lat="37.91214089612525" lon="15.1077843401723"><ele>392.0</ele><time>2026-04-12T10:32:36.801Z</time></trkpt><trkpt lat="37.91204248861917" lon="15.107942601447393"><ele>392.0</ele><time>2026-04-12T10:32:37.801Z</time></trkpt><trkpt lat="37.91195499943533" lon="15.108105344462984"><ele>389.66666666666663</ele><time>2026-04-12T10:32:38.801Z</time></trkpt><trkpt lat="37.91188219916217" lon="15.108285689257809"><ele>387.33333333333337</ele><time>2026-04-12T10:32:39.8Z</time></trkpt><trkpt lat="37.91179425606542" lon="15.108465361960373"><ele>385.0</ele><time>2026-04-12T10:32:40.8Z</time></trkpt><trkpt lat="37.9116986135501" lon="15.108633010496018"><ele>386.33333333333337</ele><time>2026-04-12T10:32:41.8Z</time></trkpt><trkpt lat="37.9116106416391" lon="15.108813216867736"><ele>387.66666666666663</ele><time>2026-04-12T10:32:42.8Z</time></trkpt><trkpt lat="37.9114957749014" lon="15.108983255184"><ele>389.0</ele><time>2026-04-12T10:32:43.8Z</time></trkpt><trkpt lat="37.911387189606735" lon="15.109150512501127"><ele>389.0</ele><time>2026-04-12T10:32:44.8Z</time></trkpt><trkpt lat="37.911268155687196" lon="15.109306672040635"><ele>389.0</ele><time>2026-04-12T10:32:45.8Z</time></trkpt><trkpt lat="37.911158822076196" lon="15.109467474230218"><ele>389.0</ele><time>2026-04-12T10:32:46.8Z</time></trkpt><trkpt lat="37.911059414442825" lon="15.109620901178335"><ele>389.0</ele><time>2026-04-12T10:32:47.8Z</time></trkpt><trkpt lat="37.910992894758905" lon="15.109796172289645"><ele>389.0</ele><time>2026-04-12T10:32:48.8Z</time></trkpt><trkpt lat="37.91096562749676" lon="15.109990570284898"><ele>389.0</ele><time>2026-04-12T10:32:49.8Z</time></trkpt><trkpt lat="37.91095406884453" lon="15.110189433736382"><ele>391.0</ele><time>2026-04-12T10:32:50.8Z</time></trkpt><trkpt lat="37.910943855079324" lon="15.110384466315761"><ele>393.0</ele><time>2026-04-12T10:32:51.8Z</time></trkpt><trkpt lat="37.910921660349125" lon="15.110567319731246"><ele>395.0</ele><time>2026-04-12T10:32:52.8Z</time></trkpt><trkpt lat="37.910869627102" lon="15.110754560321192"><ele>395.0</ele><time>2026-04-12T10:32:53.8Z</time></trkpt><trkpt lat="37.910783139156706" lon="15.110931063019033"><ele>395.0</ele><time>2026-04-12T10:32:54.8Z</time></trkpt><trkpt lat="37.91068954747775" lon="15.111079307874753"><ele>395.0</ele><time>2026-04-12T10:32:55.8Z</time></trkpt><trkpt lat="37.91059080900752" lon="15.11120311187935"><ele>395.0</ele><time>2026-04-12T10:32:56.8Z</time></trkpt><trkpt lat="37.91049784968555" lon="15.111301959140752"><ele>395.0</ele><time>2026-04-12T10:32:57.8Z</time></trkpt><trkpt lat="37.91045392826056" lon="15.111437880643292"><ele>395.0</ele><time>2026-04-12T10:32:58.802Z</time></trkpt><trkpt lat="37.91046104310223" lon="15.111590815979481"><ele>395.0</ele><time>2026-04-12T10:32:59.802Z</time></trkpt><trkpt lat="37.91050637925765" lon="15.111771044819239"><ele>392.3333333333333</ele><time>2026-04-12T10:33:00.802Z</time></trkpt><trkpt lat="37.91052606327924" lon="15.111953028498167"><ele>389.66666666666663</ele><time>2026-04-12T10:33:01.803Z</time></trkpt><trkpt lat="37.910571917673614" lon="15.112138218715641"><ele>387.0</ele><time>2026-04-12T10:33:02.802Z</time></trkpt><trkpt lat="37.910600918491355" lon="15.112335763970284"><ele>386.0</ele><time>2026-04-12T10:33:03.802Z</time></trkpt><trkpt lat="37.91063164454978" lon="15.112541583769843"><ele>385.0</ele><time>2026-04-12T10:33:04.802Z</time></trkpt><trkpt lat="37.91066642752314" lon="15.112734083835319"><ele>384.0</ele><time>2026-04-12T10:33:05.802Z</time></trkpt><trkpt lat="37.91070049113937" lon="15.112925713284023"><ele>384.0</ele><time>2026-04-12T10:33:06.802Z</time></trkpt><trkpt lat="37.910713937095714" lon="15.11311775266439"><ele>384.0</ele><time>2026-04-12T10:33:07.802Z</time></trkpt><trkpt lat="37.91071115331859" lon="15.113302913716634"><ele>384.0</ele><time>2026-04-12T10:33:08.802Z</time></trkpt><trkpt lat="37.91068081855601" lon="15.113484221377993"><ele>384.0</ele><time>2026-04-12T10:33:09.802Z</time></trkpt><trkpt lat="37.91062433193026" lon="15.113649112212702"><ele>383.5</ele><time>2026-04-12T10:33:10.803Z</time></trkpt><trkpt lat="37.910543215281656" lon="15.113787356021108"><ele>383.0</ele><time>2026-04-12T10:33:11.802Z</time></trkpt><trkpt lat="37.91041833449568" lon="15.113875593970288"><ele>382.5</ele><time>2026-04-12T10:33:12.802Z</time></trkpt><trkpt lat="37.91027418104308" lon="15.113943106591861"><ele>382.0</ele><time>2026-04-12T10:33:13.802Z</time></trkpt><trkpt lat="37.9101235555075" lon="15.114040584262892"><ele>384.66666666666663</ele><time>2026-04-12T10:33:14.802Z</time></trkpt><trkpt lat="37.909977634971945" lon="15.114162657853544"><ele>387.3333333333333</ele><time>2026-04-12T10:33:15.802Z</time></trkpt><trkpt lat="37.90986018843584" lon="15.114299278760436"><ele>390.0</ele><time>2026-04-12T10:33:16.802Z</time></trkpt><trkpt lat="37.909762934576875" lon="15.114430393052485"><ele>390.0</ele><time>2026-04-12T10:33:17.802Z</time></trkpt><trkpt lat="37.90969348285927" lon="15.114557185423013"><ele>390.0</ele><time>2026-04-12T10:33:18.802Z</time></trkpt><trkpt lat="37.90966129379303" lon="15.11469426430538"><ele>390.0</ele><time>2026-04-12T10:33:19.802Z</time></trkpt><trkpt lat="37.90965845134131" lon="15.114840203509093"><ele>390.0</ele><time>2026-04-12T10:33:20.802Z</time></trkpt><trkpt lat="37.90961729373341" lon="15.114980209183368"><ele>391.5</ele><time>2026-04-12T10:33:21.802Z</time></trkpt><trkpt lat="37.90951742610993" lon="15.115098322243773"><ele>393.0</ele><time>2026-04-12T10:33:22.802Z</time></trkpt><trkpt lat="37.909391075966575" lon="15.11518825956055"><ele>394.5</ele><time>2026-04-12T10:33:23.802Z</time></trkpt><trkpt lat="37.90926502701778" lon="15.11523035266529"><ele>396.0</ele><time>2026-04-12T10:33:24.802Z</time></trkpt><trkpt lat="37.909157367211094" lon="15.115230082327132"><ele>396.0</ele><time>2026-04-12T10:33:25.802Z</time></trkpt><trkpt lat="37.90908406142376" lon="15.11525859260251"><ele>396.0</ele><time>2026-04-12T10:33:26.802Z</time></trkpt><trkpt lat="37.90902882488485" lon="15.115319405323337"><ele>396.0</ele><time>2026-04-12T10:33:27.802Z</time></trkpt><trkpt lat="37.90900588386339" lon="15.115445532480932"><ele>396.0</ele><time>2026-04-12T10:33:28.802Z</time></trkpt><trkpt lat="37.908976718220046" lon="15.115596619884087"><ele>396.0</ele><time>2026-04-12T10:33:29.802Z</time></trkpt><trkpt lat="37.908941954531784" lon="15.11574731353305"><ele>391.5</ele><time>2026-04-12T10:33:30.802Z</time></trkpt><trkpt lat="37.90894023353228" lon="15.115874157609133"><ele>387.0</ele><time>2026-04-12T10:33:31.802Z</time></trkpt><trkpt lat="37.908945415323394" lon="15.115997707804807"><ele>382.5</ele><time>2026-04-12T10:33:32.802Z</time></trkpt><trkpt lat="37.90895204840535" lon="15.116107884029766"><ele>378.0</ele><time>2026-04-12T10:33:33.802Z</time></trkpt><trkpt lat="37.90895755788563" lon="15.116215106328255"><ele>373.5</ele><time>2026-04-12T10:33:34.801Z</time></trkpt><trkpt lat="37.908955075995564" lon="15.116307349583481"><ele>369.0</ele><time>2026-04-12T10:33:35.801Z</time></trkpt><trkpt lat="37.90892301968118" lon="15.1164105535607"><ele>369.0</ele><time>2026-04-12T10:33:36.801Z</time></trkpt><trkpt lat="37.9088684998861" lon="15.116506340134988"><ele>369.0</ele><time>2026-04-12T10:33:37.801Z</time></trkpt><trkpt lat="37.90881648756793" lon="15.116619514227247"><ele>369.0</ele><time>2026-04-12T10:33:38.801Z</time></trkpt><trkpt lat="37.90875033061825" lon="15.116731985415639"><ele>369.0</ele><time>2026-04-12T10:33:39.801Z</time></trkpt><trkpt lat="37.90871653701692" lon="15.116922968199868"><ele>364.6666666666667</ele><time>2026-04-12T10:33:40.801Z</time></trkpt><trkpt lat="37.90869077339621" lon="15.117107392111762"><ele>360.33333333333337</ele><time>2026-04-12T10:33:41.801Z</time></trkpt><trkpt lat="37.908675633522634" lon="15.117314513071516"><ele>356.0</ele><time>2026-04-12T10:33:42.801Z</time></trkpt><trkpt lat="37.90866144356181" lon="15.117490984751567"><ele>353.0</ele><time>2026-04-12T10:33:43.801Z</time></trkpt><trkpt lat="37.90859893211762" lon="15.117625522663447"><ele>350.0</ele><time>2026-04-12T10:33:44.801Z</time></trkpt><trkpt lat="37.90852887911651" lon="15.117753375899262"><ele>347.0</ele><time>2026-04-12T10:33:45.801Z</time></trkpt><trkpt lat="37.90841748294073" lon="15.1178524257998"><ele>344.0</ele><time>2026-04-12T10:33:46.801Z</time></trkpt><trkpt lat="37.908277510422906" lon="15.117959060642564"><ele>354.5</ele><time>2026-04-12T10:33:47.801Z</time></trkpt><trkpt lat="37.908145963146815" lon="15.118040797344067"><ele>365.0</ele><time>2026-04-12T10:33:48.801Z</time></trkpt><trkpt lat="37.90804515457721" lon="15.118084842464139"><ele>375.5</ele><time>2026-04-12T10:33:49.801Z</time></trkpt><trkpt lat="37.90796227361176" lon="15.118097284852118"><ele>386.0</ele><time>2026-04-12T10:33:50.801Z</time></trkpt><trkpt lat="37.9076890115667" lon="15.11809447315395"><ele>381.66666666666663</ele><time>2026-04-12T10:33:52.801Z</time></trkpt><trkpt lat="37.90758720735119" lon="15.11828359795905"><ele>377.3333333333333</ele><time>2026-04-12T10:33:53.801Z</time></trkpt><trkpt lat="37.90748207547875" lon="15.118510014013173"><ele>373.0</ele><time>2026-04-12T10:33:54.801Z</time></trkpt><trkpt lat="37.90740885898968" lon="15.118734638787403"><ele>373.0</ele><time>2026-04-12T10:33:55.801Z</time></trkpt><trkpt lat="37.90735757479766" lon="15.11899495971618"><ele>373.0</ele><time>2026-04-12T10:33:57.801Z</time></trkpt><trkpt lat="37.90728759671886" lon="15.119198806695936"><ele>373.0</ele><time>2026-04-12T10:33:58.801Z</time></trkpt><trkpt lat="37.90725038527826" lon="15.119430946797074"><ele>367.3333333333333</ele><time>2026-04-12T10:33:59.8Z</time></trkpt><trkpt lat="37.90720526019322" lon="15.119650740861097"><ele>361.6666666666667</ele><time>2026-04-12T10:34:00.8Z</time></trkpt><trkpt lat="37.9071478163288" lon="15.119850919572583"><ele>356.0</ele><time>2026-04-12T10:34:01.8Z</time></trkpt><trkpt lat="37.90711980073154" lon="15.12004585734065"><ele>353.75</ele><time>2026-04-12T10:34:02.8Z</time></trkpt><trkpt lat="37.907130386346765" lon="15.120234391204445"><ele>351.5</ele><time>2026-04-12T10:34:03.8Z</time></trkpt><trkpt lat="37.90714683243771" lon="15.120414805111828"><ele>349.25</ele><time>2026-04-12T10:34:04.8Z</time></trkpt><trkpt lat="37.907108182528816" lon="15.120567882829624"><ele>347.0</ele><time>2026-04-12T10:34:05.8Z</time></trkpt><trkpt lat="37.90702912064549" lon="15.120730908300544"><ele>344.0</ele><time>2026-04-12T10:34:06.8Z</time></trkpt><trkpt lat="37.90694852332136" lon="15.120891990993686"><ele>341.0</ele><time>2026-04-12T10:34:07.8Z</time></trkpt><trkpt lat="37.906829810685885" lon="15.12100923598207"><ele>338.0</ele><time>2026-04-12T10:34:08.8Z</time></trkpt><trkpt lat="37.90669189590521" lon="15.121119356851473"><ele>338.6666666666667</ele><time>2026-04-12T10:34:09.8Z</time></trkpt><trkpt lat="37.906532830069246" lon="15.121263345655573"><ele>339.3333333333333</ele><time>2026-04-12T10:34:10.8Z</time></trkpt><trkpt lat="37.90643970284661" lon="15.12143940534268"><ele>340.0</ele><time>2026-04-12T10:34:11.8Z</time></trkpt><trkpt lat="37.9063697771054" lon="15.12162082794859"><ele>340.0</ele><time>2026-04-12T10:34:12.8Z</time></trkpt><trkpt lat="37.906286479385145" lon="15.12179197370826"><ele>340.0</ele><time>2026-04-12T10:34:13.8Z</time></trkpt><trkpt lat="37.906180878592714" lon="15.12192148022307"><ele>340.0</ele><time>2026-04-12T10:34:14.8Z</time></trkpt><trkpt lat="37.9060434021009" lon="15.122042194452028"><ele>340.0</ele><time>2026-04-12T10:34:15.8Z</time></trkpt><trkpt lat="37.90592546529493" lon="15.122204208583058"><ele>340.0</ele><time>2026-04-12T10:34:16.8Z</time></trkpt><trkpt lat="37.90584603323683" lon="15.122420021186212"><ele>340.0</ele><time>2026-04-12T10:34:17.8Z</time></trkpt><trkpt lat="37.90575429029973" lon="15.122621327372743"><ele>341.3333333333333</ele><time>2026-04-12T10:34:18.8Z</time></trkpt><trkpt lat="37.90561256087928" lon="15.122788065907347"><ele>342.6666666666667</ele><time>2026-04-12T10:34:19.8Z</time></trkpt><trkpt lat="37.90558358008248" lon="15.12302132018124"><ele>344.0</ele><time>2026-04-12T10:34:20.8Z</time></trkpt><trkpt lat="37.90551845761893" lon="15.12326162634586"><ele>340.33333333333337</ele><time>2026-04-12T10:34:21.8Z</time></trkpt><trkpt lat="37.9054395138469" lon="15.123463102091343"><ele>336.6666666666667</ele><time>2026-04-12T10:34:22.8Z</time></trkpt><trkpt lat="37.905379535232626" lon="15.123679323642094"><ele>333.0</ele><time>2026-04-12T10:34:23.8Z</time></trkpt><trkpt lat="37.9052727792924" lon="15.123832233119906"><ele>333.0</ele><time>2026-04-12T10:34:24.8Z</time></trkpt><trkpt lat="37.90511318311103" lon="15.12392143532506"><ele>333.0</ele><time>2026-04-12T10:34:25.799Z</time></trkpt><trkpt lat="37.90502052411769" lon="15.124094790880317"><ele>333.0</ele><time>2026-04-12T10:34:26.799Z</time></trkpt><trkpt lat="37.90495501039115" lon="15.124312860896076"><ele>334.6666666666667</ele><time>2026-04-12T10:34:27.799Z</time></trkpt><trkpt lat="37.90490080576262" lon="15.124513146888425"><ele>336.33333333333337</ele><time>2026-04-12T10:34:28.799Z</time></trkpt><trkpt lat="37.90484345063722" lon="15.124717232074072"><ele>338.0</ele><time>2026-04-12T10:34:29.799Z</time></trkpt><trkpt lat="37.90477940959501" lon="15.124910191849901"><ele>338.0</ele><time>2026-04-12T10:34:30.799Z</time></trkpt><trkpt lat="37.90473356915951" lon="15.125220335273902"><ele>338.0</ele><time>2026-04-12T10:34:31.799Z</time></trkpt><trkpt lat="37.90471130698132" lon="15.125455127612577"><ele>338.0</ele><time>2026-04-12T10:34:32.799Z</time></trkpt><trkpt lat="37.90469321823681" lon="15.125674044932168"><ele>336.0</ele><time>2026-04-12T10:34:33.799Z</time></trkpt><trkpt lat="37.90470960269796" lon="15.125875132839965"><ele>334.0</ele><time>2026-04-12T10:34:34.799Z</time></trkpt><trkpt lat="37.904754190088816" lon="15.126041281766954"><ele>332.0</ele><time>2026-04-12T10:34:35.799Z</time></trkpt><trkpt lat="37.904820119320966" lon="15.126258768656642"><ele>332.0</ele><time>2026-04-12T10:34:36.799Z</time></trkpt><trkpt lat="37.90487558487625" lon="15.126447828534715"><ele>332.0</ele><time>2026-04-12T10:34:37.799Z</time></trkpt><trkpt lat="37.904921969385754" lon="15.126673169097412"><ele>332.0</ele><time>2026-04-12T10:34:38.799Z</time></trkpt><trkpt lat="37.90491885677414" lon="15.126953534939098"><ele>332.0</ele><time>2026-04-12T10:34:39.799Z</time></trkpt><trkpt lat="37.904909200963544" lon="15.127200415918855"><ele>332.0</ele><time>2026-04-12T10:34:40.799Z</time></trkpt><trkpt lat="37.90487864630911" lon="15.127433255958481"><ele>332.0</ele><time>2026-04-12T10:34:41.799Z</time></trkpt><trkpt lat="37.90484412836545" lon="15.127649300168141"><ele>332.0</ele><time>2026-04-12T10:34:42.799Z</time></trkpt><trkpt lat="37.904783838831094" lon="15.127854509648689"><ele>332.0</ele><time>2026-04-12T10:34:43.799Z</time></trkpt><trkpt lat="37.90468676238714" lon="15.128047238294071"><ele>332.0</ele><time>2026-04-12T10:34:44.799Z</time></trkpt><trkpt lat="37.90459966210064" lon="15.12824052910347"><ele>329.6666666666667</ele><time>2026-04-12T10:34:45.799Z</time></trkpt><trkpt lat="37.90450970324473" lon="15.12842120588955"><ele>327.3333333333333</ele><time>2026-04-12T10:34:46.799Z</time></trkpt><trkpt lat="37.904415102398296" lon="15.128579578615122"><ele>325.0</ele><time>2026-04-12T10:34:47.799Z</time></trkpt><trkpt lat="37.90434930880544" lon="15.128779828678475"><ele>325.0</ele><time>2026-04-12T10:34:48.799Z</time></trkpt><trkpt lat="37.904310224198525" lon="15.129013254231927"><ele>325.0</ele><time>2026-04-12T10:34:49.799Z</time></trkpt><trkpt lat="37.904272298482674" lon="15.129243387838244"><ele>325.0</ele><time>2026-04-12T10:34:50.798Z</time></trkpt><trkpt lat="37.90422409177442" lon="15.129469589737125"><ele>326.3333333333333</ele><time>2026-04-12T10:34:51.798Z</time></trkpt><trkpt lat="37.904175731780285" lon="15.129694461718069"><ele>327.6666666666667</ele><time>2026-04-12T10:34:52.798Z</time></trkpt><trkpt lat="37.904126533018754" lon="15.129894450324755"><ele>329.0</ele><time>2026-04-12T10:34:53.798Z</time></trkpt><trkpt lat="37.90407488648079" lon="15.130079584875057"><ele>330.33333333333337</ele><time>2026-04-12T10:34:54.798Z</time></trkpt><trkpt lat="37.904021211522185" lon="15.130262477653094"><ele>331.6666666666667</ele><time>2026-04-12T10:34:55.798Z</time></trkpt><trkpt lat="37.903952466368835" lon="15.130433868395405"><ele>333.0</ele><time>2026-04-12T10:34:56.798Z</time></trkpt><trkpt lat="37.903852851536755" lon="15.130577816181185"><ele>332.75</ele><time>2026-04-12T10:34:57.798Z</time></trkpt><trkpt lat="37.90375700469909" lon="15.130729093200648"><ele>332.5</ele><time>2026-04-12T10:34:58.798Z</time></trkpt><trkpt lat="37.90367065253992" lon="15.130870128995307"><ele>332.25</ele><time>2026-04-12T10:34:59.798Z</time></trkpt><trkpt lat="37.90359080884105" lon="15.130997898612069"><ele>332.0</ele><time>2026-04-12T10:35:00.798Z</time></trkpt><trkpt lat="37.90351412623314" lon="15.131115471709906"><ele>332.0</ele><time>2026-04-12T10:35:01.798Z</time></trkpt><trkpt lat="37.903436460414504" lon="15.131218095386176"><ele>332.0</ele><time>2026-04-12T10:35:02.798Z</time></trkpt><trkpt lat="37.90334886975653" lon="15.131320174067776"><ele>332.0</ele><time>2026-04-12T10:35:03.798Z</time></trkpt><trkpt lat="37.903248748744424" lon="15.131419843622078"><ele>332.0</ele><time>2026-04-12T10:35:04.801Z</time></trkpt><trkpt lat="37.90313307806211" lon="15.131508785677358"><ele>332.0</ele><time>2026-04-12T10:35:05.801Z</time></trkpt><trkpt lat="37.90301063673844" lon="15.131596343656799"><ele>332.0</ele><time>2026-04-12T10:35:06.801Z</time></trkpt><trkpt lat="37.902880111474545" lon="15.131684772223595"><ele>332.0</ele><time>2026-04-12T10:35:07.801Z</time></trkpt><trkpt lat="37.90275313882092" lon="15.13176828566478"><ele>332.0</ele><time>2026-04-12T10:35:08.801Z</time></trkpt><trkpt lat="37.90264418994992" lon="15.131866119521224"><ele>332.75</ele><time>2026-04-12T10:35:09.8Z</time></trkpt><trkpt lat="37.902527133358944" lon="15.131952899696508"><ele>333.5</ele><time>2026-04-12T10:35:10.8Z</time></trkpt><trkpt lat="37.902423135279186" lon="15.132052524386442"><ele>334.25</ele><time>2026-04-12T10:35:11.801Z</time></trkpt><trkpt lat="37.90232714784137" lon="15.132163713515723"><ele>335.0</ele><time>2026-04-12T10:35:12.801Z</time></trkpt><trkpt lat="37.90223624707499" lon="15.132272705060265"><ele>335.0</ele><time>2026-04-12T10:35:13.801Z</time></trkpt><trkpt lat="37.90214869719094" lon="15.132378414382982"><ele>335.0</ele><time>2026-04-12T10:35:14.801Z</time></trkpt><trkpt lat="37.90207044881877" lon="15.132479591559106"><ele>335.0</ele><time>2026-04-12T10:35:15.801Z</time></trkpt><trkpt lat="37.90199586237317" lon="15.132548535017019"><ele>335.0</ele><time>2026-04-12T10:35:16.801Z</time></trkpt><trkpt lat="37.90195875053164" lon="15.13266101986559"><ele>335.0</ele><time>2026-04-12T10:35:17.801Z</time></trkpt><trkpt lat="37.901955489136526" lon="15.132787569434255"><ele>334.6666666666667</ele><time>2026-04-12T10:35:18.801Z</time></trkpt><trkpt lat="37.901923174346116" lon="15.132888253414174"><ele>334.33333333333337</ele><time>2026-04-12T10:35:19.801Z</time></trkpt><trkpt lat="37.90189683503276" lon="15.132998427139835"><ele>334.0</ele><time>2026-04-12T10:35:20.801Z</time></trkpt><trkpt lat="37.90187092763099" lon="15.133106794234646"><ele>333.6666666666667</ele><time>2026-04-12T10:35:21.801Z</time></trkpt><trkpt lat="37.901845348519515" lon="15.13321378814497"><ele>333.3333333333333</ele><time>2026-04-12T10:35:22.801Z</time></trkpt><trkpt lat="37.901819198456344" lon="15.133317213649871"><ele>333.0</ele><time>2026-04-12T10:35:23.801Z</time></trkpt><trkpt lat="37.901797375239894" lon="15.133404933015942"><ele>333.1666666666667</ele><time>2026-04-12T10:35:24.8Z</time></trkpt><trkpt lat="37.9017760979981" lon="15.133488482125399"><ele>333.3333333333333</ele><time>2026-04-12T10:35:25.8Z</time></trkpt><trkpt lat="37.90176172645853" lon="15.133582296547658"><ele>333.5</ele><time>2026-04-12T10:35:26.8Z</time></trkpt><trkpt lat="37.901732889997206" lon="15.133658547875983"><ele>333.66666666666663</ele><time>2026-04-12T10:35:27.8Z</time></trkpt><trkpt lat="37.90169706151364" lon="15.133809115753023"><ele>333.8333333333333</ele><time>2026-04-12T10:35:29.8Z</time></trkpt><trkpt lat="37.90167693723588" lon="15.133893352945075"><ele>334.0</ele><time>2026-04-12T10:35:30.8Z</time></trkpt><trkpt lat="37.90166105732278" lon="15.13398567181035"><ele>334.0</ele><time>2026-04-12T10:35:31.8Z</time></trkpt><trkpt lat="37.90165076785896" lon="15.134075627404247"><ele>334.0</ele><time>2026-04-12T10:35:32.8Z</time></trkpt><trkpt lat="37.901639716579396" lon="15.134173699309207"><ele>334.0</ele><time>2026-04-12T10:35:33.8Z</time></trkpt><trkpt lat="37.90162596765094" lon="15.134288091713403"><ele>334.0</ele><time>2026-04-12T10:35:34.8Z</time></trkpt><trkpt lat="37.9016199783712" lon="15.134432098885583"><ele>334.0</ele><time>2026-04-12T10:35:35.8Z</time></trkpt><trkpt lat="37.90159534972564" lon="15.134568123021635"><ele>334.0</ele><time>2026-04-12T10:35:36.8Z</time></trkpt><trkpt lat="37.901576049801285" lon="15.134711601849553"><ele>334.0</ele><time>2026-04-12T10:35:37.8Z</time></trkpt><trkpt lat="37.901534402201335" lon="15.13486196766979"><ele>334.0</ele><time>2026-04-12T10:35:38.8Z</time></trkpt><trkpt lat="37.9015200531148" lon="15.134989921957441"><ele>334.0</ele><time>2026-04-12T10:35:39.8Z</time></trkpt><trkpt lat="37.90152757956791" lon="15.135071533973342"><ele>334.0</ele><time>2026-04-12T10:35:40.8Z</time></trkpt><trkpt lat="37.90150193089267" lon="15.135153250605114"><ele>334.0</ele><time>2026-04-12T10:35:42.8Z</time></trkpt><trkpt lat="37.901487778101625" lon="15.135295054844363"><ele>334.0</ele><time>2026-04-12T10:35:44.8Z</time></trkpt><trkpt lat="37.90147369287912" lon="15.1354365446986"><ele>334.0</ele><time>2026-04-12T10:35:46.8Z</time></trkpt><trkpt lat="37.90146133977346" lon="15.135572072761445"><ele>334.0</ele><time>2026-04-12T10:35:48.8Z</time></trkpt><trkpt lat="37.90145028102724" lon="15.135691108502076"><ele>334.0</ele><time>2026-04-12T10:35:50.799Z</time></trkpt><trkpt lat="37.90144423338526" lon="15.135816074972261"><ele>334.0</ele><time>2026-04-12T10:35:52.799Z</time></trkpt><trkpt lat="37.90144423338756" lon="15.135968776746815"><ele>334.0</ele><time>2026-04-12T10:35:54.799Z</time></trkpt><trkpt lat="37.901452646806966" lon="15.13606580423221"><ele>334.0</ele><time>2026-04-12T10:35:55.799Z</time></trkpt><trkpt lat="37.901463442486886" lon="15.136159051405484"><ele>334.0</ele><time>2026-04-12T10:35:56.799Z</time></trkpt><trkpt lat="37.90151337767749" lon="15.136256369291349"><ele>334.0</ele><time>2026-04-12T10:35:57.799Z</time></trkpt><trkpt lat="37.90155000954937" lon="15.136358690432328"><ele>334.0</ele><time>2026-04-12T10:35:58.799Z</time></trkpt><trkpt lat="37.90159224484128" lon="15.136445015687034"><ele>334.0</ele><time>2026-04-12T10:35:59.799Z</time></trkpt><trkpt lat="37.901627755061604" lon="15.136534737912175"><ele>334.0</ele><time>2026-04-12T10:36:00.799Z</time></trkpt><trkpt lat="37.90162332102949" lon="15.136652981268686"><ele>334.0</ele><time>2026-04-12T10:36:01.799Z</time></trkpt><trkpt lat="37.901660895024484" lon="15.136763592138012"><ele>334.0</ele><time>2026-04-12T10:36:02.799Z</time></trkpt><trkpt lat="37.9016884308582" lon="15.136871903825952"><ele>334.0</ele><time>2026-04-12T10:36:03.799Z</time></trkpt><trkpt lat="37.901700890496016" lon="15.13698028578656"><ele>333.0</ele><time>2026-04-12T10:36:04.799Z</time></trkpt><trkpt lat="37.901695815251976" lon="15.137105950069932"><ele>332.0</ele><time>2026-04-12T10:36:05.799Z</time></trkpt><trkpt lat="37.90166118204818" lon="15.137230576859267"><ele>331.0</ele><time>2026-04-12T10:36:06.799Z</time></trkpt><trkpt lat="37.901600752079" lon="15.137340749905922"><ele>330.0</ele><time>2026-04-12T10:36:07.799Z</time></trkpt><trkpt lat="37.90152948370596" lon="15.137414236572388"><ele>329.0</ele><time>2026-04-12T10:36:08.799Z</time></trkpt><trkpt lat="37.90145678171311" lon="15.137490293620592"><ele>326.75</ele><time>2026-04-12T10:36:09.799Z</time></trkpt><trkpt lat="37.901373214930295" lon="15.137583680517448"><ele>324.5</ele><time>2026-04-12T10:36:10.799Z</time></trkpt><trkpt lat="37.901307919093554" lon="15.137701311386028"><ele>322.25</ele><time>2026-04-12T10:36:11.799Z</time></trkpt><trkpt lat="37.90126632764163" lon="15.137869980827404"><ele>320.0</ele><time>2026-04-12T10:36:12.799Z</time></trkpt><trkpt lat="37.90123908814919" lon="15.138063854678434"><ele>318.6666666666667</ele><time>2026-04-12T10:36:13.799Z</time></trkpt><trkpt lat="37.901205704445694" lon="15.138289953515276"><ele>317.3333333333333</ele><time>2026-04-12T10:36:14.799Z</time></trkpt><trkpt lat="37.9011724378947" lon="15.138508548622248"><ele>316.0</ele><time>2026-04-12T10:36:15.799Z</time></trkpt><trkpt lat="37.901140045247175" lon="15.13871748409654"><ele>316.0</ele><time>2026-04-12T10:36:16.798Z</time></trkpt><trkpt lat="37.901109846153105" lon="15.138910245395683"><ele>316.0</ele><time>2026-04-12T10:36:17.798Z</time></trkpt><trkpt lat="37.90107994334465" lon="15.13910042937764"><ele>316.0</ele><time>2026-04-12T10:36:18.798Z</time></trkpt><trkpt lat="37.9010516284057" lon="15.139281607382012"><ele>314.75</ele><time>2026-04-12T10:36:19.798Z</time></trkpt><trkpt lat="37.901027635288806" lon="15.139451990660637"><ele>313.5</ele><time>2026-04-12T10:36:20.798Z</time></trkpt><trkpt lat="37.901041418923796" lon="15.139607226669552"><ele>312.25</ele><time>2026-04-12T10:36:21.798Z</time></trkpt><trkpt lat="37.90105985774729" lon="15.139751351784161"><ele>311.0</ele><time>2026-04-12T10:36:22.798Z</time></trkpt><trkpt lat="37.90110827588814" lon="15.139901422749105"><ele>309.0</ele><time>2026-04-12T10:36:23.798Z</time></trkpt><trkpt lat="37.9011923616424" lon="15.14008922035588"><ele>307.0</ele><time>2026-04-12T10:36:24.798Z</time></trkpt><trkpt lat="37.90128590231385" lon="15.14031679482835"><ele>305.0</ele><time>2026-04-12T10:36:25.798Z</time></trkpt><trkpt lat="37.90138526760627" lon="15.140521874428256"><ele>305.0</ele><time>2026-04-12T10:36:26.798Z</time></trkpt><trkpt lat="37.90147437369932" lon="15.140705780107755"><ele>305.0</ele><time>2026-04-12T10:36:27.798Z</time></trkpt><trkpt lat="37.90156379975703" lon="15.140889922866155"><ele>305.0</ele><time>2026-04-12T10:36:28.798Z</time></trkpt><trkpt lat="37.90166288363294" lon="15.141093817396097"><ele>304.33333333333337</ele><time>2026-04-12T10:36:29.798Z</time></trkpt><trkpt lat="37.901755694553756" lon="15.141284803452459"><ele>303.6666666666667</ele><time>2026-04-12T10:36:30.798Z</time></trkpt><trkpt lat="37.90184009670828" lon="15.141459353241174"><ele>303.0</ele><time>2026-04-12T10:36:31.798Z</time></trkpt><trkpt lat="37.901918674016194" lon="15.141622014462751"><ele>303.0</ele><time>2026-04-12T10:36:32.798Z</time></trkpt><trkpt lat="37.901991748171426" lon="15.1417715462328"><ele>303.0</ele><time>2026-04-12T10:36:33.798Z</time></trkpt><trkpt lat="37.902064679678354" lon="15.14192118996589"><ele>303.0</ele><time>2026-04-12T10:36:34.798Z</time></trkpt><trkpt lat="37.9021300104456" lon="15.14205522676513"><ele>303.0</ele><time>2026-04-12T10:36:35.798Z</time></trkpt><trkpt lat="37.90219376930792" lon="15.142188312450353"><ele>303.0</ele><time>2026-04-12T10:36:36.798Z</time></trkpt><trkpt lat="37.902253320996216" lon="15.142314348020985"><ele>303.0</ele><time>2026-04-12T10:36:37.798Z</time></trkpt><trkpt lat="37.90230206339272" lon="15.142417506728782"><ele>303.0</ele><time>2026-04-12T10:36:38.798Z</time></trkpt><trkpt lat="37.90232294519122" lon="15.14253433618086"><ele>303.0</ele><time>2026-04-12T10:36:40.798Z</time></trkpt><trkpt lat="37.902091168028036" lon="15.142670670523025"><ele>300.6666666666667</ele><time>2026-04-12T10:36:42.797Z</time></trkpt><trkpt lat="37.90193319383614" lon="15.142797224795965"><ele>298.33333333333337</ele><time>2026-04-12T10:36:43.797Z</time></trkpt><trkpt lat="37.90175937366473" lon="15.142934681466066"><ele>296.0</ele><time>2026-04-12T10:36:44.797Z</time></trkpt><trkpt lat="37.9016038260796" lon="15.143057865509295"><ele>296.0</ele><time>2026-04-12T10:36:45.797Z</time></trkpt><trkpt lat="37.90145763453436" lon="15.14317560759527"><ele>296.0</ele><time>2026-04-12T10:36:46.797Z</time></trkpt><trkpt lat="37.90130438891972" lon="15.143297939289047"><ele>296.0</ele><time>2026-04-12T10:36:47.797Z</time></trkpt><trkpt lat="37.901147409942375" lon="15.143444485701789"><ele>293.6666666666667</ele><time>2026-04-12T10:36:48.797Z</time></trkpt><trkpt lat="37.90097542549245" lon="15.14358011291767"><ele>291.3333333333333</ele><time>2026-04-12T10:36:49.797Z</time></trkpt><trkpt lat="37.90081139876104" lon="15.14370583666285"><ele>289.0</ele><time>2026-04-12T10:36:50.797Z</time></trkpt><trkpt lat="37.900652189337166" lon="15.143834277831049"><ele>289.0</ele><time>2026-04-12T10:36:51.797Z</time></trkpt><trkpt lat="37.900491672942444" lon="15.143959611065862"><ele>289.0</ele><time>2026-04-12T10:36:52.797Z</time></trkpt><trkpt lat="37.90033540915908" lon="15.144083352547456"><ele>289.0</ele><time>2026-04-12T10:36:53.797Z</time></trkpt><trkpt lat="37.900174046707825" lon="15.144211774536068"><ele>287.3333333333333</ele><time>2026-04-12T10:36:54.797Z</time></trkpt><trkpt lat="37.90001815504017" lon="15.144332935794415"><ele>285.6666666666667</ele><time>2026-04-12T10:36:55.797Z</time></trkpt><trkpt lat="37.89986594932197" lon="15.14445103899121"><ele>284.0</ele><time>2026-04-12T10:36:56.797Z</time></trkpt><trkpt lat="37.89972333355215" lon="15.144567217450989"><ele>284.0</ele><time>2026-04-12T10:36:57.797Z</time></trkpt><trkpt lat="37.89957593297172" lon="15.144697834514075"><ele>284.0</ele><time>2026-04-12T10:36:58.797Z</time></trkpt><trkpt lat="37.8994411332904" lon="15.144847998945938"><ele>284.0</ele><time>2026-04-12T10:36:59.797Z</time></trkpt><trkpt lat="37.89932265354143" lon="15.14502740033959"><ele>283.33333333333337</ele><time>2026-04-12T10:37:00.797Z</time></trkpt><trkpt lat="37.899212708060695" lon="15.145230988242911"><ele>282.6666666666667</ele><time>2026-04-12T10:37:01.797Z</time></trkpt><trkpt lat="37.899119812626985" lon="15.145448436321175"><ele>282.0</ele><time>2026-04-12T10:37:02.797Z</time></trkpt><trkpt lat="37.89904837358166" lon="15.145679014210756"><ele>281.3333333333333</ele><time>2026-04-12T10:37:03.797Z</time></trkpt><trkpt lat="37.89897832525211" lon="15.145904534655553"><ele>280.66666666666663</ele><time>2026-04-12T10:37:04.797Z</time></trkpt><trkpt lat="37.89890308962623" lon="15.146129479938413"><ele>280.0</ele><time>2026-04-12T10:37:05.797Z</time></trkpt><trkpt lat="37.89883089903765" lon="15.14634776214924"><ele>279.66666666666663</ele><time>2026-04-12T10:37:06.797Z</time></trkpt><trkpt lat="37.898759858800936" lon="15.14656101084685"><ele>279.3333333333333</ele><time>2026-04-12T10:37:07.796Z</time></trkpt><trkpt lat="37.89868860650809" lon="15.146772810522904"><ele>279.0</ele><time>2026-04-12T10:37:08.796Z</time></trkpt><trkpt lat="37.89861649022202" lon="15.146982402427387"><ele>279.0</ele><time>2026-04-12T10:37:09.796Z</time></trkpt><trkpt lat="37.89854478644527" lon="15.147197451899663"><ele>279.0</ele><time>2026-04-12T10:37:10.799Z</time></trkpt><trkpt lat="37.89847653382198" lon="15.147400306128961"><ele>279.0</ele><time>2026-04-12T10:37:11.8Z</time></trkpt><trkpt lat="37.89840683371948" lon="15.147596427364556"><ele>278.0</ele><time>2026-04-12T10:37:12.8Z</time></trkpt><trkpt lat="37.89832731167327" lon="15.14779632350584"><ele>277.0</ele><time>2026-04-12T10:37:13.799Z</time></trkpt><trkpt lat="37.89824268575615" lon="15.147992217899596"><ele>276.0</ele><time>2026-04-12T10:37:14.799Z</time></trkpt><trkpt lat="37.898143217269606" lon="15.14818414397391"><ele>275.3333333333333</ele><time>2026-04-12T10:37:15.799Z</time></trkpt><trkpt lat="37.898030641272285" lon="15.148374167570626"><ele>274.66666666666663</ele><time>2026-04-12T10:37:16.799Z</time></trkpt><trkpt lat="37.897910027229784" lon="15.1485537980024"><ele>274.0</ele><time>2026-04-12T10:37:17.799Z</time></trkpt><trkpt lat="37.89778671564355" lon="15.148721320555632"><ele>274.0</ele><time>2026-04-12T10:37:18.799Z</time></trkpt><trkpt lat="37.89766014632941" lon="15.148896579612998"><ele>274.0</ele><time>2026-04-12T10:37:19.799Z</time></trkpt><trkpt lat="37.897537878127665" lon="15.149065702734351"><ele>274.0</ele><time>2026-04-12T10:37:20.799Z</time></trkpt><trkpt lat="37.89742048757051" lon="15.149230608849102"><ele>272.3333333333333</ele><time>2026-04-12T10:37:21.799Z</time></trkpt><trkpt lat="37.89730814623566" lon="15.149388211746826"><ele>270.6666666666667</ele><time>2026-04-12T10:37:22.799Z</time></trkpt><trkpt lat="37.89719721495121" lon="15.149558968568812"><ele>269.0</ele><time>2026-04-12T10:37:23.799Z</time></trkpt><trkpt lat="37.89709962128591" lon="15.14972915244811"><ele>268.0</ele><time>2026-04-12T10:37:24.799Z</time></trkpt><trkpt lat="37.89701124357295" lon="15.14990358644355"><ele>267.0</ele><time>2026-04-12T10:37:25.799Z</time></trkpt><trkpt lat="37.896925344918685" lon="15.150096336206241"><ele>266.0</ele><time>2026-04-12T10:37:26.799Z</time></trkpt><trkpt lat="37.89683982040401" lon="15.150317252380244"><ele>266.0</ele><time>2026-04-12T10:37:27.799Z</time></trkpt><trkpt lat="37.89674954952969" lon="15.150556654990991"><ele>266.0</ele><time>2026-04-12T10:37:28.799Z</time></trkpt><trkpt lat="37.89666073147614" lon="15.150793526779212"><ele>266.0</ele><time>2026-04-12T10:37:29.799Z</time></trkpt><trkpt lat="37.89657701703698" lon="15.151021305917071"><ele>265.33333333333337</ele><time>2026-04-12T10:37:30.799Z</time></trkpt><trkpt lat="37.89647953180282" lon="15.151243234558956"><ele>264.6666666666667</ele><time>2026-04-12T10:37:31.799Z</time></trkpt><trkpt lat="37.8963927295342" lon="15.151475355914615"><ele>264.0</ele><time>2026-04-12T10:37:32.799Z</time></trkpt><trkpt lat="37.89630505933737" lon="15.151709913938863"><ele>263.6666666666667</ele><time>2026-04-12T10:37:33.799Z</time></trkpt><trkpt lat="37.896226436325186" lon="15.15194789704829"><ele>263.33333333333337</ele><time>2026-04-12T10:37:34.798Z</time></trkpt><trkpt lat="37.8961295033661" lon="15.152181973867677"><ele>263.0</ele><time>2026-04-12T10:37:35.798Z</time></trkpt><trkpt lat="37.896038092831645" lon="15.15241720150258"><ele>263.0</ele><time>2026-04-12T10:37:36.798Z</time></trkpt><trkpt lat="37.89595057045344" lon="15.152652481515727"><ele>263.0</ele><time>2026-04-12T10:37:37.798Z</time></trkpt><trkpt lat="37.895863454906745" lon="15.15289295181619"><ele>263.0</ele><time>2026-04-12T10:37:38.798Z</time></trkpt><trkpt lat="37.89577300984492" lon="15.153142102712753"><ele>261.33333333333337</ele><time>2026-04-12T10:37:39.798Z</time></trkpt><trkpt lat="37.89568049459066" lon="15.15338758857773"><ele>259.6666666666667</ele><time>2026-04-12T10:37:40.798Z</time></trkpt><trkpt lat="37.89557773780624" lon="15.153624593814342"><ele>258.0</ele><time>2026-04-12T10:37:41.798Z</time></trkpt><trkpt lat="37.895444627289514" lon="15.15383731070749"><ele>257.6666666666667</ele><time>2026-04-12T10:37:42.798Z</time></trkpt><trkpt lat="37.895310523087495" lon="15.154040719364863"><ele>257.33333333333337</ele><time>2026-04-12T10:37:43.798Z</time></trkpt><trkpt lat="37.895173229073535" lon="15.154238963963934"><ele>257.0</ele><time>2026-04-12T10:37:44.798Z</time></trkpt><trkpt lat="37.89504099094648" lon="15.154454388141868"><ele>257.0</ele><time>2026-04-12T10:37:45.798Z</time></trkpt><trkpt lat="37.89489326779037" lon="15.154664160644156"><ele>257.0</ele><time>2026-04-12T10:37:46.798Z</time></trkpt><trkpt lat="37.89474657524561" lon="15.154876144863497"><ele>257.0</ele><time>2026-04-12T10:37:47.798Z</time></trkpt><trkpt lat="37.89460215050721" lon="15.15508535611549"><ele>257.0</ele><time>2026-04-12T10:37:48.798Z</time></trkpt><trkpt lat="37.894463925508234" lon="15.155289029758974"><ele>257.0</ele><time>2026-04-12T10:37:49.798Z</time></trkpt><trkpt lat="37.89431360885026" lon="15.15547358078521"><ele>257.0</ele><time>2026-04-12T10:37:50.798Z</time></trkpt><trkpt lat="37.89417313422376" lon="15.155675595460115"><ele>256.6666666666667</ele><time>2026-04-12T10:37:51.798Z</time></trkpt><trkpt lat="37.89404368638277" lon="15.155893211031294"><ele>256.3333333333333</ele><time>2026-04-12T10:37:52.798Z</time></trkpt><trkpt lat="37.893893796680025" lon="15.156079161787325"><ele>256.0</ele><time>2026-04-12T10:37:53.798Z</time></trkpt><trkpt lat="37.89376774168475" lon="15.156291896895697"><ele>256.0</ele><time>2026-04-12T10:37:54.798Z</time></trkpt><trkpt lat="37.89361804878896" lon="15.156493293513252"><ele>256.0</ele><time>2026-04-12T10:37:55.798Z</time></trkpt><trkpt lat="37.893469678261766" lon="15.156696046292474"><ele>256.0</ele><time>2026-04-12T10:37:56.798Z</time></trkpt><trkpt lat="37.8933306554121" lon="15.156897770542823"><ele>253.33333333333331</ele><time>2026-04-12T10:37:57.798Z</time></trkpt><trkpt lat="37.89319942158796" lon="15.15708907112735"><ele>250.66666666666669</ele><time>2026-04-12T10:37:58.798Z</time></trkpt><trkpt lat="37.89308222647902" lon="15.157281589899672"><ele>248.0</ele><time>2026-04-12T10:37:59.798Z</time></trkpt><trkpt lat="37.892974094642796" lon="15.157485261520268"><ele>246.66666666666669</ele><time>2026-04-12T10:38:00.797Z</time></trkpt><trkpt lat="37.892892631172245" lon="15.157724941416012"><ele>245.33333333333331</ele><time>2026-04-12T10:38:01.797Z</time></trkpt><trkpt lat="37.892845001670956" lon="15.158000473023778"><ele>244.0</ele><time>2026-04-12T10:38:02.797Z</time></trkpt><trkpt lat="37.892814872062225" lon="15.15828554228058"><ele>242.0</ele><time>2026-04-12T10:38:03.797Z</time></trkpt><trkpt lat="37.89277826027114" lon="15.158569695640356"><ele>240.0</ele><time>2026-04-12T10:38:04.797Z</time></trkpt><trkpt lat="37.89273836874316" lon="15.158852542573502"><ele>237.0</ele><time>2026-04-12T10:38:05.797Z</time></trkpt><trkpt lat="37.89269339402347" lon="15.159139401397919"><ele>234.0</ele><time>2026-04-12T10:38:06.797Z</time></trkpt><trkpt lat="37.892652323157144" lon="15.159419250685243"><ele>234.0</ele><time>2026-04-12T10:38:07.797Z</time></trkpt><trkpt lat="37.89260612953943" lon="15.159689147898016"><ele>234.0</ele><time>2026-04-12T10:38:08.797Z</time></trkpt><trkpt lat="37.89256672216941" lon="15.159943395031965"><ele>234.0</ele><time>2026-04-12T10:38:09.797Z</time></trkpt><trkpt lat="37.89253039763712" lon="15.160192226840186"><ele>233.33333333333331</ele><time>2026-04-12T10:38:10.797Z</time></trkpt><trkpt lat="37.892491335112894" lon="15.16044535601415"><ele>232.66666666666666</ele><time>2026-04-12T10:38:11.797Z</time></trkpt><trkpt lat="37.892449210248245" lon="15.1607052300841"><ele>232.0</ele><time>2026-04-12T10:38:12.797Z</time></trkpt><trkpt lat="37.89241021627984" lon="15.160957536155372"><ele>232.0</ele><time>2026-04-12T10:38:13.797Z</time></trkpt><trkpt lat="37.89236888576812" lon="15.16120901374824"><ele>232.0</ele><time>2026-04-12T10:38:14.797Z</time></trkpt><trkpt lat="37.89232800436103" lon="15.161460746719838"><ele>232.0</ele><time>2026-04-12T10:38:15.797Z</time></trkpt><trkpt lat="37.892288734862674" lon="15.16171255807395"><ele>233.0</ele><time>2026-04-12T10:38:16.797Z</time></trkpt><trkpt lat="37.89224715736897" lon="15.161962700215335"><ele>234.0</ele><time>2026-04-12T10:38:17.797Z</time></trkpt><trkpt lat="37.89219692884313" lon="15.162196100841317"><ele>235.0</ele><time>2026-04-12T10:38:18.797Z</time></trkpt><trkpt lat="37.89212738855037" lon="15.16241874893684"><ele>236.0</ele><time>2026-04-12T10:38:19.797Z</time></trkpt><trkpt lat="37.89202783500443" lon="15.162612044910873"><ele>237.0</ele><time>2026-04-12T10:38:20.797Z</time></trkpt><trkpt lat="37.891877141403846" lon="15.162751101314008"><ele>238.0</ele><time>2026-04-12T10:38:21.797Z</time></trkpt><trkpt lat="37.891711332909885" lon="15.162854583884789"><ele>238.0</ele><time>2026-04-12T10:38:22.797Z</time></trkpt><trkpt lat="37.89153565746196" lon="15.16294230860727"><ele>238.0</ele><time>2026-04-12T10:38:23.797Z</time></trkpt><trkpt lat="37.8913623012774" lon="15.163026911374768"><ele>238.0</ele><time>2026-04-12T10:38:24.797Z</time></trkpt><trkpt lat="37.89118706850635" lon="15.163121247626147"><ele>238.0</ele><time>2026-04-12T10:38:25.796Z</time></trkpt><trkpt lat="37.89100362586612" lon="15.163225432260521"><ele>238.0</ele><time>2026-04-12T10:38:26.796Z</time></trkpt><trkpt lat="37.89080996391773" lon="15.163339557299006"><ele>238.0</ele><time>2026-04-12T10:38:27.796Z</time></trkpt><trkpt lat="37.89061926760581" lon="15.163448676055141"><ele>238.0</ele><time>2026-04-12T10:38:28.796Z</time></trkpt><trkpt lat="37.89043809960387" lon="15.16355502729584"><ele>238.0</ele><time>2026-04-12T10:38:29.796Z</time></trkpt><trkpt lat="37.890264522407136" lon="15.16365803439616"><ele>238.0</ele><time>2026-04-12T10:38:30.796Z</time></trkpt><trkpt lat="37.890084444492445" lon="15.163760009794412"><ele>236.66666666666666</ele><time>2026-04-12T10:38:31.796Z</time></trkpt><trkpt lat="37.8898995921761" lon="15.163862536072596"><ele>235.33333333333331</ele><time>2026-04-12T10:38:32.796Z</time></trkpt><trkpt lat="37.889721822375705" lon="15.163955204369156"><ele>234.0</ele><time>2026-04-12T10:38:33.796Z</time></trkpt><trkpt lat="37.88955084683097" lon="15.164053912260236"><ele>234.0</ele><time>2026-04-12T10:38:34.796Z</time></trkpt><trkpt lat="37.88939011673394" lon="15.164165154502271"><ele>234.0</ele><time>2026-04-12T10:38:35.796Z</time></trkpt><trkpt lat="37.88923423979622" lon="15.164287319194015"><ele>234.0</ele><time>2026-04-12T10:38:36.796Z</time></trkpt><trkpt lat="37.889087013744934" lon="15.164450554852719"><ele>235.0</ele><time>2026-04-12T10:38:37.796Z</time></trkpt><trkpt lat="37.88895570216823" lon="15.164639999734554"><ele>236.0</ele><time>2026-04-12T10:38:38.796Z</time></trkpt><trkpt lat="37.88884297902967" lon="15.164811587028666"><ele>237.0</ele><time>2026-04-12T10:38:39.796Z</time></trkpt><trkpt lat="37.888726423670235" lon="15.164974658492445"><ele>237.0</ele><time>2026-04-12T10:38:40.796Z</time></trkpt><trkpt lat="37.888616415200595" lon="15.16514157372349"><ele>237.0</ele><time>2026-04-12T10:38:41.796Z</time></trkpt><trkpt lat="37.88851516842962" lon="15.165314293300174"><ele>237.0</ele><time>2026-04-12T10:38:42.796Z</time></trkpt><trkpt lat="37.88840708766781" lon="15.165469642371145"><ele>235.66666666666669</ele><time>2026-04-12T10:38:43.796Z</time></trkpt><trkpt lat="37.88829442582001" lon="15.165623363452656"><ele>234.33333333333334</ele><time>2026-04-12T10:38:44.796Z</time></trkpt><trkpt lat="37.88818268239299" lon="15.165785435360906"><ele>233.0</ele><time>2026-04-12T10:38:45.796Z</time></trkpt><trkpt lat="37.88808380990863" lon="15.165950019040523"><ele>233.0</ele><time>2026-04-12T10:38:46.796Z</time></trkpt><trkpt lat="37.88797795437817" lon="15.16610425822245"><ele>233.0</ele><time>2026-04-12T10:38:47.796Z</time></trkpt><trkpt lat="37.88786970219783" lon="15.166256808576867"><ele>233.0</ele><time>2026-04-12T10:38:48.796Z</time></trkpt><trkpt lat="37.88776677664911" lon="15.16641294135666"><ele>235.0</ele><time>2026-04-12T10:38:49.796Z</time></trkpt><trkpt lat="37.88766751551535" lon="15.166573937140361"><ele>237.0</ele><time>2026-04-12T10:38:50.796Z</time></trkpt><trkpt lat="37.88755702669556" lon="15.166722063613111"><ele>239.0</ele><time>2026-04-12T10:38:51.795Z</time></trkpt><trkpt lat="37.887451122771346" lon="15.166868941918196"><ele>235.0</ele><time>2026-04-12T10:38:52.795Z</time></trkpt><trkpt lat="37.88735726814934" lon="15.167013743778453"><ele>231.0</ele><time>2026-04-12T10:38:53.795Z</time></trkpt><trkpt lat="37.887261166651136" lon="15.167163895685443"><ele>227.0</ele><time>2026-04-12T10:38:54.795Z</time></trkpt><trkpt lat="37.88715553222173" lon="15.167311942968206"><ele>229.0</ele><time>2026-04-12T10:38:55.795Z</time></trkpt><trkpt lat="37.88704049653247" lon="15.167465569041182"><ele>231.0</ele><time>2026-04-12T10:38:56.795Z</time></trkpt><trkpt lat="37.8869272164052" lon="15.167629158033895"><ele>233.0</ele><time>2026-04-12T10:38:57.795Z</time></trkpt><trkpt lat="37.88679567824786" lon="15.16779643941563"><ele>231.66666666666669</ele><time>2026-04-12T10:38:58.795Z</time></trkpt><trkpt lat="37.88665911237736" lon="15.16797945378597"><ele>230.33333333333331</ele><time>2026-04-12T10:38:59.795Z</time></trkpt><trkpt lat="37.88651611548588" lon="15.168159286010036"><ele>229.0</ele><time>2026-04-12T10:39:00.795Z</time></trkpt><trkpt lat="37.886367857662684" lon="15.168340846861323"><ele>229.0</ele><time>2026-04-12T10:39:01.795Z</time></trkpt><trkpt lat="37.88621869169677" lon="15.168527048389041"><ele>229.0</ele><time>2026-04-12T10:39:02.795Z</time></trkpt><trkpt lat="37.88607859250773" lon="15.168708238836858"><ele>229.0</ele><time>2026-04-12T10:39:03.795Z</time></trkpt><trkpt lat="37.8859424717853" lon="15.168883482583366"><ele>228.0</ele><time>2026-04-12T10:39:04.795Z</time></trkpt><trkpt lat="37.88580639945518" lon="15.169054531709248"><ele>227.0</ele><time>2026-04-12T10:39:05.795Z</time></trkpt><trkpt lat="37.88566948670023" lon="15.169222555541813"><ele>226.0</ele><time>2026-04-12T10:39:06.795Z</time></trkpt><trkpt lat="37.885537369605096" lon="15.169390243842196"><ele>226.0</ele><time>2026-04-12T10:39:07.795Z</time></trkpt><trkpt lat="37.885410126670806" lon="15.169546653875832"><ele>226.0</ele><time>2026-04-12T10:39:08.795Z</time></trkpt><trkpt lat="37.885291572948226" lon="15.16970127469913"><ele>226.0</ele><time>2026-04-12T10:39:09.795Z</time></trkpt><trkpt lat="37.885176347346366" lon="15.169850226086409"><ele>225.66666666666666</ele><time>2026-04-12T10:39:10.795Z</time></trkpt><trkpt lat="37.88506351757376" lon="15.169996511363985"><ele>225.33333333333331</ele><time>2026-04-12T10:39:11.795Z</time></trkpt><trkpt lat="37.88494867325648" lon="15.170146573134103"><ele>225.0</ele><time>2026-04-12T10:39:12.795Z</time></trkpt><trkpt lat="37.88483295266062" lon="15.170299193612866"><ele>225.0</ele><time>2026-04-12T10:39:13.795Z</time></trkpt><trkpt lat="37.884703030401944" lon="15.170469927422989"><ele>225.0</ele><time>2026-04-12T10:39:14.795Z</time></trkpt><trkpt lat="37.88456072164145" lon="15.170643544000134"><ele>225.0</ele><time>2026-04-12T10:39:15.795Z</time></trkpt><trkpt lat="37.88440956505718" lon="15.170834260606394"><ele>224.66666666666669</ele><time>2026-04-12T10:39:16.798Z</time></trkpt><trkpt lat="37.88425639562588" lon="15.171032334024726"><ele>224.33333333333334</ele><time>2026-04-12T10:39:17.798Z</time></trkpt><trkpt lat="37.88409754445882" lon="15.171234751662407"><ele>224.0</ele><time>2026-04-12T10:39:18.798Z</time></trkpt><trkpt lat="37.88394616480647" lon="15.171421220051185"><ele>225.0</ele><time>2026-04-12T10:39:19.798Z</time></trkpt><trkpt lat="37.88379616846657" lon="15.171594912418959"><ele>226.0</ele><time>2026-04-12T10:39:20.798Z</time></trkpt><trkpt lat="37.883645947453516" lon="15.171770471921297"><ele>227.0</ele><time>2026-04-12T10:39:21.798Z</time></trkpt><trkpt lat="37.88349473072755" lon="15.171946080961117"><ele>225.66666666666669</ele><time>2026-04-12T10:39:22.797Z</time></trkpt><trkpt lat="37.88334059229649" lon="15.172113284938732"><ele>224.33333333333331</ele><time>2026-04-12T10:39:23.798Z</time></trkpt><trkpt lat="37.88318378015243" lon="15.172289600010483"><ele>223.0</ele><time>2026-04-12T10:39:24.798Z</time></trkpt><trkpt lat="37.88302344314613" lon="15.17247345179861"><ele>223.0</ele><time>2026-04-12T10:39:25.798Z</time></trkpt><trkpt lat="37.88286239529622" lon="15.172655452247666"><ele>223.0</ele><time>2026-04-12T10:39:26.797Z</time></trkpt><trkpt lat="37.882697361438154" lon="15.172838132600615"><ele>223.0</ele><time>2026-04-12T10:39:27.797Z</time></trkpt><trkpt lat="37.8825226018353" lon="15.173010881975022"><ele>220.66666666666666</ele><time>2026-04-12T10:39:28.798Z</time></trkpt><trkpt lat="37.88235770848625" lon="15.173194423182254"><ele>218.33333333333331</ele><time>2026-04-12T10:39:29.797Z</time></trkpt><trkpt lat="37.88220352574636" lon="15.173366042509047"><ele>216.0</ele><time>2026-04-12T10:39:30.797Z</time></trkpt><trkpt lat="37.882051202134036" lon="15.173534575635562"><ele>216.0</ele><time>2026-04-12T10:39:31.797Z</time></trkpt><trkpt lat="37.88190361183323" lon="15.173697124127532"><ele>216.0</ele><time>2026-04-12T10:39:32.797Z</time></trkpt><trkpt lat="37.88175306541204" lon="15.173862697545994"><ele>216.0</ele><time>2026-04-12T10:39:33.797Z</time></trkpt><trkpt lat="37.881602194386254" lon="15.174028065082146"><ele>215.66666666666669</ele><time>2026-04-12T10:39:34.797Z</time></trkpt><trkpt lat="37.88146415513974" lon="15.174180100641102"><ele>215.33333333333334</ele><time>2026-04-12T10:39:35.797Z</time></trkpt><trkpt lat="37.88134527759939" lon="15.17432463491686"><ele>215.0</ele><time>2026-04-12T10:39:36.797Z</time></trkpt><trkpt lat="37.88121478269881" lon="15.174392657624653"><ele>215.0</ele><time>2026-04-12T10:39:37.797Z</time></trkpt><trkpt lat="37.88110348288847" lon="15.174435429810826"><ele>215.0</ele><time>2026-04-12T10:39:38.797Z</time></trkpt><trkpt lat="37.88100214322714" lon="15.174468651343982"><ele>215.0</ele><time>2026-04-12T10:39:39.797Z</time></trkpt><trkpt lat="37.88090842393878" lon="15.174458649859547"><ele>215.0</ele><time>2026-04-12T10:39:40.797Z</time></trkpt><trkpt lat="37.88082143356957" lon="15.174451560576397"><ele>215.0</ele><time>2026-04-12T10:39:41.797Z</time></trkpt><trkpt lat="37.88074736633109" lon="15.174413248187852"><ele>214.16666666666669</ele><time>2026-04-12T10:39:42.797Z</time></trkpt><trkpt lat="37.88066807847872" lon="15.174373611073511"><ele>213.33333333333334</ele><time>2026-04-12T10:39:43.797Z</time></trkpt><trkpt lat="37.880590595646964" lon="15.174335151051553"><ele>212.5</ele><time>2026-04-12T10:39:44.797Z</time></trkpt><trkpt lat="37.880510180728294" lon="15.174316461536295"><ele>211.66666666666669</ele><time>2026-04-12T10:39:45.797Z</time></trkpt><trkpt lat="37.88043886556989" lon="15.174321683156656"><ele>210.83333333333334</ele><time>2026-04-12T10:39:46.797Z</time></trkpt><trkpt lat="37.88037616417107" lon="15.174341236718233"><ele>210.0</ele><time>2026-04-12T10:39:47.797Z</time></trkpt><trkpt lat="37.880321599970095" lon="15.174395353755987"><ele>210.0</ele><time>2026-04-12T10:39:48.797Z</time></trkpt><trkpt lat="37.88027076932742" lon="15.174481936602417"><ele>210.0</ele><time>2026-04-12T10:39:49.797Z</time></trkpt><trkpt lat="37.88021654284462" lon="15.174594826496815"><ele>210.0</ele><time>2026-04-12T10:39:50.797Z</time></trkpt><trkpt lat="37.88016016335212" lon="15.174741106236954"><ele>210.0</ele><time>2026-04-12T10:39:51.797Z</time></trkpt><trkpt lat="37.88009223365698" lon="15.174914175428354"><ele>207.0</ele><time>2026-04-12T10:39:52.797Z</time></trkpt><trkpt lat="37.88002124682523" lon="15.175095051691773"><ele>204.0</ele><time>2026-04-12T10:39:53.796Z</time></trkpt><trkpt lat="37.87995200392383" lon="15.175266788830273"><ele>201.0</ele><time>2026-04-12T10:39:54.796Z</time></trkpt><trkpt lat="37.87988438677015" lon="15.175442991087433"><ele>201.0</ele><time>2026-04-12T10:39:55.796Z</time></trkpt><trkpt lat="37.87978207567126" lon="15.175600825203233"><ele>201.0</ele><time>2026-04-12T10:39:56.796Z</time></trkpt><trkpt lat="37.87965622195067" lon="15.175729234522208"><ele>201.0</ele><time>2026-04-12T10:39:57.796Z</time></trkpt><trkpt lat="37.8795102888614" lon="15.175802772936624"><ele>201.0</ele><time>2026-04-12T10:39:58.796Z</time></trkpt><trkpt lat="37.87936830603518" lon="15.175911897985207"><ele>201.0</ele><time>2026-04-12T10:39:59.796Z</time></trkpt><trkpt lat="37.87920552026723" lon="15.17601196027917"><ele>201.0</ele><time>2026-04-12T10:40:00.796Z</time></trkpt><trkpt lat="37.879043791912515" lon="15.17610925767197"><ele>201.0</ele><time>2026-04-12T10:40:01.796Z</time></trkpt><trkpt lat="37.87888536483449" lon="15.176210783982008"><ele>201.0</ele><time>2026-04-12T10:40:02.796Z</time></trkpt><trkpt lat="37.87871484128156" lon="15.176308315205329"><ele>201.0</ele><time>2026-04-12T10:40:03.796Z</time></trkpt><trkpt lat="37.87854550948132" lon="15.176416330442347"><ele>199.0</ele><time>2026-04-12T10:40:04.796Z</time></trkpt><trkpt lat="37.878377316103276" lon="15.176521358176991"><ele>197.0</ele><time>2026-04-12T10:40:05.796Z</time></trkpt><trkpt lat="37.87820661952534" lon="15.176627181769062"><ele>195.0</ele><time>2026-04-12T10:40:06.796Z</time></trkpt><trkpt lat="37.87804091128854" lon="15.17672800928833"><ele>195.0</ele><time>2026-04-12T10:40:07.796Z</time></trkpt><trkpt lat="37.87786471114319" lon="15.176836737447173"><ele>195.0</ele><time>2026-04-12T10:40:08.796Z</time></trkpt><trkpt lat="37.877687406544396" lon="15.17694623650837"><ele>195.0</ele><time>2026-04-12T10:40:09.796Z</time></trkpt><trkpt lat="37.87751139664747" lon="15.177061906217244"><ele>193.33333333333334</ele><time>2026-04-12T10:40:10.796Z</time></trkpt><trkpt lat="37.87734297496846" lon="15.177175951515009"><ele>191.66666666666669</ele><time>2026-04-12T10:40:11.796Z</time></trkpt><trkpt lat="37.87718384292546" lon="15.177303797003841"><ele>190.0</ele><time>2026-04-12T10:40:12.796Z</time></trkpt><trkpt lat="37.87704518048263" lon="15.177488382906922"><ele>189.33333333333334</ele><time>2026-04-12T10:40:13.796Z</time></trkpt><trkpt lat="37.87691236596244" lon="15.177702940389073"><ele>188.66666666666666</ele><time>2026-04-12T10:40:14.796Z</time></trkpt><trkpt lat="37.87678114305889" lon="15.177918806415706"><ele>188.0</ele><time>2026-04-12T10:40:15.796Z</time></trkpt><trkpt lat="37.876650311822715" lon="15.178114581584781"><ele>185.33333333333331</ele><time>2026-04-12T10:40:16.796Z</time></trkpt><trkpt lat="37.876525598764715" lon="15.178298581493692"><ele>182.66666666666666</ele><time>2026-04-12T10:40:17.796Z</time></trkpt><trkpt lat="37.876407781170926" lon="15.178485076911727"><ele>180.0</ele><time>2026-04-12T10:40:18.796Z</time></trkpt><trkpt lat="37.87630568399003" lon="15.178675263201665"><ele>180.0</ele><time>2026-04-12T10:40:19.795Z</time></trkpt><trkpt lat="37.876247817017266" lon="15.178883713838797"><ele>180.0</ele><time>2026-04-12T10:40:20.795Z</time></trkpt><trkpt lat="37.876238113591526" lon="15.179128546144826"><ele>180.0</ele><time>2026-04-12T10:40:21.795Z</time></trkpt><trkpt lat="37.876270376535054" lon="15.179382851211638"><ele>179.33333333333334</ele><time>2026-04-12T10:40:22.795Z</time></trkpt><trkpt lat="37.876333257823795" lon="15.179621993735045"><ele>178.66666666666669</ele><time>2026-04-12T10:40:23.795Z</time></trkpt><trkpt lat="37.87641572499721" lon="15.179852138874992"><ele>178.0</ele><time>2026-04-12T10:40:24.795Z</time></trkpt><trkpt lat="37.87649271910777" lon="15.180087282124289"><ele>177.33333333333334</ele><time>2026-04-12T10:40:25.795Z</time></trkpt><trkpt lat="37.87654415039124" lon="15.180332066402924"><ele>176.66666666666666</ele><time>2026-04-12T10:40:26.795Z</time></trkpt><trkpt lat="37.87656528691738" lon="15.180590558724887"><ele>176.0</ele><time>2026-04-12T10:40:27.795Z</time></trkpt><trkpt lat="37.8765626322139" lon="15.180846464166823"><ele>175.66666666666666</ele><time>2026-04-12T10:40:28.795Z</time></trkpt><trkpt lat="37.87654181868112" lon="15.181105253514215"><ele>175.33333333333334</ele><time>2026-04-12T10:40:29.795Z</time></trkpt><trkpt lat="37.87649681539268" lon="15.181358156618654"><ele>175.0</ele><time>2026-04-12T10:40:30.795Z</time></trkpt><trkpt lat="37.876439948846645" lon="15.181599715217143"><ele>175.66666666666669</ele><time>2026-04-12T10:40:31.795Z</time></trkpt><trkpt lat="37.8763538230367" lon="15.18183587523013"><ele>176.33333333333334</ele><time>2026-04-12T10:40:32.795Z</time></trkpt><trkpt lat="37.87625376103015" lon="15.182061922111926"><ele>177.0</ele><time>2026-04-12T10:40:33.795Z</time></trkpt><trkpt lat="37.87613316364316" lon="15.182269235497397"><ele>176.33333333333334</ele><time>2026-04-12T10:40:34.795Z</time></trkpt><trkpt lat="37.876001403814776" lon="15.18244687258364"><ele>175.66666666666669</ele><time>2026-04-12T10:40:35.795Z</time></trkpt><trkpt lat="37.87587135502234" lon="15.18261224547981"><ele>175.0</ele><time>2026-04-12T10:40:36.795Z</time></trkpt><trkpt lat="37.87575789921768" lon="15.182800273776177"><ele>175.0</ele><time>2026-04-12T10:40:37.795Z</time></trkpt><trkpt lat="37.875681683684526" lon="15.183023058603585"><ele>175.0</ele><time>2026-04-12T10:40:38.795Z</time></trkpt><trkpt lat="37.87563434818825" lon="15.183282293419815"><ele>175.0</ele><time>2026-04-12T10:40:39.795Z</time></trkpt><trkpt lat="37.87564365700608" lon="15.183549148554532"><ele>174.0</ele><time>2026-04-12T10:40:40.795Z</time></trkpt><trkpt lat="37.87569457183077" lon="15.183808240253402"><ele>173.0</ele><time>2026-04-12T10:40:41.795Z</time></trkpt><trkpt lat="37.87579681157553" lon="15.184069284165082"><ele>172.0</ele><time>2026-04-12T10:40:42.795Z</time></trkpt><trkpt lat="37.87592935162668" lon="15.18432071823682"><ele>178.0</ele><time>2026-04-12T10:40:43.795Z</time></trkpt><trkpt lat="37.87606523800777" lon="15.184575642790247"><ele>184.0</ele><time>2026-04-12T10:40:44.794Z</time></trkpt><trkpt lat="37.87620172288763" lon="15.184826597018791"><ele>182.0</ele><time>2026-04-12T10:40:45.794Z</time></trkpt><trkpt lat="37.876323181634646" lon="15.185074356801767"><ele>180.0</ele><time>2026-04-12T10:40:46.794Z</time></trkpt><trkpt lat="37.87644077708339" lon="15.185306674447995"><ele>178.0</ele><time>2026-04-12T10:40:47.794Z</time></trkpt><trkpt lat="37.87654260931245" lon="15.185531995347763"><ele>179.0</ele><time>2026-04-12T10:40:48.794Z</time></trkpt><trkpt lat="37.876643124247956" lon="15.185744462527918"><ele>180.0</ele><time>2026-04-12T10:40:49.794Z</time></trkpt><trkpt lat="37.87674453121844" lon="15.185941768212635"><ele>181.0</ele><time>2026-04-12T10:40:50.794Z</time></trkpt><trkpt lat="37.876867763885635" lon="15.186117618420232"><ele>181.0</ele><time>2026-04-12T10:40:51.794Z</time></trkpt><trkpt lat="37.877010800008534" lon="15.186281269413838"><ele>181.0</ele><time>2026-04-12T10:40:52.794Z</time></trkpt><trkpt lat="37.87720155563936" lon="15.18641162199207"><ele>181.0</ele><time>2026-04-12T10:40:53.794Z</time></trkpt><trkpt lat="37.87740161845643" lon="15.186513608485548"><ele>176.66666666666669</ele><time>2026-04-12T10:40:54.794Z</time></trkpt><trkpt lat="37.87758993783558" lon="15.186603205534256"><ele>172.33333333333334</ele><time>2026-04-12T10:40:55.794Z</time></trkpt><trkpt lat="37.87776791538076" lon="15.186679292602212"><ele>168.0</ele><time>2026-04-12T10:40:56.794Z</time></trkpt><trkpt lat="37.87793313118412" lon="15.186773237565719"><ele>168.0</ele><time>2026-04-12T10:40:57.794Z</time></trkpt><trkpt lat="37.878063213415686" lon="15.186898493563028"><ele>168.0</ele><time>2026-04-12T10:40:58.794Z</time></trkpt><trkpt lat="37.87816159904098" lon="15.187042660711757"><ele>168.0</ele><time>2026-04-12T10:40:59.794Z</time></trkpt><trkpt lat="37.87823179334649" lon="15.187208168921046"><ele>163.0</ele><time>2026-04-12T10:41:00.794Z</time></trkpt><trkpt lat="37.87824999059911" lon="15.1873874506713"><ele>158.0</ele><time>2026-04-12T10:41:01.794Z</time></trkpt><trkpt lat="37.8782583071019" lon="15.187610953410775"><ele>153.0</ele><time>2026-04-12T10:41:02.794Z</time></trkpt><trkpt lat="37.878266492889225" lon="15.187846847842279"><ele>153.0</ele><time>2026-04-12T10:41:03.794Z</time></trkpt><trkpt lat="37.8782736510426" lon="15.188067415257265"><ele>153.0</ele><time>2026-04-12T10:41:04.794Z</time></trkpt><trkpt lat="37.87827738580676" lon="15.188270840170057"><ele>153.0</ele><time>2026-04-12T10:41:05.794Z</time></trkpt><trkpt lat="37.87825876529232" lon="15.188458163386413"><ele>152.75</ele><time>2026-04-12T10:41:06.794Z</time></trkpt><trkpt lat="37.87821527212418" lon="15.188616200887559"><ele>152.5</ele><time>2026-04-12T10:41:07.794Z</time></trkpt><trkpt lat="37.878146409165694" lon="15.188771334959824"><ele>152.25</ele><time>2026-04-12T10:41:08.794Z</time></trkpt><trkpt lat="37.878034181031545" lon="15.188914649356143"><ele>152.0</ele><time>2026-04-12T10:41:09.794Z</time></trkpt><trkpt lat="37.87789067611528" lon="15.189061610768281"><ele>152.0</ele><time>2026-04-12T10:41:10.793Z</time></trkpt><trkpt lat="37.877741406584605" lon="15.18921091122217"><ele>152.0</ele><time>2026-04-12T10:41:11.793Z</time></trkpt><trkpt lat="37.877593191974945" lon="15.189359156524795"><ele>152.0</ele><time>2026-04-12T10:41:12.793Z</time></trkpt><trkpt lat="37.87745417821036" lon="15.189518251102841"><ele>152.0</ele><time>2026-04-12T10:41:13.793Z</time></trkpt><trkpt lat="37.87730892304385" lon="15.189649172096189"><ele>152.0</ele><time>2026-04-12T10:41:14.793Z</time></trkpt><trkpt lat="37.877157778325625" lon="15.189779188992487"><ele>152.0</ele><time>2026-04-12T10:41:15.793Z</time></trkpt><trkpt lat="37.876991869764154" lon="15.189901929208657"><ele>151.33333333333331</ele><time>2026-04-12T10:41:16.793Z</time></trkpt><trkpt lat="37.87682653743762" lon="15.190022820411352"><ele>150.66666666666666</ele><time>2026-04-12T10:41:17.793Z</time></trkpt><trkpt lat="37.8766585006578" lon="15.190123956159123"><ele>150.0</ele><time>2026-04-12T10:41:18.793Z</time></trkpt><trkpt lat="37.87649684929958" lon="15.190232316178308"><ele>150.0</ele><time>2026-04-12T10:41:19.793Z</time></trkpt><trkpt lat="37.876342162386315" lon="15.19033009844139"><ele>150.0</ele><time>2026-04-12T10:41:20.793Z</time></trkpt><trkpt lat="37.876191026057086" lon="15.190427744934174"><ele>150.0</ele><time>2026-04-12T10:41:21.793Z</time></trkpt><trkpt lat="37.87603128504536" lon="15.190527194482806"><ele>148.66666666666666</ele><time>2026-04-12T10:41:22.796Z</time></trkpt><trkpt lat="37.87586985297765" lon="15.190633172557922"><ele>147.33333333333331</ele><time>2026-04-12T10:41:23.796Z</time></trkpt><trkpt lat="37.87569925805999" lon="15.190745471233852"><ele>146.0</ele><time>2026-04-12T10:41:24.796Z</time></trkpt><trkpt lat="37.87551661017109" lon="15.190865446212346"><ele>146.0</ele><time>2026-04-12T10:41:25.796Z</time></trkpt><trkpt lat="37.87532194999599" lon="15.190987671420192"><ele>146.0</ele><time>2026-04-12T10:41:26.796Z</time></trkpt><trkpt lat="37.87512341434882" lon="15.19110564245477"><ele>146.0</ele><time>2026-04-12T10:41:27.796Z</time></trkpt><trkpt lat="37.87491962709297" lon="15.191213371452866"><ele>143.0</ele><time>2026-04-12T10:41:28.797Z</time></trkpt><trkpt lat="37.87471342487782" lon="15.191300772917185"><ele>140.0</ele><time>2026-04-12T10:41:29.796Z</time></trkpt><trkpt lat="37.87451693575549" lon="15.191387049056676"><ele>137.0</ele><time>2026-04-12T10:41:30.796Z</time></trkpt><trkpt lat="37.87432826968329" lon="15.191466704703359"><ele>136.33333333333331</ele><time>2026-04-12T10:41:31.796Z</time></trkpt><trkpt lat="37.87413776244571" lon="15.19154284125775"><ele>135.66666666666666</ele><time>2026-04-12T10:41:32.796Z</time></trkpt><trkpt lat="37.87393722232603" lon="15.19161693181048"><ele>135.0</ele><time>2026-04-12T10:41:33.796Z</time></trkpt><trkpt lat="37.87372974002898" lon="15.191689333903554"><ele>135.0</ele><time>2026-04-12T10:41:34.796Z</time></trkpt><trkpt lat="37.87352147639599" lon="15.19175876862458"><ele>135.0</ele><time>2026-04-12T10:41:35.796Z</time></trkpt><trkpt lat="37.87331412194232" lon="15.19182845690901"><ele>135.0</ele><time>2026-04-12T10:41:36.796Z</time></trkpt><trkpt lat="37.873105155577086" lon="15.1918997235584"><ele>133.0</ele><time>2026-04-12T10:41:37.796Z</time></trkpt><trkpt lat="37.87289624954689" lon="15.19197332944485"><ele>131.0</ele><time>2026-04-12T10:41:38.796Z</time></trkpt><trkpt lat="37.87268915223085" lon="15.19204389880479"><ele>129.0</ele><time>2026-04-12T10:41:39.796Z</time></trkpt><trkpt lat="37.872483005327325" lon="15.192118631181376"><ele>129.0</ele><time>2026-04-12T10:41:40.796Z</time></trkpt><trkpt lat="37.87228058831602" lon="15.192186086785256"><ele>129.0</ele><time>2026-04-12T10:41:41.796Z</time></trkpt><trkpt lat="37.872078156034824" lon="15.192246979718066"><ele>129.0</ele><time>2026-04-12T10:41:42.796Z</time></trkpt><trkpt lat="37.871871120405636" lon="15.192303969714944"><ele>129.66666666666666</ele><time>2026-04-12T10:41:43.796Z</time></trkpt><trkpt lat="37.871659439377595" lon="15.192365466321007"><ele>130.33333333333331</ele><time>2026-04-12T10:41:44.796Z</time></trkpt><trkpt lat="37.87144879478743" lon="15.192420020918462"><ele>131.0</ele><time>2026-04-12T10:41:45.796Z</time></trkpt><trkpt lat="37.87123984950543" lon="15.192481324652547"><ele>131.0</ele><time>2026-04-12T10:41:46.796Z</time></trkpt><trkpt lat="37.871034253433955" lon="15.19254614109738"><ele>131.0</ele><time>2026-04-12T10:41:47.796Z</time></trkpt><trkpt lat="37.87083647771321" lon="15.192623618566707"><ele>131.0</ele><time>2026-04-12T10:41:48.796Z</time></trkpt><trkpt lat="37.87064947290785" lon="15.192718538870544"><ele>130.33333333333331</ele><time>2026-04-12T10:41:49.796Z</time></trkpt><trkpt lat="37.87047971561729" lon="15.192862622011951"><ele>129.66666666666666</ele><time>2026-04-12T10:41:50.796Z</time></trkpt><trkpt lat="37.87030908580382" lon="15.193040998598335"><ele>129.0</ele><time>2026-04-12T10:41:51.796Z</time></trkpt><trkpt lat="37.87012658843063" lon="15.193230166449446"><ele>126.5</ele><time>2026-04-12T10:41:52.796Z</time></trkpt><trkpt lat="37.86994038195299" lon="15.193408139229735"><ele>124.0</ele><time>2026-04-12T10:41:53.795Z</time></trkpt><trkpt lat="37.86975294047364" lon="15.193583036717255"><ele>124.0</ele><time>2026-04-12T10:41:54.795Z</time></trkpt><trkpt lat="37.86957302949731" lon="15.193743402479063"><ele>124.0</ele><time>2026-04-12T10:41:55.795Z</time></trkpt><trkpt lat="37.869401195195834" lon="15.193899764357981"><ele>124.0</ele><time>2026-04-12T10:41:56.795Z</time></trkpt><trkpt lat="37.86922977668318" lon="15.19407083572439"><ele>121.5</ele><time>2026-04-12T10:41:57.795Z</time></trkpt><trkpt lat="37.86906410216645" lon="15.194260269883811"><ele>119.0</ele><time>2026-04-12T10:41:58.795Z</time></trkpt><trkpt lat="37.86891191890887" lon="15.194480977957445"><ele>119.0</ele><time>2026-04-12T10:41:59.795Z</time></trkpt><trkpt lat="37.86877239749315" lon="15.194714599309934"><ele>119.0</ele><time>2026-04-12T10:42:00.795Z</time></trkpt><trkpt lat="37.86863950519393" lon="15.194953407479087"><ele>119.66666666666666</ele><time>2026-04-12T10:42:01.795Z</time></trkpt><trkpt lat="37.868514063088014" lon="15.195186152507095"><ele>120.33333333333334</ele><time>2026-04-12T10:42:02.795Z</time></trkpt><trkpt lat="37.86838288011844" lon="15.195414464176773"><ele>121.0</ele><time>2026-04-12T10:42:03.795Z</time></trkpt><trkpt lat="37.86824184205945" lon="15.195644001100282"><ele>118.5</ele><time>2026-04-12T10:42:04.795Z</time></trkpt><trkpt lat="37.86809637422978" lon="15.195882989263575"><ele>116.0</ele><time>2026-04-12T10:42:05.795Z</time></trkpt><trkpt lat="37.867952886332375" lon="15.196121737684267"><ele>116.0</ele><time>2026-04-12T10:42:06.795Z</time></trkpt><trkpt lat="37.86780713055952" lon="15.196357064174675"><ele>116.0</ele><time>2026-04-12T10:42:07.795Z</time></trkpt><trkpt lat="37.867666529435176" lon="15.196585825478405"><ele>115.0</ele><time>2026-04-12T10:42:08.795Z</time></trkpt><trkpt lat="37.86752914306766" lon="15.196806277294453"><ele>114.0</ele><time>2026-04-12T10:42:09.795Z</time></trkpt><trkpt lat="37.86739861458099" lon="15.197010349412803"><ele>113.0</ele><time>2026-04-12T10:42:10.795Z</time></trkpt><trkpt lat="37.86727334019943" lon="15.197214260105579"><ele>114.33333333333333</ele><time>2026-04-12T10:42:11.795Z</time></trkpt><trkpt lat="37.86716232130438" lon="15.197418723458846"><ele>115.66666666666666</ele><time>2026-04-12T10:42:12.795Z</time></trkpt><trkpt lat="37.86707205930233" lon="15.197633016048655"><ele>117.0</ele><time>2026-04-12T10:42:13.795Z</time></trkpt><trkpt lat="37.86702641534713" lon="15.197878048363018"><ele>117.0</ele><time>2026-04-12T10:42:14.795Z</time></trkpt><trkpt lat="37.86704317158788" lon="15.198138613242977"><ele>117.0</ele><time>2026-04-12T10:42:15.795Z</time></trkpt><trkpt lat="37.86709706514881" lon="15.198367781954081"><ele>117.0</ele><time>2026-04-12T10:42:16.795Z</time></trkpt><trkpt lat="37.86717868946709" lon="15.19854450467297"><ele>117.0</ele><time>2026-04-12T10:42:17.795Z</time></trkpt><trkpt lat="37.86730611895343" lon="15.198679650106074"><ele>117.0</ele><time>2026-04-12T10:42:18.795Z</time></trkpt><trkpt lat="37.86747233523226" lon="15.198809326181388"><ele>117.0</ele><time>2026-04-12T10:42:19.794Z</time></trkpt><trkpt lat="37.867698998600545" lon="15.198916015454127"><ele>116.0</ele><time>2026-04-12T10:42:20.794Z</time></trkpt><trkpt lat="37.86792645384744" lon="15.199021688510523"><ele>115.0</ele><time>2026-04-12T10:42:21.794Z</time></trkpt><trkpt lat="37.86814175770146" lon="15.199148009293856"><ele>115.0</ele><time>2026-04-12T10:42:22.794Z</time></trkpt><trkpt lat="37.86833260834094" lon="15.199286585016605"><ele>115.0</ele><time>2026-04-12T10:42:23.794Z</time></trkpt><trkpt lat="37.86849833494218" lon="15.199454660769852"><ele>115.0</ele><time>2026-04-12T10:42:24.794Z</time></trkpt><trkpt lat="37.86863410772068" lon="15.199664826665733"><ele>116.66666666666667</ele><time>2026-04-12T10:42:25.794Z</time></trkpt><trkpt lat="37.86871679165908" lon="15.199906934728492"><ele>118.33333333333334</ele><time>2026-04-12T10:42:26.794Z</time></trkpt><trkpt lat="37.86875368037732" lon="15.200181557865466"><ele>120.0</ele><time>2026-04-12T10:42:27.794Z</time></trkpt><trkpt lat="37.86874358107131" lon="15.20045930421623"><ele>122.33333333333334</ele><time>2026-04-12T10:42:28.794Z</time></trkpt><trkpt lat="37.868707946856354" lon="15.200733141637683"><ele>124.66666666666667</ele><time>2026-04-12T10:42:29.794Z</time></trkpt><trkpt lat="37.8686219468318" lon="15.201001236115598"><ele>127.0</ele><time>2026-04-12T10:42:30.794Z</time></trkpt><trkpt lat="37.868477184277964" lon="15.201248678852997"><ele>131.0</ele><time>2026-04-12T10:42:31.794Z</time></trkpt><trkpt lat="37.868277934110324" lon="15.201444229826121"><ele>135.0</ele><time>2026-04-12T10:42:32.794Z</time></trkpt><trkpt lat="37.86810189480627" lon="15.201642752021"><ele>135.0</ele><time>2026-04-12T10:42:33.794Z</time></trkpt><trkpt lat="37.86796917278369" lon="15.201874939605153"><ele>135.0</ele><time>2026-04-12T10:42:34.794Z</time></trkpt><trkpt lat="37.86790206343691" lon="15.20214590885775"><ele>140.0</ele><time>2026-04-12T10:42:35.794Z</time></trkpt><trkpt lat="37.86791492284763" lon="15.202468490615686"><ele>145.0</ele><time>2026-04-12T10:42:36.794Z</time></trkpt><trkpt lat="37.867944517669315" lon="15.202756698696069"><ele>145.0</ele><time>2026-04-12T10:42:37.794Z</time></trkpt><trkpt lat="37.86795272174889" lon="15.203011450100028"><ele>145.0</ele><time>2026-04-12T10:42:38.794Z</time></trkpt><trkpt lat="37.86797396298337" lon="15.203238428935103"><ele>145.0</ele><time>2026-04-12T10:42:39.794Z</time></trkpt><trkpt lat="37.868054209945996" lon="15.203447176102191"><ele>144.66666666666669</ele><time>2026-04-12T10:42:40.794Z</time></trkpt><trkpt lat="37.86817874611166" lon="15.203628692762859"><ele>144.33333333333334</ele><time>2026-04-12T10:42:41.794Z</time></trkpt><trkpt lat="37.86831422203111" lon="15.203788602517657"><ele>144.0</ele><time>2026-04-12T10:42:42.794Z</time></trkpt><trkpt lat="37.868431160366335" lon="15.20393430751439"><ele>142.75</ele><time>2026-04-12T10:42:43.794Z</time></trkpt><trkpt lat="37.868544851554574" lon="15.20406344667742"><ele>141.5</ele><time>2026-04-12T10:42:44.794Z</time></trkpt><trkpt lat="37.868653177292735" lon="15.204180618075881"><ele>140.25</ele><time>2026-04-12T10:42:45.793Z</time></trkpt><trkpt lat="37.86877354149314" lon="15.204263292016991"><ele>139.0</ele><time>2026-04-12T10:42:46.793Z</time></trkpt><trkpt lat="37.86892146231124" lon="15.20426388631217"><ele>139.0</ele><time>2026-04-12T10:42:47.793Z</time></trkpt><trkpt lat="37.86906958195263" lon="15.204212483618578"><ele>139.0</ele><time>2026-04-12T10:42:48.793Z</time></trkpt><trkpt lat="37.86921511446758" lon="15.204108539834234"><ele>139.0</ele><time>2026-04-12T10:42:49.793Z</time></trkpt><trkpt lat="37.86935597246653" lon="15.203995004054269"><ele>144.0</ele><time>2026-04-12T10:42:50.793Z</time></trkpt><trkpt lat="37.86948307343314" lon="15.203910661431417"><ele>149.0</ele><time>2026-04-12T10:42:51.793Z</time></trkpt><trkpt lat="37.86961327359514" lon="15.203854201910962"><ele>154.0</ele><time>2026-04-12T10:42:52.793Z</time></trkpt><trkpt lat="37.86974946401532" lon="15.203813329635041"><ele>159.0</ele><time>2026-04-12T10:42:53.793Z</time></trkpt><trkpt lat="37.86989015621662" lon="15.203784664335362"><ele>159.0</ele><time>2026-04-12T10:42:54.793Z</time></trkpt><trkpt lat="37.87004448336174" lon="15.203772193274354"><ele>159.0</ele><time>2026-04-12T10:42:55.793Z</time></trkpt><trkpt lat="37.870217605435414" lon="15.20378374727409"><ele>159.0</ele><time>2026-04-12T10:42:56.793Z</time></trkpt><trkpt lat="37.87041237294787" lon="15.203817501037442"><ele>158.0</ele><time>2026-04-12T10:42:57.793Z</time></trkpt><trkpt lat="37.87063296076331" lon="15.203848060099874"><ele>157.0</ele><time>2026-04-12T10:42:58.793Z</time></trkpt><trkpt lat="37.870874816188056" lon="15.203858450725239"><ele>161.0</ele><time>2026-04-12T10:42:59.793Z</time></trkpt><trkpt lat="37.87114193844723" lon="15.203881615867987"><ele>165.0</ele><time>2026-04-12T10:43:00.793Z</time></trkpt><trkpt lat="37.871388575961305" lon="15.203921874415505"><ele>165.0</ele><time>2026-04-12T10:43:01.793Z</time></trkpt><trkpt lat="37.87159426487309" lon="15.203971061087426"><ele>165.0</ele><time>2026-04-12T10:43:02.793Z</time></trkpt><trkpt lat="37.871762037661256" lon="15.20405795177989"><ele>165.0</ele><time>2026-04-12T10:43:03.793Z</time></trkpt><trkpt lat="37.87189982568241" lon="15.204182238422877"><ele>165.0</ele><time>2026-04-12T10:43:04.793Z</time></trkpt><trkpt lat="37.871988168183314" lon="15.204374587583803"><ele>165.0</ele><time>2026-04-12T10:43:05.793Z</time></trkpt><trkpt lat="37.87202786298003" lon="15.204612509272815"><ele>165.0</ele><time>2026-04-12T10:43:06.793Z</time></trkpt><trkpt lat="37.8719997407987" lon="15.204884987446025"><ele>166.0</ele><time>2026-04-12T10:43:07.793Z</time></trkpt><trkpt lat="37.87194142672387" lon="15.20517385721603"><ele>167.0</ele><time>2026-04-12T10:43:08.793Z</time></trkpt><trkpt lat="37.87186090537938" lon="15.205474884185948"><ele>166.0</ele><time>2026-04-12T10:43:09.793Z</time></trkpt><trkpt lat="37.87179542958032" lon="15.205815272558537"><ele>165.0</ele><time>2026-04-12T10:43:10.792Z</time></trkpt><trkpt lat="37.8717428051496" lon="15.20619015260899"><ele>164.5</ele><time>2026-04-12T10:43:11.792Z</time></trkpt><trkpt lat="37.87169062063163" lon="15.206572142185577"><ele>164.0</ele><time>2026-04-12T10:43:12.792Z</time></trkpt><trkpt lat="37.871604049610745" lon="15.206961494145112"><ele>162.5</ele><time>2026-04-12T10:43:13.792Z</time></trkpt><trkpt lat="37.87153173293364" lon="15.207395888779521"><ele>161.0</ele><time>2026-04-12T10:43:14.792Z</time></trkpt><trkpt lat="37.87145850981557" lon="15.20783586255417"><ele>161.5</ele><time>2026-04-12T10:43:15.792Z</time></trkpt><trkpt lat="37.87139609828208" lon="15.208312332110584"><ele>162.0</ele><time>2026-04-12T10:43:16.792Z</time></trkpt><trkpt lat="37.871310974318696" lon="15.208805012389643"><ele>165.0</ele><time>2026-04-12T10:43:17.792Z</time></trkpt><trkpt lat="37.87123232133482" lon="15.209289898573612"><ele>168.0</ele><time>2026-04-12T10:43:18.792Z</time></trkpt><trkpt lat="37.87115941359162" lon="15.20974938511805"><ele>169.5</ele><time>2026-04-12T10:43:19.792Z</time></trkpt><trkpt lat="37.87108309380429" lon="15.210207386157087"><ele>171.0</ele><time>2026-04-12T10:43:20.792Z</time></trkpt><trkpt lat="37.87101105184948" lon="15.21063163895017"><ele>160.5</ele><time>2026-04-12T10:43:21.792Z</time></trkpt><trkpt lat="37.87093758481965" lon="15.211008099661376"><ele>150.0</ele><time>2026-04-12T10:43:22.792Z</time></trkpt><trkpt lat="37.87089695241339" lon="15.211341868284388"><ele>150.0</ele><time>2026-04-12T10:43:23.792Z</time></trkpt><trkpt lat="37.87085260327274" lon="15.211628501620016"><ele>150.0</ele><time>2026-04-12T10:43:24.792Z</time></trkpt><trkpt lat="37.87080433618968" lon="15.211884391095047"><ele>150.0</ele><time>2026-04-12T10:43:25.792Z</time></trkpt><trkpt lat="37.87075731925289" lon="15.212093326104998"><ele>150.0</ele><time>2026-04-12T10:43:26.792Z</time></trkpt><trkpt lat="37.870737490441165" lon="15.212273439973254"><ele>150.0</ele><time>2026-04-12T10:43:27.792Z</time></trkpt><trkpt lat="37.8707586565055" lon="15.212446386822283"><ele>150.0</ele><time>2026-04-12T10:43:28.794Z</time></trkpt><trkpt lat="37.87083692697192" lon="15.21259245938554"><ele>150.0</ele><time>2026-04-12T10:43:29.795Z</time></trkpt><trkpt lat="37.8709647786594" lon="15.212699725492728"><ele>153.33333333333334</ele><time>2026-04-12T10:43:30.795Z</time></trkpt><trkpt lat="37.87112562408559" lon="15.212824956231524"><ele>156.66666666666669</ele><time>2026-04-12T10:43:31.795Z</time></trkpt><trkpt lat="37.87123487665694" lon="15.213003402561176"><ele>160.0</ele><time>2026-04-12T10:43:32.795Z</time></trkpt><trkpt lat="37.87129851863066" lon="15.213182680815779"><ele>160.0</ele><time>2026-04-12T10:43:33.795Z</time></trkpt><trkpt lat="37.8713285315008" lon="15.213384295072885"><ele>160.0</ele><time>2026-04-12T10:43:34.795Z</time></trkpt><trkpt lat="37.87138146009965" lon="15.213524632733131"><ele>160.0</ele><time>2026-04-12T10:43:35.795Z</time></trkpt><trkpt lat="37.87145108267657" lon="15.2136242996241"><ele>160.0</ele><time>2026-04-12T10:43:36.795Z</time></trkpt><trkpt lat="37.87156028143355" lon="15.21366904907494"><ele>160.0</ele><time>2026-04-12T10:43:37.795Z</time></trkpt><trkpt lat="37.8717179055886" lon="15.213695170639268"><ele>160.0</ele><time>2026-04-12T10:43:38.794Z</time></trkpt><trkpt lat="37.87187168491262" lon="15.213633997653448"><ele>160.0</ele><time>2026-04-12T10:43:39.794Z</time></trkpt><trkpt lat="37.87195929520955" lon="15.213623595120197"><ele>160.0</ele><time>2026-04-12T10:43:40.794Z</time></trkpt><trkpt lat="37.87201779653565" lon="15.213669400918599"><ele>158.0</ele><time>2026-04-12T10:43:41.794Z</time></trkpt><trkpt lat="37.87206580019096" lon="15.213725057114221"><ele>156.0</ele><time>2026-04-12T10:43:42.794Z</time></trkpt><trkpt lat="37.8720918418368" lon="15.213812737282712"><ele>154.0</ele><time>2026-04-12T10:43:43.794Z</time></trkpt><trkpt lat="37.8720758588438" lon="15.213948821690446"><ele>152.0</ele><time>2026-04-12T10:43:44.794Z</time></trkpt><trkpt lat="37.871997457837345" lon="15.214077678449101"><ele>150.0</ele><time>2026-04-12T10:43:45.794Z</time></trkpt><trkpt lat="37.87193341465353" lon="15.214263018178212"><ele>150.0</ele><time>2026-04-12T10:43:46.794Z</time></trkpt><trkpt lat="37.87187338232364" lon="15.21444259684488"><ele>150.0</ele><time>2026-04-12T10:43:47.794Z</time></trkpt><trkpt lat="37.87180972777904" lon="15.214626763133488"><ele>150.0</ele><time>2026-04-12T10:43:48.794Z</time></trkpt><trkpt lat="37.87174690281198" lon="15.214820313343148"><ele>149.0</ele><time>2026-04-12T10:43:49.794Z</time></trkpt><trkpt lat="37.8716851514537" lon="15.215012779754707"><ele>148.0</ele><time>2026-04-12T10:43:50.794Z</time></trkpt><trkpt lat="37.87162061972349" lon="15.215206855034102"><ele>147.0</ele><time>2026-04-12T10:43:51.795Z</time></trkpt><trkpt lat="37.87155473928625" lon="15.215416545555556"><ele>147.0</ele><time>2026-04-12T10:43:52.798Z</time></trkpt><trkpt lat="37.87148340025247" lon="15.21565134225126"><ele>147.0</ele><time>2026-04-12T10:43:53.8Z</time></trkpt><trkpt lat="37.87139447762897" lon="15.21587099524602"><ele>147.0</ele><time>2026-04-12T10:43:54.802Z</time></trkpt><trkpt lat="37.871328673221505" lon="15.216075685557739"><ele>148.75</ele><time>2026-04-12T10:43:55.805Z</time></trkpt><trkpt lat="37.87125952634085" lon="15.216238128711614"><ele>150.5</ele><time>2026-04-12T10:43:56.807Z</time></trkpt><trkpt lat="37.87115770247621" lon="15.216369793771678"><ele>152.25</ele><time>2026-04-12T10:43:57.808Z</time></trkpt><trkpt lat="37.87102090474605" lon="15.216454534320967"><ele>154.0</ele><time>2026-04-12T10:43:58.81Z</time></trkpt><trkpt lat="37.87085631711996" lon="15.216544644967705"><ele>154.0</ele><time>2026-04-12T10:43:59.812Z</time></trkpt><trkpt lat="37.870683997948824" lon="15.216650566119288"><ele>154.0</ele><time>2026-04-12T10:44:00.813Z</time></trkpt><trkpt lat="37.870513079672314" lon="15.216762368919301"><ele>154.0</ele><time>2026-04-12T10:44:01.815Z</time></trkpt><trkpt lat="37.870350234076774" lon="15.216845631355929"><ele>154.0</ele><time>2026-04-12T10:44:02.816Z</time></trkpt><trkpt lat="37.87019854134966" lon="15.21687398941266"><ele>154.0</ele><time>2026-04-12T10:44:03.817Z</time></trkpt><trkpt lat="37.87010293934282" lon="15.216916223456947"><ele>154.0</ele><time>2026-04-12T10:44:04.818Z</time></trkpt><trkpt lat="37.87000378523994" lon="15.216979760657626"><ele>154.0</ele><time>2026-04-12T10:44:05.819Z</time></trkpt><trkpt lat="37.869934812538524" lon="15.217111547164578"><ele>155.5</ele><time>2026-04-12T10:44:06.82Z</time></trkpt><trkpt lat="37.86987614000677" lon="15.217235028835747"><ele>157.0</ele><time>2026-04-12T10:44:07.821Z</time></trkpt><trkpt lat="37.86979864891423" lon="15.217394725986955"><ele>158.5</ele><time>2026-04-12T10:44:08.822Z</time></trkpt><trkpt lat="37.869696552261644" lon="15.217578335014336"><ele>160.0</ele><time>2026-04-12T10:44:09.823Z</time></trkpt><trkpt lat="37.869559587480346" lon="15.217745253530156"><ele>160.0</ele><time>2026-04-12T10:44:10.824Z</time></trkpt><trkpt lat="37.869433376033" lon="15.217871129106605"><ele>160.0</ele><time>2026-04-12T10:44:11.825Z</time></trkpt><trkpt lat="37.869332886260345" lon="15.217971798802841"><ele>160.0</ele><time>2026-04-12T10:44:12.825Z</time></trkpt><trkpt lat="37.869238961047486" lon="15.218074524339556"><ele>160.0</ele><time>2026-04-12T10:44:13.826Z</time></trkpt><trkpt lat="37.86914248646399" lon="15.218149191009102"><ele>160.2</ele><time>2026-04-12T10:44:14.827Z</time></trkpt><trkpt lat="37.86905451419728" lon="15.21818679659881"><ele>160.4</ele><time>2026-04-12T10:44:15.827Z</time></trkpt><trkpt lat="37.868979173286405" lon="15.218184507604121"><ele>160.60000000000002</ele><time>2026-04-12T10:44:16.828Z</time></trkpt><trkpt lat="37.86891198634624" lon="15.218106886281952"><ele>160.8</ele><time>2026-04-12T10:44:17.828Z</time></trkpt><trkpt lat="37.86887366029103" lon="15.217977912019284"><ele>161.0</ele><time>2026-04-12T10:44:18.829Z</time></trkpt><trkpt lat="37.86879313275921" lon="15.217842638513106"><ele>160.0</ele><time>2026-04-12T10:44:19.829Z</time></trkpt><trkpt lat="37.86870723696859" lon="15.217716008097069"><ele>159.0</ele><time>2026-04-12T10:44:20.829Z</time></trkpt><trkpt lat="37.86859697229597" lon="15.217619082471215"><ele>158.0</ele><time>2026-04-12T10:44:21.83Z</time></trkpt><trkpt lat="37.8684724550134" lon="15.217580913139528"><ele>157.0</ele><time>2026-04-12T10:44:22.83Z</time></trkpt><trkpt lat="37.86834204517259" lon="15.217562061876407"><ele>157.0</ele><time>2026-04-12T10:44:23.83Z</time></trkpt><trkpt lat="37.868202348112995" lon="15.217506123104837"><ele>157.0</ele><time>2026-04-12T10:44:24.831Z</time></trkpt><trkpt lat="37.86805478247564" lon="15.217478958396091"><ele>157.0</ele><time>2026-04-12T10:44:25.831Z</time></trkpt><trkpt lat="37.86789541273896" lon="15.217401425675634"><ele>157.0</ele><time>2026-04-12T10:44:26.831Z</time></trkpt><trkpt lat="37.86773500755749" lon="15.217362499160004"><ele>157.0</ele><time>2026-04-12T10:44:27.831Z</time></trkpt><trkpt lat="37.86760800464558" lon="15.217327451232087"><ele>157.0</ele><time>2026-04-12T10:44:28.832Z</time></trkpt><trkpt lat="37.86749174691009" lon="15.217282709059774"><ele>157.0</ele><time>2026-04-12T10:44:29.832Z</time></trkpt><trkpt lat="37.86738378743396" lon="15.217242681940139"><ele>152.79999999999998</ele><time>2026-04-12T10:44:30.832Z</time></trkpt><trkpt lat="37.86729305063198" lon="15.217172930201595"><ele>148.6</ele><time>2026-04-12T10:44:31.832Z</time></trkpt><trkpt lat="37.86722315970108" lon="15.217103814023124"><ele>144.39999999999998</ele><time>2026-04-12T10:44:32.832Z</time></trkpt><trkpt lat="37.86714683289897" lon="15.217073378529697"><ele>140.2</ele><time>2026-04-12T10:44:33.833Z</time></trkpt><trkpt lat="37.86704743312124" lon="15.217069978758802"><ele>136.0</ele><time>2026-04-12T10:44:34.833Z</time></trkpt><trkpt lat="37.866954814774566" lon="15.21710178179522"><ele>136.0</ele><time>2026-04-12T10:44:35.833Z</time></trkpt><trkpt lat="37.86685820080244" lon="15.21716688240806"><ele>136.0</ele><time>2026-04-12T10:44:36.833Z</time></trkpt><trkpt lat="37.86678281144702" lon="15.21722383262293"><ele>136.0</ele><time>2026-04-12T10:44:37.833Z</time></trkpt><trkpt lat="37.8667012009763" lon="15.217277480827294"><ele>136.0</ele><time>2026-04-12T10:44:38.833Z</time></trkpt><trkpt lat="37.866606107373855" lon="15.21734446260147"><ele>136.0</ele><time>2026-04-12T10:44:39.833Z</time></trkpt><trkpt lat="37.86649420054436" lon="15.217438407401836"><ele>136.33333333333334</ele><time>2026-04-12T10:44:40.833Z</time></trkpt><trkpt lat="37.866365819712684" lon="15.21752131613965"><ele>136.66666666666666</ele><time>2026-04-12T10:44:41.833Z</time></trkpt><trkpt lat="37.866223446265636" lon="15.21760953686382"><ele>137.0</ele><time>2026-04-12T10:44:42.833Z</time></trkpt><trkpt lat="37.8660552692033" lon="15.217704933626258"><ele>133.33333333333331</ele><time>2026-04-12T10:44:43.834Z</time></trkpt><trkpt lat="37.86590332265645" lon="15.217775621599069"><ele>129.66666666666666</ele><time>2026-04-12T10:44:44.834Z</time></trkpt><trkpt lat="37.86575314035238" lon="15.217816765008418"><ele>126.0</ele><time>2026-04-12T10:44:45.834Z</time></trkpt><trkpt lat="37.8656047329943" lon="15.21789488504583"><ele>126.0</ele><time>2026-04-12T10:44:46.834Z</time></trkpt><trkpt lat="37.86543871851689" lon="15.217866963691923"><ele>126.0</ele><time>2026-04-12T10:44:47.834Z</time></trkpt><trkpt lat="37.8652887542944" lon="15.21781781859835"><ele>126.0</ele><time>2026-04-12T10:44:48.834Z</time></trkpt><trkpt lat="37.8651322448191" lon="15.21770898317079"><ele>123.75</ele><time>2026-04-12T10:44:49.834Z</time></trkpt><trkpt lat="37.86503373964277" lon="15.217615954344545"><ele>121.5</ele><time>2026-04-12T10:44:50.834Z</time></trkpt><trkpt lat="37.864908907710735" lon="15.217604212304368"><ele>119.25</ele><time>2026-04-12T10:44:51.834Z</time></trkpt><trkpt lat="37.8647716366484" lon="15.217630581572083"><ele>117.0</ele><time>2026-04-12T10:44:52.834Z</time></trkpt><trkpt lat="37.86462945483593" lon="15.217665748863539"><ele>117.0</ele><time>2026-04-12T10:44:53.834Z</time></trkpt><trkpt lat="37.86447683661034" lon="15.217630754780929"><ele>117.0</ele><time>2026-04-12T10:44:54.834Z</time></trkpt><trkpt lat="37.86434091823936" lon="15.21755084542639"><ele>117.0</ele><time>2026-04-12T10:44:55.834Z</time></trkpt><trkpt lat="37.86420657227769" lon="15.217406011486535"><ele>114.66666666666666</ele><time>2026-04-12T10:44:56.834Z</time></trkpt><trkpt lat="37.86406655281831" lon="15.217253005028418"><ele>112.33333333333333</ele><time>2026-04-12T10:44:57.834Z</time></trkpt><trkpt lat="37.86392731605451" lon="15.217089847491758"><ele>110.0</ele><time>2026-04-12T10:44:58.834Z</time></trkpt><trkpt lat="37.86378532600916" lon="15.216947123019859"><ele>110.0</ele><time>2026-04-12T10:44:59.834Z</time></trkpt><trkpt lat="37.86364374185224" lon="15.216854468162781"><ele>110.0</ele><time>2026-04-12T10:45:00.834Z</time></trkpt><trkpt lat="37.86351838084492" lon="15.216800690816799"><ele>110.0</ele><time>2026-04-12T10:45:01.834Z</time></trkpt><trkpt lat="37.863379362369" lon="15.21684556137581"><ele>110.0</ele><time>2026-04-12T10:45:02.834Z</time></trkpt><trkpt lat="37.86327158717856" lon="15.216963310291142"><ele>110.5</ele><time>2026-04-12T10:45:03.834Z</time></trkpt><trkpt lat="37.86316274452368" lon="15.217150568867535"><ele>111.0</ele><time>2026-04-12T10:45:04.834Z</time></trkpt><trkpt lat="37.862978273971464" lon="15.217433755262622"><ele>111.0</ele><time>2026-04-12T10:45:05.834Z</time></trkpt><trkpt lat="37.862865828770246" lon="15.217691566356537"><ele>111.0</ele><time>2026-04-12T10:45:06.834Z</time></trkpt><trkpt lat="37.862778579514696" lon="15.217839706879554"><ele>111.0</ele><time>2026-04-12T10:45:07.834Z</time></trkpt><trkpt lat="37.8627004974056" lon="15.217960710711171"><ele>111.0</ele><time>2026-04-12T10:45:08.834Z</time></trkpt><trkpt lat="37.86263020146973" lon="15.218063963850275"><ele>111.0</ele><time>2026-04-12T10:45:09.834Z</time></trkpt><trkpt lat="37.86257199776333" lon="15.21816251868977"><ele>111.0</ele><time>2026-04-12T10:45:10.834Z</time></trkpt><trkpt lat="37.86252623850822" lon="15.218248400784969"><ele>111.0</ele><time>2026-04-12T10:45:11.834Z</time></trkpt><trkpt lat="37.86246361898157" lon="15.218284121799702"><ele>111.0</ele><time>2026-04-12T10:45:12.834Z</time></trkpt><trkpt lat="37.86241111686742" lon="15.218384091826836"><ele>111.33333333333333</ele><time>2026-04-12T10:45:14.834Z</time></trkpt><trkpt lat="37.862361926259936" lon="15.2184660750906"><ele>111.66666666666666</ele><time>2026-04-12T10:45:15.834Z</time></trkpt><trkpt lat="37.862294364099334" lon="15.218575905475832"><ele>112.0</ele><time>2026-04-12T10:45:16.834Z</time></trkpt><trkpt lat="37.862234135717266" lon="15.218660630597961"><ele>112.33333333333333</ele><time>2026-04-12T10:45:17.834Z</time></trkpt><trkpt lat="37.86218393156571" lon="15.218731097114883"><ele>112.66666666666666</ele><time>2026-04-12T10:45:18.834Z</time></trkpt><trkpt lat="37.862135109548966" lon="15.218804479781323"><ele>113.0</ele><time>2026-04-12T10:45:19.834Z</time></trkpt><trkpt lat="37.86208293953105" lon="15.21889632660768"><ele>113.0</ele><time>2026-04-12T10:45:20.834Z</time></trkpt><trkpt lat="37.861988779056546" lon="15.219031009971197"><ele>113.0</ele><time>2026-04-12T10:45:21.834Z</time></trkpt><trkpt lat="37.86189820681696" lon="15.21916732258411"><ele>113.0</ele><time>2026-04-12T10:45:22.834Z</time></trkpt><trkpt lat="37.861821095029015" lon="15.2192940123817"><ele>113.0</ele><time>2026-04-12T10:45:23.834Z</time></trkpt><trkpt lat="37.861745004658076" lon="15.219405261999066"><ele>112.0</ele><time>2026-04-12T10:45:24.834Z</time></trkpt><trkpt lat="37.86166168737871" lon="15.219476435186634"><ele>111.00000000000001</ele><time>2026-04-12T10:45:25.834Z</time></trkpt><trkpt lat="37.861569764684084" lon="15.219552668722555"><ele>110.00000000000001</ele><time>2026-04-12T10:45:26.834Z</time></trkpt><trkpt lat="37.86147004522297" lon="15.219635646418137"><ele>109.0</ele><time>2026-04-12T10:45:27.834Z</time></trkpt><trkpt lat="37.86138747766195" lon="15.219709130024487"><ele>108.0</ele><time>2026-04-12T10:45:28.834Z</time></trkpt><trkpt lat="37.86132370766856" lon="15.219775218287335"><ele>107.85714285714286</ele><time>2026-04-12T10:45:29.833Z</time></trkpt><trkpt lat="37.86126575816841" lon="15.219826863455726"><ele>107.71428571428571</ele><time>2026-04-12T10:45:30.833Z</time></trkpt><trkpt lat="37.861207678758326" lon="15.219876775458436"><ele>107.57142857142858</ele><time>2026-04-12T10:45:31.833Z</time></trkpt><trkpt lat="37.86114780788817" lon="15.21993050935848"><ele>107.42857142857143</ele><time>2026-04-12T10:45:32.833Z</time></trkpt><trkpt lat="37.86108268020656" lon="15.219976715600518"><ele>107.28571428571429</ele><time>2026-04-12T10:45:33.833Z</time></trkpt><trkpt lat="37.86101416995177" lon="15.220017249402758"><ele>107.14285714285715</ele><time>2026-04-12T10:45:34.837Z</time></trkpt><trkpt lat="37.86095254619715" lon="15.220064728969263"><ele>107.0</ele><time>2026-04-12T10:45:35.837Z</time></trkpt><trkpt lat="37.8608862517711" lon="15.22010273991422"><ele>107.0</ele><time>2026-04-12T10:45:36.837Z</time></trkpt><trkpt lat="37.860815529446185" lon="15.220138675739365"><ele>107.0</ele><time>2026-04-12T10:45:37.837Z</time></trkpt><trkpt lat="37.860728242233165" lon="15.220185999592783"><ele>107.0</ele><time>2026-04-12T10:45:38.837Z</time></trkpt><trkpt lat="37.86060295920844" lon="15.220246034906772"><ele>107.0</ele><time>2026-04-12T10:45:39.837Z</time></trkpt><trkpt lat="37.86044909094186" lon="15.220308537666574"><ele>107.0</ele><time>2026-04-12T10:45:40.837Z</time></trkpt><trkpt lat="37.8602934342335" lon="15.22037753026823"><ele>107.0</ele><time>2026-04-12T10:45:41.837Z</time></trkpt><trkpt lat="37.860145447356544" lon="15.220466768953585"><ele>107.0</ele><time>2026-04-12T10:45:42.837Z</time></trkpt><trkpt lat="37.86000485241589" lon="15.220569892708838"><ele>106.66666666666666</ele><time>2026-04-12T10:45:43.837Z</time></trkpt><trkpt lat="37.85986563541963" lon="15.220673340783446"><ele>106.33333333333334</ele><time>2026-04-12T10:45:44.836Z</time></trkpt><trkpt lat="37.85973585154104" lon="15.220806912419405"><ele>106.0</ele><time>2026-04-12T10:45:45.836Z</time></trkpt><trkpt lat="37.85961113249494" lon="15.220935602673451"><ele>106.0</ele><time>2026-04-12T10:45:46.837Z</time></trkpt><trkpt lat="37.85950938682503" lon="15.22107310697499"><ele>106.0</ele><time>2026-04-12T10:45:47.837Z</time></trkpt><trkpt lat="37.85941953405603" lon="15.22122059288368"><ele>106.0</ele><time>2026-04-12T10:45:48.837Z</time></trkpt><trkpt lat="37.85932874680288" lon="15.221373607894655"><ele>106.0</ele><time>2026-04-12T10:45:49.837Z</time></trkpt><trkpt lat="37.859242732698306" lon="15.221487886121462"><ele>105.5</ele><time>2026-04-12T10:45:50.837Z</time></trkpt><trkpt lat="37.859141924537965" lon="15.221580182171898"><ele>105.0</ele><time>2026-04-12T10:45:51.837Z</time></trkpt><trkpt lat="37.858995763849755" lon="15.221620159628971"><ele>104.5</ele><time>2026-04-12T10:45:52.837Z</time></trkpt><trkpt lat="37.858853003789655" lon="15.221625171306872"><ele>104.0</ele><time>2026-04-12T10:45:53.837Z</time></trkpt><trkpt lat="37.858720143265565" lon="15.221642381145914"><ele>104.0</ele><time>2026-04-12T10:45:54.837Z</time></trkpt><trkpt lat="37.858585091827656" lon="15.221662467616117"><ele>104.0</ele><time>2026-04-12T10:45:55.837Z</time></trkpt><trkpt lat="37.85843546866844" lon="15.22168310336098"><ele>104.0</ele><time>2026-04-12T10:45:56.837Z</time></trkpt><trkpt lat="37.8582753028127" lon="15.221706045116017"><ele>104.0</ele><time>2026-04-12T10:45:57.837Z</time></trkpt><trkpt lat="37.85812867267955" lon="15.221732953895417"><ele>103.0</ele><time>2026-04-12T10:45:58.837Z</time></trkpt><trkpt lat="37.85799832982924" lon="15.221755642292198"><ele>102.0</ele><time>2026-04-12T10:45:59.837Z</time></trkpt><trkpt lat="37.857892906729965" lon="15.221763478248423"><ele>101.0</ele><time>2026-04-12T10:46:00.837Z</time></trkpt><trkpt lat="37.85781860180751" lon="15.221767647105214"><ele>100.0</ele><time>2026-04-12T10:46:01.837Z</time></trkpt><trkpt lat="37.85774771596292" lon="15.221797922479125"><ele>99.0</ele><time>2026-04-12T10:46:02.837Z</time></trkpt><trkpt lat="37.85763071820818" lon="15.221804642226482"><ele>97.0</ele><time>2026-04-12T10:46:03.837Z</time></trkpt><trkpt lat="37.857471298770854" lon="15.221894744626294"><ele>95.0</ele><time>2026-04-12T10:46:04.836Z</time></trkpt><trkpt lat="37.85724890956741" lon="15.22199215257608"><ele>93.0</ele><time>2026-04-12T10:46:05.836Z</time></trkpt><trkpt lat="37.857012485935975" lon="15.222095048196387"><ele>92.5</ele><time>2026-04-12T10:46:06.836Z</time></trkpt><trkpt lat="37.85675218444127" lon="15.222206506926685"><ele>92.0</ele><time>2026-04-12T10:46:07.836Z</time></trkpt><trkpt lat="37.856497941539814" lon="15.222315263386538"><ele>92.0</ele><time>2026-04-12T10:46:08.836Z</time></trkpt><trkpt lat="37.85627498146235" lon="15.22241266014807"><ele>92.0</ele><time>2026-04-12T10:46:09.836Z</time></trkpt><trkpt lat="37.85609132847183" lon="15.22248270145692"><ele>92.0</ele><time>2026-04-12T10:46:10.836Z</time></trkpt><trkpt lat="37.85594810277147" lon="15.222590337968875"><ele>90.33333333333334</ele><time>2026-04-12T10:46:11.836Z</time></trkpt><trkpt lat="37.85584202246458" lon="15.222773445880943"><ele>88.66666666666667</ele><time>2026-04-12T10:46:12.836Z</time></trkpt><trkpt lat="37.85573824328779" lon="15.222954549458644"><ele>87.0</ele><time>2026-04-12T10:46:13.836Z</time></trkpt><trkpt lat="37.85562684711" lon="15.223094858428915"><ele>88.0</ele><time>2026-04-12T10:46:14.836Z</time></trkpt><trkpt lat="37.855554440293126" lon="15.22321353426516"><ele>89.0</ele><time>2026-04-12T10:46:15.836Z</time></trkpt><trkpt lat="37.85547477784424" lon="15.223329403523868"><ele>90.0</ele><time>2026-04-12T10:46:16.836Z</time></trkpt><trkpt lat="37.85537881481923" lon="15.22342289262302"><ele>91.0</ele><time>2026-04-12T10:46:17.836Z</time></trkpt><trkpt lat="37.85525456127603" lon="15.223495273645725"><ele>90.33333333333333</ele><time>2026-04-12T10:46:18.836Z</time></trkpt><trkpt lat="37.855110947149235" lon="15.223620873114662"><ele>89.66666666666667</ele><time>2026-04-12T10:46:19.836Z</time></trkpt><trkpt lat="37.854930910142215" lon="15.223740587546184"><ele>89.0</ele><time>2026-04-12T10:46:20.836Z</time></trkpt><trkpt lat="37.85475901521179" lon="15.223857220745865"><ele>88.33333333333334</ele><time>2026-04-12T10:46:21.836Z</time></trkpt><trkpt lat="37.854588638443005" lon="15.224018840628899"><ele>87.66666666666667</ele><time>2026-04-12T10:46:22.836Z</time></trkpt><trkpt lat="37.85443213952798" lon="15.224242697826005"><ele>87.0</ele><time>2026-04-12T10:46:23.836Z</time></trkpt><trkpt lat="37.85426931191812" lon="15.224510954679959"><ele>87.0</ele><time>2026-04-12T10:46:24.836Z</time></trkpt><trkpt lat="37.854092762164306" lon="15.224776595746208"><ele>87.0</ele><time>2026-04-12T10:46:25.836Z</time></trkpt><trkpt lat="37.85393012649681" lon="15.225010155268352"><ele>88.5</ele><time>2026-04-12T10:46:26.836Z</time></trkpt><trkpt lat="37.85377492318866" lon="15.225220718492789"><ele>90.0</ele><time>2026-04-12T10:46:27.836Z</time></trkpt><trkpt lat="37.853626092452714" lon="15.225430293741443"><ele>90.0</ele><time>2026-04-12T10:46:28.836Z</time></trkpt><trkpt lat="37.85350742826774" lon="15.22558626952506"><ele>90.0</ele><time>2026-04-12T10:46:29.836Z</time></trkpt><trkpt lat="37.8533611463462" lon="15.225672858934812"><ele>90.0</ele><time>2026-04-12T10:46:30.836Z</time></trkpt><trkpt lat="37.85323303403298" lon="15.225739695289523"><ele>90.33333333333333</ele><time>2026-04-12T10:46:31.836Z</time></trkpt><trkpt lat="37.85307357807238" lon="15.225793950222663"><ele>90.66666666666666</ele><time>2026-04-12T10:46:32.836Z</time></trkpt><trkpt lat="37.852886949263564" lon="15.225815642278235"><ele>91.0</ele><time>2026-04-12T10:46:33.836Z</time></trkpt><trkpt lat="37.852675591741345" lon="15.225803919475643"><ele>91.0</ele><time>2026-04-12T10:46:34.836Z</time></trkpt><trkpt lat="37.85246149828088" lon="15.225761284935615"><ele>91.0</ele><time>2026-04-12T10:46:35.836Z</time></trkpt><trkpt lat="37.8522576284812" lon="15.225617776332962"><ele>87.5</ele><time>2026-04-12T10:46:36.835Z</time></trkpt><trkpt lat="37.85204626330573" lon="15.225430523696875"><ele>84.0</ele><time>2026-04-12T10:46:37.835Z</time></trkpt><trkpt lat="37.85182994690716" lon="15.225215394126804"><ele>84.0</ele><time>2026-04-12T10:46:38.835Z</time></trkpt><trkpt lat="37.85162946076384" lon="15.225013337548152"><ele>84.0</ele><time>2026-04-12T10:46:39.835Z</time></trkpt><trkpt lat="37.85144306917715" lon="15.224841096631542"><ele>81.5</ele><time>2026-04-12T10:46:40.835Z</time></trkpt><trkpt lat="37.85121684913081" lon="15.224673622962438"><ele>79.0</ele><time>2026-04-12T10:46:41.835Z</time></trkpt><trkpt lat="37.850952553407794" lon="15.224550192739857"><ele>78.5</ele><time>2026-04-12T10:46:42.835Z</time></trkpt><trkpt lat="37.850666121339955" lon="15.224481224503485"><ele>78.0</ele><time>2026-04-12T10:46:43.835Z</time></trkpt><trkpt lat="37.85036796434423" lon="15.224390057351892"><ele>77.5</ele><time>2026-04-12T10:46:44.835Z</time></trkpt><trkpt lat="37.850072518356264" lon="15.224318569455045"><ele>77.0</ele><time>2026-04-12T10:46:45.835Z</time></trkpt><trkpt lat="37.84979863964281" lon="15.224270544611494"><ele>77.0</ele><time>2026-04-12T10:46:46.835Z</time></trkpt><trkpt lat="37.84953902491504" lon="15.224226921456925"><ele>77.0</ele><time>2026-04-12T10:46:47.835Z</time></trkpt><trkpt lat="37.84928644727715" lon="15.22421520311474"><ele>79.0</ele><time>2026-04-12T10:46:48.835Z</time></trkpt><trkpt lat="37.84904952028539" lon="15.22419518005966"><ele>81.0</ele><time>2026-04-12T10:46:49.835Z</time></trkpt><trkpt lat="37.848839860044585" lon="15.22412524420061"><ele>81.0</ele><time>2026-04-12T10:46:50.835Z</time></trkpt><trkpt lat="37.84864907080923" lon="15.224019813086173"><ele>81.0</ele><time>2026-04-12T10:46:51.835Z</time></trkpt><trkpt lat="37.848458610993944" lon="15.223949648363297"><ele>81.0</ele><time>2026-04-12T10:46:52.835Z</time></trkpt><trkpt lat="37.84825415389458" lon="15.223946915217029"><ele>80.5</ele><time>2026-04-12T10:46:53.835Z</time></trkpt><trkpt lat="37.848036361518375" lon="15.224006861588833"><ele>80.0</ele><time>2026-04-12T10:46:54.835Z</time></trkpt><trkpt lat="37.847816768293335" lon="15.224123619417274"><ele>75.0</ele><time>2026-04-12T10:46:55.835Z</time></trkpt><trkpt lat="37.847603938577116" lon="15.224290482746138"><ele>70.0</ele><time>2026-04-12T10:46:56.835Z</time></trkpt><trkpt lat="37.84742722250201" lon="15.224489546750887"><ele>70.0</ele><time>2026-04-12T10:46:57.835Z</time></trkpt><trkpt lat="37.84726267534177" lon="15.22474563221394"><ele>70.0</ele><time>2026-04-12T10:46:58.835Z</time></trkpt><trkpt lat="37.84710773139622" lon="15.225039015067253"><ele>71.5</ele><time>2026-04-12T10:46:59.835Z</time></trkpt><trkpt lat="37.846954730619196" lon="15.225350482541739"><ele>73.0</ele><time>2026-04-12T10:47:00.835Z</time></trkpt><trkpt lat="37.846785810833985" lon="15.225678453217691"><ele>73.0</ele><time>2026-04-12T10:47:01.835Z</time></trkpt><trkpt lat="37.846611765758205" lon="15.226010774512009"><ele>73.0</ele><time>2026-04-12T10:47:02.835Z</time></trkpt><trkpt lat="37.84643284916757" lon="15.226357003043365"><ele>76.5</ele><time>2026-04-12T10:47:03.835Z</time></trkpt><trkpt lat="37.84624358194587" lon="15.226712829950861"><ele>80.0</ele><time>2026-04-12T10:47:04.835Z</time></trkpt><trkpt lat="37.84605441871441" lon="15.227062574213601"><ele>73.5</ele><time>2026-04-12T10:47:05.835Z</time></trkpt><trkpt lat="37.8458807864442" lon="15.22739273352528"><ele>67.0</ele><time>2026-04-12T10:47:06.835Z</time></trkpt><trkpt lat="37.84571117390469" lon="15.227710557341947"><ele>67.0</ele><time>2026-04-12T10:47:07.835Z</time></trkpt><trkpt lat="37.84555273627245" lon="15.228003197583558"><ele>67.0</ele><time>2026-04-12T10:47:08.835Z</time></trkpt><trkpt lat="37.84540901889948" lon="15.228278447116558"><ele>68.0</ele><time>2026-04-12T10:47:09.834Z</time></trkpt><trkpt lat="37.84527984322751" lon="15.228523590403265"><ele>69.0</ele><time>2026-04-12T10:47:10.834Z</time></trkpt><trkpt lat="37.84514756331449" lon="15.228742201110325"><ele>69.66666666666667</ele><time>2026-04-12T10:47:11.834Z</time></trkpt><trkpt lat="37.84498548445933" lon="15.228911948942326"><ele>70.33333333333334</ele><time>2026-04-12T10:47:12.834Z</time></trkpt><trkpt lat="37.84479519786463" lon="15.229052008792165"><ele>71.0</ele><time>2026-04-12T10:47:13.834Z</time></trkpt><trkpt lat="37.84457717402531" lon="15.229146295643424"><ele>71.0</ele><time>2026-04-12T10:47:14.834Z</time></trkpt><trkpt lat="37.84433570058945" lon="15.229200264773473"><ele>71.0</ele><time>2026-04-12T10:47:15.834Z</time></trkpt><trkpt lat="37.84406346139374" lon="15.229247273718796"><ele>70.0</ele><time>2026-04-12T10:47:16.834Z</time></trkpt><trkpt lat="37.84377263376712" lon="15.229296524590712"><ele>69.0</ele><time>2026-04-12T10:47:17.834Z</time></trkpt><trkpt lat="37.84345193386647" lon="15.229357699630762"><ele>67.0</ele><time>2026-04-12T10:47:18.834Z</time></trkpt><trkpt lat="37.843123665194454" lon="15.229409171482892"><ele>65.0</ele><time>2026-04-12T10:47:19.834Z</time></trkpt><trkpt lat="37.8427948868565" lon="15.229496448579432"><ele>63.0</ele><time>2026-04-12T10:47:20.834Z</time></trkpt><trkpt lat="37.84246568406316" lon="15.229627774857633"><ele>61.0</ele><time>2026-04-12T10:47:21.834Z</time></trkpt><trkpt lat="37.84211993724826" lon="15.229763497394217"><ele>62.0</ele><time>2026-04-12T10:47:22.834Z</time></trkpt><trkpt lat="37.84177935388496" lon="15.229917430686854"><ele>63.0</ele><time>2026-04-12T10:47:23.834Z</time></trkpt><trkpt lat="37.84142972373587" lon="15.230057189259405"><ele>63.0</ele><time>2026-04-12T10:47:24.834Z</time></trkpt><trkpt lat="37.84107004405758" lon="15.230185562180248"><ele>63.0</ele><time>2026-04-12T10:47:25.834Z</time></trkpt><trkpt lat="37.840735700829036" lon="15.230315351815035"><ele>61.5</ele><time>2026-04-12T10:47:26.834Z</time></trkpt><trkpt lat="37.840429662742224" lon="15.230433291878219"><ele>60.0</ele><time>2026-04-12T10:47:27.834Z</time></trkpt><trkpt lat="37.84014444121133" lon="15.23054147143401"><ele>60.5</ele><time>2026-04-12T10:47:28.834Z</time></trkpt><trkpt lat="37.83987564193435" lon="15.230645004487648"><ele>61.0</ele><time>2026-04-12T10:47:29.834Z</time></trkpt><trkpt lat="37.83962862311893" lon="15.230742038937189"><ele>61.0</ele><time>2026-04-12T10:47:30.834Z</time></trkpt><trkpt lat="37.83940539020023" lon="15.23082224173852"><ele>61.0</ele><time>2026-04-12T10:47:31.834Z</time></trkpt><trkpt lat="37.83920556181765" lon="15.230896894033178"><ele>61.0</ele><time>2026-04-12T10:47:32.834Z</time></trkpt><trkpt lat="37.83901792911878" lon="15.230989424967214"><ele>61.33333333333333</ele><time>2026-04-12T10:47:33.834Z</time></trkpt><trkpt lat="37.838851288019576" lon="15.231132682077956"><ele>61.66666666666667</ele><time>2026-04-12T10:47:34.834Z</time></trkpt><trkpt lat="37.83871039552992" lon="15.231341120947793"><ele>62.0</ele><time>2026-04-12T10:47:35.834Z</time></trkpt><trkpt lat="37.83860021257513" lon="15.231585854538059"><ele>62.5</ele><time>2026-04-12T10:47:36.834Z</time></trkpt><trkpt lat="37.8385312505044" lon="15.23186200195432"><ele>63.0</ele><time>2026-04-12T10:47:37.834Z</time></trkpt><trkpt lat="37.83851397354897" lon="15.232158786202323"><ele>66.5</ele><time>2026-04-12T10:47:38.834Z</time></trkpt><trkpt lat="37.838552606705534" lon="15.232466826332024"><ele>70.0</ele><time>2026-04-12T10:47:39.834Z</time></trkpt><trkpt lat="37.838609056949224" lon="15.232769918508215"><ele>70.0</ele><time>2026-04-12T10:47:40.836Z</time></trkpt><trkpt lat="37.838635350102535" lon="15.233037234019681"><ele>70.0</ele><time>2026-04-12T10:47:41.836Z</time></trkpt><trkpt lat="37.838633167404325" lon="15.233290686496543"><ele>70.0</ele><time>2026-04-12T10:47:42.836Z</time></trkpt><trkpt lat="37.838612389983645" lon="15.233541175129824"><ele>70.33333333333333</ele><time>2026-04-12T10:47:43.836Z</time></trkpt><trkpt lat="37.83852157219057" lon="15.233801870546111"><ele>70.66666666666667</ele><time>2026-04-12T10:47:44.836Z</time></trkpt><trkpt lat="37.83844415140172" lon="15.234047137194327"><ele>71.0</ele><time>2026-04-12T10:47:45.836Z</time></trkpt><trkpt lat="37.838379221397695" lon="15.234271693361215"><ele>68.0</ele><time>2026-04-12T10:47:46.836Z</time></trkpt><trkpt lat="37.83831813948205" lon="15.234479338221076"><ele>65.0</ele><time>2026-04-12T10:47:47.836Z</time></trkpt><trkpt lat="37.838257995156866" lon="15.234670920337178"><ele>62.0</ele><time>2026-04-12T10:47:48.836Z</time></trkpt><trkpt lat="37.83820048119971" lon="15.23486031841724"><ele>62.0</ele><time>2026-04-12T10:47:49.836Z</time></trkpt><trkpt lat="37.838139644796954" lon="15.235035421786884"><ele>62.0</ele><time>2026-04-12T10:47:50.836Z</time></trkpt><trkpt lat="37.83808200365952" lon="15.235188065808257"><ele>62.0</ele><time>2026-04-12T10:47:51.836Z</time></trkpt><trkpt lat="37.838046263684255" lon="15.23533182162708"><ele>62.0</ele><time>2026-04-12T10:47:52.836Z</time></trkpt><trkpt lat="37.838024520247046" lon="15.23548363484345"><ele>62.66666666666667</ele><time>2026-04-12T10:47:53.836Z</time></trkpt><trkpt lat="37.83798195409691" lon="15.23564724524444"><ele>63.33333333333333</ele><time>2026-04-12T10:47:54.836Z</time></trkpt><trkpt lat="37.83792162050705" lon="15.235832122759625"><ele>64.0</ele><time>2026-04-12T10:47:55.836Z</time></trkpt><trkpt lat="37.83785847152457" lon="15.23601598259153"><ele>64.0</ele><time>2026-04-12T10:47:56.836Z</time></trkpt><trkpt lat="37.83780567254765" lon="15.236177960954024"><ele>64.0</ele><time>2026-04-12T10:47:57.835Z</time></trkpt><trkpt lat="37.83777267799407" lon="15.236329117439078"><ele>64.0</ele><time>2026-04-12T10:47:58.835Z</time></trkpt><trkpt lat="37.83777361906732" lon="15.236498869655998"><ele>64.0</ele><time>2026-04-12T10:47:59.835Z</time></trkpt><trkpt lat="37.83778258085673" lon="15.236690621623529"><ele>64.25</ele><time>2026-04-12T10:48:00.835Z</time></trkpt><trkpt lat="37.83781121751754" lon="15.236877793384446"><ele>64.5</ele><time>2026-04-12T10:48:01.835Z</time></trkpt><trkpt lat="37.83784365696632" lon="15.237046027084194"><ele>64.75</ele><time>2026-04-12T10:48:02.835Z</time></trkpt><trkpt lat="37.83785866584831" lon="15.237216713898187"><ele>65.0</ele><time>2026-04-12T10:48:03.835Z</time></trkpt><trkpt lat="37.83786518303151" lon="15.237403116969393"><ele>65.66666666666667</ele><time>2026-04-12T10:48:04.835Z</time></trkpt><trkpt lat="37.83784827408153" lon="15.237606131104837"><ele>66.33333333333333</ele><time>2026-04-12T10:48:05.835Z</time></trkpt><trkpt lat="37.83780591072974" lon="15.237840953718957"><ele>67.0</ele><time>2026-04-12T10:48:06.835Z</time></trkpt><trkpt lat="37.83774684090036" lon="15.238073780785985"><ele>68.0</ele><time>2026-04-12T10:48:07.835Z</time></trkpt><trkpt lat="37.83767942992371" lon="15.238324397305298"><ele>69.0</ele><time>2026-04-12T10:48:08.835Z</time></trkpt><trkpt lat="37.83760763926027" lon="15.238584259712672"><ele>70.0</ele><time>2026-04-12T10:48:09.835Z</time></trkpt><trkpt lat="37.837549830088804" lon="15.238833660273238"><ele>68.0</ele><time>2026-04-12T10:48:10.835Z</time></trkpt><trkpt lat="37.83748523572467" lon="15.23904469742998"><ele>66.0</ele><time>2026-04-12T10:48:11.835Z</time></trkpt><trkpt lat="37.83741938438778" lon="15.239216398423093"><ele>64.0</ele><time>2026-04-12T10:48:12.835Z</time></trkpt><trkpt lat="37.837371014533005" lon="15.239363526588042"><ele>64.0</ele><time>2026-04-12T10:48:13.835Z</time></trkpt><trkpt lat="37.83732611099483" lon="15.239476943230171"><ele>64.0</ele><time>2026-04-12T10:48:14.835Z</time></trkpt><trkpt lat="37.83727686480908" lon="15.239580940523268"><ele>64.0</ele><time>2026-04-12T10:48:15.835Z</time></trkpt><trkpt lat="37.8372213451258" lon="15.239695264085176"><ele>64.0</ele><time>2026-04-12T10:48:16.835Z</time></trkpt><trkpt lat="37.837161155852066" lon="15.239811444969183"><ele>64.0</ele><time>2026-04-12T10:48:17.835Z</time></trkpt><trkpt lat="37.837104004227726" lon="15.239924009993267"><ele>64.75</ele><time>2026-04-12T10:48:18.835Z</time></trkpt><trkpt lat="37.83704253403472" lon="15.240045080778346"><ele>65.5</ele><time>2026-04-12T10:48:19.835Z</time></trkpt><trkpt lat="37.836976594056" lon="15.240173601952213"><ele>66.25</ele><time>2026-04-12T10:48:20.835Z</time></trkpt><trkpt lat="37.83692984636429" lon="15.240301864072366"><ele>67.0</ele><time>2026-04-12T10:48:21.835Z</time></trkpt><trkpt lat="37.83686885484426" lon="15.24042260700064"><ele>65.66666666666666</ele><time>2026-04-12T10:48:22.835Z</time></trkpt><trkpt lat="37.83677745110713" lon="15.240562486820146"><ele>64.33333333333333</ele><time>2026-04-12T10:48:23.835Z</time></trkpt><trkpt lat="37.83669404783758" lon="15.240726545172107"><ele>63.0</ele><time>2026-04-12T10:48:24.835Z</time></trkpt><trkpt lat="37.83659919101049" lon="15.240905381635269"><ele>62.66666666666667</ele><time>2026-04-12T10:48:25.835Z</time></trkpt><trkpt lat="37.83648468396249" lon="15.241082145796431"><ele>62.333333333333336</ele><time>2026-04-12T10:48:26.835Z</time></trkpt><trkpt lat="37.8363785850913" lon="15.241270012271952"><ele>62.0</ele><time>2026-04-12T10:48:27.835Z</time></trkpt><trkpt lat="37.836263221395896" lon="15.241433620777636"><ele>61.66666666666667</ele><time>2026-04-12T10:48:28.835Z</time></trkpt><trkpt lat="37.83615255763025" lon="15.241589716152983"><ele>61.33333333333333</ele><time>2026-04-12T10:48:29.835Z</time></trkpt><trkpt lat="37.836042627181605" lon="15.241738375997562"><ele>61.0</ele><time>2026-04-12T10:48:30.834Z</time></trkpt><trkpt lat="37.83592489855593" lon="15.241889339770626"><ele>60.33333333333333</ele><time>2026-04-12T10:48:31.834Z</time></trkpt><trkpt lat="37.8358109877933" lon="15.24206593923026"><ele>59.66666666666667</ele><time>2026-04-12T10:48:32.834Z</time></trkpt><trkpt lat="37.83569945871487" lon="15.242278119932152"><ele>59.0</ele><time>2026-04-12T10:48:33.834Z</time></trkpt><trkpt lat="37.835584135197806" lon="15.242469803717444"><ele>59.0</ele><time>2026-04-12T10:48:34.834Z</time></trkpt><trkpt lat="37.83543536271349" lon="15.24262370242067"><ele>59.0</ele><time>2026-04-12T10:48:35.834Z</time></trkpt><trkpt lat="37.835316481412086" lon="15.242808050451847"><ele>59.0</ele><time>2026-04-12T10:48:36.834Z</time></trkpt><trkpt lat="37.83520643793274" lon="15.242984749461426"><ele>58.333333333333336</ele><time>2026-04-12T10:48:37.834Z</time></trkpt><trkpt lat="37.835094722133014" lon="15.243166431350057"><ele>57.66666666666667</ele><time>2026-04-12T10:48:38.834Z</time></trkpt><trkpt lat="37.8349727523682" lon="15.243350530059624"><ele>57.0</ele><time>2026-04-12T10:48:39.834Z</time></trkpt><trkpt lat="37.83484806703769" lon="15.243544001699567"><ele>57.0</ele><time>2026-04-12T10:48:40.834Z</time></trkpt><trkpt lat="37.834717132782465" lon="15.243730192682243"><ele>57.0</ele><time>2026-04-12T10:48:41.834Z</time></trkpt><trkpt lat="37.83458873052455" lon="15.243925933340954"><ele>57.0</ele><time>2026-04-12T10:48:42.834Z</time></trkpt><trkpt lat="37.83445916179463" lon="15.24411986986034"><ele>57.33333333333333</ele><time>2026-04-12T10:48:43.834Z</time></trkpt><trkpt lat="37.83434274732036" lon="15.244295715137486"><ele>57.666666666666664</ele><time>2026-04-12T10:48:44.834Z</time></trkpt><trkpt lat="37.83423324578138" lon="15.244466528464146"><ele>58.0</ele><time>2026-04-12T10:48:45.834Z</time></trkpt><trkpt lat="37.83412062662156" lon="15.24463241710507"><ele>59.0</ele><time>2026-04-12T10:48:46.834Z</time></trkpt><trkpt lat="37.83400818101618" lon="15.244800738264733"><ele>60.0</ele><time>2026-04-12T10:48:47.834Z</time></trkpt><trkpt lat="37.833892170486365" lon="15.244968708827813"><ele>61.0</ele><time>2026-04-12T10:48:48.834Z</time></trkpt><trkpt lat="37.83377256269153" lon="15.245140926368471"><ele>61.0</ele><time>2026-04-12T10:48:49.834Z</time></trkpt><trkpt lat="37.83365849392315" lon="15.245310141893787"><ele>61.0</ele><time>2026-04-12T10:48:50.834Z</time></trkpt><trkpt lat="37.83355281894506" lon="15.245475670041849"><ele>61.0</ele><time>2026-04-12T10:48:51.834Z</time></trkpt><trkpt lat="37.83346546550075" lon="15.245615783185924"><ele>60.99999999999999</ele><time>2026-04-12T10:48:52.834Z</time></trkpt><trkpt lat="37.83335754237743" lon="15.245710207411781"><ele>61.0</ele><time>2026-04-12T10:48:53.834Z</time></trkpt><trkpt lat="37.83330274769939" lon="15.24580116791126"><ele>61.0</ele><time>2026-04-12T10:48:54.834Z</time></trkpt><trkpt lat="37.83328225587542" lon="15.245880165670405"><ele>61.0</ele><time>2026-04-12T10:49:06.833Z</time></trkpt><trkpt lat="37.83324136249643" lon="15.2459592012009"><ele>60.99999999999999</ele><time>2026-04-12T10:49:09.833Z</time></trkpt><trkpt lat="37.833182529086216" lon="15.246023381920319"><ele>61.0</ele><time>2026-04-12T10:49:12.833Z</time></trkpt><trkpt lat="37.83310683522067" lon="15.246139293880038"><ele>61.0</ele><time>2026-04-12T10:49:14.833Z</time></trkpt><trkpt lat="37.83304760043538" lon="15.246231915047249"><ele>61.0</ele><time>2026-04-12T10:49:15.833Z</time></trkpt><trkpt lat="37.8329700398642" lon="15.24635231111072"><ele>61.0</ele><time>2026-04-12T10:49:16.833Z</time></trkpt><trkpt lat="37.83288247392822" lon="15.246485870018056"><ele>61.0</ele><time>2026-04-12T10:49:17.833Z</time></trkpt><trkpt lat="37.83279146553766" lon="15.24664429539572"><ele>61.33333333333333</ele><time>2026-04-12T10:49:18.833Z</time></trkpt><trkpt lat="37.83267766917814" lon="15.246797202993454"><ele>61.66666666666667</ele><time>2026-04-12T10:49:19.833Z</time></trkpt><trkpt lat="37.83257547417203" lon="15.246966197825374"><ele>62.0</ele><time>2026-04-12T10:49:20.833Z</time></trkpt><trkpt lat="37.832464652852515" lon="15.247142948522006"><ele>62.25</ele><time>2026-04-12T10:49:21.833Z</time></trkpt><trkpt lat="37.83234359762581" lon="15.247289482803485"><ele>62.5</ele><time>2026-04-12T10:49:22.833Z</time></trkpt><trkpt lat="37.832251291047186" lon="15.247427746949496"><ele>62.75</ele><time>2026-04-12T10:49:23.833Z</time></trkpt><trkpt lat="37.83216812604053" lon="15.247556787770105"><ele>63.0</ele><time>2026-04-12T10:49:24.833Z</time></trkpt><trkpt lat="37.832093740786405" lon="15.247677106304478"><ele>63.0</ele><time>2026-04-12T10:49:25.833Z</time></trkpt><trkpt lat="37.83201533714481" lon="15.247804569693972"><ele>63.0</ele><time>2026-04-12T10:49:26.833Z</time></trkpt><trkpt lat="37.831929807121725" lon="15.247950087498559"><ele>63.0</ele><time>2026-04-12T10:49:27.833Z</time></trkpt><trkpt lat="37.83183653963212" lon="15.248108769595254"><ele>63.0</ele><time>2026-04-12T10:49:28.833Z</time></trkpt><trkpt lat="37.83174027544054" lon="15.248277156750353"><ele>62.0</ele><time>2026-04-12T10:49:29.833Z</time></trkpt><trkpt lat="37.83164494741056" lon="15.248447104515117"><ele>61.0</ele><time>2026-04-12T10:49:30.833Z</time></trkpt><trkpt lat="37.831546962626774" lon="15.248624252877818"><ele>60.0</ele><time>2026-04-12T10:49:31.833Z</time></trkpt><trkpt lat="37.83144875682137" lon="15.248801415288884"><ele>58.0</ele><time>2026-04-12T10:49:32.833Z</time></trkpt><trkpt lat="37.831347636517215" lon="15.24898009880035"><ele>56.0</ele><time>2026-04-12T10:49:33.833Z</time></trkpt><trkpt lat="37.83124014927814" lon="15.249168313448655"><ele>54.0</ele><time>2026-04-12T10:49:34.832Z</time></trkpt><trkpt lat="37.831131103146504" lon="15.24935914417137"><ele>54.0</ele><time>2026-04-12T10:49:35.832Z</time></trkpt><trkpt lat="37.83110572963815" lon="15.24962564755141"><ele>54.0</ele><time>2026-04-12T10:49:36.832Z</time></trkpt><trkpt lat="37.83098287781097" lon="15.249809258192268"><ele>54.0</ele><time>2026-04-12T10:49:37.832Z</time></trkpt><trkpt lat="37.830856598210126" lon="15.249990687314511"><ele>53.0</ele><time>2026-04-12T10:49:38.832Z</time></trkpt><trkpt lat="37.830750279078835" lon="15.250155190146273"><ele>52.0</ele><time>2026-04-12T10:49:39.832Z</time></trkpt><trkpt lat="37.83066585230641" lon="15.250325273718081"><ele>51.0</ele><time>2026-04-12T10:49:40.832Z</time></trkpt><trkpt lat="37.83050924036349" lon="15.250433890136177"><ele>51.0</ele><time>2026-04-12T10:49:41.832Z</time></trkpt><trkpt lat="37.83046912335729" lon="15.250656330534392"><ele>51.0</ele><time>2026-04-12T10:49:42.832Z</time></trkpt><trkpt lat="37.83036297712263" lon="15.250837226431818"><ele>51.0</ele><time>2026-04-12T10:49:43.832Z</time></trkpt><trkpt lat="37.83025789581926" lon="15.251011479935116"><ele>51.0</ele><time>2026-04-12T10:49:44.832Z</time></trkpt><trkpt lat="37.83015732756263" lon="15.251188686770387"><ele>51.0</ele><time>2026-04-12T10:49:45.832Z</time></trkpt><trkpt lat="37.830011269192696" lon="15.2513352607536"><ele>51.0</ele><time>2026-04-12T10:49:46.836Z</time></trkpt><trkpt lat="37.829905048121645" lon="15.251527186702155"><ele>49.666666666666664</ele><time>2026-04-12T10:49:47.836Z</time></trkpt><trkpt lat="37.82979654244418" lon="15.251721533049432"><ele>48.33333333333333</ele><time>2026-04-12T10:49:48.835Z</time></trkpt><trkpt lat="37.82968381751851" lon="15.251918825582571"><ele>47.0</ele><time>2026-04-12T10:49:49.835Z</time></trkpt><trkpt lat="37.82957272826187" lon="15.252117864867246"><ele>46.666666666666664</ele><time>2026-04-12T10:49:50.835Z</time></trkpt><trkpt lat="37.82946174919482" lon="15.25231336534602"><ele>46.333333333333336</ele><time>2026-04-12T10:49:51.835Z</time></trkpt><trkpt lat="37.82934928864151" lon="15.252511751969289"><ele>46.0</ele><time>2026-04-12T10:49:52.836Z</time></trkpt><trkpt lat="37.82924406406105" lon="15.252696630527725"><ele>46.0</ele><time>2026-04-12T10:49:53.836Z</time></trkpt><trkpt lat="37.829140292624345" lon="15.252878281759074"><ele>46.0</ele><time>2026-04-12T10:49:54.836Z</time></trkpt><trkpt lat="37.82903784778242" lon="15.25305723781899"><ele>46.0</ele><time>2026-04-12T10:49:55.835Z</time></trkpt><trkpt lat="37.82893425923252" lon="15.253239700049802"><ele>45.0</ele><time>2026-04-12T10:49:56.836Z</time></trkpt><trkpt lat="37.82883222003251" lon="15.25342274829156"><ele>44.0</ele><time>2026-04-12T10:49:57.836Z</time></trkpt><trkpt lat="37.82875626859043" lon="15.25361604561791"><ele>43.0</ele><time>2026-04-12T10:49:58.835Z</time></trkpt><trkpt lat="37.828661240870176" lon="15.253778870738492"><ele>43.0</ele><time>2026-04-12T10:49:59.835Z</time></trkpt><trkpt lat="37.828568230869536" lon="15.25395117144215"><ele>43.0</ele><time>2026-04-12T10:50:00.835Z</time></trkpt><trkpt lat="37.82847492345466" lon="15.254108508657328"><ele>43.0</ele><time>2026-04-12T10:50:01.835Z</time></trkpt><trkpt lat="37.82839081748369" lon="15.254248065399636"><ele>43.0</ele><time>2026-04-12T10:50:02.835Z</time></trkpt><trkpt lat="37.828344023444224" lon="15.254346035441458"><ele>43.0</ele><time>2026-04-12T10:50:03.835Z</time></trkpt><trkpt lat="37.8282828814827" lon="15.254435847469736"><ele>43.0</ele><time>2026-04-12T10:50:05.835Z</time></trkpt><trkpt lat="37.828204931997895" lon="15.254562692733394"><ele>43.0</ele><time>2026-04-12T10:50:07.835Z</time></trkpt><trkpt lat="37.82814791858288" lon="15.254667767961596"><ele>43.0</ele><time>2026-04-12T10:50:08.836Z</time></trkpt><trkpt lat="37.828077750084816" lon="15.25479996412789"><ele>42.0</ele><time>2026-04-12T10:50:09.836Z</time></trkpt><trkpt lat="37.827994408056966" lon="15.254947249717853"><ele>41.0</ele><time>2026-04-12T10:50:10.836Z</time></trkpt><trkpt lat="37.827910203546864" lon="15.255098748612777"><ele>40.0</ele><time>2026-04-12T10:50:11.836Z</time></trkpt><trkpt lat="37.82781355443277" lon="15.255267094245925"><ele>40.0</ele><time>2026-04-12T10:50:12.836Z</time></trkpt><trkpt lat="37.827712614737216" lon="15.255445377301104"><ele>40.0</ele><time>2026-04-12T10:50:13.836Z</time></trkpt><trkpt lat="37.82761234584126" lon="15.255630867345626"><ele>40.0</ele><time>2026-04-12T10:50:14.836Z</time></trkpt><trkpt lat="37.82748942565442" lon="15.255811319964709"><ele>39.333333333333336</ele><time>2026-04-12T10:50:15.836Z</time></trkpt><trkpt lat="37.82737298869737" lon="15.256012322014241"><ele>38.666666666666664</ele><time>2026-04-12T10:50:16.836Z</time></trkpt><trkpt lat="37.82726341940122" lon="15.256231583617385"><ele>38.0</ele><time>2026-04-12T10:50:17.836Z</time></trkpt><trkpt lat="37.82713515642713" lon="15.256447266388788"><ele>37.33333333333333</ele><time>2026-04-12T10:50:18.836Z</time></trkpt><trkpt lat="37.82700476692729" lon="15.256667367029745"><ele>36.666666666666664</ele><time>2026-04-12T10:50:19.836Z</time></trkpt><trkpt lat="37.826878258564925" lon="15.256896687815606"><ele>36.0</ele><time>2026-04-12T10:50:20.836Z</time></trkpt><trkpt lat="37.826760898192575" lon="15.257148647886876"><ele>35.666666666666664</ele><time>2026-04-12T10:50:21.836Z</time></trkpt><trkpt lat="37.82666685332672" lon="15.257411026085913"><ele>35.33333333333333</ele><time>2026-04-12T10:50:22.836Z</time></trkpt><trkpt lat="37.82659735672448" lon="15.257673403656007"><ele>35.0</ele><time>2026-04-12T10:50:23.836Z</time></trkpt><trkpt lat="37.82655375761756" lon="15.257956484768066"><ele>34.5</ele><time>2026-04-12T10:50:24.836Z</time></trkpt><trkpt lat="37.82652947822585" lon="15.258276695770393"><ele>34.0</ele><time>2026-04-12T10:50:25.836Z</time></trkpt><trkpt lat="37.82653428270932" lon="15.258589166135128"><ele>34.0</ele><time>2026-04-12T10:50:26.836Z</time></trkpt><trkpt lat="37.826571702941834" lon="15.258858416924765"><ele>34.0</ele><time>2026-04-12T10:50:27.836Z</time></trkpt><trkpt lat="37.826642448756324" lon="15.25910698883275"><ele>34.0</ele><time>2026-04-12T10:50:28.835Z</time></trkpt><trkpt lat="37.82673098439336" lon="15.259351137286243"><ele>33.66666666666667</ele><time>2026-04-12T10:50:29.835Z</time></trkpt><trkpt lat="37.82682361475455" lon="15.259594594580477"><ele>33.333333333333336</ele><time>2026-04-12T10:50:30.835Z</time></trkpt><trkpt lat="37.82691817161215" lon="15.259814248548043"><ele>33.0</ele><time>2026-04-12T10:50:31.835Z</time></trkpt><trkpt lat="37.82697494802243" lon="15.260030848724156"><ele>33.0</ele><time>2026-04-12T10:50:32.835Z</time></trkpt><trkpt lat="37.82702564626295" lon="15.26022891376025"><ele>33.0</ele><time>2026-04-12T10:50:33.835Z</time></trkpt><trkpt lat="37.82704447270621" lon="15.260414212980297"><ele>33.0</ele><time>2026-04-12T10:50:34.835Z</time></trkpt><trkpt lat="37.82704324811633" lon="15.260611597015298"><ele>33.0</ele><time>2026-04-12T10:50:35.835Z</time></trkpt><trkpt lat="37.82701617402695" lon="15.26083210753939"><ele>33.0</ele><time>2026-04-12T10:50:36.835Z</time></trkpt><trkpt lat="37.82696529788238" lon="15.261025593453946"><ele>33.0</ele><time>2026-04-12T10:50:37.835Z</time></trkpt><trkpt lat="37.82691570328524" lon="15.261153510880625"><ele>33.0</ele><time>2026-04-12T10:50:38.835Z</time></trkpt><trkpt lat="37.826835714197394" lon="15.261184737051378"><ele>33.0</ele><time>2026-04-12T10:50:40.835Z</time></trkpt><trkpt lat="37.8267070127556" lon="15.26115863337514"><ele>33.0</ele><time>2026-04-12T10:50:42.835Z</time></trkpt><trkpt lat="37.82659962905804" lon="15.261125565676288"><ele>33.0</ele><time>2026-04-12T10:50:43.835Z</time></trkpt><trkpt lat="37.82649163359314" lon="15.26104598654591"><ele>33.0</ele><time>2026-04-12T10:50:44.835Z</time></trkpt><trkpt lat="37.82643590168649" lon="15.260882811689727"><ele>33.0</ele><time>2026-04-12T10:50:45.835Z</time></trkpt><trkpt lat="37.82640126634838" lon="15.260714825002598"><ele>33.0</ele><time>2026-04-12T10:50:46.835Z</time></trkpt><trkpt lat="37.82647551499369" lon="15.260487787601306"><ele>33.0</ele><time>2026-04-12T10:50:47.835Z</time></trkpt><trkpt lat="37.82653316490196" lon="15.260291888540111"><ele>33.0</ele><time>2026-04-12T10:50:48.835Z</time></trkpt><trkpt lat="37.826608884621095" lon="15.260128966000327"><ele>33.0</ele><time>2026-04-12T10:50:49.835Z</time></trkpt><trkpt lat="37.82669801715225" lon="15.259991309369877"><ele>33.0</ele><time>2026-04-12T10:50:50.835Z</time></trkpt><trkpt lat="37.82680763224436" lon="15.2598705294357"><ele>33.0</ele><time>2026-04-12T10:50:51.835Z</time></trkpt><trkpt lat="37.82691295090109" lon="15.259768911411125"><ele>33.0</ele><time>2026-04-12T10:50:52.835Z</time></trkpt><trkpt lat="37.82700841156697" lon="15.259728812578654"><ele>33.0</ele><time>2026-04-12T10:50:53.835Z</time></trkpt><trkpt lat="37.82710569325761" lon="15.259698402810935"><ele>33.0</ele><time>2026-04-12T10:50:54.835Z</time></trkpt><trkpt lat="37.82717130703031" lon="15.259760101746984"><ele>33.0</ele><time>2026-04-12T10:50:55.835Z</time></trkpt><trkpt lat="37.82717981455518" lon="15.259936490126575"><ele>33.0</ele><time>2026-04-12T10:50:57.835Z</time></trkpt><trkpt lat="37.82719564756024" lon="15.260125136776807"><ele>33.0</ele><time>2026-04-12T10:50:58.835Z</time></trkpt><trkpt lat="37.827214128820536" lon="15.260343480583682"><ele>33.0</ele><time>2026-04-12T10:50:59.835Z</time></trkpt><trkpt lat="37.82722596858878" lon="15.260513946637829"><ele>33.0</ele><time>2026-04-12T10:51:00.834Z</time></trkpt><trkpt lat="37.827246962654094" lon="15.260620784025928"><ele>33.0</ele><time>2026-04-12T10:51:01.834Z</time></trkpt><trkpt lat="37.82727016775279" lon="15.260701520777268"><ele>33.0</ele><time>2026-04-12T10:51:02.834Z</time></trkpt><trkpt lat="37.82733469111347" lon="15.260748681079239"><ele>33.0</ele><time>2026-04-12T10:51:04.834Z</time></trkpt><trkpt lat="37.82738717157583" lon="15.260695728527892"><ele>33.0</ele><time>2026-04-12T10:51:05.834Z</time></trkpt><trkpt lat="37.82746781230276" lon="15.260604980894454"><ele>33.0</ele><time>2026-04-12T10:51:07.834Z</time></trkpt><trkpt lat="37.82754876687491" lon="15.260562255038717"><ele>33.0</ele><time>2026-04-12T10:51:08.834Z</time></trkpt><trkpt lat="37.827630286744004" lon="15.260422502002378"><ele>33.5</ele><time>2026-04-12T10:51:09.834Z</time></trkpt><trkpt lat="37.827729678980674" lon="15.260298039561135"><ele>34.0</ele><time>2026-04-12T10:51:10.834Z</time></trkpt><trkpt lat="37.8278412883776" lon="15.260157917533405"><ele>34.5</ele><time>2026-04-12T10:51:11.834Z</time></trkpt><trkpt lat="37.82794149310566" lon="15.260035341220947"><ele>35.0</ele><time>2026-04-12T10:51:12.834Z</time></trkpt><trkpt lat="37.82803084501843" lon="15.259947621083597"><ele>35.0</ele><time>2026-04-12T10:51:13.834Z</time></trkpt><trkpt lat="37.82809164185608" lon="15.259858312905047"><ele>35.0</ele><time>2026-04-12T10:51:14.834Z</time></trkpt><trkpt lat="37.82814115571426" lon="15.259789162996386"><ele>35.0</ele><time>2026-04-12T10:51:15.834Z</time></trkpt><trkpt lat="37.828189517374724" lon="15.259727428317602"><ele>35.0</ele><time>2026-04-12T10:51:16.834Z</time></trkpt><trkpt lat="37.82826145334504" lon="15.25963773418194"><ele>35.0</ele><time>2026-04-12T10:51:18.834Z</time></trkpt><trkpt lat="37.82831466623718" lon="15.25968727962213"><ele>35.0</ele><time>2026-04-12T10:55:50.831Z</time></trkpt><trkpt lat="37.82836856095024" lon="15.259602925608617"><ele>35.0</ele><time>2026-04-12T10:55:52.831Z</time></trkpt><trkpt lat="37.828382969676674" lon="15.259501337055438"><ele>35.0</ele><time>2026-04-12T10:55:53.831Z</time></trkpt><trkpt lat="37.828440932589196" lon="15.259438960723505"><ele>35.0</ele><time>2026-04-12T10:55:54.831Z</time></trkpt><trkpt lat="37.828498609664365" lon="15.259376891990554"><ele>35.0</ele><time>2026-04-12T10:55:55.831Z</time></trkpt><trkpt lat="37.82856869239444" lon="15.259310421391262"><ele>35.0</ele><time>2026-04-12T10:55:56.831Z</time></trkpt><trkpt lat="37.828636423061816" lon="15.25923556462592"><ele>35.0</ele><time>2026-04-12T10:55:57.831Z</time></trkpt><trkpt lat="37.8286983549018" lon="15.259150024259664"><ele>36.0</ele><time>2026-04-12T10:55:58.831Z</time></trkpt><trkpt lat="37.82876014313038" lon="15.259067437577986"><ele>37.0</ele><time>2026-04-12T10:55:59.831Z</time></trkpt><trkpt lat="37.82882438951575" lon="15.258977521774037"><ele>38.0</ele><time>2026-04-12T10:56:00.831Z</time></trkpt><trkpt lat="37.82888912516791" lon="15.258850173321424"><ele>39.0</ele><time>2026-04-12T10:56:01.831Z</time></trkpt><trkpt lat="37.82894927882826" lon="15.258704071417935"><ele>40.0</ele><time>2026-04-12T10:56:02.831Z</time></trkpt><trkpt lat="37.82902308911774" lon="15.258542301932323"><ele>40.0</ele><time>2026-04-12T10:56:03.831Z</time></trkpt><trkpt lat="37.82911120814434" lon="15.258374076792222"><ele>40.0</ele><time>2026-04-12T10:56:04.834Z</time></trkpt><trkpt lat="37.82922803179017" lon="15.258217770927928"><ele>40.0</ele><time>2026-04-12T10:56:05.833Z</time></trkpt><trkpt lat="37.82934986680942" lon="15.258052147954716"><ele>40.66666666666667</ele><time>2026-04-12T10:56:06.833Z</time></trkpt><trkpt lat="37.82949679104264" lon="15.257862980145177"><ele>41.333333333333336</ele><time>2026-04-12T10:56:07.833Z</time></trkpt><trkpt lat="37.829654007086106" lon="15.257642961633978"><ele>42.0</ele><time>2026-04-12T10:56:08.834Z</time></trkpt><trkpt lat="37.82983545864899" lon="15.257433439983105"><ele>42.0</ele><time>2026-04-12T10:56:09.834Z</time></trkpt><trkpt lat="37.83002034444229" lon="15.257209275874065"><ele>42.0</ele><time>2026-04-12T10:56:10.833Z</time></trkpt><trkpt lat="37.83019752266385" lon="15.257006825677378"><ele>43.0</ele><time>2026-04-12T10:56:11.834Z</time></trkpt><trkpt lat="37.83036031747466" lon="15.25682601558232"><ele>44.0</ele><time>2026-04-12T10:56:12.834Z</time></trkpt><trkpt lat="37.83050031386635" lon="15.256644114138393"><ele>45.0</ele><time>2026-04-12T10:56:13.834Z</time></trkpt><trkpt lat="37.83066096593304" lon="15.256487506724852"><ele>45.666666666666664</ele><time>2026-04-12T10:56:14.833Z</time></trkpt><trkpt lat="37.83084443185151" lon="15.256354836939408"><ele>46.33333333333333</ele><time>2026-04-12T10:56:15.833Z</time></trkpt><trkpt lat="37.83101700701097" lon="15.256199555205885"><ele>47.0</ele><time>2026-04-12T10:56:16.833Z</time></trkpt><trkpt lat="37.8312041522556" lon="15.256054827504213"><ele>47.33333333333333</ele><time>2026-04-12T10:56:17.833Z</time></trkpt><trkpt lat="37.83139127442069" lon="15.255904743536332"><ele>47.666666666666664</ele><time>2026-04-12T10:56:18.833Z</time></trkpt><trkpt lat="37.83157798091942" lon="15.255756306707164"><ele>48.0</ele><time>2026-04-12T10:56:19.833Z</time></trkpt><trkpt lat="37.831765951484634" lon="15.255596253569117"><ele>50.0</ele><time>2026-04-12T10:56:20.833Z</time></trkpt><trkpt lat="37.83194005103042" lon="15.255443551794544"><ele>52.0</ele><time>2026-04-12T10:56:21.833Z</time></trkpt><trkpt lat="37.83210955591275" lon="15.255302056898435"><ele>54.0</ele><time>2026-04-12T10:56:22.833Z</time></trkpt><trkpt lat="37.83225947968973" lon="15.255180152064312"><ele>54.0</ele><time>2026-04-12T10:56:23.833Z</time></trkpt><trkpt lat="37.83240307615356" lon="15.255120352240917"><ele>54.0</ele><time>2026-04-12T10:56:24.833Z</time></trkpt><trkpt lat="37.8325496316806" lon="15.255101772480764"><ele>54.0</ele><time>2026-04-12T10:56:25.833Z</time></trkpt><trkpt lat="37.83271725029568" lon="15.255127585841038"><ele>54.66666666666667</ele><time>2026-04-12T10:56:26.833Z</time></trkpt><trkpt lat="37.83289645323997" lon="15.255188171363002"><ele>55.333333333333336</ele><time>2026-04-12T10:56:27.833Z</time></trkpt><trkpt lat="37.833071652916864" lon="15.25529293878617"><ele>56.0</ele><time>2026-04-12T10:56:28.833Z</time></trkpt><trkpt lat="37.83323908809126" lon="15.255424736246768"><ele>56.0</ele><time>2026-04-12T10:56:29.833Z</time></trkpt><trkpt lat="37.83342206372533" lon="15.255585813238515"><ele>56.0</ele><time>2026-04-12T10:56:30.833Z</time></trkpt><trkpt lat="37.833609948773244" lon="15.255773479931523"><ele>55.0</ele><time>2026-04-12T10:56:31.833Z</time></trkpt><trkpt lat="37.83383189968744" lon="15.255959922034139"><ele>54.0</ele><time>2026-04-12T10:56:32.833Z</time></trkpt><trkpt lat="37.83403576544965" lon="15.256174315072684"><ele>54.0</ele><time>2026-04-12T10:56:33.833Z</time></trkpt><trkpt lat="37.834247794664606" lon="15.2563969369774"><ele>54.0</ele><time>2026-04-12T10:56:34.833Z</time></trkpt><trkpt lat="37.83446511848685" lon="15.256628320209968"><ele>55.0</ele><time>2026-04-12T10:56:35.833Z</time></trkpt><trkpt lat="37.83468400118182" lon="15.256866312613159"><ele>56.0</ele><time>2026-04-12T10:56:36.833Z</time></trkpt><trkpt lat="37.83490362750876" lon="15.257112145343195"><ele>55.5</ele><time>2026-04-12T10:56:37.833Z</time></trkpt><trkpt lat="37.835129485137095" lon="15.257355400934348"><ele>55.0</ele><time>2026-04-12T10:56:38.833Z</time></trkpt><trkpt lat="37.835365582459445" lon="15.257595594904274"><ele>56.0</ele><time>2026-04-12T10:56:39.833Z</time></trkpt><trkpt lat="37.83561039803641" lon="15.257829184041654"><ele>57.0</ele><time>2026-04-12T10:56:40.833Z</time></trkpt><trkpt lat="37.835870599471505" lon="15.258057540578687"><ele>54.5</ele><time>2026-04-12T10:56:41.833Z</time></trkpt><trkpt lat="37.836132006330374" lon="15.25827726441977"><ele>52.0</ele><time>2026-04-12T10:56:42.832Z</time></trkpt><trkpt lat="37.836395872721766" lon="15.258483542291827"><ele>52.0</ele><time>2026-04-12T10:56:43.832Z</time></trkpt><trkpt lat="37.83666432123573" lon="15.258681971574084"><ele>52.0</ele><time>2026-04-12T10:56:44.832Z</time></trkpt><trkpt lat="37.8369366191358" lon="15.258877736679937"><ele>58.5</ele><time>2026-04-12T10:56:45.832Z</time></trkpt><trkpt lat="37.83720655882422" lon="15.259074964459256"><ele>65.0</ele><time>2026-04-12T10:56:46.832Z</time></trkpt><trkpt lat="37.83747077972001" lon="15.259284458426126"><ele>74.0</ele><time>2026-04-12T10:56:47.832Z</time></trkpt><trkpt lat="37.83772384152023" lon="15.259516340617063"><ele>83.0</ele><time>2026-04-12T10:56:48.832Z</time></trkpt><trkpt lat="37.8379691712168" lon="15.259778390576061"><ele>76.5</ele><time>2026-04-12T10:56:49.832Z</time></trkpt><trkpt lat="37.83820092466222" lon="15.26007327296455"><ele>70.0</ele><time>2026-04-12T10:56:50.832Z</time></trkpt><trkpt lat="37.838418633078504" lon="15.260394524347499"><ele>70.0</ele><time>2026-04-12T10:56:51.832Z</time></trkpt><trkpt lat="37.83861612175897" lon="15.260730309287096"><ele>70.0</ele><time>2026-04-12T10:56:52.832Z</time></trkpt><trkpt lat="37.83879435109784" lon="15.261094999654079"><ele>66.0</ele><time>2026-04-12T10:56:53.832Z</time></trkpt><trkpt lat="37.83895098906213" lon="15.261478070181413"><ele>62.0</ele><time>2026-04-12T10:56:54.832Z</time></trkpt><trkpt lat="37.83908158238865" lon="15.261885551183829"><ele>60.5</ele><time>2026-04-12T10:56:55.832Z</time></trkpt><trkpt lat="37.839197668705125" lon="15.262302811069498"><ele>59.0</ele><time>2026-04-12T10:56:56.832Z</time></trkpt><trkpt lat="37.83928972951032" lon="15.262728298983625"><ele>77.0</ele><time>2026-04-12T10:56:57.832Z</time></trkpt><trkpt lat="37.839353657740546" lon="15.263151513492197"><ele>95.0</ele><time>2026-04-12T10:56:58.832Z</time></trkpt><trkpt lat="37.839405586321476" lon="15.263564343003164"><ele>93.0</ele><time>2026-04-12T10:56:59.832Z</time></trkpt><trkpt lat="37.83944584856452" lon="15.263980085186255"><ele>91.0</ele><time>2026-04-12T10:57:00.832Z</time></trkpt><trkpt lat="37.83949031826779" lon="15.26439289589774"><ele>82.0</ele><time>2026-04-12T10:57:01.832Z</time></trkpt><trkpt lat="37.83954024877138" lon="15.264805127170474"><ele>73.0</ele><time>2026-04-12T10:57:02.832Z</time></trkpt><trkpt lat="37.83960091660899" lon="15.26520742721072"><ele>73.0</ele><time>2026-04-12T10:57:03.832Z</time></trkpt><trkpt lat="37.839661343243364" lon="15.265608177561505"><ele>73.0</ele><time>2026-04-12T10:57:04.832Z</time></trkpt><trkpt lat="37.83974601007379" lon="15.266001504003508"><ele>65.0</ele><time>2026-04-12T10:57:05.832Z</time></trkpt><trkpt lat="37.839858120759416" lon="15.266387757001697"><ele>57.0</ele><time>2026-04-12T10:57:06.832Z</time></trkpt><trkpt lat="37.83999536450898" lon="15.26675861495895"><ele>68.5</ele><time>2026-04-12T10:57:07.832Z</time></trkpt><trkpt lat="37.8401526929862" lon="15.26712274374614"><ele>80.0</ele><time>2026-04-12T10:57:08.832Z</time></trkpt><trkpt lat="37.840327845070725" lon="15.267481291024254"><ele>79.0</ele><time>2026-04-12T10:57:09.832Z</time></trkpt><trkpt lat="37.840515208444266" lon="15.267823957097352"><ele>78.0</ele><time>2026-04-12T10:57:10.832Z</time></trkpt><trkpt lat="37.84072933784354" lon="15.268148566752577"><ele>92.5</ele><time>2026-04-12T10:57:11.832Z</time></trkpt><trkpt lat="37.84097043845633" lon="15.268455410112967"><ele>107.0</ele><time>2026-04-12T10:57:12.832Z</time></trkpt><trkpt lat="37.84122818189021" lon="15.268725302638076"><ele>99.0</ele><time>2026-04-12T10:57:13.832Z</time></trkpt><trkpt lat="37.84149204352416" lon="15.268970880033638"><ele>91.0</ele><time>2026-04-12T10:57:14.832Z</time></trkpt><trkpt lat="37.84179164281276" lon="15.269179575162704"><ele>100.0</ele><time>2026-04-12T10:57:15.831Z</time></trkpt><trkpt lat="37.842095950802864" lon="15.269371520453763"><ele>109.0</ele><time>2026-04-12T10:57:16.831Z</time></trkpt><trkpt lat="37.84240365545031" lon="15.26956693712848"><ele>121.0</ele><time>2026-04-12T10:57:17.831Z</time></trkpt><trkpt lat="37.842697494745444" lon="15.26977148728276"><ele>133.0</ele><time>2026-04-12T10:57:18.831Z</time></trkpt><trkpt lat="37.84299474728739" lon="15.269980122395669"><ele>140.5</ele><time>2026-04-12T10:57:19.831Z</time></trkpt><trkpt lat="37.843285751260304" lon="15.27018211698711"><ele>148.0</ele><time>2026-04-12T10:57:20.831Z</time></trkpt><trkpt lat="37.843579654290515" lon="15.270385341623196"><ele>154.0</ele><time>2026-04-12T10:57:21.831Z</time></trkpt><trkpt lat="37.84387660371876" lon="15.270595121861087"><ele>160.0</ele><time>2026-04-12T10:57:22.831Z</time></trkpt><trkpt lat="37.844167233407944" lon="15.270801999311749"><ele>171.5</ele><time>2026-04-12T10:57:23.831Z</time></trkpt><trkpt lat="37.844512636285636" lon="15.271056125481845"><ele>183.0</ele><time>2026-04-12T10:57:24.976Z</time></trkpt><trkpt lat="37.844829420811124" lon="15.271246710674198"><ele>184.5</ele><time>2026-04-12T10:57:25.976Z</time></trkpt><trkpt lat="37.845125953480974" lon="15.271459370356991"><ele>186.0</ele><time>2026-04-12T10:57:26.976Z</time></trkpt><trkpt lat="37.845418019735014" lon="15.271676007433117"><ele>117.0</ele><time>2026-04-12T10:57:27.976Z</time></trkpt><trkpt lat="37.847633286063356" lon="15.27340943608785"><ele>117.0</ele><time>2026-04-12T10:57:34.831Z</time></trkpt><trkpt lat="37.84793220784502" lon="15.273675182306443"><ele>117.0</ele><time>2026-04-12T10:57:35.831Z</time></trkpt><trkpt lat="37.84823634004054" lon="15.273926023811448"><ele>113.5</ele><time>2026-04-12T10:57:36.831Z</time></trkpt><trkpt lat="37.84852418226296" lon="15.27421371315203"><ele>110.0</ele><time>2026-04-12T10:57:37.831Z</time></trkpt><trkpt lat="37.84879985134864" lon="15.27449757865103"><ele>100.0</ele><time>2026-04-12T10:57:38.831Z</time></trkpt><trkpt lat="37.84907178589281" lon="15.274779838831952"><ele>90.0</ele><time>2026-04-12T10:57:39.831Z</time></trkpt><trkpt lat="37.849335521779565" lon="15.275064467642087"><ele>85.5</ele><time>2026-04-12T10:57:40.831Z</time></trkpt><trkpt lat="37.849600704167734" lon="15.27535135165679"><ele>81.0</ele><time>2026-04-12T10:57:41.831Z</time></trkpt><trkpt lat="37.84985831054878" lon="15.275632670094641"><ele>79.5</ele><time>2026-04-12T10:57:42.831Z</time></trkpt><trkpt lat="37.850108342803" lon="15.275919927698034"><ele>78.0</ele><time>2026-04-12T10:57:43.831Z</time></trkpt><trkpt lat="37.850334320649154" lon="15.276212719948306"><ele>91.0</ele><time>2026-04-12T10:57:44.831Z</time></trkpt><trkpt lat="37.85056325562276" lon="15.276488455948467"><ele>104.0</ele><time>2026-04-12T10:57:45.831Z</time></trkpt><trkpt lat="37.85077687934606" lon="15.276759797452929"><ele>117.0</ele><time>2026-04-12T10:57:46.831Z</time></trkpt><trkpt lat="37.850978909589976" lon="15.277019397002924"><ele>130.0</ele><time>2026-04-12T10:57:47.83Z</time></trkpt><trkpt lat="37.85118837756722" lon="15.277273316877254"><ele>150.0</ele><time>2026-04-12T10:57:48.83Z</time></trkpt><trkpt lat="37.85139737551927" lon="15.277529836463465"><ele>170.0</ele><time>2026-04-12T10:57:49.83Z</time></trkpt><trkpt lat="37.851605916337704" lon="15.277784306806671"><ele>170.0</ele><time>2026-04-12T10:57:50.83Z</time></trkpt><trkpt lat="37.85178138034292" lon="15.278069788426"><ele>170.0</ele><time>2026-04-12T10:57:51.83Z</time></trkpt><trkpt lat="37.851967386478506" lon="15.278343727873244"><ele>203.5</ele><time>2026-04-12T10:57:52.83Z</time></trkpt><trkpt lat="37.85214814649441" lon="15.278615558318114"><ele>237.0</ele><time>2026-04-12T10:57:53.83Z</time></trkpt><trkpt lat="37.8523186710387" lon="15.27888062362914"><ele>246.5</ele><time>2026-04-12T10:57:54.83Z</time></trkpt><trkpt lat="37.85252176050313" lon="15.279203144690948"><ele>256.0</ele><time>2026-04-12T10:57:55.975Z</time></trkpt><trkpt lat="37.85269277811837" lon="15.279480505933789"><ele>257.5</ele><time>2026-04-12T10:57:56.975Z</time></trkpt><trkpt lat="37.85285795299855" lon="15.279757244559255"><ele>259.0</ele><time>2026-04-12T10:57:57.975Z</time></trkpt><trkpt lat="37.85393649400961" lon="15.281924412033582"><ele>330.0</ele><time>2026-04-12T10:58:01.521Z</time></trkpt><trkpt lat="37.85430334651269" lon="15.282703601784654"><ele>342.0</ele><time>2026-04-12T10:58:02.518Z</time></trkpt><trkpt lat="37.85465192551577" lon="15.28350348117144"><ele>362.0</ele><time>2026-04-12T10:58:03.522Z</time></trkpt><trkpt lat="37.85498334075455" lon="15.284310601835179"><ele>296.0</ele><time>2026-04-12T10:58:04.522Z</time></trkpt><trkpt lat="37.855313077883956" lon="15.285118945696851"><ele>266.0</ele><time>2026-04-12T10:58:05.522Z</time></trkpt><trkpt lat="37.85564367774091" lon="15.285926688370925"><ele>204.0</ele><time>2026-04-12T10:58:06.522Z</time></trkpt><trkpt lat="37.85597228020773" lon="15.286730693686842"><ele>178.0</ele><time>2026-04-12T10:58:07.517Z</time></trkpt><trkpt lat="37.856303066507586" lon="15.287542232613726"><ele>176.0</ele><time>2026-04-12T10:58:08.521Z</time></trkpt><trkpt lat="37.856634018640044" lon="15.28835080469828"><ele>150.0</ele><time>2026-04-12T10:58:09.522Z</time></trkpt><trkpt lat="37.856962997557794" lon="15.289159689205261"><ele>137.0</ele><time>2026-04-12T10:58:10.522Z</time></trkpt><trkpt lat="37.85730159963409" lon="15.289961733590552"><ele>102.0</ele><time>2026-04-12T10:58:11.522Z</time></trkpt><trkpt lat="37.85769093007882" lon="15.290725251010816"><ele>89.0</ele><time>2026-04-12T10:58:12.521Z</time></trkpt><trkpt lat="37.85813741266928" lon="15.291439029644662"><ele>68.0</ele><time>2026-04-12T10:58:13.522Z</time></trkpt><trkpt lat="37.85946925778029" lon="15.292966236766143"><ele>61.0</ele><time>2026-04-12T10:58:57.828Z</time></trkpt><trkpt lat="37.859655475894414" lon="15.293196542728111"><ele>54.0</ele><time>2026-04-12T10:58:58.828Z</time></trkpt><trkpt lat="37.859877350488794" lon="15.293410658766293"><ele>49.0</ele><time>2026-04-12T10:58:59.828Z</time></trkpt><trkpt lat="37.86013310335751" lon="15.293599872666707"><ele>44.0</ele><time>2026-04-12T10:59:00.828Z</time></trkpt><trkpt lat="37.86039854864153" lon="15.293785108861833"><ele>43.5</ele><time>2026-04-12T10:59:01.828Z</time></trkpt><trkpt lat="37.86067230748593" lon="15.293958501447372"><ele>43.0</ele><time>2026-04-12T10:59:02.832Z</time></trkpt><trkpt lat="37.860958289880024" lon="15.294120268461148"><ele>52.0</ele><time>2026-04-12T10:59:03.831Z</time></trkpt><trkpt lat="37.86125154021003" lon="15.294281993173678"><ele>61.0</ele><time>2026-04-12T10:59:04.831Z</time></trkpt><trkpt lat="37.86155652540728" lon="15.294447285048001"><ele>63.5</ele><time>2026-04-12T10:59:05.832Z</time></trkpt><trkpt lat="37.86186576059845" lon="15.294603948078299"><ele>66.0</ele><time>2026-04-12T10:59:06.832Z</time></trkpt><trkpt lat="37.862172903622" lon="15.294754619857011"><ele>66.0</ele><time>2026-04-12T10:59:07.832Z</time></trkpt><trkpt lat="37.86248090356826" lon="15.294908632139574"><ele>66.0</ele><time>2026-04-12T10:59:08.832Z</time></trkpt><trkpt lat="37.86280284591852" lon="15.29499659117112"><ele>58.5</ele><time>2026-04-12T10:59:09.832Z</time></trkpt><trkpt lat="37.863112363805584" lon="15.295103430961781"><ele>51.0</ele><time>2026-04-12T10:59:10.832Z</time></trkpt><trkpt lat="37.86341718935195" lon="15.29521160774563"><ele>51.0</ele><time>2026-04-12T10:59:11.832Z</time></trkpt><trkpt lat="37.863732757158715" lon="15.295326917898072"><ele>51.0</ele><time>2026-04-12T10:59:12.832Z</time></trkpt><trkpt lat="37.864184145733425" lon="15.295503764544586"><ele>47.0</ele><time>2026-04-12T10:59:13.832Z</time></trkpt><trkpt lat="37.864570887583014" lon="15.295696539358167"><ele>43.0</ele><time>2026-04-12T10:59:14.832Z</time></trkpt><trkpt lat="37.86492829069992" lon="15.295899937151704"><ele>48.0</ele><time>2026-04-12T10:59:15.832Z</time></trkpt><trkpt lat="37.865290430218934" lon="15.296098857107545"><ele>53.0</ele><time>2026-04-12T10:59:16.832Z</time></trkpt><trkpt lat="37.865647697214044" lon="15.296306245853021"><ele>46.5</ele><time>2026-04-12T10:59:17.832Z</time></trkpt><trkpt lat="37.8659906032008" lon="15.296504853751614"><ele>40.0</ele><time>2026-04-12T10:59:18.832Z</time></trkpt><trkpt lat="37.866333354897904" lon="15.296695018543579"><ele>40.0</ele><time>2026-04-12T10:59:19.832Z</time></trkpt><trkpt lat="37.86667297038836" lon="15.29687697637772"><ele>40.0</ele><time>2026-04-12T10:59:20.832Z</time></trkpt><trkpt lat="37.86701077802442" lon="15.297060758190119"><ele>40.5</ele><time>2026-04-12T10:59:21.832Z</time></trkpt><trkpt lat="37.86734692086347" lon="15.297248098626197"><ele>41.0</ele><time>2026-04-12T10:59:22.832Z</time></trkpt><trkpt lat="37.86768835661507" lon="15.297442351187328"><ele>41.0</ele><time>2026-04-12T10:59:23.832Z</time></trkpt><trkpt lat="37.86802622946236" lon="15.297641703302489"><ele>41.0</ele><time>2026-04-12T10:59:24.832Z</time></trkpt><trkpt lat="37.86836996138473" lon="15.297809543051601"><ele>48.0</ele><time>2026-04-12T10:59:25.832Z</time></trkpt><trkpt lat="37.868747006086146" lon="15.297969549382625"><ele>55.0</ele><time>2026-04-12T10:59:26.832Z</time></trkpt><trkpt lat="37.86916651363785" lon="15.298136534855292"><ele>43.5</ele><time>2026-04-12T10:59:27.832Z</time></trkpt><trkpt lat="37.8695840998354" lon="15.298285890375455"><ele>32.0</ele><time>2026-04-12T10:59:28.832Z</time></trkpt><trkpt lat="37.869978606572055" lon="15.298453977266902"><ele>41.0</ele><time>2026-04-12T10:59:29.832Z</time></trkpt><trkpt lat="37.87038087283719" lon="15.29861847602985"><ele>50.0</ele><time>2026-04-12T10:59:30.832Z</time></trkpt><trkpt lat="37.87077867804453" lon="15.2987865044098"><ele>37.5</ele><time>2026-04-12T10:59:31.832Z</time></trkpt><trkpt lat="37.87118212415285" lon="15.298953076428555"><ele>25.0</ele><time>2026-04-12T10:59:32.832Z</time></trkpt><trkpt lat="37.871576893388585" lon="15.299131295816132"><ele>31.0</ele><time>2026-04-12T10:59:33.832Z</time></trkpt><trkpt lat="37.87195590538262" lon="15.299328325785165"><ele>37.0</ele><time>2026-04-12T10:59:34.832Z</time></trkpt><trkpt lat="37.87233104927266" lon="15.299536550188357"><ele>33.0</ele><time>2026-04-12T10:59:35.832Z</time></trkpt><trkpt lat="37.872702000087195" lon="15.299763296960668"><ele>29.0</ele><time>2026-04-12T10:59:36.832Z</time></trkpt><trkpt lat="37.873068012368506" lon="15.300006172346908"><ele>29.0</ele><time>2026-04-12T10:59:37.832Z</time></trkpt><trkpt lat="37.873431452725434" lon="15.30022807402556"><ele>29.0</ele><time>2026-04-12T10:59:38.831Z</time></trkpt><trkpt lat="37.87379210620563" lon="15.30045661688411"><ele>30.0</ele><time>2026-04-12T10:59:39.831Z</time></trkpt><trkpt lat="37.87414946216253" lon="15.300675082804498"><ele>31.0</ele><time>2026-04-12T10:59:40.831Z</time></trkpt><trkpt lat="37.874509176505086" lon="15.300893530180561"><ele>38.0</ele><time>2026-04-12T10:59:41.831Z</time></trkpt><trkpt lat="37.87487794000081" lon="15.301079915656713"><ele>45.0</ele><time>2026-04-12T10:59:42.831Z</time></trkpt><trkpt lat="37.87526131720009" lon="15.301244393579884"><ele>45.0</ele><time>2026-04-12T10:59:43.831Z</time></trkpt><trkpt lat="37.87565174729458" lon="15.301407281029576"><ele>45.0</ele><time>2026-04-12T10:59:44.831Z</time></trkpt><trkpt lat="37.87603891324565" lon="15.301571805329889"><ele>49.0</ele><time>2026-04-12T10:59:45.831Z</time></trkpt><trkpt lat="37.87643029812615" lon="15.301745769362167"><ele>53.0</ele><time>2026-04-12T10:59:46.831Z</time></trkpt><trkpt lat="37.876818823421104" lon="15.301924563811918"><ele>53.0</ele><time>2026-04-12T10:59:47.831Z</time></trkpt><trkpt lat="37.877210720249174" lon="15.30210271393273"><ele>53.0</ele><time>2026-04-12T10:59:48.831Z</time></trkpt><trkpt lat="37.87759815104458" lon="15.302278862843362"><ele>45.5</ele><time>2026-04-12T10:59:49.831Z</time></trkpt><trkpt lat="37.8779758437594" lon="15.302444255645339"><ele>38.0</ele><time>2026-04-12T10:59:50.831Z</time></trkpt><trkpt lat="37.87835017700373" lon="15.30261277809341"><ele>38.0</ele><time>2026-04-12T10:59:51.831Z</time></trkpt><trkpt lat="37.878719530540835" lon="15.302777488962755"><ele>38.0</ele><time>2026-04-12T10:59:52.831Z</time></trkpt><trkpt lat="37.87908074815979" lon="15.30294642874735"><ele>31.5</ele><time>2026-04-12T10:59:53.831Z</time></trkpt><trkpt lat="37.87943317327729" lon="15.303119485384082"><ele>25.0</ele><time>2026-04-12T10:59:54.831Z</time></trkpt><trkpt lat="37.87978122611905" lon="15.303300351538716"><ele>22.5</ele><time>2026-04-12T10:59:55.831Z</time></trkpt><trkpt lat="37.88011430246323" lon="15.303505503245045"><ele>20.0</ele><time>2026-04-12T10:59:56.831Z</time></trkpt><trkpt lat="37.88042949586469" lon="15.303745721845598"><ele>26.5</ele><time>2026-04-12T10:59:57.831Z</time></trkpt><trkpt lat="37.88073212854492" lon="15.30402659921932"><ele>33.0</ele><time>2026-04-12T10:59:58.831Z</time></trkpt><trkpt lat="37.88101192895232" lon="15.304337745824089"><ele>33.0</ele><time>2026-04-12T10:59:59.831Z</time></trkpt><trkpt lat="37.88126391429397" lon="15.304686607910979"><ele>33.0</ele><time>2026-04-12T11:00:00.831Z</time></trkpt><trkpt lat="37.88150137339269" lon="15.305059617669759"><ele>29.0</ele><time>2026-04-12T11:00:01.831Z</time></trkpt><trkpt lat="37.88171704568438" lon="15.3054540375106"><ele>25.0</ele><time>2026-04-12T11:00:02.831Z</time></trkpt><trkpt lat="37.88191737189885" lon="15.305858924860797"><ele>38.0</ele><time>2026-04-12T11:00:03.831Z</time></trkpt><trkpt lat="37.88210080237505" lon="15.306275240966906"><ele>51.0</ele><time>2026-04-12T11:00:04.831Z</time></trkpt><trkpt lat="37.88228577675736" lon="15.30668107727521"><ele>55.5</ele><time>2026-04-12T11:00:05.831Z</time></trkpt><trkpt lat="37.88247520797411" lon="15.307070690649615"><ele>60.0</ele><time>2026-04-12T11:00:06.831Z</time></trkpt><trkpt lat="37.88265830732857" lon="15.307435806539079"><ele>64.5</ele><time>2026-04-12T11:00:07.831Z</time></trkpt><trkpt lat="37.88284810969386" lon="15.307781501655919"><ele>69.0</ele><time>2026-04-12T11:00:08.831Z</time></trkpt><trkpt lat="37.883070952884125" lon="15.308111696509062"><ele>60.5</ele><time>2026-04-12T11:00:09.831Z</time></trkpt><trkpt lat="37.883316557916025" lon="15.30841605158597"><ele>52.0</ele><time>2026-04-12T11:00:10.83Z</time></trkpt><trkpt lat="37.88358334525531" lon="15.308693354667191"><ele>52.0</ele><time>2026-04-12T11:00:11.83Z</time></trkpt><trkpt lat="37.88384590399734" lon="15.308968219841246"><ele>52.0</ele><time>2026-04-12T11:00:12.83Z</time></trkpt><trkpt lat="37.88409272675932" lon="15.309247011162839"><ele>52.0</ele><time>2026-04-12T11:00:13.83Z</time></trkpt><trkpt lat="37.88423865057282" lon="15.30964457296026"><ele>52.0</ele><time>2026-04-12T11:00:14.83Z</time></trkpt><trkpt lat="37.88441607689441" lon="15.309923177169042"><ele>60.0</ele><time>2026-04-12T11:00:15.83Z</time></trkpt><trkpt lat="37.884778482874076" lon="15.310274835712141"><ele>60.0</ele><time>2026-04-12T11:00:16.83Z</time></trkpt><trkpt lat="37.88501777037109" lon="15.310135059360125"><ele>60.0</ele><time>2026-04-12T11:00:17.83Z</time></trkpt><trkpt lat="37.88533275397324" lon="15.310121021527962"><ele>65.0</ele><time>2026-04-12T11:00:18.83Z</time></trkpt><trkpt lat="37.88557251899268" lon="15.310933094384488"><ele>65.0</ele><time>2026-04-12T11:00:19.83Z</time></trkpt><trkpt lat="37.88583737250015" lon="15.311236583577982"><ele>65.0</ele><time>2026-04-12T11:00:20.83Z</time></trkpt><trkpt lat="37.886108969540906" lon="15.311543277684974"><ele>68.0</ele><time>2026-04-12T11:00:21.83Z</time></trkpt><trkpt lat="37.88638232673984" lon="15.31185397638025"><ele>71.0</ele><time>2026-04-12T11:00:22.83Z</time></trkpt><trkpt lat="37.886646251494234" lon="15.312164876909232"><ele>68.5</ele><time>2026-04-12T11:00:23.83Z</time></trkpt><trkpt lat="37.88690768587338" lon="15.312464774112728"><ele>66.0</ele><time>2026-04-12T11:00:24.83Z</time></trkpt><trkpt lat="37.88716461286313" lon="15.31277188971249"><ele>61.0</ele><time>2026-04-12T11:00:25.83Z</time></trkpt><trkpt lat="37.88741142583677" lon="15.313089490140689"><ele>56.0</ele><time>2026-04-12T11:00:26.83Z</time></trkpt><trkpt lat="37.887646788724915" lon="15.313431996533938"><ele>56.0</ele><time>2026-04-12T11:00:27.83Z</time></trkpt><trkpt lat="37.887868886277495" lon="15.313802335517204"><ele>56.0</ele><time>2026-04-12T11:00:28.83Z</time></trkpt><trkpt lat="37.88807959724442" lon="15.314190913737685"><ele>59.5</ele><time>2026-04-12T11:00:29.83Z</time></trkpt><trkpt lat="37.888289464761925" lon="15.314592566066555"><ele>63.0</ele><time>2026-04-12T11:00:30.83Z</time></trkpt><trkpt lat="37.88849690589035" lon="15.314986566972951"><ele>63.0</ele><time>2026-04-12T11:00:31.83Z</time></trkpt><trkpt lat="37.888707722660115" lon="15.315362786452773"><ele>63.0</ele><time>2026-04-12T11:00:32.83Z</time></trkpt><trkpt lat="37.88891947193906" lon="15.315733371393437"><ele>59.0</ele><time>2026-04-12T11:00:33.83Z</time></trkpt><trkpt lat="37.88913441579489" lon="15.316089739637729"><ele>55.0</ele><time>2026-04-12T11:00:34.83Z</time></trkpt><trkpt lat="37.889357078148876" lon="15.316438257097149"><ele>53.5</ele><time>2026-04-12T11:00:35.83Z</time></trkpt><trkpt lat="37.88959743172128" lon="15.316781197535446"><ele>52.0</ele><time>2026-04-12T11:00:36.83Z</time></trkpt><trkpt lat="37.88986125850523" lon="15.317123159201424"><ele>52.0</ele><time>2026-04-12T11:00:37.83Z</time></trkpt><trkpt lat="37.890141977879594" lon="15.317455147955028"><ele>52.0</ele><time>2026-04-12T11:00:38.83Z</time></trkpt><trkpt lat="37.89044051222503" lon="15.317776855872795"><ele>57.5</ele><time>2026-04-12T11:00:39.83Z</time></trkpt><trkpt lat="37.89075125542777" lon="15.318091584527492"><ele>63.0</ele><time>2026-04-12T11:00:40.83Z</time></trkpt><trkpt lat="37.89106719577113" lon="15.318407636309006"><ele>63.0</ele><time>2026-04-12T11:00:41.83Z</time></trkpt><trkpt lat="37.89137854625055" lon="15.318734494875503"><ele>63.0</ele><time>2026-04-12T11:00:42.829Z</time></trkpt><trkpt lat="37.89169361631162" lon="15.31906239121283"><ele>54.5</ele><time>2026-04-12T11:00:43.829Z</time></trkpt><trkpt lat="37.89201048357021" lon="15.319392283261232"><ele>46.0</ele><time>2026-04-12T11:00:44.829Z</time></trkpt><trkpt lat="37.89232713351806" lon="15.319724291800403"><ele>49.5</ele><time>2026-04-12T11:00:45.829Z</time></trkpt><trkpt lat="37.89264800125061" lon="15.320059118553715"><ele>53.0</ele><time>2026-04-12T11:00:46.829Z</time></trkpt><trkpt lat="37.89296790695435" lon="15.320392778893462"><ele>58.5</ele><time>2026-04-12T11:00:47.829Z</time></trkpt><trkpt lat="37.893288521763395" lon="15.320725281991374"><ele>64.0</ele><time>2026-04-12T11:00:48.829Z</time></trkpt><trkpt lat="37.89360881631861" lon="15.321058022934578"><ele>64.0</ele><time>2026-04-12T11:00:49.829Z</time></trkpt><trkpt lat="37.89392756551067" lon="15.321386114276809"><ele>64.0</ele><time>2026-04-12T11:00:50.829Z</time></trkpt><trkpt lat="37.89423876640882" lon="15.321706736613764"><ele>63.5</ele><time>2026-04-12T11:00:51.829Z</time></trkpt><trkpt lat="37.894545384695505" lon="15.322022812817313"><ele>63.0</ele><time>2026-04-12T11:00:52.829Z</time></trkpt><trkpt lat="37.89485562151629" lon="15.322337703924163"><ele>65.0</ele><time>2026-04-12T11:00:53.829Z</time></trkpt><trkpt lat="37.895174024689865" lon="15.322648909552024"><ele>67.0</ele><time>2026-04-12T11:00:54.829Z</time></trkpt><trkpt lat="37.895499282198735" lon="15.322956763910907"><ele>64.0</ele><time>2026-04-12T11:00:55.829Z</time></trkpt><trkpt lat="37.89583691579884" lon="15.323252606293424"><ele>61.0</ele><time>2026-04-12T11:00:56.829Z</time></trkpt><trkpt lat="37.89617913686041" lon="15.32354275175202"><ele>61.0</ele><time>2026-04-12T11:00:57.829Z</time></trkpt><trkpt lat="37.89652418332875" lon="15.323842271003604"><ele>61.0</ele><time>2026-04-12T11:00:58.829Z</time></trkpt><trkpt lat="37.89686685893937" lon="15.324144343076348"><ele>62.5</ele><time>2026-04-12T11:00:59.829Z</time></trkpt><trkpt lat="37.89720535759141" lon="15.324459663668645"><ele>64.0</ele><time>2026-04-12T11:01:00.829Z</time></trkpt><trkpt lat="37.89754224877225" lon="15.324782776025168"><ele>55.5</ele><time>2026-04-12T11:01:01.829Z</time></trkpt><trkpt lat="37.89788117181317" lon="15.325110623834297"><ele>47.0</ele><time>2026-04-12T11:01:02.829Z</time></trkpt><trkpt lat="37.89820719212017" lon="15.325454155651368"><ele>56.0</ele><time>2026-04-12T11:01:03.829Z</time></trkpt><trkpt lat="37.898512368128245" lon="15.325802677033636"><ele>65.0</ele><time>2026-04-12T11:01:04.829Z</time></trkpt><trkpt lat="37.89880433335597" lon="15.326143266173126"><ele>68.5</ele><time>2026-04-12T11:01:05.829Z</time></trkpt><trkpt lat="37.899095148577935" lon="15.326488586228265"><ele>72.0</ele><time>2026-04-12T11:01:06.829Z</time></trkpt><trkpt lat="37.899376899404096" lon="15.32682290816902"><ele>72.0</ele><time>2026-04-12T11:01:07.829Z</time></trkpt><trkpt lat="37.89965827296212" lon="15.327143107941115"><ele>72.0</ele><time>2026-04-12T11:01:08.831Z</time></trkpt><trkpt lat="37.89995963821985" lon="15.32745043599799"><ele>68.0</ele><time>2026-04-12T11:01:09.831Z</time></trkpt><trkpt lat="37.90027219246508" lon="15.327741996659562"><ele>64.0</ele><time>2026-04-12T11:01:10.831Z</time></trkpt><trkpt lat="37.900591519958475" lon="15.328017654127446"><ele>64.5</ele><time>2026-04-12T11:01:11.831Z</time></trkpt><trkpt lat="37.90090879465734" lon="15.328272654178585"><ele>65.0</ele><time>2026-04-12T11:01:12.831Z</time></trkpt><trkpt lat="37.90123604497916" lon="15.328505275415637"><ele>65.0</ele><time>2026-04-12T11:01:13.831Z</time></trkpt><trkpt lat="37.90156238440721" lon="15.328727505759941"><ele>65.0</ele><time>2026-04-12T11:01:14.831Z</time></trkpt><trkpt lat="37.90188569598916" lon="15.328951188606508"><ele>63.0</ele><time>2026-04-12T11:01:15.831Z</time></trkpt><trkpt lat="37.902210811536925" lon="15.329178839497397"><ele>61.0</ele><time>2026-04-12T11:01:16.831Z</time></trkpt><trkpt lat="37.90253900494036" lon="15.329410928813719"><ele>66.0</ele><time>2026-04-12T11:01:17.831Z</time></trkpt><trkpt lat="37.90286633863626" lon="15.329658002183859"><ele>71.0</ele><time>2026-04-12T11:01:18.831Z</time></trkpt><trkpt lat="37.90319592721855" lon="15.329912153277949"><ele>76.5</ele><time>2026-04-12T11:01:19.831Z</time></trkpt><trkpt lat="37.90352526684586" lon="15.330163757211945"><ele>82.0</ele><time>2026-04-12T11:01:20.831Z</time></trkpt><trkpt lat="37.903843937772045" lon="15.330419655034675"><ele>85.0</ele><time>2026-04-12T11:01:21.831Z</time></trkpt><trkpt lat="37.90415187893938" lon="15.330681599398677"><ele>88.0</ele><time>2026-04-12T11:01:22.831Z</time></trkpt><trkpt lat="37.904461896839024" lon="15.33094248539371"><ele>86.5</ele><time>2026-04-12T11:01:23.831Z</time></trkpt><trkpt lat="37.904746376569754" lon="15.331233979116009"><ele>85.0</ele><time>2026-04-12T11:01:24.831Z</time></trkpt><trkpt lat="37.90502489358084" lon="15.331529529632705"><ele>68.5</ele><time>2026-04-12T11:01:25.831Z</time></trkpt><trkpt lat="37.90529356658136" lon="15.331837659840911"><ele>52.0</ele><time>2026-04-12T11:01:26.831Z</time></trkpt><trkpt lat="37.90557238932619" lon="15.332166885130176"><ele>40.5</ele><time>2026-04-12T11:01:27.831Z</time></trkpt><trkpt lat="37.90584236326764" lon="15.332505458135408"><ele>29.0</ele><time>2026-04-12T11:01:28.831Z</time></trkpt><trkpt lat="37.90613216855558" lon="15.33289111617937"><ele>25.5</ele><time>2026-04-12T11:01:29.831Z</time></trkpt><trkpt lat="37.90636831023711" lon="15.33324407152101"><ele>22.0</ele><time>2026-04-12T11:01:30.831Z</time></trkpt><trkpt lat="37.906608945196105" lon="15.333626174878566"><ele>29.0</ele><time>2026-04-12T11:01:31.831Z</time></trkpt><trkpt lat="37.90685273847131" lon="15.334006980310683"><ele>36.0</ele><time>2026-04-12T11:01:32.831Z</time></trkpt><trkpt lat="37.90709075927806" lon="15.33439879677551"><ele>36.0</ele><time>2026-04-12T11:01:33.831Z</time></trkpt><trkpt lat="37.907327054147025" lon="15.33479572775037"><ele>36.0</ele><time>2026-04-12T11:01:34.831Z</time></trkpt><trkpt lat="37.90756744120787" lon="15.335200128428227"><ele>42.0</ele><time>2026-04-12T11:01:35.831Z</time></trkpt><trkpt lat="37.90780504906501" lon="15.335596429082173"><ele>48.0</ele><time>2026-04-12T11:01:36.831Z</time></trkpt><trkpt lat="37.90804530285651" lon="15.335986111454456"><ele>48.0</ele><time>2026-04-12T11:01:37.831Z</time></trkpt><trkpt lat="37.90828797518628" lon="15.336371758533305"><ele>48.0</ele><time>2026-04-12T11:01:38.831Z</time></trkpt><trkpt lat="37.90853428794236" lon="15.336749348856081"><ele>56.5</ele><time>2026-04-12T11:01:39.831Z</time></trkpt><trkpt lat="37.908783819035804" lon="15.337122450608758"><ele>65.0</ele><time>2026-04-12T11:01:40.831Z</time></trkpt><trkpt lat="37.90904105466479" lon="15.337485946275011"><ele>82.0</ele><time>2026-04-12T11:01:41.831Z</time></trkpt><trkpt lat="37.90929479607014" lon="15.337854687978618"><ele>99.0</ele><time>2026-04-12T11:01:42.831Z</time></trkpt><trkpt lat="37.90958337836583" lon="15.338168766815018"><ele>99.0</ele><time>2026-04-12T11:01:43.83Z</time></trkpt><trkpt lat="37.90987826017567" lon="15.338458856611767"><ele>99.0</ele><time>2026-04-12T11:01:44.83Z</time></trkpt><trkpt lat="37.910179860843336" lon="15.338729598615993"><ele>114.5</ele><time>2026-04-12T11:01:45.83Z</time></trkpt><trkpt lat="37.91047440930015" lon="15.338975399248023"><ele>130.0</ele><time>2026-04-12T11:01:46.83Z</time></trkpt><trkpt lat="37.91077015686187" lon="15.339196514062436"><ele>153.5</ele><time>2026-04-12T11:01:47.83Z</time></trkpt><trkpt lat="37.9110847046386" lon="15.339414921622964"><ele>177.0</ele><time>2026-04-12T11:01:48.83Z</time></trkpt><trkpt lat="37.91347158173277" lon="15.340971326131497"><ele>172.0</ele><time>2026-04-12T11:01:54.515Z</time></trkpt><trkpt lat="37.91410406070878" lon="15.341407446446723"><ele>133.0</ele><time>2026-04-12T11:01:55.515Z</time></trkpt><trkpt lat="37.91473545960306" lon="15.34184436475888"><ele>83.0</ele><time>2026-04-12T11:01:56.514Z</time></trkpt><trkpt lat="37.91536675463134" lon="15.342285114768513"><ele>60.0</ele><time>2026-04-12T11:01:57.515Z</time></trkpt><trkpt lat="37.91600310498353" lon="15.342710206544263"><ele>28.0</ele><time>2026-04-12T11:01:58.514Z</time></trkpt><trkpt lat="37.91693111483573" lon="15.34338011247221"><ele>28.0</ele><time>2026-04-12T11:02:05.83Z</time></trkpt><trkpt lat="37.917373095550346" lon="15.343381759453079"><ele>28.0</ele><time>2026-04-12T11:02:06.83Z</time></trkpt><trkpt lat="37.91779251248351" lon="15.343496841324905"><ele>32.0</ele><time>2026-04-12T11:02:07.83Z</time></trkpt><trkpt lat="37.91816112426546" lon="15.34361717672653"><ele>36.0</ele><time>2026-04-12T11:02:08.83Z</time></trkpt><trkpt lat="37.91852499941294" lon="15.343693752747134"><ele>41.5</ele><time>2026-04-12T11:02:09.83Z</time></trkpt><trkpt lat="37.91890263968272" lon="15.34375795452842"><ele>47.0</ele><time>2026-04-12T11:02:10.83Z</time></trkpt><trkpt lat="37.91927791238054" lon="15.343803022296095"><ele>48.0</ele><time>2026-04-12T11:02:11.83Z</time></trkpt><trkpt lat="37.919650320930074" lon="15.343837468815115"><ele>49.0</ele><time>2026-04-12T11:02:12.83Z</time></trkpt><trkpt lat="37.920014603129" lon="15.343871378318953"><ele>42.0</ele><time>2026-04-12T11:02:13.83Z</time></trkpt><trkpt lat="37.92036061804801" lon="15.343901686488415"><ele>35.0</ele><time>2026-04-12T11:02:14.83Z</time></trkpt><trkpt lat="37.92069198692307" lon="15.343940556604341"><ele>33.5</ele><time>2026-04-12T11:02:15.829Z</time></trkpt><trkpt lat="37.921016331340105" lon="15.343989483845007"><ele>32.0</ele><time>2026-04-12T11:02:16.829Z</time></trkpt><trkpt lat="37.92133900883035" lon="15.344068851339502"><ele>32.0</ele><time>2026-04-12T11:02:17.829Z</time></trkpt><trkpt lat="37.92165564687656" lon="15.344175200314051"><ele>32.0</ele><time>2026-04-12T11:02:18.829Z</time></trkpt><trkpt lat="37.92197500970734" lon="15.344315474486294"><ele>39.0</ele><time>2026-04-12T11:02:19.829Z</time></trkpt><trkpt lat="37.922286544134465" lon="15.344485874632941"><ele>46.0</ele><time>2026-04-12T11:02:20.829Z</time></trkpt><trkpt lat="37.92259298803061" lon="15.344691692690668"><ele>44.0</ele><time>2026-04-12T11:02:21.829Z</time></trkpt><trkpt lat="37.92289796081961" lon="15.344897623190985"><ele>42.0</ele><time>2026-04-12T11:02:22.829Z</time></trkpt><trkpt lat="37.923165248647486" lon="15.345155715926905"><ele>47.5</ele><time>2026-04-12T11:02:23.829Z</time></trkpt><trkpt lat="37.92345433330402" lon="15.34547681089582"><ele>53.0</ele><time>2026-04-12T11:02:24.829Z</time></trkpt><trkpt lat="37.923740282783804" lon="15.345806922091747"><ele>53.0</ele><time>2026-04-12T11:02:25.829Z</time></trkpt><trkpt lat="37.92397746317207" lon="15.34618014180864"><ele>53.0</ele><time>2026-04-12T11:02:26.829Z</time></trkpt><trkpt lat="37.924237765579555" lon="15.346534396225932"><ele>51.5</ele><time>2026-04-12T11:02:27.829Z</time></trkpt><trkpt lat="37.92450570270033" lon="15.346896145175197"><ele>50.0</ele><time>2026-04-12T11:02:28.829Z</time></trkpt><trkpt lat="37.924789907705225" lon="15.347246069681818"><ele>39.0</ele><time>2026-04-12T11:02:29.829Z</time></trkpt><trkpt lat="37.92508893090736" lon="15.347590655574184"><ele>28.0</ele><time>2026-04-12T11:02:30.829Z</time></trkpt><trkpt lat="37.925398366047716" lon="15.347936560129082"><ele>25.5</ele><time>2026-04-12T11:02:31.829Z</time></trkpt><trkpt lat="37.92571650872828" lon="15.348274990871339"><ele>23.0</ele><time>2026-04-12T11:02:32.829Z</time></trkpt><trkpt lat="37.926034606716755" lon="15.348618124893623"><ele>25.5</ele><time>2026-04-12T11:02:33.829Z</time></trkpt><trkpt lat="37.92634327138594" lon="15.348957125497984"><ele>28.0</ele><time>2026-04-12T11:02:34.829Z</time></trkpt><trkpt lat="37.92664082044279" lon="15.349289521464014"><ele>28.0</ele><time>2026-04-12T11:02:35.829Z</time></trkpt><trkpt lat="37.92693639920467" lon="15.349599042073132"><ele>28.0</ele><time>2026-04-12T11:02:36.829Z</time></trkpt><trkpt lat="37.92723430650666" lon="15.34988691090753"><ele>28.0</ele><time>2026-04-12T11:02:37.829Z</time></trkpt><trkpt lat="37.92754316839302" lon="15.350145137397526"><ele>28.0</ele><time>2026-04-12T11:02:38.829Z</time></trkpt><trkpt lat="37.927872794150446" lon="15.350358118738267"><ele>26.0</ele><time>2026-04-12T11:02:39.829Z</time></trkpt><trkpt lat="37.928212601645335" lon="15.350542681764235"><ele>24.0</ele><time>2026-04-12T11:02:40.829Z</time></trkpt><trkpt lat="37.92857591119101" lon="15.350695798112158"><ele>24.0</ele><time>2026-04-12T11:02:41.829Z</time></trkpt><trkpt lat="37.92895650302115" lon="15.350807832106828"><ele>24.0</ele><time>2026-04-12T11:02:42.829Z</time></trkpt><trkpt lat="37.92934514144768" lon="15.35087336774649"><ele>24.5</ele><time>2026-04-12T11:02:43.829Z</time></trkpt><trkpt lat="37.92973836004355" lon="15.350904583258446"><ele>25.0</ele><time>2026-04-12T11:02:44.829Z</time></trkpt><trkpt lat="37.93014281258356" lon="15.350903056115335"><ele>25.0</ele><time>2026-04-12T11:02:45.829Z</time></trkpt><trkpt lat="37.93055033394132" lon="15.35086523740406"><ele>25.0</ele><time>2026-04-12T11:02:46.829Z</time></trkpt><trkpt lat="37.930949096831526" lon="15.35083150550552"><ele>22.5</ele><time>2026-04-12T11:02:47.828Z</time></trkpt><trkpt lat="37.93133184282803" lon="15.350817262413946"><ele>20.0</ele><time>2026-04-12T11:02:48.828Z</time></trkpt><trkpt lat="37.931726750630986" lon="15.350835570613857"><ele>19.0</ele><time>2026-04-12T11:02:49.828Z</time></trkpt><trkpt lat="37.932122798877266" lon="15.350894605916892"><ele>18.0</ele><time>2026-04-12T11:02:50.828Z</time></trkpt><trkpt lat="37.93251240409255" lon="15.350995303277038"><ele>17.5</ele><time>2026-04-12T11:02:51.828Z</time></trkpt><trkpt lat="37.93289147669761" lon="15.351137665786203"><ele>17.0</ele><time>2026-04-12T11:02:52.828Z</time></trkpt><trkpt lat="37.93326222420634" lon="15.351307041057856"><ele>14.5</ele><time>2026-04-12T11:02:53.828Z</time></trkpt><trkpt lat="37.933621859282056" lon="15.351501608835042"><ele>12.0</ele><time>2026-04-12T11:02:54.828Z</time></trkpt><trkpt lat="37.93398452791572" lon="15.351728842529768"><ele>13.5</ele><time>2026-04-12T11:02:55.828Z</time></trkpt><trkpt lat="37.93434319741139" lon="15.35196009859975"><ele>15.0</ele><time>2026-04-12T11:02:56.828Z</time></trkpt><trkpt lat="37.93470305318621" lon="15.35218940810887"><ele>16.5</ele><time>2026-04-12T11:02:57.828Z</time></trkpt><trkpt lat="37.93506521032981" lon="15.35241667358434"><ele>18.0</ele><time>2026-04-12T11:02:58.828Z</time></trkpt><trkpt lat="37.9354282998867" lon="15.352666602369325"><ele>18.0</ele><time>2026-04-12T11:02:59.828Z</time></trkpt><trkpt lat="37.93578490869856" lon="15.352938827194532"><ele>18.0</ele><time>2026-04-12T11:03:00.828Z</time></trkpt><trkpt lat="37.936130904467184" lon="15.353233996620133"><ele>22.5</ele><time>2026-04-12T11:03:01.828Z</time></trkpt><trkpt lat="37.93646524819602" lon="15.35354781976736"><ele>27.0</ele><time>2026-04-12T11:03:02.828Z</time></trkpt><trkpt lat="37.936785458637544" lon="15.353879802865519"><ele>29.0</ele><time>2026-04-12T11:03:03.828Z</time></trkpt><trkpt lat="37.937092075801424" lon="15.354227427036095"><ele>31.0</ele><time>2026-04-12T11:03:04.828Z</time></trkpt><trkpt lat="37.93738496653081" lon="15.354586983687035"><ele>33.5</ele><time>2026-04-12T11:03:05.828Z</time></trkpt><trkpt lat="37.937662334966014" lon="15.354956516790999"><ele>36.0</ele><time>2026-04-12T11:03:06.828Z</time></trkpt><trkpt lat="37.93793064626671" lon="15.355328555461613"><ele>38.0</ele><time>2026-04-12T11:03:07.828Z</time></trkpt><trkpt lat="37.938201131125695" lon="15.355699182207866"><ele>40.0</ele><time>2026-04-12T11:03:08.828Z</time></trkpt><trkpt lat="37.93847437940988" lon="15.356069204061448"><ele>44.0</ele><time>2026-04-12T11:03:09.828Z</time></trkpt><trkpt lat="37.93875075732928" lon="15.35643946579003"><ele>48.0</ele><time>2026-04-12T11:03:10.828Z</time></trkpt><trkpt lat="37.93903091557605" lon="15.356809488125107"><ele>50.0</ele><time>2026-04-12T11:03:11.828Z</time></trkpt><trkpt lat="37.93931243685711" lon="15.357178542046592"><ele>52.0</ele><time>2026-04-12T11:03:12.828Z</time></trkpt><trkpt lat="37.93959350751974" lon="15.357553951659115"><ele>52.0</ele><time>2026-04-12T11:03:13.828Z</time></trkpt><trkpt lat="37.93987551180823" lon="15.357931906252421"><ele>52.0</ele><time>2026-04-12T11:03:14.831Z</time></trkpt><trkpt lat="37.94015926431176" lon="15.358306878966612"><ele>47.5</ele><time>2026-04-12T11:03:15.83Z</time></trkpt><trkpt lat="37.940439688625055" lon="15.358682766286513"><ele>43.0</ele><time>2026-04-12T11:03:16.83Z</time></trkpt><trkpt lat="37.94072252713829" lon="15.359050941289055"><ele>41.5</ele><time>2026-04-12T11:03:17.83Z</time></trkpt><trkpt lat="37.940998672615066" lon="15.35941044542426"><ele>40.0</ele><time>2026-04-12T11:03:18.83Z</time></trkpt><trkpt lat="37.94127008831341" lon="15.359760520480522"><ele>39.5</ele><time>2026-04-12T11:03:19.83Z</time></trkpt><trkpt lat="37.941544556915595" lon="15.360106385054156"><ele>39.0</ele><time>2026-04-12T11:03:20.83Z</time></trkpt><trkpt lat="37.94183268993918" lon="15.360432505460308"><ele>39.0</ele><time>2026-04-12T11:03:21.83Z</time></trkpt><trkpt lat="37.9421345512233" lon="15.360741245068661"><ele>39.0</ele><time>2026-04-12T11:03:22.83Z</time></trkpt><trkpt lat="37.942456069315696" lon="15.361032279275774"><ele>50.0</ele><time>2026-04-12T11:03:23.83Z</time></trkpt><trkpt lat="37.9427834811565" lon="15.361320444203317"><ele>61.0</ele><time>2026-04-12T11:03:24.83Z</time></trkpt><trkpt lat="37.94312055862552" lon="15.361599191874685"><ele>64.0</ele><time>2026-04-12T11:03:25.83Z</time></trkpt><trkpt lat="37.94346469146646" lon="15.361865310239411"><ele>67.0</ele><time>2026-04-12T11:03:26.83Z</time></trkpt><trkpt lat="37.94380617944024" lon="15.362137378906363"><ele>62.5</ele><time>2026-04-12T11:03:27.83Z</time></trkpt><trkpt lat="37.94415009290814" lon="15.36241504434556"><ele>58.0</ele><time>2026-04-12T11:03:28.83Z</time></trkpt><trkpt lat="37.94449365152366" lon="15.362693153161235"><ele>58.0</ele><time>2026-04-12T11:03:29.83Z</time></trkpt><trkpt lat="37.94483643023665" lon="15.36296909830543"><ele>58.0</ele><time>2026-04-12T11:03:30.83Z</time></trkpt><trkpt lat="37.94518521640843" lon="15.363238406724937"><ele>59.0</ele><time>2026-04-12T11:03:31.83Z</time></trkpt><trkpt lat="37.94554188106102" lon="15.363505012312741"><ele>60.0</ele><time>2026-04-12T11:03:32.83Z</time></trkpt><trkpt lat="37.94590274545491" lon="15.363760017487753"><ele>60.0</ele><time>2026-04-12T11:03:33.83Z</time></trkpt><trkpt lat="37.946270484312" lon="15.364008134415611"><ele>60.0</ele><time>2026-04-12T11:03:34.83Z</time></trkpt><trkpt lat="37.94664312400722" lon="15.364256127409432"><ele>58.5</ele><time>2026-04-12T11:03:35.83Z</time></trkpt><trkpt lat="37.947015441495346" lon="15.36450062474328"><ele>57.0</ele><time>2026-04-12T11:03:36.83Z</time></trkpt><trkpt lat="37.94739115951001" lon="15.36474554092879"><ele>61.0</ele><time>2026-04-12T11:03:37.83Z</time></trkpt><trkpt lat="37.9477657121228" lon="15.364996101214624"><ele>65.0</ele><time>2026-04-12T11:03:38.83Z</time></trkpt><trkpt lat="37.948139717043794" lon="15.365244951884113"><ele>64.5</ele><time>2026-04-12T11:03:39.83Z</time></trkpt><trkpt lat="37.948515287907476" lon="15.3654947475567"><ele>64.0</ele><time>2026-04-12T11:03:40.83Z</time></trkpt><trkpt lat="37.94888319477464" lon="15.365741893246359"><ele>67.0</ele><time>2026-04-12T11:03:41.83Z</time></trkpt><trkpt lat="37.94922420453173" lon="15.365972943175095"><ele>70.0</ele><time>2026-04-12T11:03:42.83Z</time></trkpt><trkpt lat="37.94955028989365" lon="15.366198966971737"><ele>69.5</ele><time>2026-04-12T11:03:43.83Z</time></trkpt><trkpt lat="37.949861585104216" lon="15.366414469060038"><ele>69.0</ele><time>2026-04-12T11:03:44.83Z</time></trkpt><trkpt lat="37.950161082999834" lon="15.366648714954035"><ele>69.0</ele><time>2026-04-12T11:03:45.83Z</time></trkpt><trkpt lat="37.95045288769743" lon="15.366906380582861"><ele>69.0</ele><time>2026-04-12T11:03:46.83Z</time></trkpt><trkpt lat="37.950741570607086" lon="15.367192817791835"><ele>65.0</ele><time>2026-04-12T11:03:47.83Z</time></trkpt><trkpt lat="37.95102788114878" lon="15.367508834675222"><ele>61.0</ele><time>2026-04-12T11:03:48.83Z</time></trkpt><trkpt lat="37.95130665402925" lon="15.367846000097359"><ele>62.0</ele><time>2026-04-12T11:03:49.83Z</time></trkpt><trkpt lat="37.95158804682055" lon="15.368188914460651"><ele>63.0</ele><time>2026-04-12T11:03:50.83Z</time></trkpt><trkpt lat="37.95188143784645" lon="15.368509949640687"><ele>63.0</ele><time>2026-04-12T11:03:51.83Z</time></trkpt><trkpt lat="37.95218956471469" lon="15.368796515161238"><ele>63.0</ele><time>2026-04-12T11:03:52.829Z</time></trkpt><trkpt lat="37.95251228507074" lon="15.369051530620537"><ele>47.0</ele><time>2026-04-12T11:03:53.829Z</time></trkpt><trkpt lat="37.952863462712216" lon="15.369275608212329"><ele>31.0</ele><time>2026-04-12T11:03:54.829Z</time></trkpt><trkpt lat="37.95323452498527" lon="15.369471212295762"><ele>29.0</ele><time>2026-04-12T11:03:55.829Z</time></trkpt><trkpt lat="37.95361444533217" lon="15.36965624170972"><ele>27.0</ele><time>2026-04-12T11:03:56.829Z</time></trkpt><trkpt lat="37.953999091228006" lon="15.369850033366225"><ele>25.0</ele><time>2026-04-12T11:03:57.829Z</time></trkpt><trkpt lat="37.9543758477209" lon="15.37004212883482"><ele>23.0</ele><time>2026-04-12T11:03:58.829Z</time></trkpt><trkpt lat="37.95474358133622" lon="15.3702359676728"><ele>25.0</ele><time>2026-04-12T11:03:59.829Z</time></trkpt><trkpt lat="37.95510437081952" lon="15.370431375497908"><ele>27.0</ele><time>2026-04-12T11:04:00.829Z</time></trkpt><trkpt lat="37.95545129166859" lon="15.370635914632128"><ele>27.0</ele><time>2026-04-12T11:04:01.829Z</time></trkpt><trkpt lat="37.955793472881304" lon="15.370859271063493"><ele>27.0</ele><time>2026-04-12T11:04:02.829Z</time></trkpt><trkpt lat="37.9561294740245" lon="15.371113618037148"><ele>27.0</ele><time>2026-04-12T11:04:03.829Z</time></trkpt><trkpt lat="37.95645485394562" lon="15.371407347662077"><ele>27.0</ele><time>2026-04-12T11:04:04.829Z</time></trkpt><trkpt lat="37.956772538966106" lon="15.371728024990386"><ele>25.5</ele><time>2026-04-12T11:04:05.829Z</time></trkpt><trkpt lat="37.95708228710455" lon="15.372070677115518"><ele>24.0</ele><time>2026-04-12T11:04:06.829Z</time></trkpt><trkpt lat="37.95738880077182" lon="15.372421770706385"><ele>24.0</ele><time>2026-04-12T11:04:07.829Z</time></trkpt><trkpt lat="37.95770256079363" lon="15.372771503204103"><ele>24.0</ele><time>2026-04-12T11:04:08.829Z</time></trkpt><trkpt lat="37.95801894487295" lon="15.373118787007693"><ele>23.5</ele><time>2026-04-12T11:04:09.829Z</time></trkpt><trkpt lat="37.95834098650114" lon="15.373464234918803"><ele>23.0</ele><time>2026-04-12T11:04:10.829Z</time></trkpt><trkpt lat="37.95866433591239" lon="15.373810015230951"><ele>22.5</ele><time>2026-04-12T11:04:11.829Z</time></trkpt><trkpt lat="37.9589864925213" lon="15.374155946679881"><ele>22.0</ele><time>2026-04-12T11:04:12.829Z</time></trkpt><trkpt lat="37.95931018949186" lon="15.374502713416497"><ele>21.0</ele><time>2026-04-12T11:04:13.829Z</time></trkpt><trkpt lat="37.959634612450884" lon="15.374851698624685"><ele>20.0</ele><time>2026-04-12T11:04:14.829Z</time></trkpt><trkpt lat="37.95996029432145" lon="15.37520319110176"><ele>20.0</ele><time>2026-04-12T11:04:15.829Z</time></trkpt><trkpt lat="37.960285953104275" lon="15.375558605744848"><ele>20.0</ele><time>2026-04-12T11:04:16.829Z</time></trkpt><trkpt lat="37.96061307254837" lon="15.375911997491269"><ele>20.0</ele><time>2026-04-12T11:04:17.829Z</time></trkpt><trkpt lat="37.96093424530028" lon="15.376264184548475"><ele>20.0</ele><time>2026-04-12T11:04:18.829Z</time></trkpt><trkpt lat="37.96124473922171" lon="15.376611196300718"><ele>21.0</ele><time>2026-04-12T11:04:19.829Z</time></trkpt><trkpt lat="37.961534409081864" lon="15.376970396136613"><ele>22.0</ele><time>2026-04-12T11:04:20.829Z</time></trkpt><trkpt lat="37.961808592789204" lon="15.377360352223128"><ele>26.0</ele><time>2026-04-12T11:04:21.829Z</time></trkpt><trkpt lat="37.962064955784626" lon="15.377766319216962"><ele>30.0</ele><time>2026-04-12T11:04:22.829Z</time></trkpt><trkpt lat="37.96231433310487" lon="15.378181339705916"><ele>40.0</ele><time>2026-04-12T11:04:23.829Z</time></trkpt><trkpt lat="37.96255798783795" lon="15.378590602242578"><ele>50.0</ele><time>2026-04-12T11:04:24.829Z</time></trkpt><trkpt lat="37.9628044714364" lon="15.378986786211017"><ele>50.0</ele><time>2026-04-12T11:04:25.828Z</time></trkpt><trkpt lat="37.963055716803964" lon="15.379374618309473"><ele>50.0</ele><time>2026-04-12T11:04:26.828Z</time></trkpt><trkpt lat="37.96330899639253" lon="15.37973998749885"><ele>52.0</ele><time>2026-04-12T11:04:27.828Z</time></trkpt><trkpt lat="37.963576790344746" lon="15.380087307405745"><ele>54.0</ele><time>2026-04-12T11:04:28.828Z</time></trkpt><trkpt lat="37.963845676753834" lon="15.38041147116187"><ele>48.5</ele><time>2026-04-12T11:04:29.828Z</time></trkpt><trkpt lat="37.96412110887335" lon="15.380667078880442"><ele>43.0</ele><time>2026-04-12T11:04:30.828Z</time></trkpt><trkpt lat="37.964404654245726" lon="15.380904571955869"><ele>43.0</ele><time>2026-04-12T11:04:31.828Z</time></trkpt><trkpt lat="37.964707090447405" lon="15.38111338933837"><ele>43.0</ele><time>2026-04-12T11:04:32.828Z</time></trkpt><trkpt lat="37.96502785909498" lon="15.381315599357254"><ele>37.0</ele><time>2026-04-12T11:04:33.828Z</time></trkpt><trkpt lat="37.96535791081465" lon="15.38152280485444"><ele>31.0</ele><time>2026-04-12T11:04:34.828Z</time></trkpt><trkpt lat="37.96569091210815" lon="15.381743186342048"><ele>30.5</ele><time>2026-04-12T11:04:35.828Z</time></trkpt><trkpt lat="37.96601992270236" lon="15.381972649201803"><ele>30.0</ele><time>2026-04-12T11:04:36.828Z</time></trkpt><trkpt lat="37.966338724573205" lon="15.382202092368704"><ele>30.5</ele><time>2026-04-12T11:04:37.828Z</time></trkpt><trkpt lat="37.96665013120435" lon="15.382433260514023"><ele>31.0</ele><time>2026-04-12T11:04:38.828Z</time></trkpt><trkpt lat="37.96695328030595" lon="15.382651002825257"><ele>31.0</ele><time>2026-04-12T11:04:39.828Z</time></trkpt><trkpt lat="37.96725101738457" lon="15.38286270421299"><ele>31.0</ele><time>2026-04-12T11:04:40.828Z</time></trkpt><trkpt lat="37.96753711825809" lon="15.383071823607684"><ele>31.0</ele><time>2026-04-12T11:04:41.828Z</time></trkpt><trkpt lat="37.967808840977746" lon="15.383269345031586"><ele>31.0</ele><time>2026-04-12T11:04:42.828Z</time></trkpt><trkpt lat="37.96806588034423" lon="15.383460944932436"><ele>31.0</ele><time>2026-04-12T11:04:43.828Z</time></trkpt><trkpt lat="37.96831527988713" lon="15.383654204293428"><ele>31.0</ele><time>2026-04-12T11:04:44.828Z</time></trkpt><trkpt lat="37.96854892893656" lon="15.383838620473162"><ele>30.5</ele><time>2026-04-12T11:04:45.828Z</time></trkpt><trkpt lat="37.96875911984827" lon="15.384027671276149"><ele>30.0</ele><time>2026-04-12T11:04:46.828Z</time></trkpt><trkpt lat="37.968948713874724" lon="15.384228444731281"><ele>30.0</ele><time>2026-04-12T11:04:47.828Z</time></trkpt><trkpt lat="37.96911046267062" lon="15.384420845614416"><ele>30.0</ele><time>2026-04-12T11:04:48.828Z</time></trkpt><trkpt lat="37.96923854790683" lon="15.384615757818052"><ele>30.0</ele><time>2026-04-12T11:04:49.828Z</time></trkpt><trkpt lat="37.969330252152666" lon="15.384836010659134"><ele>30.0</ele><time>2026-04-12T11:04:50.828Z</time></trkpt><trkpt lat="37.96938146852889" lon="15.38505761011523"><ele>30.0</ele><time>2026-04-12T11:04:51.828Z</time></trkpt><trkpt lat="37.969375543567416" lon="15.385260777608094"><ele>30.0</ele><time>2026-04-12T11:04:52.828Z</time></trkpt><trkpt lat="37.96932395215727" lon="15.38545142215379"><ele>29.0</ele><time>2026-04-12T11:04:53.828Z</time></trkpt><trkpt lat="37.969218003879476" lon="15.385622825578714"><ele>28.0</ele><time>2026-04-12T11:04:54.828Z</time></trkpt><trkpt lat="37.969076948715816" lon="15.385740854303332"><ele>27.0</ele><time>2026-04-12T11:04:55.828Z</time></trkpt><trkpt lat="37.9689235619447" lon="15.38582171665278"><ele>26.333333333333336</ele><time>2026-04-12T11:04:56.828Z</time></trkpt><trkpt lat="37.96875209602363" lon="15.385879410180985"><ele>25.666666666666668</ele><time>2026-04-12T11:04:57.827Z</time></trkpt><trkpt lat="37.96858267430749" lon="15.385911923111207"><ele>25.0</ele><time>2026-04-12T11:04:58.827Z</time></trkpt><trkpt lat="37.96841799526761" lon="15.385928938780527"><ele>24.666666666666668</ele><time>2026-04-12T11:04:59.827Z</time></trkpt><trkpt lat="37.968249875239465" lon="15.385922626809498"><ele>24.333333333333336</ele><time>2026-04-12T11:05:00.827Z</time></trkpt><trkpt lat="37.96809540586461" lon="15.385899714597238"><ele>24.0</ele><time>2026-04-12T11:05:01.827Z</time></trkpt><trkpt lat="37.967953059683154" lon="15.385862448605838"><ele>24.0</ele><time>2026-04-12T11:05:02.827Z</time></trkpt><trkpt lat="37.967823950114855" lon="15.385823722113889"><ele>24.0</ele><time>2026-04-12T11:05:03.827Z</time></trkpt><trkpt lat="37.96771128635868" lon="15.385777116473026"><ele>24.0</ele><time>2026-04-12T11:05:04.827Z</time></trkpt><trkpt lat="37.967598796239514" lon="15.385734252191762"><ele>24.0</ele><time>2026-04-12T11:05:05.827Z</time></trkpt><trkpt lat="37.96749259100533" lon="15.38569044422239"><ele>23.833333333333332</ele><time>2026-04-12T11:05:06.827Z</time></trkpt><trkpt lat="37.96739803144534" lon="15.38564480857908"><ele>23.666666666666668</ele><time>2026-04-12T11:05:07.827Z</time></trkpt><trkpt lat="37.96731388713251" lon="15.385605830095445"><ele>23.5</ele><time>2026-04-12T11:05:08.827Z</time></trkpt><trkpt lat="37.967264800385514" lon="15.385545191422507"><ele>23.333333333333336</ele><time>2026-04-12T11:05:09.827Z</time></trkpt><trkpt lat="37.9672037240608" lon="15.385483305386062"><ele>23.166666666666668</ele><time>2026-04-12T11:05:13.827Z</time></trkpt><trkpt lat="37.96715188595185" lon="15.385429732990602"><ele>23.0</ele><time>2026-04-12T11:05:16.827Z</time></trkpt><trkpt lat="37.967072323958774" lon="15.38534153328502"><ele>23.0</ele><time>2026-04-12T11:05:19.827Z</time></trkpt><trkpt lat="37.96698153069897" lon="15.385232802555345"><ele>23.0</ele><time>2026-04-12T11:05:21.83Z</time></trkpt><trkpt lat="37.96691196925971" lon="15.385135229505968"><ele>23.0</ele><time>2026-04-12T11:05:23.83Z</time></trkpt><trkpt lat="37.96685954726935" lon="15.385052026014515"><ele>23.0</ele><time>2026-04-12T11:05:24.829Z</time></trkpt><trkpt lat="37.96678527951237" lon="15.384954624004985"><ele>23.0</ele><time>2026-04-12T11:05:25.829Z</time></trkpt><trkpt lat="37.9667291325014" lon="15.384821670322403"><ele>22.799999999999997</ele><time>2026-04-12T11:05:26.829Z</time></trkpt><trkpt lat="37.96669222976746" lon="15.384658856785848"><ele>22.6</ele><time>2026-04-12T11:05:27.83Z</time></trkpt><trkpt lat="37.96663640864527" lon="15.384544421072592"><ele>22.4</ele><time>2026-04-12T11:05:28.83Z</time></trkpt><trkpt lat="37.96658618567797" lon="15.384458646518187"><ele>22.200000000000003</ele><time>2026-04-12T11:05:29.829Z</time></trkpt><trkpt lat="37.96648518624521" lon="15.384498149347634"><ele>22.0</ele><time>2026-04-12T11:05:30.83Z</time></trkpt><trkpt lat="37.96636313397793" lon="15.38460908279217"><ele>21.5</ele><time>2026-04-12T11:05:32.83Z</time></trkpt><trkpt lat="37.96631183872194" lon="15.384742442764766"><ele>21.0</ele><time>2026-04-12T11:05:33.83Z</time></trkpt><trkpt lat="37.96627028532064" lon="15.38492631477701"><ele>20.5</ele><time>2026-04-12T11:05:34.83Z</time></trkpt><trkpt lat="37.96622703418463" lon="15.385141397658067"><ele>20.0</ele><time>2026-04-12T11:05:35.83Z</time></trkpt><trkpt lat="37.96617496601622" lon="15.385330426281422"><ele>20.0</ele><time>2026-04-12T11:05:36.83Z</time></trkpt><trkpt lat="37.966128020138726" lon="15.385510064456387"><ele>20.0</ele><time>2026-04-12T11:05:37.83Z</time></trkpt><trkpt lat="37.96608555524943" lon="15.38567395836622"><ele>20.0</ele><time>2026-04-12T11:05:38.83Z</time></trkpt><trkpt lat="37.966061831775434" lon="15.385827503114037"><ele>20.0</ele><time>2026-04-12T11:05:39.83Z</time></trkpt><trkpt lat="37.96605955673056" lon="15.385966996637471"><ele>19.5</ele><time>2026-04-12T11:05:40.83Z</time></trkpt><trkpt lat="37.96607356572176" lon="15.38607072379738"><ele>19.0</ele><time>2026-04-12T11:05:41.829Z</time></trkpt><trkpt lat="37.96608594441518" lon="15.386151901239039"><ele>18.5</ele><time>2026-04-12T11:05:42.829Z</time></trkpt><trkpt lat="37.96611745296598" lon="15.386252170005232"><ele>18.0</ele><time>2026-04-12T11:05:44.829Z</time></trkpt><trkpt lat="37.966137683684174" lon="15.38638317241503"><ele>17.5</ele><time>2026-04-12T11:05:46.829Z</time></trkpt><trkpt lat="37.96609212111139" lon="15.386470320663602"><ele>17.0</ele><time>2026-04-12T11:05:47.829Z</time></trkpt><trkpt lat="37.96604800079095" lon="15.386623964317723"><ele>16.25</ele><time>2026-04-12T11:05:48.829Z</time></trkpt><trkpt lat="37.96599637743945" lon="15.38680229010484"><ele>15.5</ele><time>2026-04-12T11:05:49.829Z</time></trkpt><trkpt lat="37.96593636477092" lon="15.386956038459719"><ele>14.75</ele><time>2026-04-12T11:05:50.829Z</time></trkpt><trkpt lat="37.96589444622681" lon="15.38706825310488"><ele>14.0</ele><time>2026-04-12T11:05:51.829Z</time></trkpt><trkpt lat="37.96587037940181" lon="15.387198524987024"><ele>13.75</ele><time>2026-04-12T11:05:53.829Z</time></trkpt><trkpt lat="37.965930812019586" lon="15.387352379074239"><ele>13.5</ele><time>2026-04-12T11:05:55.829Z</time></trkpt><trkpt lat="37.96603073556169" lon="15.387453591503357"><ele>13.25</ele><time>2026-04-12T11:05:56.829Z</time></trkpt><trkpt lat="37.966191611127215" lon="15.3875613522232"><ele>13.0</ele><time>2026-04-12T11:05:57.829Z</time></trkpt><trkpt lat="37.96635924652711" lon="15.387682560259634"><ele>13.0</ele><time>2026-04-12T11:05:58.829Z</time></trkpt><trkpt lat="37.96651917544058" lon="15.387840992745623"><ele>13.0</ele><time>2026-04-12T11:05:59.829Z</time></trkpt><trkpt lat="37.96669241577453" lon="15.387993122778802"><ele>13.0</ele><time>2026-04-12T11:06:00.829Z</time></trkpt><trkpt lat="37.966875034168794" lon="15.388158023429495"><ele>12.666666666666666</ele><time>2026-04-12T11:06:01.829Z</time></trkpt><trkpt lat="37.96705642981778" lon="15.388324148868676"><ele>12.333333333333332</ele><time>2026-04-12T11:06:02.829Z</time></trkpt><trkpt lat="37.967234432736056" lon="15.388487167268615"><ele>12.0</ele><time>2026-04-12T11:06:03.829Z</time></trkpt><trkpt lat="37.96741063233718" lon="15.38864667351737"><ele>11.666666666666666</ele><time>2026-04-12T11:06:04.829Z</time></trkpt><trkpt lat="37.9675816571803" lon="15.3888019561739"><ele>11.333333333333332</ele><time>2026-04-12T11:06:05.829Z</time></trkpt><trkpt lat="37.96774548172839" lon="15.388951937914067"><ele>11.0</ele><time>2026-04-12T11:06:06.829Z</time></trkpt><trkpt lat="37.967902070062586" lon="15.38909525689026"><ele>11.0</ele><time>2026-04-12T11:06:07.829Z</time></trkpt><trkpt lat="37.96805569482421" lon="15.389235809549307"><ele>11.0</ele><time>2026-04-12T11:06:08.829Z</time></trkpt><trkpt lat="37.9682100391886" lon="15.389378828735643"><ele>11.0</ele><time>2026-04-12T11:06:09.829Z</time></trkpt><trkpt lat="37.968367705057226" lon="15.389523664339304"><ele>11.0</ele><time>2026-04-12T11:06:10.829Z</time></trkpt><trkpt lat="37.96854083218137" lon="15.389657029505663"><ele>11.0</ele><time>2026-04-12T11:06:11.829Z</time></trkpt><trkpt lat="37.96870386080182" lon="15.389812255794896"><ele>11.0</ele><time>2026-04-12T11:06:12.829Z</time></trkpt><trkpt lat="37.96886863274486" lon="15.389965775662972"><ele>11.0</ele><time>2026-04-12T11:06:13.828Z</time></trkpt><trkpt lat="37.969036554553014" lon="15.390121299109428"><ele>11.0</ele><time>2026-04-12T11:06:14.828Z</time></trkpt><trkpt lat="37.969197878336104" lon="15.390294968626034"><ele>11.0</ele><time>2026-04-12T11:06:15.828Z</time></trkpt><trkpt lat="37.96937863288034" lon="15.390462628562345"><ele>11.0</ele><time>2026-04-12T11:06:16.828Z</time></trkpt><trkpt lat="37.96956339477422" lon="15.390634921707843"><ele>11.0</ele><time>2026-04-12T11:06:17.828Z</time></trkpt><trkpt lat="37.96975748318165" lon="15.390792209273192"><ele>11.0</ele><time>2026-04-12T11:06:18.828Z</time></trkpt><trkpt lat="37.96992965491504" lon="15.390972745603202"><ele>11.0</ele><time>2026-04-12T11:06:19.828Z</time></trkpt><trkpt lat="37.9701103323222" lon="15.39113403265012"><ele>11.0</ele><time>2026-04-12T11:06:20.828Z</time></trkpt><trkpt lat="37.97028419601618" lon="15.391294302011152"><ele>11.333333333333332</ele><time>2026-04-12T11:06:21.828Z</time></trkpt><trkpt lat="37.97045159273437" lon="15.391454106112096"><ele>11.666666666666666</ele><time>2026-04-12T11:06:22.828Z</time></trkpt><trkpt lat="37.970621647708946" lon="15.391617804160168"><ele>12.0</ele><time>2026-04-12T11:06:23.828Z</time></trkpt><trkpt lat="37.97079733399949" lon="15.391780888874413"><ele>11.666666666666666</ele><time>2026-04-12T11:06:24.828Z</time></trkpt><trkpt lat="37.97095687320732" lon="15.391952920213996"><ele>11.333333333333332</ele><time>2026-04-12T11:06:25.828Z</time></trkpt><trkpt lat="37.971116401241126" lon="15.39209468537811"><ele>11.0</ele><time>2026-04-12T11:06:26.828Z</time></trkpt><trkpt lat="37.97127327052706" lon="15.392239846689014"><ele>11.0</ele><time>2026-04-12T11:06:27.828Z</time></trkpt><trkpt lat="37.97142909869951" lon="15.392389264259076"><ele>11.0</ele><time>2026-04-12T11:06:28.828Z</time></trkpt><trkpt lat="37.97157788415275" lon="15.392531322477598"><ele>11.0</ele><time>2026-04-12T11:06:29.828Z</time></trkpt><trkpt lat="37.971715692391605" lon="15.392661696471434"><ele>10.666666666666666</ele><time>2026-04-12T11:06:30.828Z</time></trkpt><trkpt lat="37.971857072640596" lon="15.392791961224802"><ele>10.333333333333334</ele><time>2026-04-12T11:06:31.828Z</time></trkpt><trkpt lat="37.97201183028445" lon="15.39293097174391"><ele>10.0</ele><time>2026-04-12T11:06:32.828Z</time></trkpt><trkpt lat="37.972168891569694" lon="15.39309715654772"><ele>10.0</ele><time>2026-04-12T11:06:33.828Z</time></trkpt><trkpt lat="37.97234042049448" lon="15.393247507110924"><ele>10.0</ele><time>2026-04-12T11:06:34.828Z</time></trkpt><trkpt lat="37.972522561906146" lon="15.393404448807285"><ele>10.0</ele><time>2026-04-12T11:06:35.828Z</time></trkpt><trkpt lat="37.972730196030234" lon="15.393575501284191"><ele>11.0</ele><time>2026-04-12T11:06:36.828Z</time></trkpt><trkpt lat="37.97295636002096" lon="15.393739444695965"><ele>12.0</ele><time>2026-04-12T11:06:37.828Z</time></trkpt><trkpt lat="37.9731663353707" lon="15.393927845215355"><ele>13.5</ele><time>2026-04-12T11:06:38.828Z</time></trkpt><trkpt lat="37.97337479618631" lon="15.394098830830911"><ele>15.0</ele><time>2026-04-12T11:06:39.828Z</time></trkpt><trkpt lat="37.97357118731543" lon="15.394284767211113"><ele>15.0</ele><time>2026-04-12T11:06:40.828Z</time></trkpt><trkpt lat="37.97377294463439" lon="15.394437520163558"><ele>15.0</ele><time>2026-04-12T11:06:41.828Z</time></trkpt><trkpt lat="37.97395236503714" lon="15.39459658968684"><ele>15.333333333333332</ele><time>2026-04-12T11:06:42.828Z</time></trkpt><trkpt lat="37.97411962458836" lon="15.394750619894022"><ele>15.666666666666666</ele><time>2026-04-12T11:06:43.828Z</time></trkpt><trkpt lat="37.97428146026433" lon="15.394895242684543"><ele>16.0</ele><time>2026-04-12T11:06:44.828Z</time></trkpt><trkpt lat="37.97444215111813" lon="15.395033792045588"><ele>16.0</ele><time>2026-04-12T11:06:45.827Z</time></trkpt><trkpt lat="37.9745823733107" lon="15.395179147495496"><ele>16.0</ele><time>2026-04-12T11:06:46.827Z</time></trkpt><trkpt lat="37.974718328052944" lon="15.395299196683869"><ele>16.0</ele><time>2026-04-12T11:06:47.827Z</time></trkpt><trkpt lat="37.97483138559382" lon="15.395399027489715"><ele>16.0</ele><time>2026-04-12T11:06:48.827Z</time></trkpt><trkpt lat="37.974913358500984" lon="15.395471410292707"><ele>16.0</ele><time>2026-04-12T11:06:49.827Z</time></trkpt><trkpt lat="37.9749796207108" lon="15.395529920390725"><ele>16.0</ele><time>2026-04-12T11:06:50.827Z</time></trkpt><trkpt lat="37.97506362840021" lon="15.395604099909296"><ele>16.0</ele><time>2026-04-12T11:06:51.827Z</time></trkpt><trkpt lat="37.97517951281138" lon="15.395706426856092"><ele>16.0</ele><time>2026-04-12T11:06:52.827Z</time></trkpt><trkpt lat="37.975309855833466" lon="15.395821520863018"><ele>15.333333333333332</ele><time>2026-04-12T11:06:53.827Z</time></trkpt><trkpt lat="37.975444152635845" lon="15.395938737632223"><ele>14.666666666666668</ele><time>2026-04-12T11:06:54.827Z</time></trkpt><trkpt lat="37.97558775879135" lon="15.396056172226869"><ele>14.0</ele><time>2026-04-12T11:06:55.827Z</time></trkpt><trkpt lat="37.975745292496164" lon="15.396207325580148"><ele>13.666666666666668</ele><time>2026-04-12T11:06:56.827Z</time></trkpt><trkpt lat="37.975921036322" lon="15.396364309978575"><ele>13.333333333333332</ele><time>2026-04-12T11:06:57.827Z</time></trkpt><trkpt lat="37.97610523556069" lon="15.396522044781845"><ele>13.0</ele><time>2026-04-12T11:06:58.827Z</time></trkpt><trkpt lat="37.9762794609109" lon="15.396708233906436"><ele>13.0</ele><time>2026-04-12T11:06:59.827Z</time></trkpt><trkpt lat="37.97645505002901" lon="15.396897083215226"><ele>13.0</ele><time>2026-04-12T11:07:00.827Z</time></trkpt><trkpt lat="37.97663587389734" lon="15.39708639744779"><ele>13.0</ele><time>2026-04-12T11:07:01.827Z</time></trkpt><trkpt lat="37.976811286413366" lon="15.397266412685166"><ele>13.0</ele><time>2026-04-12T11:07:02.827Z</time></trkpt><trkpt lat="37.97696602839939" lon="15.397424410825352"><ele>13.0</ele><time>2026-04-12T11:07:03.827Z</time></trkpt><trkpt lat="37.977081930420766" lon="15.397578448598567"><ele>13.0</ele><time>2026-04-12T11:07:04.827Z</time></trkpt><trkpt lat="37.97720631943629" lon="15.397701960367"><ele>13.0</ele><time>2026-04-12T11:07:05.827Z</time></trkpt><trkpt lat="37.977320733159964" lon="15.397814350501859"><ele>13.0</ele><time>2026-04-12T11:07:06.827Z</time></trkpt><trkpt lat="37.977419280818644" lon="15.397905378520543"><ele>13.0</ele><time>2026-04-12T11:07:07.827Z</time></trkpt><trkpt lat="37.977466519173156" lon="15.39797316464777"><ele>12.8</ele><time>2026-04-12T11:07:08.827Z</time></trkpt><trkpt lat="37.97753966449784" lon="15.398023886755029"><ele>12.600000000000001</ele><time>2026-04-12T11:07:10.827Z</time></trkpt><trkpt lat="37.9776242828145" lon="15.398134798482602"><ele>12.399999999999999</ele><time>2026-04-12T11:07:12.827Z</time></trkpt><trkpt lat="37.97768174283828" lon="15.398188114523826"><ele>12.2</ele><time>2026-04-12T11:07:13.827Z</time></trkpt><trkpt lat="37.97775278886077" lon="15.398259350506363"><ele>12.0</ele><time>2026-04-12T11:07:14.827Z</time></trkpt><trkpt lat="37.97785147157525" lon="15.39833669207539"><ele>12.0</ele><time>2026-04-12T11:07:15.827Z</time></trkpt><trkpt lat="37.9779881785423" lon="15.398434773916962"><ele>12.0</ele><time>2026-04-12T11:07:16.827Z</time></trkpt><trkpt lat="37.9781422002867" lon="15.398574176293998"><ele>12.0</ele><time>2026-04-12T11:07:17.826Z</time></trkpt><trkpt lat="37.97831436025674" lon="15.398702629560171"><ele>12.0</ele><time>2026-04-12T11:07:18.826Z</time></trkpt><trkpt lat="37.97850103981643" lon="15.398839310619387"><ele>12.0</ele><time>2026-04-12T11:07:19.826Z</time></trkpt><trkpt lat="37.978695567490604" lon="15.398980864884757"><ele>12.0</ele><time>2026-04-12T11:07:20.826Z</time></trkpt><trkpt lat="37.978899852387286" lon="15.399130172582439"><ele>12.0</ele><time>2026-04-12T11:07:21.826Z</time></trkpt><trkpt lat="37.979104031955806" lon="15.399274772320046"><ele>12.0</ele><time>2026-04-12T11:07:22.826Z</time></trkpt><trkpt lat="37.979305811767986" lon="15.399418454300305"><ele>12.666666666666668</ele><time>2026-04-12T11:07:23.826Z</time></trkpt><trkpt lat="37.97949281425577" lon="15.39955627387158"><ele>13.333333333333334</ele><time>2026-04-12T11:07:24.826Z</time></trkpt><trkpt lat="37.97966612013418" lon="15.399678636282218"><ele>14.0</ele><time>2026-04-12T11:07:25.826Z</time></trkpt><trkpt lat="37.97982919680244" lon="15.399811622165943"><ele>14.0</ele><time>2026-04-12T11:07:26.829Z</time></trkpt><trkpt lat="37.979976962434385" lon="15.39996885111921"><ele>14.0</ele><time>2026-04-12T11:07:27.829Z</time></trkpt><trkpt lat="37.98011669207258" lon="15.400158895538102"><ele>14.0</ele><time>2026-04-12T11:07:28.829Z</time></trkpt><trkpt lat="37.98024719511589" lon="15.400345059481454"><ele>13.333333333333334</ele><time>2026-04-12T11:07:29.829Z</time></trkpt><trkpt lat="37.98037170076927" lon="15.400516211319129"><ele>12.666666666666668</ele><time>2026-04-12T11:07:30.829Z</time></trkpt><trkpt lat="37.980500916333156" lon="15.400649383152254"><ele>12.0</ele><time>2026-04-12T11:07:31.829Z</time></trkpt><trkpt lat="37.98064187862793" lon="15.400747240161545"><ele>12.0</ele><time>2026-04-12T11:07:32.83Z</time></trkpt><trkpt lat="37.98081018216048" lon="15.40082106054153"><ele>12.0</ele><time>2026-04-12T11:07:33.829Z</time></trkpt><trkpt lat="37.98098512769203" lon="15.400885475704511"><ele>12.0</ele><time>2026-04-12T11:07:34.829Z</time></trkpt><trkpt lat="37.981121004519146" lon="15.400976741927977"><ele>13.0</ele><time>2026-04-12T11:07:35.829Z</time></trkpt><trkpt lat="37.98125321090717" lon="15.401069415436908"><ele>14.0</ele><time>2026-04-12T11:07:36.829Z</time></trkpt><trkpt lat="37.981386683730506" lon="15.401184861661983"><ele>15.0</ele><time>2026-04-12T11:07:37.829Z</time></trkpt><trkpt lat="37.98151828699532" lon="15.401314814221255"><ele>15.25</ele><time>2026-04-12T11:07:38.829Z</time></trkpt><trkpt lat="37.98163635710621" lon="15.401439479408625"><ele>15.5</ele><time>2026-04-12T11:07:39.829Z</time></trkpt><trkpt lat="37.981749177345165" lon="15.401531377455676"><ele>15.75</ele><time>2026-04-12T11:07:40.829Z</time></trkpt><trkpt lat="37.981838900195235" lon="15.40164876475243"><ele>16.0</ele><time>2026-04-12T11:07:41.829Z</time></trkpt><trkpt lat="37.98195044284752" lon="15.40176371601096"><ele>16.0</ele><time>2026-04-12T11:07:42.829Z</time></trkpt><trkpt lat="37.982087631703706" lon="15.401905225511598"><ele>16.0</ele><time>2026-04-12T11:07:43.829Z</time></trkpt><trkpt lat="37.982236082745594" lon="15.402036524266725"><ele>16.0</ele><time>2026-04-12T11:07:44.829Z</time></trkpt><trkpt lat="37.98235139086469" lon="15.402180029550342"><ele>15.666666666666666</ele><time>2026-04-12T11:07:45.829Z</time></trkpt><trkpt lat="37.98246435544073" lon="15.402304886419289"><ele>15.333333333333332</ele><time>2026-04-12T11:07:46.829Z</time></trkpt><trkpt lat="37.98259167656599" lon="15.402419448548681"><ele>15.0</ele><time>2026-04-12T11:07:47.829Z</time></trkpt><trkpt lat="37.98273025866804" lon="15.402572225233515"><ele>15.0</ele><time>2026-04-12T11:07:48.829Z</time></trkpt><trkpt lat="37.98289736392993" lon="15.40274605845947"><ele>15.0</ele><time>2026-04-12T11:07:49.829Z</time></trkpt><trkpt lat="37.983074294517806" lon="15.402931780077072"><ele>15.0</ele><time>2026-04-12T11:07:50.829Z</time></trkpt><trkpt lat="37.98326380819182" lon="15.403127098904974"><ele>16.0</ele><time>2026-04-12T11:07:51.829Z</time></trkpt><trkpt lat="37.98346140775585" lon="15.403328537228"><ele>17.0</ele><time>2026-04-12T11:07:52.829Z</time></trkpt><trkpt lat="37.98367593671685" lon="15.403542125732292"><ele>17.0</ele><time>2026-04-12T11:07:53.829Z</time></trkpt><trkpt lat="37.98391074893357" lon="15.40377347680113"><ele>17.0</ele><time>2026-04-12T11:07:54.829Z</time></trkpt><trkpt lat="37.9841360052631" lon="15.404022171992816"><ele>17.0</ele><time>2026-04-12T11:07:55.829Z</time></trkpt><trkpt lat="37.98437866557837" lon="15.40423064369903"><ele>17.0</ele><time>2026-04-12T11:07:56.828Z</time></trkpt><trkpt lat="37.9846125141707" lon="15.404423824200103"><ele>17.0</ele><time>2026-04-12T11:07:57.828Z</time></trkpt><trkpt lat="37.98481044904932" lon="15.40460721058999"><ele>17.0</ele><time>2026-04-12T11:07:58.828Z</time></trkpt><trkpt lat="37.984989187818655" lon="15.40479762959832"><ele>17.0</ele><time>2026-04-12T11:07:59.828Z</time></trkpt><trkpt lat="37.98516863441324" lon="15.404966364205631"><ele>17.0</ele><time>2026-04-12T11:08:00.828Z</time></trkpt><trkpt lat="37.985357517032334" lon="15.405143971419331"><ele>17.0</ele><time>2026-04-12T11:08:01.828Z</time></trkpt><trkpt lat="37.98557326112757" lon="15.405327550782834"><ele>17.0</ele><time>2026-04-12T11:08:02.828Z</time></trkpt><trkpt lat="37.98577634162438" lon="15.405532227517796"><ele>17.5</ele><time>2026-04-12T11:08:03.828Z</time></trkpt><trkpt lat="37.985975740531956" lon="15.40572716768421"><ele>18.0</ele><time>2026-04-12T11:08:04.828Z</time></trkpt><trkpt lat="37.98617242491864" lon="15.405924221687954"><ele>18.0</ele><time>2026-04-12T11:08:05.828Z</time></trkpt><trkpt lat="37.986348107862405" lon="15.406132656975883"><ele>18.0</ele><time>2026-04-12T11:08:06.828Z</time></trkpt><trkpt lat="37.986518716587966" lon="15.406290297006796"><ele>18.666666666666668</ele><time>2026-04-12T11:08:07.828Z</time></trkpt><trkpt lat="37.98665421008555" lon="15.406442991646632"><ele>19.333333333333336</ele><time>2026-04-12T11:08:08.828Z</time></trkpt><trkpt lat="37.986771690784906" lon="15.406573294589078"><ele>20.0</ele><time>2026-04-12T11:08:09.828Z</time></trkpt><trkpt lat="37.98688761614452" lon="15.406702689647311"><ele>20.0</ele><time>2026-04-12T11:08:10.828Z</time></trkpt><trkpt lat="37.98702452555629" lon="15.406837494882316"><ele>20.0</ele><time>2026-04-12T11:08:11.828Z</time></trkpt><trkpt lat="37.98716616787049" lon="15.40702035107494"><ele>20.0</ele><time>2026-04-12T11:08:12.828Z</time></trkpt><trkpt lat="37.98734614287754" lon="15.40719810139138"><ele>18.5</ele><time>2026-04-12T11:08:13.828Z</time></trkpt><trkpt lat="37.98752619912654" lon="15.407414436684187"><ele>17.0</ele><time>2026-04-12T11:08:14.828Z</time></trkpt><trkpt lat="37.98771831403585" lon="15.407632772160374"><ele>17.0</ele><time>2026-04-12T11:08:15.828Z</time></trkpt><trkpt lat="37.9879143282969" lon="15.407851873300467"><ele>17.0</ele><time>2026-04-12T11:08:16.828Z</time></trkpt><trkpt lat="37.9881092164828" lon="15.408076178026523"><ele>16.0</ele><time>2026-04-12T11:08:17.828Z</time></trkpt><trkpt lat="37.98830135926843" lon="15.408299794106139"><ele>15.0</ele><time>2026-04-12T11:08:18.828Z</time></trkpt><trkpt lat="37.98849140610571" lon="15.408521324543406"><ele>15.0</ele><time>2026-04-12T11:08:19.828Z</time></trkpt><trkpt lat="37.98867202995683" lon="15.408733385007663"><ele>15.0</ele><time>2026-04-12T11:08:20.828Z</time></trkpt><trkpt lat="37.988843203953714" lon="15.40893152431745"><ele>15.333333333333332</ele><time>2026-04-12T11:08:21.828Z</time></trkpt><trkpt lat="37.988997194287336" lon="15.409134360659346"><ele>15.666666666666666</ele><time>2026-04-12T11:08:22.828Z</time></trkpt><trkpt lat="37.989149642006694" lon="15.409314834939813"><ele>16.0</ele><time>2026-04-12T11:08:23.828Z</time></trkpt><trkpt lat="37.98927501252364" lon="15.409469835432184"><ele>16.0</ele><time>2026-04-12T11:08:24.828Z</time></trkpt><trkpt lat="37.98938805437749" lon="15.409611649457585"><ele>16.0</ele><time>2026-04-12T11:08:25.828Z</time></trkpt><trkpt lat="37.98949156810893" lon="15.409744451459039"><ele>16.0</ele><time>2026-04-12T11:08:26.828Z</time></trkpt><trkpt lat="37.98958437620641" lon="15.409868427851388"><ele>16.0</ele><time>2026-04-12T11:08:27.828Z</time></trkpt><trkpt lat="37.98967547788227" lon="15.40999007718271"><ele>14.666666666666666</ele><time>2026-04-12T11:08:28.827Z</time></trkpt><trkpt lat="37.98978319132306" lon="15.410133624933286"><ele>13.333333333333332</ele><time>2026-04-12T11:08:29.827Z</time></trkpt><trkpt lat="37.98991384451444" lon="15.4103077440875"><ele>12.0</ele><time>2026-04-12T11:08:30.827Z</time></trkpt><trkpt lat="37.99005227889842" lon="15.410492233529602"><ele>12.0</ele><time>2026-04-12T11:08:31.827Z</time></trkpt><trkpt lat="37.99020501881105" lon="15.410653717922076"><ele>12.0</ele><time>2026-04-12T11:08:32.827Z</time></trkpt><trkpt lat="37.990337615155035" lon="15.410841599103835"><ele>12.0</ele><time>2026-04-12T11:08:33.827Z</time></trkpt><trkpt lat="37.9904923663267" lon="15.41102419229793"><ele>12.0</ele><time>2026-04-12T11:08:34.827Z</time></trkpt><trkpt lat="37.99066725341526" lon="15.4112199541126"><ele>12.0</ele><time>2026-04-12T11:08:35.827Z</time></trkpt><trkpt lat="37.99085748034438" lon="15.411405504496493"><ele>13.0</ele><time>2026-04-12T11:08:36.827Z</time></trkpt><trkpt lat="37.991017300515445" lon="15.411595640022254"><ele>14.0</ele><time>2026-04-12T11:08:37.827Z</time></trkpt><trkpt lat="37.99115882273279" lon="15.41174968425849"><ele>15.0</ele><time>2026-04-12T11:08:38.827Z</time></trkpt><trkpt lat="37.99128828568838" lon="15.411892631870929"><ele>15.0</ele><time>2026-04-12T11:08:39.827Z</time></trkpt><trkpt lat="37.99139311046693" lon="15.41205188884501"><ele>15.0</ele><time>2026-04-12T11:08:40.827Z</time></trkpt><trkpt lat="37.99149063036216" lon="15.412162913977028"><ele>15.0</ele><time>2026-04-12T11:08:41.827Z</time></trkpt><trkpt lat="37.991569076383975" lon="15.412249410830913"><ele>15.0</ele><time>2026-04-12T11:08:42.827Z</time></trkpt><trkpt lat="37.991627887691976" lon="15.412297437481223"><ele>15.333333333333332</ele><time>2026-04-12T11:08:43.827Z</time></trkpt><trkpt lat="37.99176405156416" lon="15.412145260937889"><ele>15.666666666666666</ele><time>2026-04-12T11:08:46.827Z</time></trkpt><trkpt lat="37.991848571046965" lon="15.412015565182715"><ele>16.0</ele><time>2026-04-12T11:08:47.827Z</time></trkpt><trkpt lat="37.991953269476" lon="15.411848029632363"><ele>16.0</ele><time>2026-04-12T11:08:48.827Z</time></trkpt><trkpt lat="37.99209074651161" lon="15.411736233730604"><ele>16.0</ele><time>2026-04-12T11:08:49.827Z</time></trkpt><trkpt lat="37.99216320670074" lon="15.411633551043177"><ele>16.0</ele><time>2026-04-12T11:08:50.827Z</time></trkpt><trkpt lat="37.99221085854365" lon="15.411563081489662"><ele>16.0</ele><time>2026-04-12T11:08:51.827Z</time></trkpt><trkpt lat="37.992367650378256" lon="15.411732765386708"><ele>18.0</ele><time>2026-04-12T11:08:55.827Z</time></trkpt><trkpt lat="37.99254034198917" lon="15.41181055981559"><ele>20.0</ele><time>2026-04-12T11:08:56.827Z</time></trkpt><trkpt lat="37.992681630650395" lon="15.411973178580087"><ele>22.0</ele><time>2026-04-12T11:08:57.827Z</time></trkpt><trkpt lat="37.992839230191706" lon="15.412103552931006"><ele>20.25</ele><time>2026-04-12T11:08:58.827Z</time></trkpt><trkpt lat="37.99297052743642" lon="15.412226630861042"><ele>18.5</ele><time>2026-04-12T11:08:59.827Z</time></trkpt><trkpt lat="37.99307615391875" lon="15.412365751174185"><ele>16.75</ele><time>2026-04-12T11:09:00.826Z</time></trkpt><trkpt lat="37.993173834544415" lon="15.412452675727263"><ele>15.0</ele><time>2026-04-12T11:09:01.826Z</time></trkpt><trkpt lat="37.99324091050682" lon="15.412512365065874"><ele>15.0</ele><time>2026-04-12T11:09:02.826Z</time></trkpt><trkpt lat="37.99330355983809" lon="15.412568115778338"><ele>15.0</ele><time>2026-04-12T11:09:03.826Z</time></trkpt><trkpt lat="37.993376665306556" lon="15.412633601654727"><ele>15.0</ele><time>2026-04-12T11:09:04.826Z</time></trkpt><trkpt lat="37.99344396049233" lon="15.412694421051391"><ele>15.0</ele><time>2026-04-12T11:09:05.826Z</time></trkpt><trkpt lat="37.99350072530667" lon="15.412746584494807"><ele>15.0</ele><time>2026-04-12T11:09:06.826Z</time></trkpt><trkpt lat="37.99355581625924" lon="15.412796464324312"><ele>15.0</ele><time>2026-04-12T11:09:07.826Z</time></trkpt><trkpt lat="37.993653505680555" lon="15.412879488859355"><ele>15.666666666666668</ele><time>2026-04-12T11:09:09.826Z</time></trkpt><trkpt lat="37.99383866125789" lon="15.4128132133898"><ele>16.333333333333336</ele><time>2026-04-12T11:09:11.826Z</time></trkpt><trkpt lat="37.993976417829536" lon="15.412743759728006"><ele>17.0</ele><time>2026-04-12T11:09:12.826Z</time></trkpt><trkpt lat="37.994135386413795" lon="15.41266654626756"><ele>17.0</ele><time>2026-04-12T11:09:13.826Z</time></trkpt><trkpt lat="37.994319136581545" lon="15.412570735604907"><ele>17.0</ele><time>2026-04-12T11:09:14.826Z</time></trkpt><trkpt lat="37.99453885027771" lon="15.412489277969286"><ele>17.0</ele><time>2026-04-12T11:09:15.826Z</time></trkpt><trkpt lat="37.99475301621045" lon="15.41237180734024"><ele>17.0</ele><time>2026-04-12T11:09:16.826Z</time></trkpt><trkpt lat="37.9949201329424" lon="15.412269539927022"><ele>17.0</ele><time>2026-04-12T11:09:17.826Z</time></trkpt><trkpt lat="37.99506199243577" lon="15.412193533243258"><ele>17.0</ele><time>2026-04-12T11:09:18.826Z</time></trkpt><trkpt lat="37.99518936804201" lon="15.412134676277123"><ele>18.25</ele><time>2026-04-12T11:09:19.826Z</time></trkpt><trkpt lat="37.99531355280762" lon="15.412126009961934"><ele>19.5</ele><time>2026-04-12T11:09:20.826Z</time></trkpt><trkpt lat="37.99540710592587" lon="15.412084532873024"><ele>20.75</ele><time>2026-04-12T11:09:21.826Z</time></trkpt><trkpt lat="37.99550609432768" lon="15.41204064603547"><ele>22.0</ele><time>2026-04-12T11:09:22.826Z</time></trkpt><trkpt lat="37.99563300718773" lon="15.411979523316848"><ele>22.0</ele><time>2026-04-12T11:09:23.826Z</time></trkpt><trkpt lat="37.99578390595052" lon="15.411908168861515"><ele>22.0</ele><time>2026-04-12T11:09:24.826Z</time></trkpt><trkpt lat="37.995947050496866" lon="15.412008069951517"><ele>22.0</ele><time>2026-04-12T11:09:25.826Z</time></trkpt><trkpt lat="37.99613686287393" lon="15.412094700523367"><ele>22.0</ele><time>2026-04-12T11:09:26.826Z</time></trkpt><trkpt lat="37.996365322776924" lon="15.412195947614997"><ele>22.0</ele><time>2026-04-12T11:09:27.826Z</time></trkpt><trkpt lat="37.99659628575644" lon="15.412302909043824"><ele>21.5</ele><time>2026-04-12T11:09:28.826Z</time></trkpt><trkpt lat="37.99685349678506" lon="15.412425895835854"><ele>21.0</ele><time>2026-04-12T11:09:29.826Z</time></trkpt><trkpt lat="37.99708059585177" lon="15.412592698148458"><ele>21.0</ele><time>2026-04-12T11:09:30.826Z</time></trkpt><trkpt lat="37.99727900923415" lon="15.412772472139183"><ele>21.0</ele><time>2026-04-12T11:09:31.826Z</time></trkpt><trkpt lat="37.997477532707414" lon="15.412951305948607"><ele>20.5</ele><time>2026-04-12T11:09:32.828Z</time></trkpt><trkpt lat="37.997696502687745" lon="15.413148318671755"><ele>20.0</ele><time>2026-04-12T11:09:33.829Z</time></trkpt><trkpt lat="37.99793930342783" lon="15.413350519921844"><ele>20.0</ele><time>2026-04-12T11:09:34.829Z</time></trkpt><trkpt lat="37.99818089111095" lon="15.413583805279446"><ele>20.0</ele><time>2026-04-12T11:09:35.829Z</time></trkpt><trkpt lat="37.9984466058249" lon="15.413820709756846"><ele>20.0</ele><time>2026-04-12T11:09:36.828Z</time></trkpt><trkpt lat="37.998693526536144" lon="15.414062384024687"><ele>20.0</ele><time>2026-04-12T11:09:37.828Z</time></trkpt><trkpt lat="37.99890764565545" lon="15.414276211555165"><ele>20.0</ele><time>2026-04-12T11:09:38.829Z</time></trkpt><trkpt lat="37.99908486504694" lon="15.414475810522541"><ele>20.0</ele><time>2026-04-12T11:09:39.828Z</time></trkpt><trkpt lat="37.99924217408717" lon="15.414663302740644"><ele>20.4</ele><time>2026-04-12T11:09:40.828Z</time></trkpt><trkpt lat="37.99935886736423" lon="15.41480980711484"><ele>20.8</ele><time>2026-04-12T11:09:41.829Z</time></trkpt><trkpt lat="37.999435490656246" lon="15.41491279455734"><ele>21.200000000000003</ele><time>2026-04-12T11:09:42.828Z</time></trkpt><trkpt lat="37.999494919020705" lon="15.414997898779475"><ele>21.6</ele><time>2026-04-12T11:09:43.828Z</time></trkpt><trkpt lat="37.999540792314974" lon="15.415072835257158"><ele>22.0</ele><time>2026-04-12T11:09:44.828Z</time></trkpt><trkpt lat="37.999584747143146" lon="15.415159853494007"><ele>22.0</ele><time>2026-04-12T11:09:45.828Z</time></trkpt><trkpt lat="37.99960765436856" lon="15.415255101163464"><ele>22.0</ele><time>2026-04-12T11:09:46.828Z</time></trkpt><trkpt lat="37.99962082588598" lon="15.415376887698864"><ele>22.0</ele><time>2026-04-12T11:09:47.828Z</time></trkpt><trkpt lat="37.99959845122615" lon="15.415508589934959"><ele>22.0</ele><time>2026-04-12T11:09:48.828Z</time></trkpt><trkpt lat="37.99957301700213" lon="15.415681870286294"><ele>22.0</ele><time>2026-04-12T11:09:49.828Z</time></trkpt><trkpt lat="37.99953680961649" lon="15.415880159922027"><ele>21.333333333333332</ele><time>2026-04-12T11:09:50.828Z</time></trkpt><trkpt lat="37.999477839125376" lon="15.416099691373946"><ele>20.666666666666668</ele><time>2026-04-12T11:09:51.828Z</time></trkpt><trkpt lat="37.99939658674574" lon="15.41633468600991"><ele>20.0</ele><time>2026-04-12T11:09:52.828Z</time></trkpt><trkpt lat="37.999306219724616" lon="15.416587721778493"><ele>20.0</ele><time>2026-04-12T11:09:53.828Z</time></trkpt><trkpt lat="37.999226613215086" lon="15.416845376067721"><ele>20.0</ele><time>2026-04-12T11:09:54.828Z</time></trkpt><trkpt lat="37.99914630692914" lon="15.417081237887295"><ele>20.0</ele><time>2026-04-12T11:09:55.828Z</time></trkpt><trkpt lat="37.99907369797574" lon="15.417301968438922"><ele>18.6</ele><time>2026-04-12T11:09:56.828Z</time></trkpt><trkpt lat="37.9990174950535" lon="15.417476084082997"><ele>17.2</ele><time>2026-04-12T11:09:57.828Z</time></trkpt><trkpt lat="37.998977764550844" lon="15.417621881865182"><ele>15.8</ele><time>2026-04-12T11:09:58.828Z</time></trkpt><trkpt lat="37.99892223735038" lon="15.41770671462486"><ele>14.4</ele><time>2026-04-12T11:09:59.828Z</time></trkpt><trkpt lat="37.99887823598474" lon="15.417801430963396"><ele>13.0</ele><time>2026-04-12T11:10:01.828Z</time></trkpt><trkpt lat="37.99907150881379" lon="15.418001347050485"><ele>12.666666666666666</ele><time>2026-04-12T11:10:02.828Z</time></trkpt><trkpt lat="37.99914558345964" lon="15.418129510561647"><ele>12.333333333333332</ele><time>2026-04-12T11:10:03.828Z</time></trkpt><trkpt lat="37.999278026704125" lon="15.418280403761797"><ele>12.0</ele><time>2026-04-12T11:10:04.828Z</time></trkpt><trkpt lat="37.99942397124289" lon="15.418450583424505"><ele>12.666666666666668</ele><time>2026-04-12T11:10:05.828Z</time></trkpt><trkpt lat="37.99957992669057" lon="15.418628226639399"><ele>13.333333333333334</ele><time>2026-04-12T11:10:06.828Z</time></trkpt><trkpt lat="37.99974926206706" lon="15.418800524917236"><ele>14.0</ele><time>2026-04-12T11:10:07.828Z</time></trkpt><trkpt lat="37.99992024334034" lon="15.41895809570089"><ele>14.333333333333334</ele><time>2026-04-12T11:10:08.827Z</time></trkpt><trkpt lat="38.00006179246741" lon="15.419101614027124"><ele>14.666666666666668</ele><time>2026-04-12T11:10:09.827Z</time></trkpt><trkpt lat="38.00019339527499" lon="15.419231098182465"><ele>15.0</ele><time>2026-04-12T11:10:10.827Z</time></trkpt><trkpt lat="38.000308317150036" lon="15.419342717431077"><ele>15.0</ele><time>2026-04-12T11:10:11.827Z</time></trkpt><trkpt lat="38.00037392506027" lon="15.419485491071963"><ele>15.0</ele><time>2026-04-12T11:10:12.827Z</time></trkpt><trkpt lat="38.000457828288305" lon="15.419571368699561"><ele>15.0</ele><time>2026-04-12T11:10:13.827Z</time></trkpt><trkpt lat="38.00052211712316" lon="15.419627514363869"><ele>15.0</ele><time>2026-04-12T11:10:14.827Z</time></trkpt><trkpt lat="38.00059366807744" lon="15.419701805039901"><ele>15.0</ele><time>2026-04-12T11:10:16.827Z</time></trkpt><trkpt lat="38.00066196596873" lon="15.419721891644986"><ele>11.0</ele><time>2026-04-12T11:10:19.827Z</time></trkpt><trkpt lat="38.00073045924415" lon="15.419764290669958"><ele>11.0</ele><time>2026-04-12T11:10:21.827Z</time></trkpt><trkpt lat="38.00064563135072" lon="15.419709470820699"><ele>11.0</ele><time>2026-04-12T11:10:29.827Z</time></trkpt><trkpt lat="38.00067137023652" lon="15.419621373387255"><ele>15.0</ele><time>2026-04-12T11:10:58.97Z</time></trkpt><trkpt lat="38.000594864761304" lon="15.419594028252968"><ele>15.0</ele><time>2026-04-12T11:12:33.972Z</time></trkpt><trkpt lat="38.00053131645337" lon="15.419606008795421"><ele>15.0</ele><time>2026-04-12T11:12:35.823Z</time></trkpt></trkseg></trk></gpx>